{
  "fields": [{"id":"_id","type":"int"},{"id":"Time (EPOCH)","type":"numeric"},{"id":"Latitude","type":"numeric"},{"id":"Longitude","type":"numeric"},{"id":"AMSL (m)","type":"numeric"},{"id":"AGL (m)","type":"numeric"},{"id":"Heading (deg)","type":"numeric"},{"id":"WindU (m/s)","type":"numeric"},{"id":"WindV (m/s)","type":"numeric"},{"id":"Temperature (C)","type":"numeric"},{"id":"RH (%)","type":"numeric"},{"id":"CH4 (ppm)","type":"numeric"},{"id":"CO2 (ppm)","type":"numeric"}],
  "records": [
    [1,1537378551,53.3092,-110.0626,660.8,2.8,270.0,2.1,-0.1,10.4,71.53,2.0173,393.6168],
    [2,1537378552,53.3092,-110.0629,661.0,3.0,270.2,2.2,0.0,10.15,71.86,2.0154,394.0832],
    [3,1537378553,53.3092,-110.0632,661.2,3.1,269.9,3.1,0.1,10.33,72.54,2.0149,394.0991],
    [4,1537378554,53.3092,-110.0636,661.5,2.7,269.6,3.4,0.2,10.23,72.63,2.0148,394.1299],
    [5,1537378555,53.3092,-110.064,661.7,2.7,269.5,3.1,0.2,10.24,73.8,2.0151,394.5514],
    [6,1537378556,53.3092,-110.0644,662.0,3.0,269.7,3.0,0.1,10.98,73.52,2.0145,395.79],
    [7,1537378557,53.3092,-110.0648,662.2,3.2,270.3,2.5,0.0,10.2,74.4,2.0167,395.1882],
    [8,1537378558,53.3092,-110.0652,662.5,2.7,270.3,2.2,0.0,10.09,74.49,2.0169,395.1961],
    [9,1537378559,53.3092,-110.0657,662.7,2.7,269.9,2.3,0.2,10.25,75.16,2.0161,395.0908],
    [10,1537378560,53.3092,-110.0662,663.0,3.0,269.0,2.2,0.6,10.15,75.52,2.015,395.0908],
    [11,1537378561,53.3092,-110.0667,663.3,2.6,269.1,2.2,0.4,10.61,75.88,2.0158,394.8902],
    [12,1537378562,53.3092,-110.0673,663.6,2.6,269.0,2.1,0.4,10.1,76.57,2.0159,396.2111],
    [13,1537378563,53.3092,-110.0678,663.9,2.9,267.9,1.9,1.2,9.6,75.98,2.0175,394.7215],
    [14,1537378564,53.3092,-110.0684,664.4,3.4,267.3,1.5,1.5,10.13,75.16,2.0175,391.7282],
    [15,1537378565,53.3092,-110.069,664.9,3.0,268.5,1.4,0.8,9.61,74.93,2.0156,395.7962],
    [16,1537378566,53.3092,-110.0696,665.5,3.5,269.7,1.8,0.2,9.66,75.31,2.0148,395.1064],
    [17,1537378567,53.3092,-110.0702,666.1,4.1,269.3,1.7,1.1,9.83,76.12,2.0154,394.6502],
    [18,1537378568,53.3092,-110.0709,666.8,4.1,266.0,2.2,3.2,9.92,77.42,2.0145,394.8369],
    [19,1537378569,53.3092,-110.0715,668.4,5.4,265.5,3.2,3.3,10.54,79.06,2.0161,394.8968],
    [20,1537378570,53.3092,-110.0722,669.8,5.8,266.3,3.6,2.6,10.22,79.76,2.0196,396.2986],
    [21,1537378571,53.3092,-110.0729,671.1,7.1,267.1,3.4,1.9,9.77,78.99,2.0181,395.6721],
    [22,1537378572,53.3092,-110.0735,672.5,8.5,268.0,3.1,1.5,9.75,77.09,2.0185,394.9078],
    [23,1537378573,53.3092,-110.0742,674.8,10.0,268.2,3.1,1.4,10.13,76.0,2.0192,394.8226],
    [24,1537378574,53.3092,-110.0749,677.3,12.3,268.6,2.9,1.3,9.55,75.14,2.0187,394.6816],
    [25,1537378575,53.3092,-110.0756,680.0,15.0,268.9,3.2,1.2,9.49,75.1,2.0185,394.564],
    [26,1537378576,53.3092,-110.0763,684.1,19.1,269.0,4.0,1.3,9.2,75.77,2.0193,395.8189],
    [27,1537378577,53.3092,-110.077,688.4,22.4,266.6,4.9,3.5,9.39,75.78,2.0213,394.5522],
    [28,1537378578,53.3092,-110.0778,692.9,26.9,265.3,5.3,4.7,9.71,75.66,2.0242,395.7338],
    [29,1537378579,53.3092,-110.0785,698.0,32.0,267.0,5.5,3.2,9.59,76.24,2.0258,394.9138],
    [30,1537378580,53.3092,-110.0792,703.1,37.1,269.3,5.4,1.4,9.49,76.92,2.0192,394.677],
    [31,1537378581,53.3092,-110.0799,708.8,42.8,268.6,5.0,2.2,9.69,77.49,2.0165,393.9329],
    [32,1537378582,53.3093,-110.0806,713.7,47.7,267.8,4.6,2.8,9.59,78.41,2.0162,395.6023],
    [33,1537378583,53.3093,-110.0814,719.0,52.7,270.5,4.3,1.2,8.99,78.82,2.0153,394.5043],
    [34,1537378584,53.3093,-110.0821,724.8,57.8,270.4,4.5,2.0,10.1,78.7,2.0158,394.5406],
    [35,1537378585,53.3093,-110.0829,732.7,65.7,269.4,4.6,2.9,9.2,78.18,2.0161,394.8579],
    [36,1537378586,53.3093,-110.0836,739.6,72.6,271.5,4.5,1.0,10.09,78.11,2.0161,393.6147],
    [37,1537378587,53.3093,-110.0843,745.3,78.3,272.6,4.2,0.5,9.51,78.64,2.016,394.3225],
    [38,1537378588,53.3094,-110.085,751.0,84.0,271.5,3.5,1.0,9.56,79.77,2.0151,394.5985],
    [39,1537378589,53.3094,-110.0858,756.8,89.3,272.9,4.1,0.2,9.41,79.98,2.0171,394.2506],
    [40,1537378590,53.3094,-110.0865,764.6,96.6,272.7,4.7,0.3,9.27,81.58,2.0169,393.4819],
    [41,1537378591,53.3094,-110.0872,772.8,103.7,273.2,4.8,0.4,9.17,82.09,2.0171,394.1923],
    [42,1537378592,53.3095,-110.088,781.5,112.5,271.8,4.6,1.8,9.02,82.5,2.0166,394.812],
    [43,1537378593,53.3095,-110.0887,790.3,121.3,271.7,4.3,1.6,8.58,83.16,2.0169,394.6305],
    [44,1537378594,53.3095,-110.0894,798.7,129.6,272.8,4.5,1.1,9.11,84.55,2.0202,393.0523],
    [45,1537378595,53.3096,-110.0901,807.2,139.2,271.6,4.5,2.0,8.76,84.94,2.0266,393.1668],
    [46,1537378596,53.3096,-110.0908,815.1,147.1,271.5,4.6,2.0,9.77,85.44,2.0274,394.2958],
    [47,1537378597,53.3096,-110.0915,822.7,154.6,272.3,4.8,1.3,9.17,86.29,2.0246,394.8851],
    [48,1537378598,53.3097,-110.0922,829.7,162.7,273.9,5.0,0.1,8.93,86.56,2.0224,393.6028],
    [49,1537378599,53.3097,-110.0929,836.1,168.1,274.9,5.0,-0.2,8.52,87.02,2.019,393.7113],
    [50,1537378600,53.3097,-110.0936,842.5,175.5,274.1,5.3,0.5,8.69,87.44,2.0201,393.6554],
    [51,1537378601,53.3098,-110.0943,848.4,181.4,275.2,5.3,-0.4,8.99,87.45,2.0205,393.3577],
    [52,1537378602,53.3098,-110.095,855.4,188.4,274.1,5.5,1.0,8.55,89.11,2.0205,392.4193],
    [53,1537378603,53.3099,-110.0957,863.6,196.6,270.5,6.1,3.4,8.98,90.09,2.0178,392.6882],
    [54,1537378604,53.3099,-110.0963,870.9,203.9,272.2,6.2,1.2,8.16,92.33,2.0169,392.8574],
    [55,1537378605,53.3099,-110.097,877.4,210.4,273.7,5.6,0.2,8.55,92.95,2.0185,394.6379],
    [56,1537378606,53.3099,-110.0977,884.0,217.0,271.2,6.0,2.2,8.51,91.87,2.0131,393.0659],
    [57,1537378607,53.31,-110.0984,890.7,224.7,271.8,6.2,1.2,8.42,91.29,2.0094,394.9286],
    [58,1537378608,53.31,-110.0991,897.0,230.9,273.6,5.6,0.1,9.05,90.02,2.0027,394.7482],
    [59,1537378609,53.31,-110.0998,903.4,237.4,271.9,5.5,1.3,8.31,88.84,2.0005,395.6866],
    [60,1537378610,53.3101,-110.1004,909.4,243.4,271.6,6.0,1.2,8.92,87.7,2.0041,394.0568],
    [61,1537378611,53.3101,-110.1011,915.2,249.2,272.3,6.4,0.4,8.57,87.33,2.013,393.7752],
    [62,1537378612,53.3101,-110.1018,921.5,255.5,272.1,6.7,0.5,8.0,88.39,2.0154,394.3583],
    [63,1537378613,53.3101,-110.1024,928.3,262.3,271.9,6.2,0.6,8.09,89.74,2.0278,394.4223],
    [64,1537378614,53.3101,-110.1031,936.3,270.3,271.2,5.3,1.2,8.08,92.45,2.0215,392.8699],
    [65,1537378615,53.3102,-110.1037,943.9,277.9,269.6,5.0,1.9,8.74,94.04,2.0058,393.7405],
    [66,1537378616,53.3102,-110.1044,950.1,285.1,270.4,4.9,0.9,7.86,94.87,2.0021,394.4849],
    [67,1537378617,53.3102,-110.105,955.4,290.4,271.2,4.9,0.1,8.11,94.93,2.0006,394.4849],
    [68,1537378618,53.3102,-110.1057,960.4,294.3,270.8,5.0,0.2,7.66,94.34,1.9993,394.0129],
    [69,1537378619,53.3102,-110.1063,964.9,298.6,270.7,5.1,0.3,7.5,93.51,1.9981,393.5486],
    [70,1537378620,53.3102,-110.107,969.0,303.0,270.8,5.0,0.3,7.98,92.73,1.9986,393.6546],
    [71,1537378621,53.3102,-110.1077,972.0,306.0,269.9,4.9,0.9,7.5,93.68,2.0001,395.2265],
    [72,1537378622,53.3102,-110.1084,975.4,310.4,268.2,4.5,2.3,7.88,93.85,2.0071,393.4856],
    [73,1537378623,53.3102,-110.109,979.2,314.2,268.0,4.4,2.5,7.38,95.45,2.0076,394.9303],
    [74,1537378624,53.3102,-110.1097,982.1,317.1,270.6,4.5,0.9,7.0,97.64,2.0052,393.8302],
    [75,1537378625,53.3102,-110.1104,984.1,318.1,271.8,3.9,0.6,6.87,98.96,2.0063,394.7144],
    [76,1537378626,53.3103,-110.1111,986.6,319.6,271.4,3.8,1.4,7.29,99.65,2.0076,395.1469],
    [77,1537378627,53.3103,-110.1118,989.3,322.3,271.3,3.8,1.7,7.32,100.03,2.0081,394.9233],
    [78,1537378628,53.3103,-110.1126,992.3,325.3,271.4,4.2,1.7,7.13,100.06,2.0079,394.9233],
    [79,1537378629,53.3103,-110.1133,994.9,328.2,271.1,4.5,2.0,7.04,99.98,2.0081,393.9451],
    [80,1537378630,53.3104,-110.114,996.9,330.9,271.2,4.6,2.2,7.32,100.18,2.0092,393.9351],
    [81,1537378631,53.3104,-110.1147,999.4,333.4,272.8,4.8,0.4,7.11,100.07,2.0094,393.9351],
    [82,1537378632,53.3104,-110.1155,1002.1,336.1,275.0,4.4,-1.3,6.63,99.91,2.0101,395.9451],
    [83,1537378633,53.3105,-110.1162,1005.5,339.5,272.8,4.9,0.4,7.56,99.47,2.0141,392.9218],
    [84,1537378634,53.3105,-110.117,1008.9,342.9,271.7,5.6,1.0,6.39,99.96,2.0145,392.9218],
    [85,1537378635,53.3105,-110.1177,1012.5,346.5,273.1,5.2,0.0,6.56,99.98,2.0192,394.4375],
    [86,1537378636,53.3105,-110.1185,1016.2,350.2,273.8,5.0,-0.5,7.02,99.79,2.0192,394.4375],
    [87,1537378637,53.3106,-110.1192,1020.0,354.0,274.6,4.7,-0.7,6.82,99.96,2.0121,376.4032],
    [88,1537378638,53.3106,-110.12,1024.7,358.7,275.1,4.5,-0.5,6.76,99.88,2.0073,392.5318],
    [89,1537378639,53.3107,-110.1208,1029.7,363.7,275.1,4.4,0.1,6.85,100.02,2.0153,395.54],
    [90,1537378640,53.3107,-110.1215,1035.1,369.1,274.5,5.4,1.3,6.83,99.8,2.0158,395.2626],
    [91,1537378641,53.3108,-110.1223,1041.5,375.5,274.7,6.5,1.5,6.63,100.16,2.0156,394.172],
    [92,1537378642,53.3108,-110.123,1047.4,381.4,275.3,6.8,1.1,6.15,100.25,2.0092,394.9631],
    [93,1537378643,53.3109,-110.1237,1052.9,387.6,275.6,5.9,0.9,6.96,99.99,2.0018,394.7732],
    [94,1537378644,53.3109,-110.1245,1057.2,392.2,275.3,4.9,1.3,7.0,99.52,1.9905,395.3648],
    [95,1537378645,53.311,-110.1252,1060.8,395.9,276.0,4.9,0.3,6.45,99.88,1.9866,396.3598],
    [96,1537378646,53.311,-110.1259,1063.6,399.6,276.2,4.7,0.0,7.05,99.73,1.9893,394.8834],
    [97,1537378647,53.3111,-110.1267,1067.0,403.0,273.8,4.9,1.5,6.02,99.95,1.9918,393.5499],
    [98,1537378648,53.3111,-110.1274,1070.3,406.3,272.7,4.8,1.5,6.52,100.21,1.992,394.54],
    [99,1537378649,53.3112,-110.1282,1073.2,408.2,272.8,4.7,1.0,5.99,99.95,1.9928,394.206],
    [100,1537378650,53.3112,-110.1289,1076.2,411.2,271.5,4.6,1.8,6.47,99.74,1.9938,394.0732],
    [101,1537378651,53.3112,-110.1297,1079.9,414.9,270.0,4.4,2.7,6.16,100.03,1.9989,394.1012],
    [102,1537378652,53.3112,-110.1304,1083.1,418.1,269.1,5.0,3.2,6.42,100.05,2.0062,392.4139],
    [103,1537378653,53.3113,-110.1312,1086.0,422.0,269.9,5.8,2.5,5.8,100.3,2.0076,393.3158],
    [104,1537378654,53.3113,-110.132,1089.5,425.5,270.2,5.7,2.6,6.19,100.06,2.0098,393.7904],
    [105,1537378655,53.3113,-110.1327,1093.0,428.3,271.3,5.3,1.9,6.19,100.17,2.011,391.8947],
    [106,1537378656,53.3113,-110.1335,1097.1,432.1,272.8,4.9,1.6,6.53,99.83,2.0112,391.8947],
    [107,1537378657,53.3114,-110.1343,1101.6,436.6,273.1,4.9,2.0,6.09,99.91,2.0115,393.043],
    [108,1537378658,53.3114,-110.135,1105.4,440.4,273.8,4.9,1.7,5.93,100.29,2.011,394.5769],
    [109,1537378659,53.3115,-110.1358,1109.1,444.1,274.4,4.8,1.3,5.82,100.02,2.012,394.4972],
    [110,1537378660,53.3115,-110.1365,1113.3,448.3,274.6,5.4,1.2,5.56,99.87,2.0178,394.3692],
    [111,1537378661,53.3116,-110.1373,1117.3,452.2,274.1,6.3,1.5,5.94,99.99,2.0141,392.5203],
    [112,1537378662,53.3116,-110.1381,1121.3,455.3,274.8,5.9,0.8,5.89,100.11,2.0123,393.8414],
    [113,1537378663,53.3117,-110.1389,1125.5,459.5,274.3,5.8,1.3,5.66,99.86,2.0112,394.0678],
    [114,1537378664,53.3117,-110.1396,1129.4,463.4,273.0,6.6,1.9,5.34,100.09,1.9745,394.1855],
    [115,1537378665,53.3118,-110.1404,1134.1,468.1,273.6,7.0,0.8,6.24,99.77,1.9715,394.091],
    [116,1537378666,53.3118,-110.1412,1138.6,472.6,273.7,7.6,0.3,5.81,100.43,1.968,395.5417],
    [117,1537378667,53.3118,-110.1419,1143.1,477.1,273.4,8.1,0.2,5.5,100.03,1.9619,394.6329],
    [118,1537378668,53.3119,-110.1427,1147.6,481.6,272.9,8.2,0.3,5.7,100.12,1.9677,394.3772],
    [119,1537378669,53.3119,-110.1434,1152.3,486.3,272.8,8.0,-0.1,5.85,100.08,1.9798,394.8772],
    [120,1537378670,53.3119,-110.1442,1156.9,490.9,272.3,7.5,0.5,6.06,99.76,1.9854,393.8605],
    [121,1537378671,53.3119,-110.145,1161.9,495.9,270.9,7.2,1.3,5.31,100.06,1.9796,393.4563],
    [122,1537378672,53.312,-110.1457,1166.8,500.8,271.2,6.8,0.3,5.51,99.86,1.9839,393.4853],
    [123,1537378673,53.312,-110.1465,1171.2,504.9,269.0,6.5,1.9,5.26,100.12,1.989,394.3018],
    [124,1537378674,53.312,-110.1472,1175.8,508.8,267.4,6.8,2.4,5.17,99.97,1.9882,394.3554],
    [125,1537378675,53.312,-110.1479,1179.8,513.8,268.0,7.1,1.4,5.4,100.57,1.9809,392.4904],
    [126,1537378676,53.312,-110.1487,1183.0,517.0,266.9,7.0,2.1,5.45,99.61,1.971,393.0137],
    [127,1537378677,53.312,-110.1494,1186.9,520.9,264.9,6.9,3.2,4.88,99.9,1.9729,392.9158],
    [128,1537378678,53.3119,-110.1502,1190.8,524.8,264.3,6.4,2.8,5.08,100.04,1.9787,394.1621],
    [129,1537378679,53.3119,-110.1509,1195.0,528.2,263.2,6.3,3.4,5.67,100.09,1.9918,394.3334],
    [130,1537378680,53.3119,-110.1516,1199.1,532.1,263.7,6.4,2.6,5.33,99.96,1.9853,394.244],
    [131,1537378681,53.3119,-110.1524,1202.3,535.3,267.0,6.7,0.5,4.9,99.87,1.9882,392.8821],
    [132,1537378682,53.3118,-110.1531,1205.5,538.5,266.7,6.7,1.6,5.15,100.0,1.9823,393.4216],
    [133,1537378683,53.3118,-110.1538,1209.0,541.7,267.1,6.4,1.9,5.65,99.97,1.9767,393.8673],
    [134,1537378684,53.3118,-110.1546,1211.9,543.9,269.0,6.1,1.2,5.54,100.22,1.9733,394.0284],
    [135,1537378685,53.3118,-110.1553,1214.5,545.5,270.0,5.9,1.3,5.16,100.41,1.9924,393.4297],
    [136,1537378686,53.3118,-110.1561,1217.5,548.5,270.6,5.7,1.6,4.89,99.96,1.9964,392.6557],
    [137,1537378687,53.3119,-110.1568,1220.6,550.6,270.9,5.6,2.2,4.97,99.84,1.9925,394.0355],
    [138,1537378688,53.3119,-110.1576,1223.4,552.5,271.6,6.1,2.2,4.9,100.0,1.9905,394.5835],
    [139,1537378689,53.3119,-110.1584,1226.4,556.1,273.2,6.4,1.6,5.07,100.36,1.9929,390.3714],
    [140,1537378690,53.312,-110.1591,1229.7,559.7,275.3,6.2,1.0,4.84,99.81,1.9945,393.5045],
    [141,1537378691,53.312,-110.1599,1232.9,562.9,277.2,5.9,0.3,4.9,99.85,2.0063,393.4697],
    [142,1537378692,53.3121,-110.1607,1235.3,565.3,277.4,5.9,1.1,4.78,99.98,2.0088,394.5526],
    [143,1537378693,53.3122,-110.1614,1238.2,568.2,277.1,6.2,1.7,4.73,99.8,2.0076,394.1304],
    [144,1537378694,53.3123,-110.1621,1241.9,571.9,277.2,6.0,1.3,4.05,99.97,2.0014,393.989],
    [145,1537378695,53.3123,-110.1629,1246.9,576.8,276.9,5.3,1.4,5.0,99.72,1.9889,392.9624],
    [146,1537378696,53.3124,-110.1637,1251.8,582.8,276.1,4.9,1.8,4.75,100.54,1.9991,393.0391],
    [147,1537378697,53.3125,-110.1645,1256.2,586.2,275.4,5.0,2.4,4.45,100.47,2.0029,393.0391],
    [148,1537378698,53.3126,-110.1653,1259.7,589.7,274.5,5.6,2.8,4.63,100.51,1.9993,393.2254],
    [149,1537378699,53.3126,-110.166,1262.7,592.7,275.0,5.9,2.0,5.3,99.6,1.9929,393.5997],
    [150,1537378700,53.3127,-110.1668,1265.6,596.5,274.6,6.2,1.9,4.65,99.6,1.9933,393.0824],
    [151,1537378701,53.3127,-110.1676,1268.1,599.2,273.9,6.2,2.1,4.32,99.97,1.9943,393.3378],
    [152,1537378702,53.3128,-110.1683,1270.4,600.4,274.1,5.9,1.6,4.66,99.87,1.9934,393.519],
    [153,1537378703,53.3128,-110.1691,1273.7,603.7,272.9,6.0,2.8,3.87,99.96,1.9935,391.9862],
    [154,1537378704,53.3129,-110.1699,1278.0,608.0,273.0,5.9,2.1,4.22,100.01,1.9941,391.7969],
    [155,1537378705,53.3129,-110.1707,1282.1,611.0,274.4,5.3,0.6,4.52,100.56,1.9944,392.859],
    [156,1537378706,53.313,-110.1715,1286.2,615.2,273.1,5.0,1.3,4.34,99.87,1.9973,393.8002],
    [157,1537378707,53.313,-110.1722,1290.0,618.0,273.0,4.3,1.1,4.32,99.63,1.9952,394.0119],
    [158,1537378708,53.3131,-110.173,1293.1,621.1,272.6,3.8,2.0,4.17,99.9,1.9945,393.4477],
    [159,1537378709,53.3131,-110.1738,1295.9,622.9,271.1,3.8,3.0,4.7,99.87,1.9967,394.177],
    [160,1537378710,53.3131,-110.1746,1298.9,625.9,271.8,4.1,2.4,4.85,99.52,2.005,394.6198],
    [161,1537378711,53.3132,-110.1754,1303.0,630.0,269.9,4.7,4.0,3.99,99.77,2.0087,394.7963],
    [162,1537378712,53.3132,-110.1762,1308.4,634.4,269.8,5.8,3.6,4.1,100.22,2.0089,393.1898],
    [163,1537378713,53.3132,-110.177,1313.7,638.0,271.8,5.9,1.3,3.96,100.35,2.0082,393.436],
    [164,1537378714,53.3133,-110.1778,1318.3,642.3,271.6,5.5,1.4,3.78,100.36,2.0083,394.6557],
    [165,1537378715,53.3133,-110.1786,1322.4,646.5,271.0,5.6,1.5,3.76,99.91,2.0074,394.6362],
    [166,1537378716,53.3133,-110.1794,1326.1,649.4,270.5,5.0,1.5,3.88,100.04,2.0041,393.4292],
    [167,1537378717,53.3133,-110.1802,1329.6,652.7,269.6,5.0,1.9,4.1,100.48,1.9909,393.0965],
    [168,1537378718,53.3133,-110.181,1333.0,656.0,269.1,6.0,2.0,3.39,99.76,1.985,393.5233],
    [169,1537378719,53.3133,-110.1818,1336.0,659.7,269.4,6.1,1.7,3.91,99.99,1.9866,393.8546],
    [170,1537378720,53.3134,-110.1826,1339.6,662.5,269.1,5.7,2.2,3.52,100.02,1.9859,394.4011],
    [171,1537378721,53.3134,-110.1834,1343.1,666.1,268.7,6.0,2.5,3.75,100.02,1.9956,394.0169],
    [172,1537378722,53.3134,-110.1842,1346.8,668.8,270.2,6.1,1.2,3.78,100.39,1.9995,393.2486],
    [173,1537378723,53.3134,-110.185,1350.8,672.8,270.4,6.4,1.4,3.71,99.92,1.9975,394.8553],
    [174,1537378724,53.3134,-110.1858,1354.7,676.7,270.9,6.6,1.1,3.59,100.04,2.0017,392.9149],
    [175,1537378725,53.3134,-110.1866,1359.3,681.2,270.9,6.6,1.4,3.76,100.11,2.0039,392.9149],
    [176,1537378726,53.3134,-110.1874,1364.7,685.5,269.9,6.8,2.2,3.4,100.03,1.9897,394.9081],
    [177,1537378727,53.3135,-110.1882,1369.9,690.6,270.6,6.9,1.5,3.3,100.08,1.9968,393.3844],
    [178,1537378728,53.3135,-110.189,1375.3,696.0,271.3,6.8,0.8,2.97,99.89,1.9989,393.4944],
    [179,1537378729,53.3135,-110.1898,1380.8,700.8,271.3,6.5,0.9,3.27,99.75,1.9991,397.0892],
    [180,1537378730,53.3135,-110.1906,1386.0,705.0,271.3,6.9,0.8,3.47,100.14,1.9953,394.898],
    [181,1537378731,53.3135,-110.1914,1391.5,710.5,271.3,7.2,0.9,3.54,100.01,1.9922,394.2465],
    [182,1537378732,53.3136,-110.1921,1397.0,716.0,272.0,7.1,0.3,3.38,99.97,1.9979,394.4703],
    [183,1537378733,53.3136,-110.1929,1402.6,721.6,272.4,7.0,-0.3,3.4,100.2,1.9979,393.9735],
    [184,1537378734,53.3136,-110.1937,1408.9,727.9,271.7,7.0,0.4,3.3,100.06,1.989,394.8034],
    [185,1537378735,53.3136,-110.1945,1415.2,734.2,270.6,7.1,1.0,3.09,99.97,1.9802,395.0882],
    [186,1537378736,53.3136,-110.1952,1421.1,739.1,271.1,6.9,0.1,3.33,99.85,1.9912,395.1559],
    [187,1537378737,53.3136,-110.196,1426.1,744.1,270.9,6.7,-0.1,3.02,99.85,1.9846,394.0213],
    [188,1537378738,53.3136,-110.1968,1431.1,749.1,269.5,6.7,0.8,2.5,99.93,1.9711,393.4218],
    [189,1537378739,53.3136,-110.1975,1436.0,754.0,268.3,6.5,1.5,3.16,100.12,1.9829,393.4218],
    [190,1537378740,53.3136,-110.1983,1440.7,758.7,267.5,6.7,1.8,2.81,100.08,1.9962,394.4275],
    [191,1537378741,53.3136,-110.1991,1446.3,764.3,268.5,7.1,0.8,2.87,100.02,1.9985,394.4475],
    [192,1537378742,53.3136,-110.1998,1451.5,770.5,269.9,7.0,0.0,3.13,100.31,1.9686,393.2854],
    [193,1537378743,53.3136,-110.2006,1456.1,775.1,269.6,6.7,1.0,2.42,100.07,1.9639,394.1006],
    [194,1537378744,53.3136,-110.2013,1460.4,778.4,269.3,6.7,1.7,2.88,100.33,1.9641,394.0483],
    [195,1537378745,53.3136,-110.2021,1464.5,782.5,270.2,6.9,1.4,2.85,100.57,1.9671,393.2164],
    [196,1537378746,53.3137,-110.2029,1468.8,785.8,270.5,7.0,1.3,2.84,99.96,1.9654,392.8336],
    [197,1537378747,53.3137,-110.2036,1473.2,789.2,270.2,7.0,2.1,2.91,100.07,1.9714,391.3352],
    [198,1537378748,53.3137,-110.2044,1477.6,792.9,270.1,6.7,2.2,2.67,100.17,1.9763,393.8463],
    [199,1537378749,53.3137,-110.2051,1481.5,796.5,271.2,6.6,1.5,3.34,99.7,1.9812,394.0935],
    [200,1537378750,53.3138,-110.2059,1485.2,799.2,271.4,6.7,1.4,2.6,100.29,1.9824,394.6816],
    [201,1537378751,53.3138,-110.2067,1488.9,802.9,271.2,6.8,1.6,2.65,99.99,1.9869,394.8342],
    [202,1537378752,53.3138,-110.2074,1492.9,806.9,270.2,7.1,2.3,2.61,100.0,1.9869,394.377],
    [203,1537378753,53.3138,-110.2082,1497.1,810.0,270.1,6.8,1.8,2.36,100.04,1.9839,395.2461],
    [204,1537378754,53.3138,-110.209,1500.9,813.9,272.2,6.1,0.6,1.95,99.92,1.9863,394.4992],
    [205,1537378755,53.3139,-110.2097,1504.8,816.8,270.6,6.3,2.9,2.55,100.01,1.9811,395.0268],
    [206,1537378756,53.3139,-110.2105,1508.7,820.7,272.2,7.0,1.4,2.85,99.67,1.9739,393.6764],
    [207,1537378757,53.3139,-110.2113,1512.3,824.3,273.0,6.9,0.8,2.88,99.53,1.972,393.1759],
    [208,1537378758,53.314,-110.212,1516.8,828.8,271.1,6.8,2.0,2.41,99.85,1.9756,391.3975],
    [209,1537378759,53.314,-110.2128,1521.4,832.4,271.3,6.9,1.4,2.29,100.02,1.982,394.0712],
    [210,1537378760,53.314,-110.2136,1525.5,836.5,270.6,7.0,2.1,2.25,99.88,1.9773,390.4292],
    [211,1537378761,53.314,-110.2143,1530.1,840.1,268.4,6.9,3.2,2.25,99.99,1.9632,393.1564],
    [212,1537378762,53.314,-110.2151,1534.1,843.7,269.2,6.9,2.1,1.97,99.96,1.9599,392.0721],
    [213,1537378763,53.3141,-110.2159,1537.6,846.6,268.7,7.2,2.6,2.45,99.69,1.9713,393.2406],
    [214,1537378764,53.3141,-110.2167,1541.1,850.1,268.9,7.2,2.1,2.75,99.5,1.98,393.7418],
    [215,1537378765,53.3141,-110.2174,1544.6,853.6,270.8,6.6,0.3,2.45,99.84,1.9789,393.637],
    [216,1537378766,53.3141,-110.2182,1548.6,856.6,269.8,7.1,1.2,2.5,99.46,1.9676,392.8711],
    [217,1537378767,53.3141,-110.219,1552.9,860.9,268.5,7.6,2.2,2.13,100.32,1.9649,392.3632],
    [218,1537378768,53.3141,-110.2198,1557.3,864.3,269.5,7.8,1.2,1.99,99.89,1.9695,393.1488],
    [219,1537378769,53.3141,-110.2206,1562.0,869.0,269.7,7.6,1.1,1.47,99.85,1.9502,392.4075],
    [220,1537378770,53.3141,-110.2213,1566.5,873.5,270.0,8.0,0.5,2.16,100.08,1.9391,391.7701],
    [221,1537378771,53.3141,-110.2221,1570.6,876.6,270.4,8.0,0.2,2.08,99.97,1.9328,391.1289],
    [222,1537378772,53.3141,-110.2229,1575.2,881.2,270.5,7.9,0.1,2.08,99.96,1.9299,390.4102],
    [223,1537378773,53.3141,-110.2237,1580.1,886.1,271.1,8.0,-0.3,1.89,99.54,1.9292,390.4102],
    [224,1537378774,53.3141,-110.2245,1585.5,891.5,271.3,8.7,-0.3,1.69,94.36,1.9299,390.7118],
    [225,1537378775,53.3141,-110.2252,1591.7,897.7,271.1,8.8,-0.2,1.66,88.71,1.9305,391.4289],
    [226,1537378776,53.3142,-110.226,1598.5,904.5,271.6,8.8,-0.5,1.81,84.93,1.9299,391.1092],
    [227,1537378777,53.3142,-110.2268,1604.7,911.6,271.2,8.4,-0.1,2.57,82.39,1.9291,391.1032],
    [228,1537378778,53.3142,-110.2275,1609.3,916.3,271.2,8.2,-0.1,1.86,81.11,1.9299,391.4403],
    [229,1537378779,53.3142,-110.2283,1612.7,920.0,271.5,8.2,-0.3,2.28,80.07,1.9307,391.4478],
    [230,1537378780,53.3142,-110.2291,1616.0,924.1,271.7,8.0,-0.4,1.48,79.3,1.9311,390.9124],
    [231,1537378781,53.3142,-110.2298,1619.5,927.8,271.6,7.6,-0.1,1.74,79.18,1.9293,390.8429],
    [232,1537378782,53.3142,-110.2306,1622.8,931.7,271.5,7.2,0.3,2.35,77.91,1.9294,390.5866],
    [233,1537378783,53.3143,-110.2314,1625.3,933.3,272.5,7.1,0.4,2.05,77.01,1.9297,391.931],
    [234,1537378784,53.3143,-110.2322,1626.9,934.9,274.8,7.1,-0.1,1.84,76.13,1.9294,391.7762],
    [235,1537378785,53.3143,-110.233,1627.8,936.8,278.1,6.8,-0.8,2.53,74.75,1.9303,390.9757],
    [236,1537378786,53.3144,-110.2337,1629.2,938.2,280.7,6.9,-0.5,2.04,74.91,1.9296,390.9517],
    [237,1537378787,53.3145,-110.2345,1630.9,938.9,283.2,7.3,-0.5,2.19,74.12,1.93,393.6468],
    [238,1537378788,53.3147,-110.2353,1632.6,939.6,286.2,7.5,-0.6,1.69,74.11,1.9311,392.2987],
    [239,1537378789,53.3148,-110.2361,1634.6,941.6,289.2,7.5,-0.9,1.17,73.31,1.9311,392.0592],
    [240,1537378790,53.315,-110.2368,1636.9,943.9,292.3,7.5,-1.1,1.96,72.45,1.9311,392.0592],
    [241,1537378791,53.3152,-110.2376,1640.0,948.0,295.0,7.6,-1.2,1.91,71.95,1.9319,391.2751],
    [242,1537378792,53.3155,-110.2383,1643.6,951.6,296.5,7.9,-0.6,2.41,71.11,1.9297,391.9347],
    [243,1537378793,53.3157,-110.239,1647.2,955.2,298.5,7.7,-0.6,1.89,71.04,1.9305,392.4272],
    [244,1537378794,53.316,-110.2397,1651.3,959.4,301.0,7.5,-0.7,2.51,70.63,1.9303,392.9668],
    [245,1537378795,53.3163,-110.2404,1655.1,964.1,302.8,7.4,-0.9,1.51,71.14,1.9297,392.7695],
    [246,1537378796,53.3166,-110.2411,1660.2,969.0,305.1,6.9,-1.3,1.59,71.37,1.9305,392.1338],
    [247,1537378797,53.3169,-110.2418,1665.0,974.9,305.7,7.3,-0.9,1.43,71.93,1.9305,391.9138],
    [248,1537378798,53.3173,-110.2424,1669.8,979.9,306.5,7.3,-1.1,1.46,71.49,1.9297,392.0492],
    [249,1537378799,53.3176,-110.2431,1674.4,984.4,307.5,7.0,-1.2,1.63,71.13,1.9254,392.359],
    [250,1537378800,53.3179,-110.2437,1679.3,989.3,308.6,6.7,-1.4,1.58,70.45,1.926,391.0321],
    [251,1537378801,53.3183,-110.2443,1684.6,995.5,309.1,6.5,-1.3,0.84,69.37,1.9259,391.1591],
    [252,1537378802,53.3186,-110.245,1689.9,1001.0,309.8,6.3,-1.4,1.57,68.69,1.9244,392.7625],
    [253,1537378803,53.3189,-110.2456,1695.5,1006.3,310.1,6.2,-1.2,1.67,67.38,1.926,392.5699],
    [254,1537378804,53.3193,-110.2462,1700.8,1011.9,310.4,6.2,-1.0,0.9,65.88,1.925,392.3883],
    [255,1537378805,53.3196,-110.2468,1705.8,1016.9,310.2,6.4,-0.7,1.54,64.45,1.9246,391.6575],
    [256,1537378806,53.32,-110.2474,1710.8,1021.9,310.4,6.7,-0.7,1.35,62.9,1.9241,390.8555],
    [257,1537378807,53.3203,-110.248,1716.0,1027.0,311.1,6.5,-0.9,1.07,61.35,1.9238,389.944],
    [258,1537378808,53.3207,-110.2486,1721.8,1032.7,311.7,6.5,-1.0,1.85,58.94,1.9228,391.5248],
    [259,1537378809,53.321,-110.2491,1727.4,1038.3,311.8,6.7,-0.9,1.5,58.31,1.9233,390.7298],
    [260,1537378810,53.3214,-110.2498,1734.7,1045.6,312.1,6.7,-0.9,1.64,57.51,1.9239,392.7643],
    [261,1537378811,53.3218,-110.2503,1739.6,1050.0,312.6,6.5,-1.0,1.06,56.93,1.9235,393.1478],
    [262,1537378812,53.3221,-110.2509,1743.4,1053.5,313.0,6.6,-1.0,1.54,56.71,1.9238,392.9687],
    [263,1537378813,53.3225,-110.2515,1747.3,1056.6,313.0,7.0,-1.0,2.35,55.81,1.924,393.0697],
    [264,1537378814,53.3229,-110.2521,1751.4,1060.4,313.3,7.1,-1.1,1.69,56.13,1.9245,392.8347],
    [265,1537378815,53.3232,-110.2526,1755.2,1064.7,313.4,7.0,-0.9,2.09,56.04,1.9248,394.8477],
    [266,1537378816,53.3236,-110.2532,1758.1,1067.1,313.5,6.9,-0.7,1.59,55.88,1.9243,392.5473],
    [267,1537378817,53.324,-110.2537,1760.6,1069.6,313.6,6.9,-0.7,0.87,55.9,1.9255,393.3676],
    [268,1537378818,53.3244,-110.2543,1762.9,1073.0,313.8,6.9,-0.6,1.33,55.88,1.9268,392.5547],
    [269,1537378819,53.3248,-110.2549,1765.2,1075.5,313.9,6.8,-0.7,1.22,54.91,1.9232,391.4468],
    [270,1537378820,53.3251,-110.2555,1767.6,1078.6,313.9,6.9,-0.6,1.44,54.62,1.9255,392.8693],
    [271,1537378821,53.3255,-110.256,1770.2,1081.1,314.0,6.9,-0.7,1.54,54.89,1.9235,393.5175],
    [272,1537378822,53.3259,-110.2566,1772.6,1083.6,314.1,6.9,-0.8,1.46,54.65,1.9256,392.7293],
    [273,1537378823,53.3263,-110.2572,1774.5,1085.5,314.2,6.8,-0.9,1.37,54.06,1.9239,392.6275],
    [274,1537378824,53.3267,-110.2578,1776.4,1085.7,314.3,6.8,-1.0,1.49,54.37,1.9249,392.9793],
    [275,1537378825,53.3271,-110.2584,1777.9,1086.8,314.5,6.6,-1.1,1.34,54.45,1.9256,394.2319],
    [276,1537378826,53.3275,-110.259,1778.8,1088.0,314.3,6.5,-1.1,1.86,54.14,1.925,394.065],
    [277,1537378827,53.3279,-110.2596,1779.0,1088.0,314.1,6.5,-1.1,1.36,54.84,1.9263,393.7833],
    [278,1537378828,53.3283,-110.2602,1778.0,1088.0,314.0,6.4,-1.2,1.27,55.82,1.9252,392.2001],
    [279,1537378829,53.3287,-110.2608,1776.4,1086.3,313.9,6.3,-1.3,1.05,56.32,1.9239,392.0812],
    [280,1537378830,53.3291,-110.2615,1774.7,1085.8,313.7,6.2,-1.2,1.22,55.72,1.9246,393.7151],
    [281,1537378831,53.3296,-110.2622,1773.2,1084.2,313.7,6.1,-1.2,1.32,54.68,1.9239,391.2781],
    [282,1537378832,53.33,-110.2628,1772.1,1084.1,313.7,5.9,-1.2,0.91,54.58,1.9235,393.159],
    [283,1537378833,53.3304,-110.2635,1771.4,1083.1,313.7,5.9,-1.2,0.54,54.25,1.924,391.2839],
    [284,1537378834,53.3308,-110.2642,1771.1,1082.3,313.7,5.8,-1.3,1.21,53.65,1.9261,393.8627],
    [285,1537378835,53.3313,-110.2649,1771.1,1081.0,313.7,5.7,-1.3,1.55,53.03,1.9255,393.1682],
    [286,1537378836,53.3317,-110.2655,1771.1,1080.4,313.7,5.7,-1.4,1.23,53.67,1.9252,393.1207],
    [287,1537378837,53.3321,-110.2662,1771.2,1081.2,313.7,5.8,-1.5,1.17,53.05,1.9245,393.0487],
    [288,1537378838,53.3325,-110.2669,1771.3,1081.4,313.6,5.8,-1.5,1.55,52.29,1.9252,393.8022],
    [289,1537378839,53.333,-110.2676,1771.3,1082.3,313.7,5.6,-1.5,1.27,52.88,1.9243,392.5848],
    [290,1537378840,53.3334,-110.2683,1770.8,1082.0,313.6,5.7,-1.5,1.2,52.76,1.9274,393.0262],
    [291,1537378841,53.3339,-110.2691,1770.1,1082.2,313.7,5.5,-1.6,0.75,52.28,1.9266,393.8375],
    [292,1537378842,53.3343,-110.2698,1769.6,1081.1,313.8,5.3,-1.8,0.83,51.78,1.9261,391.9663],
    [293,1537378843,53.3348,-110.2705,1769.5,1080.4,313.8,5.3,-1.7,1.25,51.31,1.9265,392.1427],
    [294,1537378844,53.3352,-110.2712,1769.6,1081.6,313.8,5.1,-1.6,1.65,50.32,1.9265,394.0254],
    [295,1537378845,53.3356,-110.2719,1769.9,1081.7,313.7,5.0,-1.4,0.87,50.73,1.9269,391.9846],
    [296,1537378846,53.3361,-110.2727,1770.3,1082.9,313.8,4.6,-1.3,1.01,50.75,1.9264,394.2354],
    [297,1537378847,53.3366,-110.2734,1770.5,1084.9,313.8,4.4,-1.3,1.02,50.76,1.9268,392.1287],
    [298,1537378848,53.337,-110.2742,1770.6,1086.3,313.6,4.8,-1.3,1.32,50.97,1.9263,389.755],
    [299,1537378849,53.3375,-110.2749,1770.8,1088.1,314.0,4.5,-1.7,1.09,51.34,1.9257,393.3852],
    [300,1537378850,53.3379,-110.2757,1770.8,1091.2,313.9,4.5,-1.6,0.71,51.07,1.9258,392.3927],
    [301,1537378851,53.3384,-110.2764,1770.9,1091.1,313.6,4.9,-1.5,0.82,51.68,1.9273,395.3353],
    [302,1537378852,53.3389,-110.2772,1771.3,1090.3,313.9,4.6,-1.7,0.56,51.16,1.9269,392.6093],
    [303,1537378853,53.3393,-110.278,1771.6,1090.0,313.5,4.8,-1.3,1.2,50.6,1.9281,393.9416],
    [304,1537378854,53.3398,-110.2787,1771.7,1090.6,313.7,4.7,-1.6,1.15,50.34,1.93,393.4787],
    [305,1537378855,53.3402,-110.2795,1771.7,1092.8,313.9,4.7,-1.9,0.59,49.81,1.9288,393.076],
    [306,1537378856,53.3407,-110.2803,1771.9,1092.2,313.9,4.8,-1.9,1.38,48.92,1.9271,392.8272],
    [307,1537378857,53.3412,-110.281,1772.3,1094.0,314.1,4.6,-2.1,1.0,49.05,1.9271,392.8747],
    [308,1537378858,53.3416,-110.2818,1772.5,1095.2,314.1,4.5,-2.0,1.31,48.33,1.9291,392.7055],
    [309,1537378859,53.3421,-110.2826,1772.5,1095.5,314.1,4.4,-1.9,0.8,48.82,1.9292,391.5403],
    [310,1537378860,53.3426,-110.2833,1772.3,1095.1,314.0,4.4,-1.9,1.1,48.0,1.9286,392.7087],
    [311,1537378861,53.343,-110.2841,1772.1,1095.4,313.9,4.4,-1.9,0.76,48.22,1.9282,392.917],
    [312,1537378862,53.3435,-110.2849,1771.8,1094.3,313.9,4.4,-1.9,1.01,48.03,1.9284,393.9834],
    [313,1537378863,53.344,-110.2857,1771.6,1092.1,313.9,4.3,-1.8,1.02,48.19,1.9296,393.7509],
    [314,1537378864,53.3444,-110.2864,1771.4,1090.4,314.0,4.2,-2.0,0.78,47.41,1.9294,393.9064],
    [315,1537378865,53.3449,-110.2872,1771.2,1090.7,314.0,4.3,-2.0,1.07,47.44,1.9287,391.0786],
    [316,1537378866,53.3454,-110.288,1771.1,1089.1,314.0,4.3,-2.1,1.16,47.34,1.9263,393.0725],
    [317,1537378867,53.3459,-110.2888,1771.1,1089.5,314.0,4.3,-2.1,0.45,47.07,1.9266,393.0725],
    [318,1537378868,53.3463,-110.2896,1771.2,1090.2,314.0,4.3,-2.3,1.14,46.85,1.9287,392.6817],
    [319,1537378869,53.3468,-110.2904,1771.1,1090.5,314.0,4.5,-2.5,1.11,46.3,1.9265,392.963],
    [320,1537378870,53.3473,-110.2911,1771.1,1090.1,313.9,4.8,-2.6,0.81,46.18,1.9272,392.7964],
    [321,1537378871,53.3477,-110.2919,1771.3,1090.5,313.6,5.2,-2.4,0.69,46.12,1.9284,391.4166],
    [322,1537378872,53.3482,-110.2927,1771.6,1090.9,313.8,5.0,-2.6,1.8,45.93,1.9279,391.9157],
    [323,1537378873,53.3487,-110.2935,1772.1,1092.1,313.8,4.9,-2.5,1.19,46.2,1.9274,392.1159],
    [324,1537378874,53.3491,-110.2943,1772.7,1094.1,313.8,4.8,-2.3,1.03,46.51,1.9278,392.7474],
    [325,1537378875,53.3496,-110.2951,1773.0,1094.0,313.9,4.6,-2.4,1.05,46.59,1.9279,392.9104],
    [326,1537378876,53.3501,-110.2958,1773.0,1093.0,313.9,4.5,-2.3,1.06,47.03,1.9286,392.2871],
    [327,1537378877,53.3505,-110.2966,1772.7,1092.8,313.9,4.5,-2.2,0.86,46.59,1.9288,391.9036],
    [328,1537378878,53.351,-110.2974,1772.4,1091.3,313.9,4.4,-2.1,0.89,46.48,1.9282,389.3986],
    [329,1537378879,53.3515,-110.2982,1771.9,1089.9,313.8,4.5,-1.9,0.42,46.38,1.9272,393.3002],
    [330,1537378880,53.352,-110.299,1771.5,1088.8,313.8,4.4,-1.9,1.63,45.99,1.9273,391.6389],
    [331,1537378881,53.3525,-110.2998,1771.1,1089.0,313.7,4.5,-1.9,0.96,46.55,1.9275,392.9862],
    [332,1537378882,53.3529,-110.3006,1770.9,1087.8,313.8,4.5,-2.0,0.92,46.16,1.9276,393.6904],
    [333,1537378883,53.3534,-110.3014,1770.8,1087.2,313.8,4.5,-2.0,0.71,46.23,1.9279,393.4794],
    [334,1537378884,53.3539,-110.3022,1770.9,1086.9,313.8,4.5,-1.9,0.89,46.1,1.9286,393.6195],
    [335,1537378885,53.3544,-110.303,1771.1,1086.5,313.8,4.5,-1.9,0.89,46.69,1.9279,393.433],
    [336,1537378886,53.3548,-110.3037,1771.3,1086.0,313.8,4.4,-1.9,1.13,45.59,1.9264,393.5349],
    [337,1537378887,53.3553,-110.3045,1771.3,1085.3,313.8,4.5,-1.9,1.16,45.33,1.9289,393.6926],
    [338,1537378888,53.3558,-110.3053,1771.3,1086.0,313.8,4.6,-1.9,0.57,45.68,1.9271,393.4596],
    [339,1537378889,53.3563,-110.3061,1771.3,1086.0,313.7,4.9,-1.8,0.64,45.68,1.926,393.7343],
    [340,1537378890,53.3567,-110.3069,1771.4,1086.2,314.0,4.9,-1.9,1.86,45.12,1.926,393.521],
    [341,1537378891,53.3572,-110.3077,1771.6,1085.6,314.7,4.8,-2.0,1.61,44.86,1.927,392.9279],
    [342,1537378892,53.3577,-110.3085,1771.9,1084.9,315.3,4.8,-2.0,0.91,45.38,1.9271,392.4441],
    [343,1537378893,53.3582,-110.3092,1772.2,1084.9,315.9,4.6,-2.1,1.07,46.04,1.9264,392.7307],
    [344,1537378894,53.3587,-110.31,1772.5,1084.5,316.0,4.9,-1.7,0.38,45.33,1.9274,393.3068],
    [345,1537378895,53.3592,-110.3107,1772.5,1083.6,316.0,5.1,-1.5,0.97,45.27,1.9283,394.6599],
    [346,1537378896,53.3597,-110.3115,1772.4,1083.3,316.1,5.1,-1.4,1.59,44.71,1.9269,393.7352],
    [347,1537378897,53.3602,-110.3123,1772.0,1082.3,316.2,5.2,-1.3,0.91,45.68,1.9282,393.6602],
    [348,1537378898,53.3607,-110.313,1771.6,1081.3,316.4,5.1,-1.4,1.17,45.32,1.9274,390.0275],
    [349,1537378899,53.3612,-110.3138,1771.3,1081.3,316.4,5.1,-1.3,0.45,45.05,1.9284,393.0613],
    [350,1537378900,53.3617,-110.3145,1771.3,1081.3,316.6,5.1,-1.5,0.94,45.13,1.9273,392.888],
    [351,1537378901,53.3622,-110.3153,1771.4,1081.1,316.6,5.1,-1.4,1.22,44.36,1.927,392.9601],
    [352,1537378902,53.3627,-110.316,1771.6,1081.8,316.6,5.1,-1.4,0.76,45.05,1.929,394.1404],
    [353,1537378903,53.3632,-110.3167,1771.8,1082.7,316.7,4.9,-1.3,0.76,45.31,1.9281,393.1545],
    [354,1537378904,53.3638,-110.3175,1771.8,1082.8,316.7,4.9,-1.3,1.3,44.5,1.9275,393.4663],
    [355,1537378905,53.3643,-110.3183,1771.8,1083.9,316.7,4.9,-1.2,0.85,44.64,1.9275,392.9726],
    [356,1537378906,53.3648,-110.319,1771.8,1083.8,316.7,4.8,-1.2,1.23,44.49,1.9273,392.498],
    [357,1537378907,53.3653,-110.3198,1771.9,1084.2,316.7,4.7,-1.1,0.88,45.06,1.9271,393.596],
    [358,1537378908,53.3658,-110.3205,1772.0,1085.0,316.7,4.7,-1.1,0.79,44.72,1.9275,392.8539],
    [359,1537378909,53.3663,-110.3213,1772.0,1085.0,316.8,4.7,-1.1,0.83,44.63,1.9261,393.0793],
    [360,1537378910,53.3668,-110.322,1771.9,1085.2,316.9,4.5,-1.1,0.96,44.83,1.9275,393.272],
    [361,1537378911,53.3674,-110.3228,1771.8,1084.4,316.9,4.6,-1.1,1.11,44.68,1.9277,393.0547],
    [362,1537378912,53.3679,-110.3235,1771.6,1084.3,316.8,4.6,-1.2,1.06,45.75,1.9284,393.7006],
    [363,1537378913,53.3684,-110.3243,1771.4,1083.4,316.7,4.9,-1.2,0.56,45.24,1.9281,393.4156],
    [364,1537378914,53.3689,-110.325,1771.2,1082.8,316.5,5.3,-1.3,1.04,45.56,1.9274,393.208],
    [365,1537378915,53.3694,-110.3258,1771.0,1082.7,316.4,5.6,-1.6,1.58,45.74,1.9269,393.1249],
    [366,1537378916,53.3699,-110.3265,1771.0,1081.9,316.7,5.5,-1.9,0.81,45.98,1.9262,393.1249],
    [367,1537378917,53.3704,-110.3273,1771.5,1082.6,316.6,5.6,-1.8,1.12,46.38,1.9275,392.8683],
    [368,1537378918,53.371,-110.328,1772.3,1082.6,316.7,5.4,-1.6,1.09,47.11,1.9291,393.6938],
    [369,1537378919,53.3715,-110.3288,1772.6,1084.6,316.7,5.2,-1.3,1.06,48.0,1.9266,392.4032],
    [370,1537378920,53.372,-110.3295,1772.5,1086.5,316.8,5.1,-1.2,0.99,47.77,1.926,392.4032],
    [371,1537378921,53.3725,-110.3303,1772.3,1087.6,316.7,5.1,-1.2,1.32,47.35,1.9273,392.1238],
    [372,1537378922,53.373,-110.331,1771.8,1087.8,316.9,4.9,-1.2,1.09,47.54,1.9285,392.1238],
    [373,1537378923,53.3735,-110.3318,1771.4,1085.0,316.9,4.9,-1.2,0.82,47.51,1.9277,393.3235],
    [374,1537378924,53.3741,-110.3326,1771.1,1081.3,316.9,4.9,-1.2,1.05,47.64,1.9266,392.4656],
    [375,1537378925,53.3746,-110.3333,1771.1,1078.8,316.8,5.1,-1.2,1.35,47.37,1.9265,392.7383],
    [376,1537378926,53.3751,-110.3341,1771.2,1077.1,316.7,5.0,-1.2,1.01,47.23,1.9272,393.8314],
    [377,1537378927,53.3756,-110.3348,1771.4,1077.9,316.7,5.0,-1.2,0.82,46.65,1.9275,392.0232],
    [378,1537378928,53.3761,-110.3356,1771.4,1078.4,316.5,5.1,-1.1,1.18,46.04,1.9261,392.9843],
    [379,1537378929,53.3766,-110.3363,1771.4,1078.4,316.5,5.1,-1.1,0.56,45.78,1.9277,393.7316],
    [380,1537378930,53.3772,-110.3371,1771.2,1079.2,316.4,5.3,-1.0,0.6,45.33,1.9277,393.7316],
    [381,1537378931,53.3777,-110.3378,1771.2,1081.9,316.5,5.3,-1.1,1.39,45.08,1.928,393.7876],
    [382,1537378932,53.3782,-110.3386,1771.3,1084.1,316.5,5.3,-1.1,1.59,44.49,1.9278,393.7876],
    [383,1537378933,53.3787,-110.3394,1771.4,1086.4,316.6,5.3,-1.0,0.77,44.98,1.9269,393.2411],
    [384,1537378934,53.3792,-110.3401,1771.6,1089.2,316.6,5.4,-1.2,0.77,44.77,1.9274,393.9044],
    [385,1537378935,53.3797,-110.3408,1771.7,1092.5,316.7,5.7,-1.5,1.18,44.58,1.9267,393.9044],
    [386,1537378936,53.3803,-110.3416,1772.0,1094.2,316.6,5.7,-1.5,1.03,45.09,1.928,392.2534],
    [387,1537378937,53.3808,-110.3424,1772.3,1096.3,316.5,5.8,-1.3,0.7,45.6,1.9262,393.3024],
    [388,1537378938,53.3813,-110.3431,1772.7,1097.7,316.1,6.2,-1.1,0.59,46.3,1.9273,392.106],
    [389,1537378939,53.3818,-110.3439,1772.7,1097.0,317.0,5.1,-1.9,0.66,46.26,1.9269,392.8574],
    [390,1537378940,53.3823,-110.3446,1772.8,1097.5,316.6,5.1,-1.1,1.04,46.51,1.9272,394.1775],
    [391,1537378941,53.3828,-110.3454,1773.1,1097.1,316.7,4.8,-1.0,0.48,46.53,1.9275,393.3212],
    [392,1537378942,53.3834,-110.3461,1772.6,1097.6,316.6,4.9,-0.9,0.9,46.79,1.9277,394.1417],
    [393,1537378943,53.3838,-110.3468,1772.0,1097.7,316.3,5.1,-0.6,1.0,47.27,1.926,391.7982],
    [394,1537378944,53.3844,-110.3476,1771.5,1097.3,316.2,5.0,-0.6,0.94,46.75,1.9252,392.7846],
    [395,1537378945,53.3849,-110.3484,1771.3,1096.7,316.2,5.2,-0.7,1.43,45.64,1.9258,393.6042],
    [396,1537378946,53.3854,-110.3492,1771.2,1096.2,316.4,5.2,-0.9,0.86,46.45,1.9263,393.2679],
    [397,1537378947,53.386,-110.35,1771.4,1095.9,316.5,5.2,-0.9,1.28,44.99,1.9272,392.0883],
    [398,1537378948,53.3865,-110.3507,1771.5,1095.5,316.6,5.1,-0.9,1.03,45.53,1.9261,393.4858],
    [399,1537378949,53.387,-110.3515,1771.6,1094.6,316.6,5.1,-0.9,1.08,44.95,1.9261,392.6487],
    [400,1537378950,53.3875,-110.3522,1771.6,1093.7,316.6,5.0,-0.9,1.45,43.69,1.9261,393.1829],
    [401,1537378951,53.388,-110.353,1771.6,1092.6,316.5,5.1,-0.9,1.55,43.69,1.9279,393.1829],
    [402,1537378952,53.3886,-110.3538,1771.5,1092.7,316.5,5.2,-0.9,1.08,44.6,1.9262,392.8256],
    [403,1537378953,53.3891,-110.3545,1771.1,1094.1,316.4,5.2,-0.9,1.01,44.01,1.9263,393.6721],
    [404,1537378954,53.3896,-110.3553,1770.8,1094.8,316.4,5.3,-1.0,1.06,43.88,1.9266,393.2538],
    [405,1537378955,53.3901,-110.3561,1770.5,1095.5,316.4,5.4,-1.2,1.22,43.73,1.9277,394.1428],
    [406,1537378956,53.3906,-110.3568,1770.3,1095.3,316.4,5.4,-1.3,1.53,43.67,1.9275,394.4621],
    [407,1537378957,53.3912,-110.3576,1770.4,1096.4,316.4,5.5,-1.3,1.13,43.81,1.9284,392.9531],
    [408,1537378958,53.3917,-110.3584,1770.5,1098.2,316.4,5.6,-1.5,0.86,43.91,1.928,392.6677],
    [409,1537378959,53.3922,-110.3591,1770.9,1099.2,316.2,6.1,-1.5,0.89,43.93,1.9277,394.4084],
    [410,1537378960,53.3927,-110.3599,1771.5,1101.5,315.7,6.8,-1.3,0.94,44.03,1.9273,393.1904],
    [411,1537378961,53.3932,-110.3606,1772.3,1103.3,316.2,6.4,-1.7,0.64,44.75,1.9264,392.8631],
    [412,1537378962,53.3937,-110.3614,1773.2,1104.2,316.3,6.3,-1.5,1.32,44.5,1.9275,392.2825],
    [413,1537378963,53.3943,-110.3621,1773.9,1104.8,316.5,5.8,-1.2,0.95,45.83,1.9274,392.8389],
    [414,1537378964,53.3948,-110.3629,1773.6,1104.6,316.6,5.5,-0.7,1.17,46.05,1.9267,393.4402],
    [415,1537378965,53.3953,-110.3636,1772.8,1103.8,316.3,5.6,-0.5,1.13,46.8,1.9266,393.844],
    [416,1537378966,53.3958,-110.3644,1772.1,1103.2,316.3,5.4,-0.6,1.26,45.57,1.9266,393.3298],
    [417,1537378967,53.3963,-110.3651,1771.6,1102.7,316.3,5.4,-0.6,0.9,45.74,1.9268,393.5374],
    [418,1537378968,53.3969,-110.3659,1771.4,1101.6,316.3,5.4,-0.8,0.64,45.55,1.928,393.679],
    [419,1537378969,53.3974,-110.3667,1771.3,1101.1,316.2,5.4,-0.7,1.74,45.26,1.9278,390.7638],
    [420,1537378970,53.3979,-110.3674,1771.5,1100.5,316.3,5.5,-0.9,0.97,45.3,1.9275,392.3279],
    [421,1537378971,53.3984,-110.3682,1771.7,1100.0,316.3,5.6,-0.8,1.0,45.19,1.9268,393.0555],
    [422,1537378972,53.3989,-110.3689,1771.9,1099.9,316.4,5.5,-0.8,1.37,44.87,1.9293,392.5509],
    [423,1537378973,53.3995,-110.3697,1772.2,1100.2,316.3,5.6,-0.6,1.25,44.62,1.9289,393.3567],
    [424,1537378974,53.4,-110.3704,1772.3,1099.6,316.4,5.5,-0.7,1.53,44.71,1.9279,393.2131],
    [425,1537378975,53.4005,-110.3712,1772.2,1099.2,316.4,5.5,-0.6,0.82,45.04,1.927,393.516],
    [426,1537378976,53.401,-110.372,1772.0,1099.0,316.4,5.6,-0.5,1.03,44.54,1.9266,393.516],
    [427,1537378977,53.4015,-110.3727,1771.8,1098.8,316.4,5.6,-0.6,1.81,44.14,1.9269,393.0087],
    [428,1537378978,53.4021,-110.3735,1771.5,1098.5,316.4,5.6,-0.6,0.87,44.59,1.9266,393.0087],
    [429,1537378979,53.4026,-110.3742,1771.5,1098.7,316.5,5.6,-0.6,0.86,44.59,1.9285,393.2563],
    [430,1537378980,53.4031,-110.3749,1771.5,1099.8,316.4,5.7,-0.7,0.67,44.58,1.9278,393.3191],
    [431,1537378981,53.4036,-110.3756,1771.7,1099.3,316.5,5.6,-0.8,1.63,44.32,1.9271,393.7857],
    [432,1537378982,53.4041,-110.3764,1772.0,1100.6,316.4,5.6,-0.7,0.89,44.59,1.927,393.3013],
    [433,1537378983,53.4047,-110.3772,1772.4,1102.0,316.2,5.7,-0.5,0.46,44.52,1.9269,393.5863],
    [434,1537378984,53.4052,-110.378,1772.6,1103.3,316.3,5.6,-0.4,0.93,44.57,1.9297,393.0696],
    [435,1537378985,53.4057,-110.3788,1772.6,1101.7,316.3,5.6,-0.4,1.81,44.26,1.9285,393.3232],
    [436,1537378986,53.4062,-110.3795,1772.5,1100.5,316.4,5.6,-0.5,1.02,44.91,1.9279,392.8783],
    [437,1537378987,53.4068,-110.3803,1772.3,1101.0,316.5,5.5,-0.4,0.65,44.57,1.9268,392.8164],
    [438,1537378988,53.4072,-110.381,1772.2,1101.6,316.5,5.4,-0.4,1.15,44.03,1.9268,394.7293],
    [439,1537378989,53.4078,-110.3818,1771.9,1101.3,316.6,5.3,-0.4,0.49,44.4,1.9267,391.9872],
    [440,1537378990,53.4083,-110.3825,1771.7,1099.3,316.6,5.2,-0.4,0.99,44.35,1.927,393.509],
    [441,1537378991,53.4088,-110.3833,1771.3,1099.9,316.6,5.1,-0.4,1.12,44.4,1.928,393.4547],
    [442,1537378992,53.4094,-110.384,1771.0,1100.3,316.6,5.2,-0.5,1.09,44.11,1.9276,392.8322],
    [443,1537378993,53.4099,-110.3848,1770.8,1102.1,316.6,5.2,-0.7,0.96,43.95,1.9269,393.3154],
    [444,1537378994,53.4104,-110.3856,1770.8,1104.5,316.5,5.3,-0.8,0.89,43.93,1.9289,393.7832],
    [445,1537378995,53.4109,-110.3863,1770.9,1106.6,316.5,5.4,-0.9,1.04,44.52,1.9262,393.4093],
    [446,1537378996,53.4115,-110.3871,1771.2,1107.6,316.4,5.6,-1.0,0.54,43.82,1.9278,393.4093],
    [447,1537378997,53.412,-110.3878,1771.5,1108.5,316.4,5.8,-1.1,0.97,43.58,1.9294,393.7474],
    [448,1537378998,53.4125,-110.3886,1771.9,1111.2,316.3,5.8,-1.1,1.07,43.98,1.9279,393.378],
    [449,1537378999,53.413,-110.3894,1772.2,1114.5,316.4,5.8,-1.1,1.07,44.14,1.9282,393.2469],
    [450,1537379000,53.4135,-110.3901,1772.4,1115.4,316.4,5.7,-1.1,1.21,43.8,1.9272,392.9033],
    [451,1537379001,53.4141,-110.3909,1772.5,1114.6,316.4,5.6,-1.0,1.26,44.38,1.9274,394.4424],
    [452,1537379002,53.4146,-110.3916,1772.6,1115.6,316.4,5.6,-0.9,0.66,43.78,1.9283,393.3411],
    [453,1537379003,53.4151,-110.3924,1772.6,1117.4,316.4,5.6,-0.9,1.01,43.75,1.9288,393.3513],
    [454,1537379004,53.4156,-110.3931,1772.6,1118.9,316.4,5.5,-0.8,0.93,43.9,1.9268,392.6588],
    [455,1537379005,53.4161,-110.3939,1772.4,1119.4,316.4,5.5,-0.7,1.03,44.76,1.9273,393.2186],
    [456,1537379006,53.4167,-110.3947,1772.2,1118.1,316.4,5.4,-0.6,1.31,44.04,1.9276,393.5644],
    [457,1537379007,53.4172,-110.3954,1771.8,1116.8,316.4,5.3,-0.6,1.17,44.35,1.9283,390.897],
    [458,1537379008,53.4177,-110.3962,1771.3,1114.6,316.4,5.3,-0.6,0.86,44.11,1.9281,393.3111],
    [459,1537379009,53.4182,-110.3969,1770.8,1112.7,316.5,5.2,-0.6,0.65,44.29,1.9296,391.9467],
    [460,1537379010,53.4187,-110.3977,1770.3,1111.2,316.5,5.2,-0.6,1.85,43.48,1.9274,393.3553],
    [461,1537379011,53.4193,-110.3985,1770.0,1111.8,316.4,5.3,-0.6,0.74,43.84,1.9271,393.3965],
    [462,1537379012,53.4198,-110.3992,1769.9,1112.6,316.4,5.3,-0.7,0.88,43.98,1.9274,393.0635],
    [463,1537379013,53.4203,-110.4,1770.1,1113.2,316.4,5.3,-0.8,0.6,43.81,1.9282,392.3925],
    [464,1537379014,53.4208,-110.4007,1770.4,1114.5,316.4,5.4,-0.8,0.71,44.4,1.9281,392.5969],
    [465,1537379015,53.4213,-110.4015,1770.8,1115.8,316.4,5.5,-0.9,0.8,44.06,1.927,392.5969],
    [466,1537379016,53.4219,-110.4022,1771.1,1118.0,316.3,5.6,-1.0,1.0,44.13,1.9279,392.7397],
    [467,1537379017,53.4224,-110.403,1771.3,1118.3,316.3,5.7,-1.0,1.47,43.61,1.9288,392.5853],
    [468,1537379018,53.4229,-110.4037,1771.4,1117.4,316.2,5.8,-1.0,0.86,44.17,1.9285,393.0532],
    [469,1537379019,53.4234,-110.4045,1771.4,1114.7,316.2,5.9,-1.1,0.55,44.42,1.9277,392.6081],
    [470,1537379020,53.4239,-110.4053,1771.4,1113.1,316.2,5.9,-1.2,0.97,44.24,1.9271,394.4937],
    [471,1537379021,53.4244,-110.406,1771.4,1112.4,316.3,6.0,-1.3,1.38,44.45,1.9277,388.9497],
    [472,1537379022,53.4249,-110.4068,1771.4,1112.4,316.3,6.0,-1.3,0.99,44.8,1.9269,391.6505],
    [473,1537379023,53.4255,-110.4075,1771.5,1112.4,316.3,6.1,-1.3,0.95,44.73,1.9284,391.5317],
    [474,1537379024,53.426,-110.4083,1771.6,1113.3,316.4,6.0,-1.4,1.71,43.95,1.9273,393.7763],
    [475,1537379025,53.4265,-110.409,1771.7,1113.6,316.6,6.0,-1.5,0.73,44.89,1.9282,393.9224],
    [476,1537379026,53.427,-110.4098,1772.0,1112.7,316.6,5.9,-1.5,0.77,44.56,1.9283,392.2869],
    [477,1537379027,53.4275,-110.4105,1772.2,1111.9,316.6,5.8,-1.5,1.11,44.72,1.9281,392.1269],
    [478,1537379028,53.428,-110.4113,1772.4,1110.4,316.6,5.8,-1.4,0.99,44.96,1.927,393.3005],
    [479,1537379029,53.4285,-110.412,1772.4,1109.4,316.5,5.7,-1.4,1.02,45.5,1.927,393.0018],
    [480,1537379030,53.4291,-110.4128,1772.2,1110.3,316.5,5.6,-1.4,0.89,45.17,1.9279,391.8425],
    [481,1537379031,53.4296,-110.4135,1772.0,1112.0,316.5,5.5,-1.4,1.07,45.6,1.928,393.6369],
    [482,1537379032,53.4301,-110.4143,1771.6,1114.4,316.4,5.5,-1.4,1.75,44.26,1.928,395.0657],
    [483,1537379033,53.4306,-110.415,1771.2,1115.3,316.4,5.5,-1.4,1.7,44.54,1.928,393.1622],
    [484,1537379034,53.4311,-110.4158,1770.8,1115.8,316.3,5.5,-1.3,0.84,44.74,1.9278,393.6482],
    [485,1537379035,53.4316,-110.4166,1770.5,1115.4,316.3,5.4,-1.2,1.05,44.78,1.929,393.408],
    [486,1537379036,53.4321,-110.4173,1770.3,1115.3,316.3,5.4,-1.1,1.73,44.55,1.9276,393.9105],
    [487,1537379037,53.4327,-110.4181,1770.2,1115.3,316.2,5.3,-1.0,0.56,45.08,1.9285,393.8101],
    [488,1537379038,53.4332,-110.4188,1770.2,1114.1,316.3,5.3,-1.0,0.32,45.1,1.9279,391.2137],
    [489,1537379039,53.4337,-110.4196,1770.4,1113.4,316.2,5.3,-1.0,1.03,44.71,1.9277,393.7165],
    [490,1537379040,53.4342,-110.4204,1770.7,1112.7,316.3,5.3,-0.9,0.91,45.04,1.9271,393.2388],
    [491,1537379041,53.4347,-110.4211,1771.0,1112.0,316.3,5.3,-0.9,1.01,45.68,1.9284,393.3498],
    [492,1537379042,53.4352,-110.4219,1771.3,1112.3,316.3,5.3,-0.9,0.77,44.78,1.928,392.1528],
    [493,1537379043,53.4357,-110.4226,1771.5,1112.5,316.3,5.3,-0.9,0.62,44.88,1.9278,392.9545],
    [494,1537379044,53.4363,-110.4234,1771.6,1111.6,316.4,5.2,-0.9,0.95,45.13,1.9273,393.0815],
    [495,1537379045,53.4368,-110.4241,1771.5,1112.2,316.4,5.2,-0.8,0.91,44.83,1.9286,392.8382],
    [496,1537379046,53.4373,-110.4249,1771.3,1113.4,316.4,5.1,-0.9,0.6,44.94,1.9282,392.4114],
    [497,1537379047,53.4378,-110.4257,1771.1,1115.4,316.4,5.0,-0.9,0.49,45.09,1.9277,392.8933],
    [498,1537379048,53.4383,-110.4264,1770.8,1116.8,316.4,5.1,-0.9,1.14,45.39,1.9278,392.2894],
    [499,1537379049,53.4389,-110.4272,1770.5,1117.5,316.4,5.0,-0.9,1.61,44.81,1.9272,392.2894],
    [500,1537379050,53.4394,-110.4279,1770.2,1119.3,316.4,4.9,-1.0,0.36,44.99,1.9282,392.9386],
    [501,1537379051,53.4399,-110.4287,1770.1,1120.4,316.4,4.8,-1.0,0.97,44.76,1.9284,393.1411],
    [502,1537379052,53.4404,-110.4295,1770.2,1122.2,316.4,4.7,-1.0,0.85,44.81,1.9275,394.3964],
    [503,1537379053,53.4409,-110.4303,1770.2,1123.8,316.4,4.6,-1.1,0.29,44.67,1.9284,393.1608],
    [504,1537379054,53.4414,-110.431,1770.4,1126.7,316.4,4.7,-1.1,1.3,44.58,1.9294,392.421],
    [505,1537379055,53.4419,-110.4318,1770.6,1128.2,316.3,4.7,-1.0,0.87,44.32,1.9283,393.3313],
    [506,1537379056,53.4425,-110.4325,1770.8,1129.8,316.2,4.8,-1.1,0.79,44.46,1.9289,393.2537],
    [507,1537379057,53.443,-110.4333,1771.0,1130.0,316.3,4.8,-1.2,0.61,44.45,1.9282,392.1565],
    [508,1537379058,53.4435,-110.4341,1771.1,1130.2,316.2,4.9,-1.2,1.49,44.2,1.9279,392.1565],
    [509,1537379059,53.444,-110.4348,1771.2,1131.2,316.2,4.8,-1.2,0.92,44.56,1.9278,393.3473],
    [510,1537379060,53.4445,-110.4356,1771.2,1133.2,316.2,4.9,-1.1,0.71,44.84,1.9302,392.3697],
    [511,1537379061,53.445,-110.4364,1771.1,1134.8,316.3,4.9,-1.2,0.6,45.08,1.9284,394.0444],
    [512,1537379062,53.4455,-110.4371,1770.9,1135.9,316.3,4.9,-1.2,1.37,45.06,1.9277,394.7531],
    [513,1537379063,53.446,-110.4379,1770.8,1137.8,316.3,4.9,-1.2,1.47,44.7,1.9286,392.092],
    [514,1537379064,53.4466,-110.4387,1770.6,1138.6,316.3,4.9,-1.2,0.78,45.05,1.9284,393.8387],
    [515,1537379065,53.4471,-110.4394,1770.5,1140.2,316.3,5.0,-1.2,1.25,45.52,1.9284,393.6942],
    [516,1537379066,53.4476,-110.4402,1770.4,1142.1,316.2,5.1,-1.2,1.02,44.97,1.9289,392.64],
    [517,1537379067,53.4481,-110.4409,1770.4,1144.2,316.3,5.1,-1.3,0.72,45.26,1.9284,393.0595],
    [518,1537379068,53.4486,-110.4417,1770.6,1145.5,316.2,5.2,-1.3,0.92,45.2,1.9283,393.3576],
    [519,1537379069,53.4491,-110.4425,1770.8,1148.4,316.2,5.2,-1.4,0.54,45.09,1.9285,391.0071],
    [520,1537379070,53.4496,-110.4432,1771.3,1152.5,316.2,5.3,-1.4,0.59,45.29,1.9276,393.4859],
    [521,1537379071,53.4501,-110.444,1771.6,1156.4,316.3,5.2,-1.4,0.31,45.03,1.9279,392.9112],
    [522,1537379072,53.4506,-110.4447,1771.8,1155.4,316.1,5.2,-1.2,0.74,45.23,1.9286,392.9471],
    [523,1537379073,53.4512,-110.4455,1771.7,1151.7,316.1,5.2,-1.2,1.77,44.78,1.9286,393.5198],
    [524,1537379074,53.4517,-110.4463,1771.5,1147.2,316.1,5.2,-1.2,0.97,45.62,1.9276,393.8032],
    [525,1537379075,53.4522,-110.447,1771.3,1142.3,316.0,5.1,-1.2,0.68,45.32,1.9286,393.2342],
    [526,1537379076,53.4527,-110.4478,1770.9,1138.2,316.1,5.0,-1.1,0.98,45.05,1.9294,393.8521],
    [527,1537379077,53.4532,-110.4486,1770.5,1135.7,316.0,5.0,-1.1,0.77,45.54,1.9288,394.0709],
    [528,1537379078,53.4537,-110.4493,1770.1,1132.1,316.1,4.9,-1.2,1.0,45.38,1.9278,393.2966],
    [529,1537379079,53.4542,-110.4501,1769.8,1128.9,316.1,5.0,-1.2,0.71,45.65,1.9289,392.9213],
    [530,1537379080,53.4547,-110.4508,1769.7,1127.8,316.1,5.1,-1.0,1.48,45.05,1.9272,393.8793],
    [531,1537379081,53.4552,-110.4516,1769.8,1126.8,316.1,5.0,-1.1,0.3,45.73,1.9274,393.0486],
    [532,1537379082,53.4557,-110.4524,1770.0,1127.4,316.1,5.1,-1.0,0.83,45.77,1.9278,393.6196],
    [533,1537379083,53.4562,-110.4531,1770.3,1130.3,316.1,5.1,-1.1,0.63,45.83,1.928,392.9354],
    [534,1537379084,53.4568,-110.4539,1770.7,1133.3,316.1,5.2,-1.2,1.21,45.48,1.9279,392.9423],
    [535,1537379085,53.4573,-110.4547,1771.1,1135.4,316.1,5.3,-1.3,0.75,45.9,1.928,392.9423],
    [536,1537379086,53.4578,-110.4554,1771.3,1135.9,316.2,5.4,-1.4,1.14,45.73,1.9277,393.3221],
    [537,1537379087,53.4583,-110.4562,1771.4,1137.8,316.1,5.4,-1.4,1.43,45.69,1.9291,392.6353],
    [538,1537379088,53.4588,-110.457,1771.5,1140.5,316.1,5.4,-1.3,0.67,45.68,1.9277,391.8453],
    [539,1537379089,53.4593,-110.4577,1771.4,1144.0,316.1,5.4,-1.3,1.02,45.42,1.9286,391.5987],
    [540,1537379090,53.4598,-110.4584,1771.3,1148.8,316.1,5.4,-1.3,0.92,45.89,1.9283,394.2941],
    [541,1537379091,53.4603,-110.4592,1771.2,1152.2,316.2,5.3,-1.3,0.95,45.4,1.9279,393.2877],
    [542,1537379092,53.4608,-110.46,1771.1,1155.3,316.2,5.2,-1.3,0.43,45.29,1.9267,391.2757],
    [543,1537379093,53.4614,-110.4608,1770.9,1156.8,316.3,5.0,-1.3,0.75,45.36,1.9269,391.2757],
    [544,1537379094,53.4619,-110.4615,1770.6,1159.5,316.3,4.9,-1.3,1.7,45.16,1.9278,393.4164],
    [545,1537379095,53.4624,-110.4623,1770.2,1161.2,316.3,4.8,-1.2,1.02,45.55,1.9279,393.2676],
    [546,1537379096,53.4629,-110.463,1769.9,1161.9,316.2,4.8,-1.2,0.94,46.16,1.9271,391.7345],
    [547,1537379097,53.4634,-110.4638,1769.9,1161.4,316.1,4.8,-1.2,0.55,45.48,1.9272,392.6861],
    [548,1537379098,53.4639,-110.4646,1770.2,1158.5,316.2,4.7,-1.2,1.4,45.11,1.9291,394.0067],
    [549,1537379099,53.4644,-110.4653,1770.5,1157.3,316.3,4.7,-1.3,0.25,45.45,1.9286,392.3726],
    [550,1537379100,53.4649,-110.4661,1770.8,1150.7,316.3,4.7,-1.3,0.95,45.25,1.9283,392.7362],
    [551,1537379101,53.4654,-110.4669,1771.1,1144.0,316.4,4.7,-1.3,0.93,45.64,1.9271,392.6425],
    [552,1537379102,53.4659,-110.4676,1771.1,1137.3,316.2,4.8,-1.2,1.08,45.77,1.9291,393.2908],
    [553,1537379103,53.4665,-110.4684,1771.1,1132.7,316.2,4.8,-1.3,0.98,46.04,1.9278,393.7198],
    [554,1537379104,53.467,-110.4691,1771.0,1134.0,316.1,4.8,-1.3,0.61,45.63,1.9255,393.4578],
    [555,1537379105,53.4675,-110.4699,1770.7,1137.4,316.1,4.8,-1.3,0.73,45.16,1.9271,393.4288],
    [556,1537379106,53.468,-110.4707,1770.4,1144.4,316.1,4.9,-1.3,0.69,45.33,1.9276,391.932],
    [557,1537379107,53.4685,-110.4714,1770.1,1152.1,316.0,5.0,-1.3,1.3,44.58,1.9256,393.4551],
    [558,1537379108,53.469,-110.4722,1769.8,1161.1,315.9,5.0,-1.2,0.46,44.51,1.9257,392.8611],
    [559,1537379109,53.4695,-110.473,1769.5,1168.5,315.9,5.0,-1.3,1.07,44.69,1.9268,392.5423],
    [560,1537379110,53.47,-110.4738,1769.3,1172.8,316.1,4.9,-1.5,1.07,44.77,1.9282,392.911],
    [561,1537379111,53.4705,-110.4745,1769.3,1174.3,316.1,5.0,-1.5,1.26,43.79,1.9274,393.0093],
    [562,1537379112,53.471,-110.4753,1769.4,1178.3,316.2,5.0,-1.6,0.69,44.73,1.9279,393.1215],
    [563,1537379113,53.4715,-110.4761,1769.8,1182.0,316.3,4.9,-1.7,0.89,44.47,1.927,392.2506],
    [564,1537379114,53.472,-110.4768,1770.2,1182.7,316.3,4.9,-1.7,1.25,44.14,1.9272,393.8906],
    [565,1537379115,53.4725,-110.4775,1770.7,1183.4,316.2,5.0,-1.6,0.8,44.78,1.927,392.6809],
    [566,1537379116,53.4731,-110.4783,1771.2,1182.8,316.2,4.9,-1.5,1.11,44.19,1.9272,393.0053],
    [567,1537379117,53.4736,-110.4791,1771.5,1183.9,316.0,4.9,-1.3,0.89,44.04,1.9276,393.3633],
    [568,1537379118,53.4741,-110.4799,1771.6,1182.4,315.8,5.0,-1.0,1.46,44.16,1.9272,392.2651],
    [569,1537379119,53.4745,-110.4806,1771.3,1181.0,315.8,4.9,-1.0,1.04,43.96,1.9275,392.6979],
    [570,1537379120,53.4751,-110.4814,1770.8,1182.6,315.8,5.0,-1.0,0.8,45.01,1.9277,393.9175],
    [571,1537379121,53.4756,-110.4821,1770.3,1178.6,315.8,5.0,-1.1,0.31,44.3,1.9275,393.9317],
    [572,1537379122,53.4761,-110.4829,1769.9,1173.0,315.9,5.0,-1.4,0.78,44.43,1.9274,392.5476],
    [573,1537379123,53.4766,-110.4837,1769.7,1159.7,316.0,5.0,-1.5,0.67,44.76,1.9259,392.9165],
    [574,1537379124,53.4771,-110.4845,1769.7,1151.7,316.3,4.9,-1.6,0.87,44.59,1.9296,393.3419],
    [575,1537379125,53.4776,-110.4852,1769.8,1149.8,316.4,4.9,-1.7,1.61,43.75,1.9278,392.2201],
    [576,1537379126,53.4781,-110.486,1770.2,1150.2,316.4,5.0,-1.7,0.93,43.92,1.928,391.2526],
    [577,1537379127,53.4786,-110.4867,1770.6,1150.6,316.3,5.0,-1.7,0.86,44.2,1.9301,393.7377],
    [578,1537379128,53.4791,-110.4875,1770.8,1151.9,316.1,5.1,-1.6,0.9,44.03,1.9299,392.3301],
    [579,1537379129,53.4796,-110.4882,1771.0,1153.0,316.1,5.1,-1.6,0.43,44.4,1.9289,392.339],
    [580,1537379130,53.4801,-110.489,1771.0,1154.0,316.0,5.0,-1.5,1.37,44.0,1.9283,392.9852],
    [581,1537379131,53.4806,-110.4898,1771.0,1155.5,316.0,5.0,-1.5,1.35,44.76,1.9289,393.196],
    [582,1537379132,53.4811,-110.4905,1770.9,1156.9,316.0,4.9,-1.3,0.83,44.82,1.9301,393.8015],
    [583,1537379133,53.4816,-110.4913,1770.8,1157.1,316.1,4.8,-1.4,0.49,45.54,1.9299,392.8172],
    [584,1537379134,53.4822,-110.4921,1770.6,1158.6,316.1,4.8,-1.4,1.06,45.14,1.9285,392.4498],
    [585,1537379135,53.4827,-110.4928,1770.3,1161.2,316.2,4.7,-1.4,0.73,45.67,1.9286,392.5651],
    [586,1537379136,53.4832,-110.4936,1770.0,1163.2,316.3,4.7,-1.5,0.38,45.93,1.9279,392.9152],
    [587,1537379137,53.4837,-110.4944,1769.9,1165.6,316.3,4.8,-1.5,0.64,46.01,1.9296,393.7115],
    [588,1537379138,53.4842,-110.4951,1770.1,1167.1,316.3,4.7,-1.5,1.36,45.58,1.9278,392.7547],
    [589,1537379139,53.4847,-110.4959,1770.5,1168.4,316.2,4.6,-1.4,0.71,46.06,1.9286,393.4391],
    [590,1537379140,53.4852,-110.4967,1770.9,1169.9,316.2,4.5,-1.2,1.04,45.74,1.9284,393.4391],
    [591,1537379141,53.4857,-110.4974,1771.1,1171.2,316.0,4.5,-1.1,0.49,46.41,1.9278,393.0648],
    [592,1537379142,53.4862,-110.4982,1771.1,1171.3,315.9,4.5,-0.9,1.2,45.96,1.9279,394.0366],
    [593,1537379143,53.4867,-110.499,1771.0,1173.5,315.9,4.5,-0.9,0.65,46.11,1.9288,393.0437],
    [594,1537379144,53.4872,-110.4997,1770.6,1177.4,316.0,4.4,-1.0,0.82,46.16,1.9282,393.5832],
    [595,1537379145,53.4877,-110.5005,1770.2,1178.7,316.1,4.5,-1.1,0.33,46.75,1.9275,393.4314],
    [596,1537379146,53.4882,-110.5012,1769.9,1185.4,316.0,4.6,-1.2,0.51,46.59,1.9267,394.4976],
    [597,1537379147,53.4888,-110.502,1769.7,1193.2,316.1,4.6,-1.3,1.19,45.7,1.9272,393.0652],
    [598,1537379148,53.4893,-110.5028,1769.7,1198.5,316.2,4.5,-1.3,0.36,46.08,1.9274,393.797],
    [599,1537379149,53.4898,-110.5036,1770.0,1201.6,316.2,4.5,-1.3,0.15,46.04,1.927,393.8787],
    [600,1537379150,53.4903,-110.5043,1770.3,1204.0,316.2,4.6,-1.2,0.63,45.69,1.927,393.9836],
    [601,1537379151,53.4908,-110.5051,1770.5,1204.5,316.2,4.5,-1.1,0.88,45.85,1.9284,393.6812],
    [602,1537379152,53.4913,-110.5059,1770.7,1203.7,316.2,4.5,-1.1,1.05,45.64,1.9281,392.506],
    [603,1537379153,53.4918,-110.5067,1770.8,1203.8,316.0,4.6,-1.0,0.94,45.78,1.9268,393.6631],
    [604,1537379154,53.4923,-110.5074,1770.8,1203.2,316.0,4.5,-1.1,0.28,45.66,1.9285,393.6631],
    [605,1537379155,53.4928,-110.5082,1770.8,1199.8,316.0,4.5,-1.0,0.68,46.14,1.9274,394.2233],
    [606,1537379156,53.4933,-110.509,1770.7,1199.6,316.0,4.5,-1.1,1.59,45.09,1.9266,393.7619],
    [607,1537379157,53.4938,-110.5097,1770.6,1196.1,316.0,4.5,-1.0,1.16,45.29,1.9272,393.389],
    [608,1537379158,53.4944,-110.5105,1770.5,1185.5,315.8,4.6,-0.8,0.41,45.37,1.9274,392.9093],
    [609,1537379159,53.4949,-110.5113,1770.4,1170.8,316.1,4.3,-0.9,0.73,45.39,1.9291,391.7627],
    [610,1537379160,53.4954,-110.5121,1770.1,1161.0,316.1,4.3,-1.0,0.73,45.17,1.9294,393.3777],
    [611,1537379161,53.4959,-110.5128,1769.7,1157.2,316.1,4.3,-0.9,0.59,45.24,1.9286,393.0845],
    [612,1537379162,53.4964,-110.5136,1769.5,1155.5,316.1,4.4,-1.0,1.23,45.03,1.9271,392.0219],
    [613,1537379163,53.4969,-110.5144,1769.5,1154.4,316.1,4.5,-1.0,0.74,45.27,1.9275,393.1188],
    [614,1537379164,53.4974,-110.5151,1769.6,1153.3,316.0,4.7,-0.9,1.19,44.98,1.9281,391.4835],
    [615,1537379165,53.4979,-110.5159,1769.8,1151.5,316.0,4.7,-0.9,0.91,45.41,1.9274,393.2265],
    [616,1537379166,53.4984,-110.5167,1770.1,1152.0,315.9,4.7,-0.8,0.7,45.44,1.9276,392.0825],
    [617,1537379167,53.4989,-110.5174,1770.6,1153.7,315.9,4.7,-0.8,0.86,45.2,1.9283,392.0825],
    [618,1537379168,53.4995,-110.5182,1771.0,1154.4,315.9,4.7,-0.7,0.87,45.34,1.9281,392.6006],
    [619,1537379169,53.5,-110.519,1771.2,1154.6,315.9,4.8,-0.8,1.43,44.78,1.93,392.9141],
    [620,1537379170,53.5005,-110.5197,1771.3,1154.1,315.9,4.8,-0.8,0.77,45.64,1.9274,392.7028],
    [621,1537379171,53.5009,-110.5204,1771.2,1153.4,315.9,4.8,-0.7,0.6,45.59,1.9271,392.1369],
    [622,1537379172,53.5015,-110.5213,1771.0,1153.7,316.0,4.7,-0.7,0.73,45.65,1.9269,391.3221],
    [623,1537379173,53.502,-110.522,1770.6,1152.5,316.0,4.6,-0.7,0.96,46.17,1.9289,392.0413],
    [624,1537379174,53.5025,-110.5228,1770.2,1148.8,316.1,4.7,-0.7,0.78,45.87,1.9292,392.4377],
    [625,1537379175,53.503,-110.5236,1769.7,1146.8,316.0,4.6,-0.7,1.01,45.8,1.9271,393.7505],
    [626,1537379176,53.5035,-110.5243,1769.3,1142.0,316.1,4.7,-0.8,0.84,46.02,1.929,392.6699],
    [627,1537379177,53.504,-110.5251,1769.1,1137.6,316.1,4.7,-0.8,0.74,46.02,1.9281,392.673],
    [628,1537379178,53.5046,-110.5259,1769.2,1134.6,316.0,4.8,-0.8,0.96,46.39,1.9272,392.6303],
    [629,1537379179,53.5051,-110.5266,1769.5,1134.0,316.1,4.8,-0.9,0.33,45.94,1.9271,392.7175],
    [630,1537379180,53.5056,-110.5274,1769.9,1135.1,316.1,4.8,-1.0,1.05,46.46,1.9276,394.6658],
    [631,1537379181,53.5061,-110.5282,1770.4,1136.5,316.1,4.7,-1.0,1.37,45.89,1.9277,392.1477],
    [632,1537379182,53.5066,-110.5289,1770.9,1137.9,316.2,4.6,-1.0,0.8,46.9,1.9294,392.5281],
    [633,1537379183,53.5071,-110.5297,1771.2,1138.2,316.1,4.5,-1.0,0.5,46.71,1.9285,393.4428],
    [634,1537379184,53.5076,-110.5305,1771.4,1138.5,316.2,4.4,-1.0,1.23,45.84,1.9283,391.931],
    [635,1537379185,53.5081,-110.5312,1771.4,1138.4,316.1,4.4,-0.9,0.73,46.33,1.9283,391.931],
    [636,1537379186,53.5086,-110.532,1771.3,1138.3,316.1,4.4,-0.8,0.57,46.43,1.9286,393.3489],
    [637,1537379187,53.5092,-110.5328,1771.1,1138.9,316.0,4.3,-0.8,0.75,46.85,1.9275,393.237],
    [638,1537379188,53.5097,-110.5335,1770.7,1139.7,316.1,4.3,-0.8,0.76,46.4,1.9276,393.3951],
    [639,1537379189,53.5102,-110.5343,1770.2,1141.1,316.0,4.4,-0.7,0.17,46.4,1.9279,392.8483],
    [640,1537379190,53.5107,-110.5351,1769.7,1143.6,316.0,4.4,-0.7,0.65,46.91,1.9285,393.4974],
    [641,1537379191,53.5112,-110.5359,1769.3,1149.2,316.0,4.4,-0.7,0.91,45.95,1.9282,392.7831],
    [642,1537379192,53.5117,-110.5366,1769.2,1155.1,316.0,4.4,-0.7,1.41,45.66,1.9272,392.2836],
    [643,1537379193,53.5122,-110.5374,1769.2,1160.6,316.0,4.4,-0.7,1.15,45.58,1.926,394.5365],
    [644,1537379194,53.5127,-110.5382,1769.4,1166.2,316.0,4.5,-0.8,0.59,45.56,1.9273,394.9059],
    [645,1537379195,53.5132,-110.5389,1769.8,1168.8,316.2,4.5,-0.9,0.75,45.24,1.9251,392.7848],
    [646,1537379196,53.5137,-110.5397,1770.2,1171.2,316.1,4.5,-1.0,0.55,44.94,1.9247,391.4619],
    [647,1537379197,53.5143,-110.5405,1770.5,1171.8,316.2,4.5,-1.0,0.73,44.28,1.9243,392.957],
    [648,1537379198,53.5148,-110.5413,1770.7,1172.1,316.1,4.6,-1.0,0.52,44.49,1.926,394.0448],
    [649,1537379199,53.5153,-110.542,1770.9,1171.9,316.1,4.6,-1.0,1.42,43.86,1.9251,393.3579],
    [650,1537379200,53.5158,-110.5428,1771.0,1171.0,316.1,4.7,-1.1,0.84,44.22,1.9271,392.3795],
    [651,1537379201,53.5163,-110.5436,1771.0,1170.6,316.0,4.7,-1.0,0.77,43.6,1.9273,392.0831],
    [652,1537379202,53.5168,-110.5443,1770.8,1170.9,316.0,4.7,-1.0,1.18,43.71,1.9256,393.4151],
    [653,1537379203,53.5173,-110.5451,1770.7,1170.7,315.9,4.8,-0.9,1.08,43.06,1.9258,393.4151],
    [654,1537379204,53.5178,-110.5459,1770.5,1171.5,315.9,4.8,-0.9,0.84,43.83,1.926,393.3453],
    [655,1537379205,53.5183,-110.5466,1770.3,1172.3,315.9,4.9,-1.0,0.64,43.65,1.9258,393.8467],
    [656,1537379206,53.5188,-110.5474,1770.2,1172.2,316.0,4.9,-1.0,0.78,44.19,1.9253,393.8467],
    [657,1537379207,53.5194,-110.5482,1770.2,1171.3,316.0,4.9,-1.1,0.44,43.14,1.926,393.6226],
    [658,1537379208,53.5199,-110.5489,1770.3,1169.7,316.1,4.9,-1.1,0.43,43.61,1.9261,393.1452],
    [659,1537379209,53.5204,-110.5497,1770.4,1168.4,316.0,4.9,-1.0,1.21,42.94,1.9266,392.8209],
    [660,1537379210,53.5209,-110.5505,1770.6,1169.9,316.1,4.9,-1.1,0.62,43.14,1.9258,393.1654],
    [661,1537379211,53.5214,-110.5512,1770.7,1171.7,316.2,4.8,-1.1,0.48,43.03,1.9255,393.1654],
    [662,1537379212,53.5219,-110.552,1770.9,1173.0,316.1,4.9,-1.0,1.01,43.11,1.9262,393.2869],
    [663,1537379213,53.5224,-110.5528,1770.9,1171.5,316.1,4.9,-1.1,0.7,42.87,1.9263,393.9189],
    [664,1537379214,53.5229,-110.5535,1770.9,1169.9,316.1,5.0,-1.1,0.73,43.13,1.925,394.2719],
    [665,1537379215,53.5234,-110.5543,1770.8,1165.4,316.0,5.0,-1.1,0.88,42.5,1.927,394.3145],
    [666,1537379216,53.524,-110.5551,1770.7,1161.2,316.1,4.9,-1.1,1.31,42.51,1.9263,391.7539],
    [667,1537379217,53.5245,-110.5558,1770.5,1157.5,316.0,5.0,-1.1,0.88,42.65,1.9258,392.7549],
    [668,1537379218,53.525,-110.5566,1770.3,1157.0,316.1,4.8,-1.0,1.21,42.95,1.926,394.4489],
    [669,1537379219,53.5255,-110.5573,1770.2,1154.1,316.1,4.7,-1.0,0.84,43.25,1.9247,394.4489],
    [670,1537379220,53.526,-110.5581,1770.0,1152.3,316.1,4.8,-0.9,0.75,42.91,1.9257,392.8793],
    [671,1537379221,53.5265,-110.5589,1769.8,1152.0,316.2,4.7,-0.9,0.53,42.69,1.9256,392.3888],
    [672,1537379222,53.527,-110.5597,1769.6,1150.6,316.2,4.7,-0.9,0.87,43.6,1.9268,388.87],
    [673,1537379223,53.5275,-110.5604,1769.5,1149.9,316.2,4.7,-1.0,0.66,42.88,1.9277,390.6497],
    [674,1537379224,53.528,-110.5612,1769.5,1150.5,316.3,4.7,-1.1,0.71,42.69,1.9265,393.8918],
    [675,1537379225,53.5285,-110.562,1769.4,1150.8,316.1,4.8,-1.0,0.71,43.57,1.9264,394.3197],
    [676,1537379226,53.5291,-110.5627,1769.5,1148.5,316.1,4.7,-0.9,1.13,42.96,1.926,394.0137],
    [677,1537379227,53.5296,-110.5635,1769.6,1145.5,316.1,4.7,-0.9,0.59,43.29,1.9255,392.842],
    [678,1537379228,53.5301,-110.5642,1769.6,1142.1,316.0,4.8,-0.9,1.55,42.78,1.9251,392.5763],
    [679,1537379229,53.5306,-110.565,1769.7,1138.4,316.1,4.7,-0.9,0.15,43.34,1.9254,392.7646],
    [680,1537379230,53.5311,-110.5658,1769.8,1137.9,316.0,4.7,-0.6,0.49,43.65,1.9274,392.7646],
    [681,1537379231,53.5316,-110.5666,1769.9,1138.0,316.1,4.8,-0.8,0.59,43.5,1.9275,392.0304],
    [682,1537379232,53.5321,-110.5673,1770.0,1139.1,316.1,4.8,-0.9,0.77,43.37,1.9271,393.45],
    [683,1537379233,53.5326,-110.5681,1770.3,1140.7,316.0,4.9,-0.8,1.09,42.77,1.9276,393.45],
    [684,1537379234,53.5331,-110.5688,1770.5,1141.1,316.2,4.7,-0.9,0.28,43.04,1.9243,393.9525],
    [685,1537379235,53.5336,-110.5696,1770.6,1141.6,316.2,4.8,-0.8,0.23,42.93,1.9259,392.8625],
    [686,1537379236,53.5342,-110.5704,1770.7,1140.3,316.3,4.7,-0.9,0.36,43.48,1.9256,392.9529],
    [687,1537379237,53.5347,-110.5712,1770.7,1136.7,316.2,4.8,-0.8,0.42,43.17,1.9257,393.6555],
    [688,1537379238,53.5352,-110.5719,1770.5,1134.8,316.2,4.8,-0.9,0.62,43.66,1.9256,393.9553],
    [689,1537379239,53.5357,-110.5727,1770.4,1134.0,316.2,4.8,-0.8,0.99,43.38,1.9255,392.6566],
    [690,1537379240,53.5362,-110.5734,1770.3,1133.9,316.1,4.8,-0.7,0.8,43.53,1.9255,392.9829],
    [691,1537379241,53.5367,-110.5742,1770.1,1134.9,316.3,4.7,-0.9,1.45,42.54,1.9251,393.8827],
    [692,1537379242,53.5372,-110.5749,1769.8,1136.2,316.2,4.9,-1.0,0.65,43.5,1.926,394.4971],
    [693,1537379243,53.5377,-110.5757,1769.7,1137.9,316.3,4.8,-1.1,0.69,43.56,1.9261,393.0711],
    [694,1537379244,53.5383,-110.5765,1769.6,1139.7,316.1,5.0,-1.0,0.88,42.76,1.9261,393.5238],
    [695,1537379245,53.5388,-110.5773,1769.7,1141.8,316.2,4.9,-1.0,0.65,42.81,1.9259,393.8059],
    [696,1537379246,53.5393,-110.578,1769.8,1143.8,316.2,4.7,-0.9,0.37,42.85,1.9258,392.7865],
    [697,1537379247,53.5398,-110.5788,1770.1,1147.1,316.1,4.8,-0.8,0.96,42.78,1.9261,393.442],
    [698,1537379248,53.5403,-110.5796,1770.3,1151.3,316.2,4.8,-0.9,1.04,42.54,1.9262,392.8314],
    [699,1537379249,53.5408,-110.5803,1770.4,1153.8,316.2,4.9,-1.0,0.76,43.3,1.9267,392.8314],
    [700,1537379250,53.5413,-110.5811,1770.5,1154.9,316.2,5.0,-1.0,0.81,42.99,1.9253,392.7555],
    [701,1537379251,53.5418,-110.5818,1770.6,1156.1,316.2,4.9,-1.0,0.92,42.68,1.9263,392.5709],
    [702,1537379252,53.5423,-110.5826,1770.6,1157.7,316.1,5.0,-1.0,0.43,43.6,1.926,392.9999],
    [703,1537379253,53.5429,-110.5834,1770.6,1156.9,316.1,5.0,-1.0,0.75,43.27,1.9264,393.2393],
    [704,1537379254,53.5434,-110.5841,1770.5,1156.2,316.2,5.1,-1.1,0.54,43.21,1.926,392.5172],
    [705,1537379255,53.5439,-110.5849,1770.4,1154.0,316.2,5.1,-1.1,0.99,42.4,1.9263,393.2676],
    [706,1537379256,53.5444,-110.5857,1770.3,1152.8,316.2,5.2,-1.1,1.0,42.99,1.9263,394.4551],
    [707,1537379257,53.5449,-110.5864,1770.4,1152.2,316.2,5.2,-1.2,1.45,42.74,1.9263,393.5814],
    [708,1537379258,53.5454,-110.5872,1770.5,1153.5,316.2,5.2,-1.2,1.0,42.82,1.9258,394.0909],
    [709,1537379259,53.5459,-110.588,1770.6,1154.3,316.3,5.2,-1.2,0.65,43.5,1.9253,391.5844],
    [710,1537379260,53.5464,-110.5887,1770.8,1156.8,316.3,5.1,-1.2,0.8,43.68,1.9256,393.8734],
    [711,1537379261,53.547,-110.5895,1770.9,1159.9,316.4,5.1,-1.3,0.33,43.09,1.9264,393.9105],
    [712,1537379262,53.5475,-110.5903,1771.0,1161.2,316.4,5.1,-1.3,0.71,42.99,1.9264,393.7206],
    [713,1537379263,53.548,-110.591,1771.0,1162.0,316.4,5.1,-1.3,1.03,42.62,1.9252,392.54],
    [714,1537379264,53.5485,-110.5918,1770.9,1160.0,316.4,5.1,-1.3,0.96,42.64,1.926,393.9641],
    [715,1537379265,53.549,-110.5925,1770.7,1157.9,316.3,5.1,-1.3,0.51,43.19,1.9251,393.3265],
    [716,1537379266,53.5495,-110.5933,1770.6,1156.5,316.3,5.1,-1.3,0.32,43.06,1.9256,392.6958],
    [717,1537379267,53.55,-110.5941,1770.5,1156.2,316.1,5.3,-1.2,1.03,42.56,1.927,391.992],
    [718,1537379268,53.5505,-110.5948,1770.6,1154.3,315.9,5.4,-1.1,0.79,42.84,1.9263,392.4637],
    [719,1537379269,53.5511,-110.5956,1770.6,1153.1,316.0,5.4,-1.1,0.15,43.05,1.9267,395.3979],
    [720,1537379270,53.5516,-110.5963,1770.6,1154.0,316.0,5.3,-1.1,0.62,43.8,1.927,393.7167],
    [721,1537379271,53.5521,-110.5971,1770.7,1155.7,316.0,5.4,-1.0,0.83,43.26,1.9271,392.4847],
    [722,1537379272,53.5526,-110.5979,1770.6,1158.2,316.1,5.3,-1.1,1.16,42.64,1.9255,393.7154],
    [723,1537379273,53.5531,-110.5986,1770.6,1163.3,316.3,5.2,-1.2,0.71,43.49,1.9263,390.9314],
    [724,1537379274,53.5536,-110.5994,1770.5,1168.2,316.4,5.2,-1.2,0.71,43.16,1.9265,392.9957],
    [725,1537379275,53.5541,-110.6002,1770.4,1170.4,316.5,5.2,-1.3,0.88,43.18,1.9251,392.5278],
    [726,1537379276,53.5547,-110.601,1770.2,1170.2,316.5,5.2,-1.3,0.88,43.15,1.9252,392.8326],
    [727,1537379277,53.5552,-110.6017,1770.2,1170.2,316.4,5.3,-1.2,1.18,42.7,1.9261,392.8197],
    [728,1537379278,53.5557,-110.6025,1770.2,1166.1,316.2,5.3,-1.1,0.54,43.55,1.9269,394.1203],
    [729,1537379279,53.5562,-110.6032,1770.3,1159.2,316.2,5.2,-1.1,0.52,43.31,1.9258,393.5992],
    [730,1537379280,53.5567,-110.604,1770.3,1154.4,316.0,5.3,-1.0,0.7,43.08,1.9278,393.2464],
    [731,1537379281,53.5572,-110.6048,1770.4,1154.4,316.1,5.2,-1.0,0.77,43.0,1.9275,393.8058],
    [732,1537379282,53.5577,-110.6055,1770.4,1155.1,316.1,5.3,-0.9,1.04,43.29,1.9263,393.3922],
    [733,1537379283,53.5583,-110.6063,1770.5,1155.6,316.1,5.3,-0.8,0.75,43.36,1.9275,392.792],
    [734,1537379284,53.5588,-110.6071,1770.6,1153.6,316.2,5.2,-0.8,0.89,43.11,1.9272,394.2261],
    [735,1537379285,53.5593,-110.6078,1770.6,1151.0,316.3,5.1,-0.8,0.12,43.26,1.9252,393.3295],
    [736,1537379286,53.5598,-110.6086,1770.5,1147.4,316.4,5.1,-0.7,1.48,42.67,1.9268,393.6874],
    [737,1537379287,53.5603,-110.6093,1770.3,1144.3,316.4,5.1,-0.7,0.67,43.15,1.9266,392.5738],
    [738,1537379288,53.5608,-110.6101,1770.1,1141.4,316.4,5.1,-0.7,0.65,43.37,1.9257,392.4942],
    [739,1537379289,53.5614,-110.6109,1769.9,1140.9,316.4,5.1,-0.7,0.68,43.39,1.9253,393.3442],
    [740,1537379290,53.5619,-110.6117,1769.7,1140.2,316.4,5.1,-0.8,1.22,43.09,1.9255,394.2193],
    [741,1537379291,53.5624,-110.6124,1769.4,1139.6,316.3,5.1,-0.8,0.79,43.29,1.9255,393.8226],
    [742,1537379292,53.5629,-110.6132,1769.3,1139.3,316.3,5.2,-1.0,1.11,42.77,1.9268,393.9409],
    [743,1537379293,53.5634,-110.6139,1769.3,1138.6,316.3,5.2,-0.9,0.96,43.0,1.9262,391.9249],
    [744,1537379294,53.5639,-110.6147,1769.4,1138.4,316.2,5.2,-0.9,1.27,42.81,1.9267,392.71],
    [745,1537379295,53.5645,-110.6155,1769.7,1139.7,316.2,5.3,-1.0,0.47,43.08,1.9271,393.6697],
    [746,1537379296,53.565,-110.6162,1770.1,1141.1,316.2,5.3,-1.0,0.48,43.85,1.9261,392.5515],
    [747,1537379297,53.5655,-110.617,1770.6,1141.6,316.2,5.3,-1.0,0.55,43.38,1.9254,393.4435],
    [748,1537379298,53.566,-110.6177,1770.8,1142.7,316.3,5.3,-1.1,1.33,42.63,1.9261,393.1657],
    [749,1537379299,53.5665,-110.6185,1770.9,1144.0,316.4,5.3,-1.2,1.04,43.25,1.9267,393.8286],
    [750,1537379300,53.567,-110.6193,1770.8,1143.8,316.4,5.3,-1.1,1.19,43.16,1.9266,392.0195],
    [751,1537379301,53.5675,-110.62,1770.6,1144.1,316.3,5.3,-1.1,0.18,43.48,1.9263,393.6281],
    [752,1537379302,53.5681,-110.6208,1770.4,1144.4,316.3,5.4,-1.1,0.79,43.29,1.9274,392.4862],
    [753,1537379303,53.5686,-110.6215,1770.2,1144.2,316.3,5.4,-1.1,1.19,43.13,1.9263,392.6784],
    [754,1537379304,53.5691,-110.6223,1770.0,1143.4,316.3,5.4,-1.2,1.36,43.03,1.926,394.4631],
    [755,1537379305,53.5696,-110.6231,1769.8,1140.9,316.3,5.5,-1.3,0.76,43.41,1.9257,393.1924],
    [756,1537379306,53.5701,-110.6238,1769.8,1138.8,316.3,5.5,-1.3,1.08,43.1,1.9266,393.9644],
    [757,1537379307,53.5706,-110.6245,1769.8,1138.9,316.3,5.5,-1.4,0.45,43.2,1.9254,393.5639],
    [758,1537379308,53.5711,-110.6253,1769.9,1139.9,316.3,5.5,-1.4,0.32,43.31,1.9265,393.758],
    [759,1537379309,53.5716,-110.6261,1770.1,1141.3,316.2,5.5,-1.4,1.07,43.09,1.9266,392.1649],
    [760,1537379310,53.5722,-110.6269,1770.3,1143.0,316.3,5.5,-1.4,0.78,43.56,1.9262,393.5635],
    [761,1537379311,53.5727,-110.6276,1770.5,1142.9,316.2,5.5,-1.4,0.6,43.32,1.9259,393.6206],
    [762,1537379312,53.5732,-110.6284,1770.6,1141.3,316.2,5.5,-1.3,0.57,43.92,1.9259,392.9424],
    [763,1537379313,53.5737,-110.6292,1770.6,1138.6,316.2,5.5,-1.2,0.58,43.36,1.9255,393.5383],
    [764,1537379314,53.5742,-110.6299,1770.6,1135.8,316.2,5.4,-1.2,0.93,43.47,1.9255,394.0657],
    [765,1537379315,53.5747,-110.6307,1770.4,1135.4,316.1,5.5,-1.1,0.79,43.34,1.926,393.821],
    [766,1537379316,53.5752,-110.6314,1770.2,1134.2,316.1,5.4,-1.1,0.67,43.22,1.9264,393.1985],
    [767,1537379317,53.5757,-110.6322,1769.9,1132.9,316.1,5.5,-1.1,0.75,43.58,1.9269,394.0168],
    [768,1537379318,53.5763,-110.6329,1769.7,1132.7,316.1,5.5,-1.1,0.42,43.33,1.9268,394.6937],
    [769,1537379319,53.5768,-110.6337,1769.6,1131.9,316.1,5.5,-1.0,0.45,43.42,1.9271,393.042],
    [770,1537379320,53.5773,-110.6345,1769.5,1131.2,316.1,5.5,-1.0,0.43,43.48,1.9265,392.7498],
    [771,1537379321,53.5778,-110.6352,1769.6,1130.3,316.1,5.5,-1.0,0.91,43.07,1.9256,392.6688],
    [772,1537379322,53.5783,-110.636,1769.6,1131.0,316.1,5.5,-0.9,1.62,42.96,1.9251,393.6912],
    [773,1537379323,53.5788,-110.6367,1769.7,1130.5,316.1,5.6,-0.9,0.78,43.68,1.9259,392.3258],
    [774,1537379324,53.5793,-110.6375,1769.8,1128.2,316.2,5.5,-0.8,1.33,42.76,1.925,393.4391],
    [775,1537379325,53.5798,-110.6382,1769.9,1125.5,316.2,5.5,-0.8,0.55,43.44,1.926,393.4154],
    [776,1537379326,53.5804,-110.639,1770.0,1124.3,316.2,5.5,-0.8,0.6,43.48,1.9267,392.664],
    [777,1537379327,53.5809,-110.6398,1770.0,1124.6,316.2,5.6,-0.8,0.88,43.74,1.9264,393.0421],
    [778,1537379328,53.5814,-110.6405,1770.1,1125.1,316.2,5.6,-0.8,1.03,43.67,1.9279,393.4179],
    [779,1537379329,53.5819,-110.6413,1770.1,1125.4,316.2,5.5,-0.8,0.67,44.24,1.9258,393.221],
    [780,1537379330,53.5824,-110.642,1770.1,1126.0,316.2,5.6,-0.8,0.51,43.59,1.9261,393.1794],
    [781,1537379331,53.5829,-110.6428,1770.0,1127.0,316.2,5.5,-0.8,0.95,43.04,1.9266,391.649],
    [782,1537379332,53.5834,-110.6435,1770.0,1126.2,316.2,5.5,-0.8,0.57,43.56,1.9258,394.2773],
    [783,1537379333,53.5839,-110.6443,1770.0,1125.8,316.2,5.5,-0.8,1.28,43.26,1.9256,392.4802],
    [784,1537379334,53.5845,-110.645,1770.0,1125.7,316.3,5.4,-0.8,0.76,43.75,1.9254,391.5619],
    [785,1537379335,53.585,-110.6458,1770.0,1125.2,316.3,5.4,-0.8,1.25,43.25,1.9259,393.7728],
    [786,1537379336,53.5855,-110.6466,1770.1,1124.1,316.2,5.5,-0.7,0.2,43.91,1.9265,393.7476],
    [787,1537379337,53.586,-110.6473,1770.1,1123.1,316.3,5.4,-0.7,0.89,43.69,1.926,391.9694],
    [788,1537379338,53.5865,-110.6481,1770.1,1122.1,316.3,5.4,-0.8,0.31,43.83,1.927,392.9586],
    [789,1537379339,53.587,-110.6488,1770.0,1122.0,316.3,5.4,-0.8,0.95,43.6,1.9264,392.9586],
    [790,1537379340,53.5875,-110.6496,1769.9,1121.9,316.3,5.4,-0.9,0.99,44.37,1.9265,391.5863],
    [791,1537379341,53.5881,-110.6503,1769.8,1122.9,316.3,5.4,-0.8,0.72,43.82,1.9251,393.4881],
    [792,1537379342,53.5886,-110.6511,1769.7,1122.9,316.3,5.4,-0.8,0.78,43.47,1.9267,393.2921],
    [793,1537379343,53.5891,-110.6519,1769.6,1122.9,316.3,5.5,-0.9,0.6,43.64,1.9259,392.1048],
    [794,1537379344,53.5896,-110.6526,1769.6,1123.1,316.3,5.5,-0.9,0.93,43.55,1.9266,393.4074],
    [795,1537379345,53.5901,-110.6534,1769.6,1127.2,316.2,5.6,-0.9,0.4,43.7,1.9258,393.0764],
    [796,1537379346,53.5906,-110.6541,1769.6,1131.5,316.2,5.7,-0.9,1.1,43.29,1.9254,393.0764],
    [797,1537379347,53.5912,-110.6549,1769.8,1138.1,316.2,5.6,-1.0,0.58,43.98,1.9266,394.0738],
    [798,1537379348,53.5917,-110.6556,1770.0,1141.5,316.2,5.7,-0.9,1.42,43.02,1.9247,394.1062],
    [799,1537379349,53.5922,-110.6564,1770.2,1143.3,316.3,5.6,-1.0,1.23,43.2,1.9261,393.7981],
    [800,1537379350,53.5927,-110.6572,1770.4,1143.4,316.3,5.6,-1.0,0.13,43.6,1.9263,392.3764],
    [801,1537379351,53.5932,-110.6579,1770.4,1145.5,316.4,5.6,-1.0,0.86,43.93,1.9257,393.8893],
    [802,1537379352,53.5937,-110.6587,1770.4,1146.4,316.4,5.5,-0.9,0.9,43.52,1.927,392.6267],
    [803,1537379353,53.5942,-110.6594,1770.3,1145.3,316.4,5.5,-0.9,0.96,43.45,1.9255,392.514],
    [804,1537379354,53.5948,-110.6602,1770.1,1144.1,316.4,5.5,-0.8,0.39,43.31,1.926,392.9536],
    [805,1537379355,53.5953,-110.6609,1769.8,1142.9,316.3,5.5,-0.8,0.95,42.96,1.9258,392.2643],
    [806,1537379356,53.5958,-110.6617,1769.6,1140.8,316.3,5.5,-0.8,1.25,43.12,1.9267,392.2643],
    [807,1537379357,53.5963,-110.6624,1769.5,1139.1,316.3,5.5,-0.8,0.79,43.46,1.9267,393.9569],
    [808,1537379358,53.5968,-110.6632,1769.4,1137.8,316.4,5.4,-0.9,0.47,43.56,1.9255,391.886],
    [809,1537379359,53.5973,-110.664,1769.4,1138.7,316.4,5.4,-0.9,1.51,43.07,1.9253,393.7153],
    [810,1537379360,53.5978,-110.6647,1769.4,1142.4,316.4,5.4,-0.8,0.8,43.49,1.9263,393.8612],
    [811,1537379361,53.5984,-110.6655,1769.4,1146.4,316.4,5.4,-0.9,0.23,43.53,1.9262,392.4701],
    [812,1537379362,53.5989,-110.6662,1769.4,1147.4,316.5,5.4,-1.0,0.24,43.49,1.9271,393.3391],
    [813,1537379363,53.5994,-110.667,1769.5,1147.5,316.5,5.4,-1.1,0.7,43.66,1.9251,393.8804],
    [814,1537379364,53.5999,-110.6678,1769.5,1147.5,316.5,5.4,-1.1,0.76,43.7,1.9259,393.4132],
    [815,1537379365,53.6004,-110.6685,1769.6,1147.6,316.5,5.3,-1.2,0.94,43.19,1.9257,393.9451],
    [816,1537379366,53.601,-110.6693,1769.6,1147.6,316.5,5.3,-1.2,1.02,43.21,1.9251,393.1775],
    [817,1537379367,53.6015,-110.67,1769.7,1147.7,316.5,5.3,-1.3,0.52,43.43,1.9256,392.7554],
    [818,1537379368,53.602,-110.6708,1769.8,1147.8,316.5,5.3,-1.4,0.72,43.66,1.9261,393.9008],
    [819,1537379369,53.6025,-110.6716,1770.0,1146.8,316.4,5.3,-1.3,1.37,42.89,1.9261,393.1221],
    [820,1537379370,53.603,-110.6723,1770.1,1142.1,316.4,5.4,-1.2,0.8,43.62,1.925,393.3593],
    [821,1537379371,53.6035,-110.6731,1770.2,1141.7,316.2,5.3,-1.1,0.61,43.46,1.9254,393.2436],
    [822,1537379372,53.604,-110.6738,1770.3,1140.5,316.2,5.3,-1.1,0.84,43.74,1.9249,393.6157],
    [823,1537379373,53.6046,-110.6746,1770.3,1138.3,316.2,5.3,-1.1,1.41,43.32,1.9258,393.6448],
    [824,1537379374,53.6051,-110.6754,1770.3,1138.9,316.3,5.3,-1.2,1.53,43.07,1.9262,392.6897],
    [825,1537379375,53.6056,-110.6761,1770.2,1139.3,316.2,5.4,-1.1,0.93,43.7,1.9266,392.1544],
    [826,1537379376,53.606,-110.6768,1770.1,1139.8,316.3,5.3,-1.2,0.65,43.56,1.9267,392.1544],
    [827,1537379377,53.6066,-110.6776,1770.0,1140.3,316.4,5.3,-1.1,0.27,43.7,1.9277,393.1777],
    [828,1537379378,53.6071,-110.6784,1769.9,1141.9,316.4,5.2,-1.1,0.81,43.71,1.9272,393.1799],
    [829,1537379379,53.6076,-110.6792,1769.7,1142.7,316.4,5.3,-1.1,0.83,43.66,1.9266,394.1616],
    [830,1537379380,53.6081,-110.6799,1769.6,1142.3,316.5,5.3,-1.2,0.99,43.32,1.926,394.3208],
    [831,1537379381,53.6087,-110.6807,1769.5,1139.5,316.4,5.4,-1.2,0.77,44.14,1.9267,391.6057],
    [832,1537379382,53.6092,-110.6814,1769.6,1139.6,316.4,5.4,-1.2,0.46,43.97,1.9274,392.7926],
    [833,1537379383,53.6097,-110.6822,1769.7,1139.7,316.3,5.4,-1.2,0.53,44.02,1.9277,393.3049],
    [834,1537379384,53.6102,-110.683,1769.8,1138.9,316.3,5.3,-1.3,0.34,44.06,1.9272,393.7266],
    [835,1537379385,53.6107,-110.6837,1770.0,1136.0,316.3,5.3,-1.3,0.57,44.12,1.9279,393.885],
    [836,1537379386,53.6112,-110.6845,1770.1,1134.1,316.4,5.3,-1.4,1.45,43.88,1.9253,392.5238],
    [837,1537379387,53.6117,-110.6853,1770.4,1133.6,316.3,5.4,-1.4,0.76,44.42,1.9264,392.3441],
    [838,1537379388,53.6122,-110.686,1770.6,1131.9,316.3,5.4,-1.4,0.76,44.87,1.9271,393.567],
    [839,1537379389,53.6128,-110.6868,1770.8,1129.0,316.3,5.5,-1.4,0.51,44.09,1.9253,392.0851],
    [840,1537379390,53.6133,-110.6875,1771.1,1129.5,316.3,5.5,-1.4,0.79,44.41,1.9277,392.3858],
    [841,1537379391,53.6138,-110.6883,1771.2,1132.2,316.3,5.5,-1.3,0.3,43.75,1.9255,394.4042],
    [842,1537379392,53.6143,-110.6891,1771.2,1136.6,316.3,5.4,-1.3,0.89,43.71,1.9263,392.5651],
    [843,1537379393,53.6148,-110.6898,1771.1,1140.5,316.3,5.4,-1.2,0.35,43.85,1.9262,392.8784],
    [844,1537379394,53.6153,-110.6906,1770.9,1141.9,316.3,5.4,-1.1,0.74,43.76,1.9255,393.3681],
    [845,1537379395,53.6158,-110.6913,1770.6,1142.6,316.3,5.3,-1.1,0.96,44.38,1.9262,391.0104],
    [846,1537379396,53.6164,-110.6921,1770.2,1143.2,316.3,5.3,-1.2,0.43,43.82,1.9265,394.4124],
    [847,1537379397,53.6169,-110.6929,1769.8,1143.9,316.3,5.3,-1.1,0.53,44.08,1.9272,392.7024],
    [848,1537379398,53.6174,-110.6936,1769.5,1142.6,316.3,5.3,-1.1,1.08,43.6,1.9266,393.5533],
    [849,1537379399,53.6179,-110.6944,1769.4,1141.3,316.3,5.4,-1.1,0.62,43.81,1.9275,394.1481],
    [850,1537379400,53.6184,-110.6952,1769.3,1142.0,316.3,5.4,-1.1,0.76,43.67,1.9277,394.1449],
    [851,1537379401,53.6189,-110.6959,1769.2,1143.9,316.3,5.3,-1.2,0.4,44.16,1.9275,394.7943],
    [852,1537379402,53.6194,-110.6967,1769.3,1147.0,316.4,5.4,-1.3,0.83,43.51,1.9281,393.7315],
    [853,1537379403,53.62,-110.6975,1769.5,1149.5,316.4,5.3,-1.3,0.78,44.06,1.9263,393.9993],
    [854,1537379404,53.6205,-110.6982,1769.7,1149.7,316.4,5.4,-1.3,0.76,43.66,1.9272,393.5766],
    [855,1537379405,53.621,-110.699,1769.8,1149.8,316.4,5.4,-1.4,0.81,44.19,1.9254,393.1659],
    [856,1537379406,53.6215,-110.6998,1770.0,1150.0,316.4,5.4,-1.4,1.32,43.43,1.927,394.0559],
    [857,1537379407,53.622,-110.7005,1770.1,1150.1,316.4,5.4,-1.5,1.41,43.35,1.9267,393.4262],
    [858,1537379408,53.6226,-110.7013,1770.2,1150.2,316.4,5.4,-1.5,0.91,43.58,1.927,393.2746],
    [859,1537379409,53.6231,-110.7021,1770.2,1150.2,316.4,5.4,-1.5,0.66,43.71,1.9274,393.3626],
    [860,1537379410,53.6236,-110.7028,1770.1,1150.1,316.4,5.4,-1.5,0.86,43.35,1.9271,393.5276],
    [861,1537379411,53.6241,-110.7036,1770.1,1150.1,316.4,5.4,-1.5,0.27,43.6,1.9277,393.314],
    [862,1537379412,53.6246,-110.7043,1770.0,1150.0,316.4,5.4,-1.5,0.8,44.04,1.9274,393.6632],
    [863,1537379413,53.6251,-110.7051,1769.9,1149.9,316.4,5.4,-1.5,1.41,43.3,1.9272,393.7905],
    [864,1537379414,53.6256,-110.7059,1769.8,1149.8,316.3,5.4,-1.6,0.09,43.6,1.9279,392.9045],
    [865,1537379415,53.6262,-110.7066,1769.6,1149.6,316.3,5.4,-1.6,1.42,42.95,1.9274,393.1841],
    [866,1537379416,53.6267,-110.7074,1769.5,1149.5,316.3,5.5,-1.6,0.4,43.73,1.9262,394.3947],
    [867,1537379417,53.6272,-110.7082,1769.5,1149.5,316.3,5.4,-1.7,0.53,44.21,1.9268,393.5902],
    [868,1537379418,53.6277,-110.709,1769.5,1149.5,316.3,5.5,-1.7,0.62,43.92,1.927,394.065],
    [869,1537379419,53.6282,-110.7097,1769.5,1149.5,316.3,5.4,-1.7,0.78,43.86,1.9258,393.9961],
    [870,1537379420,53.6287,-110.7105,1769.5,1149.5,316.2,5.4,-1.5,0.76,43.6,1.9264,393.9961],
    [871,1537379421,53.6292,-110.7113,1769.5,1149.5,316.2,5.2,-1.4,1.22,43.71,1.927,393.9354],
    [872,1537379422,53.6297,-110.712,1769.3,1149.4,316.3,5.2,-1.5,0.74,43.7,1.9269,393.3708],
    [873,1537379423,53.6303,-110.7128,1769.1,1144.0,316.3,5.2,-1.5,0.95,44.05,1.9266,391.3137],
    [874,1537379424,53.6308,-110.7136,1769.0,1144.2,316.2,5.4,-1.6,0.98,43.88,1.9268,394.3841],
    [875,1537379425,53.6313,-110.7143,1768.9,1144.2,316.2,5.5,-1.6,0.58,43.53,1.9271,394.8],
    [876,1537379426,53.6318,-110.7151,1768.8,1142.9,316.2,5.6,-1.6,1.23,43.13,1.9273,393.0943],
    [877,1537379427,53.6323,-110.7159,1768.8,1139.1,316.2,5.6,-1.7,0.58,43.58,1.9277,394.4659],
    [878,1537379428,53.6328,-110.7166,1768.8,1137.5,316.3,5.6,-1.7,0.66,43.86,1.9277,393.6022],
    [879,1537379429,53.6333,-110.7174,1769.1,1137.7,316.3,5.6,-1.7,0.69,43.77,1.927,393.238],
    [880,1537379430,53.6338,-110.7182,1769.4,1139.4,316.2,5.7,-1.7,0.82,43.4,1.9269,392.4955],
    [881,1537379431,53.6344,-110.7189,1769.6,1140.1,316.3,5.6,-1.7,0.77,43.54,1.9268,393.6131],
    [882,1537379432,53.6349,-110.7197,1769.9,1140.8,316.3,5.6,-1.6,1.07,43.39,1.9265,391.2653],
    [883,1537379433,53.6354,-110.7204,1770.1,1142.1,316.2,5.6,-1.6,0.76,43.74,1.9265,393.0867],
    [884,1537379434,53.6359,-110.7212,1770.1,1142.1,316.1,5.7,-1.5,0.76,43.8,1.9266,394.0109],
    [885,1537379435,53.6364,-110.722,1770.1,1141.1,316.1,5.7,-1.4,1.4,43.13,1.9268,393.3224],
    [886,1537379436,53.6369,-110.7227,1770.0,1140.1,316.2,5.6,-1.5,0.37,43.79,1.9271,393.3224],
    [887,1537379437,53.6374,-110.7235,1769.9,1139.1,316.2,5.6,-1.5,0.36,43.81,1.927,392.5786],
    [888,1537379438,53.638,-110.7243,1769.8,1138.9,316.3,5.5,-1.5,1.47,43.55,1.9265,393.0988],
    [889,1537379439,53.6385,-110.725,1769.7,1138.6,316.3,5.4,-1.5,0.83,43.56,1.9267,389.6369],
    [890,1537379440,53.639,-110.7258,1769.6,1137.6,316.5,5.2,-1.6,0.78,44.56,1.9281,389.6369],
    [891,1537379441,53.6395,-110.7265,1769.5,1136.5,316.4,5.3,-1.6,0.77,43.65,1.9261,393.1787],
    [892,1537379442,53.64,-110.7273,1769.5,1135.4,316.4,5.3,-1.6,1.44,43.3,1.9265,393.7475],
    [893,1537379443,53.6405,-110.7281,1769.4,1135.1,316.4,5.3,-1.5,0.8,44.17,1.9259,394.0414],
    [894,1537379444,53.641,-110.7288,1769.4,1135.1,316.3,5.2,-1.3,0.92,43.74,1.9274,394.3218],
    [895,1537379445,53.6415,-110.7296,1769.5,1134.5,316.3,5.2,-1.4,0.63,43.83,1.9273,395.6282],
    [896,1537379446,53.642,-110.7304,1769.4,1133.4,316.3,5.4,-1.5,0.38,43.88,1.9274,391.6282],
    [897,1537379447,53.6426,-110.7311,1769.4,1131.3,316.4,5.2,-1.6,0.79,44.47,1.9264,393.9102],
    [898,1537379448,53.6431,-110.7319,1769.4,1131.5,316.6,5.1,-1.7,0.29,43.79,1.9257,393.3735],
    [899,1537379449,53.6436,-110.7327,1769.6,1131.5,316.5,5.1,-1.6,0.2,44.0,1.9269,391.9396],
    [900,1537379450,53.6441,-110.7335,1769.8,1132.0,316.5,5.0,-1.6,0.75,44.11,1.9269,392.2231],
    [901,1537379451,53.6446,-110.7342,1770.0,1133.0,316.5,5.0,-1.6,0.24,43.83,1.9267,393.8184],
    [902,1537379452,53.6451,-110.735,1770.2,1133.2,316.4,5.1,-1.6,0.88,44.12,1.9266,394.8304],
    [903,1537379453,53.6456,-110.7357,1770.2,1132.7,316.3,5.2,-1.6,0.64,43.97,1.927,395.1686],
    [904,1537379454,53.6461,-110.7365,1770.2,1131.1,316.3,5.3,-1.7,1.14,43.21,1.9264,393.6206],
    [905,1537379455,53.6467,-110.7373,1770.1,1130.2,316.3,5.3,-1.7,0.33,43.84,1.9286,393.2811],
    [906,1537379456,53.6472,-110.7381,1769.9,1129.9,316.2,5.3,-1.6,0.63,43.88,1.9273,393.2811],
    [907,1537379457,53.6477,-110.7388,1769.8,1129.4,316.2,5.3,-1.6,1.24,43.76,1.9268,394.4948],
    [908,1537379458,53.6482,-110.7396,1769.5,1128.8,316.3,5.1,-1.6,1.04,43.77,1.9257,394.0791],
    [909,1537379459,53.6487,-110.7403,1769.3,1129.3,316.3,5.1,-1.5,0.96,44.41,1.9263,394.7339],
    [910,1537379460,53.6492,-110.7411,1769.1,1130.8,316.3,5.0,-1.3,0.73,43.54,1.9286,394.7339],
    [911,1537379461,53.6497,-110.7419,1768.9,1133.0,316.3,5.1,-1.3,0.7,44.03,1.9285,393.2584],
    [912,1537379462,53.6502,-110.7426,1768.7,1134.2,316.4,5.1,-1.2,0.83,44.76,1.9269,393.6114],
    [913,1537379463,53.6508,-110.7434,1768.6,1136.8,316.4,5.1,-1.2,0.42,43.79,1.9266,391.7076],
    [914,1537379464,53.6513,-110.7442,1768.7,1137.9,316.4,5.1,-1.3,1.31,43.29,1.928,391.7076],
    [915,1537379465,53.6518,-110.7449,1768.8,1137.8,316.3,5.3,-1.1,0.92,44.44,1.9278,394.2506],
    [916,1537379466,53.6523,-110.7457,1769.0,1138.0,316.1,5.5,-1.2,1.22,43.38,1.9278,393.8891],
    [917,1537379467,53.6528,-110.7464,1769.4,1138.3,316.2,5.5,-1.2,0.43,43.91,1.9274,393.1002],
    [918,1537379468,53.6533,-110.7472,1769.8,1138.7,316.2,5.3,-1.1,0.67,44.02,1.9278,393.1638],
    [919,1537379469,53.6538,-110.748,1770.1,1139.1,316.2,5.3,-1.0,0.45,44.01,1.9291,393.1638],
    [920,1537379470,53.6543,-110.7487,1770.2,1139.2,316.3,5.2,-1.2,1.23,43.57,1.9277,392.8276],
    [921,1537379471,53.6548,-110.7495,1770.1,1139.2,316.5,5.1,-1.2,0.2,44.04,1.9276,393.9097],
    [922,1537379472,53.6554,-110.7503,1769.8,1139.0,316.5,5.2,-1.3,0.5,44.02,1.928,392.0459],
    [923,1537379473,53.6559,-110.751,1769.6,1138.1,316.6,5.2,-1.3,0.07,44.21,1.9272,391.9713],
    [924,1537379474,53.6564,-110.7517,1769.4,1138.2,316.6,5.3,-1.4,0.88,43.8,1.9268,392.9668],
    [925,1537379475,53.6569,-110.7525,1769.3,1139.0,316.6,5.3,-1.4,0.58,44.27,1.9267,393.9918],
    [926,1537379476,53.6574,-110.7533,1769.3,1138.1,316.6,5.3,-1.5,0.05,44.28,1.9262,394.013],
    [927,1537379477,53.6579,-110.7541,1769.4,1136.3,316.4,5.4,-1.4,1.2,43.82,1.9271,391.6539],
    [928,1537379478,53.6584,-110.7548,1769.5,1133.7,316.4,5.4,-1.4,1.46,43.74,1.927,394.4341],
    [929,1537379479,53.6589,-110.7556,1769.6,1131.4,316.3,5.4,-1.4,0.71,44.02,1.9268,393.6618],
    [930,1537379480,53.6595,-110.7563,1769.6,1129.6,316.2,5.5,-1.4,0.79,44.59,1.9279,391.7308],
    [931,1537379481,53.66,-110.7571,1769.5,1128.5,316.2,5.4,-1.4,1.09,44.3,1.9268,393.4541],
    [932,1537379482,53.6605,-110.7579,1769.5,1126.5,316.2,5.6,-1.4,0.41,43.97,1.9267,393.6804],
    [933,1537379483,53.661,-110.7586,1769.5,1124.9,316.3,5.5,-1.4,0.5,43.87,1.9276,393.211],
    [934,1537379484,53.6615,-110.7594,1769.4,1123.1,316.4,5.3,-1.4,0.59,43.66,1.9271,393.211],
    [935,1537379485,53.662,-110.7601,1769.3,1121.3,316.4,5.4,-1.4,0.24,44.14,1.9265,393.9986],
    [936,1537379486,53.6625,-110.7609,1769.1,1120.1,316.5,5.3,-1.5,1.07,43.88,1.9279,393.8174],
    [937,1537379487,53.6631,-110.7617,1768.9,1119.6,316.5,5.3,-1.4,1.45,43.41,1.9283,388.7945],
    [938,1537379488,53.6636,-110.7624,1768.7,1118.6,316.4,5.3,-1.3,1.11,43.98,1.9263,388.7945],
    [939,1537379489,53.6641,-110.7632,1768.5,1119.6,316.4,5.1,-1.2,0.71,44.18,1.9257,393.9158],
    [940,1537379490,53.6646,-110.7639,1768.3,1120.3,316.4,5.2,-1.2,0.74,44.49,1.9279,393.9159],
    [941,1537379491,53.6651,-110.7647,1768.0,1120.7,316.3,5.3,-1.3,1.23,44.13,1.9285,393.3587],
    [942,1537379492,53.6656,-110.7654,1767.9,1119.9,316.3,5.2,-1.1,1.31,44.12,1.9286,392.3665],
    [943,1537379493,53.6661,-110.7662,1767.8,1119.8,316.4,5.0,-1.2,0.81,44.06,1.928,393.4876],
    [944,1537379494,53.6666,-110.767,1767.7,1118.8,316.3,5.2,-1.2,1.05,43.83,1.9264,391.5287],
    [945,1537379495,53.6671,-110.7677,1767.8,1116.1,316.3,5.4,-1.5,0.52,44.58,1.9258,392.4779],
    [946,1537379496,53.6676,-110.7684,1768.0,1114.4,316.3,5.5,-1.4,0.21,44.26,1.927,392.4779],
    [947,1537379497,53.6682,-110.7693,1768.4,1114.2,316.3,5.6,-1.5,0.88,44.51,1.9274,394.4364],
    [948,1537379498,53.6687,-110.77,1768.9,1115.9,316.3,5.6,-1.6,0.52,44.45,1.9265,391.6533],
    [949,1537379499,53.6692,-110.7708,1769.4,1117.6,316.3,5.6,-1.6,0.84,44.62,1.927,392.9753],
    [950,1537379500,53.6697,-110.7715,1769.6,1119.3,316.4,5.6,-1.7,0.85,44.11,1.9277,393.6557],
    [951,1537379501,53.6702,-110.7722,1769.7,1119.3,316.3,5.7,-1.7,0.5,44.28,1.9263,394.4284],
    [952,1537379502,53.6707,-110.773,1769.8,1120.2,316.3,5.5,-1.6,1.11,43.98,1.927,394.4647],
    [953,1537379503,53.6712,-110.7738,1769.9,1118.9,316.3,5.6,-1.5,0.69,44.33,1.9278,392.7698],
    [954,1537379504,53.6717,-110.7746,1769.8,1119.5,316.2,5.7,-1.4,0.79,44.37,1.9272,391.9902],
    [955,1537379505,53.6722,-110.7753,1769.7,1120.7,316.4,5.6,-1.6,0.72,44.12,1.9274,390.9173],
    [956,1537379506,53.6727,-110.776,1769.6,1124.2,316.3,5.6,-1.5,0.88,44.35,1.927,393.7231],
    [957,1537379507,53.6732,-110.7768,1769.3,1125.6,316.3,5.6,-1.5,1.07,44.28,1.9265,392.092],
    [958,1537379508,53.6737,-110.7776,1769.1,1126.2,316.3,5.6,-1.5,0.56,44.17,1.9272,392.8797],
    [959,1537379509,53.6743,-110.7783,1768.9,1128.7,316.2,5.7,-1.4,0.7,44.47,1.9283,394.3285],
    [960,1537379510,53.6748,-110.7791,1768.7,1127.5,316.2,5.7,-1.4,0.52,44.09,1.9278,394.6617],
    [961,1537379511,53.6753,-110.7798,1768.7,1127.1,316.2,5.7,-1.4,0.84,44.46,1.927,393.7681],
    [962,1537379512,53.6758,-110.7806,1768.7,1127.3,316.2,5.6,-1.4,0.69,44.06,1.9267,394.1999],
    [963,1537379513,53.6763,-110.7814,1768.7,1128.7,316.2,5.6,-1.3,0.7,44.01,1.9277,393.573],
    [964,1537379514,53.6768,-110.7821,1768.8,1128.9,316.2,5.6,-1.3,0.71,44.06,1.9269,393.4215],
    [965,1537379515,53.6773,-110.7829,1768.9,1127.2,316.2,5.5,-1.2,0.07,43.9,1.9281,392.9243],
    [966,1537379516,53.6778,-110.7836,1768.9,1127.2,316.3,5.4,-1.3,0.6,43.96,1.9265,394.2232],
    [967,1537379517,53.6783,-110.7844,1768.9,1127.1,316.3,5.4,-1.2,0.55,43.94,1.9281,394.219],
    [968,1537379518,53.6788,-110.7851,1768.8,1128.8,316.3,5.5,-1.2,0.62,43.93,1.9275,392.7361],
    [969,1537379519,53.6794,-110.7859,1768.8,1128.8,316.2,5.4,-1.1,0.72,43.91,1.9262,391.5259],
    [970,1537379520,53.6799,-110.7867,1768.7,1128.7,316.2,5.4,-1.1,0.5,44.13,1.9278,393.2143],
    [971,1537379521,53.6804,-110.7874,1768.6,1128.6,316.2,5.4,-1.1,0.86,44.31,1.9285,392.8678],
    [972,1537379522,53.6809,-110.7882,1768.6,1128.6,316.2,5.4,-1.1,0.72,44.28,1.9276,392.969],
    [973,1537379523,53.6814,-110.7889,1768.6,1128.6,316.2,5.4,-1.1,1.32,44.06,1.9275,392.9992],
    [974,1537379524,53.6819,-110.7897,1768.6,1128.6,316.2,5.4,-1.2,0.13,44.15,1.9276,394.3302],
    [975,1537379525,53.6824,-110.7905,1768.6,1128.6,316.1,5.5,-1.1,1.02,44.09,1.9273,394.5132],
    [976,1537379526,53.6829,-110.7912,1768.7,1128.7,316.1,5.6,-1.2,0.43,44.51,1.9273,394.3337],
    [977,1537379527,53.6834,-110.792,1768.9,1127.8,316.1,5.8,-1.2,0.73,44.39,1.9269,392.6549],
    [978,1537379528,53.6839,-110.7927,1769.1,1126.8,316.0,5.9,-1.1,0.29,44.22,1.926,393.1169],
    [979,1537379529,53.6845,-110.7935,1769.3,1125.3,316.1,5.8,-1.2,0.8,44.14,1.9263,392.9033],
    [980,1537379530,53.685,-110.7942,1769.6,1125.4,316.2,5.8,-1.3,0.7,44.24,1.9277,393.8126],
    [981,1537379531,53.6855,-110.795,1769.8,1125.5,316.3,5.7,-1.3,0.11,44.18,1.9261,393.8185],
    [982,1537379532,53.686,-110.7958,1769.9,1124.3,316.2,5.8,-1.2,0.57,44.22,1.9292,393.6603],
    [983,1537379533,53.6865,-110.7965,1769.9,1121.8,316.3,5.6,-1.3,0.53,44.29,1.9265,394.8447],
    [984,1537379534,53.687,-110.7973,1769.7,1120.0,316.3,5.6,-1.2,0.41,43.84,1.9273,392.866],
    [985,1537379535,53.6875,-110.798,1769.4,1118.7,316.3,5.6,-1.2,1.24,44.2,1.9265,392.9363],
    [986,1537379536,53.688,-110.7988,1769.1,1120.1,316.3,5.4,-1.2,0.79,43.63,1.9262,394.3354],
    [987,1537379537,53.6886,-110.7995,1768.9,1123.9,316.2,5.4,-1.1,0.85,43.9,1.9273,393.0701],
    [988,1537379538,53.6891,-110.8003,1768.6,1127.7,316.2,5.4,-1.0,1.05,43.86,1.927,393.5669],
    [989,1537379539,53.6896,-110.8011,1768.3,1127.3,316.2,5.4,-1.1,0.53,44.15,1.9273,393.6205],
    [990,1537379540,53.6901,-110.8018,1768.1,1127.0,316.1,5.4,-1.1,1.09,43.9,1.9279,392.4327],
    [991,1537379541,53.6906,-110.8026,1767.9,1125.7,316.2,5.4,-1.1,1.03,43.55,1.9267,392.7602],
    [992,1537379542,53.6911,-110.8034,1767.9,1123.0,316.1,5.4,-1.1,1.33,43.74,1.9258,393.0957],
    [993,1537379543,53.6916,-110.8041,1767.9,1121.6,316.1,5.3,-1.0,0.54,44.81,1.9264,393.4853],
    [994,1537379544,53.6921,-110.8049,1767.9,1121.2,316.1,5.3,-1.0,0.7,44.13,1.9272,393.7157],
    [995,1537379545,53.6926,-110.8056,1768.0,1123.1,316.0,5.4,-0.8,0.08,44.21,1.9268,393.8509],
    [996,1537379546,53.6932,-110.8064,1768.0,1124.0,316.0,5.3,-0.8,0.67,44.64,1.9272,392.1766],
    [997,1537379547,53.6937,-110.8072,1768.1,1125.1,316.0,5.3,-0.8,0.9,43.8,1.9271,393.6818],
    [998,1537379548,53.6942,-110.8079,1768.1,1124.8,316.0,5.4,-0.9,0.6,44.95,1.9268,393.2224],
    [999,1537379549,53.6947,-110.8087,1768.1,1124.1,316.2,5.4,-1.1,0.34,44.39,1.9281,391.2067],
    [1000,1537379550,53.6952,-110.8094,1768.1,1125.1,316.2,5.5,-1.1,0.93,44.3,1.9279,391.2067],
    [1001,1537379551,53.6957,-110.8102,1768.2,1126.2,316.2,5.5,-1.2,0.68,44.38,1.9269,393.0201],
    [1002,1537379552,53.6962,-110.811,1768.3,1126.3,316.1,5.6,-1.2,0.34,44.79,1.9279,392.8768],
    [1003,1537379553,53.6967,-110.8117,1768.4,1126.4,316.1,5.5,-1.2,0.69,45.2,1.9293,392.9385],
    [1004,1537379554,53.6973,-110.8125,1768.6,1126.6,316.1,5.5,-1.2,0.74,44.67,1.9277,392.9385],
    [1005,1537379555,53.6978,-110.8133,1768.8,1126.8,316.1,5.5,-1.3,0.69,44.77,1.9266,393.6611],
    [1006,1537379556,53.6983,-110.814,1769.0,1127.0,316.1,5.6,-1.4,1.02,44.98,1.9261,391.7085],
    [1007,1537379557,53.6988,-110.8148,1769.0,1127.0,316.2,5.5,-1.4,1.18,44.05,1.9263,394.7472],
    [1008,1537379558,53.6993,-110.8156,1769.1,1125.3,316.2,5.5,-1.4,0.3,44.61,1.9267,393.9225],
    [1009,1537379559,53.6998,-110.8163,1769.1,1123.1,316.2,5.5,-1.5,0.68,44.72,1.9286,393.7505],
    [1010,1537379560,53.7003,-110.8171,1769.1,1120.1,316.2,5.6,-1.5,0.49,44.5,1.9264,392.7566],
    [1011,1537379561,53.7008,-110.8178,1769.1,1117.1,316.2,5.6,-1.5,0.53,44.97,1.9261,392.6698],
    [1012,1537379562,53.7013,-110.8186,1769.1,1116.1,316.1,5.6,-1.5,0.01,44.78,1.9267,392.5659],
    [1013,1537379563,53.7018,-110.8194,1769.0,1114.3,316.1,5.6,-1.5,1.05,44.4,1.9267,393.2895],
    [1014,1537379564,53.7024,-110.8201,1768.9,1113.1,316.2,5.5,-1.5,0.76,44.58,1.927,394.652],
    [1015,1537379565,53.7029,-110.8209,1768.8,1112.1,316.2,5.5,-1.4,0.43,44.14,1.9262,393.6366],
    [1016,1537379566,53.7034,-110.8216,1768.6,1113.3,316.2,5.5,-1.4,0.74,44.23,1.9278,393.9712],
    [1017,1537379567,53.7039,-110.8224,1768.5,1113.2,316.2,5.5,-1.4,0.78,44.49,1.9271,393.8178],
    [1018,1537379568,53.7044,-110.8232,1768.4,1115.0,316.2,5.6,-1.3,0.54,44.68,1.9275,392.9921],
    [1019,1537379569,53.7049,-110.824,1768.3,1118.8,316.2,5.6,-1.3,0.65,44.91,1.9276,393.838],
    [1020,1537379570,53.7054,-110.8247,1768.4,1122.4,316.1,5.6,-1.3,0.85,44.13,1.9276,394.1648],
    [1021,1537379571,53.7059,-110.8255,1768.5,1124.5,316.2,5.5,-1.4,0.8,44.05,1.9266,392.8446],
    [1022,1537379572,53.7065,-110.8262,1768.7,1126.0,316.2,5.6,-1.4,0.87,44.26,1.9271,392.4089],
    [1023,1537379573,53.707,-110.827,1768.9,1126.9,316.0,5.7,-1.2,0.7,44.41,1.9271,393.4766],
    [1024,1537379574,53.7075,-110.8278,1769.1,1126.5,316.0,5.7,-1.1,0.74,44.08,1.9265,394.0977],
    [1025,1537379575,53.708,-110.8286,1769.2,1127.2,315.9,5.7,-1.1,0.4,44.0,1.9265,392.9441],
    [1026,1537379576,53.7085,-110.8293,1769.1,1127.8,315.9,5.7,-1.1,1.41,43.69,1.9263,393.7277],
    [1027,1537379577,53.709,-110.8301,1769.1,1128.4,315.9,5.7,-1.1,1.07,44.4,1.9266,393.8889],
    [1028,1537379578,53.7095,-110.8309,1769.0,1128.0,316.0,5.7,-1.1,0.83,43.96,1.9268,394.2114],
    [1029,1537379579,53.7101,-110.8316,1769.0,1126.2,316.0,5.7,-1.1,1.07,43.55,1.9274,393.8171],
    [1030,1537379580,53.7106,-110.8324,1768.9,1125.9,316.1,5.7,-1.1,0.83,43.58,1.9268,393.6937],
    [1031,1537379581,53.7111,-110.8331,1768.9,1126.9,316.1,5.7,-1.1,0.67,43.88,1.9278,393.6019],
    [1032,1537379582,53.7116,-110.8339,1768.9,1129.2,316.2,5.7,-1.1,0.46,44.68,1.9272,393.5505],
    [1033,1537379583,53.7121,-110.8347,1768.9,1130.9,316.2,5.7,-1.2,0.37,43.96,1.928,393.5383],
    [1034,1537379584,53.7126,-110.8354,1768.8,1130.8,316.2,5.7,-1.2,0.49,43.92,1.9267,393.9571],
    [1035,1537379585,53.7131,-110.8362,1768.7,1131.0,316.4,5.6,-1.4,0.81,43.75,1.9265,393.202],
    [1036,1537379586,53.7136,-110.837,1768.5,1132.5,316.5,5.6,-1.6,1.03,43.84,1.9286,392.8732],
    [1037,1537379587,53.7142,-110.8377,1768.1,1133.2,316.7,5.4,-1.9,0.19,43.77,1.9288,393.0602],
    [1038,1537379588,53.7147,-110.8385,1767.8,1132.2,316.6,5.4,-1.8,0.36,43.68,1.9279,393.3089],
    [1039,1537379589,53.7152,-110.8392,1767.8,1129.8,316.5,5.6,-1.8,0.05,43.71,1.9277,393.6794],
    [1040,1537379590,53.7157,-110.84,1767.9,1129.5,316.2,5.9,-1.9,0.78,44.27,1.9294,393.8021],
    [1041,1537379591,53.7162,-110.8408,1768.0,1130.0,316.1,6.0,-1.9,0.68,43.81,1.9277,391.8024],
    [1042,1537379592,53.7167,-110.8415,1768.1,1131.1,316.1,5.9,-1.9,1.29,43.66,1.9279,393.2509],
    [1043,1537379593,53.7172,-110.8423,1768.2,1133.2,316.0,6.0,-1.9,0.21,43.78,1.9287,392.9301],
    [1044,1537379594,53.7177,-110.8431,1768.3,1134.4,316.1,5.9,-1.9,0.04,43.74,1.9271,394.4083],
    [1045,1537379595,53.7183,-110.8438,1768.6,1134.6,316.2,5.9,-1.9,0.89,43.61,1.9264,393.9275],
    [1046,1537379596,53.7188,-110.8446,1768.9,1134.9,316.3,5.9,-1.9,1.04,43.78,1.9282,392.4755],
    [1047,1537379597,53.7193,-110.8453,1769.2,1135.1,316.3,5.9,-1.9,0.9,43.75,1.9276,395.0795],
    [1048,1537379598,53.7198,-110.8461,1769.4,1136.5,316.3,5.8,-2.0,0.5,44.04,1.927,393.7095],
    [1049,1537379599,53.7203,-110.8469,1769.7,1136.7,316.2,5.8,-1.9,0.47,44.29,1.9273,394.4368],
    [1050,1537379600,53.7208,-110.8476,1770.0,1136.9,316.2,5.7,-1.8,0.53,44.01,1.9269,393.6118],
    [1051,1537379601,53.7213,-110.8484,1770.0,1138.0,316.0,5.8,-1.7,1.04,43.79,1.928,393.6773],
    [1052,1537379602,53.7218,-110.8491,1770.0,1138.9,316.0,5.8,-1.6,0.83,43.52,1.9278,394.0056],
    [1053,1537379603,53.7223,-110.8499,1769.8,1139.9,316.1,5.6,-1.6,0.08,43.66,1.9288,394.7396],
    [1054,1537379604,53.7228,-110.8507,1769.5,1139.4,316.1,5.5,-1.6,0.7,43.78,1.9278,394.1092],
    [1055,1537379605,53.7233,-110.8514,1769.1,1139.1,316.1,5.6,-1.6,1.45,43.49,1.9272,393.5332],
    [1056,1537379606,53.7238,-110.8522,1768.7,1138.7,316.2,5.5,-1.6,1.02,43.34,1.9268,393.5066],
    [1057,1537379607,53.7244,-110.853,1768.6,1138.5,316.4,5.4,-1.7,0.55,43.73,1.9275,393.689],
    [1058,1537379608,53.7249,-110.8537,1768.5,1139.5,316.4,5.6,-1.8,0.1,43.85,1.9275,393.676],
    [1059,1537379609,53.7254,-110.8545,1768.6,1140.6,316.3,5.7,-1.9,0.33,43.69,1.9267,392.6934],
    [1060,1537379610,53.7259,-110.8552,1768.8,1140.8,316.3,5.7,-1.9,0.7,43.83,1.9272,394.4376],
    [1061,1537379611,53.7264,-110.856,1769.2,1142.2,316.2,5.8,-1.9,0.45,44.21,1.9269,393.6213],
    [1062,1537379612,53.7269,-110.8568,1769.5,1142.5,316.1,5.8,-1.9,1.37,43.56,1.9282,393.024],
    [1063,1537379613,53.7274,-110.8575,1769.6,1143.6,316.1,5.8,-1.9,0.52,44.1,1.9277,393.024],
    [1064,1537379614,53.7279,-110.8583,1769.7,1143.7,316.1,5.9,-1.8,1.23,43.92,1.929,393.1735],
    [1065,1537379615,53.7284,-110.8591,1769.7,1142.8,316.1,5.9,-1.9,0.58,44.11,1.9293,393.0546],
    [1066,1537379616,53.7289,-110.8598,1769.6,1141.6,316.2,5.8,-1.9,0.09,44.0,1.9296,394.7181],
    [1067,1537379617,53.7294,-110.8606,1769.5,1140.8,316.3,5.9,-1.9,0.81,43.96,1.9278,394.7181],
    [1068,1537379618,53.7299,-110.8613,1769.5,1140.5,316.3,5.8,-1.9,0.72,44.09,1.9272,393.3528],
    [1069,1537379619,53.7304,-110.8621,1769.3,1139.3,316.4,5.8,-1.9,0.72,44.52,1.9273,393.6087],
    [1070,1537379620,53.731,-110.8629,1768.6,1138.6,316.3,5.8,-1.8,0.66,43.94,1.9271,393.621],
    [1071,1537379621,53.7315,-110.8636,1767.4,1138.4,316.3,5.8,-1.9,1.26,43.7,1.9269,393.0203],
    [1072,1537379622,53.732,-110.8644,1765.6,1136.6,316.3,5.7,-1.8,0.68,44.18,1.9275,393.0203],
    [1073,1537379623,53.7325,-110.8652,1763.6,1135.6,316.3,5.7,-1.9,0.7,44.27,1.9274,392.4182],
    [1074,1537379624,53.733,-110.8659,1761.5,1133.5,316.4,5.5,-1.8,0.64,44.39,1.9261,393.366],
    [1075,1537379625,53.7335,-110.8667,1759.5,1130.8,316.3,5.5,-1.7,0.87,43.79,1.9273,393.7296],
    [1076,1537379626,53.734,-110.8675,1757.4,1128.1,316.3,5.4,-1.7,0.26,44.31,1.9268,393.6608],
    [1077,1537379627,53.7346,-110.8683,1755.4,1124.4,316.3,5.4,-1.7,0.72,44.82,1.9268,392.3211],
    [1078,1537379628,53.7351,-110.869,1753.5,1120.8,316.3,5.4,-1.7,0.82,43.99,1.9271,392.5067],
    [1079,1537379629,53.7356,-110.8698,1751.6,1117.6,316.3,5.2,-1.6,0.4,44.35,1.9268,393.1219],
    [1080,1537379630,53.7361,-110.8706,1749.8,1114.8,316.4,5.1,-1.5,0.63,44.43,1.927,394.1737],
    [1081,1537379631,53.7367,-110.8714,1747.9,1114.0,316.4,5.1,-1.5,0.77,44.85,1.9275,393.3286],
    [1082,1537379632,53.7372,-110.8722,1745.9,1111.9,316.3,5.1,-1.5,0.29,44.32,1.9276,388.7024],
    [1083,1537379633,53.7377,-110.873,1743.9,1110.9,316.3,5.2,-1.6,0.49,44.3,1.9286,392.9413],
    [1084,1537379634,53.7382,-110.8737,1742.1,1109.0,316.4,5.2,-1.7,0.12,44.35,1.9289,393.8702],
    [1085,1537379635,53.7388,-110.8746,1740.1,1108.1,316.5,5.3,-1.9,1.22,43.9,1.9287,392.0703],
    [1086,1537379636,53.7393,-110.8754,1738.4,1108.1,316.5,5.3,-2.0,1.13,44.24,1.9288,388.9539],
    [1087,1537379637,53.7398,-110.8762,1736.8,1108.9,316.6,5.4,-2.2,0.78,45.03,1.9281,393.4536],
    [1088,1537379638,53.7404,-110.877,1735.1,1109.1,316.6,5.4,-2.2,0.43,44.52,1.9287,394.3943],
    [1089,1537379639,53.7409,-110.8778,1733.3,1107.3,316.5,5.4,-2.2,0.89,43.98,1.9293,392.0642],
    [1090,1537379640,53.7414,-110.8786,1731.2,1105.2,316.5,5.4,-2.2,0.71,44.62,1.9282,392.5947],
    [1091,1537379641,53.742,-110.8794,1728.9,1102.9,316.5,5.4,-2.3,0.78,44.98,1.9271,392.6395],
    [1092,1537379642,53.7425,-110.8802,1726.7,1100.7,316.5,5.4,-2.2,0.62,44.64,1.9271,392.9861],
    [1093,1537379643,53.743,-110.881,1724.7,1097.6,316.5,5.4,-2.3,0.86,44.9,1.9286,393.9137],
    [1094,1537379644,53.7436,-110.8818,1722.8,1095.8,316.6,5.2,-2.2,0.94,44.64,1.9281,394.0582],
    [1095,1537379645,53.7441,-110.8826,1721.1,1094.0,316.5,5.2,-2.1,0.6,44.62,1.9282,392.9638],
    [1096,1537379646,53.7447,-110.8834,1719.4,1092.3,316.5,5.2,-2.2,0.82,44.71,1.9278,392.5973],
    [1097,1537379647,53.7452,-110.8842,1717.6,1090.6,316.5,5.2,-2.1,0.89,45.47,1.9272,393.6295],
    [1098,1537379648,53.7457,-110.8851,1715.8,1088.8,316.6,5.2,-2.1,1.65,44.33,1.9269,391.7171],
    [1099,1537379649,53.7463,-110.8859,1713.9,1085.8,316.6,5.1,-2.1,1.32,44.27,1.9273,392.5085],
    [1100,1537379650,53.7468,-110.8867,1711.9,1082.7,316.5,5.1,-2.0,0.89,45.05,1.9288,392.4417],
    [1101,1537379651,53.7474,-110.8875,1709.9,1078.9,316.5,5.1,-2.1,0.82,44.82,1.928,393.2451],
    [1102,1537379652,53.7479,-110.8883,1707.8,1073.3,316.5,5.1,-2.0,0.99,44.74,1.9291,393.5199],
    [1103,1537379653,53.7484,-110.8891,1705.7,1067.6,316.6,5.2,-2.2,1.52,44.55,1.9297,392.4907],
    [1104,1537379654,53.749,-110.89,1703.5,1063.8,316.6,5.2,-2.2,0.55,44.44,1.929,394.4074],
    [1105,1537379655,53.7495,-110.8908,1701.4,1061.3,316.6,5.2,-2.3,1.14,44.31,1.9273,393.5923],
    [1106,1537379656,53.7501,-110.8916,1699.4,1060.9,316.6,5.2,-2.3,0.94,44.54,1.9283,393.2726],
    [1107,1537379657,53.7506,-110.8924,1697.4,1060.9,316.7,5.2,-2.3,1.11,44.21,1.929,393.4327],
    [1108,1537379658,53.7512,-110.8933,1695.4,1060.5,316.7,5.1,-2.3,1.76,44.19,1.9278,392.9916],
    [1109,1537379659,53.7517,-110.8941,1693.4,1058.8,316.7,5.0,-2.3,1.12,44.21,1.929,392.9082],
    [1110,1537379660,53.7523,-110.8949,1691.4,1057.3,316.8,4.9,-2.4,1.16,44.34,1.9291,392.8082],
    [1111,1537379661,53.7528,-110.8957,1689.2,1057.2,316.8,5.0,-2.5,1.29,44.6,1.9301,393.573],
    [1112,1537379662,53.7533,-110.8966,1687.2,1058.1,316.9,5.0,-2.7,1.08,45.01,1.9294,392.3769],
    [1113,1537379663,53.7539,-110.8974,1685.2,1058.5,316.9,5.1,-2.9,1.1,44.67,1.9293,392.7327],
    [1114,1537379664,53.7544,-110.8982,1683.3,1056.8,316.9,5.0,-3.1,0.61,44.84,1.9294,394.2086],
    [1115,1537379665,53.755,-110.899,1681.6,1057.0,317.0,4.9,-3.3,1.44,44.3,1.9284,393.04],
    [1116,1537379666,53.7555,-110.8999,1679.9,1058.3,317.0,4.9,-3.5,1.15,45.65,1.9296,393.2184],
    [1117,1537379667,53.7561,-110.9007,1678.3,1061.1,316.9,5.1,-3.5,0.99,45.12,1.9289,393.1903],
    [1118,1537379668,53.7566,-110.9015,1676.7,1061.7,316.8,5.2,-3.4,1.58,45.11,1.9289,392.6842],
    [1119,1537379669,53.7572,-110.9023,1674.8,1061.8,316.7,5.2,-3.3,1.18,45.98,1.9287,393.289],
    [1120,1537379670,53.7577,-110.9032,1672.4,1059.4,316.7,5.2,-3.2,0.59,45.79,1.9292,393.1099],
    [1121,1537379671,53.7582,-110.904,1670.0,1057.0,316.7,5.1,-3.2,1.24,45.64,1.9305,393.2376],
    [1122,1537379672,53.7588,-110.9048,1667.9,1054.9,316.7,5.0,-3.1,0.91,45.9,1.9294,393.1323],
    [1123,1537379673,53.7593,-110.9057,1666.0,1053.0,316.8,4.9,-3.1,1.04,45.9,1.9283,392.5908],
    [1124,1537379674,53.7599,-110.9065,1664.1,1048.8,316.8,4.8,-3.1,1.4,45.79,1.9282,392.9689],
    [1125,1537379675,53.7604,-110.9073,1662.4,1040.3,316.9,4.7,-3.1,1.42,46.07,1.9311,392.9543],
    [1126,1537379676,53.7609,-110.9082,1660.6,1028.2,316.9,4.8,-3.1,1.76,45.6,1.9285,393.3001],
    [1127,1537379677,53.7615,-110.909,1658.7,1012.2,316.8,4.8,-3.0,1.37,46.55,1.9302,394.3119],
    [1128,1537379678,53.7621,-110.9099,1656.8,995.4,316.7,4.9,-3.1,1.9,45.58,1.929,393.4366],
    [1129,1537379679,53.7626,-110.9107,1655.0,980.2,316.7,5.0,-3.1,1.62,45.54,1.9283,393.4366],
    [1130,1537379680,53.7631,-110.9115,1653.2,968.4,316.7,5.0,-3.1,1.16,46.56,1.9291,392.8407],
    [1131,1537379681,53.7637,-110.9124,1651.2,959.8,316.6,5.1,-3.1,0.8,46.35,1.9285,393.9871],
    [1132,1537379682,53.7642,-110.9132,1649.4,957.3,316.5,5.2,-3.1,1.84,45.88,1.9295,393.0694],
    [1133,1537379683,53.7648,-110.9141,1647.4,958.1,316.6,5.2,-3.1,1.0,45.99,1.9279,394.1909],
    [1134,1537379684,53.7653,-110.9149,1645.4,961.0,316.6,5.3,-3.0,1.45,45.82,1.9276,392.5664],
    [1135,1537379685,53.7659,-110.9157,1643.2,962.7,316.6,5.3,-2.8,1.33,45.73,1.9287,394.4834],
    [1136,1537379686,53.7664,-110.9166,1641.0,964.4,316.6,5.3,-2.7,1.41,46.12,1.9281,393.1283],
    [1137,1537379687,53.767,-110.9174,1638.9,964.8,316.6,5.3,-2.6,1.4,45.3,1.9287,392.8737],
    [1138,1537379688,53.7675,-110.9182,1636.9,964.0,316.7,5.3,-2.7,1.63,45.56,1.9279,393.5499],
    [1139,1537379689,53.7681,-110.9191,1634.9,962.2,316.7,5.4,-2.7,1.52,44.53,1.9292,394.0716],
    [1140,1537379690,53.7687,-110.9199,1632.9,960.6,316.7,5.5,-2.7,1.91,44.06,1.929,392.9402],
    [1141,1537379691,53.7692,-110.9208,1631.0,959.9,316.8,5.4,-2.7,1.48,44.39,1.9297,393.9929],
    [1142,1537379692,53.7698,-110.9216,1629.0,960.3,316.9,5.3,-2.8,2.07,44.05,1.9295,394.3407],
    [1143,1537379693,53.7703,-110.9224,1627.2,960.8,317.0,5.2,-2.9,2.08,43.5,1.9299,393.9323],
    [1144,1537379694,53.7709,-110.9233,1625.4,960.5,317.0,5.2,-2.9,1.92,43.58,1.9297,392.9233],
    [1145,1537379695,53.7714,-110.9241,1623.8,958.0,316.9,5.3,-2.9,1.63,43.66,1.9298,393.2682],
    [1146,1537379696,53.772,-110.925,1622.2,955.6,316.8,5.4,-2.9,1.21,44.39,1.9289,392.8405],
    [1147,1537379697,53.7725,-110.9258,1620.8,954.7,316.8,5.5,-3.0,1.85,44.29,1.929,393.4196],
    [1148,1537379698,53.7731,-110.9266,1619.6,956.0,316.8,5.5,-3.1,1.64,45.26,1.9282,392.8733],
    [1149,1537379699,53.7736,-110.9275,1618.3,957.9,316.9,5.4,-3.2,1.54,44.8,1.9304,393.2759],
    [1150,1537379700,53.7742,-110.9283,1617.0,960.9,317.0,5.5,-3.4,1.13,44.89,1.9293,393.2776],
    [1151,1537379701,53.7747,-110.9291,1615.8,963.4,317.1,5.5,-3.5,1.21,44.88,1.9295,393.9985],
    [1152,1537379702,53.7753,-110.9299,1614.7,965.3,317.1,5.4,-3.4,1.99,44.81,1.9292,393.2494],
    [1153,1537379703,53.7759,-110.9308,1613.5,967.1,317.2,5.2,-3.2,1.64,45.64,1.9287,393.2097],
    [1154,1537379704,53.7764,-110.9316,1612.1,969.6,317.2,5.1,-3.1,1.97,44.67,1.9288,393.2097],
    [1155,1537379705,53.777,-110.9324,1610.4,972.4,317.2,5.1,-3.1,1.37,44.93,1.9288,393.8379],
    [1156,1537379706,53.7775,-110.9333,1608.7,971.0,317.1,5.1,-3.0,1.47,44.94,1.9288,393.2006],
    [1157,1537379707,53.778,-110.9341,1607.0,970.6,317.0,5.1,-2.9,1.6,45.08,1.9289,391.4443],
    [1158,1537379708,53.7786,-110.9349,1605.3,967.0,316.9,5.2,-2.7,1.49,45.21,1.9291,391.137],
    [1159,1537379709,53.7792,-110.9358,1603.7,962.3,316.9,5.1,-2.7,1.86,45.43,1.9286,391.547],
    [1160,1537379710,53.7797,-110.9366,1602.0,960.0,317.0,5.0,-2.7,1.47,45.0,1.9287,392.9116],
    [1161,1537379711,53.7802,-110.9374,1600.1,959.9,317.1,4.9,-2.6,1.85,45.34,1.9305,393.0299],
    [1162,1537379712,53.7808,-110.9382,1598.2,959.2,317.2,4.9,-2.7,1.76,45.17,1.929,392.8321],
    [1163,1537379713,53.7813,-110.9391,1596.4,959.4,317.2,4.9,-2.7,1.25,44.91,1.9284,393.4365],
    [1164,1537379714,53.7818,-110.9398,1594.9,959.6,317.2,5.0,-2.8,1.55,45.06,1.9287,392.5149],
    [1165,1537379715,53.7824,-110.9407,1593.2,960.5,317.3,5.1,-2.9,1.99,44.47,1.9297,393.9205],
    [1166,1537379716,53.783,-110.9415,1592.0,963.1,317.3,5.2,-3.0,2.1,44.81,1.9285,392.6844],
    [1167,1537379717,53.7835,-110.9423,1591.0,964.7,317.3,5.2,-3.2,1.97,44.98,1.9282,393.1472],
    [1168,1537379718,53.7841,-110.9431,1589.8,963.7,317.3,5.2,-3.2,1.88,44.99,1.9288,393.3425],
    [1169,1537379719,53.7846,-110.944,1588.5,963.5,317.3,5.2,-3.3,2.05,44.54,1.9285,391.6066],
    [1170,1537379720,53.7852,-110.9448,1587.1,962.6,317.3,5.2,-3.2,1.89,45.1,1.9285,392.7257],
    [1171,1537379721,53.7857,-110.9456,1585.6,961.5,317.2,5.2,-3.2,1.19,44.93,1.9297,393.465],
    [1172,1537379722,53.7863,-110.9464,1583.9,961.9,317.3,5.1,-3.2,2.16,44.57,1.9299,393.6387],
    [1173,1537379723,53.7868,-110.9472,1582.1,961.2,317.3,5.0,-3.2,1.61,44.9,1.9294,391.0652],
    [1174,1537379724,53.7873,-110.948,1580.4,959.4,317.3,5.0,-3.3,2.01,45.02,1.9287,392.1452],
    [1175,1537379725,53.7879,-110.9488,1578.6,957.6,317.3,5.0,-3.4,1.99,45.3,1.9295,393.3736],
    [1176,1537379726,53.7884,-110.9496,1577.0,956.0,317.4,5.0,-3.5,1.65,44.88,1.9288,393.9267],
    [1177,1537379727,53.789,-110.9504,1575.4,954.4,317.4,5.0,-3.5,2.21,44.73,1.9298,393.596],
    [1178,1537379728,53.7895,-110.9513,1574.0,954.0,317.4,5.0,-3.6,2.71,44.57,1.9314,393.5097],
    [1179,1537379729,53.79,-110.9521,1572.6,954.6,317.3,5.2,-3.5,1.72,45.15,1.93,393.4702],
    [1180,1537379730,53.7906,-110.9529,1571.4,954.7,317.3,5.1,-3.5,2.19,44.48,1.9293,391.6497],
    [1181,1537379731,53.7911,-110.9537,1570.0,953.0,317.2,5.1,-3.4,2.12,45.16,1.928,391.5403],
    [1182,1537379732,53.7916,-110.9545,1568.6,951.7,317.2,5.0,-3.4,1.39,44.51,1.9293,393.2879],
    [1183,1537379733,53.7922,-110.9553,1567.0,950.0,317.2,5.0,-3.2,1.9,44.18,1.9295,392.7744],
    [1184,1537379734,53.7927,-110.9561,1565.2,949.9,317.2,5.1,-3.2,1.96,44.3,1.9283,391.2152],
    [1185,1537379735,53.7932,-110.9569,1563.3,949.6,317.1,5.2,-3.1,2.7,44.19,1.9281,392.0589],
    [1186,1537379736,53.7938,-110.9577,1561.5,949.5,317.1,5.2,-3.0,1.95,44.12,1.9302,393.5713],
    [1187,1537379737,53.7943,-110.9585,1559.8,950.7,317.2,5.0,-3.1,1.91,43.74,1.9272,393.1301],
    [1188,1537379738,53.7948,-110.9593,1558.1,952.2,317.2,5.1,-3.0,2.1,43.49,1.9288,393.3433],
    [1189,1537379739,53.7954,-110.9601,1556.5,954.2,317.2,5.0,-3.0,1.98,43.0,1.9285,393.3433],
    [1190,1537379740,53.7959,-110.9609,1554.9,955.4,317.3,4.8,-3.0,2.36,42.79,1.9294,393.0642],
    [1191,1537379741,53.7965,-110.9617,1553.3,955.3,317.3,4.8,-3.0,2.46,43.06,1.9288,393.1483],
    [1192,1537379742,53.797,-110.9625,1551.7,954.4,317.3,4.8,-3.1,2.56,42.85,1.9288,393.7069],
    [1193,1537379743,53.7975,-110.9633,1550.0,953.3,317.3,4.8,-3.2,2.92,43.1,1.9291,392.9734],
    [1194,1537379744,53.798,-110.9641,1548.3,954.7,317.3,4.7,-3.2,2.11,43.15,1.9291,392.9075],
    [1195,1537379745,53.7986,-110.9649,1546.5,955.9,317.3,4.6,-3.2,2.49,42.79,1.9297,392.2133],
    [1196,1537379746,53.7991,-110.9657,1544.8,955.0,317.2,4.6,-3.2,2.22,43.22,1.9289,392.0931],
    [1197,1537379747,53.7996,-110.9665,1543.0,950.0,317.2,4.8,-3.2,2.34,43.63,1.9298,393.6683],
    [1198,1537379748,53.8001,-110.9673,1541.4,944.9,317.1,4.8,-3.3,2.98,43.01,1.9307,393.9128],
    [1199,1537379749,53.8007,-110.9681,1539.8,946.2,317.2,4.8,-3.3,2.42,43.68,1.9307,392.8823],
    [1200,1537379750,53.8012,-110.9689,1538.5,949.2,317.2,4.9,-3.4,2.41,43.87,1.9298,392.8823],
    [1201,1537379751,53.8017,-110.9697,1537.5,950.8,317.1,5.1,-3.5,2.58,44.15,1.9302,392.371],
    [1202,1537379752,53.8023,-110.9705,1536.7,953.7,317.0,5.2,-3.2,2.07,44.26,1.9308,394.0238],
    [1203,1537379753,53.8028,-110.9713,1535.7,954.7,317.0,5.1,-3.1,2.22,44.28,1.9309,391.0934],
    [1204,1537379754,53.8033,-110.9721,1534.2,953.2,317.0,5.2,-3.0,2.11,45.04,1.9305,389.1062],
    [1205,1537379755,53.8038,-110.9729,1532.5,951.5,317.0,5.2,-2.9,2.23,44.97,1.9288,393.2574],
    [1206,1537379756,53.8043,-110.9736,1530.9,947.2,316.9,5.2,-2.7,2.42,44.87,1.9287,393.266],
    [1207,1537379757,53.8049,-110.9745,1529.2,942.1,317.0,5.0,-2.6,2.37,44.69,1.9289,393.004],
    [1208,1537379758,53.8054,-110.9753,1527.4,940.4,317.1,4.9,-2.6,2.51,44.49,1.9301,393.6523],
    [1209,1537379759,53.806,-110.9761,1525.5,939.5,317.2,4.7,-2.5,2.61,44.75,1.9292,394.2994],
    [1210,1537379760,53.8065,-110.9769,1523.6,937.3,317.3,4.7,-2.5,2.25,44.41,1.9296,393.6939],
    [1211,1537379761,53.807,-110.9776,1521.7,932.7,317.3,4.7,-2.5,2.07,44.03,1.9299,392.5298],
    [1212,1537379762,53.8076,-110.9784,1519.8,927.0,317.3,4.7,-2.5,3.03,43.34,1.9288,392.7281],
    [1213,1537379763,53.8081,-110.9792,1518.1,924.8,317.3,4.7,-2.5,2.66,43.48,1.93,393.3966],
    [1214,1537379764,53.8086,-110.98,1516.7,922.9,317.2,4.8,-2.7,2.37,43.47,1.9301,393.7433],
    [1215,1537379765,53.8091,-110.9808,1515.3,917.6,317.2,4.9,-2.8,2.33,43.49,1.9293,394.3572],
    [1216,1537379766,53.8097,-110.9816,1513.8,910.8,317.3,4.8,-3.1,2.56,44.14,1.929,393.7608],
    [1217,1537379767,53.8102,-110.9824,1512.4,908.2,317.3,4.8,-3.2,2.55,43.59,1.9297,392.8153],
    [1218,1537379768,53.8107,-110.9832,1510.9,910.3,317.4,4.8,-3.2,2.94,43.67,1.9295,392.8673],
    [1219,1537379769,53.8112,-110.984,1509.4,912.4,317.4,4.2,-3.0,2.53,44.53,1.939,394.0494],
    [1220,1537379770,53.8117,-110.9847,1508.0,912.9,317.4,3.5,-1.9,2.45,44.34,1.9465,393.6537],
    [1221,1537379771,53.8123,-110.9855,1506.6,910.6,316.9,4.0,-1.7,2.48,46.64,1.9421,393.0028],
    [1222,1537379772,53.8128,-110.9863,1504.8,905.8,317.8,3.4,-2.5,2.38,48.28,1.9428,393.2848],
    [1223,1537379773,53.8133,-110.9871,1502.9,903.6,317.2,3.8,-1.8,1.91,50.0,1.9353,393.1528],
    [1224,1537379774,53.8138,-110.9879,1501.3,903.3,317.5,3.8,-2.3,2.51,52.52,1.931,392.257],
    [1225,1537379775,53.8144,-110.9887,1500.0,907.0,318.0,3.9,-3.1,2.83,52.6,1.9306,393.2367],
    [1226,1537379776,53.8149,-110.9894,1498.6,907.4,318.0,3.9,-3.1,2.04,52.22,1.9358,393.6418],
    [1227,1537379777,53.8154,-110.9902,1496.9,907.5,318.0,3.8,-2.8,2.85,51.71,1.9431,394.3328],
    [1228,1537379778,53.8159,-110.991,1495.5,907.7,317.6,3.8,-2.2,2.56,52.05,1.9392,394.3328],
    [1229,1537379779,53.8165,-110.9918,1494.6,909.7,317.7,4.0,-3.0,3.31,52.11,1.935,391.1092],
    [1230,1537379780,53.817,-110.9926,1493.9,913.5,317.5,4.3,-2.8,3.08,52.88,1.93,393.6403],
    [1231,1537379781,53.8175,-110.9934,1492.9,918.3,317.6,4.3,-3.2,2.43,52.84,1.929,392.6568],
    [1232,1537379782,53.818,-110.9941,1491.8,919.8,317.5,4.1,-3.0,2.11,51.96,1.9287,393.6373],
    [1233,1537379783,53.8186,-110.9949,1490.5,922.5,317.3,4.3,-2.9,2.47,51.04,1.93,392.4046],
    [1234,1537379784,53.8191,-110.9957,1489.1,925.8,317.2,4.4,-2.7,2.58,50.75,1.9289,394.0342],
    [1235,1537379785,53.8196,-110.9965,1487.5,930.8,317.0,4.4,-2.5,2.62,49.25,1.9275,392.3623],
    [1236,1537379786,53.8201,-110.9973,1485.8,940.1,317.0,4.4,-2.3,2.24,48.4,1.9302,392.4171],
    [1237,1537379787,53.8206,-110.9981,1484.2,949.2,316.9,4.4,-2.0,3.06,47.67,1.9286,393.0123],
    [1238,1537379788,53.8212,-110.9989,1482.4,953.7,317.1,4.6,-1.9,2.3,47.1,1.9274,393.7121],
    [1239,1537379789,53.8217,-110.9997,1480.5,954.1,317.6,4.8,-1.7,2.45,46.31,1.928,394.1025],
    [1240,1537379790,53.8223,-111.0005,1478.6,951.3,318.8,4.8,-1.7,2.34,45.76,1.9282,393.2881],
    [1241,1537379791,53.8228,-111.0012,1476.5,944.5,320.6,4.9,-1.7,2.33,45.21,1.9274,393.5375],
    [1242,1537379792,53.8234,-111.0019,1474.3,938.7,323.0,4.8,-1.9,2.42,45.3,1.9278,393.4478],
    [1243,1537379793,53.824,-111.0026,1472.0,933.3,326.2,4.6,-2.2,2.75,44.54,1.9282,394.1268],
    [1244,1537379794,53.8246,-111.0032,1469.9,928.0,329.6,4.4,-2.5,2.22,44.1,1.929,392.702],
    [1245,1537379795,53.8252,-111.0037,1468.4,921.1,333.1,4.3,-2.7,2.53,43.85,1.9295,393.05],
    [1246,1537379796,53.8259,-111.0042,1467.5,911.6,336.2,4.1,-2.9,3.46,43.18,1.929,393.05],
    [1247,1537379797,53.8266,-111.0046,1466.8,905.1,338.8,4.0,-3.2,2.79,43.22,1.9286,393.412],
    [1248,1537379798,53.8272,-111.005,1466.1,895.7,341.2,3.6,-3.3,2.5,43.59,1.941,393.3253],
    [1249,1537379799,53.8279,-111.0053,1465.4,890.3,343.3,2.9,-3.1,3.54,43.47,1.9334,393.145],
    [1250,1537379800,53.8286,-111.0056,1464.5,884.5,344.4,2.9,-2.7,3.22,44.74,1.9286,393.2153],
    [1251,1537379801,53.8293,-111.0059,1463.2,878.7,345.0,3.2,-2.5,2.22,45.29,1.9288,392.8944],
    [1252,1537379802,53.83,-111.0062,1461.3,876.3,345.4,3.3,-2.4,2.98,46.14,1.9295,393.5766],
    [1253,1537379803,53.8307,-111.0065,1459.2,873.6,345.9,3.2,-2.5,2.89,46.12,1.9296,392.5296],
    [1254,1537379804,53.8314,-111.0067,1457.5,870.3,346.4,3.1,-2.2,2.92,45.89,1.9294,393.714],
    [1255,1537379805,53.8321,-111.0069,1456.0,867.0,347.1,3.3,-2.1,2.94,45.52,1.9288,393.714],
    [1256,1537379806,53.8328,-111.0072,1454.5,862.5,348.3,3.5,-2.2,2.92,45.44,1.9289,391.4457],
    [1257,1537379807,53.8335,-111.0073,1452.8,858.1,350.0,3.6,-2.1,2.66,45.31,1.9294,391.458],
    [1258,1537379808,53.8342,-111.0075,1451.0,853.3,352.1,3.5,-2.0,2.91,45.16,1.9297,392.5496],
    [1259,1537379809,53.8349,-111.0076,1449.3,848.9,354.2,3.5,-1.8,2.99,45.49,1.9294,392.4101],
    [1260,1537379810,53.8357,-111.0076,1447.8,844.9,355.9,3.8,-1.6,2.77,44.97,1.9296,393.3906],
    [1261,1537379811,53.8364,-111.0076,1446.4,842.4,357.7,3.6,-1.4,3.09,45.42,1.9289,392.7829],
    [1262,1537379812,53.8371,-111.0076,1445.0,840.0,359.0,3.6,-1.3,2.92,45.3,1.9289,393.5839],
    [1263,1537379813,53.8378,-111.0076,1443.6,837.6,360.0,3.6,-1.3,3.05,44.56,1.9282,393.5839],
    [1264,1537379814,53.8386,-111.0075,1442.3,836.3,360.7,3.5,-1.2,2.83,44.81,1.9296,392.7881],
    [1265,1537379815,53.8393,-111.0074,1440.9,834.2,361.1,3.6,-1.2,3.11,44.44,1.9299,392.4839],
    [1266,1537379816,53.84,-111.0074,1439.4,832.4,361.3,3.5,-1.2,3.14,44.37,1.931,391.9335],
    [1267,1537379817,53.8407,-111.0073,1437.8,831.0,361.5,3.3,-1.1,2.97,44.43,1.9333,391.7896],
    [1268,1537379818,53.8415,-111.0072,1436.0,830.0,361.4,3.3,-1.2,2.98,45.07,1.9371,394.8224],
    [1269,1537379819,53.8422,-111.0071,1434.1,827.1,361.3,3.5,-0.9,3.21,44.92,1.9409,394.4361],
    [1270,1537379820,53.8429,-111.007,1432.3,823.3,360.7,4.0,-0.4,2.84,46.18,1.9442,394.474],
    [1271,1537379821,53.8436,-111.007,1430.3,820.3,361.1,3.7,-0.3,3.71,47.44,1.9489,395.6651],
    [1272,1537379822,53.8443,-111.0069,1428.5,818.4,360.9,3.9,-0.3,3.09,49.65,1.9494,394.5859],
    [1273,1537379823,53.8451,-111.0068,1426.9,816.7,361.0,3.8,-0.4,2.57,52.43,1.9517,394.9126],
    [1274,1537379824,53.8458,-111.0067,1425.5,816.0,361.4,3.4,-0.4,3.54,54.9,1.9564,395.3498],
    [1275,1537379825,53.8465,-111.0066,1424.1,819.1,361.5,3.3,-0.4,3.84,59.36,1.9582,395.0769],
    [1276,1537379826,53.8472,-111.0066,1422.8,821.7,361.5,3.4,0.0,3.12,65.2,1.9599,394.2152],
    [1277,1537379827,53.8479,-111.0065,1421.6,821.9,361.4,3.5,0.2,3.18,72.56,1.9598,395.8823],
    [1278,1537379828,53.8487,-111.0064,1420.2,822.1,361.2,3.8,0.1,3.37,82.51,1.9642,395.6351],
    [1279,1537379829,53.8494,-111.0063,1418.8,820.7,361.2,3.7,0.2,3.2,92.36,1.9582,395.7482],
    [1280,1537379830,53.8501,-111.0062,1417.0,819.6,361.8,2.8,-0.3,3.62,98.51,1.9565,395.2635],
    [1281,1537379831,53.8508,-111.0061,1415.1,819.1,362.4,2.2,-0.5,2.98,100.12,1.9637,396.5865],
    [1282,1537379832,53.8516,-111.0061,1414.0,818.4,362.3,2.2,-0.5,2.76,100.07,1.9601,395.7784],
    [1283,1537379833,53.8523,-111.006,1413.1,816.4,362.1,2.4,-0.8,3.16,99.88,1.9499,393.9333],
    [1284,1537379834,53.853,-111.0059,1412.1,815.4,361.8,2.8,-0.9,3.66,99.66,1.939,392.3404],
    [1285,1537379835,53.8537,-111.0058,1410.5,815.5,361.4,3.2,-0.9,2.94,100.19,1.935,392.4911],
    [1286,1537379836,53.8545,-111.0057,1408.5,812.5,361.3,3.1,-0.7,2.77,91.81,1.9367,392.8423],
    [1287,1537379837,53.8552,-111.0057,1406.5,808.8,361.2,2.6,-0.8,2.29,83.46,1.9469,394.2993],
    [1288,1537379838,53.8559,-111.0056,1405.1,805.4,360.5,2.6,-0.9,2.87,79.76,1.9522,394.2303],
    [1289,1537379839,53.8566,-111.0056,1403.8,803.6,359.5,2.6,-0.7,2.85,81.59,1.9662,394.2025],
    [1290,1537379840,53.8574,-111.0055,1402.3,804.7,359.0,2.3,-0.6,2.77,90.63,1.9674,394.2025],
    [1291,1537379841,53.8581,-111.0055,1400.7,805.8,357.2,3.5,-0.6,2.85,97.84,1.967,396.49],
    [1292,1537379842,53.8588,-111.0056,1399.2,804.9,356.2,4.0,0.0,2.92,100.36,1.9652,394.11],
    [1293,1537379843,53.8596,-111.0056,1397.7,802.1,355.6,4.1,0.2,2.61,99.88,1.9672,393.1781],
    [1294,1537379844,53.8603,-111.0056,1396.0,797.0,356.3,3.0,-0.1,3.18,99.93,1.9621,395.5106],
    [1295,1537379845,53.861,-111.0057,1393.9,793.9,356.7,2.8,-0.2,2.63,99.87,1.9586,394.9113],
    [1296,1537379846,53.8617,-111.0057,1392.2,794.0,356.8,3.0,-0.3,3.1,99.83,1.9417,392.519],
    [1297,1537379847,53.8625,-111.0057,1391.0,795.3,356.7,3.2,-0.4,3.17,99.51,1.9399,392.519],
    [1298,1537379848,53.8632,-111.0057,1389.6,795.6,356.8,3.2,-0.4,2.63,99.54,1.9361,392.4402],
    [1299,1537379849,53.8639,-111.0057,1387.9,792.9,357.1,3.0,-0.5,3.41,97.39,1.9363,388.2976],
    [1300,1537379850,53.8647,-111.0058,1386.2,789.1,357.2,2.9,-0.4,2.91,84.74,1.9395,388.2976],
    [1301,1537379851,53.8654,-111.0058,1384.5,784.4,357.4,2.7,-0.2,3.09,79.88,1.9477,394.1265],
    [1302,1537379852,53.8661,-111.0058,1383.0,778.8,357.5,2.5,0.2,2.79,83.38,1.9586,395.3994],
    [1303,1537379853,53.8668,-111.0058,1381.7,774.9,357.4,2.3,0.8,2.46,88.9,1.9521,395.0849],
    [1304,1537379854,53.8676,-111.0058,1380.2,769.5,357.3,2.3,0.5,2.9,99.69,1.942,393.1276],
    [1305,1537379855,53.8683,-111.0059,1378.6,765.2,356.8,2.8,-0.1,2.84,99.87,1.9332,393.1579],
    [1306,1537379856,53.869,-111.0059,1376.8,759.4,356.7,2.9,-0.6,2.41,94.58,1.9318,390.0822],
    [1307,1537379857,53.8698,-111.0059,1375.1,752.8,357.0,2.7,-0.6,2.71,85.1,1.9345,392.6844],
    [1308,1537379858,53.8705,-111.0059,1374.1,748.8,356.9,2.7,-0.4,2.95,76.15,1.9303,393.2883],
    [1309,1537379859,53.8712,-111.006,1373.1,743.8,356.9,2.6,-0.5,2.97,69.22,1.9274,391.4342],
    [1310,1537379860,53.872,-111.006,1371.7,738.6,356.9,2.5,-0.6,2.37,64.18,1.9278,391.4342],
    [1311,1537379861,53.8727,-111.006,1370.1,736.2,356.8,2.6,-0.6,2.99,59.05,1.9277,392.6073],
    [1312,1537379862,53.8734,-111.006,1368.4,732.6,356.7,2.9,-1.0,3.02,57.19,1.9333,392.4231],
    [1313,1537379863,53.8742,-111.0061,1366.6,729.2,356.4,3.0,-0.9,2.84,56.75,1.9324,390.2082],
    [1314,1537379864,53.8749,-111.0061,1365.0,726.2,356.7,2.6,-0.7,3.34,56.04,1.9342,391.9349],
    [1315,1537379865,53.8757,-111.0061,1363.3,723.2,356.8,2.6,-0.3,3.41,55.16,1.9431,392.057],
    [1316,1537379866,53.8764,-111.0062,1362.0,724.0,355.8,4.1,0.6,2.64,57.58,1.956,395.1233],
    [1317,1537379867,53.8771,-111.0062,1360.5,723.5,356.1,3.9,0.4,3.86,61.87,1.9555,393.0551],
    [1318,1537379868,53.8778,-111.0062,1358.8,719.8,356.7,3.4,0.3,3.25,71.55,1.9452,391.0062],
    [1319,1537379869,53.8786,-111.0062,1357.2,715.4,356.7,3.4,1.3,3.18,80.16,1.9415,393.7729],
    [1320,1537379870,53.8793,-111.0063,1355.3,711.2,357.1,3.0,1.7,3.02,82.43,1.9424,393.5838],
    [1321,1537379871,53.88,-111.0063,1353.5,709.4,356.9,3.3,1.2,2.86,79.0,1.9471,393.6791],
    [1322,1537379872,53.8808,-111.0063,1351.6,708.5,357.9,2.1,0.4,3.71,76.0,1.9417,394.0028],
    [1323,1537379873,53.8815,-111.0063,1350.4,709.8,357.8,2.3,-0.2,3.19,76.49,1.9385,392.5981],
    [1324,1537379874,53.8823,-111.0063,1349.8,710.7,357.4,2.6,-0.4,3.02,74.51,1.9357,393.5422],
    [1325,1537379875,53.8829,-111.0063,1348.9,710.9,357.4,2.6,-0.4,3.4,72.4,1.9428,392.8624],
    [1326,1537379876,53.8837,-111.0064,1347.3,710.2,357.2,2.9,-0.3,3.23,69.61,1.9438,391.9368],
    [1327,1537379877,53.8845,-111.0064,1345.6,709.5,357.2,2.9,-0.2,3.81,67.62,1.9394,393.2269],
    [1328,1537379878,53.8852,-111.0064,1344.0,708.7,357.6,2.3,-0.1,3.15,67.8,1.9346,392.4937],
    [1329,1537379879,53.886,-111.0064,1342.6,707.3,357.5,2.4,-0.1,3.22,66.57,1.9333,391.9961],
    [1330,1537379880,53.8867,-111.0064,1340.6,706.4,357.5,2.4,0.0,2.73,62.75,1.9401,396.1652],
    [1331,1537379881,53.8874,-111.0064,1338.3,705.4,357.3,2.4,0.1,3.95,61.43,1.9493,394.103],
    [1332,1537379882,53.8882,-111.0065,1336.3,706.2,357.4,2.4,-0.2,3.36,63.08,1.9522,392.5648],
    [1333,1537379883,53.8889,-111.0065,1334.8,706.3,357.4,2.3,0.1,3.39,65.5,1.955,393.9498],
    [1334,1537379884,53.8896,-111.0065,1332.9,706.8,357.1,2.6,0.0,3.32,71.67,1.9566,393.6559],
    [1335,1537379885,53.8904,-111.0065,1330.7,706.6,357.1,2.5,0.2,3.48,77.62,1.9578,393.8365],
    [1336,1537379886,53.8911,-111.0066,1328.0,705.6,357.5,2.1,0.2,3.29,82.04,1.9611,394.5985],
    [1337,1537379887,53.8919,-111.0066,1325.3,703.8,357.3,2.3,-0.2,3.4,86.82,1.9583,394.7294],
    [1338,1537379888,53.8926,-111.0066,1322.8,702.5,357.4,2.3,-0.3,3.13,92.96,1.9599,394.9508],
    [1339,1537379889,53.8933,-111.0066,1320.6,701.5,357.1,2.5,-0.2,3.36,98.2,1.9608,395.9942],
    [1340,1537379890,53.8941,-111.0067,1318.6,700.8,357.3,2.2,-0.2,3.78,99.4,1.9623,394.7519],
    [1341,1537379891,53.8948,-111.0067,1316.6,702.9,357.3,2.3,0.1,3.33,100.02,1.9649,394.7699],
    [1342,1537379892,53.8956,-111.0067,1314.3,705.6,356.8,2.7,0.4,3.39,100.0,1.9566,393.6652],
    [1343,1537379893,53.8963,-111.0067,1311.9,705.2,357.7,1.7,0.7,3.67,99.83,1.9409,392.7632],
    [1344,1537379894,53.8971,-111.0068,1308.7,704.8,357.2,2.7,0.9,3.03,99.66,1.9333,393.8424],
    [1345,1537379895,53.8978,-111.0068,1306.0,706.1,356.9,3.1,-0.1,3.48,92.43,1.9347,394.215],
    [1346,1537379896,53.8985,-111.0068,1302.7,705.6,357.2,2.5,-1.2,3.18,84.46,1.964,393.5412],
    [1347,1537379897,53.8993,-111.0068,1299.0,708.7,358.2,1.1,-1.1,3.4,85.79,1.9699,395.1339],
    [1348,1537379898,53.9,-111.0068,1297.0,713.1,358.2,1.4,-0.9,3.91,93.26,1.9714,395.5095],
    [1349,1537379899,53.9008,-111.0069,1296.0,713.0,357.6,1.8,-0.9,2.97,99.58,1.9702,395.0745],
    [1350,1537379900,53.9016,-111.0069,1295.2,712.2,358.0,1.3,-0.4,3.6,99.66,1.9705,396.1706],
    [1351,1537379901,53.9023,-111.0069,1294.3,711.3,357.4,2.1,0.2,2.82,99.96,1.9705,395.9231],
    [1352,1537379902,53.9031,-111.0069,1292.2,708.1,358.0,1.1,0.6,3.53,99.86,1.9713,394.7655],
    [1353,1537379903,53.9038,-111.007,1289.7,705.7,357.6,1.1,1.5,3.93,99.67,1.972,395.7948],
    [1354,1537379904,53.9046,-111.007,1287.2,700.2,356.2,1.9,2.0,3.56,100.55,1.9725,396.0184],
    [1355,1537379905,53.9053,-111.0071,1284.6,691.6,355.5,2.1,1.9,3.53,100.25,1.972,395.5843],
    [1356,1537379906,53.9061,-111.0072,1282.4,684.0,354.1,3.6,0.2,3.66,100.16,1.9699,394.6863],
    [1357,1537379907,53.9068,-111.0072,1279.1,676.1,354.2,3.4,0.9,3.37,99.95,1.9698,395.4987],
    [1358,1537379908,53.9076,-111.0073,1274.9,666.7,354.3,3.4,1.0,3.44,99.7,1.966,394.1592],
    [1359,1537379909,53.9084,-111.0074,1271.3,659.4,355.0,2.8,1.1,4.12,99.47,1.9612,394.1592],
    [1360,1537379910,53.9091,-111.0074,1268.7,654.6,355.0,3.3,0.8,4.01,99.53,1.9585,393.6571],
    [1361,1537379911,53.9099,-111.0075,1266.6,651.0,355.6,2.8,0.6,3.57,100.59,1.9583,393.6571],
    [1362,1537379912,53.9107,-111.0076,1263.7,645.2,356.9,1.6,0.4,4.06,99.62,1.9599,394.4631],
    [1363,1537379913,53.9114,-111.0076,1260.8,639.6,357.0,1.8,0.8,3.65,99.69,1.9588,395.5122],
    [1364,1537379914,53.9122,-111.0076,1258.3,635.9,357.5,1.4,0.9,3.52,100.03,1.9573,393.6511],
    [1365,1537379915,53.9129,-111.0077,1255.9,630.8,357.1,2.2,1.1,3.9,100.06,1.9577,393.8276],
    [1366,1537379916,53.9137,-111.0077,1253.8,626.8,357.2,2.2,0.9,4.28,99.76,1.959,393.8989],
    [1367,1537379917,53.9145,-111.0077,1251.6,622.6,357.5,2.0,-0.3,3.42,100.07,1.9619,391.89],
    [1368,1537379918,53.9152,-111.0078,1248.8,619.0,358.4,1.0,-0.5,3.12,99.99,1.9638,393.52],
    [1369,1537379919,53.916,-111.0078,1246.5,617.3,357.7,2.1,0.0,3.66,100.29,1.9653,391.1578],
    [1370,1537379920,53.9168,-111.0078,1244.9,615.9,357.3,2.1,0.2,3.57,100.45,1.9655,393.0167],
    [1371,1537379921,53.9175,-111.0078,1243.1,616.1,358.6,0.3,0.0,3.51,100.44,1.9641,394.1561],
    [1372,1537379922,53.9183,-111.0078,1240.9,614.9,358.5,0.7,-0.4,3.42,100.01,1.9595,394.8505],
    [1373,1537379923,53.9191,-111.0079,1238.0,614.4,358.3,0.9,-0.6,4.43,99.73,1.9648,392.6686],
    [1374,1537379924,53.9198,-111.0079,1234.5,612.7,358.7,0.5,0.0,3.73,99.81,1.956,393.7973],
    [1375,1537379925,53.9206,-111.0079,1231.6,612.7,357.5,1.8,0.0,3.87,100.07,1.9559,392.4905],
    [1376,1537379926,53.9214,-111.008,1229.5,611.5,358.1,0.9,0.0,3.26,99.88,1.9536,394.0974],
    [1377,1537379927,53.9222,-111.008,1227.5,608.5,357.5,1.6,0.0,3.5,100.18,1.9664,394.5567],
    [1378,1537379928,53.9229,-111.008,1225.7,603.7,357.3,1.7,0.4,3.89,99.95,1.9674,394.0109],
    [1379,1537379929,53.9237,-111.008,1224.0,598.0,358.1,0.9,0.4,4.12,100.12,1.9665,394.5011],
    [1380,1537379930,53.9245,-111.0081,1221.1,591.1,357.4,1.8,0.5,4.45,99.67,1.9642,394.2063],
    [1381,1537379931,53.9252,-111.0081,1218.0,585.4,357.4,2.0,0.2,4.0,100.2,1.963,393.217],
    [1382,1537379932,53.926,-111.0081,1215.2,578.8,357.4,2.0,1.9,4.11,100.17,1.9623,392.8808],
    [1383,1537379933,53.9268,-111.0082,1212.4,572.9,358.0,1.4,1.3,4.11,100.63,1.9587,393.8948],
    [1384,1537379934,53.9275,-111.0082,1209.6,568.7,357.7,1.7,1.2,4.1,99.75,1.9568,393.5729],
    [1385,1537379935,53.9283,-111.0082,1207.1,565.1,357.4,2.2,0.7,4.31,99.55,1.956,393.23],
    [1386,1537379936,53.9291,-111.0082,1204.8,561.7,357.2,2.3,0.9,4.27,99.89,1.9567,393.2504],
    [1387,1537379937,53.9299,-111.0083,1202.6,559.3,357.2,2.4,0.6,3.96,100.08,1.9583,393.1085],
    [1388,1537379938,53.9306,-111.0083,1200.1,558.0,357.2,2.4,0.2,3.72,100.05,1.959,393.7763],
    [1389,1537379939,53.9314,-111.0083,1197.6,556.8,357.3,2.2,0.6,4.01,99.08,1.9606,393.7763],
    [1390,1537379940,53.9322,-111.0084,1195.3,555.3,357.6,2.0,0.2,3.65,99.37,1.9543,391.7606],
    [1391,1537379941,53.933,-111.0084,1193.0,554.0,357.7,1.8,-0.3,3.8,99.12,1.9551,393.6763],
    [1392,1537379942,53.9337,-111.0084,1190.5,550.5,357.7,1.8,-0.5,4.31,97.53,1.9565,392.4333],
    [1393,1537379943,53.9345,-111.0084,1188.1,547.1,358.2,1.0,0.1,4.17,95.89,1.9586,392.9028],
    [1394,1537379944,53.9353,-111.0085,1186.7,545.0,357.5,2.2,0.1,4.4,94.32,1.9678,393.8758],
    [1395,1537379945,53.9361,-111.0085,1185.2,544.2,357.4,2.0,-0.2,4.32,99.61,1.9672,394.2281],
    [1396,1537379946,53.9368,-111.0085,1182.6,543.4,358.2,1.3,0.8,4.24,100.3,1.9676,393.8905],
    [1397,1537379947,53.9376,-111.0085,1179.8,541.8,357.9,1.6,1.5,3.89,100.37,1.9692,395.0846],
    [1398,1537379948,53.9384,-111.0085,1177.1,539.1,359.1,0.1,2.1,4.45,100.39,1.9693,393.357],
    [1399,1537379949,53.9392,-111.0086,1172.8,533.1,358.0,1.5,2.0,4.2,99.96,1.9689,395.0157],
    [1400,1537379950,53.9399,-111.0086,1168.3,527.2,357.6,1.6,1.8,4.45,100.44,1.9669,394.3325],
    [1401,1537379951,53.9407,-111.0086,1164.4,522.1,356.8,2.4,2.1,4.0,99.92,1.9679,393.5865],
    [1402,1537379952,53.9415,-111.0087,1162.2,518.3,356.6,2.0,1.4,5.2,99.82,1.9651,394.2053],
    [1403,1537379953,53.9423,-111.0087,1160.0,513.9,357.0,1.6,1.4,4.01,99.96,1.9611,393.7833],
    [1404,1537379954,53.9431,-111.0088,1157.6,510.3,357.1,1.6,1.0,4.55,99.91,1.9602,391.8434],
    [1405,1537379955,53.9439,-111.0088,1154.8,505.8,356.8,2.2,1.5,5.24,99.8,1.9589,393.8221],
    [1406,1537379956,53.9446,-111.0088,1151.9,499.9,357.1,1.7,1.8,5.25,99.76,1.9579,393.8221],
    [1407,1537379957,53.9454,-111.0089,1149.7,495.7,357.2,1.7,1.5,4.77,99.1,1.9564,392.4124],
    [1408,1537379958,53.9462,-111.0089,1147.9,493.2,357.1,1.9,1.0,4.88,96.95,1.9556,393.6427],
    [1409,1537379959,53.947,-111.0089,1146.0,490.1,357.3,1.7,0.9,5.07,94.39,1.9518,392.3735],
    [1410,1537379960,53.9478,-111.009,1144.0,486.2,357.5,1.4,0.8,4.9,91.22,1.9461,392.4618],
    [1411,1537379961,53.9486,-111.009,1141.2,481.3,357.4,1.7,0.7,4.44,86.03,1.9517,393.5167],
    [1412,1537379962,53.9493,-111.009,1137.7,476.7,356.7,3.0,-0.3,4.25,81.58,1.9642,394.6882],
    [1413,1537379963,53.9501,-111.0091,1135.2,474.2,356.8,2.7,-0.3,4.82,82.19,1.9665,392.3404],
    [1414,1537379964,53.9509,-111.0091,1134.0,473.0,356.3,3.5,0.0,4.8,87.31,1.9665,393.5063],
    [1415,1537379965,53.9517,-111.0091,1132.8,471.0,356.5,3.0,0.8,5.02,97.13,1.9653,394.4881],
    [1416,1537379966,53.9524,-111.0092,1130.8,468.8,357.7,1.3,0.5,4.92,99.82,1.9665,393.5287],
    [1417,1537379967,53.9532,-111.0092,1128.9,465.9,358.4,0.7,0.4,4.87,100.04,1.9656,393.5287],
    [1418,1537379968,53.954,-111.0092,1127.0,464.0,358.2,0.9,1.0,5.37,99.91,1.9632,393.399],
    [1419,1537379969,53.9548,-111.0093,1124.0,460.9,358.4,1.0,1.4,4.78,100.02,1.9594,393.2347],
    [1420,1537379970,53.9556,-111.0093,1120.2,455.9,357.2,2.9,2.0,4.89,100.24,1.9548,392.2279],
    [1421,1537379971,53.9563,-111.0093,1116.1,450.0,357.8,2.3,2.2,4.82,99.41,1.9468,392.1793],
    [1422,1537379972,53.9571,-111.0093,1112.3,445.3,357.9,2.4,1.8,4.6,94.95,1.9471,392.491],
    [1423,1537379973,53.9579,-111.0093,1109.2,440.9,357.6,2.7,1.8,4.78,88.09,1.9479,392.515],
    [1424,1537379974,53.9587,-111.0093,1107.0,436.7,357.6,2.5,1.5,4.92,80.67,1.9474,393.6477],
    [1425,1537379975,53.9595,-111.0093,1104.8,431.9,357.9,2.2,1.6,5.62,77.68,1.9483,393.5419],
    [1426,1537379976,53.9603,-111.0094,1102.2,426.1,357.7,2.3,1.9,5.1,76.12,1.9453,392.0877],
    [1427,1537379977,53.961,-111.0094,1099.6,422.5,357.7,2.2,2.0,5.17,73.68,1.9468,392.8379],
    [1428,1537379978,53.9618,-111.0094,1096.6,418.6,358.1,1.4,1.4,5.7,71.99,1.9517,393.4776],
    [1429,1537379979,53.9626,-111.0094,1094.3,416.3,357.7,2.2,0.9,5.53,72.32,1.9559,393.5724],
    [1430,1537379980,53.9634,-111.0094,1092.9,414.9,356.9,2.8,1.1,4.86,75.52,1.9555,392.101],
    [1431,1537379981,53.9642,-111.0095,1091.1,412.1,358.3,1.0,1.6,4.55,79.29,1.9547,394.1535],
    [1432,1537379982,53.965,-111.0095,1088.6,409.9,357.8,1.6,2.6,5.75,81.11,1.9568,391.8],
    [1433,1537379983,53.9657,-111.0095,1085.9,406.8,357.9,1.8,2.3,5.23,82.59,1.9584,392.3881],
    [1434,1537379984,53.9665,-111.0095,1083.0,402.9,357.6,2.1,2.0,5.48,84.57,1.9596,392.7766],
    [1435,1537379985,53.9673,-111.0096,1080.0,398.0,357.7,2.1,2.0,5.22,86.15,1.9571,392.7766],
    [1436,1537379986,53.9681,-111.0096,1077.6,393.6,356.8,3.1,1.3,5.23,85.88,1.9547,392.4714],
    [1437,1537379987,53.9689,-111.0096,1075.4,390.4,357.6,2.0,1.6,5.5,84.76,1.9599,394.1617],
    [1438,1537379988,53.9697,-111.0096,1073.8,388.8,357.1,2.7,2.3,5.4,84.93,1.9612,393.7318],
    [1439,1537379989,53.9705,-111.0097,1072.5,387.5,357.4,1.7,1.7,5.32,85.37,1.9605,394.1263],
    [1440,1537379990,53.9712,-111.0097,1069.8,383.8,357.3,1.9,1.7,5.06,88.69,1.9614,393.1574],
    [1441,1537379991,53.972,-111.0097,1066.7,379.7,356.9,2.3,2.3,6.18,89.59,1.961,394.9403],
    [1442,1537379992,53.9728,-111.0098,1064.0,376.3,357.2,1.8,2.4,5.03,91.02,1.9595,393.7508],
    [1443,1537379993,53.9736,-111.0098,1060.5,372.0,356.9,2.6,1.9,5.94,90.45,1.9463,393.5742],
    [1444,1537379994,53.9744,-111.0098,1057.5,368.7,357.1,2.3,0.9,5.55,85.14,1.9331,392.2748],
    [1445,1537379995,53.9752,-111.0099,1055.0,365.1,357.7,1.7,1.4,5.47,75.65,1.93,391.7344],
    [1446,1537379996,53.9759,-111.0099,1052.4,361.4,357.7,1.9,1.5,5.39,68.18,1.9264,390.0863],
    [1447,1537379997,53.9768,-111.0099,1049.3,357.5,357.8,1.8,1.1,5.51,60.93,1.9329,389.8844],
    [1448,1537379998,53.9775,-111.0099,1046.8,354.8,357.5,2.3,0.9,5.43,54.11,1.9469,392.7663],
    [1449,1537379999,53.9783,-111.01,1044.6,352.6,357.3,2.6,1.1,5.37,52.31,1.9488,392.7624],
    [1450,1537380000,53.9791,-111.01,1042.2,351.3,357.0,2.9,1.5,5.64,52.62,1.95,393.2507],
    [1451,1537380001,53.9799,-111.01,1039.5,349.7,356.6,3.5,1.4,6.05,53.84,1.9574,393.7304],
    [1452,1537380002,53.9807,-111.01,1036.6,348.4,356.6,3.7,1.5,5.83,56.73,1.9624,394.7223],
    [1453,1537380003,53.9815,-111.01,1033.7,346.7,356.7,3.7,1.7,5.87,60.54,1.964,393.919],
    [1454,1537380004,53.9823,-111.0101,1030.6,343.6,357.0,3.5,1.9,5.65,66.68,1.962,393.4417],
    [1455,1537380005,53.983,-111.0101,1027.9,340.6,356.9,3.7,1.9,5.27,71.32,1.9641,394.9666],
    [1456,1537380006,53.9838,-111.0101,1025.8,338.5,357.5,2.8,2.2,6.15,73.81,1.9656,393.6959],
    [1457,1537380007,53.9846,-111.0101,1024.5,337.5,358.0,1.9,2.6,6.03,77.01,1.9653,399.034],
    [1458,1537380008,53.9854,-111.0101,1022.5,336.5,357.9,2.2,3.2,5.84,78.54,1.9628,394.3027],
    [1459,1537380009,53.9862,-111.0101,1019.1,335.1,356.6,3.9,3.4,6.25,79.21,1.9585,392.5233],
    [1460,1537380010,53.987,-111.0102,1015.4,333.4,357.0,2.6,3.7,5.77,77.78,1.9601,395.0957],
    [1461,1537380011,53.9878,-111.0102,1011.8,332.8,356.3,3.2,4.3,5.92,75.99,1.9635,394.1982],
    [1462,1537380012,53.9886,-111.0102,1008.6,330.5,356.0,3.2,3.1,6.76,74.5,1.9631,393.4585],
    [1463,1537380013,53.9894,-111.0103,1005.6,328.4,355.8,3.5,3.5,6.62,72.97,1.948,392.4543],
    [1464,1537380014,53.9901,-111.0103,1003.0,327.0,355.5,3.8,2.9,5.84,71.57,1.9507,393.4651],
    [1465,1537380015,53.9909,-111.0104,1001.0,326.0,355.8,3.6,2.8,5.33,67.67,1.9539,393.2655],
    [1466,1537380016,53.9917,-111.0104,998.6,323.6,356.1,3.5,2.3,6.0,64.96,1.959,393.3303],
    [1467,1537380017,53.9925,-111.0104,996.3,321.3,356.8,2.7,2.1,5.45,63.97,1.9609,393.9541],
    [1468,1537380018,53.9933,-111.0104,994.9,318.9,357.3,2.4,2.0,6.82,64.91,1.9602,395.0281],
    [1469,1537380019,53.9941,-111.0105,994.3,318.4,357.5,2.3,2.1,5.93,67.9,1.9616,395.0281],
    [1470,1537380020,53.9949,-111.0105,993.6,317.6,357.3,2.7,2.3,5.9,69.8,1.9595,393.5413],
    [1471,1537380021,53.9957,-111.0105,991.8,314.8,357.0,2.9,2.6,5.91,70.49,1.9583,393.3269],
    [1472,1537380022,53.9965,-111.0105,988.6,311.6,357.9,1.4,1.9,5.74,70.32,1.9565,393.0951],
    [1473,1537380023,53.9972,-111.0106,985.0,307.8,357.2,2.3,2.2,6.23,68.18,1.9483,393.5999],
    [1474,1537380024,53.998,-111.0106,981.7,304.5,356.2,3.3,2.4,6.61,64.44,1.9533,393.9734],
    [1475,1537380025,53.9988,-111.0106,979.2,302.1,356.4,3.1,2.6,6.29,62.81,1.9556,394.32],
    [1476,1537380026,53.9996,-111.0107,976.7,298.4,356.2,3.3,2.2,6.19,62.24,1.9554,394.6395],
    [1477,1537380027,54.0004,-111.0107,974.2,295.3,356.3,3.5,2.2,6.01,61.45,1.952,392.7196],
    [1478,1537380028,54.0012,-111.0107,971.7,291.0,356.2,3.8,1.6,6.41,61.42,1.9541,392.4792],
    [1479,1537380029,54.002,-111.0108,968.8,287.0,356.8,3.3,1.2,7.01,60.05,1.9613,393.8374],
    [1480,1537380030,54.0028,-111.0108,966.3,283.5,356.9,3.7,1.5,6.59,60.28,1.9616,395.2714],
    [1481,1537380031,54.0036,-111.0108,964.4,281.4,356.7,4.5,1.4,6.11,61.63,1.9615,395.8951],
    [1482,1537380032,54.0043,-111.0108,963.4,279.4,357.2,3.8,1.2,6.36,63.85,1.9637,394.2627],
    [1483,1537380033,54.0052,-111.0108,962.4,279.6,358.1,2.8,0.8,6.33,65.52,1.9627,394.2627],
    [1484,1537380034,54.0059,-111.0108,961.7,282.3,358.9,1.6,1.0,6.96,66.21,1.9649,395.3833],
    [1485,1537380035,54.0067,-111.0108,959.5,282.7,358.8,2.2,1.4,6.22,67.76,1.9645,395.3666],
    [1486,1537380036,54.0075,-111.0108,956.0,281.8,357.0,4.2,2.0,5.94,67.58,1.9624,395.7087],
    [1487,1537380037,54.0083,-111.0108,952.5,279.9,358.3,2.5,1.6,6.47,67.8,1.9646,395.3997],
    [1488,1537380038,54.0091,-111.0108,949.0,278.3,357.4,4.0,1.3,7.0,67.14,1.9624,394.5557],
    [1489,1537380039,54.0099,-111.0108,946.3,277.4,358.3,3.0,0.8,7.06,65.96,1.9609,393.4348],
    [1490,1537380040,54.0107,-111.0108,943.9,277.2,358.9,2.6,0.6,6.87,64.42,1.9593,395.3832],
    [1491,1537380041,54.0115,-111.0108,941.4,276.5,358.6,3.0,0.4,6.94,63.36,1.9621,396.1236],
    [1492,1537380042,54.0123,-111.0108,938.0,274.1,358.3,3.2,0.3,6.81,62.79,1.963,396.7886],
    [1493,1537380043,54.0131,-111.0108,935.0,272.1,357.8,3.4,0.6,6.47,62.52,1.9641,395.9183],
    [1494,1537380044,54.0139,-111.0108,932.8,270.8,358.7,1.7,0.4,6.77,63.78,1.965,395.6789],
    [1495,1537380045,54.0147,-111.0108,929.6,268.6,358.9,1.3,1.2,6.98,64.35,1.9661,396.4764],
    [1496,1537380046,54.0154,-111.0108,927.1,267.1,357.7,2.5,0.9,6.34,65.36,1.9677,395.3912],
    [1497,1537380047,54.0162,-111.0108,924.1,265.1,357.2,2.2,1.1,6.11,66.24,1.969,396.0245],
    [1498,1537380048,54.017,-111.0108,921.2,262.2,356.9,2.4,1.6,6.44,67.24,1.9697,396.7901],
    [1499,1537380049,54.0178,-111.0109,918.9,258.9,356.1,3.4,1.7,6.61,69.29,1.9714,396.9121],
    [1500,1537380050,54.0186,-111.0109,916.9,256.9,356.5,3.2,1.3,6.74,70.42,1.9721,396.846],
    [1501,1537380051,54.0194,-111.0109,915.2,255.2,356.7,3.3,1.5,6.79,71.97,1.9709,397.8631],
    [1502,1537380052,54.0201,-111.011,912.5,252.6,356.7,3.6,1.8,6.87,72.8,1.9714,397.3469],
    [1503,1537380053,54.0209,-111.011,909.5,251.3,356.5,3.7,1.6,7.41,73.41,1.9711,397.6027],
    [1504,1537380054,54.0217,-111.011,906.5,249.5,356.7,3.7,1.4,6.65,74.06,1.9716,396.3114],
    [1505,1537380055,54.0225,-111.011,903.7,246.7,356.5,3.8,2.4,6.73,74.2,1.9711,397.3884],
    [1506,1537380056,54.0233,-111.011,902.1,245.6,358.2,1.3,1.3,6.64,74.63,1.9717,397.0096],
    [1507,1537380057,54.024,-111.0111,900.9,244.9,359.1,0.4,1.5,6.9,74.79,1.9723,397.3627],
    [1508,1537380058,54.0248,-111.0111,899.2,243.3,358.1,1.9,1.4,6.81,74.91,1.9741,397.9428],
    [1509,1537380059,54.0256,-111.0111,895.8,240.8,358.0,2.4,0.4,6.85,75.75,1.9724,397.1944],
    [1510,1537380060,54.0264,-111.0111,892.3,238.3,356.6,3.9,1.2,7.22,75.73,1.9737,396.8942],
    [1511,1537380061,54.0272,-111.0111,890.7,237.7,356.8,2.9,1.8,7.04,76.18,1.9771,397.255],
    [1512,1537380062,54.0279,-111.0111,889.8,238.8,356.4,3.0,1.8,6.7,76.96,1.9751,397.3954],
    [1513,1537380063,54.0287,-111.0112,887.1,238.1,356.6,2.8,1.2,7.17,77.03,1.9744,397.1138],
    [1514,1537380064,54.0295,-111.0112,883.1,235.1,356.5,3.6,0.8,6.53,77.48,1.9735,396.9536],
    [1515,1537380065,54.0303,-111.0112,879.4,233.4,356.0,4.0,1.3,7.48,76.39,1.9722,396.6839],
    [1516,1537380066,54.0311,-111.0113,876.2,230.9,356.4,3.6,1.6,6.88,76.41,1.9727,397.7605],
    [1517,1537380067,54.0319,-111.0113,873.7,229.4,356.4,3.9,0.4,7.11,75.97,1.9749,397.2046],
    [1518,1537380068,54.0326,-111.0113,871.1,227.7,356.4,4.0,0.7,6.88,74.86,1.9725,398.204],
    [1519,1537380069,54.0334,-111.0113,868.1,225.1,357.0,3.4,1.4,7.36,73.87,1.973,397.1071],
    [1520,1537380070,54.0342,-111.0114,865.5,223.5,357.2,3.4,1.6,7.82,73.51,1.9745,396.8716],
    [1521,1537380071,54.035,-111.0114,863.1,221.1,357.7,2.7,2.1,7.38,74.19,1.977,396.7931],
    [1522,1537380072,54.0357,-111.0114,861.0,220.0,358.2,2.2,2.4,6.95,74.7,1.9759,396.6884],
    [1523,1537380073,54.0365,-111.0114,858.9,217.9,357.9,2.5,1.6,6.76,75.67,1.9759,396.9241],
    [1524,1537380074,54.0373,-111.0114,857.7,217.4,358.6,1.5,1.9,7.4,76.19,1.9769,396.9489],
    [1525,1537380075,54.0381,-111.0114,855.4,215.1,357.7,2.8,2.8,7.13,77.64,1.9757,398.5771],
    [1526,1537380076,54.0388,-111.0114,852.7,212.7,356.7,4.4,1.2,7.59,77.06,1.9744,396.5722],
    [1527,1537380077,54.0396,-111.0114,850.2,210.2,356.3,4.8,0.4,7.3,76.63,1.9777,397.6056],
    [1528,1537380078,54.0404,-111.0114,848.4,208.4,357.7,3.2,-0.4,6.95,75.98,1.9741,397.5885],
    [1529,1537380079,54.0412,-111.0114,846.7,206.6,357.7,3.9,0.4,7.45,74.75,1.9732,397.3849],
    [1530,1537380080,54.0419,-111.0114,844.0,204.0,358.8,3.3,0.6,8.22,73.92,1.9747,396.6456],
    [1531,1537380081,54.0427,-111.0114,841.4,201.4,360.5,2.6,2.2,7.52,73.74,1.9752,397.8418],
    [1532,1537380082,54.0435,-111.0113,837.9,197.9,361.1,4.3,2.8,7.63,72.8,1.9729,397.8783],
    [1533,1537380083,54.0443,-111.0112,834.3,194.3,2.8,4.7,2.4,7.51,70.93,1.973,397.5063],
    [1534,1537380084,54.045,-111.011,830.9,190.9,5.2,5.3,1.7,7.33,69.59,1.9728,395.077],
    [1535,1537380085,54.0458,-111.0108,827.7,187.7,8.5,4.8,1.0,7.49,68.01,1.9726,396.5597],
    [1536,1537380086,54.0466,-111.0105,825.1,186.1,14.0,2.9,0.5,7.77,67.07,1.9735,397.7776],
    [1537,1537380087,54.0473,-111.0101,823.3,184.3,17.4,3.6,1.8,7.92,66.45,1.9742,396.6898],
    [1538,1537380088,54.0481,-111.0096,821.6,182.6,20.6,3.3,0.5,7.65,66.7,1.9746,398.2102],
    [1539,1537380089,54.0488,-111.009,820.2,180.2,24.6,2.9,0.8,7.86,66.67,1.975,398.1376],
    [1540,1537380090,54.0495,-111.0084,820.0,180.0,28.9,1.7,1.5,8.04,66.74,1.9751,397.484],
    [1541,1537380091,54.0502,-111.0077,819.3,179.1,32.4,2.0,2.9,7.17,66.91,1.9737,396.9195],
    [1542,1537380092,54.0508,-111.007,818.8,177.8,35.0,3.1,2.6,8.25,66.6,1.974,396.1573],
    [1543,1537380093,54.0514,-111.0062,818.9,177.9,38.9,1.8,1.8,7.76,66.58,1.9728,396.8276],
    [1544,1537380094,54.052,-111.0053,820.2,178.2,41.7,3.3,1.5,7.89,66.6,1.9745,397.8176],
    [1545,1537380095,54.0526,-111.0044,820.9,178.9,44.0,3.1,1.0,7.87,65.37,1.9713,397.6276],
    [1546,1537380096,54.0531,-111.0034,820.2,177.2,48.2,2.0,1.9,8.64,64.1,1.9721,394.7362],
    [1547,1537380097,54.0536,-111.0024,820.4,177.4,51.0,2.9,1.5,8.06,63.58,1.9713,395.4016],
    [1548,1537380098,54.0541,-111.0014,822.4,179.4,53.3,2.9,0.4,8.08,62.95,1.9717,395.2984],
    [1549,1537380099,54.0545,-111.0003,825.3,182.3,56.2,3.4,1.1,7.77,63.3,1.9691,394.2479],
    [1550,1537380100,54.0549,-110.9992,827.1,184.0,57.2,3.6,-0.5,7.79,62.41,1.9642,396.3655],
    [1551,1537380101,54.0553,-110.9981,827.3,184.3,60.0,3.7,-0.2,7.67,61.21,1.9626,396.1289],
    [1552,1537380102,54.0556,-110.9969,827.1,183.2,62.7,4.3,-0.2,8.41,59.27,1.9656,395.1087],
    [1553,1537380103,54.0559,-110.9958,826.2,182.2,66.1,3.6,-0.1,7.79,57.97,1.964,397.9595],
    [1554,1537380104,54.0562,-110.9946,824.8,180.8,68.9,4.1,0.0,7.88,57.24,1.964,396.0996],
    [1555,1537380105,54.0565,-110.9933,823.3,179.3,73.2,4.4,1.2,8.27,57.25,1.9662,396.7125],
    [1556,1537380106,54.0567,-110.9921,823.0,178.0,77.1,4.4,1.6,8.28,56.87,1.9715,396.1401],
    [1557,1537380107,54.0568,-110.9908,822.6,177.6,80.7,5.3,2.3,8.33,57.75,1.9691,396.517],
    [1558,1537380108,54.0569,-110.9896,821.4,176.4,82.3,4.4,0.7,7.84,58.68,1.9685,396.7517],
    [1559,1537380109,54.057,-110.9883,820.3,175.3,85.4,4.2,0.7,7.87,59.81,1.9681,395.3331],
    [1560,1537380110,54.057,-110.987,820.4,174.4,89.4,4.2,1.6,7.55,60.0,1.9743,397.4156],
    [1561,1537380111,54.0571,-110.9857,821.7,175.7,92.4,3.3,1.7,8.21,60.49,1.9768,398.4438],
    [1562,1537380112,54.057,-110.9844,822.5,176.5,95.9,3.4,2.9,7.79,61.64,1.9752,398.4284],
    [1563,1537380113,54.057,-110.9832,822.8,176.8,99.5,4.1,3.8,7.49,62.95,1.9735,396.8151],
    [1564,1537380114,54.0568,-110.9819,822.8,175.8,103.1,3.8,4.2,8.09,63.7,1.9736,396.443],
    [1565,1537380115,54.0567,-110.9807,823.1,176.1,105.7,3.9,4.4,7.8,63.84,1.9756,397.3144],
    [1566,1537380116,54.0565,-110.9794,823.7,176.7,106.6,3.7,3.6,8.13,64.48,1.9742,397.4089],
    [1567,1537380117,54.0564,-110.9782,824.0,176.0,107.3,3.6,3.2,8.06,64.15,1.9733,397.6744],
    [1568,1537380118,54.0562,-110.977,824.1,176.1,107.9,3.5,2.9,8.15,64.63,1.9731,396.6487],
    [1569,1537380119,54.056,-110.9758,823.8,175.8,108.6,3.7,3.0,8.3,63.72,1.9727,397.0485],
    [1570,1537380120,54.0558,-110.9746,822.6,173.6,107.5,4.1,1.3,8.16,63.33,1.9713,395.7085],
    [1571,1537380121,54.0556,-110.9734,821.3,172.3,107.2,4.6,1.0,8.56,62.53,1.9689,396.4082],
    [1572,1537380122,54.0554,-110.9723,820.7,171.7,106.7,4.9,0.7,8.0,62.48,1.9689,395.2693],
    [1573,1537380123,54.0552,-110.9711,820.9,171.9,105.7,4.7,0.3,8.0,62.07,1.9693,395.8928],
    [1574,1537380124,54.055,-110.9699,821.6,172.6,105.7,4.7,0.7,8.16,62.11,1.973,396.7998],
    [1575,1537380125,54.0548,-110.9687,822.9,175.0,104.9,4.6,0.0,8.1,62.44,1.9754,396.4537],
    [1576,1537380126,54.0547,-110.9676,823.1,175.1,105.0,4.1,0.7,8.02,62.87,1.974,396.4537],
    [1577,1537380127,54.0545,-110.9663,822.9,175.9,104.5,4.1,0.1,8.08,63.4,1.9754,398.5521],
    [1578,1537380128,54.0543,-110.9652,822.1,175.1,104.3,4.1,0.0,7.57,64.4,1.9737,395.9732],
    [1579,1537380129,54.0542,-110.964,820.9,173.9,104.8,4.7,0.6,8.28,64.71,1.9734,396.1052],
    [1580,1537380130,54.054,-110.9628,819.7,172.7,103.8,5.0,-0.3,8.67,64.6,1.9715,395.8699],
    [1581,1537380131,54.0538,-110.9616,818.6,170.6,103.3,5.1,-0.7,8.24,64.17,1.9694,395.9853],
    [1582,1537380132,54.0537,-110.9605,817.0,169.0,103.5,4.2,-0.6,8.76,63.68,1.968,396.304],
    [1583,1537380133,54.0535,-110.9593,815.2,166.2,105.0,4.1,-0.1,7.68,63.11,1.9646,395.2602],
    [1584,1537380134,54.0533,-110.9582,813.5,163.5,106.9,4.2,0.1,8.14,61.6,1.96,394.917],
    [1585,1537380135,54.0531,-110.957,812.7,162.7,109.4,4.2,0.2,7.56,59.3,1.9608,395.8468],
    [1586,1537380136,54.0529,-110.9559,813.4,162.4,112.6,4.0,0.6,8.41,58.6,1.9749,396.3066],
    [1587,1537380137,54.0526,-110.9548,816.7,165.7,115.6,3.6,0.5,8.08,59.08,1.9771,397.1818],
    [1588,1537380138,54.0523,-110.9537,820.7,168.7,118.9,3.2,1.2,7.73,61.15,1.9817,397.6252],
    [1589,1537380139,54.052,-110.9527,824.3,172.3,122.1,3.5,1.1,7.99,65.64,1.9805,397.6876],
    [1590,1537380140,54.0516,-110.9517,827.1,175.0,124.7,3.6,1.2,7.89,66.83,1.9801,397.6876],
    [1591,1537380141,54.0513,-110.9507,827.9,174.9,127.3,3.0,0.8,7.69,68.39,1.9773,398.1514],
    [1592,1537380142,54.0509,-110.9499,828.7,175.7,130.5,2.8,0.6,7.48,69.61,1.9762,397.5416],
    [1593,1537380143,54.0504,-110.949,829.2,176.2,134.8,2.9,0.6,8.2,69.43,1.9789,397.0167],
    [1594,1537380144,54.0499,-110.9482,829.0,176.0,139.0,3.5,0.7,8.81,69.31,1.9792,396.8127],
    [1595,1537380145,54.0494,-110.9474,828.4,175.4,143.4,4.2,0.8,7.84,69.98,1.9784,397.0471],
    [1596,1537380146,54.0489,-110.9467,827.8,174.8,146.4,4.2,0.6,8.63,69.94,1.9782,397.0471],
    [1597,1537380147,54.0484,-110.9461,826.0,173.0,148.3,3.6,0.1,7.58,70.59,1.9851,398.3116],
    [1598,1537380148,54.0478,-110.9455,824.0,171.0,151.0,3.8,-0.5,7.82,70.96,1.9873,397.556],
    [1599,1537380149,54.0472,-110.9449,822.2,169.2,154.7,4.1,-0.9,7.99,71.37,1.9842,397.6013],
    [1600,1537380150,54.0467,-110.9444,821.0,168.0,158.1,4.7,-0.5,7.81,71.09,1.985,396.9035],
    [1601,1537380151,54.046,-110.944,820.0,167.0,160.8,5.5,0.4,7.61,71.28,1.9826,396.244],
    [1602,1537380152,54.0454,-110.9435,819.1,166.1,160.4,4.2,0.4,7.42,71.37,1.9791,397.3545],
    [1603,1537380153,54.0448,-110.9431,818.7,165.7,159.3,3.3,-0.1,7.29,71.2,1.9792,395.2776],
    [1604,1537380154,54.0442,-110.9426,819.8,167.1,159.7,4.0,0.6,7.95,70.95,1.9788,395.1738],
    [1605,1537380155,54.0436,-110.9422,822.4,170.4,158.9,3.7,0.7,7.92,72.18,1.9784,396.9478],
    [1606,1537380156,54.043,-110.9417,824.5,172.5,158.8,4.3,1.9,8.4,72.9,1.9776,395.5398],
    [1607,1537380157,54.0424,-110.9413,825.7,174.7,156.8,3.4,0.8,7.78,74.06,1.9774,395.7343],
    [1608,1537380158,54.0418,-110.9407,825.6,174.6,155.8,3.8,2.1,7.96,74.61,1.9781,396.4755],
    [1609,1537380159,54.0413,-110.9402,823.8,173.1,155.6,4.6,3.4,7.69,73.32,1.9781,397.9619],
    [1610,1537380160,54.0407,-110.9397,822.0,172.0,152.3,2.7,2.6,8.23,71.88,1.9767,397.3039],
    [1611,1537380161,54.0401,-110.9391,820.6,170.8,152.0,3.6,3.1,7.56,71.47,1.977,397.0632],
    [1612,1537380162,54.0396,-110.9385,818.4,169.4,151.1,3.3,2.4,7.66,70.63,1.9754,396.0424],
    [1613,1537380163,54.039,-110.9379,814.9,166.9,150.8,3.9,2.6,7.57,69.71,1.9746,395.4254],
    [1614,1537380164,54.0384,-110.9373,812.3,165.1,151.2,4.8,2.7,7.97,69.1,1.9741,395.3266],
    [1615,1537380165,54.0378,-110.9366,811.7,165.8,150.0,4.1,1.9,7.77,68.5,1.9742,395.8193],
    [1616,1537380166,54.0373,-110.936,811.7,166.0,150.3,4.7,2.1,7.27,67.75,1.9759,396.9033],
    [1617,1537380167,54.0367,-110.9354,811.5,166.5,149.6,3.4,1.3,8.08,67.34,1.9765,396.4515],
    [1618,1537380168,54.0361,-110.9347,810.8,166.8,150.8,2.7,1.3,7.87,66.87,1.9764,395.7656],
    [1619,1537380169,54.0356,-110.9342,809.5,166.6,154.9,3.7,1.9,8.04,67.37,1.9774,396.5343],
    [1620,1537380170,54.035,-110.9337,807.4,165.4,159.0,4.0,0.9,8.18,67.12,1.9748,396.6361],
    [1621,1537380171,54.0344,-110.9332,805.9,164.9,164.6,5.1,1.7,7.91,67.39,1.9744,395.7039],
    [1622,1537380172,54.0337,-110.9329,806.7,165.7,170.0,4.7,2.2,7.57,67.3,1.9723,395.4763],
    [1623,1537380173,54.0332,-110.9327,809.5,169.6,173.1,3.2,1.8,7.52,66.46,1.9725,395.8391],
    [1624,1537380174,54.0325,-110.9326,812.7,172.9,177.3,5.0,1.3,7.92,65.94,1.9716,396.402],
    [1625,1537380175,54.0318,-110.9325,813.9,175.1,178.4,3.7,0.9,8.02,65.44,1.9716,396.402],
    [1626,1537380176,54.0312,-110.9324,815.1,176.8,179.3,4.2,0.9,7.91,64.78,1.9709,395.0405],
    [1627,1537380177,54.0306,-110.9323,817.0,178.9,180.4,4.4,0.3,8.16,64.12,1.9718,396.2586],
    [1628,1537380178,54.0299,-110.9323,819.8,181.7,178.0,1.6,0.7,7.94,63.63,1.9718,395.1579],
    [1629,1537380179,54.0293,-110.9322,821.4,184.4,181.2,4.8,0.5,8.08,63.39,1.9696,393.9716],
    [1630,1537380180,54.0287,-110.9321,822.2,185.2,181.4,4.9,-0.6,7.87,63.0,1.968,394.387],
    [1631,1537380181,54.0281,-110.9321,822.7,186.7,179.7,3.7,-0.9,8.03,62.43,1.9676,396.2223],
    [1632,1537380182,54.0275,-110.932,823.0,187.9,178.7,3.1,-1.4,8.46,61.34,1.9696,396.1077],
    [1633,1537380183,54.0268,-110.932,823.8,189.8,177.9,2.2,-2.1,7.26,61.54,1.9696,395.799],
    [1634,1537380184,54.0262,-110.9319,823.4,190.4,178.4,3.1,-1.1,8.32,62.22,1.9716,395.2813],
    [1635,1537380185,54.0256,-110.9318,822.5,189.8,180.0,4.9,0.5,8.02,62.81,1.9705,394.8719],
    [1636,1537380186,54.025,-110.9317,821.0,189.0,179.3,3.9,0.2,7.98,63.91,1.9721,395.4933],
    [1637,1537380187,54.0244,-110.9317,819.2,188.3,178.5,3.1,0.7,8.46,63.53,1.97,393.7943],
    [1638,1537380188,54.0237,-110.9316,817.3,186.3,179.1,4.2,0.4,7.89,64.22,1.9693,393.5567],
    [1639,1537380189,54.0231,-110.9315,815.4,183.6,179.4,4.6,0.3,7.67,64.05,1.9692,395.0736],
    [1640,1537380190,54.0225,-110.9314,814.3,181.0,178.6,4.1,0.4,8.45,63.15,1.9708,395.007],
    [1641,1537380191,54.0219,-110.9313,813.9,180.6,178.7,4.3,0.4,7.96,64.25,1.9701,395.1102],
    [1642,1537380192,54.0212,-110.9312,814.1,180.1,178.6,4.1,0.6,7.55,63.38,1.9693,395.4139],
    [1643,1537380193,54.0206,-110.9312,814.7,179.7,177.9,3.4,0.0,7.79,63.02,1.9668,394.9901],
    [1644,1537380194,54.02,-110.9311,815.6,181.6,178.4,3.9,0.1,7.65,62.44,1.9672,394.9901],
    [1645,1537380195,54.0194,-110.931,815.9,182.5,179.2,4.5,-0.3,7.91,62.37,1.9679,395.1614],
    [1646,1537380196,54.0188,-110.9309,815.9,184.0,179.9,4.5,-0.3,8.59,61.75,1.9677,394.7535],
    [1647,1537380197,54.0182,-110.9308,817.3,186.3,178.9,2.7,0.1,7.98,62.05,1.9665,392.5008],
    [1648,1537380198,54.0176,-110.9308,819.3,188.0,179.3,3.0,1.3,7.93,62.45,1.9649,393.9577],
    [1649,1537380199,54.017,-110.9307,820.4,186.4,180.5,3.7,0.6,7.75,61.85,1.9617,392.4189],
    [1650,1537380200,54.0163,-110.9307,820.4,183.1,180.4,3.2,0.6,8.14,61.09,1.9606,394.38],
    [1651,1537380201,54.0157,-110.9306,819.9,181.6,180.5,3.3,0.1,8.0,60.36,1.9592,393.0999],
    [1652,1537380202,54.0152,-110.9306,819.3,180.1,180.6,3.4,0.6,7.9,60.74,1.958,393.2859],
    [1653,1537380203,54.0145,-110.9306,818.4,179.4,180.2,3.3,0.3,7.9,58.58,1.9564,392.4803],
    [1654,1537380204,54.0139,-110.9305,817.3,177.3,180.6,3.7,0.5,7.98,57.71,1.9573,393.7559],
    [1655,1537380205,54.0133,-110.9305,815.7,174.7,180.3,3.4,0.4,7.91,56.94,1.958,393.2326],
    [1656,1537380206,54.0127,-110.9304,814.6,172.5,180.5,3.8,0.8,8.53,56.61,1.9578,392.4466],
    [1657,1537380207,54.0121,-110.9304,813.8,170.8,181.2,4.6,0.8,7.39,56.7,1.9569,392.5976],
    [1658,1537380208,54.0114,-110.9303,813.2,169.5,181.7,4.8,0.9,7.91,57.04,1.9579,391.5414],
    [1659,1537380209,54.0108,-110.9303,812.9,168.4,181.1,4.0,1.2,7.43,57.8,1.9595,391.6935],
    [1660,1537380210,54.0103,-110.9302,812.5,167.4,180.2,3.0,0.6,7.75,58.1,1.9594,393.4494],
    [1661,1537380211,54.0096,-110.9302,811.3,164.4,179.5,2.5,0.2,8.0,59.06,1.9595,392.5698],
    [1662,1537380212,54.009,-110.9301,810.5,161.1,178.8,1.9,-0.4,7.78,59.0,1.9596,393.3047],
    [1663,1537380213,54.0084,-110.9301,809.4,158.2,179.2,2.5,1.1,8.26,58.83,1.957,391.9602],
    [1664,1537380214,54.0077,-110.93,808.2,156.7,180.3,3.6,1.3,7.6,58.69,1.957,392.6772],
    [1665,1537380215,54.0071,-110.93,807.4,158.4,180.5,3.5,1.5,8.05,57.73,1.9572,392.568],
    [1666,1537380216,54.0065,-110.93,806.9,157.0,180.6,3.2,0.6,8.2,56.92,1.9545,392.5746],
    [1667,1537380217,54.0058,-110.9299,805.9,153.8,179.7,2.2,0.3,8.19,56.63,1.9557,393.6627],
    [1668,1537380218,54.0052,-110.9299,804.2,146.7,180.4,3.4,0.9,8.17,55.43,1.955,392.7847],
    [1669,1537380219,54.0046,-110.9298,803.2,143.1,179.9,3.2,0.8,8.15,55.1,1.9558,392.8349],
    [1670,1537380220,54.0039,-110.9298,802.7,139.2,179.5,3.2,0.1,8.15,55.2,1.9558,392.5512],
    [1671,1537380221,54.0033,-110.9297,801.7,135.3,179.3,3.2,0.2,7.63,54.88,1.9525,392.6178],
    [1672,1537380222,54.0027,-110.9296,800.9,133.4,179.6,3.7,0.6,7.99,54.56,1.9577,394.1366],
    [1673,1537380223,54.002,-110.9296,800.8,132.2,179.7,3.7,0.2,8.13,54.39,1.9597,392.8581],
    [1674,1537380224,54.0014,-110.9295,800.6,130.5,178.9,2.7,1.7,8.15,54.68,1.96,392.8725],
    [1675,1537380225,54.0007,-110.9295,799.4,129.1,179.4,3.3,2.5,8.51,54.94,1.9602,392.799],
    [1676,1537380226,54.0001,-110.9294,797.5,127.5,180.2,3.8,1.9,7.93,56.12,1.9612,391.5708],
    [1677,1537380227,53.9994,-110.9293,796.8,126.7,179.7,3.2,1.2,8.19,56.62,1.9625,393.8399],
    [1678,1537380228,53.9988,-110.9293,796.0,126.1,179.2,2.5,1.3,7.48,56.94,1.9605,393.7125],
    [1679,1537380229,53.9981,-110.9292,795.7,125.7,178.6,2.3,0.9,8.17,57.13,1.9624,394.0965],
    [1680,1537380230,53.9974,-110.9292,794.3,124.0,179.2,3.7,1.9,8.83,57.16,1.9641,393.9202],
    [1681,1537380231,53.9968,-110.9291,792.2,121.1,179.0,3.7,1.6,8.4,57.59,1.9657,393.1729],
    [1682,1537380232,53.9961,-110.929,791.2,119.1,177.4,2.2,2.3,7.85,58.28,1.9656,393.1729],
    [1683,1537380233,53.9955,-110.9289,791.7,118.7,178.1,2.8,2.3,8.9,58.75,1.9661,394.5882],
    [1684,1537380234,53.9948,-110.9288,792.3,119.3,177.3,1.7,2.7,7.88,59.23,1.9669,394.0942],
    [1685,1537380235,53.9942,-110.9288,791.9,117.2,178.0,2.2,3.1,8.11,59.63,1.9668,394.677],
    [1686,1537380236,53.9935,-110.9287,791.5,116.5,178.8,3.0,3.4,8.15,59.4,1.9665,393.8563],
    [1687,1537380237,53.9928,-110.9286,791.1,115.1,180.0,4.2,3.2,8.01,59.68,1.9684,394.1757],
    [1688,1537380238,53.9922,-110.9286,791.0,115.3,179.9,3.7,3.2,7.96,59.81,1.9665,394.3125],
    [1689,1537380239,53.9915,-110.9285,791.8,115.8,178.9,2.7,2.7,8.58,59.38,1.9665,393.5301],
    [1690,1537380240,53.9908,-110.9284,792.9,116.0,178.6,2.5,2.6,8.27,59.88,1.9661,393.8565],
    [1691,1537380241,53.9902,-110.9284,794.1,117.1,178.4,2.4,3.2,8.27,59.42,1.9678,394.6948],
    [1692,1537380242,53.9895,-110.9283,795.6,118.6,178.6,2.4,3.2,8.15,59.65,1.9696,392.9973],
    [1693,1537380243,53.9889,-110.9282,797.7,120.7,177.9,1.3,2.6,8.26,60.06,1.9705,391.8935],
    [1694,1537380244,53.9883,-110.9282,799.3,122.3,177.4,0.9,2.2,7.95,59.88,1.9694,392.8277],
    [1695,1537380245,53.9876,-110.9281,799.6,122.6,178.7,2.8,2.5,8.64,59.76,1.967,393.2893],
    [1696,1537380246,53.9869,-110.928,799.5,122.8,178.7,2.7,2.3,7.81,59.88,1.9649,392.6872],
    [1697,1537380247,53.9863,-110.928,800.1,124.1,178.2,2.4,2.5,8.37,59.15,1.9666,392.4241],
    [1698,1537380248,53.9856,-110.9279,801.5,126.4,178.8,2.9,2.0,9.1,58.38,1.9674,393.1613],
    [1699,1537380249,53.985,-110.9278,802.9,128.9,179.0,2.9,2.0,8.24,58.92,1.9654,394.007],
    [1700,1537380250,53.9843,-110.9278,804.2,130.2,180.0,4.0,2.1,8.16,59.48,1.9659,392.6195],
    [1701,1537380251,53.9837,-110.9277,805.5,131.5,180.3,4.1,2.0,8.44,58.74,1.9682,393.673],
    [1702,1537380252,53.9831,-110.9277,807.5,134.5,179.2,2.8,2.3,7.84,59.16,1.9697,394.0842],
    [1703,1537380253,53.9824,-110.9276,809.2,137.2,179.3,3.3,2.0,8.28,59.65,1.967,392.0331],
    [1704,1537380254,53.9818,-110.9275,810.5,139.7,178.7,3.0,2.9,7.99,59.51,1.9659,393.174],
    [1705,1537380255,53.9811,-110.9274,811.4,141.1,178.5,3.4,3.4,8.08,59.66,1.9647,392.0888],
    [1706,1537380256,53.9805,-110.9274,812.3,142.3,178.1,3.0,3.1,8.4,59.6,1.9648,393.149],
    [1707,1537380257,53.9798,-110.9273,814.3,144.3,176.7,1.7,2.7,8.36,58.8,1.9638,391.0949],
    [1708,1537380258,53.9792,-110.9272,816.6,146.6,177.2,2.3,2.7,8.22,59.11,1.9639,393.3735],
    [1709,1537380259,53.9786,-110.9271,818.0,147.0,178.5,3.7,3.4,8.2,59.55,1.9639,393.6762],
    [1710,1537380260,53.9779,-110.927,818.3,147.3,179.0,3.9,2.6,7.93,59.41,1.9629,392.8461],
    [1711,1537380261,53.9773,-110.9269,817.9,146.9,178.8,3.5,2.7,8.09,59.03,1.9641,393.0063],
    [1712,1537380262,53.9766,-110.9269,817.4,145.4,178.6,3.0,2.4,8.29,59.32,1.9634,391.3561],
    [1713,1537380263,53.976,-110.9268,818.2,146.2,177.7,2.0,1.8,8.02,58.33,1.9621,393.2607],
    [1714,1537380264,53.9754,-110.9267,818.0,144.9,178.9,3.3,1.9,8.45,58.13,1.9615,393.0714],
    [1715,1537380265,53.9747,-110.9266,817.5,144.5,178.8,3.1,2.6,8.62,57.26,1.9603,392.9309],
    [1716,1537380266,53.9741,-110.9266,817.4,144.4,178.6,2.8,2.8,8.06,57.77,1.9594,392.9969],
    [1717,1537380267,53.9734,-110.9265,817.5,143.5,178.9,3.2,3.1,8.29,56.94,1.9591,393.5471],
    [1718,1537380268,53.9728,-110.9264,817.9,143.9,179.2,3.4,2.3,7.98,56.3,1.9581,393.5471],
    [1719,1537380269,53.9722,-110.9264,817.7,143.7,179.1,3.3,2.5,7.79,55.73,1.9513,391.7782],
    [1720,1537380270,53.9715,-110.9263,817.8,143.8,178.8,3.0,2.7,8.46,54.74,1.9554,393.9076],
    [1721,1537380271,53.9709,-110.9262,818.3,143.3,178.3,2.6,2.5,8.18,54.69,1.9547,392.7947],
    [1722,1537380272,53.9702,-110.9261,818.6,143.3,178.6,3.2,2.7,7.67,53.7,1.9559,391.7857],
    [1723,1537380273,53.9696,-110.9261,818.7,143.0,178.8,3.3,2.1,8.07,53.73,1.9556,392.8597],
    [1724,1537380274,53.969,-110.926,818.5,142.5,178.7,3.2,1.8,8.16,53.05,1.9537,392.318],
    [1725,1537380275,53.9683,-110.9259,818.1,142.1,178.8,3.3,1.8,8.18,53.49,1.9528,393.0552],
    [1726,1537380276,53.9677,-110.9258,818.2,142.2,178.9,3.4,1.9,8.38,52.27,1.9552,391.3947],
    [1727,1537380277,53.967,-110.9258,818.6,142.6,178.6,3.0,1.6,8.16,53.44,1.955,392.8583],
    [1728,1537380278,53.9664,-110.9257,818.6,142.6,179.1,3.6,1.9,8.15,53.02,1.9541,393.0033],
    [1729,1537380279,53.9658,-110.9256,818.6,141.7,179.1,3.5,1.8,8.44,52.4,1.9558,392.7272],
    [1730,1537380280,53.9651,-110.9256,818.6,141.6,178.9,3.3,1.5,8.44,52.42,1.9555,392.4721],
    [1731,1537380281,53.9645,-110.9255,818.4,141.4,178.9,3.3,1.5,7.94,52.52,1.9576,392.1997],
    [1732,1537380282,53.9639,-110.9254,818.5,141.5,178.6,2.9,1.7,7.67,52.6,1.9591,392.1997],
    [1733,1537380283,53.9632,-110.9253,819.0,143.0,178.3,2.7,1.6,7.98,53.81,1.9592,392.983],
    [1734,1537380284,53.9626,-110.9253,819.8,144.3,178.3,2.5,1.2,7.58,54.15,1.9531,392.1728],
    [1735,1537380285,53.9619,-110.9252,819.5,145.0,178.5,2.6,0.8,8.08,54.43,1.9524,392.1728],
    [1736,1537380286,53.9613,-110.9251,818.6,144.6,179.2,3.0,1.0,8.18,53.94,1.9559,392.5867],
    [1737,1537380287,53.9606,-110.9251,818.3,145.3,179.7,3.3,0.7,7.58,53.52,1.9575,392.7379],
    [1738,1537380288,53.96,-110.925,818.2,146.2,179.2,2.7,0.6,7.6,53.0,1.9543,393.189],
    [1739,1537380289,53.9594,-110.925,818.1,146.1,179.5,3.2,0.6,8.25,52.81,1.958,392.6637],
    [1740,1537380290,53.9587,-110.9249,817.8,145.8,179.8,3.9,1.0,8.36,53.13,1.9603,393.0915],
    [1741,1537380291,53.9581,-110.9248,818.3,145.5,179.9,4.2,0.6,7.92,54.38,1.9622,391.9884],
    [1742,1537380292,53.9574,-110.9248,819.1,146.1,180.0,4.7,0.5,7.82,54.9,1.9632,392.5064],
    [1743,1537380293,53.9568,-110.9247,820.0,147.0,179.7,4.2,-1.2,7.62,56.76,1.9629,393.4804],
    [1744,1537380294,53.9561,-110.9246,820.7,146.7,178.1,2.1,-0.1,8.09,57.54,1.9626,393.2548],
    [1745,1537380295,53.9555,-110.9246,821.0,147.0,176.6,0.6,0.4,8.16,57.94,1.9627,392.3714],
    [1746,1537380296,53.9548,-110.9245,819.8,145.8,178.1,2.6,0.5,8.42,58.65,1.9632,393.2177],
    [1747,1537380297,53.9542,-110.9244,817.5,143.5,178.9,3.0,1.3,8.31,58.23,1.9621,392.7989],
    [1748,1537380298,53.9535,-110.9243,815.7,142.1,178.7,2.2,1.6,8.09,58.61,1.9648,392.9999],
    [1749,1537380299,53.9528,-110.9243,814.6,141.6,179.2,2.2,2.0,8.1,58.76,1.9662,393.5193],
    [1750,1537380300,53.9522,-110.9242,814.9,142.9,179.3,2.1,2.3,7.94,58.85,1.9652,393.0876],
    [1751,1537380301,53.9515,-110.9242,816.3,145.3,180.2,3.0,1.8,8.13,59.74,1.9663,394.4185],
    [1752,1537380302,53.9509,-110.9242,817.7,147.0,180.2,2.9,2.0,8.26,59.61,1.966,393.1975],
    [1753,1537380303,53.9502,-110.9241,819.2,149.2,180.3,3.1,1.7,8.17,61.25,1.9665,393.4224],
    [1754,1537380304,53.9496,-110.9241,820.0,151.0,181.0,4.0,1.3,8.04,61.11,1.9659,393.7645],
    [1755,1537380305,53.9489,-110.924,819.3,151.1,180.6,3.7,1.3,8.05,60.95,1.9655,392.272],
    [1756,1537380306,53.9483,-110.924,818.9,151.9,180.1,3.6,1.2,8.07,60.79,1.9671,392.7153],
    [1757,1537380307,53.9476,-110.9239,820.4,154.5,178.3,2.0,1.0,7.92,60.83,1.9661,392.9884],
    [1758,1537380308,53.9469,-110.9239,821.5,156.6,177.8,2.3,0.5,7.85,61.44,1.9655,393.0091],
    [1759,1537380309,53.9463,-110.9238,821.2,157.2,178.0,2.8,1.7,8.83,61.38,1.9658,392.4454],
    [1760,1537380310,53.9456,-110.9237,821.1,157.0,178.1,2.9,1.4,8.23,62.48,1.9672,392.5448],
    [1761,1537380311,53.945,-110.9236,821.1,158.8,178.4,3.2,1.5,7.78,61.7,1.965,392.5448],
    [1762,1537380312,53.9443,-110.9235,820.5,158.5,179.4,3.8,1.6,8.14,61.31,1.9634,392.2546],
    [1763,1537380313,53.9436,-110.9235,820.7,158.7,179.2,3.2,2.1,8.53,60.37,1.9644,393.5183],
    [1764,1537380314,53.943,-110.9234,821.8,159.8,178.9,2.8,2.6,8.24,60.37,1.9657,393.2518],
    [1765,1537380315,53.9423,-110.9233,821.9,158.9,179.1,3.2,2.1,7.54,60.41,1.9664,393.2518],
    [1766,1537380316,53.9417,-110.9233,822.2,159.9,179.4,3.8,1.6,7.96,60.43,1.9679,393.2036],
    [1767,1537380317,53.941,-110.9232,821.8,159.9,179.0,3.0,1.1,7.61,60.37,1.9677,394.1165],
    [1768,1537380318,53.9403,-110.9231,821.5,159.2,178.6,2.4,2.2,7.89,60.77,1.9692,392.407],
    [1769,1537380319,53.9397,-110.9231,821.7,158.7,178.6,1.5,1.9,8.35,61.08,1.9709,393.2439],
    [1770,1537380320,53.939,-110.923,821.4,157.7,179.1,1.6,1.9,7.87,61.49,1.9717,392.7813],
    [1771,1537380321,53.9383,-110.923,821.3,156.3,179.5,1.7,2.2,8.15,62.28,1.9705,393.8714],
    [1772,1537380322,53.9377,-110.923,821.4,155.3,179.8,2.0,1.8,8.16,62.16,1.9698,392.7413],
    [1773,1537380323,53.937,-110.9229,821.5,154.5,179.7,1.8,1.5,8.25,62.74,1.9715,393.7122],
    [1774,1537380324,53.9363,-110.9229,820.9,153.9,179.4,1.6,1.8,8.02,62.67,1.9716,393.6995],
    [1775,1537380325,53.9356,-110.9229,820.3,152.6,179.7,2.2,1.2,8.58,62.52,1.9708,393.7008],
    [1776,1537380326,53.935,-110.9228,820.1,152.8,180.2,2.8,2.2,8.02,62.74,1.9712,394.8566],
    [1777,1537380327,53.9343,-110.9228,820.3,153.3,179.6,2.3,2.7,7.7,62.6,1.9706,395.1642],
    [1778,1537380328,53.9336,-110.9227,820.7,153.7,179.4,2.7,3.7,8.71,62.4,1.9716,393.9139],
    [1779,1537380329,53.933,-110.9227,821.3,154.3,179.4,2.8,2.4,8.37,62.43,1.9721,392.5427],
    [1780,1537380330,53.9323,-110.9226,821.5,154.6,178.7,2.5,1.4,8.39,62.45,1.9718,392.6979],
    [1781,1537380331,53.9316,-110.9225,820.4,154.4,179.5,3.4,1.5,8.22,62.49,1.9707,392.979],
    [1782,1537380332,53.9309,-110.9225,820.3,154.3,178.7,2.5,0.6,8.57,62.46,1.9706,393.0278],
    [1783,1537380333,53.9303,-110.9224,820.4,155.4,178.6,2.2,2.4,8.17,62.26,1.9712,393.5249],
    [1784,1537380334,53.9296,-110.9224,820.0,155.0,178.2,1.5,2.1,8.35,62.1,1.9702,393.7069],
    [1785,1537380335,53.9289,-110.9223,819.7,155.7,178.6,2.0,2.2,8.19,62.15,1.9702,393.9315],
    [1786,1537380336,53.9283,-110.9222,820.2,157.2,178.8,2.0,2.3,8.7,61.54,1.9693,392.3822],
    [1787,1537380337,53.9276,-110.9222,820.3,158.2,179.6,3.0,2.0,8.02,61.94,1.9694,393.3245],
    [1788,1537380338,53.9269,-110.9221,819.6,158.6,180.5,3.5,2.0,7.65,61.74,1.97,394.9037],
    [1789,1537380339,53.9262,-110.9221,819.3,159.3,180.6,3.3,1.6,8.16,61.65,1.9688,392.9283],
    [1790,1537380340,53.9256,-110.9221,819.0,158.9,180.9,3.4,0.9,8.27,61.36,1.9687,394.3809],
    [1791,1537380341,53.9249,-110.922,819.1,160.1,179.8,2.3,1.1,8.16,61.2,1.9697,393.7733],
    [1792,1537380342,53.9242,-110.922,819.1,161.2,179.9,2.8,0.7,7.92,60.91,1.9684,394.4323],
    [1793,1537380343,53.9235,-110.9219,819.4,162.4,180.5,3.5,0.7,8.06,60.92,1.9692,394.4971],
    [1794,1537380344,53.9229,-110.9219,819.7,163.7,180.4,3.7,1.3,8.26,60.95,1.9691,394.1982],
    [1795,1537380345,53.9222,-110.9218,819.6,165.6,181.2,4.9,1.3,8.91,60.77,1.9689,394.2572],
    [1796,1537380346,53.9215,-110.9218,820.0,166.8,181.0,5.2,0.7,7.64,61.26,1.968,394.3975],
    [1797,1537380347,53.9209,-110.9217,820.9,169.1,180.6,5.1,-0.6,8.3,60.98,1.967,394.2382],
    [1798,1537380348,53.9202,-110.9217,821.9,171.9,179.6,4.1,-0.2,8.19,61.32,1.967,393.0553],
    [1799,1537380349,53.9195,-110.9216,822.3,173.3,178.8,3.3,0.1,8.68,60.87,1.9673,392.9063],
    [1800,1537380350,53.9189,-110.9215,822.4,175.5,178.6,3.1,1.0,8.11,61.67,1.9672,394.0332],
    [1801,1537380351,53.9182,-110.9214,822.7,176.4,177.7,1.8,2.6,7.63,61.91,1.9686,392.8329],
    [1802,1537380352,53.9175,-110.9214,822.6,176.5,178.6,2.7,2.7,7.87,62.14,1.9679,392.9352],
    [1803,1537380353,53.9168,-110.9213,821.6,176.9,179.4,3.3,2.7,8.21,61.93,1.9671,393.8974],
    [1804,1537380354,53.9162,-110.9212,821.0,177.0,179.8,3.6,3.1,8.1,61.42,1.9666,394.5882],
    [1805,1537380355,53.9155,-110.9212,821.1,179.1,179.8,3.5,2.4,7.99,61.52,1.9658,393.9876],
    [1806,1537380356,53.9148,-110.9211,821.5,180.4,179.6,3.3,2.3,8.52,60.59,1.9645,393.6967],
    [1807,1537380357,53.9141,-110.9211,821.5,183.1,179.4,3.0,1.6,8.1,61.74,1.967,392.5807],
    [1808,1537380358,53.9135,-110.921,820.7,183.9,178.7,2.4,1.0,7.62,61.07,1.9676,393.6117],
    [1809,1537380359,53.9128,-110.9209,819.8,185.9,179.3,3.3,1.5,8.13,61.2,1.9665,393.8956],
    [1810,1537380360,53.9121,-110.9209,819.5,185.8,179.5,3.6,1.1,8.31,60.89,1.9676,393.8098],
    [1811,1537380361,53.9114,-110.9208,819.5,186.5,179.3,3.3,0.8,7.61,60.72,1.9672,393.8098],
    [1812,1537380362,53.9108,-110.9207,819.4,186.2,179.3,3.5,0.8,8.01,60.74,1.9663,393.6368],
    [1813,1537380363,53.9101,-110.9207,819.4,187.2,179.5,3.5,0.5,8.57,60.56,1.968,394.3826],
    [1814,1537380364,53.9094,-110.9206,819.8,187.8,178.6,2.6,0.5,8.65,60.72,1.9686,393.0315],
    [1815,1537380365,53.9087,-110.9205,820.3,188.3,178.3,2.3,0.7,8.16,60.62,1.9668,393.599],
    [1816,1537380366,53.9081,-110.9205,820.2,188.8,178.7,2.9,0.6,7.86,60.66,1.9678,393.5388],
    [1817,1537380367,53.9074,-110.9204,819.9,188.8,179.3,3.5,0.5,7.93,60.34,1.9676,394.371],
    [1818,1537380368,53.9067,-110.9203,819.9,189.9,179.1,3.2,0.7,7.52,60.82,1.9675,393.1222],
    [1819,1537380369,53.9061,-110.9203,820.0,191.4,179.7,3.9,0.9,8.18,60.75,1.963,394.002],
    [1820,1537380370,53.9054,-110.9202,821.5,193.5,178.7,2.7,1.4,8.47,60.75,1.963,392.2252],
    [1821,1537380371,53.9047,-110.9201,822.9,195.9,178.4,2.6,2.0,7.59,60.46,1.9645,393.7002],
    [1822,1537380372,53.9041,-110.9201,823.1,197.0,178.6,2.7,1.5,7.7,60.06,1.9627,393.3197],
    [1823,1537380373,53.9034,-110.92,823.0,198.0,178.4,2.5,1.2,8.03,59.92,1.9643,393.7591],
    [1824,1537380374,53.9028,-110.9199,822.7,198.6,178.9,2.9,1.6,8.48,59.09,1.9614,393.2804],
    [1825,1537380375,53.9021,-110.9199,822.4,199.4,178.9,2.9,1.1,8.02,58.97,1.9613,394.4111],
    [1826,1537380376,53.9014,-110.9198,821.9,199.9,179.2,3.3,1.1,8.42,57.86,1.9611,393.858],
    [1827,1537380377,53.9008,-110.9197,821.4,201.1,178.9,2.9,0.6,7.57,57.54,1.9623,393.0416],
    [1828,1537380378,53.9001,-110.9197,821.1,202.3,178.7,2.8,0.5,8.81,57.27,1.9612,393.6063],
    [1829,1537380379,53.8995,-110.9196,820.5,203.5,178.9,3.2,0.8,8.15,57.62,1.96,392.7365],
    [1830,1537380380,53.8988,-110.9195,820.5,206.5,178.9,3.1,1.1,8.52,56.63,1.9611,393.4522],
    [1831,1537380381,53.8981,-110.9195,820.9,207.8,179.0,3.2,0.9,7.55,56.75,1.9623,392.7471],
    [1832,1537380382,53.8975,-110.9194,821.2,210.4,179.2,3.4,1.2,7.52,56.77,1.9622,392.8131],
    [1833,1537380383,53.8968,-110.9193,821.3,211.3,179.1,3.3,0.6,8.01,56.98,1.9616,394.0079],
    [1834,1537380384,53.8962,-110.9193,821.3,212.6,178.9,3.0,0.1,7.61,56.72,1.9605,394.4792],
    [1835,1537380385,53.8955,-110.9192,820.9,213.9,178.8,2.9,0.1,7.81,56.77,1.9598,393.8047],
    [1836,1537380386,53.8948,-110.9191,820.4,214.8,178.9,2.8,-0.1,8.18,56.36,1.9591,393.994],
    [1837,1537380387,53.8942,-110.9191,820.3,216.1,178.7,2.5,-0.1,8.02,57.13,1.9605,393.0504],
    [1838,1537380388,53.8935,-110.919,820.4,217.6,178.7,2.5,-0.1,7.83,56.35,1.96,393.2523],
    [1839,1537380389,53.8929,-110.9189,820.5,219.5,178.4,2.1,-0.5,7.99,55.88,1.9597,393.4471],
    [1840,1537380390,53.8922,-110.9189,820.7,221.7,178.3,2.1,-0.6,8.19,55.28,1.9613,393.1171],
    [1841,1537380391,53.8916,-110.9188,820.9,222.6,178.8,2.6,-0.5,7.92,56.0,1.961,393.1744],
    [1842,1537380392,53.8909,-110.9187,821.0,223.3,178.9,2.4,0.0,7.74,56.05,1.9633,393.3365],
    [1843,1537380393,53.8902,-110.9187,822.4,227.8,178.3,1.8,0.4,7.75,56.35,1.9628,392.5001],
    [1844,1537380394,53.8896,-110.9186,823.3,231.3,179.0,2.7,0.0,7.74,57.24,1.9636,393.2662],
    [1845,1537380395,53.8889,-110.9186,824.4,235.9,178.9,2.6,0.4,7.94,58.07,1.9634,393.4065],
    [1846,1537380396,53.8882,-110.9185,825.1,241.4,178.9,2.6,0.2,7.44,58.32,1.9642,393.2045],
    [1847,1537380397,53.8876,-110.9184,824.7,240.8,179.0,2.7,0.7,7.77,58.6,1.9634,393.9497],
    [1848,1537380398,53.8869,-110.9184,823.9,236.5,179.4,3.0,0.7,8.43,58.41,1.9625,393.774],
    [1849,1537380399,53.8862,-110.9183,823.3,234.2,179.5,2.9,1.1,8.2,58.23,1.9617,393.5785],
    [1850,1537380400,53.8856,-110.9183,822.6,231.7,179.8,3.2,1.0,8.09,57.82,1.9629,394.4438],
    [1851,1537380401,53.8849,-110.9182,822.0,231.0,179.9,3.3,0.9,8.32,57.68,1.9627,392.5615],
    [1852,1537380402,53.8843,-110.9182,821.4,230.4,179.4,2.9,0.8,8.06,57.38,1.9623,392.6676],
    [1853,1537380403,53.8836,-110.9181,821.0,231.0,179.6,3.4,0.7,7.9,57.68,1.9639,393.5931],
    [1854,1537380404,53.8829,-110.9181,820.7,230.7,179.4,2.9,0.8,8.21,56.98,1.9627,393.6523],
    [1855,1537380405,53.8823,-110.918,820.6,230.6,178.1,1.6,1.2,8.26,57.28,1.9647,392.8127],
    [1856,1537380406,53.8816,-110.9179,820.4,231.4,178.1,1.7,1.3,8.3,57.02,1.9665,393.9204],
    [1857,1537380407,53.8809,-110.9179,820.5,232.5,177.8,1.5,1.2,8.33,57.48,1.9685,394.6083],
    [1858,1537380408,53.8803,-110.9178,821.0,237.6,178.1,1.9,0.6,7.7,58.19,1.9678,394.1445],
    [1859,1537380409,53.8796,-110.9177,821.1,244.4,178.8,2.5,0.3,8.2,58.27,1.9692,394.1416],
    [1860,1537380410,53.8789,-110.9177,820.4,249.8,179.0,2.7,0.1,7.86,58.67,1.9677,393.9181],
    [1861,1537380411,53.8783,-110.9176,819.8,254.6,179.3,2.8,-0.1,8.6,58.55,1.9674,393.742],
    [1862,1537380412,53.8776,-110.9176,819.8,254.7,178.3,1.6,0.4,8.27,58.61,1.9678,394.042],
    [1863,1537380413,53.8769,-110.9175,821.7,254.0,179.1,2.7,0.9,8.4,58.56,1.9668,393.3002],
    [1864,1537380414,53.8763,-110.9174,823.9,251.3,178.7,1.6,0.5,8.01,58.45,1.9665,394.4814],
    [1865,1537380415,53.8756,-110.9174,825.9,249.7,177.5,0.2,-0.1,8.2,58.37,1.9698,394.1068],
    [1866,1537380416,53.875,-110.9173,827.0,245.6,179.3,2.4,0.9,7.86,59.39,1.9679,393.365],
    [1867,1537380417,53.8743,-110.9173,826.5,243.3,180.0,2.9,0.2,8.8,58.79,1.9682,393.9816],
    [1868,1537380418,53.8736,-110.9173,824.9,240.9,179.7,2.7,0.6,7.98,59.6,1.9682,393.9805],
    [1869,1537380419,53.873,-110.9172,822.3,238.3,180.5,3.8,1.2,8.08,59.03,1.9671,392.7572],
    [1870,1537380420,53.8723,-110.9172,820.5,239.1,180.1,3.3,0.7,7.82,59.16,1.9684,394.0958],
    [1871,1537380421,53.8716,-110.9171,819.7,243.9,179.7,3.2,1.1,8.04,58.93,1.9671,394.2003],
    [1872,1537380422,53.871,-110.9171,819.4,250.7,179.5,3.0,0.1,8.08,59.42,1.9688,393.8766],
    [1873,1537380423,53.8703,-110.917,819.7,259.7,179.7,3.1,-1.4,7.94,59.55,1.968,393.2393],
    [1874,1537380424,53.8696,-110.9169,821.3,272.3,180.4,3.8,-1.1,8.38,58.91,1.9685,393.2393],
    [1875,1537380425,53.8689,-110.9169,821.6,274.1,180.3,3.7,0.1,7.93,59.22,1.9675,393.9055],
    [1876,1537380426,53.8683,-110.9168,821.2,262.6,179.6,3.6,-0.6,8.72,58.98,1.9681,394.3746],
    [1877,1537380427,53.8676,-110.9168,820.7,255.3,179.4,3.8,-0.5,8.71,58.87,1.9679,394.8309],
    [1878,1537380428,53.8669,-110.9167,820.9,257.2,178.8,3.6,-0.2,8.67,59.19,1.969,394.282],
    [1879,1537380429,53.8663,-110.9166,820.5,264.9,178.5,3.3,0.1,7.77,59.29,1.9676,394.7262],
    [1880,1537380430,53.8656,-110.9165,820.3,269.9,177.9,2.6,0.2,8.08,59.79,1.9671,393.9811],
    [1881,1537380431,53.8649,-110.9165,820.3,277.4,177.8,2.4,0.1,8.07,59.56,1.9663,392.2025],
    [1882,1537380432,53.8643,-110.9164,820.4,284.1,178.2,3.0,0.4,8.06,58.48,1.9671,394.0526],
    [1883,1537380433,53.8636,-110.9163,820.8,289.1,179.0,3.8,-0.3,7.88,58.45,1.9656,393.3088],
    [1884,1537380434,53.8629,-110.9162,821.0,292.0,179.0,3.9,-0.3,8.01,58.36,1.9657,395.14],
    [1885,1537380435,53.8623,-110.9161,821.1,293.0,179.2,4.0,0.1,7.46,58.41,1.9654,394.3468],
    [1886,1537380436,53.8616,-110.9161,820.8,294.8,179.0,3.7,0.1,8.69,58.07,1.9658,393.1794],
    [1887,1537380437,53.8609,-110.916,821.0,295.0,178.6,3.0,1.3,7.81,58.39,1.9648,394.6768],
    [1888,1537380438,53.8602,-110.9159,822.2,291.3,178.0,2.4,0.6,8.02,58.6,1.9664,393.4454],
    [1889,1537380439,53.8596,-110.9158,822.9,285.9,178.7,3.2,0.3,7.74,58.02,1.9655,393.4454],
    [1890,1537380440,53.8589,-110.9158,823.0,278.1,178.4,2.6,-0.1,7.43,58.27,1.9682,394.6812],
    [1891,1537380441,53.8582,-110.9157,822.7,266.7,178.2,2.4,0.8,7.68,58.37,1.9678,394.5822],
    [1892,1537380442,53.8576,-110.9156,822.4,259.8,178.6,2.7,1.0,7.99,58.97,1.9663,394.181],
    [1893,1537380443,53.8569,-110.9156,822.0,250.4,179.0,2.8,1.1,7.43,58.5,1.9649,395.3021],
    [1894,1537380444,53.8563,-110.9155,821.9,244.9,179.3,3.0,0.4,8.14,58.53,1.9661,394.1819],
    [1895,1537380445,53.8556,-110.9154,821.4,239.1,179.1,2.6,-0.4,7.99,58.53,1.9655,395.3319],
    [1896,1537380446,53.8549,-110.9154,820.6,231.9,178.7,2.7,0.1,7.98,59.01,1.9647,395.0314],
    [1897,1537380447,53.8543,-110.9153,819.8,228.5,178.9,3.4,0.5,7.89,58.8,1.9664,394.6584],
    [1898,1537380448,53.8536,-110.9152,820.0,225.7,177.0,1.9,1.4,8.3,58.53,1.9675,395.1361],
    [1899,1537380449,53.853,-110.9151,821.8,225.8,177.2,2.4,0.5,8.04,59.62,1.9673,395.7705],
    [1900,1537380450,53.8523,-110.915,823.9,227.9,177.1,2.6,1.0,8.55,59.17,1.9677,395.1334],
    [1901,1537380451,53.8516,-110.9149,824.4,229.0,178.9,4.9,0.7,7.67,59.72,1.9672,395.1921],
    [1902,1537380452,53.8509,-110.9148,823.6,228.0,178.7,4.5,0.1,7.71,60.07,1.9669,394.6897],
    [1903,1537380453,53.8503,-110.9147,821.8,224.4,177.7,3.6,0.6,7.58,60.0,1.9668,395.3257],
    [1904,1537380454,53.8496,-110.9146,819.9,220.9,177.0,3.2,-0.1,8.34,59.37,1.9673,395.0781],
    [1905,1537380455,53.8489,-110.9145,819.7,219.8,176.6,2.7,0.4,7.75,60.22,1.9657,394.8419],
    [1906,1537380456,53.8483,-110.9144,821.5,218.9,176.1,2.1,-0.1,8.6,59.85,1.9662,395.1085],
    [1907,1537380457,53.8476,-110.9143,822.3,217.8,176.3,2.2,0.4,7.82,60.34,1.967,395.0392],
    [1908,1537380458,53.847,-110.9142,822.7,216.7,176.9,2.2,1.0,8.26,59.83,1.968,395.0392],
    [1909,1537380459,53.8463,-110.9141,822.9,215.9,177.4,2.2,1.5,7.55,60.55,1.9674,395.6798],
    [1910,1537380460,53.8456,-110.9141,823.1,216.1,178.0,2.2,1.2,8.01,61.26,1.9665,395.5578],
    [1911,1537380461,53.845,-110.914,823.0,216.1,178.1,1.9,1.0,7.95,60.43,1.9676,394.1796],
    [1912,1537380462,53.8443,-110.9139,822.7,214.6,178.6,2.2,1.0,7.93,60.47,1.9687,394.6497],
    [1913,1537380463,53.8436,-110.9139,821.9,213.9,179.1,2.6,1.3,8.21,60.28,1.9675,394.8156],
    [1914,1537380464,53.843,-110.9138,821.5,213.5,179.0,2.3,1.1,7.95,60.41,1.967,395.2401],
    [1915,1537380465,53.8423,-110.9138,821.5,213.5,179.1,2.4,1.2,8.16,60.66,1.9677,394.9704],
    [1916,1537380466,53.8417,-110.9137,822.4,214.4,179.5,3.0,2.2,8.06,60.53,1.9648,395.103],
    [1917,1537380467,53.841,-110.9136,824.0,216.3,179.7,3.3,2.5,8.39,60.17,1.9637,394.3546],
    [1918,1537380468,53.8403,-110.9136,824.7,217.7,180.0,3.7,1.2,8.37,59.82,1.9621,395.4993],
    [1919,1537380469,53.8397,-110.9135,823.9,218.9,178.8,2.3,0.6,7.86,60.56,1.963,395.0551],
    [1920,1537380470,53.839,-110.9135,823.1,219.0,179.2,2.5,0.4,7.93,60.05,1.9632,394.8055],
    [1921,1537380471,53.8383,-110.9134,822.3,219.4,180.8,3.6,0.1,8.39,58.85,1.9621,393.692],
    [1922,1537380472,53.8377,-110.9134,821.4,219.4,180.7,2.9,0.3,7.88,58.91,1.9611,393.4342],
    [1923,1537380473,53.837,-110.9134,821.0,219.0,181.5,4.0,0.8,7.73,59.14,1.9623,393.116],
    [1924,1537380474,53.8364,-110.9133,820.5,217.5,182.2,4.7,1.0,7.27,58.31,1.9612,393.7453],
    [1925,1537380475,53.8357,-110.9133,820.3,216.3,181.0,3.8,1.1,7.78,58.11,1.96,393.7646],
    [1926,1537380476,53.835,-110.9133,821.4,217.1,180.4,3.6,2.0,7.96,58.48,1.9606,394.4244],
    [1927,1537380477,53.8344,-110.9132,823.0,216.5,179.2,2.6,2.1,8.66,57.41,1.9605,392.749],
    [1928,1537380478,53.8337,-110.9131,823.7,215.7,179.2,3.0,2.3,7.89,57.41,1.9578,393.3108],
    [1929,1537380479,53.833,-110.9131,823.7,211.4,178.6,2.7,2.7,7.93,57.64,1.9585,394.0779],
    [1930,1537380480,53.8324,-110.913,823.5,208.8,179.2,3.9,2.3,8.07,56.67,1.9583,394.1956],
    [1931,1537380481,53.8317,-110.9129,823.2,205.8,178.8,3.6,2.3,7.98,57.22,1.9571,393.5663],
    [1932,1537380482,53.831,-110.9129,822.9,202.5,179.0,4.0,2.0,7.84,56.55,1.9594,394.9143],
    [1933,1537380483,53.8304,-110.9128,822.6,200.6,179.5,4.4,1.6,7.31,56.16,1.9592,395.1686],
    [1934,1537380484,53.8297,-110.9127,822.5,198.8,179.2,4.0,1.2,7.85,56.38,1.9595,393.9864],
    [1935,1537380485,53.829,-110.9126,821.6,196.7,179.3,4.2,0.8,7.98,56.57,1.9581,394.0422],
    [1936,1537380486,53.8284,-110.9125,820.3,194.3,178.8,3.8,0.1,7.49,56.06,1.9584,395.6138],
    [1937,1537380487,53.8277,-110.9125,819.4,192.1,178.5,3.7,0.6,7.7,56.05,1.9576,393.4588],
    [1938,1537380488,53.8271,-110.9124,819.6,191.0,178.3,3.7,0.8,7.95,56.58,1.9576,394.1892],
    [1939,1537380489,53.8264,-110.9123,820.2,189.2,177.8,2.9,1.2,7.89,56.16,1.9584,393.7415],
    [1940,1537380490,53.8257,-110.9122,820.8,188.1,177.5,2.9,1.6,7.5,56.07,1.9582,395.0332],
    [1941,1537380491,53.825,-110.9121,821.4,187.3,178.4,3.4,0.7,7.78,56.38,1.957,394.5407],
    [1942,1537380492,53.8244,-110.912,822.4,187.1,177.3,1.8,0.6,7.79,55.92,1.9572,393.2833],
    [1943,1537380493,53.8237,-110.9119,822.9,186.9,178.5,3.2,0.7,7.87,56.22,1.9575,393.3641],
    [1944,1537380494,53.823,-110.9119,822.8,185.1,178.8,3.4,0.1,7.99,55.62,1.9569,395.0303],
    [1945,1537380495,53.8224,-110.9118,821.1,182.4,179.1,3.5,0.0,7.9,55.62,1.9589,395.0303],
    [1946,1537380496,53.8217,-110.9117,820.1,179.7,179.5,3.8,0.2,8.11,55.1,1.9582,393.5429],
    [1947,1537380497,53.821,-110.9117,819.9,176.7,180.1,4.1,0.0,7.45,55.37,1.958,394.6055],
    [1948,1537380498,53.8204,-110.9116,819.6,174.6,180.0,3.9,-0.1,7.62,55.47,1.9582,394.6155],
    [1949,1537380499,53.8197,-110.9115,820.1,171.1,179.5,3.4,0.9,8.23,54.85,1.9618,393.7609],
    [1950,1537380500,53.819,-110.9115,820.7,170.1,179.4,3.6,1.8,8.02,55.4,1.9636,393.7609],
    [1951,1537380501,53.8183,-110.9114,820.5,168.2,180.0,4.2,1.7,7.87,55.2,1.9629,394.3023],
    [1952,1537380502,53.8176,-110.9113,820.1,166.1,179.6,3.8,1.2,7.42,54.73,1.9595,393.6455],
    [1953,1537380503,53.817,-110.9113,820.3,165.3,179.3,3.5,1.1,7.78,54.22,1.958,394.1349],
    [1954,1537380504,53.8163,-110.9112,820.6,165.6,178.9,3.0,0.7,8.16,53.43,1.9607,393.4801],
    [1955,1537380505,53.8156,-110.9111,821.2,165.3,178.6,2.7,1.2,7.41,53.26,1.9616,394.0575],
    [1956,1537380506,53.815,-110.9111,821.9,163.0,178.5,2.5,0.6,7.89,53.11,1.9621,394.5419],
    [1957,1537380507,53.8143,-110.911,821.8,161.8,178.0,2.1,-0.7,7.96,53.29,1.9634,393.1419],
    [1958,1537380508,53.8136,-110.9109,822.7,161.7,178.3,3.1,-0.8,8.15,53.77,1.9639,393.2428],
    [1959,1537380509,53.8129,-110.9108,823.6,160.6,178.0,3.1,-0.6,7.39,54.4,1.9639,394.0122],
    [1960,1537380510,53.8123,-110.9108,822.7,159.8,177.7,2.7,0.0,8.21,54.69,1.9634,394.4067],
    [1961,1537380511,53.8116,-110.9107,821.2,157.8,177.8,2.5,0.8,7.92,54.84,1.9666,394.0151],
    [1962,1537380512,53.8109,-110.9106,820.4,158.6,178.0,2.6,1.0,7.63,55.15,1.9682,393.9714],
    [1963,1537380513,53.8102,-110.9105,819.6,159.9,179.2,3.8,2.1,8.28,55.01,1.9682,395.5879],
    [1964,1537380514,53.8096,-110.9104,819.0,163.0,179.5,3.6,1.1,8.76,55.01,1.9677,394.376],
    [1965,1537380515,53.8089,-110.9104,818.7,168.7,178.6,2.5,0.6,8.17,55.48,1.9692,394.7766],
    [1966,1537380516,53.8082,-110.9103,818.7,172.0,178.9,2.7,0.3,8.72,55.31,1.9656,394.7766],
    [1967,1537380517,53.8075,-110.9103,819.2,174.1,178.5,2.2,0.0,8.02,56.44,1.9682,395.2439],
    [1968,1537380518,53.8069,-110.9102,819.7,179.7,178.8,2.5,-0.3,7.72,56.71,1.9683,395.077],
    [1969,1537380519,53.8062,-110.9101,819.6,182.4,179.9,4.0,-0.3,7.96,56.56,1.9676,393.8906],
    [1970,1537380520,53.8055,-110.9101,820.3,183.9,180.5,4.7,0.4,7.84,57.0,1.9678,393.1931],
    [1971,1537380521,53.8048,-110.91,821.0,184.6,180.3,4.5,0.1,7.94,57.23,1.9676,393.8081],
    [1972,1537380522,53.8042,-110.9099,821.4,184.6,179.6,3.5,0.1,7.95,57.3,1.9743,394.7964],
    [1973,1537380523,53.8035,-110.9099,823.1,188.7,177.5,1.6,-0.4,8.44,56.94,1.9782,394.186],
    [1974,1537380524,53.8028,-110.9098,824.3,192.3,177.9,2.3,0.1,7.95,58.06,1.9838,395.0946],
    [1975,1537380525,53.8021,-110.9097,824.8,197.1,178.0,2.2,1.0,8.05,57.95,1.9803,395.0946],
    [1976,1537380526,53.8015,-110.9097,824.6,198.6,178.1,2.1,1.1,8.02,58.27,1.9736,395.2398],
    [1977,1537380527,53.8008,-110.9096,824.6,200.5,178.5,2.7,0.6,8.0,58.32,1.97,393.5475],
    [1978,1537380528,53.8001,-110.9095,824.1,201.4,179.4,3.7,-0.1,8.01,57.9,1.9814,394.6349],
    [1979,1537380529,53.7994,-110.9094,823.6,202.8,181.0,5.4,0.5,8.04,58.13,2.008,393.0695],
    [1980,1537380530,53.7987,-110.9094,823.7,205.4,181.5,5.8,0.5,8.04,57.87,2.0936,394.1568],
    [1981,1537380531,53.7981,-110.9093,822.6,207.3,181.8,6.0,0.1,7.77,57.61,2.0076,394.4559],
    [1982,1537380532,53.7974,-110.9093,820.9,205.9,180.4,4.5,1.2,7.99,57.44,1.9713,394.4319],
    [1983,1537380533,53.7967,-110.9092,819.7,204.5,179.8,4.3,1.7,8.54,56.82,1.9688,394.0583],
    [1984,1537380534,53.796,-110.9091,819.1,203.2,179.0,3.7,1.4,8.58,56.29,1.9683,394.7024],
    [1985,1537380535,53.7953,-110.9091,819.6,202.6,178.6,3.8,0.4,8.16,56.35,1.9703,394.4383],
    [1986,1537380536,53.7947,-110.909,819.9,199.8,178.8,3.9,0.0,8.28,56.26,1.9692,394.5029],
    [1987,1537380537,53.7939,-110.9089,821.7,199.0,178.0,3.2,-0.3,7.94,56.6,1.9666,394.7551],
    [1988,1537380538,53.7933,-110.9088,823.2,195.4,177.5,3.1,-0.9,7.61,56.61,1.9683,395.4698],
    [1989,1537380539,53.7926,-110.9087,823.5,194.4,178.0,3.8,-1.1,7.86,56.82,1.9678,393.6898],
    [1990,1537380540,53.7919,-110.9086,823.4,194.4,177.7,3.2,-1.5,8.03,56.97,1.9676,393.6898],
    [1991,1537380541,53.7912,-110.9085,822.9,195.5,177.2,2.7,0.1,8.04,57.45,1.9662,394.419],
    [1992,1537380542,53.7905,-110.9084,821.7,199.4,180.3,6.1,1.4,8.81,56.58,1.9653,395.0406],
    [1993,1537380543,53.7898,-110.9083,820.5,200.3,179.2,4.2,1.3,7.85,57.0,1.9649,395.4422],
    [1994,1537380544,53.7891,-110.9082,820.1,203.9,178.8,3.8,0.6,7.9,56.51,1.9653,395.4422],
    [1995,1537380545,53.7884,-110.9082,820.4,206.1,178.4,3.4,-0.1,8.01,56.19,1.9664,393.4572],
    [1996,1537380546,53.7877,-110.9081,820.7,211.7,178.1,3.3,0.2,7.49,55.53,1.967,395.4183],
    [1997,1537380547,53.7871,-110.908,820.7,215.7,178.4,3.3,-0.2,8.0,55.54,1.9659,394.9173],
    [1998,1537380548,53.7864,-110.9079,820.8,220.8,177.6,2.3,-0.8,8.08,55.72,1.9675,394.533],
    [1999,1537380549,53.7857,-110.9078,821.0,221.9,177.8,2.5,-0.2,8.38,55.03,1.9687,394.7598],
    [2000,1537380550,53.785,-110.9077,820.7,221.7,179.2,3.6,0.0,8.73,55.25,1.9659,394.2782],
    [2001,1537380551,53.7843,-110.9077,821.8,221.6,179.6,3.9,1.2,7.93,55.66,1.9661,394.9545],
    [2002,1537380552,53.7836,-110.9076,824.4,218.2,181.2,5.1,0.1,8.14,55.69,1.9657,394.7245],
    [2003,1537380553,53.7829,-110.9076,825.7,215.1,178.6,1.6,0.8,7.72,55.75,1.965,395.1954],
    [2004,1537380554,53.7822,-110.9075,826.7,211.4,178.4,2.3,1.0,8.06,55.72,1.9651,395.6094],
    [2005,1537380555,53.7815,-110.9074,827.5,208.8,179.2,3.9,-0.6,7.78,56.05,1.9665,394.6472],
    [2006,1537380556,53.7808,-110.9073,827.4,205.9,179.4,4.4,-1.2,8.18,55.27,1.9665,394.2438],
    [2007,1537380557,53.7801,-110.9073,826.5,204.3,179.5,4.8,-0.5,8.39,55.71,1.9651,394.3747],
    [2008,1537380558,53.7794,-110.9072,824.2,202.2,180.9,6.3,0.4,8.85,54.67,1.9614,394.2993],
    [2009,1537380559,53.7788,-110.9071,821.7,200.7,179.3,4.6,-0.1,8.84,54.25,1.9621,393.6213],
    [2010,1537380560,53.778,-110.907,819.4,199.4,179.1,4.8,-0.4,8.0,54.59,1.9645,393.5406],
    [2011,1537380561,53.7773,-110.9069,818.5,198.6,177.9,3.7,0.4,8.17,53.9,1.9628,394.8429],
    [2012,1537380562,53.7766,-110.9068,818.5,197.6,177.2,3.1,1.6,8.24,54.26,1.9638,393.9031],
    [2013,1537380563,53.7759,-110.9067,818.0,196.0,177.2,3.0,2.2,8.13,53.69,1.9636,393.8368],
    [2014,1537380564,53.7752,-110.9066,818.1,196.0,177.6,3.1,1.8,8.16,53.04,1.9622,397.3726],
    [2015,1537380565,53.7745,-110.9065,818.9,197.9,177.8,2.9,2.1,8.28,52.79,1.9639,394.1995],
    [2016,1537380566,53.7738,-110.9064,819.5,201.6,178.4,3.4,1.6,7.51,52.59,1.9632,394.298],
    [2017,1537380567,53.7731,-110.9063,819.4,203.2,179.0,3.9,1.5,7.79,52.9,1.9635,395.1689],
    [2018,1537380568,53.7724,-110.9063,819.4,205.4,180.1,5.1,1.3,7.87,52.47,1.9635,395.0247],
    [2019,1537380569,53.7717,-110.9062,819.8,206.8,180.4,5.1,0.7,8.36,52.7,1.9641,394.985],
    [2020,1537380570,53.771,-110.9061,820.3,206.2,179.3,4.1,0.2,8.3,52.52,1.9626,394.985],
    [2021,1537380571,53.7703,-110.906,820.5,205.9,179.3,4.4,0.1,8.81,52.13,1.9608,393.8452],
    [2022,1537380572,53.7696,-110.906,819.9,200.3,179.3,4.8,0.2,8.07,52.25,1.962,393.9028],
    [2023,1537380573,53.7689,-110.9059,820.0,197.7,179.5,5.2,0.2,8.12,52.58,1.9614,395.6394],
    [2024,1537380574,53.7683,-110.9058,820.4,194.3,179.0,4.4,-0.2,7.85,51.98,1.9618,395.1186],
    [2025,1537380575,53.7675,-110.9057,820.5,191.8,178.8,4.0,0.0,8.08,51.82,1.9623,389.802],
    [2026,1537380576,53.7669,-110.9056,820.4,186.6,179.7,4.3,-0.3,8.85,51.64,1.9644,394.823],
    [2027,1537380577,53.7662,-110.9055,820.9,186.9,179.5,3.7,-0.1,7.83,52.57,1.9658,394.823],
    [2028,1537380578,53.7655,-110.9055,821.3,185.3,180.1,4.2,0.4,7.69,52.39,1.9643,394.4149],
    [2029,1537380579,53.7648,-110.9054,822.5,186.4,180.4,3.9,2.2,8.1,53.12,1.9655,394.3703],
    [2030,1537380580,53.7641,-110.9054,824.6,190.3,178.1,1.4,1.8,8.7,52.44,1.9739,395.6221],
    [2031,1537380581,53.7634,-110.9053,825.1,192.2,179.9,3.7,2.9,8.08,54.29,1.9752,395.5701],
    [2032,1537380582,53.7627,-110.9053,824.4,197.3,179.6,3.3,2.8,8.27,55.53,1.9735,394.134],
    [2033,1537380583,53.7621,-110.9052,824.1,199.7,179.1,2.9,2.4,8.3,55.92,1.9762,394.134],
    [2034,1537380584,53.7614,-110.9051,824.0,205.3,179.1,2.8,2.5,8.27,56.41,1.9786,395.5611],
    [2035,1537380585,53.7607,-110.9051,823.5,207.7,179.4,3.0,2.1,8.21,57.16,1.9806,396.5685],
    [2036,1537380586,53.76,-110.905,822.6,209.3,179.7,3.2,1.8,8.59,57.94,1.9764,395.0196],
    [2037,1537380587,53.7593,-110.905,821.3,208.3,179.8,3.1,2.5,8.24,59.39,1.9758,395.0196],
    [2038,1537380588,53.7586,-110.9049,820.3,207.3,179.6,3.0,2.0,8.03,58.78,1.9742,396.2354],
    [2039,1537380589,53.758,-110.9049,819.9,206.9,180.0,3.4,2.7,7.96,58.98,1.9832,397.727],
    [2040,1537380590,53.7573,-110.9048,820.2,208.2,179.8,3.4,2.5,8.29,58.78,1.9831,397.4213],
    [2041,1537380591,53.7566,-110.9047,820.4,208.4,180.5,4.5,1.3,8.08,60.12,1.9849,397.4656],
    [2042,1537380592,53.7559,-110.9047,820.2,208.1,180.1,4.0,1.9,8.89,60.91,1.983,397.461],
    [2043,1537380593,53.7553,-110.9046,821.0,207.9,178.7,2.7,1.8,8.06,62.4,1.9866,397.3434],
    [2044,1537380594,53.7545,-110.9046,822.5,207.4,179.3,3.8,2.8,8.48,62.26,1.9868,398.3045],
    [2045,1537380595,53.7539,-110.9045,822.9,205.0,179.3,4.0,2.7,7.79,63.58,1.9871,397.4239],
    [2046,1537380596,53.7532,-110.9044,822.6,202.6,179.4,3.9,1.6,8.07,64.32,1.9872,397.1062],
    [2047,1537380597,53.7525,-110.9043,822.3,199.7,179.0,3.5,2.5,8.54,64.24,1.9878,396.5292],
    [2048,1537380598,53.7518,-110.9043,822.7,197.7,179.3,4.1,1.9,8.19,64.79,1.9864,396.8032],
    [2049,1537380599,53.7512,-110.9042,823.4,197.1,178.8,3.7,1.5,8.26,65.19,1.987,396.239],
    [2050,1537380600,53.7505,-110.9041,822.7,196.8,179.3,4.3,1.5,8.63,65.16,1.9867,397.4482],
    [2051,1537380601,53.7498,-110.904,821.4,196.3,179.0,3.8,1.8,7.79,65.24,1.9869,397.5882],
    [2052,1537380602,53.7491,-110.9039,820.9,197.5,179.4,4.3,2.5,7.67,65.28,1.9872,396.0923],
    [2053,1537380603,53.7484,-110.9039,822.2,199.7,180.1,4.2,0.2,8.14,65.42,1.9866,397.0579],
    [2054,1537380604,53.7478,-110.9038,823.5,202.7,179.4,3.2,2.0,8.1,65.25,1.9898,397.6664],
    [2055,1537380605,53.7471,-110.9038,823.3,201.9,181.3,5.2,1.4,8.59,64.68,1.9882,397.5154],
    [2056,1537380606,53.7464,-110.9037,821.3,199.3,181.1,4.6,1.7,8.45,64.74,1.9846,397.3893],
    [2057,1537380607,53.7457,-110.9037,820.0,196.1,180.5,4.0,1.7,8.14,65.28,1.99,395.3914],
    [2058,1537380608,53.745,-110.9036,819.1,194.1,181.9,5.7,1.0,7.4,64.83,1.9939,397.8176],
    [2059,1537380609,53.7444,-110.9036,818.3,193.0,180.8,4.1,1.3,8.25,64.8,1.9941,397.8176],
    [2060,1537380610,53.7437,-110.9035,818.4,193.1,180.5,3.5,2.4,8.11,65.14,1.989,397.1318],
    [2061,1537380611,53.743,-110.9035,818.5,193.2,180.7,3.2,0.9,7.98,65.51,1.9894,397.4209],
    [2062,1537380612,53.7423,-110.9035,818.6,192.7,180.2,2.7,0.5,8.6,65.67,1.9913,396.3129],
    [2063,1537380613,53.7416,-110.9034,818.8,192.8,180.9,3.9,1.6,8.31,66.04,1.9906,398.1094],
    [2064,1537380614,53.741,-110.9034,819.6,193.6,180.6,3.9,1.5,8.03,65.79,1.9883,396.0644],
    [2065,1537380615,53.7403,-110.9033,821.2,195.2,180.3,4.0,1.9,8.07,65.96,1.9883,396.7917],
    [2066,1537380616,53.7396,-110.9033,822.3,196.3,180.7,4.8,2.0,8.82,65.75,1.9884,397.1675],
    [2067,1537380617,53.739,-110.9032,822.3,197.3,180.9,5.3,1.1,8.04,66.28,1.9863,397.6405],
    [2068,1537380618,53.7383,-110.9031,822.1,197.1,180.4,5.0,1.5,7.82,66.14,1.986,397.7579],
    [2069,1537380619,53.7376,-110.9031,822.6,197.6,179.5,4.2,0.4,8.06,66.11,1.9868,397.1069],
    [2070,1537380620,53.7369,-110.903,822.2,197.2,178.5,3.3,0.1,8.13,66.62,1.9883,397.1118],
    [2071,1537380621,53.7362,-110.9029,820.8,195.8,177.9,2.8,0.7,7.98,66.09,1.9879,397.2163],
    [2072,1537380622,53.7355,-110.9028,819.0,194.0,178.4,3.4,1.6,8.13,66.42,1.9851,397.3677],
    [2073,1537380623,53.7349,-110.9027,818.1,194.0,178.4,3.3,1.7,8.51,65.15,1.9843,397.4853],
    [2074,1537380624,53.7342,-110.9026,818.5,195.6,178.8,3.6,2.2,8.69,64.56,1.9848,397.0215],
    [2075,1537380625,53.7335,-110.9026,820.0,198.3,178.0,2.4,1.8,8.18,65.38,1.985,396.8186],
    [2076,1537380626,53.7328,-110.9025,820.3,199.3,178.0,2.6,1.5,8.47,64.55,1.9841,397.4501],
    [2077,1537380627,53.7321,-110.9024,819.9,200.9,178.3,2.9,1.0,8.16,64.46,1.9828,397.5685],
    [2078,1537380628,53.7315,-110.9023,819.8,201.8,178.4,3.2,1.2,8.6,64.37,1.9828,396.4821],
    [2079,1537380629,53.7308,-110.9022,819.6,201.6,178.0,2.7,1.4,7.96,64.33,1.982,396.6009],
    [2080,1537380630,53.7302,-110.9022,820.3,202.3,178.0,2.9,2.5,7.98,64.04,1.9845,395.6156],
    [2081,1537380631,53.7295,-110.9021,820.9,202.9,178.2,3.3,1.9,8.01,64.44,1.9834,398.0359],
    [2082,1537380632,53.7288,-110.902,820.8,202.8,178.7,3.9,1.5,7.68,64.48,1.9832,397.662],
    [2083,1537380633,53.7281,-110.9019,820.7,202.1,178.7,3.8,1.0,7.96,64.03,1.985,397.518],
    [2084,1537380634,53.7274,-110.9018,820.7,200.7,178.5,3.4,0.6,7.99,64.35,1.9836,396.0485],
    [2085,1537380635,53.7268,-110.9017,821.6,201.4,177.9,2.3,1.1,8.03,64.42,1.9847,397.8491],
    [2086,1537380636,53.7261,-110.9017,823.1,203.1,178.5,3.2,1.4,8.03,65.2,1.9832,396.9049],
    [2087,1537380637,53.7254,-110.9016,823.4,204.5,179.0,3.8,0.0,8.03,65.04,1.9825,396.7181],
    [2088,1537380638,53.7248,-110.9015,823.2,204.2,177.8,2.8,-0.1,7.73,64.63,1.9836,396.0662],
    [2089,1537380639,53.7241,-110.9014,822.7,203.7,177.2,2.6,-0.3,7.97,65.27,1.9834,398.5267],
    [2090,1537380640,53.7234,-110.9013,822.5,202.5,176.5,2.0,-0.3,8.03,64.29,1.9821,396.2427],
    [2091,1537380641,53.7228,-110.9012,821.9,201.6,177.0,2.6,0.8,7.69,64.75,1.9824,396.2541],
    [2092,1537380642,53.7221,-110.9011,821.9,199.9,178.5,3.8,0.5,8.06,63.96,1.9817,397.2154],
    [2093,1537380643,53.7214,-110.901,821.3,198.6,179.0,4.0,-0.2,7.97,63.79,1.9801,397.6724],
    [2094,1537380644,53.7207,-110.901,820.2,195.2,179.6,4.2,0.0,7.48,63.28,1.9804,397.11],
    [2095,1537380645,53.7201,-110.9009,820.1,193.9,179.6,3.8,-0.6,7.97,62.96,1.9816,397.3313],
    [2096,1537380646,53.7194,-110.9008,820.5,193.4,179.9,3.9,-0.7,8.0,62.66,1.981,397.1385],
    [2097,1537380647,53.7187,-110.9008,820.5,192.5,179.8,3.7,-0.4,7.75,62.13,1.9796,396.6934],
    [2098,1537380648,53.7181,-110.9007,820.0,191.0,179.5,3.3,-0.6,7.88,61.72,1.9772,396.3765],
    [2099,1537380649,53.7174,-110.9007,820.1,190.1,179.2,3.2,-1.0,7.79,60.83,1.9721,398.3353],
    [2100,1537380650,53.7167,-110.9006,819.9,189.1,179.1,3.1,-1.3,7.91,59.45,1.9744,396.3053],
    [2101,1537380651,53.716,-110.9005,819.4,187.1,179.2,3.0,-0.1,7.98,58.56,1.977,396.0347],
    [2102,1537380652,53.7154,-110.9005,820.3,185.3,178.7,2.2,0.7,8.41,58.62,1.9818,397.1414],
    [2103,1537380653,53.7147,-110.9004,822.0,183.0,179.3,2.9,0.4,7.87,59.35,1.9817,397.1414],
    [2104,1537380654,53.714,-110.9004,823.5,180.8,180.1,3.1,-0.8,7.87,60.6,1.9807,397.6151],
    [2105,1537380655,53.7134,-110.9003,824.3,179.9,179.7,2.5,-1.2,8.09,60.97,1.9793,397.0648],
    [2106,1537380656,53.7127,-110.9003,824.9,176.9,179.9,2.8,-1.0,8.46,61.02,1.9809,397.9752],
    [2107,1537380657,53.712,-110.9002,825.1,175.2,179.9,3.1,-0.6,8.07,61.81,1.9814,397.9751],
    [2108,1537380658,53.7114,-110.9002,823.8,171.8,181.0,4.4,0.2,7.65,61.74,1.9779,396.0907],
    [2109,1537380659,53.7107,-110.9001,822.4,170.4,180.7,3.7,-0.3,7.56,61.33,1.9777,396.3675],
    [2110,1537380660,53.71,-110.9001,821.1,169.1,180.1,3.1,0.1,7.9,60.82,1.9776,397.4175],
    [2111,1537380661,53.7093,-110.9,820.2,168.5,180.0,3.3,0.9,8.47,59.95,1.9761,396.0374],
    [2112,1537380662,53.7086,-110.9,819.9,169.9,180.4,3.9,0.8,7.84,59.8,1.9755,395.986],
    [2113,1537380663,53.7079,-110.8999,820.1,174.1,180.4,4.2,1.5,7.73,59.66,1.9764,395.8823],
    [2114,1537380664,53.7073,-110.8999,820.8,177.4,180.5,4.6,0.5,7.68,59.57,1.9766,397.1925],
    [2115,1537380665,53.7066,-110.8998,821.2,180.2,180.5,4.7,0.1,7.77,59.63,1.9776,396.5896],
    [2116,1537380666,53.7059,-110.8998,821.1,179.7,179.8,4.0,-0.1,7.7,59.81,1.9749,396.8858],
    [2117,1537380667,53.7052,-110.8997,821.0,180.0,179.4,3.9,0.0,8.38,59.2,1.9759,396.0583],
    [2118,1537380668,53.7046,-110.8996,821.0,180.0,179.5,3.9,-0.6,7.78,60.27,1.9762,396.0583],
    [2119,1537380669,53.7039,-110.8996,822.2,181.2,178.3,2.7,0.6,7.61,59.77,1.9748,397.104],
    [2120,1537380670,53.7032,-110.8995,822.8,180.5,179.4,3.6,1.2,8.55,59.08,1.9726,396.7194],
    [2121,1537380671,53.7026,-110.8994,823.4,179.0,179.1,2.4,0.7,7.76,59.58,1.9717,395.6363],
    [2122,1537380672,53.7019,-110.8994,823.6,177.6,180.6,3.8,1.0,8.15,58.63,1.9692,395.4319],
    [2123,1537380673,53.7012,-110.8993,822.7,176.7,181.7,4.6,0.9,8.22,58.08,1.9712,395.5004],
    [2124,1537380674,53.7005,-110.8993,822.0,177.0,180.5,3.3,1.6,7.85,58.2,1.9698,395.2159],
    [2125,1537380675,53.6998,-110.8992,821.9,176.9,180.7,4.3,2.2,8.0,57.89,1.9701,396.172],
    [2126,1537380676,53.6992,-110.8992,822.1,177.1,180.2,4.7,1.6,7.97,57.7,1.9718,395.137],
    [2127,1537380677,53.6986,-110.8991,822.6,176.8,180.3,5.3,0.5,8.55,57.4,1.9705,395.9694],
    [2128,1537380678,53.6978,-110.899,821.3,175.3,178.2,3.4,0.5,8.49,57.29,1.9696,395.4686],
    [2129,1537380679,53.6971,-110.8989,819.8,171.8,178.3,4.1,1.2,7.92,57.41,1.9695,395.1716],
    [2130,1537380680,53.6965,-110.8988,820.3,171.4,178.5,4.1,1.9,8.22,56.97,1.9685,395.3798],
    [2131,1537380681,53.6958,-110.8988,821.6,172.3,178.8,4.1,1.1,7.94,56.79,1.9684,395.3798],
    [2132,1537380682,53.6951,-110.8987,822.8,174.1,178.6,3.3,1.1,7.9,57.1,1.9681,394.6075],
    [2133,1537380683,53.6944,-110.8986,823.6,176.6,179.1,3.4,1.4,7.87,56.48,1.9666,396.0837],
    [2134,1537380684,53.6938,-110.8985,823.7,175.7,180.0,3.5,0.7,7.41,56.37,1.9674,396.0837],
    [2135,1537380685,53.6931,-110.8985,823.0,175.0,181.6,4.6,-0.2,7.93,56.46,1.9678,395.0373],
    [2136,1537380686,53.6924,-110.8985,822.4,175.4,183.4,5.8,-0.1,8.08,56.58,1.9696,395.0106],
    [2137,1537380687,53.6917,-110.8984,822.2,175.2,183.3,5.4,0.6,7.92,56.08,1.9668,395.1816],
    [2138,1537380688,53.691,-110.8984,821.5,172.1,183.5,5.9,0.6,8.32,56.06,1.9676,394.6593],
    [2139,1537380689,53.6904,-110.8984,821.1,170.1,183.0,5.5,-0.5,8.2,56.46,1.9685,395.7851],
    [2140,1537380690,53.6896,-110.8984,820.8,169.7,181.4,4.5,0.2,8.24,55.99,1.9668,395.0312],
    [2141,1537380691,53.689,-110.8983,820.0,171.2,181.2,4.9,0.0,7.62,55.74,1.9662,396.1813],
    [2142,1537380692,53.6883,-110.8983,819.6,172.6,179.5,3.5,0.1,7.96,55.64,1.9654,394.5857],
    [2143,1537380693,53.6876,-110.8982,820.2,173.0,178.9,3.5,0.9,8.2,55.45,1.9656,394.3858],
    [2144,1537380694,53.6869,-110.8981,820.9,166.6,179.1,3.8,0.1,8.12,55.99,1.9655,394.4419],
    [2145,1537380695,53.6862,-110.8981,821.2,160.1,179.0,3.7,0.8,7.68,55.14,1.9661,393.8288],
    [2146,1537380696,53.6855,-110.898,821.4,154.4,179.8,4.3,0.9,7.94,54.77,1.9629,394.0829],
    [2147,1537380697,53.6849,-110.8979,822.2,153.2,179.6,3.7,1.3,8.11,54.28,1.962,394.0829],
    [2148,1537380698,53.6842,-110.8979,822.9,151.9,179.7,3.8,0.4,8.19,53.99,1.9608,394.7909],
    [2149,1537380699,53.6835,-110.8978,822.7,149.6,179.7,3.6,0.2,8.47,54.15,1.9616,394.7909],
    [2150,1537380700,53.6828,-110.8977,822.6,148.6,179.4,3.6,0.9,8.13,53.92,1.9607,394.0822],
    [2151,1537380701,53.6822,-110.8977,823.3,151.2,179.1,3.5,0.6,8.1,54.54,1.9599,394.4273],
    [2152,1537380702,53.6815,-110.8976,824.1,153.9,179.6,4.3,0.7,8.05,53.83,1.9609,394.4273],
    [2153,1537380703,53.6808,-110.8975,823.9,155.3,179.8,4.2,0.1,8.78,53.47,1.959,395.287],
    [2154,1537380704,53.6801,-110.8975,823.8,157.0,179.3,3.3,-0.3,7.95,54.0,1.9588,391.3232],
    [2155,1537380705,53.6794,-110.8974,824.0,160.0,179.5,3.5,0.5,7.92,53.48,1.9587,392.2457],
    [2156,1537380706,53.6788,-110.8973,823.7,163.7,180.2,4.0,0.0,8.16,53.09,1.9596,395.572],
    [2157,1537380707,53.6781,-110.8973,822.1,163.9,180.1,3.7,0.8,8.09,53.47,1.9605,394.5015],
    [2158,1537380708,53.6774,-110.8972,821.4,164.5,180.2,3.7,0.0,7.43,52.88,1.9629,394.0107],
    [2159,1537380709,53.6767,-110.8972,821.5,164.8,180.5,4.3,-0.2,8.13,53.18,1.9642,391.5681],
    [2160,1537380710,53.676,-110.8971,821.8,166.1,181.1,4.9,-0.2,8.04,53.83,1.9645,394.3928],
    [2161,1537380711,53.6754,-110.8971,822.4,168.4,180.3,4.1,0.8,7.62,53.61,1.9704,396.2806],
    [2162,1537380712,53.6747,-110.897,822.8,171.8,180.3,4.4,1.2,8.5,54.18,1.9666,396.1502],
    [2163,1537380713,53.674,-110.8969,823.0,174.5,179.9,4.0,2.2,7.81,54.96,1.9643,394.6033],
    [2164,1537380714,53.6734,-110.8969,823.1,177.4,179.4,3.6,1.9,7.6,55.39,1.9673,396.6308],
    [2165,1537380715,53.6726,-110.8968,822.6,180.9,180.1,4.6,2.5,8.7,55.07,1.9666,393.002],
    [2166,1537380716,53.6719,-110.8967,822.3,182.5,180.0,4.5,2.0,7.86,55.3,1.9664,395.7075],
    [2167,1537380717,53.6712,-110.8967,823.0,184.0,180.6,5.1,2.5,7.97,55.03,1.9641,393.6259],
    [2168,1537380718,53.6706,-110.8966,823.4,185.3,181.0,5.7,1.7,7.71,54.7,1.9639,395.0593],
    [2169,1537380719,53.6699,-110.8965,823.0,184.1,180.6,5.3,1.3,7.92,54.8,1.9638,395.59],
    [2170,1537380720,53.6692,-110.8965,822.5,182.3,180.1,4.9,1.9,7.57,54.57,1.9605,395.5759],
    [2171,1537380721,53.6685,-110.8964,822.6,177.4,179.9,5.1,1.7,8.01,53.56,1.9595,395.2932],
    [2172,1537380722,53.6678,-110.8963,822.9,172.9,179.7,4.9,1.7,8.45,53.13,1.9599,395.0731],
    [2173,1537380723,53.6672,-110.8962,823.3,170.3,179.0,4.2,1.3,7.97,52.97,1.96,395.4465],
    [2174,1537380724,53.6665,-110.8962,822.6,169.6,179.1,4.3,1.4,8.35,52.05,1.9594,393.1229],
    [2175,1537380725,53.6658,-110.8961,821.6,169.3,178.7,3.9,0.6,7.76,52.17,1.964,394.9118],
    [2176,1537380726,53.6651,-110.896,821.3,169.6,178.5,3.6,0.4,7.99,52.11,1.965,395.2908],
    [2177,1537380727,53.6644,-110.8959,821.2,171.5,178.7,3.7,0.3,8.24,52.31,1.9646,394.8863],
    [2178,1537380728,53.6638,-110.8958,821.2,172.2,178.9,3.8,0.3,7.8,52.89,1.9646,395.2864],
    [2179,1537380729,53.6631,-110.8957,820.9,171.5,179.1,3.9,-0.1,8.79,52.77,1.9642,395.7675],
    [2180,1537380730,53.6624,-110.8957,820.6,169.7,179.7,4.6,-0.7,7.83,54.06,1.9639,394.468],
    [2181,1537380731,53.6617,-110.8956,820.7,169.0,179.2,4.1,0.1,7.73,53.72,1.9652,395.9482],
    [2182,1537380732,53.661,-110.8955,821.2,168.5,179.4,4.0,0.6,8.35,53.61,1.9643,394.601],
    [2183,1537380733,53.6603,-110.8954,822.5,172.5,178.8,2.8,-1.0,8.2,53.77,1.9651,394.5],
    [2184,1537380734,53.6597,-110.8954,823.0,181.0,179.6,3.2,-1.9,8.83,53.93,1.9645,395.4771],
    [2185,1537380735,53.659,-110.8953,822.5,184.1,180.7,3.7,-1.0,8.21,54.52,1.9635,394.4059],
    [2186,1537380736,53.6583,-110.8953,821.7,184.7,180.8,3.6,-1.4,7.28,54.62,1.9644,395.8097],
    [2187,1537380737,53.6576,-110.8953,821.5,183.7,181.0,3.6,-1.4,7.34,54.5,1.9643,394.7438],
    [2188,1537380738,53.6569,-110.8952,822.6,183.9,180.9,3.6,-1.8,8.07,54.69,1.9653,394.6289],
    [2189,1537380739,53.6562,-110.8952,823.3,184.3,181.7,4.7,-0.5,7.56,54.83,1.9648,395.249],
    [2190,1537380740,53.6555,-110.8952,823.6,184.6,181.3,4.3,-0.8,7.46,54.83,1.9651,394.6705],
    [2191,1537380741,53.6548,-110.8951,823.9,184.9,181.1,4.2,-1.4,7.84,54.64,1.9657,394.1723],
    [2192,1537380742,53.6541,-110.8951,823.5,184.4,181.5,4.6,-0.9,7.66,54.66,1.9698,395.8469],
    [2193,1537380743,53.6535,-110.895,822.8,184.5,181.1,4.2,0.5,7.96,54.51,1.9675,395.3813],
    [2194,1537380744,53.6528,-110.895,823.3,185.5,180.7,4.2,0.6,7.98,54.64,1.9708,396.806],
    [2195,1537380745,53.6521,-110.8949,824.6,186.8,180.9,4.8,0.6,8.08,54.79,1.9724,396.708],
    [2196,1537380746,53.6514,-110.8949,825.4,186.7,179.9,3.4,1.5,7.49,55.32,1.9729,394.2127],
    [2197,1537380747,53.6507,-110.8948,826.0,186.5,178.3,2.2,2.1,7.93,56.05,1.9718,397.1334],
    [2198,1537380748,53.65,-110.8948,825.4,185.4,179.6,4.2,1.9,7.86,56.03,1.9721,396.9128],
    [2199,1537380749,53.6493,-110.8947,824.3,184.3,178.9,3.3,1.6,7.72,56.24,1.9715,395.2612],
    [2200,1537380750,53.6486,-110.8946,825.0,187.4,178.1,2.7,1.9,8.69,55.71,1.9715,395.5938],
    [2201,1537380751,53.6479,-110.8945,825.9,190.9,179.3,4.4,2.4,8.7,56.31,1.9715,395.0324],
    [2202,1537380752,53.6472,-110.8944,826.5,197.5,179.4,4.4,1.9,8.41,56.57,1.9716,395.8856],
    [2203,1537380753,53.6465,-110.8944,826.9,201.6,179.1,4.1,0.8,8.85,56.33,1.9718,396.8376],
    [2204,1537380754,53.6458,-110.8943,826.7,205.5,178.3,3.0,1.1,7.86,56.97,1.9727,396.409],
    [2205,1537380755,53.6451,-110.8942,825.4,205.5,178.2,3.0,0.9,8.64,56.57,1.9712,394.3692],
    [2206,1537380756,53.6444,-110.8941,824.0,205.1,179.3,4.1,0.5,8.18,56.75,1.9709,394.3692],
    [2207,1537380757,53.6437,-110.894,823.7,203.7,178.9,3.5,1.7,7.93,57.34,1.9694,396.1516],
    [2208,1537380758,53.643,-110.894,824.1,204.2,179.6,4.1,1.8,8.1,56.55,1.9693,396.1516],
    [2209,1537380759,53.6423,-110.8939,824.7,205.5,179.5,3.6,2.0,7.61,56.54,1.969,394.5613],
    [2210,1537380760,53.6416,-110.8938,825.2,207.2,179.7,4.3,2.2,7.84,56.31,1.9712,396.3708],
    [2211,1537380761,53.6409,-110.8938,825.1,208.1,180.0,4.8,0.9,7.7,56.14,1.9708,397.0577],
    [2212,1537380762,53.6402,-110.8937,823.9,206.9,179.7,4.8,1.0,8.14,56.1,1.9687,395.5774],
    [2213,1537380763,53.6395,-110.8936,822.8,206.5,179.6,5.0,1.3,8.09,56.16,1.9667,396.8696],
    [2214,1537380764,53.6388,-110.8935,822.4,207.4,179.2,4.8,1.2,8.09,55.79,1.9658,395.8826],
    [2215,1537380765,53.6381,-110.8934,822.4,208.5,178.3,3.9,0.5,8.3,54.78,1.9629,395.4016],
    [2216,1537380766,53.6374,-110.8933,822.1,209.1,178.3,4.0,0.0,8.16,54.35,1.9594,395.0843],
    [2217,1537380767,53.6367,-110.8932,821.6,207.7,178.7,4.3,0.3,7.58,53.66,1.9607,394.7499],
    [2218,1537380768,53.636,-110.8931,821.4,207.4,178.7,4.2,-0.1,8.08,52.54,1.9618,395.4201],
    [2219,1537380769,53.6353,-110.8931,821.7,208.0,179.1,4.4,0.0,8.05,52.32,1.9617,395.075],
    [2220,1537380770,53.6346,-110.893,821.9,208.9,179.5,4.7,0.0,7.96,51.74,1.9617,394.7182],
    [2221,1537380771,53.6339,-110.8929,822.3,209.2,179.9,5.0,-0.1,7.64,51.83,1.963,395.2037],
    [2222,1537380772,53.6332,-110.8928,822.8,210.8,180.2,5.1,0.0,8.09,51.73,1.9632,395.2417],
    [2223,1537380773,53.6325,-110.8928,823.1,211.0,180.5,5.6,0.3,8.26,51.26,1.9663,395.089],
    [2224,1537380774,53.6319,-110.8927,822.9,211.9,181.2,6.2,-0.5,8.08,51.59,1.966,396.5169],
    [2225,1537380775,53.6312,-110.8926,822.6,211.5,180.1,4.8,-1.1,8.05,52.32,1.9662,396.2993],
    [2226,1537380776,53.6305,-110.8925,822.3,211.3,179.0,3.9,-0.9,7.9,52.8,1.9646,396.2538],
    [2227,1537380777,53.6298,-110.8925,821.3,209.3,179.4,4.4,-1.3,7.69,52.66,1.9652,395.6989],
    [2228,1537380778,53.6291,-110.8924,819.5,207.6,178.9,4.0,-1.3,7.72,53.02,1.9666,395.2684],
    [2229,1537380779,53.6284,-110.8923,817.1,204.1,179.2,4.3,-1.1,7.89,52.89,1.9682,396.2097],
    [2230,1537380780,53.6277,-110.8922,815.0,200.7,178.9,3.8,-1.2,7.39,53.17,1.9698,395.9678],
    [2231,1537380781,53.627,-110.8921,813.1,198.1,179.2,4.2,-0.8,8.11,54.03,1.9693,394.2704],
    [2232,1537380782,53.6263,-110.8921,811.5,194.5,179.3,3.9,0.2,7.96,53.95,1.9668,396.0005],
    [2233,1537380783,53.6257,-110.892,810.6,191.9,179.0,3.3,1.5,8.35,54.09,1.9667,396.8016],
    [2234,1537380784,53.6249,-110.8919,808.4,187.9,179.5,3.4,1.2,7.87,54.09,1.9671,396.8016],
    [2235,1537380785,53.6242,-110.8919,805.4,181.8,179.7,3.5,1.6,7.96,54.35,1.9676,396.4672],
    [2236,1537380786,53.6235,-110.8918,803.0,176.6,179.9,3.8,1.2,8.08,53.25,1.9666,397.2346],
    [2237,1537380787,53.6227,-110.8917,801.0,171.8,179.9,3.6,1.4,7.94,53.36,1.9656,396.5057],
    [2238,1537380788,53.622,-110.8917,799.6,169.6,180.1,4.0,1.2,7.99,53.19,1.9669,395.6234],
    [2239,1537380789,53.6213,-110.8916,797.6,168.7,180.4,4.2,0.8,7.75,52.95,1.9666,396.0089],
    [2240,1537380790,53.6206,-110.8916,795.5,168.2,180.1,3.8,0.9,8.13,52.48,1.968,395.3872],
    [2241,1537380791,53.6199,-110.8915,794.3,169.5,180.8,4.7,0.7,8.01,52.4,1.9703,396.6229],
    [2242,1537380792,53.6192,-110.8915,794.3,168.0,180.6,4.6,0.2,8.1,52.56,1.9665,395.8134],
    [2243,1537380793,53.6184,-110.8914,794.7,166.4,180.4,4.5,0.0,7.56,52.95,1.9666,395.8256],
    [2244,1537380794,53.6177,-110.8913,794.1,163.0,179.8,3.9,0.2,8.07,52.99,1.9685,395.8831],
    [2245,1537380795,53.617,-110.8913,794.0,163.0,180.5,4.5,-0.3,8.73,52.49,1.9722,396.2021],
    [2246,1537380796,53.6163,-110.8912,793.8,163.8,180.0,4.0,0.0,8.46,52.24,1.9739,395.3202],
    [2247,1537380797,53.6156,-110.8912,794.2,164.5,179.4,3.1,-0.2,7.46,52.59,1.9928,394.8542],
    [2248,1537380798,53.6149,-110.8911,795.6,164.3,179.1,3.1,-0.1,7.82,52.83,2.0266,394.4653],
    [2249,1537380799,53.6142,-110.891,796.6,165.9,179.2,3.4,1.0,8.13,53.55,2.0299,396.2824],
    [2250,1537380800,53.6134,-110.891,796.7,169.0,180.1,4.7,1.7,8.63,53.12,2.0092,394.8922],
    [2251,1537380801,53.6127,-110.8909,796.0,172.2,179.4,3.7,1.2,8.1,53.95,1.9794,395.9839],
    [2252,1537380802,53.612,-110.8908,795.4,172.4,178.8,3.0,1.2,8.38,53.84,1.9819,395.8256],
    [2253,1537380803,53.6113,-110.8907,795.6,171.6,178.1,2.1,0.9,8.82,53.74,1.9797,395.7357],
    [2254,1537380804,53.6106,-110.8907,795.0,168.9,179.0,3.3,1.4,8.13,53.93,1.9743,396.06],
    [2255,1537380805,53.6099,-110.8906,793.8,167.7,179.6,3.8,2.4,8.1,54.14,1.9741,395.0891],
    [2256,1537380806,53.6092,-110.8905,794.2,170.9,179.5,3.5,1.4,8.54,53.65,1.9738,395.9742],
    [2257,1537380807,53.6084,-110.8905,795.3,174.6,179.5,3.6,1.4,8.99,53.77,1.9725,395.7403],
    [2258,1537380808,53.6077,-110.8904,794.6,177.0,180.1,4.3,1.3,8.58,53.81,1.9724,396.5517],
    [2259,1537380809,53.607,-110.8904,793.9,177.9,179.4,3.4,1.1,8.03,53.78,1.972,395.8399],
    [2260,1537380810,53.6063,-110.8903,793.3,179.3,179.7,4.0,1.4,8.36,54.02,1.9706,396.1317],
    [2261,1537380811,53.6056,-110.8902,793.1,180.5,180.2,4.5,0.6,8.43,53.92,1.9727,396.0293],
    [2262,1537380812,53.6049,-110.8902,794.2,182.6,179.3,3.6,0.0,7.89,53.44,1.9726,395.2253],
    [2263,1537380813,53.6042,-110.8901,794.5,183.5,179.8,4.4,-0.1,8.39,54.03,1.9705,395.436],
    [2264,1537380814,53.6035,-110.89,793.6,182.5,179.5,4.0,0.7,8.09,53.49,1.9711,394.7449],
    [2265,1537380815,53.6028,-110.8899,792.8,181.7,179.4,3.9,0.4,7.8,53.54,1.9723,395.4075],
    [2266,1537380816,53.6021,-110.8899,793.0,181.0,179.3,3.4,0.3,8.44,53.55,1.9706,394.7693],
    [2267,1537380817,53.6014,-110.8898,792.8,181.8,179.0,2.8,2.2,8.46,54.25,1.9712,394.6748],
    [2268,1537380818,53.6006,-110.8897,793.0,183.6,178.6,1.9,1.8,7.9,53.54,1.9703,393.5517],
    [2269,1537380819,53.5999,-110.8897,793.6,187.6,179.1,2.3,0.7,8.15,53.96,1.9711,394.6155],
    [2270,1537380820,53.5993,-110.8896,793.5,187.5,179.4,2.6,0.7,8.7,53.4,1.9712,393.7484],
    [2271,1537380821,53.5985,-110.8896,793.1,187.1,179.5,2.7,0.4,8.09,53.88,1.9707,395.4041],
    [2272,1537380822,53.5978,-110.8895,793.1,186.1,179.4,2.9,0.7,8.42,53.92,1.9701,394.8681],
    [2273,1537380823,53.5971,-110.8895,793.7,184.7,180.3,3.9,1.3,8.99,53.69,1.9708,394.2269],
    [2274,1537380824,53.5965,-110.8894,793.8,183.7,180.1,3.3,1.5,8.93,53.77,1.9703,394.4134],
    [2275,1537380825,53.5958,-110.8894,794.6,184.6,179.7,2.5,2.4,8.58,53.72,1.9694,394.3692],
    [2276,1537380826,53.5951,-110.8893,795.9,185.5,178.8,1.5,0.8,8.34,54.38,1.9711,394.3649],
    [2277,1537380827,53.5944,-110.8893,796.1,185.7,179.0,2.0,1.0,8.32,54.05,1.9717,394.7823],
    [2278,1537380828,53.5937,-110.8892,795.3,185.3,179.6,2.8,1.1,8.43,54.69,1.971,394.3409],
    [2279,1537380829,53.593,-110.8892,794.8,184.8,180.2,3.4,0.4,7.85,54.12,1.9712,394.8851],
    [2280,1537380830,53.5923,-110.8892,793.9,182.9,180.0,3.1,0.6,7.86,54.34,1.9716,395.1485],
    [2281,1537380831,53.5916,-110.8891,792.8,181.8,179.5,2.5,1.3,8.38,55.0,1.9714,394.3277],
    [2282,1537380832,53.5909,-110.8891,793.1,183.1,179.1,2.3,0.4,8.55,55.13,1.9713,395.2921],
    [2283,1537380833,53.5902,-110.889,793.7,184.7,179.3,2.7,0.4,7.91,54.82,1.9712,394.4585],
    [2284,1537380834,53.5895,-110.8889,793.8,185.5,179.5,2.8,-0.3,8.41,55.59,1.9714,394.4585],
    [2285,1537380835,53.5888,-110.8889,793.6,185.6,180.0,3.2,0.3,8.54,54.53,1.9731,395.6029],
    [2286,1537380836,53.5881,-110.8888,793.4,185.2,180.2,3.5,1.7,7.94,54.68,1.9691,393.146],
    [2287,1537380837,53.5874,-110.8888,792.4,185.4,181.0,4.3,1.3,8.58,54.35,1.9685,396.1887],
    [2288,1537380838,53.5867,-110.8888,791.5,184.2,180.8,4.0,0.4,8.26,54.64,1.9654,394.9736],
    [2289,1537380839,53.586,-110.8887,791.0,182.0,180.8,4.0,0.1,8.56,54.56,1.9638,394.2545],
    [2290,1537380840,53.5853,-110.8887,790.4,181.4,180.6,3.9,0.3,8.36,53.22,1.9638,394.4425],
    [2291,1537380841,53.5846,-110.8886,790.1,180.1,180.4,3.7,0.2,9.11,52.07,1.9642,394.2991],
    [2292,1537380842,53.5839,-110.8886,790.2,180.2,179.8,3.4,0.1,8.06,52.54,1.9658,391.691],
    [2293,1537380843,53.5832,-110.8885,790.8,180.9,179.5,3.4,-0.1,8.41,52.42,1.9655,394.3122],
    [2294,1537380844,53.5826,-110.8884,791.1,180.2,179.0,3.3,0.3,8.28,52.53,1.9634,394.7062],
    [2295,1537380845,53.5819,-110.8884,791.0,178.0,179.2,3.8,0.0,8.35,52.56,1.9639,395.5719],
    [2296,1537380846,53.5812,-110.8883,790.9,177.9,178.7,3.3,-0.5,7.82,51.74,1.9622,395.337],
    [2297,1537380847,53.5805,-110.8882,791.1,177.0,178.4,2.9,-0.5,8.49,51.49,1.9643,393.7765],
    [2298,1537380848,53.5798,-110.8881,791.3,177.9,178.5,3.0,0.1,8.35,51.52,1.9675,394.3996],
    [2299,1537380849,53.5791,-110.8881,792.2,179.0,177.8,2.3,-0.1,8.32,51.53,1.9686,394.7175],
    [2300,1537380850,53.5784,-110.888,793.2,181.2,177.8,2.8,-0.6,8.41,51.87,1.9688,394.7175],
    [2301,1537380851,53.5778,-110.8879,793.4,181.4,177.7,3.0,0.2,8.44,52.81,1.9671,394.5843],
    [2302,1537380852,53.5771,-110.8878,793.2,181.2,177.6,3.1,0.1,8.16,52.76,1.9663,394.5685],
    [2303,1537380853,53.5764,-110.8877,792.9,180.9,178.0,3.8,-0.3,8.3,52.91,1.967,395.6626],
    [2304,1537380854,53.5757,-110.8876,793.0,179.5,177.8,3.9,-0.9,8.88,52.91,1.9673,395.096],
    [2305,1537380855,53.575,-110.8875,792.7,177.9,178.3,4.4,-1.3,8.29,52.89,1.966,394.681],
    [2306,1537380856,53.5744,-110.8874,791.6,175.6,178.1,4.3,-1.5,8.44,53.29,1.9673,393.9524],
    [2307,1537380857,53.5737,-110.8873,791.9,176.0,178.5,4.6,-1.1,8.33,52.77,1.9685,394.859],
    [2308,1537380858,53.573,-110.8872,793.0,177.0,178.0,3.9,-1.2,8.39,52.85,1.9685,395.8307],
    [2309,1537380859,53.5723,-110.8871,793.6,178.0,177.2,2.8,-1.2,8.42,52.92,1.9698,395.0702],
    [2310,1537380860,53.5716,-110.887,794.1,177.2,177.3,2.7,0.3,8.4,53.83,1.9707,394.7566],
    [2311,1537380861,53.571,-110.8869,795.8,175.8,176.7,1.7,-0.6,8.5,53.87,1.9685,395.2664],
    [2312,1537380862,53.5703,-110.8868,796.4,175.1,178.2,3.3,0.2,8.28,53.97,1.971,396.3315],
    [2313,1537380863,53.5696,-110.8867,796.6,174.2,178.3,2.7,1.6,8.18,54.05,1.9706,395.5457],
    [2314,1537380864,53.5689,-110.8867,797.9,172.1,177.5,2.1,1.3,8.41,54.12,1.9709,394.7692],
    [2315,1537380865,53.5682,-110.8866,797.3,168.5,177.9,2.2,0.0,8.36,54.25,1.9708,395.029],
    [2316,1537380866,53.5675,-110.8865,794.7,164.5,177.5,1.9,1.6,8.13,54.56,1.9724,394.8352],
    [2317,1537380867,53.5669,-110.8864,792.0,160.9,179.0,3.5,2.1,8.52,54.2,1.9727,395.8463],
    [2318,1537380868,53.5662,-110.8864,790.1,160.1,179.3,3.7,2.2,8.92,54.11,1.9721,394.872],
    [2319,1537380869,53.5655,-110.8863,790.2,160.2,180.0,4.2,1.5,8.46,54.32,1.9727,394.8723],
    [2320,1537380870,53.5648,-110.8862,790.2,160.2,180.0,4.2,0.3,8.47,55.01,1.9727,394.6837],
    [2321,1537380871,53.5641,-110.8862,789.1,159.1,180.3,4.3,0.5,8.55,54.41,1.9738,393.9345],
    [2322,1537380872,53.5634,-110.8861,788.3,158.3,180.3,4.4,-0.3,8.06,54.57,1.9742,395.6055],
    [2323,1537380873,53.5627,-110.8861,788.2,158.1,180.2,3.9,0.2,8.32,54.74,1.9681,394.1622],
    [2324,1537380874,53.5621,-110.886,788.8,157.8,179.4,3.1,0.0,8.52,54.66,1.9691,394.0085],
    [2325,1537380875,53.5614,-110.8859,789.1,157.1,179.8,3.7,0.3,7.94,54.81,1.9721,393.9288],
    [2326,1537380876,53.5607,-110.8859,789.2,156.4,179.7,3.5,0.0,8.37,54.49,1.9718,394.3099],
    [2327,1537380877,53.56,-110.8858,789.3,156.3,179.5,3.5,0.7,8.47,54.66,1.9687,395.2385],
    [2328,1537380878,53.5593,-110.8858,790.4,158.8,179.6,3.9,-0.3,8.69,54.04,1.9698,395.0083],
    [2329,1537380879,53.5587,-110.8857,792.8,161.8,179.3,3.8,-0.4,8.68,53.97,1.969,394.6291],
    [2330,1537380880,53.558,-110.8856,795.4,165.4,178.3,2.9,-0.9,8.17,54.09,1.9682,395.3393],
    [2331,1537380881,53.5573,-110.8855,795.7,164.7,178.6,3.3,-0.1,8.76,53.51,1.9673,395.0784],
    [2332,1537380882,53.5566,-110.8855,794.8,163.8,178.4,3.1,0.5,8.2,53.99,1.9688,394.8853],
    [2333,1537380883,53.556,-110.8854,794.0,163.0,178.9,3.6,0.8,8.05,53.65,1.9693,395.4502],
    [2334,1537380884,53.5553,-110.8853,793.7,163.8,179.1,3.7,0.4,9.2,53.11,1.9689,395.2723],
    [2335,1537380885,53.5546,-110.8852,794.0,164.0,178.7,3.2,-0.4,8.74,53.71,1.9693,394.3897],
    [2336,1537380886,53.5539,-110.8852,793.9,162.5,178.3,3.0,-1.8,7.88,53.68,1.9691,394.4676],
    [2337,1537380887,53.5533,-110.8851,794.1,159.4,178.2,3.2,-2.0,8.92,53.12,1.9684,395.1648],
    [2338,1537380888,53.5526,-110.885,794.3,159.3,178.3,3.2,-2.5,9.24,53.07,1.9671,395.2927],
    [2339,1537380889,53.5519,-110.8849,793.3,160.7,179.1,3.9,-1.4,8.87,53.4,1.9694,395.4039],
    [2340,1537380890,53.5512,-110.8848,791.8,161.7,179.4,3.8,-1.9,8.89,53.36,1.9686,394.7927],
    [2341,1537380891,53.5505,-110.8848,791.1,164.1,179.3,3.4,-1.1,8.28,53.21,1.9675,395.1078],
    [2342,1537380892,53.5499,-110.8847,791.1,164.1,180.0,4.0,-1.7,8.8,53.32,1.9689,393.9328],
    [2343,1537380893,53.5492,-110.8846,791.5,163.2,179.7,3.5,-1.3,8.75,53.23,1.9709,394.9269],
    [2344,1537380894,53.5485,-110.8846,792.3,162.0,179.5,3.5,-0.7,8.62,53.22,1.9703,394.9761],
    [2345,1537380895,53.5478,-110.8845,793.4,162.4,179.6,3.7,0.0,8.49,53.7,1.9727,395.4009],
    [2346,1537380896,53.5471,-110.8845,794.6,163.6,179.7,4.0,0.1,8.45,53.86,1.9732,395.2222],
    [2347,1537380897,53.5464,-110.8844,794.6,163.6,179.8,4.5,0.4,8.23,54.06,1.9741,395.0192],
    [2348,1537380898,53.5458,-110.8843,793.4,162.4,180.2,5.1,1.1,7.91,54.04,1.9753,395.469],
    [2349,1537380899,53.5451,-110.8842,792.3,162.4,179.4,4.5,1.1,8.22,53.93,1.9763,395.3012],
    [2350,1537380900,53.5444,-110.8842,791.2,163.3,179.5,4.8,0.9,8.14,54.32,1.9768,395.0467],
    [2351,1537380901,53.5437,-110.8841,790.9,162.8,179.0,4.4,0.4,7.83,54.12,1.9763,394.3863],
    [2352,1537380902,53.543,-110.884,791.1,163.1,178.7,4.3,-0.5,8.33,54.16,1.975,394.7795],
    [2353,1537380903,53.5423,-110.8839,791.2,162.2,178.8,4.6,-0.3,8.35,54.13,1.9761,394.4129],
    [2354,1537380904,53.5416,-110.8838,790.8,161.7,179.2,5.0,-0.4,8.47,54.31,1.9769,394.5958],
    [2355,1537380905,53.541,-110.8837,790.7,162.7,179.0,4.9,-0.3,8.35,53.82,1.9744,395.4077],
    [2356,1537380906,53.5403,-110.8836,791.1,163.1,179.0,4.7,-0.7,9.04,53.66,1.9724,394.2165],
    [2357,1537380907,53.5396,-110.8835,791.8,163.8,178.5,4.2,-0.6,8.45,54.22,1.9714,394.8796],
    [2358,1537380908,53.5389,-110.8834,792.4,163.7,178.5,4.1,-0.9,8.42,53.88,1.9687,394.732],
    [2359,1537380909,53.5383,-110.8833,792.7,164.5,178.8,4.5,-1.0,8.67,53.14,1.9672,394.8322],
    [2360,1537380910,53.5376,-110.8833,792.3,166.1,178.8,4.5,-0.5,8.46,53.03,1.9746,395.6337],
    [2361,1537380911,53.5369,-110.8832,792.0,168.0,178.8,4.3,-1.3,8.29,53.13,1.9747,394.0052],
    [2362,1537380912,53.5362,-110.8831,792.5,168.5,178.3,3.8,-1.4,8.86,52.43,1.9745,394.1655],
    [2363,1537380913,53.5355,-110.883,793.0,169.0,178.4,4.0,-1.2,8.85,52.53,1.9704,394.922],
    [2364,1537380914,53.5349,-110.8829,793.8,169.8,178.5,4.0,0.1,8.53,53.09,1.9732,394.5156],
    [2365,1537380915,53.5342,-110.8828,794.5,169.4,178.1,3.4,0.4,8.33,53.38,1.9729,395.7323],
    [2366,1537380916,53.5335,-110.8827,794.6,168.6,177.8,3.0,1.1,8.57,53.73,1.9733,395.1173],
    [2367,1537380917,53.5328,-110.8826,795.0,168.0,178.3,3.4,1.9,9.1,52.87,1.976,395.6653],
    [2368,1537380918,53.5321,-110.8825,795.0,167.0,178.3,3.3,1.4,8.52,53.62,1.9756,395.6812],
    [2369,1537380919,53.5315,-110.8825,794.5,165.6,178.8,4.0,2.3,8.76,53.41,1.9745,395.4256],
    [2370,1537380920,53.5308,-110.8824,794.5,164.5,179.3,4.3,1.1,8.47,54.23,1.9737,396.4338],
    [2371,1537380921,53.5301,-110.8823,795.0,165.0,178.2,3.3,1.2,8.45,53.93,1.9725,394.6058],
    [2372,1537380922,53.5294,-110.8822,795.6,165.6,178.1,3.3,0.5,8.8,54.33,1.9727,394.7535],
    [2373,1537380923,53.5288,-110.8821,794.8,165.8,177.7,3.0,1.4,8.64,53.85,1.9736,394.6603],
    [2374,1537380924,53.5281,-110.882,792.7,165.4,178.5,3.9,1.8,8.34,53.88,1.9752,395.2344],
    [2375,1537380925,53.5274,-110.8819,791.2,166.0,179.0,4.3,1.8,8.5,54.12,1.9719,395.3353],
    [2376,1537380926,53.5267,-110.8819,791.0,167.0,178.6,3.7,1.4,9.11,52.97,1.971,394.87],
    [2377,1537380927,53.526,-110.8818,790.8,167.9,179.2,4.3,1.4,8.08,53.19,1.9707,395.9508],
    [2378,1537380928,53.5253,-110.8817,790.3,168.4,179.4,4.3,0.8,7.83,52.98,1.9716,393.9743],
    [2379,1537380929,53.5247,-110.8816,790.4,168.4,179.2,4.1,0.2,8.49,52.74,1.9711,395.6478],
    [2380,1537380930,53.524,-110.8815,792.4,170.4,179.0,4.2,0.7,8.43,52.31,1.9716,396.3201],
    [2381,1537380931,53.5233,-110.8814,794.6,172.6,179.6,4.9,0.1,8.52,52.31,1.9724,395.0939],
    [2382,1537380932,53.5226,-110.8814,795.2,173.2,179.1,4.1,-0.9,8.56,52.36,1.9713,396.0345],
    [2383,1537380933,53.522,-110.8813,794.6,172.6,178.6,3.6,-0.7,8.45,53.12,1.9711,394.5509],
    [2384,1537380934,53.5213,-110.8812,793.4,170.4,178.9,4.2,-0.9,8.5,52.61,1.9705,396.1329],
    [2385,1537380935,53.5206,-110.8811,792.7,169.7,178.8,4.1,-0.5,8.29,52.27,1.9701,394.122],
    [2386,1537380936,53.52,-110.881,792.2,170.4,178.8,4.3,-0.6,9.3,52.01,1.9716,396.3729],
    [2387,1537380937,53.5192,-110.8809,791.8,168.8,178.6,4.5,-1.5,8.78,52.39,1.971,395.6124],
    [2388,1537380938,53.5186,-110.8808,791.7,166.3,178.7,4.4,-1.6,8.72,51.66,1.9703,394.8087],
    [2389,1537380939,53.5179,-110.8807,791.8,163.4,177.9,3.7,-1.6,8.42,52.07,1.9702,394.7742],
    [2390,1537380940,53.5172,-110.8807,792.4,160.4,177.7,3.4,-1.2,8.68,52.12,1.9737,394.7816],
    [2391,1537380941,53.5165,-110.8806,793.8,160.8,176.2,1.6,-0.9,7.92,52.24,1.9787,396.1386],
    [2392,1537380942,53.5158,-110.8805,794.0,158.3,177.8,3.7,-0.6,8.11,53.27,1.982,396.1874],
    [2393,1537380943,53.5151,-110.8804,793.4,156.4,178.9,4.2,-0.1,8.55,54.06,1.9836,396.1342],
    [2394,1537380944,53.5144,-110.8803,793.3,155.3,178.7,3.6,0.2,9.07,53.67,1.9861,396.1345],
    [2395,1537380945,53.5137,-110.8802,793.8,155.0,179.5,3.7,0.8,8.67,53.76,1.9858,396.9957],
    [2396,1537380946,53.513,-110.8801,794.0,156.4,179.2,3.3,1.3,8.85,54.16,1.9808,396.0734],
    [2397,1537380947,53.5123,-110.8801,793.4,156.6,182.1,6.3,0.6,8.03,54.23,1.9798,395.1877],
    [2398,1537380948,53.5117,-110.88,792.3,157.8,182.0,5.6,0.6,8.62,53.88,1.9801,396.9033],
    [2399,1537380949,53.511,-110.88,791.6,158.9,182.3,5.7,0.6,8.42,53.9,1.9789,396.4687],
    [2400,1537380950,53.5103,-110.88,791.2,158.4,181.9,5.3,0.5,8.55,53.27,1.974,396.7782],
    [2401,1537380951,53.5096,-110.8799,791.4,158.4,181.6,5.4,0.3,8.05,52.9,1.9701,396.5434],
    [2402,1537380952,53.5089,-110.8799,791.5,159.5,181.3,5.3,0.0,8.83,52.32,1.9709,395.2485],
    [2403,1537380953,53.5082,-110.8798,791.5,159.5,180.5,4.9,-0.3,8.6,51.7,1.9685,395.2248],
    [2404,1537380954,53.5075,-110.8797,791.5,159.5,180.4,5.2,-0.6,8.56,50.86,1.9683,395.607],
    [2405,1537380955,53.5068,-110.8797,791.7,160.7,179.5,4.5,-0.7,8.56,50.64,1.9665,394.9433],
    [2406,1537380956,53.5061,-110.8796,792.5,161.5,178.6,3.8,-1.3,8.4,50.37,1.9656,394.472],
    [2407,1537380957,53.5054,-110.8795,792.9,161.8,179.1,4.6,-1.5,9.16,49.86,2.0214,394.2655],
    [2408,1537380958,53.5047,-110.8794,792.9,162.1,178.7,3.9,-1.9,8.58,49.98,2.188,394.6239],
    [2409,1537380959,53.5041,-110.8793,794.2,161.6,178.1,3.3,-0.9,8.8,49.82,2.0941,394.7525],
    [2410,1537380960,53.5034,-110.8792,795.3,162.6,178.9,4.1,-1.1,8.36,50.82,2.0748,396.2791],
    [2411,1537380961,53.5027,-110.8792,795.3,163.2,179.1,3.9,-0.3,8.26,50.68,2.0377,395.9976],
    [2412,1537380962,53.502,-110.8791,795.2,164.1,179.8,4.4,-0.9,7.97,51.09,2.0028,397.0004],
    [2413,1537380963,53.5013,-110.879,795.4,165.5,180.0,4.1,-0.6,8.16,51.28,2.0017,396.9798],
    [2414,1537380964,53.5006,-110.879,796.2,167.2,179.5,3.3,-1.1,8.75,51.98,2.0027,396.6687],
    [2415,1537380965,53.4999,-110.8789,796.9,168.6,180.9,5.3,-0.2,8.88,52.06,2.0034,396.5211],
    [2416,1537380966,53.4992,-110.8788,796.7,168.7,181.8,5.8,-1.4,8.54,52.92,2.005,397.0083],
    [2417,1537380967,53.4985,-110.8788,796.5,168.5,180.7,5.1,-0.9,9.27,52.48,2.0091,397.5641],
    [2418,1537380968,53.4978,-110.8787,795.5,167.5,180.8,5.6,-1.4,8.54,53.4,2.0047,398.1726],
    [2419,1537380969,53.4972,-110.8786,794.3,167.0,178.8,4.1,-1.3,8.92,53.14,2.0086,396.8809],
    [2420,1537380970,53.4964,-110.8785,793.3,166.1,178.2,3.8,0.7,8.7,54.09,2.0127,397.0478],
    [2421,1537380971,53.4957,-110.8784,793.2,166.0,176.6,2.3,-0.3,8.5,54.34,2.0176,396.5244],
    [2422,1537380972,53.495,-110.8783,793.9,166.0,178.0,4.3,0.8,8.63,53.87,2.0208,396.9918],
    [2423,1537380973,53.4943,-110.8782,794.8,167.5,178.0,3.2,-0.1,8.49,54.37,2.0134,396.7681],
    [2424,1537380974,53.4936,-110.8782,796.4,170.4,178.1,3.0,0.9,8.65,55.25,1.9929,396.5071],
    [2425,1537380975,53.4929,-110.8781,796.2,173.2,179.9,4.3,1.0,8.64,54.94,1.9839,394.9347],
    [2426,1537380976,53.4922,-110.878,795.2,173.2,179.8,3.7,0.7,8.59,54.9,1.9845,396.9352],
    [2427,1537380977,53.4915,-110.878,794.3,173.3,180.6,4.4,0.7,8.52,54.56,1.9891,397.2231],
    [2428,1537380978,53.4908,-110.8779,794.0,173.0,181.1,5.0,1.0,8.17,54.18,1.9897,396.0953],
    [2429,1537380979,53.4901,-110.8778,793.6,171.5,181.2,5.3,1.4,8.65,54.19,1.9859,396.463],
    [2430,1537380980,53.4895,-110.8778,793.2,171.2,181.0,5.0,1.6,8.86,53.45,1.9778,395.6034],
    [2431,1537380981,53.4887,-110.8777,792.9,166.9,180.1,4.3,1.9,7.95,52.98,1.9722,392.7887],
    [2432,1537380982,53.4881,-110.8777,793.0,161.0,180.6,5.1,1.8,8.95,52.28,1.9759,394.3364],
    [2433,1537380983,53.4874,-110.8776,793.6,157.9,180.1,4.7,0.8,8.66,52.23,1.9704,395.8302],
    [2434,1537380984,53.4867,-110.8775,794.0,154.2,179.6,4.3,0.7,8.74,50.93,1.9696,394.095],
    [2435,1537380985,53.486,-110.8775,793.8,152.7,179.0,4.0,0.2,9.39,50.45,1.9681,392.3648],
    [2436,1537380986,53.4853,-110.8774,793.6,151.6,178.7,3.8,0.2,8.72,50.18,1.9672,395.3397],
    [2437,1537380987,53.4846,-110.8773,793.6,150.6,178.7,3.7,0.2,8.01,50.07,1.9668,395.4953],
    [2438,1537380988,53.4839,-110.8772,793.7,149.7,178.9,3.9,0.1,8.62,50.16,1.9658,395.6864],
    [2439,1537380989,53.4832,-110.8771,793.6,149.6,179.7,4.8,0.0,8.67,50.33,1.9676,394.6409],
    [2440,1537380990,53.4825,-110.8771,793.7,149.7,179.8,4.7,-0.2,8.65,50.13,1.9701,396.3724],
    [2441,1537380991,53.4818,-110.877,793.8,150.9,179.5,4.3,-0.1,8.51,49.91,1.97,396.3724],
    [2442,1537380992,53.4811,-110.8769,793.6,150.6,179.1,3.8,0.0,9.08,49.9,1.9662,395.8223],
    [2443,1537380993,53.4805,-110.8768,793.3,151.3,178.9,3.5,0.0,8.14,50.09,1.9655,395.8792],
    [2444,1537380994,53.4797,-110.8768,793.3,152.3,179.1,3.8,-0.4,8.75,50.04,1.9662,395.4229],
    [2445,1537380995,53.4791,-110.8767,793.2,153.2,179.3,3.9,-0.5,9.38,50.11,1.9688,397.606],
    [2446,1537380996,53.4784,-110.8766,792.9,152.9,179.0,3.5,-0.4,8.53,50.99,1.9711,396.9088],
    [2447,1537380997,53.4777,-110.8765,792.8,152.1,179.2,3.8,-0.8,8.75,51.12,1.971,393.7804],
    [2448,1537380998,53.477,-110.8765,793.0,152.3,179.3,3.9,-1.0,8.45,50.72,1.9687,394.1265],
    [2449,1537380999,53.4763,-110.8764,793.3,153.3,179.7,4.4,-0.9,8.63,51.37,1.9708,395.5316],
    [2450,1537381000,53.4756,-110.8763,793.6,153.6,179.6,4.3,-0.7,8.48,51.67,1.9706,396.6809],
    [2451,1537381001,53.4749,-110.8763,794.1,153.1,179.7,4.2,-0.4,8.59,51.67,1.9703,395.7119],
    [2452,1537381002,53.4742,-110.8762,793.6,152.6,179.3,3.6,0.7,8.66,52.4,1.9749,395.8952],
    [2453,1537381003,53.4736,-110.8761,792.9,151.9,179.3,3.5,0.8,8.56,52.63,1.9792,395.9078],
    [2454,1537381004,53.4729,-110.876,792.9,152.0,178.8,3.1,-0.1,8.27,53.27,1.9802,396.9947],
    [2455,1537381005,53.4722,-110.876,792.4,150.5,178.7,3.0,0.3,8.34,53.57,1.976,396.7858],
    [2456,1537381006,53.4715,-110.8759,792.5,148.8,178.7,3.3,0.7,8.61,53.79,1.9755,396.4173],
    [2457,1537381007,53.4708,-110.8758,793.5,148.5,179.6,4.3,0.8,8.75,53.74,1.9758,396.5923],
    [2458,1537381008,53.4701,-110.8758,794.9,149.9,179.9,4.5,0.0,8.73,54.31,1.9754,396.1153],
    [2459,1537381009,53.4694,-110.8757,795.4,150.4,179.8,4.1,0.2,8.57,54.41,1.9745,396.4347],
    [2460,1537381010,53.4687,-110.8756,796.3,151.3,180.0,4.0,0.9,9.2,54.01,1.9727,396.0206],
    [2461,1537381011,53.468,-110.8756,797.7,154.7,179.6,3.6,0.7,8.51,54.35,1.9727,395.7512],
    [2462,1537381012,53.4674,-110.8755,797.1,156.7,179.1,3.1,1.0,8.66,53.93,1.9702,393.4534],
    [2463,1537381013,53.4667,-110.8754,796.0,160.7,178.8,3.4,1.5,8.19,53.12,1.9725,394.7003],
    [2464,1537381014,53.466,-110.8754,794.7,161.8,179.0,3.8,1.9,8.87,51.98,1.9748,396.6664],
    [2465,1537381015,53.4653,-110.8753,793.7,160.4,178.7,3.9,1.8,8.61,52.18,1.9735,396.4937],
    [2466,1537381016,53.4646,-110.8752,793.3,159.3,178.6,3.7,1.2,8.33,52.36,1.9766,396.2958],
    [2467,1537381017,53.4639,-110.8751,793.4,158.4,178.2,3.3,0.8,8.53,52.56,1.9741,395.1534],
    [2468,1537381018,53.4632,-110.875,793.2,156.2,178.2,3.1,0.0,8.62,51.82,1.9755,394.9991],
    [2469,1537381019,53.4625,-110.8749,792.9,153.4,178.1,2.8,0.4,8.8,51.26,1.9764,395.6741],
    [2470,1537381020,53.4619,-110.8749,793.7,152.7,178.5,3.2,1.1,8.67,51.93,1.9758,395.2118],
    [2471,1537381021,53.4612,-110.8748,795.0,155.0,178.8,2.9,1.1,8.68,51.7,1.9737,394.4263],
    [2472,1537381022,53.4605,-110.8747,796.1,159.1,179.4,3.3,1.9,8.25,51.38,1.972,395.0423],
    [2473,1537381023,53.4598,-110.8747,796.2,160.2,180.1,3.7,1.2,8.98,50.96,1.9711,393.8281],
    [2474,1537381024,53.4591,-110.8746,795.0,159.0,179.9,3.2,0.8,8.11,51.06,1.9731,395.945],
    [2475,1537381025,53.4584,-110.8746,793.9,157.9,180.5,3.8,1.1,9.12,50.16,1.9675,394.3505],
    [2476,1537381026,53.4577,-110.8745,793.7,156.7,180.4,3.6,0.3,8.6,50.3,1.9666,394.8092],
    [2477,1537381027,53.4571,-110.8745,793.9,155.9,180.2,3.5,0.4,8.67,50.27,1.9679,396.1744],
    [2478,1537381028,53.4564,-110.8744,794.0,155.0,180.1,3.6,0.1,8.46,49.92,1.9694,394.4321],
    [2479,1537381029,53.4557,-110.8744,793.8,155.5,181.0,5.0,0.8,8.71,50.62,1.9707,395.6968],
    [2480,1537381030,53.455,-110.8743,792.1,154.6,180.9,5.1,0.4,8.91,50.42,1.9673,395.247],
    [2481,1537381031,53.4543,-110.8742,790.8,154.1,180.3,4.9,0.3,8.66,50.25,1.9716,395.3116],
    [2482,1537381032,53.4536,-110.8742,790.4,156.2,180.4,5.3,-0.4,8.58,50.3,1.9746,395.7396],
    [2483,1537381033,53.4529,-110.8741,790.9,156.9,179.5,4.7,-0.7,9.25,50.19,1.9745,395.7507],
    [2484,1537381034,53.4522,-110.874,791.3,156.8,179.2,4.5,-0.6,8.84,51.24,1.9761,395.5388],
    [2485,1537381035,53.4516,-110.8739,791.6,155.7,178.6,4.1,-1.0,8.98,51.13,1.9756,396.497],
    [2486,1537381036,53.4509,-110.8738,792.7,155.7,178.4,3.9,-1.1,8.61,51.68,1.9745,396.4886],
    [2487,1537381037,53.4502,-110.8737,794.0,159.1,178.9,4.3,-0.2,8.62,51.93,1.9777,395.7996],
    [2488,1537381038,53.4495,-110.8737,795.2,162.2,178.7,4.0,0.6,9.25,51.62,1.9817,395.7159],
    [2489,1537381039,53.4488,-110.8736,794.8,163.5,179.4,4.7,1.1,8.69,52.04,1.9746,396.3818],
    [2490,1537381040,53.4481,-110.8735,795.3,164.8,178.9,3.9,0.6,8.74,52.26,1.9758,395.2111],
    [2491,1537381041,53.4474,-110.8734,795.5,166.5,179.4,4.8,1.0,8.71,52.22,1.9768,397.404],
    [2492,1537381042,53.4468,-110.8733,794.7,165.8,180.2,5.7,0.9,8.79,52.09,1.9739,396.4066],
    [2493,1537381043,53.4461,-110.8732,794.5,166.5,179.9,5.4,0.6,8.52,52.31,1.9758,396.6433],
    [2494,1537381044,53.4454,-110.8732,795.1,167.2,180.1,5.7,0.7,8.56,52.25,1.9728,396.5198],
    [2495,1537381045,53.4447,-110.8731,795.0,167.3,179.7,5.3,0.9,8.53,52.29,1.9742,395.2225],
    [2496,1537381046,53.444,-110.873,794.5,166.5,179.1,4.9,0.9,8.49,52.22,1.9713,394.9824],
    [2497,1537381047,53.4433,-110.8729,794.4,165.8,178.7,4.6,0.7,8.76,52.11,1.972,394.9824],
    [2498,1537381048,53.4427,-110.8728,794.6,163.2,178.4,4.6,0.5,9.15,51.24,1.9703,395.1591],
    [2499,1537381049,53.442,-110.8727,794.5,161.5,178.4,4.5,0.3,9.29,51.38,1.9695,395.8234],
    [2500,1537381050,53.4413,-110.8726,794.2,162.2,178.3,4.2,-0.5,9.18,51.51,1.9712,395.6104],
    [2501,1537381051,53.4406,-110.8725,794.6,165.0,178.6,4.3,0.2,8.73,51.82,1.9704,396.4533],
    [2502,1537381052,53.4399,-110.8724,794.6,167.6,178.8,4.4,0.0,9.06,51.34,1.9689,396.1654],
    [2503,1537381053,53.4392,-110.8723,793.9,168.0,178.5,4.0,-0.1,8.96,51.06,1.969,393.6047],
    [2504,1537381054,53.4385,-110.8722,793.8,167.8,178.2,3.5,-0.2,9.28,51.06,1.9711,394.9254],
    [2505,1537381055,53.4379,-110.8721,794.0,167.0,178.4,3.8,-0.2,9.51,50.94,1.9727,395.3404],
    [2506,1537381056,53.4372,-110.8721,794.0,167.0,178.8,4.1,-0.9,8.91,51.24,1.9783,395.5153],
    [2507,1537381057,53.4365,-110.872,794.1,164.5,178.6,3.7,0.2,8.96,51.0,1.9787,395.2414],
    [2508,1537381058,53.4358,-110.8719,794.2,160.6,178.5,3.5,1.0,8.78,52.1,1.9714,393.404],
    [2509,1537381059,53.4351,-110.8718,793.6,158.3,179.6,4.8,1.6,8.08,51.68,1.9657,393.9524],
    [2510,1537381060,53.4344,-110.8717,792.9,157.9,179.3,4.3,2.3,8.56,51.5,1.9701,394.1589],
    [2511,1537381061,53.4337,-110.8716,793.1,159.1,179.3,4.4,1.8,8.68,51.38,1.9713,395.4458],
    [2512,1537381062,53.4331,-110.8716,793.6,161.6,179.2,4.3,2.0,8.81,51.58,1.9692,396.0699],
    [2513,1537381063,53.4324,-110.8715,793.7,161.7,178.8,4.1,1.0,9.19,50.96,1.9679,396.5887],
    [2514,1537381064,53.4317,-110.8714,793.4,162.5,179.1,4.4,0.8,8.88,50.75,1.9688,394.5548],
    [2515,1537381065,53.4311,-110.8713,793.1,162.1,178.6,3.8,0.8,9.2,50.69,1.9689,393.8615],
    [2516,1537381066,53.4303,-110.8712,792.9,161.9,179.2,4.7,0.6,9.11,50.72,1.9703,395.1472],
    [2517,1537381067,53.4296,-110.8711,792.8,160.8,179.5,4.6,1.2,9.57,50.56,1.9695,395.359],
    [2518,1537381068,53.429,-110.8711,793.2,160.1,178.0,2.9,0.9,8.37,50.83,1.9707,395.2576],
    [2519,1537381069,53.4283,-110.871,793.4,161.4,178.1,3.0,0.6,8.76,51.1,1.9718,393.8136],
    [2520,1537381070,53.4276,-110.8709,793.0,161.1,178.2,3.1,0.6,9.17,51.26,1.9723,395.846],
    [2521,1537381071,53.427,-110.8708,793.4,161.1,179.8,4.7,1.6,8.99,51.35,1.9756,396.5896],
    [2522,1537381072,53.4262,-110.8708,795.0,160.6,179.7,4.0,1.2,9.04,51.06,1.9761,396.6094],
    [2523,1537381073,53.4256,-110.8707,796.6,162.2,179.3,3.4,0.2,8.15,52.49,1.977,396.4504],
    [2524,1537381074,53.4249,-110.8706,796.6,165.0,180.2,4.1,1.8,8.75,53.17,1.9764,396.5432],
    [2525,1537381075,53.4242,-110.8706,795.6,164.9,181.4,5.4,2.6,8.74,52.59,1.9759,396.1605],
    [2526,1537381076,53.4235,-110.8705,795.3,166.3,181.3,4.8,1.1,8.13,53.05,1.9756,395.5621],
    [2527,1537381077,53.4228,-110.8705,794.7,166.7,181.6,5.4,1.1,8.84,53.19,1.9755,394.968],
    [2528,1537381078,53.4221,-110.8704,793.2,164.2,180.7,4.2,1.0,8.37,52.97,1.9752,394.6198],
    [2529,1537381079,53.4215,-110.8704,792.5,161.8,178.9,3.3,0.9,8.82,53.17,1.9747,394.2416],
    [2530,1537381080,53.4208,-110.8703,791.7,160.6,179.9,5.0,0.5,9.47,52.84,1.9738,396.4411],
    [2531,1537381081,53.4201,-110.8702,790.6,161.2,178.4,3.8,-0.4,8.65,53.27,1.9748,394.6613],
    [2532,1537381082,53.4194,-110.8701,791.5,163.7,177.9,3.8,0.4,8.74,53.51,1.9761,396.0119],
    [2533,1537381083,53.4187,-110.87,792.1,165.1,179.1,5.2,0.8,8.58,53.1,1.9761,396.4289],
    [2534,1537381084,53.418,-110.8699,792.9,169.0,178.2,3.9,1.9,8.86,53.8,1.9769,395.1706],
    [2535,1537381085,53.4174,-110.8698,794.0,171.4,177.8,3.5,1.4,8.85,53.62,1.9756,395.9051],
    [2536,1537381086,53.4167,-110.8697,794.0,172.0,178.6,4.2,0.2,8.32,53.56,1.9763,395.9516],
    [2537,1537381087,53.416,-110.8696,793.2,171.3,178.6,4.0,1.3,8.48,53.84,1.9773,395.9328],
    [2538,1537381088,53.4153,-110.8696,793.2,170.2,179.3,4.6,2.2,8.98,53.38,1.978,393.834],
    [2539,1537381089,53.4146,-110.8695,793.9,169.9,179.9,5.0,3.2,9.33,53.36,1.9795,395.0178],
    [2540,1537381090,53.414,-110.8694,795.0,170.0,179.1,3.5,1.8,9.13,53.24,1.9791,395.0178],
    [2541,1537381091,53.4133,-110.8693,796.2,172.2,178.1,2.9,1.2,9.01,53.74,1.9793,395.4282],
    [2542,1537381092,53.4126,-110.8692,797.1,174.2,179.3,4.6,0.0,8.79,54.26,1.9803,395.3717],
    [2543,1537381093,53.4119,-110.8692,796.4,174.4,178.9,4.1,-0.2,8.89,54.29,1.9806,394.6543],
    [2544,1537381094,53.4113,-110.8691,794.7,173.7,178.7,3.9,1.8,8.86,54.36,1.9813,394.6543],
    [2545,1537381095,53.4106,-110.869,793.2,172.9,178.4,3.7,0.8,8.85,54.19,1.9801,395.4573],
    [2546,1537381096,53.4099,-110.8689,792.2,173.0,178.1,3.5,0.8,8.82,54.1,1.9797,394.6641],
    [2547,1537381097,53.4092,-110.8688,791.9,174.0,178.5,4.0,1.1,8.74,53.59,1.9799,396.5448],
    [2548,1537381098,53.4085,-110.8687,791.8,175.9,179.3,4.9,1.2,9.47,53.16,1.9782,394.2677],
    [2549,1537381099,53.4078,-110.8686,791.8,176.8,179.6,5.0,1.3,9.41,53.3,1.977,394.8375],
    [2550,1537381100,53.4072,-110.8685,792.2,178.3,179.4,4.8,1.3,8.89,52.98,1.9762,394.5004],
    [2551,1537381101,53.4065,-110.8685,792.6,178.5,179.8,5.3,1.5,8.85,52.72,1.9763,394.275],
    [2552,1537381102,53.4058,-110.8684,793.0,179.9,179.5,5.0,1.2,9.55,52.0,1.9742,394.7826],
    [2553,1537381103,53.4051,-110.8683,793.2,180.7,180.0,5.6,0.7,9.17,51.94,1.9726,394.4641],
    [2554,1537381104,53.4044,-110.8682,793.0,182.2,180.0,5.7,0.4,9.18,52.28,1.9726,394.5691],
    [2555,1537381105,53.4038,-110.8681,792.7,181.7,179.8,5.6,0.6,8.66,52.11,1.9761,394.5691],
    [2556,1537381106,53.4031,-110.868,792.3,181.3,179.6,5.5,0.9,9.59,51.48,1.9802,393.463],
    [2557,1537381107,53.4025,-110.8679,792.6,180.9,178.9,4.8,1.1,9.4,51.04,1.9841,396.3117],
    [2558,1537381108,53.4017,-110.8678,793.4,181.4,178.5,4.6,1.0,8.93,51.2,1.9853,395.4896],
    [2559,1537381109,53.4011,-110.8677,793.7,181.8,178.6,4.7,0.7,8.98,51.48,1.9856,394.7038],
    [2560,1537381110,53.4004,-110.8676,793.2,181.2,178.3,4.3,0.5,8.98,51.46,1.9848,394.9257],
    [2561,1537381111,53.3997,-110.8676,792.6,181.4,178.6,4.5,0.2,8.67,51.59,1.9868,394.6704],
    [2562,1537381112,53.399,-110.8675,792.6,182.6,178.5,4.1,0.0,8.69,51.98,1.9865,396.3757],
    [2563,1537381113,53.3984,-110.8674,792.8,182.3,178.6,4.2,0.1,9.46,51.71,1.9841,394.2672],
    [2564,1537381114,53.3977,-110.8673,792.7,181.2,179.0,4.6,-0.4,8.61,52.79,1.9895,395.3781],
    [2565,1537381115,53.3971,-110.8672,792.5,180.5,179.0,4.6,-0.1,8.94,52.23,1.9914,396.2793],
    [2566,1537381116,53.3964,-110.8671,792.6,180.6,179.3,4.9,-0.3,8.91,52.68,1.9898,395.8444],
    [2567,1537381117,53.3957,-110.867,793.0,181.0,179.4,5.0,-0.9,8.28,53.17,1.9893,396.2784],
    [2568,1537381118,53.3951,-110.8669,793.0,181.3,179.6,5.3,-0.9,9.24,53.53,1.9892,394.6124],
    [2569,1537381119,53.3943,-110.8668,793.1,180.3,179.6,5.3,-0.4,8.47,54.14,1.9894,395.8902],
    [2570,1537381120,53.3937,-110.8667,793.5,179.4,178.6,4.7,0.0,8.9,54.63,1.9906,394.7424],
    [2571,1537381121,53.393,-110.8666,794.0,178.9,177.7,4.4,-1.1,8.98,54.54,1.9885,394.6105],
    [2572,1537381122,53.3923,-110.8665,793.7,178.5,176.4,3.9,-1.8,8.76,55.0,1.9894,393.6919],
    [2573,1537381123,53.3916,-110.8664,793.2,179.9,176.5,4.8,-1.7,8.62,55.37,1.9894,395.6265],
    [2574,1537381124,53.3909,-110.8662,793.0,180.0,175.1,3.8,-2.0,8.57,55.25,1.9893,396.1379],
    [2575,1537381125,53.3903,-110.8661,791.7,180.0,177.5,5.9,-0.8,8.57,55.32,1.991,393.4484],
    [2576,1537381126,53.3896,-110.866,790.9,180.0,177.5,4.5,-1.4,8.84,55.44,1.9897,394.4423],
    [2577,1537381127,53.3889,-110.8659,791.2,179.5,177.0,3.1,-0.8,8.59,55.42,1.988,395.5473],
    [2578,1537381128,53.3882,-110.8657,789.7,177.9,179.1,5.1,-1.2,8.86,55.76,1.9886,396.192],
    [2579,1537381129,53.3875,-110.8657,788.9,176.6,178.7,4.1,-0.9,8.57,55.53,1.9887,395.2327],
    [2580,1537381130,53.3868,-110.8656,789.6,176.5,178.9,4.0,-0.7,8.91,55.92,1.9883,394.8153],
    [2581,1537381131,53.3861,-110.8655,790.0,178.0,178.4,3.4,0.4,8.69,55.44,1.9889,395.8058],
    [2582,1537381132,53.3854,-110.8654,790.6,180.6,178.8,4.5,0.4,9.38,54.73,1.9898,395.9224],
    [2583,1537381133,53.3847,-110.8653,792.5,182.4,178.3,4.5,1.4,8.91,55.09,1.9903,395.8422],
    [2584,1537381134,53.384,-110.8652,794.3,185.2,176.0,3.2,2.0,8.53,55.06,1.9903,395.1253],
    [2585,1537381135,53.3833,-110.865,794.4,185.4,175.7,4.7,0.9,9.18,54.51,1.9906,395.0457],
    [2586,1537381136,53.3826,-110.8649,793.7,184.7,173.7,5.0,1.4,9.29,54.1,1.9886,394.6898],
    [2587,1537381137,53.3819,-110.8646,792.9,184.9,170.9,4.5,1.5,8.66,54.58,1.9891,395.9953],
    [2588,1537381138,53.3813,-110.8644,791.6,183.7,168.2,4.2,1.8,9.16,53.32,1.9887,395.9953],
    [2589,1537381139,53.3806,-110.864,790.7,181.9,165.1,4.4,2.1,9.0,53.76,1.9845,395.1796],
    [2590,1537381140,53.3799,-110.8636,790.9,181.9,161.9,4.5,1.6,8.98,52.76,1.9817,394.7283],
    [2591,1537381141,53.3793,-110.8631,792.3,183.3,159.6,5.4,2.1,8.98,52.86,1.9785,394.0326],
    [2592,1537381142,53.3786,-110.8626,793.2,184.2,157.3,5.5,2.3,8.74,51.99,1.9754,393.7424],
    [2593,1537381143,53.378,-110.8621,793.2,185.2,154.9,5.9,2.6,9.04,51.82,1.9754,394.4407],
    [2594,1537381144,53.3774,-110.8615,793.0,184.9,151.9,5.1,2.4,8.33,51.34,1.9769,392.7726],
    [2595,1537381145,53.3768,-110.8608,792.5,184.8,148.4,4.7,2.2,8.74,51.18,1.9774,394.5764],
    [2596,1537381146,53.3762,-110.8601,792.2,185.1,145.2,4.9,2.2,8.91,50.51,1.9751,394.106],
    [2597,1537381147,53.3757,-110.8593,792.8,187.7,142.6,5.4,2.7,9.52,49.96,1.9773,393.5176],
    [2598,1537381148,53.3752,-110.8585,792.9,189.0,139.5,5.5,1.6,9.31,49.8,1.9786,395.0928],
    [2599,1537381149,53.3747,-110.8576,792.0,189.0,136.6,5.3,1.5,8.79,50.26,1.98,394.8836],
    [2600,1537381150,53.3742,-110.8567,790.8,187.8,132.6,5.1,0.4,8.99,50.36,1.9813,395.8581],
    [2601,1537381151,53.3737,-110.8558,790.3,186.3,129.1,5.3,0.3,8.7,50.27,1.9796,393.5837],
    [2602,1537381152,53.3733,-110.8548,790.6,186.6,125.8,5.5,0.2,8.87,50.11,1.9706,394.175],
    [2603,1537381153,53.3729,-110.8537,790.8,186.8,123.3,6.0,0.9,9.69,49.43,1.9614,392.3747],
    [2604,1537381154,53.3726,-110.8527,790.8,186.8,120.3,6.3,0.8,9.06,49.21,1.9596,393.5099],
    [2605,1537381155,53.3723,-110.8516,790.8,186.8,117.0,6.5,0.7,9.22,48.64,1.9623,394.3979],
    [2606,1537381156,53.372,-110.8505,790.9,185.9,113.8,6.7,0.3,9.46,47.67,1.9703,395.1102],
    [2607,1537381157,53.3717,-110.8494,791.3,186.2,110.0,5.7,0.3,8.39,47.85,1.9738,394.2248],
    [2608,1537381158,53.3715,-110.8482,792.3,188.3,107.2,5.9,0.7,8.42,48.32,1.9756,394.983],
    [2609,1537381159,53.3714,-110.847,792.5,188.5,104.2,5.1,0.5,8.54,48.56,1.9799,395.0993],
    [2610,1537381160,53.3712,-110.8458,792.5,189.5,101.1,4.8,0.3,9.0,48.94,1.9824,394.3615],
    [2611,1537381161,53.3711,-110.8447,793.3,192.4,98.6,5.9,0.4,8.68,49.25,1.982,395.6028],
    [2612,1537381162,53.371,-110.8435,794.3,195.4,96.9,5.5,0.6,9.05,49.81,1.9822,394.4174],
    [2613,1537381163,53.3709,-110.8422,795.2,199.6,95.5,6.4,0.6,9.33,50.24,1.9844,394.8036],
    [2614,1537381164,53.3709,-110.841,794.9,200.3,94.1,6.2,0.3,8.51,51.5,1.9849,395.7457],
    [2615,1537381165,53.3709,-110.8398,794.0,198.7,92.6,5.4,0.0,8.56,51.65,1.9807,395.519],
    [2616,1537381166,53.3708,-110.8386,793.7,195.9,90.8,5.3,-0.7,8.95,52.24,1.9769,394.8521],
    [2617,1537381167,53.3708,-110.8374,794.3,197.6,90.0,4.5,-0.6,8.98,52.15,1.9765,394.868],
    [2618,1537381168,53.3708,-110.8362,794.3,197.6,90.0,5.4,-0.5,8.99,52.34,1.9782,394.868],
    [2619,1537381169,53.3708,-110.8349,795.3,198.5,89.0,3.7,-1.3,9.02,52.07,1.9807,395.0391],
    [2620,1537381170,53.3708,-110.8337,796.0,198.3,89.5,4.2,-0.6,8.82,52.1,1.9793,396.0673],
    [2621,1537381171,53.3708,-110.8325,795.6,197.7,89.6,3.8,-0.4,8.92,52.28,1.9763,395.2702],
    [2622,1537381172,53.3708,-110.8313,794.5,194.8,90.6,5.0,0.4,8.92,52.26,1.976,395.9149],
    [2623,1537381173,53.3708,-110.8301,793.8,193.1,90.9,4.6,0.7,8.8,52.42,1.9773,395.8624],
    [2624,1537381174,53.3708,-110.8289,793.9,192.5,91.8,4.7,1.5,8.91,52.38,1.9741,394.8051],
    [2625,1537381175,53.3708,-110.8277,794.2,192.8,91.5,4.7,1.1,8.95,52.56,1.9755,394.6363],
    [2626,1537381176,53.3708,-110.8265,794.2,192.8,91.7,4.8,1.7,8.99,52.68,1.9757,394.577],
    [2627,1537381177,53.3708,-110.8253,793.4,192.1,92.0,5.4,2.1,8.9,52.29,1.9733,394.9459],
    [2628,1537381178,53.3708,-110.8241,792.7,188.4,91.3,5.6,1.7,8.35,51.96,1.9739,394.3432],
    [2629,1537381179,53.3708,-110.8229,793.2,187.9,90.1,4.6,0.8,9.39,51.49,1.9734,394.5093],
    [2630,1537381180,53.3708,-110.8217,794.0,188.1,90.3,3.8,1.6,8.86,52.11,1.9754,394.9365],
    [2631,1537381181,53.3708,-110.8205,793.9,187.9,90.4,4.7,1.6,8.82,51.83,1.9739,394.4559],
    [2632,1537381182,53.3708,-110.8193,793.6,187.6,89.9,4.9,1.1,8.42,52.04,1.9747,394.9237],
    [2633,1537381183,53.3708,-110.8181,793.5,188.2,90.0,4.7,1.2,8.66,51.86,1.9742,393.2236],
    [2634,1537381184,53.3708,-110.817,793.8,188.8,90.1,5.1,0.9,8.66,52.49,1.9741,394.8848],
    [2635,1537381185,53.3708,-110.8157,794.2,189.2,89.7,4.9,0.4,8.92,52.58,1.9748,395.538],
    [2636,1537381186,53.3709,-110.8144,793.8,189.6,89.7,4.3,0.1,9.02,52.1,1.9745,393.3153],
    [2637,1537381187,53.3709,-110.8133,793.8,189.8,89.4,4.0,-0.1,9.27,52.22,1.9789,393.3153],
    [2638,1537381188,53.3709,-110.812,794.3,190.3,89.9,5.5,0.6,9.47,52.03,1.9789,395.4626],
    [2639,1537381189,53.3709,-110.8108,793.9,189.9,89.5,5.2,0.3,8.6,52.53,1.9779,394.8831],
    [2640,1537381190,53.3709,-110.8097,792.6,189.3,89.1,5.3,-0.3,8.95,53.14,1.9771,395.6206],
    [2641,1537381191,53.3709,-110.8084,791.4,188.4,88.6,5.2,-1.0,9.73,52.16,1.976,393.732],
    [2642,1537381192,53.3709,-110.8072,791.4,188.3,89.3,4.6,-0.6,8.78,52.51,1.9762,394.4182],
    [2643,1537381193,53.3709,-110.806,791.9,186.9,89.5,4.6,-1.0,8.72,52.43,1.9754,394.4182],
    [2644,1537381194,53.3709,-110.8048,792.0,186.0,90.1,4.3,-0.7,9.4,51.91,1.9768,394.9951],
    [2645,1537381195,53.3709,-110.8036,792.2,186.2,90.4,5.0,-1.0,9.67,52.05,1.9776,394.7393],
    [2646,1537381196,53.3709,-110.8024,792.8,188.7,90.7,5.5,-1.0,9.27,52.76,1.9774,395.0338],
    [2647,1537381197,53.3708,-110.8012,792.8,192.5,91.7,5.2,-0.2,9.6,52.18,1.9777,395.0431],
    [2648,1537381198,53.3708,-110.8,792.8,196.4,91.5,5.4,-0.6,9.3,51.97,1.979,394.0508],
    [2649,1537381199,53.3708,-110.7988,794.0,200.3,91.3,6.1,-0.8,8.92,52.86,1.979,395.6253],
    [2650,1537381200,53.3708,-110.7976,794.7,201.5,91.5,5.3,-0.5,9.52,52.52,1.9796,395.7219],
    [2651,1537381201,53.3707,-110.7964,794.4,205.9,92.4,4.3,0.5,8.78,53.03,1.9795,394.9813],
    [2652,1537381202,53.3707,-110.7952,793.9,211.9,92.5,4.0,0.8,8.71,53.01,1.9785,395.6408],
    [2653,1537381203,53.3707,-110.794,793.2,215.5,93.1,3.6,1.9,9.16,52.72,1.9794,395.6735],
    [2654,1537381204,53.3707,-110.7928,792.6,218.4,92.5,3.9,1.5,9.16,52.51,1.9787,394.8261],
    [2655,1537381205,53.3707,-110.7916,792.9,219.3,91.1,3.7,0.5,8.78,53.7,1.9782,395.7489],
    [2656,1537381206,53.3707,-110.7904,793.5,220.5,90.1,3.8,-0.2,8.9,52.95,1.9785,398.0176],
    [2657,1537381207,53.3707,-110.7892,794.6,220.4,90.2,4.3,0.4,8.38,53.59,1.9797,394.1412],
    [2658,1537381208,53.3707,-110.788,795.2,214.5,90.6,5.2,0.6,8.87,53.54,1.9802,394.4133],
    [2659,1537381209,53.3707,-110.7868,794.8,205.0,89.9,5.5,-0.2,8.79,53.67,1.979,395.7342],
    [2660,1537381210,53.3707,-110.7856,794.5,196.3,90.6,5.5,0.2,9.01,54.21,1.9806,395.4654],
    [2661,1537381211,53.3707,-110.7844,794.2,186.9,90.7,5.6,0.2,8.49,54.56,1.9792,395.4654],
    [2662,1537381212,53.3706,-110.7832,793.4,183.9,91.8,5.8,1.0,8.84,54.17,1.9778,394.6689],
    [2663,1537381213,53.3706,-110.782,792.5,182.6,92.6,4.7,1.6,8.77,54.19,1.9748,394.2635],
    [2664,1537381214,53.3706,-110.7808,792.3,182.4,93.6,4.6,2.0,8.81,53.92,1.9769,394.231],
    [2665,1537381215,53.3706,-110.7796,793.3,185.2,93.0,4.6,0.9,8.84,53.97,1.9774,394.1886],
    [2666,1537381216,53.3706,-110.7784,794.0,191.3,92.7,5.8,0.5,8.95,53.58,1.9765,395.4062],
    [2667,1537381217,53.3705,-110.7772,793.7,202.7,92.7,5.0,0.9,8.55,53.49,1.976,393.8382],
    [2668,1537381218,53.3705,-110.776,793.3,212.8,91.9,5.2,0.4,8.75,53.41,1.9789,393.5033],
    [2669,1537381219,53.3705,-110.7748,794.5,219.1,90.4,3.8,-0.7,8.84,53.89,1.986,394.984],
    [2670,1537381220,53.3705,-110.7736,796.1,221.8,91.5,4.8,0.8,8.77,53.98,1.9939,394.8898],
    [2671,1537381221,53.3705,-110.7724,796.6,217.0,91.9,4.4,0.9,8.85,54.39,1.9877,395.3538],
    [2672,1537381222,53.3705,-110.7712,796.1,207.1,92.2,5.2,0.9,8.48,54.63,1.9883,394.7985],
    [2673,1537381223,53.3704,-110.77,795.4,193.7,93.4,4.8,2.3,8.69,54.78,1.9887,394.9162],
    [2674,1537381224,53.3704,-110.7687,795.1,188.1,93.1,5.1,2.2,8.27,54.99,1.991,395.1223],
    [2675,1537381225,53.3704,-110.7675,795.3,185.0,91.9,4.6,1.8,8.36,55.12,1.9899,395.1223],
    [2676,1537381226,53.3704,-110.7663,795.3,182.3,91.5,4.5,2.9,8.64,55.12,1.9903,393.7449],
    [2677,1537381227,53.3704,-110.7651,795.0,182.0,89.5,3.8,3.3,8.86,55.39,1.9862,394.7388],
    [2678,1537381228,53.3705,-110.7639,794.9,181.9,87.3,4.2,3.8,8.68,55.13,1.9831,394.0284],
    [2679,1537381229,53.3706,-110.7627,794.2,181.2,84.2,3.2,3.4,8.83,54.84,1.9829,394.0284],
    [2680,1537381230,53.3707,-110.7614,793.6,180.6,80.2,2.9,1.8,8.39,55.11,1.9811,394.7737],
    [2681,1537381231,53.3708,-110.7602,793.4,180.4,75.8,3.2,1.1,9.49,54.99,1.9789,393.7635],
    [2682,1537381232,53.3711,-110.759,793.5,179.8,73.4,3.4,2.2,8.53,54.89,1.978,395.7686],
    [2683,1537381233,53.3713,-110.7579,793.4,179.4,70.4,3.5,2.3,8.49,55.28,1.9779,392.9488],
    [2684,1537381234,53.3716,-110.7567,793.6,179.6,66.3,4.0,1.1,8.68,54.68,1.9795,393.6821],
    [2685,1537381235,53.3719,-110.7556,794.2,180.1,63.5,4.0,1.7,8.94,55.1,1.9818,392.6768],
    [2686,1537381236,53.3722,-110.7545,793.7,179.7,61.8,3.4,1.6,9.23,54.05,1.9772,395.6736],
    [2687,1537381237,53.3726,-110.7534,792.6,178.5,57.8,4.0,0.7,9.28,54.28,1.9778,394.7751],
    [2688,1537381238,53.373,-110.7524,792.5,178.4,55.5,3.2,1.0,8.69,54.09,1.9799,393.2686],
    [2689,1537381239,53.3734,-110.7514,791.8,176.8,52.4,3.5,0.4,8.54,54.15,1.975,394.6013],
    [2690,1537381240,53.3738,-110.7504,791.0,174.8,49.0,3.4,-0.3,8.33,54.01,1.9745,394.5133],
    [2691,1537381241,53.3743,-110.7495,790.5,173.7,45.2,4.3,-0.1,9.1,53.03,1.9763,394.5133],
    [2692,1537381242,53.3748,-110.7486,790.2,173.1,42.6,3.9,0.5,8.91,53.94,1.9786,395.0869],
    [2693,1537381243,53.3754,-110.7478,790.1,173.1,39.0,4.1,-0.1,9.39,52.97,1.9781,395.0489],
    [2694,1537381244,53.3759,-110.747,790.5,173.2,35.6,4.3,-0.2,8.79,53.28,1.9788,394.7629],
    [2695,1537381245,53.3765,-110.7463,790.9,173.9,32.5,4.6,0.2,8.79,53.95,1.9766,396.2961],
    [2696,1537381246,53.3771,-110.7457,791.0,174.0,29.9,4.8,1.0,9.23,53.27,1.9783,395.5121],
    [2697,1537381247,53.3777,-110.7451,790.6,173.6,26.5,5.1,0.5,9.13,52.92,1.9787,395.2909],
    [2698,1537381248,53.3783,-110.7445,789.9,172.9,24.4,3.7,1.0,9.32,53.13,1.9791,393.4023],
    [2699,1537381249,53.3789,-110.744,789.2,173.3,21.7,3.2,0.9,8.27,53.5,1.9795,396.7194],
    [2700,1537381250,53.3796,-110.7436,789.6,173.5,17.7,4.1,1.4,8.76,53.72,1.9792,394.6649],
    [2701,1537381251,53.3802,-110.7432,791.0,176.0,15.8,2.9,1.5,9.52,53.39,1.9757,394.6538],
    [2702,1537381252,53.3809,-110.7429,791.9,177.8,12.7,3.4,1.3,8.66,53.72,1.9752,394.6875],
    [2703,1537381253,53.3816,-110.7426,792.5,179.7,10.3,3.3,1.0,9.35,53.56,1.9759,394.1863],
    [2704,1537381254,53.3822,-110.7424,792.8,180.4,8.1,3.5,0.7,9.31,53.35,1.9771,395.0849],
    [2705,1537381255,53.3829,-110.7422,793.7,181.7,5.2,4.6,0.0,8.36,53.4,1.9772,394.8602],
    [2706,1537381256,53.3836,-110.742,794.2,182.2,3.1,5.5,0.1,8.87,53.22,1.9776,393.4089],
    [2707,1537381257,53.3842,-110.7419,794.7,182.8,361.9,6.1,0.9,8.85,54.08,1.9752,394.9003],
    [2708,1537381258,53.3849,-110.7418,794.7,182.6,360.7,6.8,1.5,8.88,53.25,1.975,394.9003],
    [2709,1537381259,53.3856,-110.7417,794.7,183.7,360.7,6.4,2.0,9.17,53.0,1.979,395.6933],
    [2710,1537381260,53.3863,-110.7416,794.3,183.3,361.4,5.3,1.3,9.36,53.0,1.9799,394.9752],
    [2711,1537381261,53.387,-110.7415,793.8,183.8,362.0,4.2,1.3,8.85,53.6,1.9809,395.4233],
    [2712,1537381262,53.3876,-110.7414,794.4,184.3,361.9,3.5,1.4,8.89,54.28,1.9808,393.9797],
    [2713,1537381263,53.3883,-110.7413,794.3,185.3,360.9,3.7,1.0,8.8,54.53,1.9816,395.1],
    [2714,1537381264,53.389,-110.7412,793.8,185.9,358.7,4.1,1.6,8.86,54.75,1.9826,394.3701],
    [2715,1537381265,53.3897,-110.7412,793.9,185.9,356.7,4.0,1.2,9.09,54.45,1.9821,396.1344],
    [2716,1537381266,53.3903,-110.7412,794.5,186.5,355.0,3.8,0.7,8.62,55.19,1.9878,394.8947],
    [2717,1537381267,53.391,-110.7413,794.6,186.6,353.5,3.6,1.4,8.91,55.22,1.986,395.5153],
    [2718,1537381268,53.3917,-110.7414,793.7,184.7,351.7,4.2,-0.2,8.88,55.74,1.9873,395.233],
    [2719,1537381269,53.3924,-110.7415,792.6,182.6,351.3,3.2,-0.2,8.68,55.75,1.9892,394.6007],
    [2720,1537381270,53.3931,-110.7416,793.2,183.1,349.0,4.7,-0.1,8.7,56.04,1.9903,395.2407],
    [2721,1537381271,53.3937,-110.7418,793.8,182.8,348.0,4.9,-1.0,9.48,55.56,1.9909,394.9946],
    [2722,1537381272,53.3944,-110.742,794.3,183.3,348.2,4.2,-0.5,8.7,55.92,1.9903,395.1124],
    [2723,1537381273,53.3951,-110.7421,795.9,185.6,348.7,4.0,0.6,9.51,55.64,1.9894,395.199],
    [2724,1537381274,53.3957,-110.7423,796.2,186.1,349.2,4.7,0.2,9.48,55.75,1.9909,396.2498],
    [2725,1537381275,53.3964,-110.7424,794.7,186.2,349.9,4.8,1.0,9.56,55.62,1.9906,396.3515],
    [2726,1537381276,53.3971,-110.7425,793.6,189.3,351.7,4.2,2.5,9.64,55.89,1.9883,396.1202],
    [2727,1537381277,53.3978,-110.7426,793.4,193.2,352.8,4.5,0.9,8.82,56.57,1.9889,395.1786],
    [2728,1537381278,53.3984,-110.7427,793.6,200.2,354.4,3.1,1.5,8.92,56.88,1.9889,396.078],
    [2729,1537381279,53.3991,-110.7428,793.0,204.1,355.0,3.2,1.6,8.85,56.91,1.9871,394.1966],
    [2730,1537381280,53.3998,-110.7428,792.7,213.1,354.5,4.1,0.3,8.65,56.33,1.9866,395.7866],
    [2731,1537381281,53.4005,-110.7429,792.3,216.3,354.9,3.9,-0.4,8.75,56.17,1.9856,394.7489],
    [2732,1537381282,53.4012,-110.7429,791.3,219.3,354.6,4.2,0.1,8.97,55.77,1.9835,393.7231],
    [2733,1537381283,53.4019,-110.7429,790.5,219.5,355.6,3.0,0.1,8.56,55.55,1.9822,394.4355],
    [2734,1537381284,53.4026,-110.743,790.9,219.9,355.3,3.6,-0.2,9.15,55.08,1.9823,393.176],
    [2735,1537381285,53.4032,-110.743,792.3,221.0,355.3,3.7,-0.3,8.84,55.02,1.9823,395.307],
    [2736,1537381286,53.4039,-110.7431,792.7,219.5,355.7,3.4,-0.4,8.95,54.59,1.981,395.2192],
    [2737,1537381287,53.4046,-110.7431,792.3,213.9,354.9,4.3,0.5,9.65,54.08,1.9836,394.5254],
    [2738,1537381288,53.4053,-110.7431,791.7,207.8,355.3,3.5,-0.5,8.77,54.44,1.9833,392.0758],
    [2739,1537381289,53.406,-110.7432,792.5,198.6,356.0,2.6,-0.8,8.72,54.41,1.9816,394.6357],
    [2740,1537381290,53.4066,-110.7432,793.8,194.7,355.6,3.3,-0.5,8.95,54.84,1.9837,394.5964],
    [2741,1537381291,53.4073,-110.7432,794.8,189.3,355.2,3.5,0.2,8.39,54.37,1.9822,395.4161],
    [2742,1537381292,53.408,-110.7433,796.1,187.8,355.8,2.8,0.0,8.69,54.63,1.9823,394.7582],
    [2743,1537381293,53.4086,-110.7433,796.6,186.6,354.9,4.0,0.1,8.55,54.66,1.9813,395.1377],
    [2744,1537381294,53.4093,-110.7434,795.6,186.3,354.1,4.9,-1.3,8.73,54.8,1.9776,394.4714],
    [2745,1537381295,53.41,-110.7434,794.7,187.0,354.3,4.9,-1.3,8.7,54.31,1.9777,394.4714],
    [2746,1537381296,53.4106,-110.7435,794.4,188.5,354.2,4.9,-0.9,8.83,53.87,1.9788,395.4399],
    [2747,1537381297,53.4114,-110.7435,793.3,187.3,354.9,4.2,-0.4,8.49,53.01,1.9799,395.5625],
    [2748,1537381298,53.412,-110.7435,792.6,184.6,354.5,5.1,-0.4,9.09,52.47,1.971,394.1453],
    [2749,1537381299,53.4127,-110.7436,792.2,182.3,354.6,5.1,0.0,8.93,52.39,1.9727,393.9937],
    [2750,1537381300,53.4134,-110.7436,792.0,180.2,355.0,5.2,0.0,8.81,51.8,1.9745,393.9698],
    [2751,1537381301,53.4141,-110.7436,791.9,179.9,355.5,4.7,0.9,8.9,51.53,1.9774,394.165],
    [2752,1537381302,53.4147,-110.7436,791.9,178.9,356.5,3.9,0.8,8.49,51.35,1.9801,394.5087],
    [2753,1537381303,53.4154,-110.7436,792.5,178.5,355.9,5.1,-0.4,9.14,51.24,1.9796,392.5968],
    [2754,1537381304,53.4161,-110.7436,794.1,179.1,355.7,5.2,0.4,9.5,51.39,1.9805,395.4178],
    [2755,1537381305,53.4167,-110.7436,794.9,179.9,357.7,3.1,1.8,8.88,52.39,1.9796,395.4756],
    [2756,1537381306,53.4174,-110.7436,793.2,178.2,356.9,4.4,1.6,8.88,52.61,1.979,395.336],
    [2757,1537381307,53.4181,-110.7436,791.5,176.5,356.4,5.0,0.6,8.5,53.11,1.9796,395.2744],
    [2758,1537381308,53.4188,-110.7436,790.3,175.3,357.0,4.6,1.2,8.8,53.3,1.978,395.143],
    [2759,1537381309,53.4195,-110.7436,790.7,175.7,356.8,5.1,1.6,8.59,53.05,1.9789,394.8706],
    [2760,1537381310,53.4202,-110.7436,790.9,175.4,356.3,5.5,0.9,9.01,52.9,1.9777,395.5753],
    [2761,1537381311,53.4208,-110.7436,790.7,175.8,356.3,5.1,1.9,8.92,52.45,1.9782,395.3006],
    [2762,1537381312,53.4215,-110.7436,790.4,175.9,356.4,4.8,1.6,9.28,52.24,1.9793,395.3006],
    [2763,1537381313,53.4222,-110.7436,791.1,177.1,356.6,4.3,1.8,8.69,52.75,1.9797,395.1013],
    [2764,1537381314,53.4229,-110.7436,791.2,176.5,357.7,3.3,2.6,8.8,52.36,1.9779,394.9748],
    [2765,1537381315,53.4236,-110.7436,789.9,174.2,356.1,5.5,1.6,9.21,51.65,1.9775,394.8142],
    [2766,1537381316,53.4243,-110.7436,788.9,172.1,356.6,4.3,2.5,8.56,52.25,1.9785,394.6554],
    [2767,1537381317,53.4249,-110.7436,788.5,170.4,357.6,3.4,3.2,9.21,51.69,1.9788,394.6325],
    [2768,1537381318,53.4256,-110.7436,788.8,170.9,356.4,4.9,2.9,8.76,52.14,1.9804,394.8169],
    [2769,1537381319,53.4263,-110.7436,789.2,171.2,357.5,3.9,2.0,8.79,52.41,1.9813,395.865],
    [2770,1537381320,53.427,-110.7436,789.7,171.8,358.2,3.3,2.1,8.46,52.08,1.9814,393.7822],
    [2771,1537381321,53.4277,-110.7435,790.0,171.0,358.3,3.1,2.7,9.49,52.12,1.9819,395.7373],
    [2772,1537381322,53.4284,-110.7435,790.4,169.9,357.5,4.0,3.2,8.72,53.3,1.9856,395.1348],
    [2773,1537381323,53.429,-110.7435,791.3,170.2,357.4,3.7,2.7,8.36,52.98,1.9843,394.6377],
    [2774,1537381324,53.4297,-110.7435,792.8,170.8,358.6,2.4,2.6,8.98,54.0,1.9859,394.6377],
    [2775,1537381325,53.4304,-110.7435,793.3,172.3,357.3,4.1,2.9,8.52,53.99,1.9859,395.6723],
    [2776,1537381326,53.4311,-110.7435,793.0,172.0,356.8,4.3,1.6,8.82,54.92,1.9893,395.5926],
    [2777,1537381327,53.4318,-110.7435,792.6,170.7,357.9,2.8,2.8,8.59,54.99,1.9909,395.7512],
    [2778,1537381328,53.4325,-110.7435,793.7,169.9,358.9,1.3,2.3,8.57,55.62,1.9928,396.6704],
    [2779,1537381329,53.4332,-110.7435,794.5,169.3,357.8,2.9,2.6,8.93,55.72,1.9922,396.0214],
    [2780,1537381330,53.4339,-110.7435,794.1,168.4,357.9,2.7,0.7,8.88,57.0,1.9932,395.7988],
    [2781,1537381331,53.4346,-110.7435,793.2,169.3,358.9,2.1,0.4,9.04,57.07,1.992,396.8818],
    [2782,1537381332,53.4353,-110.7435,793.2,170.4,357.9,3.3,0.5,8.71,56.69,1.9926,396.7739],
    [2783,1537381333,53.4359,-110.7435,793.6,172.4,358.8,2.2,0.1,8.73,56.64,1.9968,395.6338],
    [2784,1537381334,53.4366,-110.7435,794.0,173.0,358.9,2.1,0.4,8.71,57.06,1.9924,397.722],
    [2785,1537381335,53.4373,-110.7435,794.0,173.8,358.6,2.2,1.5,8.17,56.49,1.9925,397.0092],
    [2786,1537381336,53.438,-110.7434,793.5,173.5,358.3,2.3,0.8,8.95,56.52,1.9909,396.1442],
    [2787,1537381337,53.4387,-110.7435,792.9,171.9,356.9,3.8,1.2,8.77,56.52,1.9891,396.5517],
    [2788,1537381338,53.4394,-110.7435,792.7,170.7,356.5,3.9,1.3,8.76,56.61,1.9863,395.9778],
    [2789,1537381339,53.4401,-110.7435,794.1,172.6,357.4,3.5,0.0,8.14,56.6,1.979,395.5942],
    [2790,1537381340,53.4408,-110.7435,795.5,174.5,356.7,4.6,-0.1,8.34,56.49,1.9772,395.5462],
    [2791,1537381341,53.4415,-110.7435,795.6,174.6,358.7,2.8,0.2,8.53,55.7,1.9767,395.6545],
    [2792,1537381342,53.4422,-110.7434,795.3,174.3,358.0,4.4,-0.7,9.02,54.45,1.9739,393.8809],
    [2793,1537381343,53.4429,-110.7434,795.4,173.4,358.0,4.3,-1.1,8.1,54.37,1.9758,393.535],
    [2794,1537381344,53.4436,-110.7434,795.0,173.0,359.3,3.0,-0.3,8.91,53.37,1.9739,393.4278],
    [2795,1537381345,53.4443,-110.7434,795.1,173.1,358.6,3.8,-0.7,9.5,52.65,1.9726,394.7381],
    [2796,1537381346,53.445,-110.7433,794.9,172.9,357.7,4.7,-0.4,8.85,52.81,1.9723,394.9098],
    [2797,1537381347,53.4457,-110.7433,794.5,172.5,356.9,5.3,0.2,8.82,52.97,1.9738,394.5989],
    [2798,1537381348,53.4464,-110.7433,793.6,171.6,357.0,5.0,0.0,8.83,52.73,1.9724,395.4691],
    [2799,1537381349,53.4471,-110.7433,793.0,171.0,356.3,5.6,0.0,8.82,52.11,1.9724,393.9317],
    [2800,1537381350,53.4478,-110.7433,793.2,172.2,356.2,5.4,-0.6,8.85,51.83,1.9725,395.3817],
    [2801,1537381351,53.4485,-110.7433,793.3,173.3,356.5,4.9,0.3,9.51,50.83,1.9731,394.2398],
    [2802,1537381352,53.4492,-110.7433,792.7,172.7,356.5,4.7,-0.3,9.09,50.85,1.9749,394.8871],
    [2803,1537381353,53.4499,-110.7433,792.1,172.1,356.5,4.2,0.7,8.67,51.38,1.9751,394.8536],
    [2804,1537381354,53.4505,-110.7433,792.9,172.9,355.1,4.9,0.4,8.65,51.51,1.9733,395.2041],
    [2805,1537381355,53.4513,-110.7433,793.2,173.9,355.1,4.3,0.7,9.41,51.35,1.9683,395.9611],
    [2806,1537381356,53.452,-110.7434,792.2,172.5,354.3,5.0,1.8,8.5,51.56,1.9671,394.0712],
    [2807,1537381357,53.4527,-110.7434,790.8,170.9,354.4,4.7,1.7,8.27,51.19,1.9654,393.7745],
    [2808,1537381358,53.4534,-110.7434,790.3,170.3,354.6,4.6,1.4,8.75,50.41,1.9635,392.6109],
    [2809,1537381359,53.4541,-110.7435,790.7,170.7,354.8,4.5,1.6,8.85,50.15,1.9655,393.4306],
    [2810,1537381360,53.4548,-110.7435,790.9,170.9,355.1,4.5,1.2,8.85,49.1,1.9733,394.7979],
    [2811,1537381361,53.4555,-110.7435,790.7,170.7,355.2,4.3,2.3,8.64,49.39,1.9758,395.5654],
    [2812,1537381362,53.4562,-110.7436,790.6,170.6,355.1,4.5,2.7,8.82,49.68,1.975,394.0603],
    [2813,1537381363,53.4569,-110.7436,790.7,169.7,354.6,4.9,2.6,8.16,49.58,1.9719,395.5181],
    [2814,1537381364,53.4576,-110.7436,790.8,168.8,355.2,4.1,2.5,9.11,49.63,1.9738,397.0423],
    [2815,1537381365,53.4583,-110.7437,791.4,169.1,355.7,3.3,1.8,8.77,50.38,1.9751,395.2525],
    [2816,1537381366,53.4589,-110.7437,792.2,168.8,357.2,1.8,1.8,8.8,50.64,1.9761,395.1801],
    [2817,1537381367,53.4596,-110.7437,793.2,169.2,356.9,2.2,0.8,9.23,50.68,1.9777,396.6504],
    [2818,1537381368,53.4603,-110.7438,794.4,170.4,356.3,2.8,-0.7,8.8,51.84,1.9781,394.919],
    [2819,1537381369,53.461,-110.7438,795.0,170.3,356.6,2.1,-0.5,8.13,52.01,1.9778,395.3652],
    [2820,1537381370,53.4617,-110.7438,795.8,170.8,356.9,1.6,0.1,9.31,52.45,1.9796,396.5713],
    [2821,1537381371,53.4624,-110.7439,795.8,170.8,356.0,2.5,-0.5,8.94,52.65,1.976,395.8783],
    [2822,1537381372,53.4631,-110.7439,794.8,169.7,354.8,3.6,-0.5,8.38,52.61,1.9751,394.8224],
    [2823,1537381373,53.4637,-110.744,794.4,169.4,354.4,3.7,0.1,8.45,52.63,1.9761,394.8224],
    [2824,1537381374,53.4645,-110.744,794.5,169.5,353.8,4.3,1.8,8.68,52.81,1.9762,394.9044],
    [2825,1537381375,53.4652,-110.7441,793.2,168.2,353.7,4.5,1.5,8.62,52.35,1.9758,394.9044],
    [2826,1537381376,53.4659,-110.7442,791.7,166.7,353.9,4.4,1.4,9.31,51.92,1.9758,395.91],
    [2827,1537381377,53.4666,-110.7442,790.9,166.0,354.3,4.1,1.2,8.66,52.2,1.9752,396.2193],
    [2828,1537381378,53.4673,-110.7443,790.5,167.0,354.9,3.6,2.1,9.52,51.98,1.9746,396.0691],
    [2829,1537381379,53.468,-110.7443,790.3,168.3,355.0,3.8,2.1,8.76,52.38,1.9759,396.159],
    [2830,1537381380,53.4687,-110.7443,790.9,169.9,354.6,4.4,0.7,8.68,52.65,1.9759,394.4593],
    [2831,1537381381,53.4694,-110.7444,792.0,170.0,355.5,3.4,1.2,8.18,52.11,1.9755,396.7762],
    [2832,1537381382,53.4701,-110.7444,793.1,170.1,355.6,3.2,2.4,8.55,52.1,1.9764,389.9768],
    [2833,1537381383,53.4707,-110.7445,793.7,170.4,355.5,3.3,3.5,8.76,52.12,1.977,394.9158],
    [2834,1537381384,53.4714,-110.7445,793.7,169.7,355.7,3.0,2.5,8.86,52.18,1.9779,396.897],
    [2835,1537381385,53.4721,-110.7445,792.8,168.8,354.9,4.0,2.2,8.22,52.85,1.9762,394.6173],
    [2836,1537381386,53.4728,-110.7446,792.3,169.3,354.6,3.7,2.5,8.65,52.54,1.9755,393.4939],
    [2837,1537381387,53.4735,-110.7446,791.1,168.1,355.1,3.4,2.2,8.87,53.17,1.9749,396.2531],
    [2838,1537381388,53.4742,-110.7447,790.3,167.3,354.6,4.0,2.2,8.66,52.44,1.9768,396.1695],
    [2839,1537381389,53.4749,-110.7447,790.9,167.9,354.9,3.9,1.1,8.1,52.66,1.9759,396.5395],
    [2840,1537381390,53.4756,-110.7448,792.2,169.5,355.1,3.6,1.5,8.63,52.62,1.9751,395.3347],
    [2841,1537381391,53.4763,-110.7448,792.5,169.5,355.5,3.0,2.3,8.81,52.84,1.9751,396.6308],
    [2842,1537381392,53.477,-110.7449,792.2,169.2,355.0,3.4,1.7,8.88,51.95,1.9762,396.2826],
    [2843,1537381393,53.4777,-110.7449,792.5,170.1,355.7,2.7,2.4,8.82,52.49,1.9755,395.9558],
    [2844,1537381394,53.4784,-110.7449,792.8,172.5,355.9,2.9,1.4,8.51,52.2,1.9761,396.1455],
    [2845,1537381395,53.4791,-110.745,793.6,174.4,357.2,1.6,0.0,8.65,52.13,1.9762,397.0996],
    [2846,1537381396,53.4798,-110.745,794.6,175.5,357.6,1.5,1.4,8.54,52.31,1.9751,396.3059],
    [2847,1537381397,53.4805,-110.745,795.2,176.2,355.5,4.1,2.2,8.83,52.24,1.9731,393.2216],
    [2848,1537381398,53.4812,-110.7451,794.9,174.9,354.2,5.2,1.5,8.89,53.16,1.9728,397.3138],
    [2849,1537381399,53.4819,-110.7451,793.7,172.7,353.8,5.7,1.7,9.48,52.0,1.9719,396.1015],
    [2850,1537381400,53.4826,-110.7452,791.8,169.8,353.5,6.0,0.5,8.77,52.2,1.9703,394.5478],
    [2851,1537381401,53.4833,-110.7452,791.1,168.0,354.5,5.0,0.4,9.25,51.53,1.9682,395.5957],
    [2852,1537381402,53.484,-110.7452,790.9,165.8,355.1,4.8,1.0,8.8,51.42,1.9698,395.4195],
    [2853,1537381403,53.4847,-110.7452,790.8,165.8,355.6,4.9,1.1,8.94,51.18,1.9713,395.4195],
    [2854,1537381404,53.4854,-110.7453,790.9,167.0,356.4,4.3,1.2,8.63,51.3,1.9714,396.9497],
    [2855,1537381405,53.4861,-110.7453,791.8,168.9,357.4,3.3,1.0,9.26,50.76,1.9746,397.0806],
    [2856,1537381406,53.4868,-110.7453,792.1,170.3,358.0,2.6,0.4,8.82,51.72,1.9746,397.2453],
    [2857,1537381407,53.4875,-110.7453,793.7,171.0,357.1,3.9,0.9,8.41,51.77,1.9734,397.0549],
    [2858,1537381408,53.4882,-110.7453,795.1,170.4,355.4,5.8,-1.3,8.78,52.07,1.9716,396.5498],
    [2859,1537381409,53.4889,-110.7453,795.2,168.3,355.5,5.4,-0.8,8.96,52.3,1.972,396.2777],
    [2860,1537381410,53.4896,-110.7453,794.4,168.5,355.8,4.8,-0.8,8.85,52.0,1.9728,396.5087],
    [2861,1537381411,53.4903,-110.7453,794.1,169.2,355.5,5.0,0.7,8.77,52.37,1.9716,397.068],
    [2862,1537381412,53.491,-110.7453,793.8,170.6,355.0,5.2,0.9,8.91,51.84,1.9711,396.4881],
    [2863,1537381413,53.4917,-110.7454,793.4,171.4,355.3,4.8,0.5,8.68,51.8,1.9728,396.4244],
    [2864,1537381414,53.4924,-110.7454,793.0,171.0,355.9,4.1,0.8,8.58,52.2,1.9734,396.3369],
    [2865,1537381415,53.4931,-110.7454,792.8,171.8,356.2,3.9,1.1,8.84,52.2,1.9731,395.6508],
    [2866,1537381416,53.4938,-110.7454,792.5,171.6,356.0,4.2,1.3,9.01,52.19,1.9734,397.2731],
    [2867,1537381417,53.4945,-110.7454,791.8,173.0,355.5,4.6,1.7,8.57,52.4,1.9746,396.3825],
    [2868,1537381418,53.4952,-110.7455,791.2,175.7,355.3,4.4,2.5,8.74,52.86,1.9709,396.2387],
    [2869,1537381419,53.4959,-110.7455,791.2,181.5,354.9,4.8,2.6,9.3,51.99,1.9681,395.761],
    [2870,1537381420,53.4966,-110.7455,792.2,182.7,354.7,4.9,2.5,8.79,52.69,1.9679,395.4214],
    [2871,1537381421,53.4973,-110.7455,793.2,184.2,354.5,4.9,3.0,8.43,51.94,1.9693,395.4544],
    [2872,1537381422,53.498,-110.7456,793.3,184.5,355.9,3.4,2.2,9.12,51.5,1.9703,395.679],
    [2873,1537381423,53.4987,-110.7456,793.6,184.9,354.2,5.4,2.4,8.98,51.4,1.9711,396.074],
    [2874,1537381424,53.4994,-110.7456,793.8,185.0,354.8,4.3,3.1,8.73,51.46,1.9729,393.8888],
    [2875,1537381425,53.5001,-110.7457,793.6,184.7,354.2,5.1,3.1,8.64,51.53,1.9748,395.0959],
    [2876,1537381426,53.5008,-110.7457,792.9,183.9,355.7,3.2,3.0,8.53,51.54,1.9733,395.5697],
    [2877,1537381427,53.5015,-110.7457,792.0,183.0,356.8,2.4,1.9,8.13,51.54,1.9768,395.3398],
    [2878,1537381428,53.5022,-110.7458,791.6,182.6,356.7,2.4,0.1,8.33,51.49,1.9833,395.2517],
    [2879,1537381429,53.5029,-110.7458,791.8,182.8,357.2,2.0,0.5,8.69,51.02,1.981,395.8623],
    [2880,1537381430,53.5036,-110.7458,791.1,182.1,355.5,4.0,0.4,8.74,51.63,1.9793,395.9083],
    [2881,1537381431,53.5043,-110.7459,790.7,181.7,354.9,4.1,0.9,8.61,51.17,1.9813,396.612],
    [2882,1537381432,53.505,-110.7459,790.6,181.6,354.9,3.8,1.8,8.6,51.09,1.9824,396.1566],
    [2883,1537381433,53.5057,-110.746,790.0,181.0,355.0,3.6,1.2,8.69,51.09,1.9893,396.3014],
    [2884,1537381434,53.5064,-110.746,790.1,181.1,355.2,3.6,0.3,8.78,52.0,1.9918,397.7058],
    [2885,1537381435,53.5071,-110.7461,791.1,182.1,355.8,2.9,1.0,8.83,51.89,1.9932,397.7058],
    [2886,1537381436,53.5078,-110.7461,791.5,182.5,356.2,2.6,0.5,8.54,52.76,1.9949,397.1331],
    [2887,1537381437,53.5085,-110.7461,791.1,182.1,356.1,2.7,1.1,8.3,52.75,1.9971,396.7395],
    [2888,1537381438,53.5092,-110.7462,791.4,182.3,355.3,3.5,0.5,8.68,52.87,1.9978,397.7691],
    [2889,1537381439,53.5098,-110.7462,791.9,182.8,355.4,3.1,-0.2,8.72,53.12,1.997,395.8796],
    [2890,1537381440,53.5106,-110.7463,792.6,177.6,355.9,2.5,0.3,8.66,52.82,1.9945,396.4287],
    [2891,1537381441,53.5112,-110.7463,792.9,173.8,355.5,3.1,-0.4,8.35,53.25,1.9941,396.4525],
    [2892,1537381442,53.5119,-110.7464,794.5,173.5,355.5,3.0,0.0,8.48,53.44,1.9967,396.1769],
    [2893,1537381443,53.5126,-110.7464,795.8,173.7,355.7,2.6,0.5,8.74,53.33,1.9915,394.2018],
    [2894,1537381444,53.5133,-110.7464,794.8,170.0,356.2,1.9,0.6,8.89,53.2,1.9861,394.5728],
    [2895,1537381445,53.514,-110.7465,793.1,166.9,356.0,2.4,0.3,9.39,52.41,1.989,396.3975],
    [2896,1537381446,53.5147,-110.7465,792.1,164.0,355.4,3.4,0.2,9.09,51.95,1.9954,395.1322],
    [2897,1537381447,53.5154,-110.7466,792.1,162.0,355.6,3.4,-0.1,8.95,52.03,1.9988,397.0866],
    [2898,1537381448,53.5161,-110.7466,791.8,161.8,355.7,3.6,-0.3,8.65,52.35,1.9984,396.4118],
    [2899,1537381449,53.5168,-110.7466,791.4,162.3,355.4,4.0,0.4,9.17,52.34,2.0013,396.6576],
    [2900,1537381450,53.5175,-110.7467,791.2,163.3,355.5,4.1,0.0,8.94,53.12,2.0009,396.473],
    [2901,1537381451,53.5182,-110.7467,791.3,164.5,355.5,4.2,0.3,8.79,53.09,2.0041,396.5829],
    [2902,1537381452,53.5189,-110.7467,791.5,165.4,355.3,4.4,0.7,8.85,53.08,2.0035,397.2343],
    [2903,1537381453,53.5196,-110.7468,791.9,166.8,355.3,4.4,1.1,8.67,53.33,2.0031,396.6417],
    [2904,1537381454,53.5202,-110.7468,792.4,168.3,355.0,4.7,1.7,8.4,53.78,2.0049,396.2456],
    [2905,1537381455,53.5209,-110.7468,792.0,167.9,355.4,4.7,1.2,8.9,54.16,2.0039,395.9381],
    [2906,1537381456,53.5216,-110.7468,791.3,166.6,355.4,4.9,0.7,8.25,53.93,1.9992,396.6216],
    [2907,1537381457,53.5223,-110.7468,790.8,165.7,355.9,4.6,0.4,8.25,53.49,1.9999,395.1983],
    [2908,1537381458,53.523,-110.7469,792.9,168.8,355.7,5.0,-0.4,8.56,53.35,1.9974,394.6346],
    [2909,1537381459,53.5237,-110.7469,794.9,170.7,356.2,4.6,-0.4,8.68,53.31,1.9959,394.6346],
    [2910,1537381460,53.5244,-110.7469,795.4,170.9,356.1,4.9,-0.1,9.24,52.52,1.9931,393.9382],
    [2911,1537381461,53.5251,-110.7469,795.0,170.0,356.4,4.5,0.0,8.65,53.17,1.9941,395.0399],
    [2912,1537381462,53.5257,-110.7469,794.2,169.2,356.7,4.2,-0.1,9.38,52.26,1.9948,394.8095],
    [2913,1537381463,53.5264,-110.7469,793.4,169.5,356.7,4.0,0.2,8.83,51.9,1.9949,393.9295],
    [2914,1537381464,53.5271,-110.7469,793.2,169.2,356.0,5.2,-0.1,8.89,52.21,1.9954,394.6302],
    [2915,1537381465,53.5278,-110.7469,793.9,168.9,355.9,5.3,0.9,8.77,52.57,1.995,395.2144],
    [2916,1537381466,53.5285,-110.7469,794.6,167.9,356.2,5.3,1.5,8.57,52.16,1.9947,394.9538],
    [2917,1537381467,53.5292,-110.7469,794.7,165.8,355.8,5.7,0.4,9.28,51.71,1.9951,394.8267],
    [2918,1537381468,53.5299,-110.7469,794.6,165.4,356.4,4.9,1.9,8.67,52.48,1.9958,394.1731],
    [2919,1537381469,53.5306,-110.7469,793.7,162.7,355.9,5.5,2.1,8.19,52.27,1.995,393.5785],
    [2920,1537381470,53.5313,-110.7469,791.6,159.6,356.5,5.0,0.7,8.68,52.88,1.9931,394.931],
    [2921,1537381471,53.532,-110.7469,790.0,159.1,356.9,4.9,1.5,8.73,52.19,1.9933,395.1809],
    [2922,1537381472,53.5327,-110.7469,790.4,160.5,356.7,5.0,0.8,8.38,52.84,1.9939,395.418],
    [2923,1537381473,53.5334,-110.7468,792.2,162.2,357.5,3.6,3.2,8.82,52.52,1.9946,395.692],
    [2924,1537381474,53.5341,-110.7468,791.7,160.8,357.0,4.2,2.4,9.25,52.26,1.995,394.9848],
    [2925,1537381475,53.5348,-110.7468,790.8,159.8,356.2,4.5,2.6,8.22,52.87,1.994,394.7425],
    [2926,1537381476,53.5355,-110.7469,790.3,159.3,356.4,3.7,1.8,8.26,52.96,1.9905,393.8201],
    [2927,1537381477,53.5361,-110.7469,790.2,159.3,356.5,3.5,0.4,8.7,53.23,1.9878,394.9523],
    [2928,1537381478,53.5369,-110.7469,789.6,157.9,356.2,3.5,0.6,9.06,52.36,1.9876,394.9523],
    [2929,1537381479,53.5376,-110.7469,789.3,156.1,356.1,3.4,1.2,8.43,52.65,1.9879,394.4818],
    [2930,1537381480,53.5383,-110.7469,789.7,156.4,356.6,2.8,-1.0,9.06,52.26,1.9814,393.903],
    [2931,1537381481,53.539,-110.747,791.6,156.3,356.6,2.9,0.4,9.26,52.14,1.9832,393.4018],
    [2932,1537381482,53.5396,-110.747,792.3,155.3,356.3,3.2,0.3,8.67,52.22,1.9842,394.6797],
    [2933,1537381483,53.5403,-110.747,791.6,154.5,357.0,2.3,0.4,8.63,52.17,1.9836,394.4243],
    [2934,1537381484,53.541,-110.7471,791.0,155.7,356.4,2.9,0.7,9.04,51.99,1.9868,394.5686],
    [2935,1537381485,53.5417,-110.7471,790.9,159.5,355.4,4.0,1.0,8.58,51.86,1.9847,393.2628],
    [2936,1537381486,53.5424,-110.7471,792.1,163.1,354.8,4.3,0.9,9.21,51.27,1.9823,392.0153],
    [2937,1537381487,53.5431,-110.7472,793.7,165.4,356.3,2.6,0.9,8.73,51.86,1.9789,395.6327],
    [2938,1537381488,53.5438,-110.7472,794.5,165.5,355.9,3.8,0.8,8.52,52.02,1.9796,392.9142],
    [2939,1537381489,53.5445,-110.7472,793.6,161.6,355.4,4.8,1.0,8.73,52.12,1.986,395.8664],
    [2940,1537381490,53.5452,-110.7472,792.6,159.6,355.3,5.1,0.5,9.07,52.09,1.9875,395.3273],
    [2941,1537381491,53.5459,-110.7472,792.5,155.8,356.4,3.6,0.7,8.14,52.27,1.9843,395.4136],
    [2942,1537381492,53.5466,-110.7473,792.3,152.9,356.6,3.3,1.0,8.27,52.13,1.983,395.679],
    [2943,1537381493,53.5473,-110.7473,792.7,151.7,355.8,4.1,0.1,8.47,52.46,1.9706,393.6256],
    [2944,1537381494,53.5479,-110.7473,793.4,154.4,355.3,4.5,-0.3,8.78,52.94,1.9667,394.0167],
    [2945,1537381495,53.5487,-110.7473,792.9,157.0,355.4,4.4,-0.9,8.45,51.85,1.9645,394.3795],
    [2946,1537381496,53.5493,-110.7474,792.6,157.4,355.4,4.5,-0.4,8.55,51.45,1.9634,393.7336],
    [2947,1537381497,53.55,-110.7474,792.4,161.7,354.8,5.3,0.1,8.76,51.28,1.967,393.6733],
    [2948,1537381498,53.5507,-110.7474,792.3,166.0,355.2,4.7,0.5,8.75,50.42,1.962,393.3196],
    [2949,1537381499,53.5514,-110.7474,792.2,172.1,355.7,4.1,0.9,8.78,49.96,1.9609,393.2776],
    [2950,1537381500,53.5521,-110.7475,792.6,175.6,355.7,4.3,1.0,9.01,49.29,1.9618,394.0632],
    [2951,1537381501,53.5528,-110.7475,792.8,176.8,355.5,4.7,1.6,8.83,49.18,1.962,394.7212],
    [2952,1537381502,53.5535,-110.7475,793.1,175.6,355.3,4.8,1.1,8.55,49.19,1.9608,393.631],
    [2953,1537381503,53.5542,-110.7475,794.0,170.0,356.5,3.2,0.8,8.32,48.82,1.9625,394.5246],
    [2954,1537381504,53.5549,-110.7475,794.3,167.2,355.3,5.2,0.3,8.33,49.0,1.9629,394.8796],
    [2955,1537381505,53.5556,-110.7476,793.1,164.5,355.2,5.1,0.4,8.83,49.45,1.9626,394.8931],
    [2956,1537381506,53.5563,-110.7476,791.9,165.4,355.8,4.9,0.4,9.0,48.69,1.964,395.3467],
    [2957,1537381507,53.557,-110.7476,790.9,170.4,356.3,4.4,1.2,8.86,49.62,1.9642,394.4487],
    [2958,1537381508,53.5577,-110.7476,789.9,172.1,357.7,3.1,0.8,8.61,48.98,1.9643,394.3685],
    [2959,1537381509,53.5583,-110.7476,789.9,174.0,356.5,4.5,0.3,8.48,49.13,1.966,392.7482],
    [2960,1537381510,53.559,-110.7476,789.9,174.2,355.8,5.0,-0.1,8.75,48.86,1.9704,394.2702],
    [2961,1537381511,53.5597,-110.7476,789.8,173.0,355.8,5.2,-0.3,8.58,49.32,1.9717,393.3082],
    [2962,1537381512,53.5604,-110.7476,789.9,172.9,354.9,6.0,0.3,8.46,49.56,1.9724,393.953],
    [2963,1537381513,53.5611,-110.7476,790.1,172.1,355.3,5.5,0.1,8.68,50.28,1.9724,394.3851],
    [2964,1537381514,53.5618,-110.7476,791.3,171.7,356.6,4.5,0.7,8.75,50.44,1.9721,393.0004],
    [2965,1537381515,53.5625,-110.7476,793.6,172.0,355.9,5.3,2.4,8.54,50.96,1.9721,394.5021],
    [2966,1537381516,53.5632,-110.7476,794.7,170.3,356.4,4.6,1.3,8.94,51.14,1.9727,395.1892],
    [2967,1537381517,53.5638,-110.7476,794.2,168.3,356.1,4.7,0.8,8.78,51.27,1.9744,394.9045],
    [2968,1537381518,53.5645,-110.7477,793.9,166.7,355.1,5.5,1.0,8.86,51.92,1.9739,395.5505],
    [2969,1537381519,53.5652,-110.7477,793.9,167.0,354.4,5.8,1.2,9.13,51.81,1.9743,394.4784],
    [2970,1537381520,53.5659,-110.7477,793.8,167.8,354.6,5.5,1.6,9.05,52.4,1.9756,394.712],
    [2971,1537381521,53.5666,-110.7477,793.0,168.1,355.3,4.4,1.9,8.31,52.64,1.9746,395.9227],
    [2972,1537381522,53.5673,-110.7477,792.8,168.9,355.0,5.0,1.7,9.4,52.12,1.9768,394.3747],
    [2973,1537381523,53.568,-110.7478,792.7,168.1,355.1,4.9,0.3,8.66,52.62,1.979,396.3944],
    [2974,1537381524,53.5686,-110.7478,793.6,168.6,354.7,5.3,-0.6,8.02,52.85,1.9779,394.8328],
    [2975,1537381525,53.5693,-110.7478,794.1,169.2,355.4,4.6,-1.2,8.83,52.67,1.9745,393.9476],
    [2976,1537381526,53.57,-110.7479,793.8,167.1,355.5,4.5,-1.2,8.84,52.79,1.974,393.9476],
    [2977,1537381527,53.5707,-110.7479,794.2,166.1,356.1,4.2,-1.3,8.9,52.62,1.9724,393.5868],
    [2978,1537381528,53.5714,-110.7479,794.0,163.9,356.6,3.6,-1.5,8.68,52.93,1.9731,393.8268],
    [2979,1537381529,53.5721,-110.7479,793.5,162.5,356.8,3.4,-1.2,8.65,52.76,1.9724,394.7308],
    [2980,1537381530,53.5728,-110.7479,794.0,162.0,355.4,4.7,-1.0,8.65,52.55,1.9739,393.2451],
    [2981,1537381531,53.5735,-110.7479,793.8,162.7,356.3,3.3,-0.9,8.33,51.9,1.9726,394.6671],
    [2982,1537381532,53.5742,-110.748,792.9,164.2,355.5,4.1,0.3,9.02,51.55,1.9719,394.1948],
    [2983,1537381533,53.5748,-110.748,792.3,167.7,355.1,4.4,0.0,8.68,52.4,1.9725,393.915],
    [2984,1537381534,53.5755,-110.748,792.0,168.0,355.1,4.5,0.1,8.72,51.35,1.9727,394.92],
    [2985,1537381535,53.5762,-110.7481,791.6,166.5,355.0,4.7,0.5,8.82,51.2,1.9738,394.3121],
    [2986,1537381536,53.5769,-110.7481,791.3,167.2,355.2,4.7,0.2,8.87,51.13,1.9764,395.1055],
    [2987,1537381537,53.5776,-110.7481,791.0,167.1,355.1,4.9,0.7,8.73,51.15,1.9769,395.1055],
    [2988,1537381538,53.5783,-110.7481,790.8,165.5,355.2,4.8,1.2,8.53,51.19,1.9729,394.9578],
    [2989,1537381539,53.579,-110.7482,791.8,163.4,355.6,4.1,0.3,8.75,51.44,1.9697,393.9353],
    [2990,1537381540,53.5796,-110.7482,792.7,162.7,356.3,3.8,0.5,8.61,51.62,1.9683,393.6213],
    [2991,1537381541,53.5804,-110.7482,792.8,161.7,355.9,4.5,0.4,8.3,51.68,1.9701,395.6547],
    [2992,1537381542,53.581,-110.7482,792.1,160.6,356.2,4.2,0.7,8.69,51.47,1.97,393.156],
    [2993,1537381543,53.5817,-110.7482,791.9,158.3,355.8,4.6,1.0,8.03,51.34,1.9699,394.9696],
    [2994,1537381544,53.5824,-110.7483,791.9,156.9,355.5,4.4,1.3,8.99,51.12,1.9674,395.0792],
    [2995,1537381545,53.5831,-110.7483,791.6,154.6,355.8,4.0,1.4,8.57,51.16,1.9679,395.1343],
    [2996,1537381546,53.5838,-110.7483,791.2,152.9,355.2,4.5,2.0,9.58,50.72,1.9673,394.9478],
    [2997,1537381547,53.5845,-110.7483,790.8,151.1,355.5,4.1,2.2,8.58,51.69,1.9672,394.335],
    [2998,1537381548,53.5852,-110.7484,790.6,149.4,355.8,3.7,1.8,8.95,50.67,1.9664,393.4764],
    [2999,1537381549,53.5859,-110.7484,790.6,147.3,356.7,2.9,1.3,8.71,51.53,1.9663,393.6729],
    [3000,1537381550,53.5866,-110.7484,791.0,146.7,356.3,3.5,1.5,8.83,51.28,1.9669,395.3914],
    [3001,1537381551,53.5872,-110.7484,792.7,148.4,356.4,3.3,0.6,8.59,51.54,1.968,393.6444],
    [3002,1537381552,53.5879,-110.7485,793.4,149.1,355.9,3.6,0.7,8.92,51.44,1.9677,392.8018],
    [3003,1537381553,53.5886,-110.7485,793.3,149.0,356.6,2.7,1.6,8.75,52.19,1.9671,392.7107],
    [3004,1537381554,53.5893,-110.7485,793.5,150.2,356.4,3.1,1.1,9.37,51.73,1.9666,393.6665],
    [3005,1537381555,53.59,-110.7485,793.6,149.9,355.8,4.0,-0.2,8.73,52.46,1.9644,393.5641],
    [3006,1537381556,53.5907,-110.7486,794.0,150.3,354.8,5.0,-0.9,8.18,52.05,1.9621,393.8038],
    [3007,1537381557,53.5914,-110.7486,793.7,150.0,355.3,4.3,-0.9,8.62,52.05,1.9626,393.6294],
    [3008,1537381558,53.5921,-110.7486,793.5,152.1,355.2,4.0,-0.5,8.82,51.43,1.9606,393.728],
    [3009,1537381559,53.5928,-110.7487,792.4,152.7,354.7,4.3,0.1,8.73,51.05,1.9597,394.4199],
    [3010,1537381560,53.5935,-110.7487,791.3,153.8,354.7,4.1,-0.2,8.61,50.79,1.9594,393.9749],
    [3011,1537381561,53.5942,-110.7488,791.1,153.9,354.5,4.6,-0.4,8.53,50.31,1.9578,393.4119],
    [3012,1537381562,53.5949,-110.7488,791.2,153.0,353.9,5.2,0.1,8.94,49.57,1.9584,393.5622],
    [3013,1537381563,53.5956,-110.7489,791.0,153.9,354.5,4.7,-0.1,8.6,49.77,1.9588,393.1258],
    [3014,1537381564,53.5962,-110.7489,790.7,154.3,355.1,4.1,-0.1,8.74,49.62,1.9576,395.1412],
    [3015,1537381565,53.5969,-110.7489,790.5,153.4,355.5,4.0,0.3,8.79,48.79,1.958,393.6286],
    [3016,1537381566,53.5976,-110.749,790.5,151.1,355.7,3.9,0.6,8.11,48.63,1.9592,393.7517],
    [3017,1537381567,53.5983,-110.749,790.2,147.8,356.3,3.3,1.1,8.61,49.14,1.9601,394.7629],
    [3018,1537381568,53.599,-110.749,790.3,142.4,355.3,4.6,1.2,8.1,48.75,1.9599,392.6355],
    [3019,1537381569,53.5997,-110.749,792.1,140.7,354.5,5.6,0.6,8.65,48.74,1.9588,395.2709],
    [3020,1537381570,53.6004,-110.7491,793.3,139.7,355.2,4.5,0.4,9.21,48.32,1.9566,395.0716],
    [3021,1537381571,53.6011,-110.7491,792.8,141.1,355.8,4.0,0.8,8.27,48.92,1.9583,393.319],
    [3022,1537381572,53.6018,-110.7491,792.0,140.8,355.6,4.3,1.5,8.92,48.19,1.9614,393.7476],
    [3023,1537381573,53.6024,-110.7491,791.7,138.3,355.8,4.5,1.4,8.16,48.58,1.9618,392.8018],
    [3024,1537381574,53.6031,-110.7491,791.9,137.6,356.0,4.2,1.4,9.02,48.07,1.9643,393.3802],
    [3025,1537381575,53.6038,-110.7492,791.6,141.8,356.5,3.7,1.3,8.61,48.65,1.9622,393.9383],
    [3026,1537381576,53.6045,-110.7492,791.0,149.1,356.3,3.6,1.1,9.12,48.31,1.9647,392.477],
    [3027,1537381577,53.6052,-110.7492,790.6,152.3,356.5,3.2,1.0,8.19,49.06,1.9669,395.2852],
    [3028,1537381578,53.6059,-110.7492,790.9,148.6,355.8,4.1,0.1,8.67,49.36,1.9678,395.065],
    [3029,1537381579,53.6066,-110.7492,791.1,141.0,355.8,3.8,1.0,8.64,49.35,1.9665,394.2393],
    [3030,1537381580,53.6072,-110.7493,791.6,133.6,355.5,3.8,1.3,8.68,50.08,1.9665,394.87],
    [3031,1537381581,53.6079,-110.7493,792.7,134.0,355.3,3.7,1.6,8.86,50.2,1.9673,392.4501],
    [3032,1537381582,53.6086,-110.7493,793.6,133.8,355.4,3.5,1.2,8.6,50.58,1.9718,394.6755],
    [3033,1537381583,53.6093,-110.7494,793.3,131.8,357.0,2.0,1.3,8.32,51.34,1.9696,395.5074],
    [3034,1537381584,53.61,-110.7494,791.9,129.9,356.8,2.7,0.0,8.62,51.37,1.9687,394.9588],
    [3035,1537381585,53.6107,-110.7494,791.4,131.9,356.1,3.1,-0.8,8.63,51.66,1.9687,394.5827],
    [3036,1537381586,53.6114,-110.7495,791.2,134.5,356.2,3.0,-0.4,8.48,51.99,1.9685,394.2037],
    [3037,1537381587,53.6121,-110.7495,790.6,137.0,354.8,4.1,0.1,8.61,51.68,1.9683,394.3746],
    [3038,1537381588,53.6128,-110.7495,789.9,135.5,354.5,4.0,1.4,8.86,51.54,1.9689,394.0407],
    [3039,1537381589,53.6134,-110.7496,789.3,132.8,353.9,4.5,1.9,8.57,51.81,1.9708,395.1661],
    [3040,1537381590,53.6141,-110.7496,788.5,132.3,355.2,3.1,0.9,9.11,51.33,1.97,395.1661],
    [3041,1537381591,53.6148,-110.7497,788.3,135.9,356.4,1.9,1.1,8.65,52.09,1.98,394.4951],
    [3042,1537381592,53.6155,-110.7497,790.1,140.5,356.9,1.7,2.7,9.5,52.04,1.9856,393.6626],
    [3043,1537381593,53.6162,-110.7498,791.6,141.6,356.2,2.4,2.3,8.77,52.51,1.9875,392.6303],
    [3044,1537381594,53.6169,-110.7498,792.3,141.0,356.3,2.2,2.3,8.39,52.65,1.9922,393.3242],
    [3045,1537381595,53.6175,-110.7498,792.7,138.7,356.1,2.3,2.4,8.71,52.52,1.9941,396.9433],
    [3046,1537381596,53.6182,-110.7499,793.4,137.8,355.7,2.6,0.6,8.99,52.39,1.9816,393.9102],
    [3047,1537381597,53.6189,-110.7499,793.6,137.6,355.2,2.9,0.4,8.79,53.59,1.9775,394.9223],
    [3048,1537381598,53.6196,-110.75,793.7,137.7,355.3,2.7,-0.4,8.74,52.84,1.9728,393.6117],
    [3049,1537381599,53.6202,-110.75,793.8,138.7,355.2,3.1,-0.5,8.69,53.48,1.9731,392.8629],
    [3050,1537381600,53.621,-110.7501,793.4,139.2,354.7,3.8,-0.8,8.94,52.41,1.976,393.9324],
    [3051,1537381601,53.6217,-110.7501,792.5,139.2,354.7,4.1,-0.8,8.72,52.64,1.9767,393.9324],
    [3052,1537381602,53.6223,-110.7502,791.8,137.5,354.4,4.4,-0.2,9.28,51.86,1.992,394.0468],
    [3053,1537381603,53.623,-110.7502,791.5,136.1,355.5,3.4,-0.6,8.42,51.6,1.9856,393.2162],
    [3054,1537381604,53.6237,-110.7503,791.1,133.6,355.7,3.5,-0.1,8.32,51.77,1.978,393.9561],
    [3055,1537381605,53.6244,-110.7503,791.0,133.4,355.3,4.2,-0.3,8.68,51.28,1.9733,394.6501],
    [3056,1537381606,53.6251,-110.7503,791.1,131.4,355.9,3.7,-0.1,8.49,51.06,1.9702,393.5907],
    [3057,1537381607,53.6258,-110.7504,791.0,128.4,355.9,3.8,0.3,8.44,51.18,1.9678,394.4513],
    [3058,1537381608,53.6265,-110.7504,790.7,120.2,356.3,3.2,0.0,8.35,50.39,1.9666,393.005],
    [3059,1537381609,53.6272,-110.7504,790.0,116.3,356.4,3.2,0.8,8.11,50.47,1.9669,393.6321],
    [3060,1537381610,53.6279,-110.7504,789.9,118.3,355.6,4.2,-0.2,8.86,50.63,1.9675,394.1586],
    [3061,1537381611,53.6285,-110.7505,790.1,121.6,355.5,4.0,0.8,8.22,50.44,1.968,393.227],
    [3062,1537381612,53.6292,-110.7505,790.2,125.6,355.5,4.1,0.3,8.57,50.07,1.9676,393.7163],
    [3063,1537381613,53.6299,-110.7505,790.3,128.5,355.6,4.0,1.1,8.16,50.02,1.9666,394.1058],
    [3064,1537381614,53.6306,-110.7505,789.9,130.1,355.1,4.6,1.8,8.77,49.93,1.9679,394.8554],
    [3065,1537381615,53.6313,-110.7506,789.5,130.4,355.5,4.3,1.9,8.8,51.02,1.9691,395.7282],
    [3066,1537381616,53.6319,-110.7506,789.2,130.9,356.0,3.9,2.0,9.07,50.16,1.9686,395.565],
    [3067,1537381617,53.6326,-110.7506,789.6,131.6,356.3,3.8,2.9,8.6,51.15,1.9669,393.5355],
    [3068,1537381618,53.6333,-110.7506,790.3,132.5,356.1,4.0,2.6,8.61,51.29,1.9658,394.5118],
    [3069,1537381619,53.634,-110.7506,790.7,135.1,355.9,4.0,2.5,8.49,51.9,1.9655,393.6223],
    [3070,1537381620,53.6347,-110.7507,791.0,137.0,356.4,3.2,1.7,8.54,51.9,1.9655,395.0299],
    [3071,1537381621,53.6354,-110.7507,791.8,138.8,357.0,2.3,0.5,8.24,52.0,1.9666,394.4581],
    [3072,1537381622,53.6361,-110.7507,791.6,138.7,356.6,3.0,0.3,9.34,51.83,1.9682,395.9837],
    [3073,1537381623,53.6367,-110.7507,789.3,137.2,356.1,3.6,0.3,8.59,52.37,1.9666,393.249],
    [3074,1537381624,53.6374,-110.7507,787.1,136.0,355.2,4.7,0.7,9.07,52.33,1.9675,394.5069],
    [3075,1537381625,53.6381,-110.7508,786.2,135.8,355.0,4.7,0.6,8.52,52.51,1.9678,395.5042],
    [3076,1537381626,53.6388,-110.7508,786.3,135.0,355.5,4.1,1.6,8.56,52.78,1.9673,394.0916],
    [3077,1537381627,53.6395,-110.7508,787.3,134.8,355.6,4.1,1.9,8.66,52.79,1.9669,394.4435],
    [3078,1537381628,53.6402,-110.7509,787.5,134.2,356.2,3.4,1.8,8.53,52.29,1.9675,394.7228],
    [3079,1537381629,53.6409,-110.7509,787.0,133.4,355.6,4.2,1.7,9.02,52.72,1.9666,394.0703],
    [3080,1537381630,53.6416,-110.7509,787.2,133.8,355.6,3.8,1.8,8.95,52.79,1.9683,394.4997],
    [3081,1537381631,53.6422,-110.7509,787.7,137.1,356.7,2.5,1.6,8.99,52.65,1.9693,395.4484],
    [3082,1537381632,53.6429,-110.751,788.4,141.6,356.2,3.0,1.8,8.29,53.22,1.9709,394.121],
    [3083,1537381633,53.6436,-110.751,789.9,146.5,355.7,3.6,0.7,8.27,53.1,1.9716,394.6104],
    [3084,1537381634,53.6443,-110.751,791.8,150.2,355.1,4.5,1.2,8.66,52.88,1.9686,394.0385],
    [3085,1537381635,53.645,-110.751,792.5,149.5,355.6,4.4,1.2,8.63,53.34,1.9691,394.7546],
    [3086,1537381636,53.6457,-110.7511,791.8,149.3,356.2,4.6,0.2,8.68,53.11,1.9732,392.4904],
    [3087,1537381637,53.6463,-110.7511,791.1,151.3,355.8,5.6,-0.3,8.68,52.44,1.9821,392.4904],
    [3088,1537381638,53.647,-110.7511,791.0,153.2,356.8,4.7,-0.2,9.02,51.74,1.9719,394.1958],
    [3089,1537381639,53.6477,-110.751,791.4,152.6,357.2,4.4,-0.1,8.98,51.1,1.9708,393.9164],
    [3090,1537381640,53.6484,-110.751,791.5,152.8,357.2,4.4,-0.2,8.57,51.26,1.9733,393.7086],
    [3091,1537381641,53.6491,-110.751,791.3,154.6,357.1,4.4,-0.2,8.63,50.36,1.9765,393.7086],
    [3092,1537381642,53.6498,-110.751,791.1,157.4,356.7,4.6,0.4,8.53,50.15,1.991,394.6143],
    [3093,1537381643,53.6504,-110.751,790.9,157.3,356.9,4.1,0.3,8.73,50.28,1.9822,394.2247],
    [3094,1537381644,53.6511,-110.751,790.7,156.8,357.0,3.6,0.3,8.92,49.72,1.9838,394.2608],
    [3095,1537381645,53.6518,-110.751,790.8,156.8,357.1,3.5,0.1,8.68,50.59,1.9778,394.4056],
    [3096,1537381646,53.6525,-110.751,790.6,157.7,356.9,3.4,0.4,8.67,50.87,1.9729,393.7302],
    [3097,1537381647,53.6532,-110.751,790.1,159.1,356.9,3.3,1.0,9.01,50.0,1.9764,394.1887],
    [3098,1537381648,53.6538,-110.7511,789.9,159.6,356.3,3.7,1.5,8.9,49.72,1.9865,394.1955],
    [3099,1537381649,53.6545,-110.7511,789.6,158.6,356.2,3.8,1.1,9.1,49.99,1.9929,393.9683],
    [3100,1537381650,53.6552,-110.7511,790.1,159.1,355.9,4.0,0.8,8.43,50.3,1.9975,394.2769],
    [3101,1537381651,53.6559,-110.7511,791.2,159.6,355.9,3.9,1.6,8.63,50.84,2.0044,395.2375],
    [3102,1537381652,53.6566,-110.7511,790.9,160.1,355.9,4.1,1.7,8.44,50.93,2.0041,394.2676],
    [3103,1537381653,53.6572,-110.7512,789.8,159.0,355.8,4.2,2.0,8.65,51.54,2.0015,392.9788],
    [3104,1537381654,53.6579,-110.7512,788.7,154.9,356.1,3.7,1.2,8.52,52.15,1.9943,395.3798],
    [3105,1537381655,53.6586,-110.7512,788.5,151.7,355.6,4.3,1.6,8.55,51.77,1.9955,391.2236],
    [3106,1537381656,53.6593,-110.7512,788.3,151.4,355.6,4.1,1.5,8.59,52.03,1.993,394.7145],
    [3107,1537381657,53.66,-110.7512,787.7,152.1,355.8,3.8,2.2,8.22,51.64,1.9986,395.2251],
    [3108,1537381658,53.6606,-110.7513,787.4,153.5,356.1,3.1,2.8,8.4,51.55,1.9996,394.2307],
    [3109,1537381659,53.6614,-110.7513,787.6,153.6,356.3,3.2,2.0,8.5,51.51,2.0018,394.8542],
    [3110,1537381660,53.662,-110.7513,788.7,153.7,355.7,3.9,2.0,8.75,51.52,2.0038,394.9137],
    [3111,1537381661,53.6627,-110.7513,790.5,154.4,355.7,4.2,1.5,8.5,51.82,2.0037,394.7143],
    [3112,1537381662,53.6634,-110.7514,791.8,156.9,356.6,3.4,0.5,8.54,52.88,1.9906,393.6714],
    [3113,1537381663,53.6641,-110.7514,792.2,157.4,357.1,3.5,-0.9,8.7,52.21,1.9723,393.7903],
    [3114,1537381664,53.6648,-110.7514,792.5,157.7,355.5,5.4,-1.0,8.73,51.88,1.9707,393.4146],
    [3115,1537381665,53.6654,-110.7514,792.9,157.1,356.5,4.0,-0.3,8.59,51.65,1.9719,393.537],
    [3116,1537381666,53.6661,-110.7514,792.5,154.4,356.1,4.6,-0.2,8.69,50.92,1.9716,393.7764],
    [3117,1537381667,53.6668,-110.7514,791.9,152.9,356.1,4.6,-0.4,9.23,50.15,1.9702,393.5414],
    [3118,1537381668,53.6675,-110.7514,791.3,152.0,356.1,4.5,-0.8,8.66,49.84,1.9673,394.2485],
    [3119,1537381669,53.6682,-110.7514,791.2,150.9,355.9,4.5,-1.2,8.4,49.3,1.9661,393.6144],
    [3120,1537381670,53.6689,-110.7515,791.6,151.2,356.1,4.2,-0.5,8.64,48.92,1.9691,394.1166],
    [3121,1537381671,53.6695,-110.7515,791.7,151.1,355.8,4.4,-0.2,8.72,48.87,1.9716,394.1633],
    [3122,1537381672,53.6702,-110.7515,791.1,148.9,356.1,4.1,-0.1,8.87,48.27,1.9733,393.809],
    [3123,1537381673,53.6709,-110.7515,790.7,146.4,356.6,3.4,0.3,8.58,48.92,1.9698,394.087],
    [3124,1537381674,53.6716,-110.7515,790.4,146.0,356.8,3.4,0.2,8.02,48.79,1.9668,393.7122],
    [3125,1537381675,53.6723,-110.7515,790.1,148.2,355.6,4.7,-0.5,8.08,48.84,1.9619,393.1569],
    [3126,1537381676,53.673,-110.7516,790.1,149.7,355.6,4.4,-0.3,8.33,48.66,1.9694,393.9542],
    [3127,1537381677,53.6736,-110.7516,790.2,151.9,355.9,3.8,0.2,8.17,48.9,1.9701,393.4317],
    [3128,1537381678,53.6743,-110.7516,790.1,153.5,356.2,3.7,0.8,8.53,48.85,1.9713,394.2772],
    [3129,1537381679,53.675,-110.7516,790.3,153.8,355.7,4.1,1.6,8.31,48.99,1.9878,393.6757],
    [3130,1537381680,53.6757,-110.7516,790.5,151.0,355.9,3.7,0.6,8.29,49.66,2.0244,393.6185],
    [3131,1537381681,53.6764,-110.7517,790.6,147.5,356.5,3.1,0.5,8.98,49.37,2.6713,392.6914],
    [3132,1537381682,53.677,-110.7517,792.0,140.6,355.0,4.6,0.4,8.75,49.98,2.7858,392.6344],
    [3133,1537381683,53.6777,-110.7517,792.1,138.6,354.8,4.3,0.1,8.53,50.54,2.1659,393.5782],
    [3134,1537381684,53.6784,-110.7518,791.0,136.7,354.1,4.6,0.5,8.47,51.35,2.0226,393.5782],
    [3135,1537381685,53.6791,-110.7518,790.0,136.7,354.2,3.8,0.5,8.28,51.24,1.9923,393.8393],
    [3136,1537381686,53.6798,-110.7519,789.4,138.7,354.2,4.1,-0.1,8.58,51.44,1.9891,393.7621],
    [3137,1537381687,53.6804,-110.7519,789.3,141.8,354.1,4.4,0.3,8.95,51.31,1.9857,393.7621],
    [3138,1537381688,53.6811,-110.752,789.0,145.1,354.5,4.4,0.8,8.62,51.69,1.9797,393.6859],
    [3139,1537381689,53.6818,-110.752,788.7,148.3,354.2,4.9,0.6,8.6,51.26,2.0323,394.3265],
    [3140,1537381690,53.6825,-110.7521,788.4,151.6,354.9,4.3,0.7,8.42,51.13,2.0101,393.3407],
    [3141,1537381691,53.6831,-110.7521,788.8,157.0,354.9,4.5,1.0,8.77,51.38,1.9927,394.6129],
    [3142,1537381692,53.6838,-110.7521,789.1,159.9,355.5,4.1,1.5,8.64,51.97,1.9881,394.6129],
    [3143,1537381693,53.6845,-110.7521,789.6,161.5,355.8,4.0,1.9,8.25,52.12,1.9891,394.6424],
    [3144,1537381694,53.6852,-110.7522,791.0,163.0,356.4,3.7,0.6,8.79,52.13,2.7352,393.6802],
    [3145,1537381695,53.6858,-110.7522,792.3,164.2,356.6,3.3,0.0,8.7,52.09,2.3567,393.5467],
    [3146,1537381696,53.6865,-110.7522,792.0,163.9,356.9,3.0,-0.1,8.65,52.39,2.0375,393.2719],
    [3147,1537381697,53.6872,-110.7522,790.9,162.9,356.9,2.6,0.6,8.57,52.86,2.0031,394.1091],
    [3148,1537381698,53.6878,-110.7522,790.3,161.4,356.6,2.9,0.0,9.1,51.75,1.9884,394.2347],
    [3149,1537381699,53.6886,-110.7523,790.4,160.5,356.0,3.4,0.4,8.17,52.11,1.9782,394.2886],
    [3150,1537381700,53.6892,-110.7523,790.5,158.8,356.2,2.9,-0.2,8.26,52.36,1.9767,394.9279],
    [3151,1537381701,53.6899,-110.7523,790.9,159.1,355.9,3.1,1.5,8.02,52.37,1.9721,393.6684],
    [3152,1537381702,53.6905,-110.7524,790.4,158.6,355.4,3.8,0.9,8.52,52.45,1.9673,392.837],
    [3153,1537381703,53.6913,-110.7524,789.7,158.9,355.5,4.0,0.3,8.76,51.63,1.9633,393.9892],
    [3154,1537381704,53.6919,-110.7524,789.7,159.5,355.6,3.9,1.0,8.64,51.22,1.9632,393.9438],
    [3155,1537381705,53.6926,-110.7524,790.2,161.3,356.5,3.0,0.8,9.05,50.96,1.9628,393.0347],
    [3156,1537381706,53.6933,-110.7525,790.5,160.6,356.5,3.2,0.9,8.64,51.34,1.965,393.0347],
    [3157,1537381707,53.694,-110.7525,790.7,161.9,356.2,3.7,0.8,8.79,50.98,1.9649,394.4895],
    [3158,1537381708,53.6946,-110.7525,790.3,160.3,356.4,3.4,1.3,9.05,50.65,1.9639,393.9973],
    [3159,1537381709,53.6953,-110.7525,790.0,159.0,356.1,3.8,1.4,8.04,50.82,1.9614,395.3093],
    [3160,1537381710,53.696,-110.7525,789.7,158.4,356.1,3.5,1.9,8.51,51.13,1.9632,395.3093],
    [3161,1537381711,53.6967,-110.7526,789.4,157.3,356.3,3.2,1.8,8.54,50.83,1.962,394.8077],
    [3162,1537381712,53.6973,-110.7526,789.4,157.1,355.7,3.8,2.3,8.1,50.54,1.9624,394.8108],
    [3163,1537381713,53.698,-110.7526,789.6,156.5,355.1,4.5,1.6,8.59,50.2,1.9613,393.3706],
    [3164,1537381714,53.6987,-110.7526,789.4,156.3,355.1,4.5,2.0,8.81,50.78,1.9603,394.1133],
    [3165,1537381715,53.6994,-110.7527,789.7,156.5,355.3,4.4,1.8,8.4,50.46,1.9608,394.4571],
    [3166,1537381716,53.7001,-110.7527,790.0,154.4,355.1,4.5,2.1,8.36,51.12,1.9624,393.6092],
    [3167,1537381717,53.7007,-110.7527,790.2,152.6,356.2,2.9,2.6,8.63,50.64,1.9642,394.0308],
    [3168,1537381718,53.7014,-110.7528,790.2,149.6,356.3,2.9,3.3,8.64,50.13,1.9662,392.425],
    [3169,1537381719,53.7021,-110.7528,790.4,148.3,355.7,3.5,2.2,8.68,50.64,1.967,393.5281],
    [3170,1537381720,53.7028,-110.7528,790.1,147.1,356.0,3.1,2.3,8.97,50.75,1.9881,394.4879],
    [3171,1537381721,53.7035,-110.7528,790.6,146.7,355.3,4.4,2.1,8.49,51.2,2.041,391.8491],
    [3172,1537381722,53.7042,-110.7529,791.9,146.2,355.1,4.8,3.3,9.1,50.77,1.9876,394.4028],
    [3173,1537381723,53.7048,-110.7529,792.9,146.9,355.8,4.1,2.5,8.18,51.98,1.9747,393.6948],
    [3174,1537381724,53.7055,-110.7529,793.2,146.2,357.1,2.9,2.4,8.43,51.77,2.008,393.5486],
    [3175,1537381725,53.7062,-110.7529,792.4,144.4,356.7,3.9,1.3,8.31,52.31,2.0619,394.2124],
    [3176,1537381726,53.7069,-110.7529,791.5,142.5,357.0,3.8,1.4,8.58,52.18,2.055,393.5168],
    [3177,1537381727,53.7076,-110.7529,791.0,141.0,356.9,4.2,0.1,8.54,52.93,1.9975,393.5168],
    [3178,1537381728,53.7083,-110.7529,790.5,140.6,356.9,3.6,1.3,8.4,52.27,1.9763,393.6217],
    [3179,1537381729,53.709,-110.7529,790.2,141.3,356.0,4.0,2.0,8.61,52.2,1.9721,393.5337],
    [3180,1537381730,53.7097,-110.753,790.6,142.6,355.6,3.8,1.1,8.28,52.5,1.9707,395.1792],
    [3181,1537381731,53.7104,-110.753,790.8,143.8,354.6,5.0,1.3,9.04,52.32,1.9792,394.4039],
    [3182,1537381732,53.7111,-110.753,790.5,145.1,353.9,5.5,1.2,9.27,52.06,1.9867,393.6778],
    [3183,1537381733,53.7118,-110.7531,790.0,145.8,355.3,4.2,1.2,8.28,52.52,1.9749,394.2898],
    [3184,1537381734,53.7125,-110.7531,790.1,148.4,354.6,5.5,1.0,8.4,52.16,1.9777,393.4341],
    [3185,1537381735,53.7132,-110.7531,790.2,150.4,355.0,5.2,0.7,8.67,51.65,1.9903,394.7455],
    [3186,1537381736,53.7139,-110.7531,790.0,153.2,356.1,4.2,0.5,8.22,51.67,1.9867,394.026],
    [3187,1537381737,53.7146,-110.7532,789.3,154.2,356.2,4.2,1.2,8.6,50.71,1.9685,394.4294],
    [3188,1537381738,53.7153,-110.7532,789.2,156.1,356.1,4.3,0.6,8.51,50.98,1.9678,394.419],
    [3189,1537381739,53.716,-110.7532,789.3,158.1,356.6,4.1,0.2,8.62,50.77,1.9657,393.8843],
    [3190,1537381740,53.7167,-110.7532,790.3,161.3,357.2,3.7,0.5,8.53,50.84,1.9651,393.8843],
    [3191,1537381741,53.7173,-110.7532,791.4,163.4,357.8,3.1,0.4,8.73,50.08,1.9665,394.5537],
    [3192,1537381742,53.718,-110.7532,791.4,162.3,357.3,3.7,0.2,8.19,50.61,1.9644,393.1929],
    [3193,1537381743,53.7187,-110.7532,791.4,160.2,357.2,3.4,0.2,8.52,51.1,1.9676,393.3499],
    [3194,1537381744,53.7194,-110.7532,791.3,157.2,356.8,3.5,0.7,8.53,50.8,1.9678,393.5216],
    [3195,1537381745,53.7201,-110.7532,791.3,154.6,356.7,3.2,1.0,8.68,50.57,1.9667,392.7238],
    [3196,1537381746,53.7208,-110.7532,791.0,151.5,356.3,3.5,1.4,8.58,51.14,1.9658,392.716],
    [3197,1537381747,53.7215,-110.7532,790.4,149.0,355.7,4.0,1.6,8.85,50.77,1.9664,395.2739],
    [3198,1537381748,53.7222,-110.7533,789.5,147.5,356.1,3.7,1.7,9.03,50.47,1.968,394.3118],
    [3199,1537381749,53.7229,-110.7533,788.8,145.8,355.8,4.0,2.2,8.87,50.54,1.967,394.2104],
    [3200,1537381750,53.7236,-110.7533,788.8,145.8,356.4,3.5,2.0,9.24,50.53,1.9656,395.8315],
    [3201,1537381751,53.7243,-110.7533,789.1,146.9,356.3,3.6,2.4,8.65,50.63,1.968,395.4227],
    [3202,1537381752,53.725,-110.7534,789.3,147.7,356.1,3.8,2.4,8.45,50.47,1.9687,396.0789],
    [3203,1537381753,53.7257,-110.7534,789.4,149.7,356.8,3.0,2.5,8.54,50.47,1.968,395.2863],
    [3204,1537381754,53.7264,-110.7534,789.6,150.9,356.7,3.1,2.3,8.8,50.2,1.9694,394.1316],
    [3205,1537381755,53.727,-110.7534,790.6,154.7,356.9,2.7,1.3,8.61,50.5,1.9905,394.5906],
    [3206,1537381756,53.7277,-110.7534,791.3,156.4,357.8,1.4,0.3,8.11,50.38,1.9908,395.3012],
    [3207,1537381757,53.7284,-110.7535,790.8,157.6,358.3,0.8,0.2,8.56,50.57,1.993,394.9655],
    [3208,1537381758,53.7291,-110.7535,790.5,157.6,357.2,2.0,0.1,8.06,50.67,1.9921,396.0307],
    [3209,1537381759,53.7298,-110.7535,790.2,157.8,356.4,2.9,0.8,8.33,50.94,1.9899,394.0928],
    [3210,1537381760,53.7305,-110.7535,789.5,157.8,355.0,4.3,0.4,8.68,51.54,2.0003,393.651],
    [3211,1537381761,53.7312,-110.7536,789.2,160.3,355.5,3.4,0.5,8.79,51.33,2.0091,394.9812],
    [3212,1537381762,53.7319,-110.7536,788.8,160.8,355.5,3.5,0.4,9.07,50.91,2.0187,393.8164],
    [3213,1537381763,53.7326,-110.7537,789.2,161.1,355.5,3.4,0.9,8.63,51.87,2.0054,396.1031],
    [3214,1537381764,53.7333,-110.7537,790.2,161.9,355.7,3.0,1.1,8.51,52.56,2.0098,395.1687],
    [3215,1537381765,53.734,-110.7537,789.9,160.0,355.6,2.9,1.8,8.55,52.26,2.0191,395.5948],
    [3216,1537381766,53.7346,-110.7538,789.2,158.1,355.3,3.1,1.8,8.73,52.67,2.0189,395.5948],
    [3217,1537381767,53.7353,-110.7538,788.7,157.7,355.2,3.3,1.5,8.5,52.92,2.02,395.0393],
    [3218,1537381768,53.736,-110.7539,788.6,156.6,355.2,3.6,0.8,8.93,52.94,2.0089,395.0986],
    [3219,1537381769,53.7367,-110.7539,788.9,156.4,355.8,2.6,0.8,8.02,53.09,1.9934,394.5869],
    [3220,1537381770,53.7374,-110.754,789.1,156.1,357.0,1.7,1.3,8.58,53.49,1.9952,396.1228],
    [3221,1537381771,53.738,-110.754,789.9,156.2,356.5,2.6,0.5,8.55,52.9,1.9986,394.2743],
    [3222,1537381772,53.7387,-110.754,790.6,155.5,356.2,3.0,1.1,8.62,53.54,2.0001,396.3251],
    [3223,1537381773,53.7395,-110.754,790.2,154.3,355.3,4.0,1.4,8.59,52.8,1.9957,395.4659],
    [3224,1537381774,53.7401,-110.7541,789.7,152.7,356.1,2.9,0.4,9.36,52.76,1.9938,395.4797],
    [3225,1537381775,53.7408,-110.7541,790.3,152.3,355.7,3.5,0.7,8.32,53.31,1.9939,395.2971],
    [3226,1537381776,53.7415,-110.7541,791.0,153.0,355.1,3.7,1.0,9.31,52.55,1.9932,394.8212],
    [3227,1537381777,53.7422,-110.7542,790.8,152.8,355.6,2.9,1.7,8.81,53.27,1.993,394.7261],
    [3228,1537381778,53.7429,-110.7542,790.2,152.2,354.9,3.6,1.7,8.82,53.81,1.9957,396.2283],
    [3229,1537381779,53.7435,-110.7543,789.6,151.6,355.8,2.6,1.8,9.27,52.85,1.9955,396.289],
    [3230,1537381780,53.7443,-110.7543,789.0,150.8,355.0,4.2,1.7,8.42,53.54,1.9922,395.8382],
    [3231,1537381781,53.745,-110.7544,788.5,149.5,354.9,4.1,1.8,8.43,53.97,1.9897,396.0424],
    [3232,1537381782,53.7457,-110.7544,788.2,149.2,356.5,2.7,2.3,8.86,53.06,1.9855,396.0424],
    [3233,1537381783,53.7464,-110.7544,788.5,149.6,356.4,3.1,2.7,8.62,53.42,1.99,397.0071],
    [3234,1537381784,53.747,-110.7544,789.6,150.7,356.1,3.5,1.3,8.49,53.56,1.9914,394.285],
    [3235,1537381785,53.7477,-110.7545,790.6,152.6,357.1,2.0,0.7,8.65,53.89,1.9893,395.6317],
    [3236,1537381786,53.7484,-110.7545,791.1,153.1,357.3,1.3,0.3,8.69,54.36,1.9893,396.2811],
    [3237,1537381787,53.7491,-110.7545,790.6,152.7,355.9,3.1,1.9,8.42,53.87,1.9893,396.924],
    [3238,1537381788,53.7498,-110.7546,791.2,154.1,354.5,4.4,0.7,8.79,53.63,1.9903,394.785],
    [3239,1537381789,53.7505,-110.7546,791.8,154.6,355.6,3.2,0.2,8.6,53.81,1.9896,395.9736],
    [3240,1537381790,53.7512,-110.7547,791.5,154.4,355.4,3.9,-0.4,8.97,53.68,1.9875,396.1377],
    [3241,1537381791,53.7519,-110.7547,791.5,154.5,355.6,4.0,-0.5,8.15,54.18,1.9779,394.6282],
    [3242,1537381792,53.7526,-110.7547,791.7,153.7,356.4,3.3,-0.3,9.12,53.46,1.976,395.7078],
    [3243,1537381793,53.7533,-110.7547,791.3,153.3,356.5,3.4,0.1,8.8,53.53,1.9709,395.2495],
    [3244,1537381794,53.754,-110.7548,790.5,152.4,356.4,3.6,-0.2,8.61,52.47,1.9681,394.1668],
    [3245,1537381795,53.7547,-110.7548,789.5,150.5,356.1,4.3,0.1,8.79,51.33,1.9709,394.1668],
    [3246,1537381796,53.7554,-110.7548,789.2,150.2,356.0,4.4,0.7,8.71,50.76,1.9719,395.4505],
    [3247,1537381797,53.7561,-110.7548,789.7,150.3,356.1,4.2,0.6,9.07,49.92,1.975,394.8675],
    [3248,1537381798,53.7568,-110.7548,790.5,150.5,356.6,3.7,-0.1,8.61,50.72,1.9769,394.8675],
    [3249,1537381799,53.7574,-110.7548,790.4,150.4,355.7,4.7,0.7,8.93,49.98,1.9816,395.0126],
    [3250,1537381800,53.7581,-110.7549,791.1,151.1,355.7,4.3,0.4,8.69,51.21,1.9783,395.2453],
    [3251,1537381801,53.7588,-110.7549,790.2,150.2,356.5,3.7,0.5,8.58,51.0,1.978,395.5311],
    [3252,1537381802,53.7595,-110.7549,789.3,150.3,355.8,4.6,1.4,8.71,51.99,1.9777,394.4838],
    [3253,1537381803,53.7602,-110.7549,789.3,150.3,356.6,4.1,0.2,8.71,51.67,1.9778,395.4155],
    [3254,1537381804,53.7609,-110.7549,790.0,151.0,356.6,4.5,0.3,8.87,51.68,1.9801,393.6282],
    [3255,1537381805,53.7616,-110.7549,790.4,151.4,357.4,3.6,1.1,8.67,52.06,1.9825,393.6282],
    [3256,1537381806,53.7623,-110.7549,790.5,151.5,357.5,3.6,0.1,8.83,52.41,1.9817,395.8973],
    [3257,1537381807,53.763,-110.7549,790.7,151.7,357.8,3.1,0.5,9.2,52.68,1.9809,396.1067],
    [3258,1537381808,53.7637,-110.7549,790.2,151.2,358.1,2.7,1.4,9.01,52.63,1.9793,394.7044],
    [3259,1537381809,53.7644,-110.7549,789.8,149.9,357.3,3.1,1.5,8.85,53.49,1.9797,394.5332],
    [3260,1537381810,53.765,-110.7549,790.4,148.5,356.7,3.1,0.7,8.31,53.06,1.9816,395.2465],
    [3261,1537381811,53.7657,-110.7549,790.4,147.3,356.2,3.3,1.4,8.8,53.08,1.981,395.2465],
    [3262,1537381812,53.7664,-110.755,789.6,144.8,355.9,3.5,0.6,8.87,52.75,1.9784,395.5388],
    [3263,1537381813,53.7671,-110.755,788.4,142.8,355.1,4.3,1.3,8.32,53.45,1.9794,396.8874],
    [3264,1537381814,53.7678,-110.755,787.8,140.8,355.0,4.5,1.7,8.88,53.1,1.9793,395.9809],
    [3265,1537381815,53.7685,-110.7551,788.0,140.3,355.6,3.7,1.4,8.92,53.23,1.9802,396.6594],
    [3266,1537381816,53.7692,-110.7551,788.5,140.6,356.2,3.4,2.3,8.72,54.4,1.9787,396.1353],
    [3267,1537381817,53.7699,-110.7551,789.2,140.2,356.7,2.7,3.0,8.41,53.87,1.9791,396.3465],
    [3268,1537381818,53.7706,-110.7551,789.6,140.3,356.8,2.6,2.3,8.64,54.48,1.9795,395.4278],
    [3269,1537381819,53.7713,-110.7552,790.2,140.2,356.2,2.9,1.5,8.71,54.02,1.9806,396.8494],
    [3270,1537381820,53.772,-110.7552,789.9,138.9,357.6,0.9,1.9,8.74,54.23,1.982,396.8494],
    [3271,1537381821,53.7727,-110.7552,789.7,137.9,356.7,2.0,2.7,8.67,55.04,1.9826,396.7739],
    [3272,1537381822,53.7734,-110.7553,789.7,136.6,355.1,3.4,2.8,8.47,54.58,1.9815,395.3644],
    [3273,1537381823,53.7741,-110.7553,789.6,136.3,355.2,3.1,2.3,9.23,54.03,1.9799,395.6813],
    [3274,1537381824,53.7748,-110.7554,789.8,135.5,354.1,4.5,1.6,8.62,55.08,1.9807,395.7974],
    [3275,1537381825,53.7755,-110.7554,790.7,135.8,353.6,4.9,2.5,8.33,54.53,1.9814,395.1044],
    [3276,1537381826,53.7762,-110.7555,791.2,135.3,354.5,3.7,2.8,8.52,54.62,1.9822,395.1044],
    [3277,1537381827,53.7769,-110.7555,791.1,135.2,355.6,3.0,2.3,8.75,55.39,1.982,395.7686],
    [3278,1537381828,53.7776,-110.7556,791.3,135.9,356.2,2.3,1.8,8.38,54.68,1.9855,395.2131],
    [3279,1537381829,53.7783,-110.7556,791.4,135.4,356.6,2.2,2.0,8.59,55.6,1.9843,396.5144],
    [3280,1537381830,53.7791,-110.7556,790.1,134.1,355.6,3.0,1.4,9.29,54.66,1.9858,396.5326],
    [3281,1537381831,53.7798,-110.7557,788.9,132.9,356.4,2.3,0.7,9.37,55.24,1.9873,397.6573],
    [3282,1537381832,53.7805,-110.7557,788.8,132.8,355.2,3.6,0.4,9.32,55.26,1.988,397.8022],
    [3283,1537381833,53.7812,-110.7558,788.7,132.7,356.1,2.6,1.6,8.59,55.84,1.9884,396.9974],
    [3284,1537381834,53.7819,-110.7558,788.8,131.8,356.4,2.5,1.2,8.68,56.28,1.9892,397.0567],
    [3285,1537381835,53.7826,-110.7559,789.1,132.1,358.5,0.4,0.0,8.81,56.45,1.9939,393.6217],
    [3286,1537381836,53.7834,-110.7559,789.9,132.9,358.5,1.0,0.0,8.66,56.46,1.9943,393.6217],
    [3287,1537381837,53.7841,-110.7559,791.3,134.3,358.2,1.6,1.4,8.59,55.4,2.015,394.4357],
    [3288,1537381838,53.7848,-110.7559,791.6,134.6,355.6,5.2,-1.0,8.86,54.12,1.9986,391.4895],
    [3289,1537381839,53.7855,-110.7559,790.7,133.7,356.0,4.4,-1.2,8.74,53.42,1.9957,393.8271],
    [3290,1537381840,53.7862,-110.7559,789.5,131.5,355.9,4.4,-0.8,8.14,52.57,1.9916,393.8321],
    [3291,1537381841,53.7869,-110.756,789.8,131.7,356.0,3.9,-0.1,8.48,51.38,2.0212,394.1061],
    [3292,1537381842,53.7877,-110.756,790.7,132.7,356.7,3.5,0.6,8.82,50.49,2.0089,394.1349],
    [3293,1537381843,53.7884,-110.756,791.5,133.4,356.5,4.0,-0.8,9.36,49.76,1.988,393.5024],
    [3294,1537381844,53.7891,-110.756,792.1,134.1,357.6,3.3,0.2,8.89,50.38,1.9783,392.5473],
    [3295,1537381845,53.7898,-110.756,792.5,134.5,357.2,4.2,-0.2,8.86,49.91,1.9754,392.8152],
    [3296,1537381846,53.7905,-110.756,793.0,135.0,357.7,3.7,0.2,8.94,49.81,1.9745,394.0731],
    [3297,1537381847,53.7912,-110.756,794.2,136.2,357.4,4.1,0.8,9.38,48.51,1.9759,395.011],
    [3298,1537381848,53.7919,-110.756,795.7,136.7,357.4,3.8,0.4,9.16,48.41,1.9758,392.6972],
    [3299,1537381849,53.7926,-110.756,797.1,136.1,357.6,3.5,1.0,9.21,48.36,1.9759,393.7537],
    [3300,1537381850,53.7933,-110.756,798.5,136.4,357.3,3.8,1.3,9.59,48.23,1.9767,394.3604],
    [3301,1537381851,53.794,-110.756,799.2,136.9,357.3,4.0,1.3,8.9,48.31,1.9822,394.8486],
    [3302,1537381852,53.7947,-110.756,799.5,136.5,357.2,4.1,0.9,8.87,49.63,1.9834,394.8486],
    [3303,1537381853,53.7954,-110.756,800.3,137.4,357.3,3.8,1.3,8.47,49.38,1.9845,394.2328],
    [3304,1537381854,53.7961,-110.756,801.7,137.7,357.8,3.1,2.2,8.92,49.72,1.9919,394.7734],
    [3305,1537381855,53.7968,-110.7559,803.7,138.8,358.1,3.0,1.6,8.56,50.28,2.0276,393.1855],
    [3306,1537381856,53.7975,-110.7559,805.7,139.0,357.1,3.8,1.0,8.75,50.98,2.0255,392.8939],
    [3307,1537381857,53.7982,-110.7559,807.2,138.8,357.7,3.0,1.6,8.62,51.37,2.0097,395.771],
    [3308,1537381858,53.7989,-110.7559,807.8,136.4,356.5,4.1,2.3,8.87,51.37,1.9897,395.2738],
    [3309,1537381859,53.7996,-110.756,808.1,134.0,356.2,4.2,1.5,8.69,51.81,1.9864,394.8056],
    [3310,1537381860,53.8003,-110.756,809.1,133.5,356.1,4.3,1.8,8.86,52.38,1.9851,394.3774],
    [3311,1537381861,53.8009,-110.756,810.9,133.8,356.0,4.4,2.0,8.72,53.08,1.9852,394.3774],
    [3312,1537381862,53.8016,-110.756,812.8,137.2,356.2,4.2,2.2,8.71,53.11,1.9854,394.9172],
    [3313,1537381863,53.8023,-110.756,814.4,143.6,356.3,4.3,2.2,8.21,53.63,1.9866,395.3131],
    [3314,1537381864,53.803,-110.756,815.7,148.7,356.1,4.9,1.4,8.54,53.9,1.9864,394.741],
    [3315,1537381865,53.8037,-110.756,817.6,154.9,356.1,4.7,2.2,9.1,54.01,1.9862,394.8274],
    [3316,1537381866,53.8044,-110.756,819.2,158.9,357.2,3.7,2.0,8.6,54.24,1.9884,393.8786],
    [3317,1537381867,53.805,-110.756,820.1,162.6,357.6,3.5,0.2,8.12,54.39,1.9891,394.5315],
    [3318,1537381868,53.8057,-110.756,820.1,165.4,358.3,3.0,0.7,9.1,54.45,1.9897,394.247],
    [3319,1537381869,53.8064,-110.756,819.5,167.1,358.5,2.6,0.7,8.66,55.21,1.9895,395.2652],
    [3320,1537381870,53.8071,-110.756,820.1,168.0,357.5,3.7,1.0,9.2,54.35,1.9889,393.8075],
    [3321,1537381871,53.8078,-110.756,820.7,167.0,356.9,3.8,0.0,8.86,55.04,1.9868,394.6069],
    [3322,1537381872,53.8085,-110.756,820.8,162.3,356.7,3.9,1.1,8.86,54.67,1.9826,394.4882],
    [3323,1537381873,53.8091,-110.756,820.5,157.7,356.3,4.3,1.5,8.6,54.72,1.991,395.7194],
    [3324,1537381874,53.8098,-110.756,820.4,153.1,356.4,4.4,1.5,8.37,54.42,1.9909,394.2922],
    [3325,1537381875,53.8105,-110.756,821.1,151.7,356.3,4.6,1.6,8.6,53.94,1.9947,395.2273],
    [3326,1537381876,53.8112,-110.756,822.0,151.8,357.6,3.1,0.3,8.59,53.83,1.9861,395.2862],
    [3327,1537381877,53.8119,-110.756,822.0,151.7,359.1,2.0,-0.9,8.42,53.52,1.9856,395.0913],
    [3328,1537381878,53.8125,-110.756,821.7,151.7,357.8,3.6,-0.1,8.55,54.07,1.9842,394.8914],
    [3329,1537381879,53.8132,-110.756,820.8,151.3,357.9,3.4,-0.2,9.24,53.15,1.984,394.2055],
    [3330,1537381880,53.8139,-110.756,820.3,150.3,357.7,3.7,-1.1,8.77,54.09,1.9833,395.0987],
    [3331,1537381881,53.8146,-110.756,820.2,150.2,357.9,3.3,-0.8,8.5,54.08,1.9811,394.5953],
    [3332,1537381882,53.8153,-110.7559,820.1,150.1,358.1,3.0,-0.5,8.06,54.32,1.9806,395.6469],
    [3333,1537381883,53.816,-110.7559,819.9,148.9,359.0,1.9,1.4,8.65,54.3,1.9781,394.8867],
    [3334,1537381884,53.8167,-110.7559,819.0,148.2,358.9,2.0,0.8,8.41,54.06,1.9802,395.8549],
    [3335,1537381885,53.8174,-110.7559,817.8,146.8,358.3,2.4,0.8,8.63,53.86,1.9816,395.0524],
    [3336,1537381886,53.8181,-110.7559,817.7,145.9,357.6,3.2,1.0,8.51,54.02,1.9809,395.4191],
    [3337,1537381887,53.8187,-110.7559,817.9,146.9,357.4,3.0,0.6,8.34,54.09,1.9793,394.8129],
    [3338,1537381888,53.8194,-110.7559,817.9,147.8,357.6,2.5,1.6,8.42,54.2,1.9798,395.2407],
    [3339,1537381889,53.8201,-110.7559,817.0,149.9,356.3,3.8,2.0,8.54,54.72,1.98,394.7528],
    [3340,1537381890,53.8208,-110.756,816.0,151.2,356.0,4.0,2.2,8.13,53.89,1.9803,393.7565],
    [3341,1537381891,53.8215,-110.756,816.3,154.4,356.5,3.5,2.2,8.51,54.0,1.9802,395.3008],
    [3342,1537381892,53.8222,-110.756,817.1,156.4,356.6,3.4,2.3,8.24,53.83,1.9785,393.938],
    [3343,1537381893,53.8228,-110.756,817.0,158.2,356.9,3.1,2.9,8.49,54.03,1.9773,394.9085],
    [3344,1537381894,53.8235,-110.756,816.3,159.0,356.4,3.7,2.8,8.54,53.96,1.9759,394.8742],
    [3345,1537381895,53.8242,-110.756,816.3,161.1,356.5,3.5,2.9,8.47,53.77,1.9775,395.2042],
    [3346,1537381896,53.8249,-110.756,816.9,163.3,356.9,3.4,2.8,8.74,53.52,1.9774,394.5339],
    [3347,1537381897,53.8256,-110.7561,817.2,166.2,357.2,3.2,2.1,8.39,54.39,1.977,395.551],
    [3348,1537381898,53.8263,-110.7561,817.6,167.6,357.4,3.0,1.9,8.61,54.5,1.977,395.551],
    [3349,1537381899,53.827,-110.7561,818.6,169.6,357.5,2.8,2.4,8.27,54.22,1.9794,395.8451],
    [3350,1537381900,53.8277,-110.7561,819.4,170.5,358.2,1.7,2.5,7.93,54.27,1.9781,394.6387],
    [3351,1537381901,53.8283,-110.7561,819.4,171.9,358.1,1.9,2.2,8.4,54.36,1.9787,396.8644],
    [3352,1537381902,53.829,-110.7561,819.3,175.0,356.6,3.5,2.5,8.36,54.5,1.9817,395.424],
    [3353,1537381903,53.8297,-110.7561,819.3,175.3,357.2,2.5,1.4,9.04,54.45,1.9852,392.9591],
    [3354,1537381904,53.8304,-110.7561,820.4,179.3,357.9,1.3,2.8,7.96,55.17,1.9864,393.6397],
    [3355,1537381905,53.8311,-110.7562,820.8,181.5,358.5,0.9,2.4,8.24,55.89,1.9857,395.4203],
    [3356,1537381906,53.8318,-110.7562,819.9,182.5,357.2,2.5,3.0,8.91,56.1,1.9835,395.2384],
    [3357,1537381907,53.8325,-110.7562,818.9,182.9,355.8,3.6,0.2,7.92,56.14,1.9827,395.2384],
    [3358,1537381908,53.8332,-110.7562,819.3,184.6,356.7,2.2,-0.5,8.92,55.63,1.9843,396.0546],
    [3359,1537381909,53.8339,-110.7563,819.8,186.8,356.2,2.8,0.9,9.09,55.54,1.9856,395.0816],
    [3360,1537381910,53.8346,-110.7563,818.9,187.8,355.1,4.1,0.6,8.01,55.92,1.9869,395.5596],
    [3361,1537381911,53.8353,-110.7563,817.6,187.3,355.8,3.7,0.6,8.65,55.65,1.9861,395.5596],
    [3362,1537381912,53.8359,-110.7564,817.0,187.0,356.2,3.7,1.7,7.9,55.86,1.9834,395.0048],
    [3363,1537381913,53.8366,-110.7564,816.9,186.9,356.4,3.8,1.0,8.18,56.02,1.9834,394.6837],
    [3364,1537381914,53.8373,-110.7564,817.2,187.1,357.0,3.3,2.0,9.19,55.58,1.9834,395.2059],
    [3365,1537381915,53.838,-110.7564,817.7,188.3,358.0,2.6,1.3,8.37,56.17,1.9838,396.7125],
    [3366,1537381916,53.8387,-110.7564,818.3,191.0,358.8,2.0,-0.2,8.5,55.94,1.9826,393.1801],
    [3367,1537381917,53.8394,-110.7564,819.5,194.4,358.6,2.3,-0.3,8.67,55.8,1.9804,393.2811],
    [3368,1537381918,53.8401,-110.7564,820.1,198.7,358.8,2.0,-0.7,8.76,55.38,1.9797,394.9116],
    [3369,1537381919,53.8408,-110.7564,820.3,201.9,358.4,2.2,-1.2,9.15,54.61,1.9791,393.719],
    [3370,1537381920,53.8415,-110.7564,821.2,210.8,357.9,1.9,0.9,8.7,54.36,1.9803,393.7069],
    [3371,1537381921,53.8422,-110.7564,820.9,215.5,356.1,4.0,-0.5,8.44,54.47,1.9785,393.6601],
    [3372,1537381922,53.8429,-110.7564,820.9,222.5,356.5,3.2,1.1,8.57,54.57,1.976,393.7403],
    [3373,1537381923,53.8436,-110.7564,822.2,226.4,358.4,1.5,1.4,8.64,54.2,1.9766,394.2596],
    [3374,1537381924,53.8443,-110.7564,822.1,229.4,358.2,2.4,2.2,8.4,53.89,1.9767,393.8483],
    [3375,1537381925,53.845,-110.7564,820.7,230.5,357.3,3.8,1.8,8.2,53.71,1.9784,392.8567],
    [3376,1537381926,53.8456,-110.7564,819.7,233.1,357.9,3.4,1.8,8.49,53.54,1.9781,393.5275],
    [3377,1537381927,53.8463,-110.7564,820.2,236.2,358.6,3.2,1.4,8.52,53.55,1.9801,394.3325],
    [3378,1537381928,53.847,-110.7564,821.1,245.1,358.7,3.4,0.9,8.21,53.13,1.9788,393.2167],
    [3379,1537381929,53.8478,-110.7564,820.7,253.2,360.2,2.0,0.6,8.67,52.72,1.9776,393.8836],
    [3380,1537381930,53.8484,-110.7563,820.3,267.2,359.8,2.6,-0.7,9.02,52.72,1.9711,394.23],
    [3381,1537381931,53.8491,-110.7563,821.0,274.7,360.3,1.7,-0.4,8.77,52.74,1.9693,394.3537],
    [3382,1537381932,53.8498,-110.7563,820.9,280.9,359.9,2.1,0.2,8.96,52.58,1.9682,394.2229],
    [3383,1537381933,53.8505,-110.7562,819.9,281.9,358.9,3.2,-0.1,8.82,52.12,1.9676,393.9366],
    [3384,1537381934,53.8512,-110.7562,818.7,284.7,358.5,3.3,0.2,8.94,51.85,1.9663,393.4445],
    [3385,1537381935,53.8519,-110.7562,818.1,287.4,358.2,3.5,0.2,8.17,51.67,1.9662,392.881],
    [3386,1537381936,53.8526,-110.7562,818.2,290.8,357.6,4.3,-0.9,8.82,51.24,1.9745,393.946],
    [3387,1537381937,53.8533,-110.7562,819.8,293.8,357.9,3.3,0.1,8.12,51.23,1.9708,394.5654],
    [3388,1537381938,53.854,-110.7562,822.3,297.4,359.6,1.3,-1.2,8.44,51.41,1.9704,394.6248],
    [3389,1537381939,53.8547,-110.7561,823.8,298.8,360.0,1.2,-1.5,9.12,51.68,1.9811,394.5679],
    [3390,1537381940,53.8554,-110.7561,823.8,299.8,357.9,4.0,-0.1,8.52,52.6,1.9833,394.9426],
    [3391,1537381941,53.8561,-110.7561,822.9,302.9,357.3,4.3,0.6,8.96,52.8,1.9765,393.7758],
    [3392,1537381942,53.8568,-110.7561,821.1,304.9,357.2,3.9,0.5,9.15,52.97,1.9717,394.6938],
    [3393,1537381943,53.8575,-110.7561,820.1,304.2,357.0,3.7,1.2,8.88,52.82,1.9687,394.9679],
    [3394,1537381944,53.8582,-110.7561,819.5,301.2,356.7,3.7,0.7,8.74,53.49,1.967,394.5081],
    [3395,1537381945,53.8589,-110.7561,819.0,294.4,357.7,2.4,0.9,8.16,53.19,1.9685,394.0503],
    [3396,1537381946,53.8596,-110.7561,819.0,288.0,357.4,2.8,0.2,8.45,52.88,1.9679,394.961],
    [3397,1537381947,53.8603,-110.7562,819.1,276.3,357.3,3.0,-0.4,7.96,53.1,1.968,393.7606],
    [3398,1537381948,53.861,-110.7562,819.5,268.8,357.7,2.6,-0.2,8.7,53.11,1.9668,395.1084],
    [3399,1537381949,53.8617,-110.7562,819.1,256.3,357.3,3.3,0.0,8.79,52.62,1.9678,395.3819],
    [3400,1537381950,53.8624,-110.7562,818.8,250.2,357.3,3.3,0.1,8.3,53.31,1.9666,395.5086],
    [3401,1537381951,53.8631,-110.7562,819.3,245.0,357.2,3.7,0.3,8.4,53.27,1.9687,393.1982],
    [3402,1537381952,53.8638,-110.7562,819.5,242.6,357.0,3.9,0.7,8.47,53.37,1.9665,392.7401],
    [3403,1537381953,53.8645,-110.7562,818.8,238.8,357.6,3.2,0.6,8.82,53.12,1.9647,393.6705],
    [3404,1537381954,53.8652,-110.7562,818.2,236.5,358.1,2.8,0.9,8.43,53.54,1.9638,392.8321],
    [3405,1537381955,53.8659,-110.7562,818.7,234.8,358.0,2.9,0.8,8.18,53.53,1.9615,390.6391],
    [3406,1537381956,53.8666,-110.7562,818.8,232.7,358.2,2.6,1.1,8.46,52.5,1.9614,393.4722],
    [3407,1537381957,53.8673,-110.7562,818.3,229.9,357.8,3.0,1.4,8.35,51.52,1.961,392.6766],
    [3408,1537381958,53.868,-110.7562,817.9,227.9,357.3,3.5,1.9,8.26,50.96,1.9597,393.2403],
    [3409,1537381959,53.8687,-110.7562,818.2,225.1,357.5,3.2,1.4,9.24,49.99,1.9632,393.3088],
    [3410,1537381960,53.8694,-110.7562,819.1,224.5,357.9,2.7,1.6,8.54,50.15,1.9617,392.1303],
    [3411,1537381961,53.8701,-110.7562,819.2,221.5,358.0,2.5,2.5,8.37,49.65,1.9617,394.1286],
    [3412,1537381962,53.8708,-110.7562,818.5,218.1,357.7,2.8,2.4,8.53,49.98,1.961,392.939],
    [3413,1537381963,53.8715,-110.7562,818.2,214.8,357.7,2.8,2.0,8.31,49.93,1.9592,393.0537],
    [3414,1537381964,53.8722,-110.7562,818.9,213.9,357.6,3.1,2.6,7.87,49.52,1.959,395.3456],
    [3415,1537381965,53.8729,-110.7562,819.3,214.2,357.9,2.9,2.3,8.7,49.07,1.9609,394.5575],
    [3416,1537381966,53.8736,-110.7562,819.2,214.1,357.9,3.0,1.8,8.51,49.64,1.9637,394.3839],
    [3417,1537381967,53.8743,-110.7562,819.0,214.9,358.2,2.4,1.7,8.47,49.18,1.9643,393.1196],
    [3418,1537381968,53.875,-110.7562,819.3,218.0,358.5,2.2,2.4,8.24,49.11,1.9645,393.1787],
    [3419,1537381969,53.8757,-110.7562,819.7,219.7,358.3,2.2,1.4,9.16,49.36,1.9729,393.6154],
    [3420,1537381970,53.8764,-110.7562,818.6,218.6,358.2,2.6,0.3,8.47,49.89,1.9738,394.0076],
    [3421,1537381971,53.8771,-110.7562,817.9,216.8,357.2,3.6,0.3,8.06,49.5,1.9721,394.3431],
    [3422,1537381972,53.8778,-110.7562,818.2,217.2,357.7,2.8,0.4,8.89,49.49,1.9723,394.3431],
    [3423,1537381973,53.8785,-110.7562,818.9,218.7,357.6,3.0,0.1,8.47,50.12,1.9748,393.5464],
    [3424,1537381974,53.8792,-110.7562,819.7,221.7,357.0,3.6,0.4,8.48,50.47,1.9753,393.7664],
    [3425,1537381975,53.8799,-110.7562,820.5,222.8,357.1,3.2,1.1,8.35,50.47,1.9784,394.6258],
    [3426,1537381976,53.8806,-110.7562,820.6,223.6,357.6,3.1,1.5,9.17,50.28,1.9733,393.5489],
    [3427,1537381977,53.8813,-110.7562,820.3,223.3,357.1,4.0,0.7,8.72,50.74,1.975,394.8373],
    [3428,1537381978,53.882,-110.7562,819.8,223.8,358.4,2.6,0.5,9.07,50.9,1.9755,394.057],
    [3429,1537381979,53.8827,-110.7562,819.4,224.4,358.1,3.0,1.5,8.59,51.25,1.9752,394.2249],
    [3430,1537381980,53.8834,-110.7562,818.8,224.8,358.1,3.1,1.8,8.3,51.47,1.9762,394.4601],
    [3431,1537381981,53.8842,-110.7562,817.8,223.8,357.4,4.0,1.5,8.39,51.6,1.9738,394.4219],
    [3432,1537381982,53.8849,-110.7562,816.7,223.7,357.7,3.5,3.0,8.22,51.5,1.974,392.6842],
    [3433,1537381983,53.8856,-110.7562,815.1,223.0,358.2,3.1,2.4,8.39,51.68,1.9733,393.6996],
    [3434,1537381984,53.8863,-110.7562,814.2,223.2,357.6,3.9,1.7,8.0,51.82,1.9773,393.054],
    [3435,1537381985,53.887,-110.7561,814.8,222.8,358.3,3.1,2.4,8.67,52.35,1.9785,393.8352],
    [3436,1537381986,53.8877,-110.7561,814.9,222.9,357.8,3.9,2.2,8.49,52.69,1.9798,394.166],
    [3437,1537381987,53.8884,-110.7561,814.1,222.1,357.5,4.0,1.4,8.62,52.62,1.976,393.1516],
    [3438,1537381988,53.8891,-110.7561,813.5,221.2,357.5,4.0,1.4,8.44,52.47,1.9727,392.868],
    [3439,1537381989,53.8899,-110.7561,813.4,220.4,358.0,3.1,1.8,7.93,52.62,1.9721,394.6608],
    [3440,1537381990,53.8906,-110.7561,812.6,218.6,358.0,3.1,0.9,8.6,52.32,1.9731,396.6868],
    [3441,1537381991,53.8913,-110.7561,811.9,216.9,357.6,3.4,0.7,8.24,52.44,1.9726,398.9114],
    [3442,1537381992,53.892,-110.7561,811.3,215.2,357.8,3.0,2.2,8.46,53.05,1.9728,398.1847],
    [3443,1537381993,53.8927,-110.7561,809.7,213.7,358.3,2.7,2.2,9.12,51.77,1.9727,394.4909],
    [3444,1537381994,53.8935,-110.7561,807.8,212.6,358.4,2.8,2.5,7.89,52.34,1.9725,394.1011],
    [3445,1537381995,53.8942,-110.7561,806.2,212.8,359.1,2.2,2.0,8.92,51.5,1.9731,394.3927],
    [3446,1537381996,53.8949,-110.7561,805.1,214.9,359.2,2.2,2.6,8.43,52.01,1.9717,394.196],
    [3447,1537381997,53.8956,-110.756,804.6,223.7,359.2,2.1,2.6,8.54,51.57,1.9713,394.7922],
    [3448,1537381998,53.8963,-110.756,803.5,232.8,358.8,2.3,1.9,8.46,51.44,1.9711,393.7125],
    [3449,1537381999,53.8971,-110.756,802.3,247.6,358.1,2.9,2.1,8.6,51.43,1.9705,395.2854],
    [3450,1537382000,53.8978,-110.756,801.6,259.5,357.6,3.4,2.1,8.64,52.22,1.9704,395.1613],
    [3451,1537382001,53.8985,-110.756,801.0,264.5,358.1,3.2,1.8,8.32,51.98,1.9724,395.4548],
    [3452,1537382002,53.8992,-110.756,799.7,269.4,357.5,4.2,2.7,8.59,52.8,1.9737,393.8626],
    [3453,1537382003,53.9,-110.756,798.4,269.5,358.1,3.5,2.3,8.59,52.39,1.9721,394.0897],
    [3454,1537382004,53.9007,-110.756,797.8,268.8,359.0,2.4,2.1,8.5,52.83,1.9701,394.9161],
    [3455,1537382005,53.9014,-110.756,797.7,267.4,359.4,2.3,3.2,8.98,52.94,1.9697,393.8619],
    [3456,1537382006,53.9021,-110.7559,796.6,263.6,358.3,3.8,2.7,8.27,53.38,1.9713,393.8959],
    [3457,1537382007,53.9028,-110.7559,795.1,254.1,358.8,3.5,2.7,8.32,52.77,1.9707,393.5537],
    [3458,1537382008,53.9036,-110.7559,794.2,245.4,359.3,3.0,2.4,8.3,53.23,1.9696,393.429],
    [3459,1537382009,53.9043,-110.7559,793.5,233.4,360.1,1.9,1.4,9.0,52.62,1.9672,392.609],
    [3460,1537382010,53.905,-110.7558,792.5,221.1,359.8,2.4,1.7,8.4,52.45,1.9686,393.8935],
    [3461,1537382011,53.9058,-110.7558,791.9,211.1,358.7,3.6,1.6,8.58,52.58,1.9705,393.7996],
    [3462,1537382012,53.9065,-110.7558,791.4,198.5,357.9,4.0,1.4,8.5,51.88,1.9715,398.5137],
    [3463,1537382013,53.9072,-110.7558,790.9,192.0,358.1,3.7,1.8,8.59,51.9,1.9716,394.4234],
    [3464,1537382014,53.9079,-110.7557,789.7,183.7,357.9,3.9,1.9,8.17,51.44,1.9725,393.2683],
    [3465,1537382015,53.9087,-110.7557,788.3,174.3,358.6,2.9,1.2,9.27,50.93,1.9723,393.4799],
    [3466,1537382016,53.9094,-110.7557,787.3,168.0,358.6,3.2,1.8,8.39,51.29,1.971,392.7124],
    [3467,1537382017,53.9101,-110.7557,786.1,158.8,358.3,3.5,2.2,8.4,51.3,1.9731,394.1587],
    [3468,1537382018,53.9109,-110.7557,784.9,151.2,358.3,3.4,2.7,8.04,51.19,1.9742,393.7596],
    [3469,1537382019,53.9116,-110.7557,783.8,147.6,358.5,3.1,2.1,8.71,50.91,1.9722,393.5122],
    [3470,1537382020,53.9123,-110.7556,782.9,145.5,358.5,3.2,2.5,8.64,50.99,1.971,395.6645],
    [3471,1537382021,53.913,-110.7556,782.3,145.0,358.4,3.0,3.1,8.34,50.85,1.9725,394.4195],
    [3472,1537382022,53.9138,-110.7556,782.1,145.1,359.6,1.3,2.0,9.51,50.5,1.9747,394.0645],
    [3473,1537382023,53.9145,-110.7556,782.2,145.2,359.2,2.2,2.0,8.92,50.97,1.9741,393.8493],
    [3474,1537382024,53.9152,-110.7556,782.6,144.8,358.1,3.1,2.4,8.85,50.77,1.9724,393.583],
    [3475,1537382025,53.9159,-110.7556,783.8,143.2,358.3,2.8,2.2,7.97,50.9,1.9716,393.2812],
    [3476,1537382026,53.9167,-110.7556,785.3,143.0,357.8,3.2,2.5,8.85,51.23,1.9719,393.0637],
    [3477,1537382027,53.9174,-110.7556,786.7,143.7,357.9,2.8,2.6,8.47,50.82,1.9726,393.2429],
    [3478,1537382028,53.9181,-110.7556,788.0,145.2,358.7,1.9,2.2,9.16,50.16,1.9735,394.2676],
    [3479,1537382029,53.9188,-110.7556,789.9,148.3,358.8,1.9,1.3,8.21,51.09,1.9752,394.444],
    [3480,1537382030,53.9195,-110.7556,792.4,155.5,359.9,0.6,2.5,8.54,51.02,1.9767,393.6687],
    [3481,1537382031,53.9202,-110.7556,795.3,161.9,359.5,1.1,3.8,8.93,51.66,1.9776,393.5097],
    [3482,1537382032,53.9209,-110.7555,796.6,170.9,359.3,1.3,3.1,8.53,51.88,1.9768,393.5613],
    [3483,1537382033,53.9217,-110.7555,797.2,176.9,358.8,1.9,3.8,8.94,51.84,1.9746,393.9439],
    [3484,1537382034,53.9224,-110.7555,797.5,183.9,357.6,3.5,3.1,8.66,52.37,1.9735,393.9439],
    [3485,1537382035,53.9231,-110.7555,798.0,189.6,357.0,4.2,3.2,9.12,52.42,1.972,392.9173],
    [3486,1537382036,53.9238,-110.7555,798.4,192.3,357.8,3.3,3.1,8.83,51.74,1.9716,394.243],
    [3487,1537382037,53.9245,-110.7555,799.4,195.4,358.3,2.9,2.4,8.76,51.46,1.9758,392.165],
    [3488,1537382038,53.9252,-110.7555,801.8,197.6,358.3,3.0,2.8,8.48,51.68,1.9793,394.5258],
    [3489,1537382039,53.9259,-110.7555,804.2,201.1,358.6,2.5,3.4,8.3,51.49,1.9814,394.5258],
    [3490,1537382040,53.9266,-110.7555,805.4,202.4,358.6,2.9,3.3,8.67,52.0,1.9824,393.5313],
    [3491,1537382041,53.9273,-110.7555,806.6,203.9,357.7,4.2,3.1,8.75,52.9,1.9825,393.9775],
    [3492,1537382042,53.928,-110.7554,809.0,206.9,358.0,4.0,2.2,9.01,52.3,1.9798,392.6293],
    [3493,1537382043,53.9287,-110.7554,810.6,209.6,358.5,3.5,2.3,8.64,52.82,1.9792,394.3884],
    [3494,1537382044,53.9294,-110.7554,812.9,212.9,358.6,3.5,1.9,8.81,53.16,1.9811,393.5608],
    [3495,1537382045,53.9301,-110.7554,815.3,216.4,359.3,2.6,1.7,8.63,54.29,1.9824,393.3826],
    [3496,1537382046,53.9308,-110.7553,817.0,218.0,360.3,1.7,3.4,8.7,53.97,1.9813,394.1233],
    [3497,1537382047,53.9314,-110.7553,818.0,219.0,358.9,2.6,3.0,8.19,54.26,1.9809,394.7318],
    [3498,1537382048,53.9321,-110.7553,818.4,219.4,358.7,2.1,4.1,8.33,54.25,1.9825,394.661],
    [3499,1537382049,53.9328,-110.7553,818.6,220.6,356.5,3.8,3.9,8.8,54.71,1.9809,393.8437],
    [3500,1537382050,53.9335,-110.7553,819.0,221.7,356.7,2.9,4.4,7.97,54.72,1.9789,393.3031],
    [3501,1537382051,53.9342,-110.7553,819.4,222.4,356.8,2.8,4.1,8.57,54.77,1.9768,394.3968],
    [3502,1537382052,53.9349,-110.7554,819.6,222.6,356.8,3.3,2.3,8.69,54.7,1.9745,394.3968],
    [3503,1537382053,53.9356,-110.7554,820.4,223.4,357.1,3.0,1.7,8.9,54.3,1.9721,392.043],
    [3504,1537382054,53.9363,-110.7554,821.5,224.5,357.8,2.8,1.5,8.59,54.23,1.9743,392.1219],
    [3505,1537382055,53.937,-110.7554,822.4,225.4,357.5,3.3,2.0,8.69,54.04,1.974,391.8689],
    [3506,1537382056,53.9377,-110.7554,822.6,225.6,358.1,2.8,2.6,8.58,53.83,1.9732,393.4949],
    [3507,1537382057,53.9384,-110.7554,822.1,225.2,357.4,3.7,2.3,8.7,54.05,1.9718,394.5108],
    [3508,1537382058,53.9391,-110.7554,821.1,224.1,357.3,3.9,3.7,8.74,54.5,1.97,392.0652],
    [3509,1537382059,53.9398,-110.7554,819.7,222.7,356.1,4.9,2.9,8.7,54.44,1.9653,391.9271],
    [3510,1537382060,53.9405,-110.7554,818.9,221.9,356.4,3.8,3.0,8.12,53.53,1.9684,391.3294],
    [3511,1537382061,53.9411,-110.7554,819.0,222.0,356.8,3.0,3.5,8.2,52.98,1.967,391.3294],
    [3512,1537382062,53.9419,-110.7554,819.2,222.2,356.1,3.5,2.0,8.4,52.69,1.9692,392.7997],
    [3513,1537382063,53.9426,-110.7554,818.5,221.5,356.6,3.1,0.8,9.22,52.61,1.967,391.9263],
    [3514,1537382064,53.9433,-110.7554,818.3,221.4,355.7,4.6,1.1,8.14,52.69,1.9677,394.7397],
    [3515,1537382065,53.944,-110.7555,819.0,222.0,355.4,4.9,-0.1,8.74,52.83,1.9736,394.1314],
    [3516,1537382066,53.9447,-110.7555,819.8,222.8,357.1,3.2,0.3,8.73,53.5,1.9745,392.4853],
    [3517,1537382067,53.9454,-110.7555,820.7,223.8,356.7,3.8,1.3,9.27,53.28,1.9751,392.4414],
    [3518,1537382068,53.9461,-110.7555,822.0,225.1,357.8,2.7,0.9,8.48,53.87,1.9683,393.5057],
    [3519,1537382069,53.9468,-110.7555,821.1,224.3,357.8,2.9,0.8,8.89,53.48,1.9649,392.4081],
    [3520,1537382070,53.9475,-110.7555,818.5,219.9,357.8,2.9,1.6,8.34,53.58,1.9617,392.0086],
    [3521,1537382071,53.9482,-110.7555,815.9,215.7,357.7,3.1,2.0,8.68,52.16,1.9555,392.731],
    [3522,1537382072,53.9489,-110.7555,814.5,211.6,357.9,3.1,1.6,9.2,51.09,1.9594,393.0028],
    [3523,1537382073,53.9497,-110.7555,814.3,209.4,357.8,3.3,1.8,8.18,50.04,1.9628,392.0787],
    [3524,1537382074,53.9504,-110.7555,814.5,208.6,357.8,3.3,1.2,8.62,49.68,1.9686,393.1876],
    [3525,1537382075,53.9511,-110.7555,814.4,208.5,358.3,2.5,1.8,8.68,48.63,1.9677,392.9503],
    [3526,1537382076,53.9518,-110.7555,814.4,208.5,358.1,2.9,1.5,8.73,49.37,1.9642,390.9673],
    [3527,1537382077,53.9525,-110.7555,815.2,209.3,357.5,3.6,2.6,8.38,49.39,1.9644,392.8208],
    [3528,1537382078,53.9532,-110.7555,815.9,210.0,357.4,3.8,2.3,8.75,50.29,1.9654,393.4626],
    [3529,1537382079,53.9539,-110.7555,816.1,210.2,357.6,3.7,2.9,9.1,50.22,1.9669,392.1263],
    [3530,1537382080,53.9546,-110.7555,817.4,210.5,357.7,3.7,3.0,8.72,50.29,1.9687,392.0787],
    [3531,1537382081,53.9554,-110.7554,819.3,210.4,358.0,3.4,3.3,8.91,50.22,1.9706,393.518],
    [3532,1537382082,53.9561,-110.7554,820.5,210.1,359.0,1.8,2.8,8.7,50.85,1.9674,392.6055],
    [3533,1537382083,53.9568,-110.7554,820.4,206.6,358.1,3.3,2.5,8.96,50.41,1.9663,393.0932],
    [3534,1537382084,53.9575,-110.7554,818.5,202.3,356.0,4.7,1.6,8.74,51.59,1.966,394.0177],
    [3535,1537382085,53.9582,-110.7554,816.6,197.4,356.3,3.6,2.4,9.14,51.1,1.9642,392.5017],
    [3536,1537382086,53.9589,-110.7555,815.6,193.5,356.1,3.6,1.8,8.85,50.74,1.9651,394.4972],
    [3537,1537382087,53.9596,-110.7555,815.1,190.2,356.4,3.4,2.1,8.64,51.19,1.9659,393.7466],
    [3538,1537382088,53.9603,-110.7555,815.4,185.6,356.5,3.6,2.7,8.51,51.19,1.9669,392.5858],
    [3539,1537382089,53.961,-110.7555,815.8,181.6,356.9,3.6,2.2,8.7,51.33,1.9665,393.5798],
    [3540,1537382090,53.9617,-110.7555,815.8,179.0,358.0,2.5,2.3,9.29,50.9,1.9664,392.1872],
    [3541,1537382091,53.9625,-110.7555,816.1,179.6,358.1,3.0,2.2,8.7,51.95,1.9677,393.4919],
    [3542,1537382092,53.9631,-110.7555,816.9,180.0,358.4,2.8,1.4,8.59,52.49,1.9666,392.5512],
    [3543,1537382093,53.9639,-110.7555,817.9,177.0,360.0,1.9,2.2,8.66,52.56,1.9665,391.5105],
    [3544,1537382094,53.9646,-110.7555,817.9,170.0,358.8,4.1,1.5,8.33,52.83,1.9668,392.0974],
    [3545,1537382095,53.9653,-110.7554,818.1,167.5,358.9,4.1,2.7,8.75,53.27,1.9653,392.0974],
    [3546,1537382096,53.966,-110.7554,819.1,167.2,360.4,2.2,1.6,8.62,52.77,1.964,390.7464],
    [3547,1537382097,53.9667,-110.7553,821.4,169.4,360.9,1.4,1.5,8.85,53.11,1.9631,392.5793],
    [3548,1537382098,53.9674,-110.7553,821.6,172.1,359.7,2.9,1.4,8.59,52.2,1.9623,393.0666],
    [3549,1537382099,53.9681,-110.7553,819.8,170.3,357.6,4.4,1.6,8.55,52.18,1.9625,392.703],
    [3550,1537382100,53.9688,-110.7553,817.5,166.5,358.1,2.9,2.6,8.97,51.48,1.9614,393.1973],
    [3551,1537382101,53.9695,-110.7553,816.4,160.4,356.4,4.5,1.8,8.68,51.09,1.963,393.9975],
    [3552,1537382102,53.9702,-110.7553,816.8,159.2,356.8,4.0,1.7,8.68,50.71,1.9609,393.9614],
    [3553,1537382103,53.9709,-110.7553,818.0,158.1,357.2,3.6,0.6,8.84,50.46,1.9689,393.4003],
    [3554,1537382104,53.9716,-110.7553,818.3,157.3,357.4,4.0,1.0,8.76,50.55,1.9645,393.4003],
    [3555,1537382105,53.9723,-110.7553,817.7,155.8,357.4,4.0,-0.8,8.35,50.48,1.9634,392.1244],
    [3556,1537382106,53.973,-110.7553,818.7,155.7,358.1,3.2,0.9,8.46,50.15,1.9639,392.1244],
    [3557,1537382107,53.9737,-110.7552,819.8,155.9,357.4,4.0,1.5,8.46,49.76,1.9635,392.9763],
    [3558,1537382108,53.9744,-110.7552,819.5,153.8,357.1,4.1,1.1,8.79,50.2,1.9627,392.0297],
    [3559,1537382109,53.9751,-110.7552,818.5,150.5,358.3,2.9,1.1,8.46,50.05,1.9632,392.7679],
    [3560,1537382110,53.9758,-110.7552,817.7,148.4,357.4,4.4,0.9,8.78,49.34,1.9659,394.9172],
    [3561,1537382111,53.9765,-110.7552,817.5,147.5,358.0,3.8,1.4,8.9,49.87,1.965,393.6982],
    [3562,1537382112,53.9772,-110.7552,817.7,148.9,358.1,3.7,1.9,9.32,49.14,1.9648,393.3805],
    [3563,1537382113,53.9779,-110.7552,817.9,149.7,357.9,3.8,2.3,8.74,50.47,1.9669,393.3805],
    [3564,1537382114,53.9786,-110.7552,817.9,147.2,358.0,3.6,1.3,9.06,49.73,1.9656,393.6055],
    [3565,1537382115,53.9793,-110.7551,818.4,145.9,358.1,3.4,1.2,9.46,50.1,1.9636,392.8065],
    [3566,1537382116,53.98,-110.7551,820.0,145.5,358.4,3.1,1.7,8.88,50.21,1.9653,391.9072],
    [3567,1537382117,53.9807,-110.7551,820.5,146.1,358.3,3.5,2.0,8.78,50.46,1.9645,393.2046],
    [3568,1537382118,53.9814,-110.7551,820.6,144.2,358.3,3.6,2.4,8.89,50.47,1.9631,392.0199],
    [3569,1537382119,53.9821,-110.7551,820.4,141.5,358.5,3.3,2.9,9.31,50.33,1.965,391.5353],
    [3570,1537382120,53.9828,-110.7551,819.8,137.2,358.4,3.3,2.8,8.65,50.88,1.964,391.4238],
    [3571,1537382121,53.9835,-110.755,819.2,135.3,358.0,3.7,3.3,8.76,51.23,1.9639,393.2406],
    [3572,1537382122,53.9842,-110.755,818.6,133.9,358.0,3.5,2.3,9.11,50.31,1.9625,393.24],
    [3573,1537382123,53.9849,-110.755,818.9,133.9,358.6,2.7,1.8,8.84,51.11,1.9632,392.4109],
    [3574,1537382124,53.9856,-110.755,819.8,133.6,358.9,2.5,1.0,9.36,50.41,1.9632,392.9117],
    [3575,1537382125,53.9863,-110.755,821.0,133.6,358.0,3.8,0.5,8.9,50.97,1.9647,392.9117],
    [3576,1537382126,53.987,-110.755,821.7,132.6,359.3,1.7,0.7,8.78,50.91,1.9647,391.5731],
    [3577,1537382127,53.9878,-110.755,821.6,131.6,359.9,1.6,2.2,9.23,50.94,1.9643,392.6789],
    [3578,1537382128,53.9885,-110.7549,822.1,131.1,357.8,4.1,0.6,9.43,50.43,1.9605,391.5751],
    [3579,1537382129,53.9892,-110.7549,823.2,132.1,358.0,3.6,-1.2,8.85,51.32,1.9586,391.8347],
    [3580,1537382130,53.9898,-110.7549,824.1,132.1,357.5,4.0,-0.9,9.08,50.42,1.9571,392.8271],
    [3581,1537382131,53.9905,-110.7549,824.4,132.4,357.7,3.8,-0.5,8.89,50.38,1.9568,392.8271],
    [3582,1537382132,53.9913,-110.7549,824.4,131.8,357.7,3.9,-0.7,8.82,50.53,1.9548,391.1804],
    [3583,1537382133,53.9919,-110.7549,825.2,132.2,358.8,3.0,-1.1,8.26,49.72,1.9529,392.48],
    [3584,1537382134,53.9927,-110.7548,826.6,133.6,358.2,4.2,-0.4,8.53,48.86,1.9538,390.7947],
    [3585,1537382135,53.9933,-110.7548,827.8,133.9,357.6,4.8,-0.2,8.85,48.43,1.9549,392.1097],
    [3586,1537382136,53.994,-110.7548,829.3,134.4,357.5,5.1,-1.2,9.24,48.41,1.9557,392.3674],
    [3587,1537382137,53.9947,-110.7548,831.6,136.8,357.6,4.9,-0.7,8.96,48.9,1.9537,391.0993],
    [3588,1537382138,53.9954,-110.7547,833.8,138.7,358.3,4.5,0.2,9.05,48.5,1.9555,391.0993],
    [3589,1537382139,53.9961,-110.7547,834.5,139.4,357.5,5.4,-0.2,9.42,47.6,1.9537,392.107],
    [3590,1537382140,53.9968,-110.7547,835.0,138.9,357.3,5.7,-0.1,8.9,47.92,1.9548,392.2885],
    [3591,1537382141,53.9974,-110.7546,836.9,140.2,357.0,6.0,0.9,8.96,47.53,1.9601,391.1474],
    [3592,1537382142,53.9981,-110.7546,840.7,144.9,357.9,4.3,0.4,9.13,47.43,1.9579,392.82],
    [3593,1537382143,53.9988,-110.7546,843.3,147.4,359.4,2.4,0.4,9.0,48.49,1.9571,392.939],
    [3594,1537382144,53.9995,-110.7546,845.3,149.8,359.1,2.1,0.6,8.48,48.53,1.9587,389.7413],
    [3595,1537382145,54.0002,-110.7546,846.6,151.2,358.7,2.5,1.8,8.49,48.7,1.9609,392.7978],
    [3596,1537382146,54.0008,-110.7546,847.3,151.8,356.4,4.7,1.2,8.84,49.2,1.9587,392.6644],
    [3597,1537382147,54.0015,-110.7546,847.5,151.5,357.4,3.2,0.7,8.99,49.99,1.9593,393.2863],
    [3598,1537382148,54.0022,-110.7546,847.7,151.8,356.8,3.9,-0.4,8.68,49.99,1.9582,392.2776],
    [3599,1537382149,54.0028,-110.7546,848.8,151.9,356.2,4.0,0.3,8.69,49.8,1.9586,392.4472],
    [3600,1537382150,54.0035,-110.7546,849.3,152.3,356.1,4.3,1.6,9.07,49.47,1.9588,392.7786],
    [3601,1537382151,54.0042,-110.7546,847.8,151.5,354.4,6.2,1.0,8.85,50.35,1.9578,393.325],
    [3602,1537382152,54.0049,-110.7546,847.0,151.0,355.9,4.2,0.0,9.68,49.57,1.9573,392.0852],
    [3603,1537382153,54.0056,-110.7546,847.2,151.2,357.8,3.0,0.3,9.2,49.91,1.9579,393.0679],
    [3604,1537382154,54.0062,-110.7546,846.6,150.6,356.5,4.8,0.7,8.97,49.59,1.9578,392.8264],
    [3605,1537382155,54.0069,-110.7546,845.5,149.6,358.2,3.2,-0.3,8.76,49.98,1.9586,392.8264],
    [3606,1537382156,54.0076,-110.7546,845.3,150.4,357.2,4.5,0.3,9.15,50.23,1.9585,392.7321],
    [3607,1537382157,54.0083,-110.7546,846.9,152.9,356.6,4.4,0.8,9.13,50.64,1.9578,391.3208],
    [3608,1537382158,54.0089,-110.7546,848.9,155.9,357.2,3.4,-1.3,8.72,50.33,1.9561,392.6751],
    [3609,1537382159,54.0096,-110.7546,849.5,157.6,357.0,3.5,-1.4,8.92,50.11,1.9536,392.6751],
    [3610,1537382160,54.0103,-110.7546,850.1,159.1,356.4,3.7,-0.2,8.81,49.82,1.9533,393.2362],
    [3611,1537382161,54.011,-110.7546,850.4,159.3,356.6,2.9,0.2,9.15,48.96,1.9528,393.0881],
    [3612,1537382162,54.0117,-110.7547,849.6,160.3,355.7,4.2,0.1,8.47,48.85,1.9502,392.9634],
    [3613,1537382163,54.0124,-110.7547,848.3,160.4,355.9,4.2,0.6,8.8,48.53,1.9499,392.7657],
    [3614,1537382164,54.013,-110.7547,847.8,160.8,357.5,3.5,1.0,9.23,47.56,1.9502,392.6331],
    [3615,1537382165,54.0137,-110.7547,848.6,162.6,358.2,4.5,-0.7,8.93,47.58,1.9515,392.6814],
    [3616,1537382166,54.0144,-110.7546,849.4,162.7,361.4,3.0,0.7,8.72,47.44,1.9519,393.3618],
    [3617,1537382167,54.0151,-110.7545,849.1,161.5,4.3,2.4,0.3,8.92,47.58,1.9513,393.3618],
    [3618,1537382168,54.0158,-110.7544,847.4,159.3,5.6,4.2,-0.1,8.94,47.78,1.9513,391.0295],
    [3619,1537382169,54.0165,-110.7542,844.9,156.9,9.2,3.3,-0.1,8.98,47.75,1.9492,391.132],
    [3620,1537382170,54.0172,-110.7539,843.3,156.0,12.2,4.2,0.4,8.98,47.16,1.9475,391.5002],
    [3621,1537382171,54.0178,-110.7535,842.7,156.0,15.1,4.6,0.6,8.85,46.84,1.9526,391.862],
    [3622,1537382172,54.0185,-110.7531,842.2,156.0,18.0,4.8,1.1,8.59,46.91,1.9508,392.9826],
    [3623,1537382173,54.0191,-110.7527,842.1,156.4,21.4,4.6,1.5,8.14,46.42,1.948,392.3461],
    [3624,1537382174,54.0198,-110.7522,842.6,155.2,24.5,4.8,1.6,8.7,46.95,1.9487,392.972],
    [3625,1537382175,54.0204,-110.7516,843.6,155.6,28.2,4.3,2.2,8.53,46.23,1.9482,392.5148],
    [3626,1537382176,54.021,-110.751,844.5,155.0,31.4,4.7,2.9,8.91,46.38,1.9498,392.965],
    [3627,1537382177,54.0215,-110.7503,845.3,155.3,34.4,4.3,2.1,8.79,45.66,1.9497,394.0694],
    [3628,1537382178,54.0221,-110.7496,845.7,155.5,38.0,3.7,2.1,8.83,45.72,1.9513,393.0996],
    [3629,1537382179,54.0226,-110.7488,846.2,158.2,40.7,3.9,1.7,8.96,45.41,1.9544,391.5813],
    [3630,1537382180,54.0231,-110.748,846.6,160.5,43.6,3.8,1.8,8.74,46.42,1.9552,393.1257],
    [3631,1537382181,54.0236,-110.7471,846.7,161.7,47.1,3.3,1.9,8.79,46.9,1.954,392.9806],
    [3632,1537382182,54.0241,-110.7462,847.1,163.8,50.6,3.5,2.6,8.62,47.52,1.9564,393.1953],
    [3633,1537382183,54.0245,-110.7452,847.5,164.5,53.1,4.1,2.4,9.59,47.47,1.9541,393.1728],
    [3634,1537382184,54.0249,-110.7443,847.8,165.5,56.1,4.6,2.8,8.72,48.0,1.9529,390.1488],
    [3635,1537382185,54.0253,-110.7433,847.7,165.4,59.2,3.6,2.3,8.66,48.73,1.9552,393.3312],
    [3636,1537382186,54.0256,-110.7422,847.9,165.0,62.8,3.0,2.9,9.27,48.48,1.9535,394.0436],
    [3637,1537382187,54.026,-110.7411,848.2,164.8,66.0,2.5,2.4,8.76,49.39,1.9527,390.0599],
    [3638,1537382188,54.0262,-110.7401,848.7,165.7,68.7,2.3,2.1,8.7,48.72,1.9521,393.8009],
    [3639,1537382189,54.0265,-110.739,849.2,167.0,72.0,2.7,2.6,8.96,48.63,1.9527,392.7811],
    [3640,1537382190,54.0267,-110.7378,849.7,167.9,74.3,2.8,2.1,8.69,48.83,1.9537,391.968],
    [3641,1537382191,54.0269,-110.7367,850.1,167.5,76.7,3.1,2.4,8.49,48.36,1.9532,392.5895],
    [3642,1537382192,54.027,-110.7355,850.2,167.2,78.6,3.4,2.1,8.7,48.98,1.9548,392.4905],
    [3643,1537382193,54.0272,-110.7344,850.4,168.7,80.1,4.2,2.0,8.66,48.74,1.9546,393.3849],
    [3644,1537382194,54.0273,-110.7332,850.9,169.7,82.2,3.8,2.5,9.38,48.38,1.9553,393.0804],
    [3645,1537382195,54.0274,-110.732,850.8,171.4,82.8,4.6,1.7,8.6,48.42,1.9553,393.6405],
    [3646,1537382196,54.0275,-110.7309,850.1,173.8,83.5,4.8,1.5,8.53,49.17,1.9557,393.61],
    [3647,1537382197,54.0276,-110.7297,849.4,173.8,84.9,4.1,2.3,8.64,49.4,1.9581,392.2752],
    [3648,1537382198,54.0277,-110.7285,849.5,174.8,85.5,4.0,2.7,8.46,49.63,1.9668,392.8593],
    [3649,1537382199,54.0277,-110.7274,850.2,177.3,85.3,5.3,1.9,8.61,50.51,1.9599,392.9557],
    [3650,1537382200,54.0278,-110.7261,850.6,178.9,84.2,5.7,0.5,8.81,49.73,1.9739,392.0072],
    [3651,1537382201,54.0279,-110.7249,849.4,180.1,85.3,4.9,1.3,8.59,50.26,1.984,393.4202],
    [3652,1537382202,54.0279,-110.7237,847.3,178.3,85.2,3.8,0.5,9.0,50.32,1.964,395.282],
    [3653,1537382203,54.028,-110.7225,846.1,178.1,84.9,3.9,-0.5,8.67,50.06,1.9581,395.282],
    [3654,1537382204,54.028,-110.7214,845.4,176.4,85.3,4.3,-0.4,8.62,50.26,1.9571,392.1244],
    [3655,1537382205,54.0281,-110.7202,844.7,173.3,86.4,4.4,0.5,8.55,49.91,1.9563,393.2515],
    [3656,1537382206,54.0281,-110.719,844.5,174.3,88.1,4.6,1.6,8.6,49.69,1.9545,392.7447],
    [3657,1537382207,54.0282,-110.7178,845.2,177.0,88.8,4.2,1.7,8.64,49.74,1.9539,390.8914],
    [3658,1537382208,54.0282,-110.7166,845.8,178.7,89.2,4.2,1.6,8.6,49.27,1.9541,392.7267],
    [3659,1537382209,54.0282,-110.7154,846.0,179.7,89.5,4.8,1.6,8.01,48.82,1.9541,392.3008],
    [3660,1537382210,54.0282,-110.7142,846.6,180.7,90.2,4.8,2.2,8.84,48.73,1.9664,392.9428],
    [3661,1537382211,54.0282,-110.7131,847.4,181.2,89.9,4.8,1.7,9.38,48.22,2.1167,392.1618],
    [3662,1537382212,54.0283,-110.7119,848.4,182.1,89.3,5.8,1.2,8.77,48.55,2.1375,391.9634],
    [3663,1537382213,54.0283,-110.7107,848.1,181.0,90.4,5.2,2.4,8.89,47.98,2.0468,393.1864],
    [3664,1537382214,54.0283,-110.7095,847.6,179.6,89.7,4.7,1.6,8.57,48.56,2.1349,392.9112],
    [3665,1537382215,54.0283,-110.7083,848.6,179.3,88.3,5.4,0.5,8.84,48.26,2.075,391.3524],
    [3666,1537382216,54.0283,-110.7072,848.8,177.1,89.3,6.3,1.9,8.96,47.77,1.9757,390.4584],
    [3667,1537382217,54.0284,-110.706,847.5,175.6,89.4,6.2,1.8,8.95,47.95,1.9668,392.0357],
    [3668,1537382218,54.0284,-110.7048,846.7,176.5,88.4,5.1,0.9,8.17,48.49,1.9578,393.2803],
    [3669,1537382219,54.0284,-110.7036,847.5,178.8,88.3,3.8,1.2,8.23,47.76,1.9513,392.3873],
    [3670,1537382220,54.0284,-110.7024,847.9,181.0,89.2,3.9,2.2,9.02,47.28,1.9502,391.2277],
    [3671,1537382221,54.0285,-110.7013,848.0,182.0,88.1,4.0,1.0,8.72,47.09,1.9471,391.7184],
    [3672,1537382222,54.0285,-110.7001,847.1,181.4,88.2,3.8,1.2,8.28,46.89,1.9585,392.2052],
    [3673,1537382223,54.0285,-110.699,846.3,180.7,88.6,3.4,1.4,9.04,45.78,1.9594,392.4819],
    [3674,1537382224,54.0286,-110.6977,847.2,180.4,88.3,4.1,1.0,8.49,46.13,1.9564,392.5303],
    [3675,1537382225,54.0286,-110.6965,849.3,181.8,89.1,4.2,1.6,8.67,45.79,1.9514,392.5514],
    [3676,1537382226,54.0286,-110.6954,850.5,181.5,88.3,5.0,0.9,8.61,46.29,1.9518,391.6875],
    [3677,1537382227,54.0286,-110.6942,850.4,180.4,89.3,4.1,1.6,8.32,46.25,1.9517,391.4901],
    [3678,1537382228,54.0287,-110.693,849.3,180.3,88.7,4.6,0.3,8.02,46.07,1.9543,392.586],
    [3679,1537382229,54.0287,-110.6918,848.8,179.5,89.4,4.5,0.6,8.54,46.85,1.9514,392.6275],
    [3680,1537382230,54.0287,-110.6906,849.1,178.1,90.4,4.5,1.4,7.98,46.34,1.9535,392.5201],
    [3681,1537382231,54.0287,-110.6894,849.9,179.9,90.2,2.8,1.1,9.03,46.4,1.9552,392.3999],
    [3682,1537382232,54.0287,-110.6883,850.3,181.3,90.1,3.5,1.2,8.73,46.3,1.9589,392.5809],
    [3683,1537382233,54.0287,-110.6871,851.0,182.0,88.5,3.1,-0.4,7.87,46.52,1.959,393.4338],
    [3684,1537382234,54.0287,-110.6859,851.9,182.9,87.7,2.8,-0.4,9.04,46.8,1.9582,392.448],
    [3685,1537382235,54.0288,-110.6847,852.2,183.2,88.9,3.3,0.8,9.03,47.4,1.9609,391.8783],
    [3686,1537382236,54.0288,-110.6835,852.2,184.2,87.8,2.7,-0.1,8.13,47.77,1.9615,392.9445],
    [3687,1537382237,54.0288,-110.6823,851.7,184.7,89.3,3.1,1.3,7.99,48.26,1.962,392.6483],
    [3688,1537382238,54.0288,-110.6811,851.2,184.2,88.3,3.6,0.1,8.12,48.18,1.9621,392.6483],
    [3689,1537382239,54.0288,-110.6799,850.3,183.3,89.5,3.5,1.2,8.12,48.2,1.9619,391.879],
    [3690,1537382240,54.0288,-110.6787,849.5,182.5,89.8,3.7,1.2,9.04,48.13,1.9579,392.8019],
    [3691,1537382241,54.0289,-110.6775,848.9,181.9,90.6,2.7,1.8,8.47,48.73,1.9563,392.8019],
    [3692,1537382242,54.0289,-110.6762,848.4,182.4,90.0,3.3,1.2,9.25,47.57,1.9528,392.2129],
    [3693,1537382243,54.0289,-110.675,848.5,182.5,90.1,2.7,1.6,8.5,47.95,1.9518,392.7171],
    [3694,1537382244,54.0289,-110.6738,848.9,183.6,89.6,3.0,0.9,8.07,47.29,1.9565,391.2638],
    [3695,1537382245,54.0289,-110.6726,849.5,184.5,88.9,3.5,0.7,8.65,46.53,1.9559,392.0096],
    [3696,1537382246,54.0289,-110.6714,849.3,184.2,90.3,2.6,2.3,9.3,46.36,1.9557,392.6087],
    [3697,1537382247,54.0289,-110.6701,849.6,185.4,88.8,3.0,0.5,8.58,47.3,1.9581,393.0495],
    [3698,1537382248,54.029,-110.6689,849.1,185.1,88.1,3.5,-0.1,9.15,46.36,1.9576,391.224],
    [3699,1537382249,54.029,-110.6677,848.3,185.0,87.3,3.5,-1.0,8.69,47.12,1.9578,392.0283],
    [3700,1537382250,54.029,-110.6665,847.6,184.7,86.7,4.1,-1.4,8.47,46.83,1.9587,392.5792],
    [3701,1537382251,54.029,-110.6653,846.6,183.6,87.7,4.3,-0.3,8.38,46.88,1.9597,391.1811],
    [3702,1537382252,54.0291,-110.6641,845.8,182.8,87.6,4.0,-0.5,9.11,46.55,1.9589,392.0557],
    [3703,1537382253,54.0291,-110.6628,846.7,183.7,87.4,3.3,-1.6,8.81,47.2,1.9559,391.6475],
    [3704,1537382254,54.0291,-110.6617,849.1,186.1,89.0,3.3,0.2,8.89,46.78,1.9565,391.8784],
    [3705,1537382255,54.0291,-110.6604,851.0,188.0,91.4,4.0,2.7,8.61,47.91,1.955,392.133],
    [3706,1537382256,54.0291,-110.6592,852.0,189.0,91.1,3.3,2.2,8.83,46.91,1.9552,392.6013],
    [3707,1537382257,54.0291,-110.6579,851.7,188.7,89.9,4.0,0.8,8.29,47.56,1.955,391.7584],
    [3708,1537382258,54.0291,-110.6567,850.8,187.8,88.8,3.5,0.1,9.4,47.17,1.9558,391.7984],
    [3709,1537382259,54.0292,-110.6554,850.4,187.4,89.2,4.0,0.9,8.76,47.51,1.9565,391.7038],
    [3710,1537382260,54.0292,-110.6542,849.8,186.8,87.9,4.8,-0.6,8.66,47.83,1.9577,392.1412],
    [3711,1537382261,54.0292,-110.653,849.2,186.2,88.5,4.1,0.2,8.47,48.32,1.9584,392.4176],
    [3712,1537382262,54.0292,-110.6517,848.5,186.5,89.6,3.7,1.3,8.98,47.72,1.9556,391.4909],
    [3713,1537382263,54.0292,-110.6505,848.5,186.5,88.9,5.0,0.8,8.94,47.63,1.9557,391.4007],
    [3714,1537382264,54.0293,-110.6493,848.8,187.2,88.3,5.5,0.5,8.57,48.15,1.9557,391.9181],
    [3715,1537382265,54.0293,-110.648,848.8,187.9,88.6,4.8,1.1,8.69,47.88,1.9563,392.3904],
    [3716,1537382266,54.0293,-110.6468,848.3,186.6,88.8,5.8,1.4,8.74,48.45,1.9566,392.5067],
    [3717,1537382267,54.0293,-110.6455,847.6,186.7,88.0,5.5,0.7,8.99,47.8,1.9584,392.5785],
    [3718,1537382268,54.0294,-110.6443,847.9,185.9,88.2,3.5,1.2,8.41,47.8,1.963,392.2561],
    [3719,1537382269,54.0294,-110.643,849.0,187.0,88.4,4.5,1.2,8.67,48.35,1.9635,392.6322],
    [3720,1537382270,54.0294,-110.6418,849.7,187.7,87.9,4.0,1.1,9.12,47.84,1.9633,392.6322],
    [3721,1537382271,54.0295,-110.6405,849.1,187.1,88.5,4.4,1.9,8.58,48.83,1.9633,391.9614],
    [3722,1537382272,54.0295,-110.6393,848.0,186.0,87.7,3.5,1.2,8.09,48.97,1.9629,393.3155],
    [3723,1537382273,54.0295,-110.638,846.9,183.9,87.5,3.3,1.1,8.66,49.21,1.9648,393.2367],
    [3724,1537382274,54.0296,-110.6368,846.8,182.8,88.2,3.7,2.0,8.94,48.99,1.9649,393.241],
    [3725,1537382275,54.0296,-110.6356,847.5,182.5,88.3,3.5,1.7,8.39,49.74,1.964,392.7725],
    [3726,1537382276,54.0297,-110.6343,848.6,184.6,87.3,3.7,0.5,8.1,49.64,1.9628,392.4277],
    [3727,1537382277,54.0297,-110.6331,848.7,184.7,88.0,4.1,1.4,8.62,50.34,1.9623,392.4929],
    [3728,1537382278,54.0297,-110.6318,848.1,185.1,86.8,4.0,-0.3,8.39,50.88,1.9621,392.4747],
    [3729,1537382279,54.0298,-110.6306,846.7,184.7,87.1,4.8,0.3,8.67,51.0,1.9621,392.863],
    [3730,1537382280,54.0298,-110.6293,844.4,182.4,87.2,4.5,-0.1,8.78,50.76,1.9621,392.5045],
    [3731,1537382281,54.0298,-110.6281,842.5,179.4,85.8,4.7,-1.6,8.49,51.74,1.9634,392.703],
    [3732,1537382282,54.0299,-110.6268,840.3,176.8,87.1,5.6,0.0,8.51,51.53,1.9633,392.6477],
    [3733,1537382283,54.0299,-110.6256,838.0,174.0,87.6,5.7,0.7,9.48,50.97,1.963,393.2235],
    [3734,1537382284,54.0299,-110.6243,836.5,171.2,88.1,5.2,1.4,9.28,51.11,1.964,392.6965],
    [3735,1537382285,54.03,-110.6231,835.4,168.6,88.4,4.3,1.7,8.48,51.82,1.9632,393.3673],
    [3736,1537382286,54.03,-110.6218,834.7,165.6,88.1,4.3,1.3,8.76,52.31,1.9629,393.1629],
    [3737,1537382287,54.03,-110.6206,833.3,163.4,87.9,4.4,1.1,8.71,51.92,1.9647,393.1629],
    [3738,1537382288,54.0301,-110.6193,832.1,159.9,88.1,4.0,0.9,9.37,51.64,1.9642,392.6623],
    [3739,1537382289,54.0301,-110.618,831.3,156.6,88.4,3.8,0.6,9.24,51.75,1.9631,392.7239],
    [3740,1537382290,54.0301,-110.6168,830.4,154.2,89.6,4.2,0.6,9.33,51.38,1.9626,391.7196],
    [3741,1537382291,54.0301,-110.6155,828.4,149.7,91.2,3.8,0.5,8.11,51.41,1.9615,392.8681],
    [3742,1537382292,54.0301,-110.6143,825.6,144.9,93.5,4.5,0.6,8.09,51.2,1.9611,392.8681],
    [3743,1537382293,54.0301,-110.613,823.1,141.1,97.1,4.7,1.3,8.77,50.81,1.9599,392.6422],
    [3744,1537382294,54.03,-110.6117,821.1,139.8,100.5,4.5,1.4,8.72,50.85,1.9591,392.4094],
    [3745,1537382295,54.0298,-110.6105,819.8,138.8,103.8,4.9,1.0,8.83,50.64,1.9597,392.357],
    [3746,1537382296,54.0296,-110.6093,819.5,139.5,107.3,4.7,0.8,8.75,49.37,1.9607,392.3988],
    [3747,1537382297,54.0294,-110.6081,819.1,140.1,109.9,5.0,0.2,8.51,48.99,1.9603,392.2321],
    [3748,1537382298,54.0292,-110.6069,817.6,140.8,112.2,4.5,0.0,8.99,48.55,1.9584,392.8479],
    [3749,1537382299,54.0289,-110.6057,816.2,143.9,115.9,5.0,0.2,8.52,48.8,1.959,392.0444],
    [3750,1537382300,54.0286,-110.6046,816.1,149.0,118.8,5.0,-0.4,9.19,47.97,1.959,391.3763],
    [3751,1537382301,54.0282,-110.6035,816.5,155.2,121.4,5.1,-1.3,8.86,48.35,1.9618,391.034],
    [3752,1537382302,54.0278,-110.6025,817.3,162.6,123.9,3.6,-0.8,9.26,47.2,1.9602,390.4536],
    [3753,1537382303,54.0274,-110.6014,817.0,169.5,127.8,4.8,0.1,8.64,47.69,1.9593,391.2663],
    [3754,1537382304,54.027,-110.6004,815.2,180.2,131.8,5.1,1.1,8.87,47.78,1.9596,391.2975],
    [3755,1537382305,54.0265,-110.5995,814.3,186.6,135.0,3.9,0.8,9.14,47.08,1.9612,392.5846],
    [3756,1537382306,54.026,-110.5986,815.3,197.7,139.0,3.9,1.1,8.54,47.21,1.963,392.0238],
    [3757,1537382307,54.0254,-110.5978,817.2,203.2,142.0,4.4,-0.5,8.72,47.41,1.9653,392.5285],
    [3758,1537382308,54.0249,-110.5971,818.7,206.0,145.8,4.8,1.8,9.08,47.28,1.9695,390.3101],
    [3759,1537382309,54.0243,-110.5963,818.7,207.3,150.8,6.4,2.1,8.93,48.13,1.9667,391.5294],
    [3760,1537382310,54.0237,-110.5957,818.2,207.2,152.8,5.4,0.6,8.63,48.2,1.9653,391.6654],
    [3761,1537382311,54.0231,-110.5951,817.0,206.0,156.2,5.2,1.2,9.17,47.66,1.9661,391.1659],
    [3762,1537382312,54.0224,-110.5945,816.3,206.2,158.6,4.1,0.5,8.98,48.0,1.9655,391.1659],
    [3763,1537382313,54.0218,-110.5941,815.5,207.4,161.3,4.2,0.3,9.05,48.45,1.9638,392.594],
    [3764,1537382314,54.0211,-110.5937,814.6,208.7,165.1,5.1,0.6,8.58,48.04,1.9611,391.2985],
    [3765,1537382315,54.0204,-110.5933,814.8,210.5,168.0,5.0,0.4,8.61,47.77,1.9581,391.2985],
    [3766,1537382316,54.0197,-110.593,815.6,212.6,170.3,5.1,-0.9,8.85,47.88,1.9597,392.0012],
    [3767,1537382317,54.0191,-110.5928,816.4,214.4,172.4,4.8,-1.1,9.11,46.92,1.9624,392.4052],
    [3768,1537382318,54.0184,-110.5926,816.7,215.1,174.0,4.8,-1.4,8.88,46.91,1.96,392.661],
    [3769,1537382319,54.0177,-110.5924,817.0,216.7,175.2,4.3,-0.4,9.29,46.34,1.9606,392.5457],
    [3770,1537382320,54.017,-110.5923,817.4,215.0,176.5,4.3,1.3,8.97,46.66,1.9653,392.4011],
    [3771,1537382321,54.0163,-110.5921,818.6,214.6,178.3,4.6,1.3,8.96,46.57,1.9742,391.3416],
    [3772,1537382322,54.0157,-110.592,821.5,215.6,178.3,3.7,0.9,8.99,47.31,1.9825,393.2322],
    [3773,1537382323,54.015,-110.592,823.8,215.4,179.4,4.1,0.9,8.64,47.77,1.9942,392.7726],
    [3774,1537382324,54.0143,-110.5919,825.8,217.2,178.5,3.0,0.2,8.35,48.38,2.0083,391.9813],
    [3775,1537382325,54.0136,-110.5918,826.2,215.8,179.8,4.7,1.9,9.1,49.45,1.9933,391.5103],
    [3776,1537382326,54.0129,-110.5917,825.6,213.2,178.9,3.9,2.2,8.93,49.86,1.9741,392.9206],
    [3777,1537382327,54.0123,-110.5916,824.3,212.8,178.7,4.0,2.1,8.94,50.32,1.9727,393.7325],
    [3778,1537382328,54.0116,-110.5915,822.2,206.4,178.8,4.3,2.0,9.44,50.77,1.9711,392.6438],
    [3779,1537382329,54.0109,-110.5915,820.7,201.6,178.8,4.3,2.9,9.01,51.41,1.9743,392.9114],
    [3780,1537382330,54.0102,-110.5914,821.0,200.7,178.1,3.4,2.8,8.9,50.83,1.9732,392.2512],
    [3781,1537382331,54.0095,-110.5913,821.7,199.7,178.7,3.6,2.7,8.8,50.64,1.9814,393.8205],
    [3782,1537382332,54.0089,-110.5912,821.7,195.7,177.5,2.1,2.7,9.69,50.37,1.9851,394.5396],
    [3783,1537382333,54.0082,-110.5911,821.8,193.1,178.5,2.9,3.7,9.01,51.48,1.9847,394.153],
    [3784,1537382334,54.0075,-110.5911,821.0,191.2,179.1,2.4,4.3,9.18,51.49,1.9851,394.0537],
    [3785,1537382335,54.0068,-110.591,820.3,186.6,179.4,1.9,3.6,8.56,51.88,1.9842,394.4089],
    [3786,1537382336,54.0061,-110.591,818.9,182.7,181.3,3.6,4.1,9.23,52.15,1.982,391.8876],
    [3787,1537382337,54.0055,-110.5909,818.0,177.6,182.0,3.6,3.3,8.85,52.09,1.9804,394.3153],
    [3788,1537382338,54.0048,-110.5909,816.8,173.6,181.4,2.6,4.1,8.81,52.59,1.9815,393.6095],
    [3789,1537382339,54.0041,-110.5909,816.3,171.7,181.8,3.2,5.0,8.89,52.38,1.9843,391.3745],
    [3790,1537382340,54.0034,-110.5909,816.1,171.1,181.5,3.0,4.2,9.3,52.26,1.986,394.0033],
    [3791,1537382341,54.0027,-110.5909,816.6,170.6,181.5,3.4,3.2,8.69,52.37,1.9865,394.0031],
    [3792,1537382342,54.0021,-110.5909,818.3,172.5,180.7,3.2,2.9,8.92,52.4,1.9845,394.6143],
    [3793,1537382343,54.0014,-110.5908,819.4,173.5,179.5,2.3,2.2,8.83,52.38,1.985,393.5978],
    [3794,1537382344,54.0007,-110.5908,819.7,172.8,178.0,1.7,3.1,9.2,52.19,1.9849,394.8366],
    [3795,1537382345,54.0,-110.5907,819.6,173.0,179.0,3.2,3.0,8.65,52.57,1.9841,395.3509],
    [3796,1537382346,53.9994,-110.5906,820.3,173.8,178.5,2.6,2.6,9.28,52.18,1.9874,393.7217],
    [3797,1537382347,53.9987,-110.5906,820.6,174.1,178.8,2.9,3.7,8.89,52.92,1.9846,393.7647],
    [3798,1537382348,53.998,-110.5905,820.7,174.6,180.0,4.2,3.7,9.07,52.56,1.9853,395.8793],
    [3799,1537382349,53.9974,-110.5904,820.5,173.5,179.9,3.6,3.1,9.6,52.23,1.986,393.8031],
    [3800,1537382350,53.9967,-110.5904,820.2,173.2,178.8,2.4,3.4,8.92,52.7,1.9867,393.7341],
    [3801,1537382351,53.996,-110.5903,819.3,171.1,179.7,3.7,4.4,9.16,52.16,1.9882,394.5327],
    [3802,1537382352,53.9953,-110.5903,818.5,169.4,179.9,4.0,3.8,9.46,52.41,1.9878,395.6453],
    [3803,1537382353,53.9947,-110.5902,818.3,168.3,180.0,3.9,3.3,9.1,53.01,1.9874,395.1449],
    [3804,1537382354,53.994,-110.5901,818.5,167.5,179.0,2.8,3.5,9.0,52.95,1.9867,394.1179],
    [3805,1537382355,53.9933,-110.5901,818.3,167.3,178.8,2.6,4.6,9.08,52.77,1.9859,395.0785],
    [3806,1537382356,53.9926,-110.59,818.1,167.1,179.8,3.5,4.9,9.09,52.7,1.9872,394.7511],
    [3807,1537382357,53.9919,-110.59,817.9,167.9,180.4,3.3,3.8,8.85,52.92,1.9879,393.0753],
    [3808,1537382358,53.9913,-110.5899,818.3,168.3,180.2,2.5,3.1,9.38,51.82,1.9879,394.8969],
    [3809,1537382359,53.9906,-110.5899,818.8,168.8,181.5,4.1,4.3,9.46,52.34,1.9864,393.7478],
    [3810,1537382360,53.9899,-110.5899,818.3,168.3,181.8,4.6,4.3,8.93,52.91,1.9869,395.2953],
    [3811,1537382361,53.9892,-110.5898,818.4,168.4,181.5,4.1,3.2,8.81,52.5,1.9876,394.3599],
    [3812,1537382362,53.9886,-110.5898,820.0,170.0,179.6,2.6,3.1,8.77,52.33,1.9867,392.8109],
    [3813,1537382363,53.9879,-110.5897,820.3,170.2,181.2,4.8,3.2,9.18,52.38,1.9862,394.3473],
    [3814,1537382364,53.9872,-110.5897,819.1,170.1,181.1,4.3,2.9,8.91,52.25,1.985,395.5872],
    [3815,1537382365,53.9865,-110.5896,818.1,169.1,181.4,4.7,2.9,8.92,52.14,1.9848,393.3516],
    [3816,1537382366,53.9859,-110.5896,818.1,169.1,181.6,4.5,4.1,9.24,51.72,1.9847,394.7584],
    [3817,1537382367,53.9852,-110.5896,818.4,169.4,181.9,4.6,4.0,8.88,52.13,1.9842,394.6144],
    [3818,1537382368,53.9846,-110.5895,818.8,170.8,181.3,3.9,3.5,8.73,51.87,1.9829,394.3084],
    [3819,1537382369,53.9838,-110.5895,818.7,170.7,181.4,4.3,3.5,8.83,51.76,1.9843,395.0693],
    [3820,1537382370,53.9832,-110.5895,818.3,171.0,181.4,4.0,2.4,8.8,51.93,1.9829,394.3096],
    [3821,1537382371,53.9825,-110.5894,818.4,171.1,180.6,3.2,1.8,8.24,51.92,1.9809,393.7549],
    [3822,1537382372,53.9818,-110.5894,817.9,170.9,181.8,4.8,1.6,8.42,51.72,1.9789,393.4938],
    [3823,1537382373,53.9811,-110.5894,816.9,169.8,181.4,4.3,1.2,8.36,51.96,1.976,394.5917],
    [3824,1537382374,53.9805,-110.5893,816.1,170.1,180.7,3.6,1.1,8.62,51.39,1.9748,391.3671],
    [3825,1537382375,53.9798,-110.5893,815.2,169.1,180.7,3.7,1.2,8.66,51.19,1.9811,393.7344],
    [3826,1537382376,53.9791,-110.5892,814.8,169.8,180.9,3.9,1.7,8.82,51.51,1.9813,394.2769],
    [3827,1537382377,53.9785,-110.5892,816.6,171.8,180.4,2.8,2.3,8.89,50.95,1.9839,395.106],
    [3828,1537382378,53.9778,-110.5892,820.5,176.5,180.3,2.8,3.2,8.87,51.34,1.9847,394.4705],
    [3829,1537382379,53.9771,-110.5891,823.3,179.6,181.7,4.6,3.8,8.9,51.66,1.983,394.7709],
    [3830,1537382380,53.9765,-110.5891,824.4,181.4,182.5,5.2,2.9,8.47,52.15,1.9826,395.8649],
    [3831,1537382381,53.9758,-110.5891,824.6,181.9,182.4,5.0,2.6,8.57,52.58,1.9825,394.9381],
    [3832,1537382382,53.9751,-110.589,824.4,182.4,182.3,4.9,1.7,9.13,52.68,1.9816,396.3231],
    [3833,1537382383,53.9745,-110.589,824.1,181.8,181.8,4.3,1.9,8.76,52.83,1.9827,395.244],
    [3834,1537382384,53.9738,-110.589,823.3,180.3,180.6,3.2,1.5,8.85,52.94,1.9818,397.6297],
    [3835,1537382385,53.9731,-110.5889,822.4,179.4,179.4,2.0,1.9,8.76,53.12,1.9822,394.9162],
    [3836,1537382386,53.9725,-110.5889,822.3,179.3,178.0,0.9,2.6,8.4,53.45,1.9811,395.6706],
    [3837,1537382387,53.9718,-110.5888,821.2,178.2,178.7,1.6,2.4,8.32,53.47,1.9828,395.1],
    [3838,1537382388,53.9711,-110.5888,820.1,177.1,179.5,2.2,2.5,9.11,52.71,1.9804,394.3826],
    [3839,1537382389,53.9705,-110.5888,819.8,176.8,180.0,2.3,2.8,8.38,53.26,1.9818,394.9628],
    [3840,1537382390,53.9698,-110.5887,819.5,176.5,181.6,3.7,3.6,8.75,53.89,1.9816,395.7861],
    [3841,1537382391,53.9691,-110.5887,818.4,175.4,182.6,4.3,3.0,9.04,53.29,1.9811,396.3239],
    [3842,1537382392,53.9685,-110.5887,818.6,175.6,183.1,4.3,2.1,8.75,53.13,1.9804,393.94],
    [3843,1537382393,53.9678,-110.5887,819.0,176.0,182.2,3.1,2.5,9.22,52.67,1.9812,394.8487],
    [3844,1537382394,53.9671,-110.5887,818.5,176.5,182.5,3.8,2.5,8.55,53.23,1.9801,394.9524],
    [3845,1537382395,53.9665,-110.5887,817.6,175.5,182.4,3.3,2.3,8.5,53.11,1.9809,395.4635],
    [3846,1537382396,53.9658,-110.5887,818.1,177.8,180.2,1.1,2.0,8.69,52.84,1.9805,395.8234],
    [3847,1537382397,53.9651,-110.5887,818.7,179.0,181.0,2.6,2.5,8.98,52.82,1.9825,394.8962],
    [3848,1537382398,53.9645,-110.5887,818.3,179.3,181.7,3.3,2.2,8.61,52.91,1.9862,394.2176],
    [3849,1537382399,53.9638,-110.5886,818.4,180.4,181.1,2.5,2.1,8.21,52.94,1.9877,394.0497],
    [3850,1537382400,53.9631,-110.5886,819.3,182.0,180.8,2.3,2.9,9.23,52.75,1.9903,394.0622],
    [3851,1537382401,53.9625,-110.5886,820.5,183.5,181.8,3.8,2.6,8.25,53.04,1.9889,395.0569],
    [3852,1537382402,53.9618,-110.5886,820.7,184.7,182.8,4.8,2.3,8.49,53.52,1.9877,395.5461],
    [3853,1537382403,53.9611,-110.5886,820.6,184.6,182.7,4.4,2.3,9.2,52.98,1.9871,395.0089],
    [3854,1537382404,53.9605,-110.5886,821.1,185.4,181.8,3.2,1.5,8.64,53.74,1.9848,394.8977],
    [3855,1537382405,53.9598,-110.5885,820.6,185.6,182.8,4.8,1.7,8.85,53.45,1.9893,395.1018],
    [3856,1537382406,53.9591,-110.5885,819.1,184.1,183.4,5.8,2.2,8.62,53.58,1.9884,395.6194],
    [3857,1537382407,53.9585,-110.5885,818.3,182.3,182.2,5.0,2.6,8.67,53.0,1.9801,394.4927],
    [3858,1537382408,53.9578,-110.5885,818.9,182.9,180.2,3.1,3.0,9.15,52.57,1.9794,394.42],
    [3859,1537382409,53.9571,-110.5884,820.1,183.1,179.8,3.6,3.4,9.13,52.49,1.9783,393.6933],
    [3860,1537382410,53.9564,-110.5883,820.5,183.5,180.1,4.4,3.4,8.52,52.38,1.9784,394.2999],
    [3861,1537382411,53.9558,-110.5883,820.1,182.1,180.4,4.9,3.4,8.68,52.02,1.9784,394.2946],
    [3862,1537382412,53.9551,-110.5882,820.1,182.1,180.5,4.7,3.6,8.86,51.3,1.978,395.1512],
    [3863,1537382413,53.9544,-110.5882,819.5,182.5,180.7,4.7,3.2,9.45,51.17,1.9783,392.6103],
    [3864,1537382414,53.9537,-110.5881,818.4,181.4,181.6,5.4,2.6,8.79,51.16,1.9796,394.355],
    [3865,1537382415,53.953,-110.5881,817.8,180.8,181.7,5.0,2.1,8.78,51.64,1.9761,394.5276],
    [3866,1537382416,53.9524,-110.588,817.6,181.6,181.6,4.8,2.2,8.44,50.74,1.9741,394.9108],
    [3867,1537382417,53.9517,-110.588,817.7,181.7,181.9,5.2,1.8,8.27,50.42,1.9734,393.8595],
    [3868,1537382418,53.951,-110.5879,818.0,182.0,181.5,4.8,1.3,8.48,50.33,1.9739,394.4404],
    [3869,1537382419,53.9503,-110.5879,818.2,182.2,181.3,4.7,1.9,8.28,49.95,1.9742,394.2959],
    [3870,1537382420,53.9497,-110.5878,818.1,182.1,181.3,4.8,1.5,8.27,49.69,1.9739,395.215],
    [3871,1537382421,53.949,-110.5878,817.8,182.5,180.8,4.3,1.4,8.8,49.22,1.9725,393.8118],
    [3872,1537382422,53.9483,-110.5877,818.0,183.0,180.8,4.4,1.4,8.47,49.45,1.9749,393.8487],
    [3873,1537382423,53.9476,-110.5877,818.2,183.2,181.3,5.0,1.2,8.46,49.39,1.9746,395.0739],
    [3874,1537382424,53.947,-110.5876,818.6,183.6,180.9,4.4,1.3,8.77,49.74,1.9744,395.0136],
    [3875,1537382425,53.9463,-110.5876,818.9,183.9,181.0,4.6,1.0,8.67,50.02,1.9713,395.2991],
    [3876,1537382426,53.9456,-110.5876,818.5,183.5,181.0,4.5,0.4,8.46,49.81,1.9701,395.2192],
    [3877,1537382427,53.945,-110.5875,817.8,181.8,181.5,4.9,0.8,8.4,49.45,1.9753,394.9701],
    [3878,1537382428,53.9443,-110.5875,817.6,181.6,181.9,5.3,1.5,8.69,49.0,1.9795,395.5671],
    [3879,1537382429,53.9436,-110.5874,818.6,181.6,181.5,5.0,1.8,8.68,49.61,1.982,394.0385],
    [3880,1537382430,53.9429,-110.5874,820.0,181.0,180.8,4.2,1.9,8.71,49.85,1.9843,395.8936],
    [3881,1537382431,53.9423,-110.5873,820.4,179.6,180.0,3.7,2.6,8.81,50.07,1.983,395.6545],
    [3882,1537382432,53.9416,-110.5873,820.3,177.6,179.9,3.8,2.2,9.08,50.23,1.9822,395.6545],
    [3883,1537382433,53.9409,-110.5872,819.8,175.4,178.9,3.0,1.9,8.67,51.27,1.9834,395.6158],
    [3884,1537382434,53.9403,-110.5871,818.8,172.6,179.6,3.9,1.9,8.73,51.66,1.9872,396.0932],
    [3885,1537382435,53.9396,-110.5871,818.2,170.2,179.8,4.0,1.5,9.06,51.9,1.9857,396.0176],
    [3886,1537382436,53.9389,-110.587,818.3,169.4,180.2,4.3,1.3,8.08,52.59,1.9828,397.1866],
    [3887,1537382437,53.9382,-110.5869,818.3,167.6,180.9,4.9,1.4,8.51,53.07,1.9847,394.0113],
    [3888,1537382438,53.9376,-110.5869,818.0,167.0,181.5,5.1,1.4,9.03,52.58,1.9843,395.6175],
    [3889,1537382439,53.9369,-110.5868,817.7,165.7,180.7,4.0,1.7,8.12,53.45,1.9821,395.2012],
    [3890,1537382440,53.9362,-110.5868,817.5,165.5,181.2,4.5,1.5,8.45,53.29,1.9821,395.7517],
    [3891,1537382441,53.9356,-110.5868,817.2,165.2,181.2,4.2,1.4,8.35,53.09,1.981,395.8716],
    [3892,1537382442,53.9349,-110.5867,817.1,165.1,181.7,4.8,1.7,8.27,52.76,1.9792,396.6236],
    [3893,1537382443,53.9342,-110.5867,817.0,164.0,181.8,4.7,1.5,8.09,52.27,1.9764,395.6508],
    [3894,1537382444,53.9336,-110.5866,817.1,164.1,181.4,4.4,1.1,9.05,52.47,1.9793,395.4732],
    [3895,1537382445,53.9329,-110.5866,817.0,164.0,181.4,4.1,2.2,8.64,51.7,1.9816,396.1395],
    [3896,1537382446,53.9322,-110.5866,818.0,165.0,181.3,3.9,1.9,8.35,51.96,1.9855,395.1914],
    [3897,1537382447,53.9316,-110.5865,819.4,166.4,181.2,3.4,2.0,9.11,51.54,1.9906,396.1054],
    [3898,1537382448,53.9309,-110.5865,819.8,166.8,181.1,3.3,2.9,8.61,51.84,1.9839,396.8],
    [3899,1537382449,53.9302,-110.5865,819.8,167.0,181.8,4.0,2.2,8.42,52.49,1.9859,395.7414],
    [3900,1537382450,53.9296,-110.5865,819.6,167.6,181.8,3.6,1.9,8.9,51.98,2.0337,394.2036],
    [3901,1537382451,53.9289,-110.5864,819.4,167.4,182.1,4.2,2.6,8.95,51.27,1.9971,396.6259],
    [3902,1537382452,53.9283,-110.5864,819.1,168.1,183.3,5.4,2.4,8.2,50.82,2.029,395.4768],
    [3903,1537382453,53.9276,-110.5864,819.5,168.5,182.4,4.4,2.2,8.37,50.96,2.0221,394.8587],
    [3904,1537382454,53.927,-110.5864,819.4,168.4,182.4,4.4,2.2,8.71,50.61,1.9897,397.2565],
    [3905,1537382455,53.9263,-110.5864,818.7,167.7,182.2,4.2,2.6,8.8,50.71,1.9789,395.7693],
    [3906,1537382456,53.9256,-110.5864,818.4,167.4,181.9,3.9,2.9,8.63,50.73,1.9716,394.4478],
    [3907,1537382457,53.925,-110.5863,818.3,167.3,182.4,4.8,2.0,8.67,49.94,1.9727,395.2823],
    [3908,1537382458,53.9243,-110.5863,817.9,166.9,182.5,4.8,1.5,8.57,49.82,1.9719,394.6419],
    [3909,1537382459,53.9236,-110.5863,817.1,166.1,182.1,4.6,1.2,8.22,50.19,1.9707,394.2319],
    [3910,1537382460,53.923,-110.5863,816.8,165.8,181.7,4.0,1.3,8.55,49.99,1.9688,394.4537],
    [3911,1537382461,53.9223,-110.5862,818.0,167.0,181.0,3.3,1.1,9.02,49.15,1.9695,395.0862],
    [3912,1537382462,53.9216,-110.5862,819.1,168.1,181.8,4.4,0.4,8.63,48.94,1.9727,395.3113],
    [3913,1537382463,53.921,-110.5862,819.5,168.5,182.3,5.0,0.5,8.38,48.78,1.9726,394.1984],
    [3914,1537382464,53.9203,-110.5861,818.6,167.6,182.1,4.7,1.2,8.59,49.48,1.9734,394.1984],
    [3915,1537382465,53.9196,-110.5861,819.1,168.1,182.1,4.5,1.1,8.36,49.38,1.9727,394.9049],
    [3916,1537382466,53.919,-110.5861,820.4,169.4,181.1,3.4,2.3,8.42,48.99,1.9678,394.5502],
    [3917,1537382467,53.9183,-110.586,820.1,169.1,181.9,4.3,2.7,8.7,49.29,1.9629,393.052],
    [3918,1537382468,53.9177,-110.586,819.0,168.0,181.8,3.9,2.5,8.66,48.35,1.9607,393.3417],
    [3919,1537382469,53.917,-110.586,817.9,166.9,181.9,4.1,2.3,8.37,47.86,1.9627,393.8658],
    [3920,1537382470,53.9163,-110.586,817.6,167.6,182.4,4.6,2.3,8.36,47.1,1.9686,395.3701],
    [3921,1537382471,53.9156,-110.5859,818.2,168.2,182.0,4.4,2.9,8.15,46.77,1.9706,395.6514],
    [3922,1537382472,53.915,-110.5859,818.2,167.2,181.9,4.3,2.1,8.1,46.85,1.9657,396.0868],
    [3923,1537382473,53.9143,-110.5859,817.8,166.5,181.5,3.9,2.0,8.26,46.93,1.9672,394.7452],
    [3924,1537382474,53.9136,-110.5859,817.7,165.7,181.3,3.7,1.9,8.5,46.92,1.9605,394.5768],
    [3925,1537382475,53.913,-110.5858,817.8,164.8,181.7,4.2,1.3,7.88,46.7,1.9628,395.0378],
    [3926,1537382476,53.9123,-110.5858,817.6,163.6,181.5,3.7,1.2,8.59,46.78,1.9703,394.7471],
    [3927,1537382477,53.9116,-110.5858,817.0,162.0,181.3,3.5,1.2,8.05,46.2,1.978,395.3948],
    [3928,1537382478,53.911,-110.5858,816.3,160.1,182.1,4.3,1.4,8.55,46.33,1.9814,395.6956],
    [3929,1537382479,53.9103,-110.5857,816.6,160.6,181.5,3.3,1.7,9.15,46.19,1.9869,397.2364],
    [3930,1537382480,53.9097,-110.5857,818.6,162.6,181.2,2.9,1.4,9.29,46.73,1.9896,396.6252],
    [3931,1537382481,53.909,-110.5857,820.9,165.9,180.9,2.4,1.7,9.13,48.24,1.9917,397.7818],
    [3932,1537382482,53.9083,-110.5857,822.4,168.1,181.2,3.0,1.6,8.69,50.6,1.9933,398.0223],
    [3933,1537382483,53.9077,-110.5857,822.2,169.2,183.3,5.1,2.2,8.96,51.15,1.9931,398.4212],
    [3934,1537382484,53.907,-110.5856,821.1,170.1,183.2,4.5,2.6,7.89,52.02,1.9918,397.303],
    [3935,1537382485,53.9063,-110.5856,821.2,173.2,183.4,4.7,2.7,7.87,52.51,1.991,398.4277],
    [3936,1537382486,53.9057,-110.5856,821.0,173.1,183.8,5.0,2.3,8.32,52.8,1.9903,398.4863],
    [3937,1537382487,53.905,-110.5856,820.3,171.0,183.0,4.2,2.3,8.57,52.63,1.9824,396.6035],
    [3938,1537382488,53.9044,-110.5856,819.7,167.3,181.8,3.2,2.9,8.58,52.85,1.9835,395.5021],
    [3939,1537382489,53.9037,-110.5856,819.4,165.4,181.7,3.5,2.6,9.17,51.65,1.9839,395.8099],
    [3940,1537382490,53.903,-110.5856,818.8,163.1,181.7,3.7,2.0,8.69,51.8,1.9823,397.074],
    [3941,1537382491,53.9024,-110.5856,818.2,161.7,181.6,3.6,1.6,8.2,51.37,1.9824,397.0693],
    [3942,1537382492,53.9017,-110.5856,817.5,160.5,181.2,3.1,1.7,8.47,51.17,1.9867,396.5029],
    [3943,1537382493,53.901,-110.5855,817.2,159.2,181.7,3.8,2.1,8.81,50.67,1.9927,398.3527],
    [3944,1537382494,53.9004,-110.5855,817.7,159.7,181.9,4.2,2.1,8.67,51.09,1.9957,398.296],
    [3945,1537382495,53.8997,-110.5855,818.9,162.9,181.7,4.2,2.8,8.8,51.82,1.9944,397.0926],
    [3946,1537382496,53.8991,-110.5854,820.2,165.2,182.1,4.5,2.4,8.48,52.86,1.9972,397.2314],
    [3947,1537382497,53.8984,-110.5854,820.9,166.2,181.4,3.4,1.6,8.65,53.99,1.9978,396.9023],
    [3948,1537382498,53.8977,-110.5854,821.1,167.1,181.7,3.5,1.9,8.55,53.93,1.9971,399.1997],
    [3949,1537382499,53.8971,-110.5854,819.3,166.3,182.1,3.5,2.6,8.35,54.35,1.9978,397.8224],
    [3950,1537382500,53.8964,-110.5854,817.2,164.9,182.4,3.5,3.2,8.58,54.55,1.9969,397.4748],
    [3951,1537382501,53.8957,-110.5854,816.3,166.9,182.1,2.8,2.7,9.12,54.48,1.9954,397.4297],
    [3952,1537382502,53.8951,-110.5854,817.0,170.4,181.5,2.1,3.8,8.57,54.2,1.9949,397.4297],
    [3953,1537382503,53.8944,-110.5854,817.3,172.3,181.7,2.8,3.2,8.63,55.0,1.9956,395.7204],
    [3954,1537382504,53.8937,-110.5854,817.0,172.0,182.5,4.1,3.1,9.08,53.82,1.9928,397.2606],
    [3955,1537382505,53.8931,-110.5853,816.5,172.4,182.1,4.2,3.1,9.07,53.49,1.9911,397.2606],
    [3956,1537382506,53.8924,-110.5853,816.5,174.5,180.9,3.3,2.7,8.62,53.76,1.9912,397.8942],
    [3957,1537382507,53.8918,-110.5853,817.0,176.3,179.9,2.5,3.1,8.7,53.96,1.9921,396.4585],
    [3958,1537382508,53.8911,-110.5852,817.5,178.8,179.9,2.7,2.9,9.37,52.94,1.9936,397.7816],
    [3959,1537382509,53.8904,-110.5852,818.4,179.7,179.8,2.3,3.3,8.63,53.62,1.9947,397.0716],
    [3960,1537382510,53.8897,-110.5852,819.3,181.2,180.3,2.5,2.6,8.19,53.52,1.9897,396.4796],
    [3961,1537382511,53.8891,-110.5851,818.7,183.3,181.0,3.0,1.8,8.85,52.91,1.9891,394.1249],
    [3962,1537382512,53.8884,-110.5851,817.5,184.9,181.5,2.9,2.1,8.62,53.64,1.9884,397.7203],
    [3963,1537382513,53.8877,-110.5851,817.0,181.9,180.3,1.3,2.6,8.74,52.59,1.9896,397.0282],
    [3964,1537382514,53.8871,-110.5851,816.9,178.9,181.0,2.0,2.4,8.64,52.83,1.9919,397.4374],
    [3965,1537382515,53.8864,-110.5851,816.4,177.4,181.2,2.0,2.3,8.65,52.69,1.9926,397.9254],
    [3966,1537382516,53.8857,-110.5851,815.9,176.8,181.3,2.1,2.2,8.85,51.95,1.9922,396.7887],
    [3967,1537382517,53.8851,-110.5851,815.3,177.3,181.8,2.8,2.2,8.65,52.95,1.987,397.9798],
    [3968,1537382518,53.8844,-110.5851,815.5,177.5,182.4,3.5,2.8,8.79,52.23,1.9895,397.8609],
    [3969,1537382519,53.8838,-110.5851,816.5,178.5,182.1,3.3,2.2,7.98,52.15,1.9908,397.1211],
    [3970,1537382520,53.8831,-110.5851,817.7,178.8,181.7,2.8,1.6,8.59,51.78,1.9907,397.1211],
    [3971,1537382521,53.8824,-110.585,818.6,181.1,181.8,2.9,1.7,9.15,51.42,1.9908,397.0976],
    [3972,1537382522,53.8818,-110.585,818.3,184.5,181.5,2.5,2.4,9.24,51.42,1.9894,396.3377],
    [3973,1537382523,53.8811,-110.585,817.8,190.5,182.3,3.8,2.6,8.3,51.89,1.9866,396.8745],
    [3974,1537382524,53.8805,-110.585,817.7,195.4,183.1,4.3,1.4,8.19,51.92,1.9829,395.05],
    [3975,1537382525,53.8798,-110.585,818.0,198.6,182.7,3.6,0.5,8.21,51.68,1.9763,395.05],
    [3976,1537382526,53.8791,-110.585,818.2,201.4,182.7,3.6,0.3,8.06,51.0,1.9782,396.4599],
    [3977,1537382527,53.8784,-110.585,817.9,202.4,182.4,3.4,0.6,8.55,50.47,1.9683,396.5721],
    [3978,1537382528,53.8778,-110.585,817.3,206.8,181.8,2.9,0.5,8.52,50.07,1.9741,395.8794],
    [3979,1537382529,53.8771,-110.585,816.9,209.9,181.3,2.7,1.1,7.98,49.51,1.9709,396.2745],
    [3980,1537382530,53.8765,-110.585,816.5,212.9,181.7,3.3,1.3,8.74,48.5,1.9673,395.2041],
    [3981,1537382531,53.8758,-110.585,816.5,217.1,181.6,3.2,1.2,8.48,48.79,1.9613,394.4195],
    [3982,1537382532,53.8751,-110.5849,816.8,219.8,181.6,3.3,0.9,9.07,47.55,1.9594,394.4195],
    [3983,1537382533,53.8744,-110.5849,817.1,221.1,181.6,3.4,0.9,8.57,47.25,1.9785,397.8864],
    [3984,1537382534,53.8738,-110.5849,817.4,222.3,182.0,3.9,0.7,8.86,45.97,1.9906,397.5864],
    [3985,1537382535,53.8731,-110.5849,817.8,223.7,182.5,4.1,0.1,8.57,46.41,1.9928,397.5864],
    [3986,1537382536,53.8725,-110.5849,817.9,225.7,181.9,3.5,0.0,8.38,47.57,1.9916,397.8954],
    [3987,1537382537,53.8718,-110.5849,817.0,226.2,182.4,4.4,0.3,8.3,48.4,1.9834,397.6353],
    [3988,1537382538,53.8712,-110.5848,816.3,226.0,181.3,3.5,0.4,8.59,50.14,1.9786,397.5254],
    [3989,1537382539,53.8705,-110.5848,817.7,227.7,180.4,3.2,0.8,8.16,50.2,1.9861,397.2701],
    [3990,1537382540,53.8698,-110.5848,818.8,229.4,181.2,4.0,0.2,8.34,50.44,1.9868,395.9779],
    [3991,1537382541,53.8691,-110.5847,818.8,232.5,180.4,3.0,0.0,8.02,50.45,1.9881,397.1357],
    [3992,1537382542,53.8685,-110.5847,818.8,235.2,181.0,3.6,-0.1,8.15,51.16,1.9869,395.6772],
    [3993,1537382543,53.8678,-110.5847,819.2,238.2,182.0,4.6,0.0,8.52,51.32,1.9861,396.7182],
    [3994,1537382544,53.8672,-110.5846,820.9,244.9,181.5,3.6,0.4,8.4,51.55,1.9858,396.7833],
    [3995,1537382545,53.8665,-110.5846,822.6,248.2,180.3,2.4,-0.5,8.1,51.69,1.9839,396.7471],
    [3996,1537382546,53.8658,-110.5846,823.0,250.9,180.5,2.8,0.6,8.97,51.85,1.9858,396.7471],
    [3997,1537382547,53.8652,-110.5845,821.8,250.8,181.9,4.1,1.3,8.47,52.22,1.9912,395.4704],
    [3998,1537382548,53.8645,-110.5845,820.2,248.2,181.7,2.9,1.0,8.61,52.8,1.9901,395.7402],
    [3999,1537382549,53.8638,-110.5845,819.3,247.3,182.2,3.0,0.6,9.17,52.24,1.9874,397.5167],
    [4000,1537382550,53.8631,-110.5845,818.3,247.0,183.4,3.9,0.9,8.35,52.22,1.9868,398.7463],
    [4001,1537382551,53.8625,-110.5845,817.6,247.6,183.4,3.8,0.8,8.55,52.72,1.9829,396.302],
    [4002,1537382552,53.8618,-110.5845,817.3,248.4,183.3,3.9,1.8,8.0,52.5,1.9845,397.5536],
    [4003,1537382553,53.8611,-110.5845,817.6,249.7,183.2,3.8,2.0,8.95,51.98,1.9831,397.5224],
    [4004,1537382554,53.8604,-110.5846,818.1,250.1,182.6,3.3,1.8,8.54,51.71,1.9807,397.3562],
    [4005,1537382555,53.8598,-110.5846,817.9,249.9,182.6,3.4,1.4,8.89,51.23,1.9773,396.7035],
    [4006,1537382556,53.8591,-110.5846,817.4,249.4,182.6,3.5,1.2,8.05,51.19,1.9817,396.8795],
    [4007,1537382557,53.8584,-110.5845,817.9,249.9,182.9,4.0,1.1,8.46,50.82,1.9789,396.4723],
    [4008,1537382558,53.8578,-110.5845,818.3,250.3,182.5,3.5,1.0,7.96,50.68,1.9738,395.635],
    [4009,1537382559,53.8571,-110.5845,818.3,249.3,182.2,3.3,1.3,8.53,50.32,1.9717,396.5991],
    [4010,1537382560,53.8564,-110.5845,818.5,248.5,182.0,3.1,1.2,8.19,50.02,1.9722,396.0097],
    [4011,1537382561,53.8558,-110.5845,818.6,245.9,181.7,3.0,1.2,8.26,49.67,1.9708,396.0834],
    [4012,1537382562,53.8551,-110.5845,818.1,243.8,182.1,3.5,0.9,8.5,48.99,1.9676,396.5075],
    [4013,1537382563,53.8544,-110.5845,817.8,241.7,182.0,3.5,0.8,8.74,48.46,1.9642,396.0326],
    [4014,1537382564,53.8538,-110.5845,818.1,241.1,181.8,3.4,1.3,8.84,48.53,1.9722,395.9199],
    [4015,1537382565,53.8531,-110.5845,818.8,239.2,181.8,3.3,1.5,8.51,48.2,1.9766,396.057],
    [4016,1537382566,53.8524,-110.5845,819.0,236.4,181.6,3.2,1.5,8.69,48.1,1.979,396.6051],
    [4017,1537382567,53.8518,-110.5844,819.0,234.7,181.5,3.1,1.8,8.31,48.7,1.9825,395.9508],
    [4018,1537382568,53.8511,-110.5844,819.3,234.3,181.5,2.9,1.3,8.29,49.19,1.9789,397.6123],
    [4019,1537382569,53.8505,-110.5844,819.4,233.4,181.6,3.2,1.4,8.28,49.71,1.9763,396.2136],
    [4020,1537382570,53.8498,-110.5844,819.5,232.5,182.0,3.4,0.9,8.47,51.27,1.9766,395.1433],
    [4021,1537382571,53.8491,-110.5844,819.0,232.5,181.2,2.4,0.4,8.79,50.38,1.9752,396.9051],
    [4022,1537382572,53.8485,-110.5844,818.4,232.4,181.5,2.7,-0.1,8.17,50.74,1.9808,395.4545],
    [4023,1537382573,53.8478,-110.5844,818.7,231.7,182.1,3.3,0.3,8.75,50.43,1.9794,396.9289],
    [4024,1537382574,53.8472,-110.5844,819.0,231.1,182.4,3.5,0.6,8.34,51.05,1.9804,396.9046],
    [4025,1537382575,53.8465,-110.5843,818.6,230.6,183.0,4.3,1.0,8.46,51.55,1.9824,396.7329],
    [4026,1537382576,53.8458,-110.5843,817.1,229.1,183.9,5.2,0.5,8.49,51.93,1.9807,395.7836],
    [4027,1537382577,53.8452,-110.5843,815.1,227.1,183.7,5.0,0.2,8.45,51.88,1.982,396.6043],
    [4028,1537382578,53.8445,-110.5843,812.3,224.3,182.7,4.1,0.0,8.89,51.4,1.9816,396.6581],
    [4029,1537382579,53.8438,-110.5843,809.2,221.2,182.5,4.3,0.1,8.81,52.02,1.9814,397.4956],
    [4030,1537382580,53.8431,-110.5843,806.9,218.7,182.1,4.1,-0.2,8.18,52.36,1.9817,396.9319],
    [4031,1537382581,53.8425,-110.5843,805.1,218.8,181.9,4.2,0.0,9.3,52.18,1.9809,396.0314],
    [4032,1537382582,53.8418,-110.5843,803.3,218.1,182.2,4.7,-0.5,8.35,52.44,1.9792,396.1987],
    [4033,1537382583,53.8411,-110.5842,800.8,217.6,181.3,3.7,-0.3,8.35,52.59,1.9792,396.9364],
    [4034,1537382584,53.8404,-110.5842,797.9,215.8,180.8,3.3,-0.6,8.32,52.47,1.9794,396.9349],
    [4035,1537382585,53.8397,-110.5842,794.9,215.2,180.7,3.3,-0.9,8.36,52.38,1.9803,397.7234],
    [4036,1537382586,53.839,-110.5841,792.4,214.6,180.5,3.1,0.8,9.13,51.8,1.9798,396.49],
    [4037,1537382587,53.8383,-110.5841,789.6,213.7,181.6,4.0,0.4,8.76,52.05,1.9816,395.6932],
    [4038,1537382588,53.8376,-110.5841,787.1,211.6,180.7,3.2,0.9,8.03,52.04,1.9819,395.0474],
    [4039,1537382589,53.8369,-110.584,785.8,211.9,181.2,3.7,0.0,8.41,52.44,1.981,395.8767],
    [4040,1537382590,53.8362,-110.584,784.2,211.5,179.9,2.1,0.1,8.87,51.63,1.9781,396.0086],
    [4041,1537382591,53.8355,-110.584,782.5,212.5,181.2,4.2,2.2,8.14,51.92,1.9774,395.0331],
    [4042,1537382592,53.8347,-110.5839,779.3,211.0,182.3,5.1,1.0,8.96,50.77,1.9753,395.9853],
    [4043,1537382593,53.834,-110.5839,776.4,209.5,181.8,4.4,-0.3,8.48,50.85,1.9765,396.7321],
    [4044,1537382594,53.8333,-110.5839,773.7,207.7,182.7,5.4,-0.4,8.74,50.65,1.9776,395.1298],
    [4045,1537382595,53.8326,-110.5839,771.3,206.2,182.3,4.8,0.4,8.68,50.03,1.9801,394.9967],
    [4046,1537382596,53.8318,-110.5838,767.4,204.7,181.7,3.9,1.4,8.97,49.66,1.9798,396.8078],
    [4047,1537382597,53.8311,-110.5838,763.3,202.3,181.1,3.2,1.1,9.12,49.4,1.9781,394.7681],
    [4048,1537382598,53.8304,-110.5838,760.0,201.0,181.8,4.1,0.2,8.9,49.76,1.9782,394.5459],
    [4049,1537382599,53.8296,-110.5838,757.9,199.9,182.2,4.3,0.2,8.73,49.39,1.9772,393.1817],
    [4050,1537382600,53.8289,-110.5837,757.0,202.2,182.6,4.5,0.5,8.84,49.16,1.9748,395.5801],
    [4051,1537382601,53.8282,-110.5837,756.9,212.8,183.0,4.9,0.2,8.64,48.71,1.9734,395.3459],
    [4052,1537382602,53.8274,-110.5837,756.9,223.2,183.0,4.8,0.0,8.64,48.42,1.9792,394.5906],
    [4053,1537382603,53.8267,-110.5837,757.7,229.3,182.8,4.5,-0.7,9.08,48.4,1.9812,394.5906],
    [4054,1537382604,53.826,-110.5837,758.9,237.5,181.8,3.3,1.0,9.7,47.62,1.987,395.0195],
    [4055,1537382605,53.8252,-110.5837,758.9,244.3,182.3,4.1,1.0,8.79,47.93,1.9915,396.3046],
    [4056,1537382606,53.8245,-110.5837,758.8,246.8,182.9,4.6,1.5,8.94,48.3,1.9917,396.5562],
    [4057,1537382607,53.8238,-110.5837,758.9,248.9,182.7,4.1,2.0,8.89,48.75,1.992,396.8626],
    [4058,1537382608,53.8231,-110.5837,758.5,249.5,182.6,4.0,1.4,8.8,48.96,1.9925,394.6197],
    [4059,1537382609,53.8224,-110.5837,758.0,249.1,182.4,3.7,0.8,9.13,49.48,1.9904,395.4075],
    [4060,1537382610,53.8216,-110.5837,759.0,248.1,182.3,3.4,0.2,9.49,49.44,1.9908,395.0624],
    [4061,1537382611,53.8209,-110.5837,760.2,245.8,183.3,4.7,-0.1,9.72,49.51,1.9927,395.4219],
    [4062,1537382612,53.8202,-110.5837,761.6,244.3,183.4,4.5,0.4,8.75,50.0,1.99,395.1128],
    [4063,1537382613,53.8195,-110.5837,762.1,243.1,182.9,4.0,1.2,9.01,50.17,1.9891,395.0454],
    [4064,1537382614,53.8188,-110.5837,762.0,240.0,183.3,4.6,0.8,9.07,50.7,1.9887,394.7721],
    [4065,1537382615,53.8181,-110.5837,761.3,237.7,183.2,4.5,1.1,9.04,50.53,1.9878,394.4617],
    [4066,1537382616,53.8174,-110.5837,760.8,232.2,182.9,4.4,1.1,8.9,50.53,1.9908,394.508],
    [4067,1537382617,53.8166,-110.5837,760.5,224.2,182.8,4.4,0.4,9.23,49.84,1.9907,394.5962],
    [4068,1537382618,53.816,-110.5837,760.2,217.4,182.3,3.5,-0.2,9.03,50.1,1.9922,394.9799],
    [4069,1537382619,53.8152,-110.5836,760.2,208.4,180.9,2.3,0.1,8.73,50.01,2.0011,394.9799],
    [4070,1537382620,53.8145,-110.5836,760.4,204.4,182.2,4.1,0.9,9.03,49.94,1.9943,394.9544],
    [4071,1537382621,53.8138,-110.5836,760.9,199.2,182.4,4.3,0.9,9.12,50.68,1.9912,395.1507],
    [4072,1537382622,53.8131,-110.5836,760.2,195.0,182.9,5.0,1.5,9.38,50.41,1.9904,395.387],
    [4073,1537382623,53.8124,-110.5836,759.4,190.1,182.9,4.9,2.0,8.86,49.97,1.9886,393.7277],
    [4074,1537382624,53.8117,-110.5836,758.7,186.4,182.6,4.6,1.7,9.22,50.0,1.9882,393.6921],
    [4075,1537382625,53.811,-110.5836,757.9,183.9,182.5,4.5,1.2,9.62,49.51,1.9883,394.302],
    [4076,1537382626,53.8103,-110.5835,757.2,181.4,182.5,4.7,0.7,9.03,49.68,1.9879,394.0166],
    [4077,1537382627,53.8095,-110.5835,757.1,181.5,182.2,4.5,0.6,8.7,49.56,1.9858,393.5982],
    [4078,1537382628,53.8089,-110.5835,757.6,181.7,182.1,4.4,0.4,8.83,49.24,1.9867,394.3135],
    [4079,1537382629,53.8082,-110.5835,758.2,181.5,181.7,4.1,0.8,9.11,49.0,1.988,394.9801],
    [4080,1537382630,53.8075,-110.5834,757.8,180.8,181.6,4.1,0.2,9.5,48.56,1.987,394.3007],
    [4081,1537382631,53.8067,-110.5834,757.4,179.3,181.8,4.5,0.2,8.66,48.9,1.9861,392.8833],
    [4082,1537382632,53.8061,-110.5834,757.4,178.4,181.9,4.6,0.4,8.98,48.84,1.9829,394.179],
    [4083,1537382633,53.8054,-110.5834,758.5,178.5,181.7,4.3,0.5,9.02,48.62,1.9794,393.495],
    [4084,1537382634,53.8047,-110.5833,759.6,178.6,182.3,4.9,0.0,8.74,48.26,1.9778,394.4724],
    [4085,1537382635,53.804,-110.5833,759.7,177.8,182.4,4.8,-0.2,8.81,47.93,1.9765,394.4252],
    [4086,1537382636,53.8033,-110.5833,759.5,175.8,182.1,4.4,-0.1,9.8,47.38,1.9676,394.0269],
    [4087,1537382637,53.8026,-110.5832,759.6,175.6,182.0,4.0,0.2,8.95,47.01,1.9706,393.8734],
    [4088,1537382638,53.8019,-110.5832,759.8,175.8,182.2,4.2,0.1,8.51,46.72,1.9754,393.7762],
    [4089,1537382639,53.8012,-110.5832,760.2,176.2,182.6,4.5,0.3,9.17,45.93,1.9796,394.4238],
    [4090,1537382640,53.8005,-110.5832,760.1,176.1,182.7,4.6,-0.2,9.08,46.03,1.9822,394.0356],
    [4091,1537382641,53.7999,-110.5832,759.9,175.1,182.9,4.6,-0.3,9.83,45.61,1.981,394.5025],
    [4092,1537382642,53.7992,-110.5832,759.8,173.8,182.4,3.8,-0.9,9.13,45.92,1.9803,394.8637],
    [4093,1537382643,53.7985,-110.5832,759.7,172.6,182.0,3.6,-1.1,9.07,46.19,1.9796,393.6951],
    [4094,1537382644,53.7978,-110.5831,759.1,172.2,182.4,4.0,-1.4,9.14,46.25,1.9814,394.3002],
    [4095,1537382645,53.7972,-110.5831,758.6,171.6,182.6,4.0,-1.8,8.87,46.25,1.9823,394.9409],
    [4096,1537382646,53.7964,-110.5831,758.0,171.5,182.0,3.1,-2.2,9.08,46.51,1.9833,394.3945],
    [4097,1537382647,53.7957,-110.5831,757.7,171.6,182.7,3.7,-1.8,9.05,46.65,1.9863,395.3546],
    [4098,1537382648,53.795,-110.5831,757.5,172.5,182.3,3.0,-2.2,9.05,46.91,1.9881,394.633],
    [4099,1537382649,53.7943,-110.5831,757.6,173.5,182.2,2.9,-2.0,9.54,46.74,1.9895,393.6535],
    [4100,1537382650,53.7936,-110.5831,757.8,173.8,182.3,3.3,-1.8,8.85,47.57,1.9894,395.3191],
    [4101,1537382651,53.793,-110.5831,757.7,173.7,182.7,3.9,-1.4,9.1,48.36,1.9857,392.9558],
    [4102,1537382652,53.7923,-110.5831,758.7,174.7,182.3,3.5,-0.3,9.42,48.14,1.9834,393.9722],
    [4103,1537382653,53.7916,-110.5831,760.3,177.3,181.7,3.1,-1.5,9.11,48.78,1.9877,394.294],
    [4104,1537382654,53.7909,-110.5831,760.5,177.5,182.6,4.1,-1.8,9.06,49.29,1.9881,393.9768],
    [4105,1537382655,53.7902,-110.5831,759.9,176.9,181.8,3.1,-1.2,9.55,48.46,1.9881,393.3423],
    [4106,1537382656,53.7895,-110.5831,760.9,177.9,181.5,3.0,-0.4,9.06,49.16,1.9882,395.6338],
    [4107,1537382657,53.7888,-110.583,761.0,178.0,181.7,3.4,1.3,9.13,48.6,1.9928,394.8026],
    [4108,1537382658,53.7881,-110.583,760.8,176.8,181.1,2.8,1.5,9.12,48.38,2.0117,394.253],
    [4109,1537382659,53.7874,-110.583,761.4,177.5,181.5,3.2,1.3,9.13,49.36,2.0043,395.2484],
    [4110,1537382660,53.7867,-110.583,762.3,177.3,181.2,2.3,1.6,9.19,49.4,1.9947,395.8384],
    [4111,1537382661,53.786,-110.583,763.5,178.1,181.5,2.3,1.9,9.0,49.59,1.9902,395.736],
    [4112,1537382662,53.7853,-110.583,763.4,177.4,184.0,5.1,2.0,9.22,49.85,1.9935,394.3552],
    [4113,1537382663,53.7846,-110.583,761.7,175.7,183.5,4.1,2.1,9.22,49.79,1.9963,394.7094],
    [4114,1537382664,53.7839,-110.583,759.9,172.9,182.7,3.4,1.1,9.0,50.01,1.9958,394.4313],
    [4115,1537382665,53.7832,-110.583,758.5,171.5,182.9,3.7,1.4,8.86,49.98,1.9964,396.161],
    [4116,1537382666,53.7825,-110.583,758.0,171.1,182.6,3.8,0.9,8.58,49.95,2.0029,396.161],
    [4117,1537382667,53.7818,-110.583,758.5,170.5,181.7,3.0,1.4,9.14,49.76,1.9975,394.5303],
    [4118,1537382668,53.7811,-110.583,759.0,171.0,180.6,2.4,1.1,9.02,50.01,1.9932,394.1996],
    [4119,1537382669,53.7804,-110.583,759.1,169.1,181.7,3.6,0.9,9.21,50.45,1.9929,394.0073],
    [4120,1537382670,53.7797,-110.5829,758.7,167.1,182.0,3.7,0.8,9.42,49.47,1.9891,394.3392],
    [4121,1537382671,53.779,-110.5829,757.6,162.9,183.5,5.3,0.6,9.27,50.24,1.9894,393.9811],
    [4122,1537382672,53.7783,-110.5829,757.0,161.0,184.1,5.6,0.7,9.35,49.57,1.9906,394.8856],
    [4123,1537382673,53.7776,-110.5829,757.2,160.2,183.5,4.7,1.5,8.55,49.45,1.989,394.9681],
    [4124,1537382674,53.777,-110.5829,757.7,160.7,182.3,3.3,2.9,9.2,50.07,1.9851,395.0371],
    [4125,1537382675,53.7762,-110.5829,758.7,160.7,182.8,4.0,2.1,9.25,49.26,1.9854,394.6998],
    [4126,1537382676,53.7755,-110.5829,759.6,159.6,183.0,4.0,1.4,8.53,49.47,1.9844,394.9634],
    [4127,1537382677,53.7748,-110.5829,760.0,157.4,181.9,3.1,0.8,9.23,49.72,1.9863,395.5788],
    [4128,1537382678,53.7742,-110.5829,758.6,150.9,183.2,4.8,-0.5,8.56,49.37,1.9859,395.4149],
    [4129,1537382679,53.7735,-110.5829,757.4,148.1,182.4,3.5,0.0,9.36,49.44,1.9832,394.9742],
    [4130,1537382680,53.7728,-110.5829,755.9,144.6,183.1,4.2,0.2,9.49,48.83,1.9807,394.9742],
    [4131,1537382681,53.7721,-110.5829,755.0,142.0,183.1,4.0,-0.3,9.38,49.5,1.9796,396.2985],
    [4132,1537382682,53.7714,-110.5829,755.3,141.3,182.9,3.7,-0.6,9.94,49.07,1.9836,394.2271],
    [4133,1537382683,53.7707,-110.5829,755.8,141.8,183.2,3.8,-0.1,9.4,49.46,1.9836,394.3524],
    [4134,1537382684,53.77,-110.5829,756.5,143.2,183.0,3.2,0.3,9.0,49.0,1.9905,394.8249],
    [4135,1537382685,53.7693,-110.5829,757.1,144.1,183.5,3.7,-0.7,9.26,49.0,1.9945,394.1352],
    [4136,1537382686,53.7686,-110.583,757.7,145.7,183.1,3.1,-0.4,9.26,48.92,1.9855,395.9093],
    [4137,1537382687,53.7679,-110.583,758.9,147.9,183.2,2.9,-1.3,9.39,49.04,1.985,394.1624],
    [4138,1537382688,53.7672,-110.583,759.4,148.3,182.5,2.5,0.1,9.47,48.4,1.9864,393.3776],
    [4139,1537382689,53.7666,-110.583,758.2,148.9,183.3,3.7,0.3,9.89,48.35,1.9997,395.4313],
    [4140,1537382690,53.7659,-110.583,757.4,148.7,183.2,3.8,-0.5,8.91,48.84,2.001,396.224],
    [4141,1537382691,53.7652,-110.583,757.6,149.9,183.3,4.0,-1.1,9.3,49.41,2.0001,396.2264],
    [4142,1537382692,53.7645,-110.583,758.1,151.1,182.1,2.8,-1.7,8.82,48.96,2.0002,393.2533],
    [4143,1537382693,53.7638,-110.583,757.7,151.7,183.0,3.9,-0.9,8.98,49.3,1.9985,395.8824],
    [4144,1537382694,53.7631,-110.583,756.7,150.7,182.6,3.1,-0.9,9.22,50.15,2.0098,396.6218],
    [4145,1537382695,53.7624,-110.583,756.7,150.7,182.5,3.2,0.1,9.25,49.75,2.0492,395.7963],
    [4146,1537382696,53.7617,-110.583,756.8,151.8,183.5,4.3,0.5,9.9,49.34,2.057,395.2545],
    [4147,1537382697,53.761,-110.583,756.9,151.9,183.3,3.7,0.9,8.81,49.57,2.0485,395.4169],
    [4148,1537382698,53.7603,-110.5831,757.9,152.9,181.9,2.0,0.3,9.35,49.61,2.0463,394.5794],
    [4149,1537382699,53.7596,-110.5831,759.9,154.9,182.9,3.0,-1.1,9.25,50.14,2.0439,394.2409],
    [4150,1537382700,53.7589,-110.5831,760.2,155.0,183.4,3.7,0.1,9.38,51.22,2.0425,396.2789],
    [4151,1537382701,53.7583,-110.5831,759.5,153.4,184.6,5.0,1.2,9.45,51.53,2.0445,394.8219],
    [4152,1537382702,53.7576,-110.5831,759.4,153.0,183.5,4.0,1.4,9.63,51.15,2.0632,396.3428],
    [4153,1537382703,53.7569,-110.5831,760.0,153.0,184.1,5.4,1.8,9.29,51.17,2.0523,396.0201],
    [4154,1537382704,53.7562,-110.5831,759.7,151.6,183.3,4.5,1.1,8.99,51.31,2.053,394.9377],
    [4155,1537382705,53.7555,-110.5831,759.6,151.6,181.8,2.9,0.0,9.21,51.43,2.0488,395.1931],
    [4156,1537382706,53.7548,-110.5831,759.3,150.2,182.0,3.6,-0.1,8.85,51.42,2.0481,394.5955],
    [4157,1537382707,53.7541,-110.5831,758.4,148.4,181.5,3.3,-0.1,10.11,51.2,2.0457,393.8877],
    [4158,1537382708,53.7534,-110.5831,758.1,147.0,180.2,2.2,0.5,9.98,51.07,2.071,394.464],
    [4159,1537382709,53.7527,-110.583,758.0,146.0,180.7,3.4,0.9,8.91,52.09,2.0749,394.351],
    [4160,1537382710,53.752,-110.583,758.3,145.4,180.9,3.8,2.0,9.21,51.71,2.0519,394.7685],
    [4161,1537382711,53.7513,-110.583,758.4,145.5,181.7,4.6,2.1,9.59,51.66,2.0412,394.5866],
    [4162,1537382712,53.7506,-110.5829,758.5,145.6,181.6,4.3,2.7,9.34,52.17,2.0288,394.3804],
    [4163,1537382713,53.7499,-110.5829,758.1,145.3,182.2,4.9,2.2,9.4,50.8,2.0238,395.4738],
    [4164,1537382714,53.7492,-110.5829,757.8,145.0,183.1,5.8,1.6,9.28,51.05,2.0238,394.5977],
    [4165,1537382715,53.7485,-110.5829,758.0,145.8,183.1,5.6,1.2,9.08,50.14,2.0246,394.4535],
    [4166,1537382716,53.7478,-110.5828,758.2,147.1,183.5,6.0,1.3,9.29,49.77,2.019,393.5608],
    [4167,1537382717,53.7471,-110.5828,758.1,148.1,183.5,6.0,0.9,9.52,49.84,2.0202,392.7794],
    [4168,1537382718,53.7464,-110.5828,757.8,147.7,183.1,5.4,0.9,9.61,49.77,2.0221,393.7745],
    [4169,1537382719,53.7457,-110.5828,757.9,148.8,182.4,4.8,0.8,9.34,49.48,2.0257,395.0491],
    [4170,1537382720,53.7451,-110.5828,758.2,149.2,182.5,4.9,0.1,9.46,49.47,2.03,392.8549],
    [4171,1537382721,53.7444,-110.5827,759.2,150.2,182.5,4.9,0.4,9.45,48.89,2.0338,394.7861],
    [4172,1537382722,53.7437,-110.5827,760.3,150.3,182.7,5.1,0.4,9.18,49.3,2.0364,395.1967],
    [4173,1537382723,53.743,-110.5827,761.0,150.3,182.3,4.3,0.4,9.09,49.33,2.0353,393.6891],
    [4174,1537382724,53.7423,-110.5827,761.7,150.7,181.9,4.1,0.6,9.06,49.46,2.0294,393.4234],
    [4175,1537382725,53.7417,-110.5826,762.1,150.1,183.0,5.1,0.5,9.12,49.78,2.0185,395.1951],
    [4176,1537382726,53.741,-110.5826,763.2,150.3,182.3,4.2,0.6,9.48,48.62,2.0259,394.1171],
    [4177,1537382727,53.7403,-110.5826,764.3,151.3,182.4,4.3,0.5,9.1,49.27,2.0249,394.1171],
    [4178,1537382728,53.7396,-110.5826,764.9,151.9,182.7,4.4,0.0,9.38,49.58,2.0292,393.994],
    [4179,1537382729,53.7389,-110.5826,765.6,152.2,182.3,3.8,-0.2,9.27,49.14,2.0234,393.2812],
    [4180,1537382730,53.7383,-110.5826,766.9,153.0,182.8,4.6,0.2,8.65,49.22,2.0042,394.3631],
    [4181,1537382731,53.7376,-110.5826,768.8,153.8,183.2,5.1,0.1,9.21,49.39,1.9997,392.933],
    [4182,1537382732,53.7369,-110.5825,771.1,155.4,182.5,4.3,0.5,9.33,49.94,2.0015,393.5685],
    [4183,1537382733,53.7363,-110.5825,772.0,155.0,182.8,4.4,0.0,9.17,49.29,2.0031,393.9731],
    [4184,1537382734,53.7356,-110.5825,771.9,154.0,183.3,4.8,-0.3,9.2,49.07,2.0055,394.4705],
    [4185,1537382735,53.7349,-110.5825,772.4,152.8,183.3,4.9,-0.2,9.13,48.69,2.0012,392.9769],
    [4186,1537382736,53.7343,-110.5825,773.8,153.7,183.6,5.1,-0.5,9.09,48.33,2.0017,392.0031],
    [4187,1537382737,53.7336,-110.5825,776.1,155.1,183.5,5.0,-0.5,9.3,48.29,2.0021,391.9562],
    [4188,1537382738,53.733,-110.5825,778.2,158.2,183.6,5.3,-0.5,8.79,48.15,2.0033,391.9562],
    [4189,1537382739,53.7323,-110.5825,780.0,160.8,183.4,5.1,0.1,9.06,48.1,2.002,392.2719],
    [4190,1537382740,53.7316,-110.5825,782.4,162.5,183.1,5.0,0.1,9.55,47.93,1.9999,394.0406],
    [4191,1537382741,53.731,-110.5824,785.3,165.6,182.6,4.7,-0.5,9.45,48.0,1.9983,393.4237],
    [4192,1537382742,53.7303,-110.5824,787.3,168.3,182.2,4.3,-0.6,8.83,48.11,2.0013,393.1916],
    [4193,1537382743,53.7297,-110.5824,788.6,170.6,180.8,2.8,0.4,9.07,48.08,2.0218,393.177],
    [4194,1537382744,53.7291,-110.5824,789.0,171.0,181.3,3.6,1.5,9.12,48.74,2.033,393.8879],
    [4195,1537382745,53.7284,-110.5823,788.5,170.5,182.7,4.8,1.9,8.77,49.43,2.0329,393.5795],
    [4196,1537382746,53.7277,-110.5823,789.3,171.3,182.5,4.4,1.0,8.98,50.2,2.0346,394.1968],
    [4197,1537382747,53.727,-110.5823,790.8,172.8,181.9,3.8,1.6,9.15,50.48,2.0297,394.3089],
    [4198,1537382748,53.7264,-110.5823,791.0,173.0,181.4,3.5,0.3,9.09,51.1,2.0277,392.2959],
    [4199,1537382749,53.7257,-110.5823,789.7,172.7,182.0,4.3,0.7,8.83,51.79,2.0324,393.1922],
    [4200,1537382750,53.7251,-110.5822,789.1,172.1,182.6,4.7,0.9,9.04,51.34,2.0347,393.969],
    [4201,1537382751,53.7244,-110.5822,789.2,172.2,182.5,4.2,1.1,8.9,51.46,2.0276,392.8652],
    [4202,1537382752,53.7238,-110.5822,788.3,172.3,183.4,5.0,1.6,9.22,51.58,2.0208,393.9666],
    [4203,1537382753,53.7231,-110.5822,787.0,170.9,184.5,6.1,2.0,8.98,51.36,2.022,392.1747],
    [4204,1537382754,53.7224,-110.5822,786.5,171.5,184.1,5.2,1.1,9.17,50.8,2.0213,391.94],
    [4205,1537382755,53.7218,-110.5822,786.8,171.8,183.1,4.2,0.7,8.73,50.12,2.0202,392.1686],
    [4206,1537382756,53.7211,-110.5822,786.3,171.3,183.5,4.6,-0.2,9.15,49.8,2.0238,391.7964],
    [4207,1537382757,53.7205,-110.5822,786.1,171.1,183.4,5.1,1.4,9.53,49.13,2.0331,393.652],
    [4208,1537382758,53.7198,-110.5822,788.3,173.3,182.8,4.4,1.9,9.2,50.29,2.0368,393.652],
    [4209,1537382759,53.7191,-110.5822,791.1,177.1,181.9,3.2,1.3,9.04,49.63,2.0436,394.3628],
    [4210,1537382760,53.7185,-110.5822,792.2,179.2,182.8,4.0,0.6,9.18,49.85,2.0459,394.2009],
    [4211,1537382761,53.7178,-110.5822,791.3,179.3,182.4,3.1,0.0,8.87,50.22,2.0475,395.7621],
    [4212,1537382762,53.7172,-110.5822,790.2,178.2,180.9,1.8,-0.5,9.01,50.68,2.0476,387.5074],
    [4213,1537382763,53.7165,-110.5821,789.9,178.9,181.4,2.7,0.9,8.54,51.09,2.0472,394.2854],
    [4214,1537382764,53.7158,-110.5821,789.8,178.8,180.7,1.7,0.9,8.58,51.19,2.0469,393.9303],
    [4215,1537382765,53.7152,-110.5821,789.6,179.6,181.2,2.5,1.3,9.85,51.18,2.0433,394.5909],
    [4216,1537382766,53.7145,-110.5821,789.0,179.0,182.2,3.3,1.7,9.43,51.29,2.0431,393.7804],
    [4217,1537382767,53.7139,-110.5821,787.9,177.9,181.9,2.8,1.5,9.13,51.42,2.0391,393.7131],
    [4218,1537382768,53.7132,-110.5821,786.9,176.2,182.6,3.5,1.5,9.23,51.5,2.0296,393.8508],
    [4219,1537382769,53.7125,-110.5821,786.6,175.6,182.6,3.2,1.6,9.21,51.22,2.0277,393.9401],
    [4220,1537382770,53.7118,-110.5821,786.8,175.8,182.3,2.8,2.1,9.09,50.84,2.0298,393.2038],
    [4221,1537382771,53.7112,-110.5821,788.2,177.2,182.7,3.2,2.2,8.95,50.71,2.0412,393.9501],
    [4222,1537382772,53.7105,-110.5821,790.8,179.8,183.2,3.5,0.9,8.86,50.36,2.0329,394.8381],
    [4223,1537382773,53.7098,-110.5821,791.7,181.4,183.2,3.3,0.5,9.17,49.86,2.0284,391.5389],
    [4224,1537382774,53.7092,-110.5821,790.6,180.6,183.1,3.4,1.0,9.03,50.36,2.0256,392.4099],
    [4225,1537382775,53.7085,-110.5821,789.2,180.1,184.1,4.5,1.3,9.3,49.87,2.027,392.4099],
    [4226,1537382776,53.7078,-110.5822,788.2,180.2,184.1,4.4,0.9,9.09,49.9,2.028,393.4647],
    [4227,1537382777,53.7072,-110.5822,787.9,179.9,183.8,4.2,1.0,8.61,49.84,2.0274,391.9082],
    [4228,1537382778,53.7065,-110.5822,787.9,179.9,184.6,5.0,1.2,9.01,49.94,2.0267,393.271],
    [4229,1537382779,53.7058,-110.5822,788.3,180.3,184.1,4.3,1.1,9.61,49.65,2.0248,393.3484],
    [4230,1537382780,53.7052,-110.5822,789.0,181.0,183.6,3.9,0.2,9.23,50.09,2.0218,391.9435],
    [4231,1537382781,53.7045,-110.5822,789.0,181.0,183.5,4.2,0.0,8.49,50.21,2.0213,393.6882],
    [4232,1537382782,53.7039,-110.5822,788.3,181.3,183.4,4.1,-0.1,9.03,50.57,2.0262,393.9175],
    [4233,1537382783,53.7032,-110.5822,787.7,180.7,183.0,4.2,0.3,9.03,50.73,2.0212,393.9092],
    [4234,1537382784,53.7025,-110.5822,787.7,180.7,183.1,4.4,0.0,8.95,50.27,2.0179,393.896],
    [4235,1537382785,53.7019,-110.5822,788.0,181.0,182.8,4.1,-0.3,9.22,49.38,2.0124,393.0142],
    [4236,1537382786,53.7012,-110.5822,788.0,181.0,182.9,4.4,0.2,8.51,49.48,2.0137,392.6143],
    [4237,1537382787,53.7005,-110.5822,788.0,181.0,183.3,4.8,0.6,8.87,49.18,2.0217,393.3098],
    [4238,1537382788,53.6999,-110.5822,788.4,181.4,182.8,4.1,0.6,8.42,48.55,2.0293,389.6428],
    [4239,1537382789,53.6992,-110.5822,789.4,182.4,183.2,4.4,0.9,9.09,48.35,2.047,392.4882],
    [4240,1537382790,53.6985,-110.5822,791.2,183.2,182.3,3.0,2.2,8.83,49.18,2.0554,393.2692],
    [4241,1537382791,53.6979,-110.5822,792.3,184.3,182.9,3.8,1.6,8.28,48.72,2.0556,393.5095],
    [4242,1537382792,53.6972,-110.5822,792.5,183.5,183.0,3.8,1.9,8.87,49.18,2.0504,392.9115],
    [4243,1537382793,53.6965,-110.5822,791.6,181.6,183.4,4.2,2.0,9.28,49.05,2.0437,393.8499],
    [4244,1537382794,53.6959,-110.5822,790.2,180.5,184.4,5.4,1.4,9.57,49.42,2.0434,392.9141],
    [4245,1537382795,53.6952,-110.5822,788.8,180.9,184.0,4.7,1.3,9.68,49.07,2.0479,393.1448],
    [4246,1537382796,53.6945,-110.5822,788.0,181.0,183.6,4.6,1.2,9.24,49.81,2.0397,389.9442],
    [4247,1537382797,53.6938,-110.5822,788.1,184.1,183.4,4.7,0.9,9.31,48.87,2.0335,393.0231],
    [4248,1537382798,53.6932,-110.5822,788.1,186.7,183.4,4.9,0.5,9.02,49.37,2.0385,392.6811],
    [4249,1537382799,53.6925,-110.5822,787.3,188.3,182.7,4.2,0.5,9.07,49.21,2.0419,393.1908],
    [4250,1537382800,53.6919,-110.5822,787.0,190.3,182.0,3.7,0.9,9.31,49.06,2.0444,393.1539],
    [4251,1537382801,53.6912,-110.5822,787.5,192.5,181.9,3.4,0.1,8.89,48.92,2.0485,393.601],
    [4252,1537382802,53.6905,-110.5822,788.2,197.2,181.6,3.1,-0.5,9.07,48.59,2.0475,393.4923],
    [4253,1537382803,53.6898,-110.5821,787.9,198.5,182.6,4.1,-0.4,9.72,48.17,2.0464,391.7628],
    [4254,1537382804,53.6892,-110.5821,787.6,199.9,182.8,4.0,-0.8,9.3,48.36,2.046,392.1245],
    [4255,1537382805,53.6885,-110.5821,788.5,202.6,182.9,4.2,-0.6,8.49,49.07,2.0402,393.8955],
    [4256,1537382806,53.6878,-110.5821,789.0,203.0,183.4,4.8,-0.4,8.95,49.37,2.0405,394.2783],
    [4257,1537382807,53.6872,-110.5821,789.6,203.6,182.4,3.2,-0.6,9.17,49.23,2.0448,394.1437],
    [4258,1537382808,53.6865,-110.5821,790.6,204.6,181.8,2.6,0.1,8.77,49.96,2.0414,394.0002],
    [4259,1537382809,53.6858,-110.5821,791.0,205.0,182.6,3.5,0.1,8.92,50.41,2.0398,393.068],
    [4260,1537382810,53.6852,-110.5821,790.3,203.3,183.1,3.9,0.4,9.47,50.3,2.0256,392.9736],
    [4261,1537382811,53.6845,-110.5821,788.4,202.4,183.5,4.2,1.9,8.87,50.59,2.011,393.6274],
    [4262,1537382812,53.6838,-110.5821,786.0,200.0,183.3,3.4,2.3,8.62,50.43,2.006,392.5457],
    [4263,1537382813,53.6831,-110.5821,784.4,198.4,183.3,3.4,1.8,8.79,51.16,2.0115,392.4728],
    [4264,1537382814,53.6825,-110.5822,782.8,196.8,184.0,4.1,1.7,9.16,50.07,2.007,393.1165],
    [4265,1537382815,53.6818,-110.5822,780.5,193.4,184.1,4.4,2.5,9.7,49.85,2.0098,393.6813],
    [4266,1537382816,53.6811,-110.5822,777.6,189.3,184.3,4.8,2.6,8.57,49.86,2.009,393.6181],
    [4267,1537382817,53.6804,-110.5822,774.9,185.9,183.3,4.2,2.8,8.79,49.87,2.0074,393.4904],
    [4268,1537382818,53.6797,-110.5822,773.1,182.4,182.9,4.6,2.2,9.58,49.49,2.004,393.5502],
    [4269,1537382819,53.679,-110.5822,771.3,178.7,182.9,5.0,2.3,9.25,49.4,1.9999,393.3112],
    [4270,1537382820,53.6784,-110.5822,769.5,175.2,182.5,4.5,1.9,8.79,49.75,1.9986,394.1636],
    [4271,1537382821,53.6777,-110.5822,767.7,171.5,183.0,5.3,1.4,8.57,49.43,1.9972,393.1496],
    [4272,1537382822,53.677,-110.5821,764.8,166.8,183.6,6.1,1.9,8.88,49.4,1.9944,394.8619],
    [4273,1537382823,53.6763,-110.5821,763.3,163.3,182.0,4.9,1.3,8.74,49.07,1.9921,393.849],
    [4274,1537382824,53.6756,-110.5821,761.4,160.4,183.4,6.8,1.6,8.85,48.79,1.992,392.4725],
    [4275,1537382825,53.6749,-110.5821,758.7,156.7,182.2,5.2,2.5,9.0,48.77,1.9936,393.13],
    [4276,1537382826,53.6742,-110.582,755.8,152.8,183.2,6.3,2.1,9.02,47.78,1.9917,393.206],
    [4277,1537382827,53.6735,-110.582,754.0,150.0,183.0,5.4,1.7,9.04,47.73,1.9906,393.2692],
    [4278,1537382828,53.6728,-110.582,754.0,147.9,183.8,6.3,0.8,8.82,47.38,1.9882,392.7696],
    [4279,1537382829,53.6721,-110.582,754.2,147.2,183.7,5.9,0.6,9.1,47.13,1.9873,393.4185],
    [4280,1537382830,53.6714,-110.582,753.6,144.6,182.5,5.0,1.1,9.39,46.7,1.985,394.0762],
    [4281,1537382831,53.6707,-110.5819,753.1,144.1,182.6,5.3,1.2,8.44,47.1,1.9836,393.3076],
    [4282,1537382832,53.67,-110.5819,753.5,144.5,181.3,4.1,0.2,8.98,46.97,1.9842,393.3266],
    [4283,1537382833,53.6693,-110.5819,754.3,145.3,181.7,4.9,-0.1,9.11,46.94,1.9833,394.1508],
    [4284,1537382834,53.6686,-110.5818,753.9,144.9,181.5,4.8,0.0,9.86,46.43,1.9832,392.7431],
    [4285,1537382835,53.6679,-110.5818,753.6,144.6,181.6,5.0,-0.3,8.98,46.25,1.9822,393.0711],
    [4286,1537382836,53.6672,-110.5817,754.2,145.2,181.4,4.5,0.1,9.22,46.54,1.9768,393.2899],
    [4287,1537382837,53.6665,-110.5817,754.5,145.7,181.6,4.7,-0.2,9.13,45.74,1.9778,393.3315],
    [4288,1537382838,53.6658,-110.5817,755.1,147.0,181.9,4.7,-0.2,9.13,45.76,1.98,392.915],
    [4289,1537382839,53.6651,-110.5816,755.9,149.0,181.9,4.5,-0.4,9.91,45.17,1.9834,393.9424],
    [4290,1537382840,53.6644,-110.5816,757.4,150.5,181.9,4.1,-0.2,9.32,45.78,1.9855,392.1271],
    [4291,1537382841,53.6637,-110.5816,759.8,152.9,181.7,3.7,0.1,9.13,45.95,1.9836,393.569],
    [4292,1537382842,53.6631,-110.5816,761.4,154.5,181.3,2.9,1.1,8.7,46.15,1.9794,393.4726],
    [4293,1537382843,53.6624,-110.5815,761.7,154.6,181.7,3.4,1.5,9.54,46.12,1.9803,393.4211],
    [4294,1537382844,53.6617,-110.5815,761.2,155.2,182.7,4.3,0.8,9.0,47.46,1.9797,393.1829],
    [4295,1537382845,53.661,-110.5815,760.7,155.5,183.0,4.2,0.9,8.96,47.39,1.9793,392.4881],
    [4296,1537382846,53.6603,-110.5815,760.2,154.9,182.6,3.6,0.8,9.18,47.57,1.9818,393.0165],
    [4297,1537382847,53.6596,-110.5815,759.8,153.9,182.5,3.5,0.8,9.25,48.14,1.9793,392.4209],
    [4298,1537382848,53.6589,-110.5815,759.3,152.3,183.0,4.1,0.6,9.67,47.5,1.9762,393.2844],
    [4299,1537382849,53.6583,-110.5815,758.7,152.2,183.5,4.5,0.1,8.98,47.72,1.9735,393.2844],
    [4300,1537382850,53.6576,-110.5815,758.2,152.5,183.5,4.6,-0.1,9.94,47.31,1.9727,393.3245],
    [4301,1537382851,53.6569,-110.5815,757.9,154.1,183.5,4.7,0.0,9.12,47.63,1.9742,393.3455],
    [4302,1537382852,53.6562,-110.5815,757.6,155.7,183.6,5.1,0.5,9.68,46.8,1.9806,393.7063],
    [4303,1537382853,53.6555,-110.5815,757.7,157.7,183.8,5.4,0.8,9.22,47.18,1.9887,393.3153],
    [4304,1537382854,53.6549,-110.5815,757.7,159.3,183.9,5.3,0.9,9.12,47.26,1.9951,393.5725],
    [4305,1537382855,53.6542,-110.5815,758.9,159.8,182.9,4.6,0.9,9.78,46.59,1.9951,393.2995],
    [4306,1537382856,53.6535,-110.5815,760.3,157.8,183.1,5.3,0.5,9.1,47.67,1.9927,393.2392],
    [4307,1537382857,53.6529,-110.5815,761.4,157.4,182.0,4.5,0.5,9.35,47.38,1.9903,393.1998],
    [4308,1537382858,53.6522,-110.5814,761.5,155.5,182.6,5.5,0.3,9.62,47.83,1.9847,393.8533],
    [4309,1537382859,53.6515,-110.5814,761.1,155.1,181.1,3.5,0.7,9.25,47.85,1.9854,392.17],
    [4310,1537382860,53.6508,-110.5814,761.3,155.3,180.7,3.4,0.6,8.99,48.05,1.9851,393.0835],
    [4311,1537382861,53.6502,-110.5813,760.8,154.8,181.7,4.4,0.4,9.69,48.07,1.9753,392.6204],
    [4312,1537382862,53.6495,-110.5813,760.4,154.4,181.7,4.3,1.3,9.23,48.74,1.9727,392.4969],
    [4313,1537382863,53.6488,-110.5813,761.3,155.3,182.0,4.3,1.8,9.18,47.91,1.9708,393.3619],
    [4314,1537382864,53.6482,-110.5813,761.0,154.0,183.4,5.5,1.0,8.86,47.67,1.971,393.414],
    [4315,1537382865,53.6475,-110.5812,760.3,153.3,183.3,5.1,0.4,9.25,47.43,1.9695,393.4706],
    [4316,1537382866,53.6468,-110.5812,760.0,153.0,183.6,5.6,0.9,8.64,47.33,1.9661,392.2053],
    [4317,1537382867,53.6461,-110.5812,759.3,152.3,183.4,5.4,0.8,9.1,47.06,1.9717,392.8988],
    [4318,1537382868,53.6454,-110.5812,758.5,151.5,181.8,4.2,0.6,9.65,46.02,1.9699,392.4837],
    [4319,1537382869,53.6447,-110.5812,758.0,151.7,182.1,5.2,0.4,9.82,45.6,1.9653,392.6461],
    [4320,1537382870,53.644,-110.5811,758.6,152.6,181.6,4.7,0.6,9.65,45.28,1.9702,392.1889],
    [4321,1537382871,53.6434,-110.5811,758.4,152.4,181.5,4.4,0.3,9.02,46.47,1.973,392.2715],
    [4322,1537382872,53.6427,-110.5811,758.2,152.2,181.6,4.7,0.5,9.37,45.66,1.9742,392.2504],
    [4323,1537382873,53.642,-110.581,758.7,152.7,182.9,5.8,0.3,9.27,45.94,1.9772,393.2338],
    [4324,1537382874,53.6413,-110.581,759.4,153.4,182.4,4.8,0.8,9.7,45.73,1.9762,393.1057],
    [4325,1537382875,53.6407,-110.581,760.5,154.5,183.1,5.5,0.2,9.77,46.53,1.9766,392.4671],
    [4326,1537382876,53.64,-110.581,761.3,155.3,183.6,5.8,0.4,9.2,47.07,1.9784,392.6213],
    [4327,1537382877,53.6393,-110.5809,760.3,154.3,183.6,5.4,0.2,8.81,47.48,1.977,392.5831],
    [4328,1537382878,53.6386,-110.5809,758.8,152.8,183.4,5.0,0.0,10.04,47.61,1.9775,393.5341],
    [4329,1537382879,53.6379,-110.5809,758.0,152.0,183.2,4.6,0.6,9.42,48.5,1.977,393.4493],
    [4330,1537382880,53.6373,-110.5809,758.9,152.9,182.1,3.3,0.6,9.25,48.57,1.9793,393.5602],
    [4331,1537382881,53.6366,-110.5809,759.9,153.9,182.3,3.8,1.1,8.91,48.99,1.9792,393.1146],
    [4332,1537382882,53.6359,-110.5809,759.8,154.1,182.5,3.9,1.5,9.29,49.33,1.9787,392.7477],
    [4333,1537382883,53.6352,-110.5809,759.4,153.7,181.9,3.1,1.4,9.37,50.39,1.9766,393.4009],
    [4334,1537382884,53.6345,-110.5809,759.6,153.9,181.5,2.8,1.5,9.15,50.8,1.9763,393.8386],
    [4335,1537382885,53.6338,-110.5809,760.2,154.2,182.5,3.8,1.3,9.29,50.69,1.9751,392.9036],
    [4336,1537382886,53.6331,-110.5809,759.5,153.5,182.7,3.6,0.2,9.1,50.98,1.9755,391.9911],
    [4337,1537382887,53.6325,-110.5809,758.4,151.9,182.3,3.0,0.9,9.2,50.64,1.9753,393.1312],
    [4338,1537382888,53.6318,-110.5809,757.5,150.5,183.4,4.2,1.1,9.01,50.68,1.9751,393.477],
    [4339,1537382889,53.6311,-110.5809,757.2,149.2,183.5,4.3,1.7,9.46,51.05,1.9758,392.8963],
    [4340,1537382890,53.6304,-110.5809,757.7,148.7,183.9,4.9,1.9,9.33,50.58,1.9848,392.9909],
    [4341,1537382891,53.6297,-110.5809,758.9,149.9,184.0,5.2,2.0,9.19,50.65,1.9797,393.662],
    [4342,1537382892,53.6291,-110.5809,760.8,151.8,182.8,3.9,2.4,9.44,50.51,1.9756,391.1172],
    [4343,1537382893,53.6284,-110.5809,762.1,153.1,182.1,3.4,2.4,9.24,50.44,1.9761,391.932],
    [4344,1537382894,53.6277,-110.5809,762.4,153.4,181.6,3.3,2.2,9.04,51.1,1.9846,392.6286],
    [4345,1537382895,53.627,-110.5809,762.5,153.5,182.3,4.0,1.8,9.71,50.42,1.979,393.2569],
    [4346,1537382896,53.6264,-110.5809,762.9,153.9,182.0,3.3,1.8,9.43,51.07,1.9818,394.134],
    [4347,1537382897,53.6257,-110.5808,762.7,153.7,183.4,4.7,2.0,9.5,49.98,1.9766,393.277],
    [4348,1537382898,53.625,-110.5809,761.9,151.9,183.9,4.7,2.2,9.56,49.73,1.9674,393.6671],
    [4349,1537382899,53.6243,-110.5809,761.6,151.6,183.6,4.0,2.0,9.0,49.89,1.9658,393.6671],
    [4350,1537382900,53.6236,-110.5809,760.6,150.6,184.1,4.3,1.8,10.01,49.85,1.966,392.9764],
    [4351,1537382901,53.6229,-110.5809,758.9,148.9,184.7,4.9,1.5,9.84,49.71,1.9662,392.3165],
    [4352,1537382902,53.6222,-110.5809,758.0,148.0,184.7,4.9,1.1,9.36,49.76,1.9668,392.8504],
    [4353,1537382903,53.6215,-110.581,758.0,148.0,184.9,5.1,0.9,9.39,49.09,1.9661,392.4687],
    [4354,1537382904,53.6209,-110.581,758.3,148.3,184.7,5.1,0.3,9.41,49.32,1.9666,391.9383],
    [4355,1537382905,53.6202,-110.581,758.3,148.3,184.6,5.5,1.2,9.02,48.8,1.9666,392.9694],
    [4356,1537382906,53.6195,-110.581,758.4,148.4,184.1,4.9,2.7,9.36,49.43,1.9629,392.6526],
    [4357,1537382907,53.6188,-110.581,760.1,150.1,181.4,2.3,3.0,8.98,49.61,1.9648,390.1843],
    [4358,1537382908,53.6181,-110.581,761.8,151.8,182.7,4.4,2.2,9.47,49.9,1.9667,392.5181],
    [4359,1537382909,53.6175,-110.581,762.1,152.1,183.8,5.8,1.5,9.71,49.2,1.9664,392.639],
    [4360,1537382910,53.6167,-110.581,761.5,151.5,183.5,5.3,1.9,9.32,50.3,1.9642,391.9649],
    [4361,1537382911,53.616,-110.581,761.2,150.4,182.9,4.8,1.9,9.25,49.35,1.9615,392.0411],
    [4362,1537382912,53.6154,-110.5809,761.2,150.2,183.3,5.3,1.2,9.36,49.86,1.9599,393.6059],
    [4363,1537382913,53.6147,-110.5809,760.8,148.9,183.3,5.4,1.5,9.55,48.56,1.9605,393.4854],
    [4364,1537382914,53.614,-110.5809,760.6,147.7,183.7,5.8,1.0,9.62,48.28,1.9634,393.1539],
    [4365,1537382915,53.6133,-110.5809,760.8,146.9,183.4,5.4,1.1,9.45,48.31,1.9626,392.2389],
    [4366,1537382916,53.6126,-110.5809,760.0,145.0,183.4,5.5,1.4,9.4,48.06,1.9593,391.7444],
    [4367,1537382917,53.6119,-110.5809,758.6,142.6,182.8,4.8,0.8,9.37,47.93,1.9587,393.0615],
    [4368,1537382918,53.6112,-110.5809,757.7,141.0,182.6,5.0,0.5,9.38,47.13,1.9588,393.0615],
    [4369,1537382919,53.6106,-110.5808,758.0,141.1,182.9,5.5,0.0,10.14,46.43,1.9542,392.4354],
    [4370,1537382920,53.6099,-110.5808,758.2,141.0,182.8,5.5,-0.5,9.5,47.11,1.9534,393.2259],
    [4371,1537382921,53.6092,-110.5808,757.9,139.8,182.8,5.6,-0.5,9.39,46.15,1.9542,393.3226],
    [4372,1537382922,53.6085,-110.5808,757.9,138.8,182.6,5.5,-0.2,9.36,45.16,1.9577,392.9203],
    [4373,1537382923,53.6078,-110.5807,758.0,137.9,183.2,6.4,-0.1,9.15,45.22,1.9583,393.7037],
    [4374,1537382924,53.6071,-110.5807,758.8,138.7,183.4,6.2,0.0,9.93,45.04,1.9576,392.0809],
    [4375,1537382925,53.6065,-110.5807,759.7,140.8,182.9,5.9,0.7,9.98,45.17,1.9601,392.7416],
    [4376,1537382926,53.6058,-110.5806,760.7,142.4,183.5,6.4,1.4,9.39,46.71,1.9587,393.0772],
    [4377,1537382927,53.6051,-110.5806,760.7,143.1,182.6,5.4,0.6,9.4,46.18,1.9595,393.1349],
    [4378,1537382928,53.6044,-110.5806,759.9,142.9,182.7,5.8,0.6,9.02,46.24,1.961,393.6873],
    [4379,1537382929,53.6037,-110.5805,759.2,142.2,182.8,5.9,0.6,9.67,46.41,1.9627,393.5052],
    [4380,1537382930,53.603,-110.5805,759.2,140.2,182.4,5.5,0.9,9.58,46.34,1.965,394.0849],
    [4381,1537382931,53.6024,-110.5805,759.3,139.3,182.8,5.9,0.8,9.6,46.5,1.9639,392.374],
    [4382,1537382932,53.6017,-110.5804,759.3,138.2,183.2,6.4,0.1,8.8,46.65,1.9632,393.0283],
    [4383,1537382933,53.601,-110.5804,758.9,136.9,183.4,6.5,0.5,8.93,46.87,1.961,394.1368],
    [4384,1537382934,53.6003,-110.5804,758.8,136.8,183.4,6.4,0.0,9.39,46.92,1.9611,393.4126],
    [4385,1537382935,53.5996,-110.5804,759.1,136.1,183.0,6.3,-0.5,9.41,47.56,1.9607,393.5854],
    [4386,1537382936,53.599,-110.5803,759.0,136.0,182.7,6.4,-0.8,10.16,46.62,1.9603,393.8234],
    [4387,1537382937,53.5983,-110.5803,758.6,136.6,182.4,6.4,-0.7,9.74,47.0,1.9623,393.9463],
    [4388,1537382938,53.5976,-110.5802,758.2,135.5,182.1,6.1,-0.6,9.15,47.29,1.9599,391.2146],
    [4389,1537382939,53.5969,-110.5802,759.3,136.2,182.1,5.5,-1.0,9.37,48.01,1.9602,392.1732],
    [4390,1537382940,53.5962,-110.5801,760.4,137.5,182.2,5.2,0.1,9.4,48.01,1.9622,392.3931],
    [4391,1537382941,53.5956,-110.5801,761.2,137.2,183.0,5.4,0.6,9.53,47.64,1.9626,393.8296],
    [4392,1537382942,53.5949,-110.5801,762.3,137.4,181.4,2.5,0.5,8.89,47.59,1.9647,392.7467],
    [4393,1537382943,53.5942,-110.5801,762.6,136.5,181.6,2.9,1.7,9.8,47.43,1.9658,392.8135],
    [4394,1537382944,53.5935,-110.5801,761.0,134.2,183.1,4.3,2.2,9.28,48.13,1.9658,396.4183],
    [4395,1537382945,53.5929,-110.5801,759.9,132.9,181.9,2.5,2.6,9.69,48.0,1.9648,396.4183],
    [4396,1537382946,53.5922,-110.5801,759.7,132.7,182.5,2.7,1.7,9.55,48.64,1.9674,393.3872],
    [4397,1537382947,53.5915,-110.5801,760.0,132.1,182.6,1.9,1.5,9.17,48.51,1.9671,393.0221],
    [4398,1537382948,53.5908,-110.5801,759.3,131.3,183.3,2.3,1.7,9.87,48.22,1.9685,393.222],
    [4399,1537382949,53.5901,-110.5802,758.8,130.9,183.9,2.5,1.2,9.84,48.21,1.9676,393.2706],
    [4400,1537382950,53.5895,-110.5802,758.2,130.2,184.8,3.4,0.8,9.28,48.56,1.9692,391.9752],
    [4401,1537382951,53.5888,-110.5803,757.3,130.3,185.7,4.0,1.2,9.33,48.49,1.9653,392.1349],
    [4402,1537382952,53.5881,-110.5803,757.6,130.6,185.5,3.6,1.2,8.99,48.66,1.9655,392.8542],
    [4403,1537382953,53.5874,-110.5804,758.9,131.0,185.7,3.8,0.8,9.62,47.89,1.9661,393.0769],
    [4404,1537382954,53.5867,-110.5804,759.9,130.6,185.1,3.3,1.6,9.41,48.57,1.9665,394.0501],
    [4405,1537382955,53.586,-110.5805,759.9,128.6,185.3,4.0,1.5,9.86,48.02,1.966,393.1213],
    [4406,1537382956,53.5854,-110.5805,759.8,127.8,184.5,3.4,2.8,9.29,48.29,1.9667,392.9377],
    [4407,1537382957,53.5847,-110.5806,760.2,124.2,184.3,3.2,3.0,9.95,47.83,1.9657,394.1758],
    [4408,1537382958,53.584,-110.5806,760.3,121.7,184.4,3.4,2.9,9.44,48.16,1.9671,392.8794],
    [4409,1537382959,53.5833,-110.5807,760.3,116.6,185.0,4.0,2.5,9.09,48.21,1.9675,393.3048],
    [4410,1537382960,53.5826,-110.5807,760.6,113.1,184.5,3.5,3.2,10.05,47.44,1.967,392.7391],
    [4411,1537382961,53.582,-110.5807,761.2,111.1,185.4,4.4,2.2,9.5,47.67,1.9673,392.7391],
    [4412,1537382962,53.5813,-110.5808,760.4,110.4,185.2,4.2,2.2,9.45,48.04,1.9664,392.7982],
    [4413,1537382963,53.5806,-110.5808,759.1,110.9,185.2,4.6,1.9,9.43,47.9,1.967,393.3055],
    [4414,1537382964,53.5799,-110.5809,758.2,112.1,184.8,4.7,1.9,9.95,47.81,1.9669,394.0482],
    [4415,1537382965,53.5792,-110.5809,757.8,113.6,184.5,4.8,1.5,9.21,48.27,1.9674,393.5976],
    [4416,1537382966,53.5786,-110.5809,757.7,115.9,184.0,4.4,1.0,9.49,48.17,1.9673,394.2765],
    [4417,1537382967,53.5779,-110.5809,758.7,119.6,183.3,3.7,1.1,9.37,47.99,1.9673,393.6563],
    [4418,1537382968,53.5772,-110.5809,759.8,126.7,183.8,4.2,1.5,9.44,48.22,1.9661,393.4498],
    [4419,1537382969,53.5765,-110.5809,760.6,131.9,183.6,3.4,1.0,9.0,47.9,1.9668,392.1589],
    [4420,1537382970,53.5759,-110.581,762.2,137.6,183.6,3.4,0.9,9.49,47.61,1.9672,392.5029],
    [4421,1537382971,53.5752,-110.581,763.5,143.9,185.2,5.1,1.0,9.46,48.62,1.9666,393.3972],
    [4422,1537382972,53.5745,-110.581,764.1,147.1,185.0,4.8,0.9,9.44,47.63,1.966,393.3985],
    [4423,1537382973,53.5738,-110.581,764.3,150.3,185.1,4.8,0.4,9.7,47.31,1.9671,393.302],
    [4424,1537382974,53.5732,-110.5811,765.0,151.0,184.8,4.5,0.2,9.5,47.15,1.9724,392.3899],
    [4425,1537382975,53.5725,-110.5811,765.6,151.6,184.7,4.7,0.1,9.66,46.91,1.972,394.8825],
    [4426,1537382976,53.5718,-110.5811,766.1,151.7,185.0,5.0,-0.2,9.61,46.73,1.9752,392.5688],
    [4427,1537382977,53.5712,-110.5811,766.2,151.2,184.4,4.5,-0.2,9.31,46.71,1.9733,392.6928],
    [4428,1537382978,53.5705,-110.5811,767.2,151.2,183.4,3.3,-0.3,9.44,47.17,1.9722,393.5304],
    [4429,1537382979,53.5698,-110.5812,769.9,154.9,183.5,3.5,-0.9,9.05,46.76,1.9728,393.0553],
    [4430,1537382980,53.5692,-110.5812,773.0,158.0,183.7,3.7,-0.4,9.54,47.24,1.9734,392.6952],
    [4431,1537382981,53.5685,-110.5812,774.8,160.1,183.4,3.1,0.1,9.4,46.86,1.9718,392.0123],
    [4432,1537382982,53.5679,-110.5812,775.8,161.8,183.2,2.9,0.4,8.81,46.87,1.9822,393.5981],
    [4433,1537382983,53.5672,-110.5812,778.4,164.4,182.8,2.5,0.9,9.07,47.12,1.9878,392.9992],
    [4434,1537382984,53.5665,-110.5813,781.0,167.0,182.2,1.7,1.1,9.66,47.0,1.994,394.8716],
    [4435,1537382985,53.5659,-110.5813,782.7,168.4,183.0,2.7,0.7,9.47,47.77,1.9978,392.7656],
    [4436,1537382986,53.5652,-110.5813,783.4,168.4,184.7,4.7,0.7,9.15,47.64,1.9857,393.178],
    [4437,1537382987,53.5646,-110.5813,784.5,168.5,184.9,4.5,0.8,9.4,47.43,1.9793,393.9267],
    [4438,1537382988,53.5639,-110.5813,785.9,168.8,185.3,4.9,0.4,9.24,47.71,1.9797,392.2542],
    [4439,1537382989,53.5633,-110.5814,787.0,170.0,184.7,4.0,-0.1,9.23,48.55,1.9811,392.2542],
    [4440,1537382990,53.5626,-110.5814,787.5,170.3,183.8,3.5,-0.7,9.25,48.75,1.9824,393.0793],
    [4441,1537382991,53.562,-110.5814,788.9,171.0,184.9,5.1,-0.7,9.84,47.99,1.9776,394.0899],
    [4442,1537382992,53.5613,-110.5814,790.8,170.7,184.3,4.4,-0.1,9.56,48.68,1.9761,394.2591],
    [4443,1537382993,53.5607,-110.5814,792.5,172.9,182.4,2.5,1.1,9.44,49.08,1.9762,393.8739],
    [4444,1537382994,53.56,-110.5814,792.8,174.8,183.6,4.3,1.2,9.87,48.56,1.9745,393.2265],
    [4445,1537382995,53.5594,-110.5814,792.2,177.1,183.4,4.0,1.6,10.02,48.51,1.9769,393.3192],
    [4446,1537382996,53.5587,-110.5814,792.8,178.5,181.8,2.7,1.4,9.1,48.91,1.9746,392.7725],
    [4447,1537382997,53.5581,-110.5814,794.0,179.9,183.2,4.8,0.7,9.34,49.58,1.9727,394.4599],
    [4448,1537382998,53.5574,-110.5814,793.7,180.7,182.8,4.1,0.9,10.1,48.76,1.9782,393.6982],
    [4449,1537382999,53.5567,-110.5814,792.1,177.7,182.8,4.4,1.0,9.59,49.02,1.9809,394.0976],
    [4450,1537383000,53.5561,-110.5814,790.2,173.0,183.7,5.2,1.5,10.02,48.87,1.9763,394.0043],
    [4451,1537383001,53.5555,-110.5814,789.5,170.4,183.6,4.8,1.7,9.64,49.41,1.9738,393.3228],
    [4452,1537383002,53.5548,-110.5814,789.4,169.3,183.6,4.8,1.1,9.21,48.81,1.9718,394.2976],
    [4453,1537383003,53.5541,-110.5814,789.4,170.2,184.0,5.1,0.5,9.41,48.26,1.9716,393.518],
    [4454,1537383004,53.5534,-110.5814,789.2,171.5,183.9,4.6,0.7,8.66,48.51,1.9726,394.0609],
    [4455,1537383005,53.5528,-110.5814,789.4,173.5,183.5,3.8,0.9,9.44,47.75,1.971,394.0717],
    [4456,1537383006,53.5521,-110.5814,789.8,172.8,184.1,4.1,0.6,9.5,48.14,1.9694,393.6294],
    [4457,1537383007,53.5515,-110.5815,789.8,171.1,184.4,3.9,0.3,9.13,48.39,1.9713,393.8155],
    [4458,1537383008,53.5508,-110.5815,789.9,168.1,184.2,3.4,-0.2,8.99,48.31,1.9726,393.3098],
    [4459,1537383009,53.5501,-110.5815,789.3,165.4,184.8,4.3,0.3,9.14,48.25,1.9717,393.3098],
    [4460,1537383010,53.5495,-110.5815,788.7,163.0,185.0,4.3,0.6,8.75,48.53,1.9755,394.5954],
    [4461,1537383011,53.5488,-110.5816,789.0,162.2,184.1,3.4,0.3,9.46,48.67,1.9759,394.9512],
    [4462,1537383012,53.5482,-110.5816,789.8,165.7,183.4,2.9,-0.1,9.03,48.92,1.9756,395.3301],
    [4463,1537383013,53.5475,-110.5816,789.8,171.9,183.7,3.3,-1.0,9.09,49.34,1.9774,394.1689],
    [4464,1537383014,53.5468,-110.5816,789.5,174.1,183.2,2.4,-1.0,9.1,49.3,1.9774,393.5554],
    [4465,1537383015,53.5462,-110.5817,788.8,173.9,184.0,3.4,-0.1,9.41,49.43,1.9792,393.6911],
    [4466,1537383016,53.5455,-110.5817,788.2,172.5,185.3,4.2,-0.2,9.27,49.77,1.9752,393.438],
    [4467,1537383017,53.5448,-110.5817,788.4,174.0,185.1,4.0,0.1,9.22,49.76,1.9729,393.438],
    [4468,1537383018,53.5442,-110.5818,788.9,177.4,185.1,4.0,-0.6,9.22,50.14,1.9736,394.1092],
    [4469,1537383019,53.5435,-110.5818,789.3,178.3,184.7,4.0,-1.0,8.69,49.41,1.9767,393.117],
    [4470,1537383020,53.5429,-110.5818,789.3,178.3,184.3,3.5,-0.7,9.63,49.4,1.9787,394.7609],
    [4471,1537383021,53.5422,-110.5819,789.8,176.9,183.5,2.6,-0.4,9.14,49.16,1.9807,394.6025],
    [4472,1537383022,53.5415,-110.5819,791.1,174.5,183.2,2.5,-0.2,8.85,49.38,1.9842,395.28],
    [4473,1537383023,53.5408,-110.5819,790.9,172.0,184.3,3.8,0.3,9.08,49.84,1.9849,394.1343],
    [4474,1537383024,53.5402,-110.582,789.4,172.5,184.5,4.0,0.3,8.57,50.06,1.9877,394.1343],
    [4475,1537383025,53.5395,-110.582,788.2,172.2,185.6,5.0,0.7,9.45,49.78,1.9894,393.6492],
    [4476,1537383026,53.5389,-110.582,788.5,171.5,186.0,5.5,1.1,9.1,50.48,1.9881,394.5195],
    [4477,1537383027,53.5382,-110.5821,790.4,172.7,185.7,5.2,1.7,8.97,50.46,1.9867,392.9285],
    [4478,1537383028,53.5375,-110.5821,791.8,172.1,186.0,5.6,1.6,8.57,50.53,1.9878,394.9122],
    [4479,1537383029,53.5368,-110.5821,792.1,171.0,186.3,5.7,1.0,9.4,50.43,1.9867,394.9122],
    [4480,1537383030,53.5362,-110.5822,791.8,170.8,186.7,5.9,0.4,8.65,50.5,1.985,393.5139],
    [4481,1537383031,53.5355,-110.5822,791.8,176.8,186.7,5.7,0.2,9.15,50.76,1.9866,392.3949],
    [4482,1537383032,53.5348,-110.5823,793.3,183.7,184.6,3.3,0.3,9.34,50.37,1.9861,394.3588],
    [4483,1537383033,53.5341,-110.5823,794.8,189.6,184.1,4.0,0.8,9.3,51.1,1.9865,393.8699],
    [4484,1537383034,53.5335,-110.5823,794.6,185.9,186.8,7.6,1.5,9.45,50.38,1.9838,394.0145],
    [4485,1537383035,53.5328,-110.5823,793.1,178.8,185.7,6.4,0.7,9.2,50.44,1.9842,393.3969],
    [4486,1537383036,53.5321,-110.5824,792.5,169.1,185.0,6.1,0.6,8.86,50.56,1.9847,394.0057],
    [4487,1537383037,53.5314,-110.5824,791.9,165.9,185.3,6.6,0.1,9.66,50.05,1.9835,393.0002],
    [4488,1537383038,53.5307,-110.5824,790.8,164.8,184.7,6.1,-0.5,9.32,50.54,1.9852,394.4713],
    [4489,1537383039,53.53,-110.5824,789.8,163.8,182.9,4.4,-0.3,8.99,50.2,1.9848,393.803],
    [4490,1537383040,53.5294,-110.5824,789.7,163.1,183.6,5.6,0.3,9.18,50.07,1.9835,394.7649],
    [4491,1537383041,53.5287,-110.5823,790.6,163.6,183.4,4.8,0.0,8.89,49.67,1.9824,394.5944],
    [4492,1537383042,53.528,-110.5823,791.4,164.4,184.1,5.3,-0.2,8.6,49.74,1.9807,393.4807],
    [4493,1537383043,53.5273,-110.5824,790.8,164.6,185.3,6.6,-0.2,9.15,49.68,1.9801,393.7393],
    [4494,1537383044,53.5266,-110.5824,789.7,165.7,185.3,6.3,0.5,9.62,48.6,1.9817,393.8908],
    [4495,1537383045,53.5259,-110.5824,789.6,167.3,184.5,5.5,0.7,9.16,48.93,1.9811,394.4247],
    [4496,1537383046,53.5252,-110.5824,790.1,169.7,184.4,5.5,1.0,9.62,48.13,1.9849,395.0038],
    [4497,1537383047,53.5245,-110.5824,791.1,172.4,183.2,3.8,0.4,9.26,48.61,1.9853,395.0038],
    [4498,1537383048,53.5239,-110.5824,791.9,175.0,182.1,2.8,0.9,9.66,48.21,1.9793,395.2183],
    [4499,1537383049,53.5232,-110.5824,792.2,175.4,183.6,4.6,1.2,9.04,48.84,1.9796,394.6678],
    [4500,1537383050,53.5225,-110.5824,792.0,175.9,182.3,2.8,2.5,8.87,48.67,1.9814,395.1703],
    [4501,1537383051,53.5218,-110.5824,792.5,177.9,184.1,4.8,2.9,9.74,48.04,1.983,393.7287],
    [4502,1537383052,53.5211,-110.5824,792.8,180.1,185.7,5.9,1.5,9.5,48.58,1.9844,394.7262],
    [4503,1537383053,53.5204,-110.5825,793.1,182.1,185.2,5.0,1.5,9.62,48.04,1.987,395.3362],
    [4504,1537383054,53.5197,-110.5825,792.8,182.8,186.2,6.0,0.1,9.45,48.97,1.9871,394.8912],
    [4505,1537383055,53.519,-110.5825,792.0,181.6,186.7,6.3,0.2,9.39,48.37,1.9906,396.7642],
    [4506,1537383056,53.5183,-110.5826,791.8,180.7,186.5,5.8,0.4,9.58,48.3,1.9888,395.3709],
    [4507,1537383057,53.5176,-110.5826,791.1,180.0,186.0,5.6,1.5,9.72,48.69,1.9826,395.1448],
    [4508,1537383058,53.5169,-110.5827,791.1,180.7,186.0,6.0,1.5,9.7,48.3,1.981,395.1448],
    [4509,1537383059,53.5162,-110.5827,790.5,180.8,185.6,6.0,1.3,9.21,49.01,1.9824,395.3454],
    [4510,1537383060,53.5155,-110.5827,789.4,181.4,185.8,6.5,0.7,9.92,48.55,1.9796,394.9913],
    [4511,1537383061,53.5148,-110.5827,788.9,181.7,185.3,6.1,0.4,9.29,48.27,1.9828,396.1002],
    [4512,1537383062,53.5141,-110.5828,789.0,183.0,184.9,5.8,0.2,8.77,48.68,1.9885,395.1912],
    [4513,1537383063,53.5134,-110.5828,788.6,182.6,184.9,6.1,-0.1,9.59,47.9,1.9858,394.3344],
    [4514,1537383064,53.5128,-110.5828,788.3,182.3,184.3,5.4,1.0,9.72,48.09,1.9794,395.0628],
    [4515,1537383065,53.512,-110.5828,789.5,182.5,183.4,4.8,0.8,9.0,48.36,1.9789,395.1263],
    [4516,1537383066,53.5113,-110.5828,791.4,183.4,183.2,4.6,0.5,9.02,48.56,1.9779,395.3358],
    [4517,1537383067,53.5106,-110.5828,793.1,184.2,182.4,3.8,1.4,9.06,48.58,1.9757,395.8469],
    [4518,1537383068,53.5099,-110.5828,793.6,182.1,183.1,4.6,1.4,9.73,48.2,1.9735,396.763],
    [4519,1537383069,53.5092,-110.5828,792.7,179.4,184.9,6.2,0.8,8.98,48.45,1.9734,394.6598],
    [4520,1537383070,53.5085,-110.5828,791.5,176.6,184.1,4.6,1.0,9.31,48.45,1.9712,396.1232],
    [4521,1537383071,53.5079,-110.5828,790.7,175.7,185.7,5.9,0.9,9.24,48.36,1.9688,396.3959],
    [4522,1537383072,53.5072,-110.5828,790.4,175.4,186.3,6.0,0.8,9.59,48.2,1.9702,395.9557],
    [4523,1537383073,53.5065,-110.5829,790.7,174.0,185.9,5.6,0.7,9.13,47.96,1.972,396.4729],
    [4524,1537383074,53.5058,-110.5829,790.7,172.9,186.1,6.2,0.3,9.02,48.35,1.9721,396.4729],
    [4525,1537383075,53.5051,-110.5829,790.2,171.3,185.5,6.0,1.0,9.55,48.06,1.9724,394.808],
    [4526,1537383076,53.5045,-110.5829,791.3,172.2,184.4,4.6,0.7,8.46,48.59,1.9753,395.7486],
    [4527,1537383077,53.5038,-110.583,793.5,174.5,182.8,3.4,0.9,9.22,49.35,1.9727,396.3786],
    [4528,1537383078,53.503,-110.583,794.5,174.7,184.4,5.1,0.0,8.88,48.97,1.972,396.3786],
    [4529,1537383079,53.5023,-110.583,793.7,173.9,182.9,2.9,-0.3,9.25,49.28,1.9699,395.3781],
    [4530,1537383080,53.5016,-110.583,791.9,171.9,183.7,3.8,-0.3,9.01,49.07,1.9689,396.1412],
    [4531,1537383081,53.501,-110.583,790.9,170.4,184.1,3.9,-0.4,9.34,48.6,1.9719,396.2823],
    [4532,1537383082,53.5003,-110.583,791.0,169.8,184.0,3.7,-0.9,9.11,48.71,1.97,396.451],
    [4533,1537383083,53.4996,-110.5831,791.3,170.5,184.4,4.2,-1.3,9.66,48.31,1.9711,394.964],
    [4534,1537383084,53.4989,-110.5831,791.7,170.5,184.9,4.7,-1.5,9.2,48.6,1.9722,397.2899],
    [4535,1537383085,53.4982,-110.5831,792.0,172.1,184.4,4.2,-1.6,9.76,47.79,1.971,397.4053],
    [4536,1537383086,53.4975,-110.5831,791.1,171.4,183.6,3.4,-1.0,9.35,48.43,1.9712,395.4537],
    [4537,1537383087,53.4968,-110.5832,790.0,171.2,183.5,3.7,-0.2,8.83,48.98,1.972,395.2214],
    [4538,1537383088,53.4961,-110.5832,789.6,170.4,184.0,4.4,-0.2,8.75,49.21,1.9725,396.6744],
    [4539,1537383089,53.4954,-110.5832,789.5,170.3,183.9,4.4,-0.1,9.35,49.2,1.9721,395.6201],
    [4540,1537383090,53.4947,-110.5832,790.0,170.0,184.1,4.8,0.1,9.09,49.39,1.9722,394.7469],
    [4541,1537383091,53.4941,-110.5832,790.9,168.9,184.4,5.0,-0.4,9.72,49.22,1.9725,395.2724],
    [4542,1537383092,53.4934,-110.5832,792.1,169.0,183.9,3.9,0.5,9.21,49.92,1.9724,396.5884],
    [4543,1537383093,53.4927,-110.5832,792.7,168.7,183.0,3.1,1.1,9.27,49.14,1.9736,396.6612],
    [4544,1537383094,53.492,-110.5833,792.0,167.0,184.3,4.7,1.0,9.03,49.57,1.9765,397.1231],
    [4545,1537383095,53.4913,-110.5833,791.5,163.4,184.0,4.2,0.6,8.97,49.71,1.976,395.8074],
    [4546,1537383096,53.4906,-110.5833,791.1,162.1,184.2,4.6,0.3,9.55,49.71,1.974,395.912],
    [4547,1537383097,53.4899,-110.5833,790.4,161.4,184.1,4.4,0.7,9.04,49.97,1.974,395.2743],
    [4548,1537383098,53.4892,-110.5833,790.3,161.0,184.3,4.7,0.6,9.65,49.76,1.9755,395.5275],
    [4549,1537383099,53.4885,-110.5834,790.1,159.5,184.3,4.6,0.4,9.44,50.02,1.9755,396.3229],
    [4550,1537383100,53.4878,-110.5834,789.7,158.8,184.3,4.6,0.2,8.91,50.19,1.9738,394.2097],
    [4551,1537383101,53.4871,-110.5834,789.4,157.4,184.6,4.9,-0.3,9.11,50.15,1.9752,396.9462],
    [4552,1537383102,53.4864,-110.5834,788.8,156.0,184.6,4.7,-0.7,9.02,50.22,1.9735,396.8526],
    [4553,1537383103,53.4857,-110.5834,789.2,156.7,183.4,3.3,-0.2,9.54,49.97,1.9723,396.5378],
    [4554,1537383104,53.4851,-110.5834,790.4,157.3,183.3,3.4,0.4,9.07,50.3,1.9716,395.6866],
    [4555,1537383105,53.4844,-110.5835,791.5,158.5,183.4,3.2,0.5,9.18,50.4,1.9697,395.075],
    [4556,1537383106,53.4837,-110.5835,791.5,158.2,183.2,3.1,1.0,9.19,50.41,1.9707,395.075],
    [4557,1537383107,53.483,-110.5835,791.4,159.3,184.4,4.5,0.8,9.2,49.8,1.9713,396.03],
    [4558,1537383108,53.4823,-110.5835,792.7,164.1,184.4,4.5,0.7,9.06,49.48,1.9696,394.4227],
    [4559,1537383109,53.4816,-110.5835,794.6,170.4,184.2,4.7,0.8,8.45,49.42,1.9702,396.4445],
    [4560,1537383110,53.481,-110.5836,795.5,173.6,184.5,4.6,0.3,9.97,48.74,1.9711,395.1681],
    [4561,1537383111,53.4803,-110.5836,795.8,174.8,183.9,3.7,0.6,9.28,49.07,1.9713,395.811],
    [4562,1537383112,53.4796,-110.5836,796.0,176.9,185.6,6.0,0.8,8.93,48.8,1.9723,394.8712],
    [4563,1537383113,53.4789,-110.5836,795.0,176.0,185.6,5.9,0.6,8.74,48.97,1.974,395.8694],
    [4564,1537383114,53.4782,-110.5837,793.3,173.3,184.7,5.5,0.4,9.04,49.28,1.9752,395.6753],
    [4565,1537383115,53.4775,-110.5837,792.4,172.4,183.7,5.0,0.7,9.23,50.01,1.9743,396.8987],
    [4566,1537383116,53.4768,-110.5837,792.0,172.0,182.9,4.6,1.0,9.19,49.88,1.9746,396.0707],
    [4567,1537383117,53.4761,-110.5836,790.9,170.9,183.7,5.9,0.7,8.83,49.59,1.9758,396.3981],
    [4568,1537383118,53.4754,-110.5836,789.3,169.3,184.4,6.7,0.5,8.81,50.09,1.9727,396.3981],
    [4569,1537383119,53.4747,-110.5836,788.5,169.5,183.8,5.7,0.5,9.09,50.19,1.9698,395.6099],
    [4570,1537383120,53.4741,-110.5836,788.8,169.8,183.6,5.6,0.3,9.77,49.65,1.9643,395.5979],
    [4571,1537383121,53.4734,-110.5836,788.9,169.9,183.4,5.2,0.2,9.06,49.77,1.9659,395.5979],
    [4572,1537383122,53.4727,-110.5836,789.4,172.0,183.3,5.4,0.3,9.18,49.41,1.9703,395.7154],
    [4573,1537383123,53.472,-110.5836,789.9,173.9,183.6,5.6,0.9,9.67,48.59,1.9696,395.8583],
    [4574,1537383124,53.4713,-110.5836,789.8,174.1,183.7,5.6,0.8,9.72,47.78,1.9687,394.1904],
    [4575,1537383125,53.4706,-110.5836,789.9,174.8,183.9,5.4,0.1,8.85,48.47,1.9688,393.8129],
    [4576,1537383126,53.4699,-110.5836,790.3,176.2,183.7,4.8,-0.6,8.93,48.19,1.9678,395.3988],
    [4577,1537383127,53.4693,-110.5836,791.2,178.5,184.4,5.9,-0.9,9.55,47.11,1.9685,394.8294],
    [4578,1537383128,53.4686,-110.5836,791.8,183.3,185.4,6.8,-0.7,9.15,47.87,1.9705,396.5808],
    [4579,1537383129,53.4679,-110.5836,792.2,186.1,183.7,5.0,-0.4,9.14,47.79,1.9757,396.9994],
    [4580,1537383130,53.4672,-110.5836,792.6,189.6,185.0,6.7,-1.4,9.44,48.47,1.9774,392.2855],
    [4581,1537383131,53.4665,-110.5836,792.7,190.8,184.3,5.1,-1.0,9.07,48.59,1.9805,395.7124],
    [4582,1537383132,53.4658,-110.5836,790.6,187.6,182.6,3.3,0.3,8.54,48.87,1.9855,397.0653],
    [4583,1537383133,53.4651,-110.5836,787.9,185.0,184.5,5.4,0.8,8.61,49.22,1.9858,395.8098],
    [4584,1537383134,53.4645,-110.5836,786.4,184.1,183.6,4.1,0.3,9.12,49.69,1.9829,395.8098],
    [4585,1537383135,53.4638,-110.5836,787.0,186.9,182.9,3.5,-0.1,8.87,50.4,1.9825,396.0036],
    [4586,1537383136,53.4631,-110.5836,788.5,192.2,183.6,4.3,-0.7,9.21,50.38,1.9819,395.0824],
    [4587,1537383137,53.4624,-110.5836,788.9,194.5,183.7,4.4,-0.2,9.25,51.1,1.9836,396.2945],
    [4588,1537383138,53.4617,-110.5836,788.0,196.4,183.4,3.8,0.5,9.94,50.72,1.9835,395.1211],
    [4589,1537383139,53.461,-110.5836,787.5,198.8,183.2,3.5,0.7,9.19,51.26,1.9848,395.5703],
    [4590,1537383140,53.4603,-110.5836,787.7,201.7,183.3,3.3,0.3,9.22,51.46,1.9835,396.277],
    [4591,1537383141,53.4596,-110.5837,787.8,203.8,182.9,2.9,0.3,9.17,51.24,1.9831,396.7637],
    [4592,1537383142,53.4589,-110.5837,787.5,205.4,183.4,3.5,0.3,9.2,51.87,1.9853,396.2278],
    [4593,1537383143,53.4582,-110.5837,787.5,209.2,184.6,4.7,-0.4,8.94,51.23,1.9866,396.1481],
    [4594,1537383144,53.4576,-110.5837,788.2,213.7,184.8,4.5,-0.8,8.97,51.25,1.9868,396.4131],
    [4595,1537383145,53.4569,-110.5837,788.8,217.9,184.6,4.3,-0.5,9.11,51.31,1.9866,395.714],
    [4596,1537383146,53.4562,-110.5838,789.5,220.5,185.2,5.0,0.3,9.51,51.17,1.9867,396.4659],
    [4597,1537383147,53.4555,-110.5838,789.3,221.3,185.1,4.8,0.9,9.3,51.63,1.9865,396.1559],
    [4598,1537383148,53.4548,-110.5838,790.0,222.7,184.4,4.5,1.3,9.85,51.42,1.9861,395.2694],
    [4599,1537383149,53.4542,-110.5838,791.5,224.5,185.5,5.9,0.9,8.98,51.79,1.9857,395.7514],
    [4600,1537383150,53.4535,-110.5839,793.7,226.7,184.4,4.1,0.4,9.88,51.4,1.9864,395.7514],
    [4601,1537383151,53.4528,-110.5839,794.6,226.6,183.7,3.5,-1.2,9.66,51.23,1.9852,396.6992],
    [4602,1537383152,53.4521,-110.5839,793.8,222.5,185.2,4.4,-2.7,9.12,52.65,1.9849,396.6885],
    [4603,1537383153,53.4514,-110.584,792.2,217.7,184.3,3.1,-1.7,9.48,51.57,1.9833,395.8653],
    [4604,1537383154,53.4508,-110.584,789.5,210.0,186.2,5.0,-0.8,9.12,51.84,1.9811,396.1777],
    [4605,1537383155,53.4501,-110.584,787.4,204.5,186.2,4.7,-0.3,9.83,50.83,1.982,395.3659],
    [4606,1537383156,53.4494,-110.5841,786.1,198.7,185.8,4.3,-0.2,9.36,50.92,1.9838,395.3433],
    [4607,1537383157,53.4487,-110.5841,784.9,195.9,185.9,4.6,0.2,9.08,50.89,1.9847,393.8085],
    [4608,1537383158,53.448,-110.5842,783.6,193.6,185.2,4.0,0.0,8.8,50.75,1.9853,393.8085],
    [4609,1537383159,53.4474,-110.5842,782.8,193.5,185.5,4.8,-0.5,9.41,50.49,1.9853,395.8538],
    [4610,1537383160,53.4467,-110.5843,782.4,193.2,185.1,4.6,-0.5,9.14,50.84,1.9878,395.0422],
    [4611,1537383161,53.446,-110.5843,781.9,190.9,184.2,3.6,-0.1,9.96,50.42,1.9895,395.4827],
    [4612,1537383162,53.4453,-110.5843,781.0,189.0,183.7,3.4,1.2,9.32,50.75,1.9843,394.7489],
    [4613,1537383163,53.4447,-110.5844,779.4,187.1,184.4,4.4,1.9,9.2,50.98,1.9779,395.6467],
    [4614,1537383164,53.444,-110.5844,776.9,184.9,185.0,5.1,2.4,9.29,51.26,1.9772,395.9939],
    [4615,1537383165,53.4432,-110.5844,774.6,182.8,185.8,5.8,2.1,9.11,50.43,1.9773,394.8081],
    [4616,1537383166,53.4425,-110.5844,772.6,181.7,185.5,5.4,2.1,8.68,50.03,1.9772,393.6755],
    [4617,1537383167,53.4418,-110.5845,770.6,180.7,185.6,5.6,1.8,8.98,49.8,1.9777,395.4726],
    [4618,1537383168,53.4411,-110.5845,768.9,178.9,184.8,4.8,2.0,8.99,49.47,1.9783,395.4726],
    [4619,1537383169,53.4404,-110.5845,767.6,176.6,184.9,5.3,2.7,9.38,48.75,1.976,395.0668],
    [4620,1537383170,53.4397,-110.5846,766.0,173.4,185.2,6.1,3.1,9.09,49.03,1.9761,395.288],
    [4621,1537383171,53.4391,-110.5846,765.2,169.3,184.6,5.2,4.0,8.97,48.96,1.975,394.7227],
    [4622,1537383172,53.4383,-110.5846,764.5,167.5,184.0,4.8,3.1,8.88,48.75,1.973,394.5655],
    [4623,1537383173,53.4377,-110.5846,763.4,166.0,184.5,5.1,2.1,8.95,48.62,1.9719,393.1307],
    [4624,1537383174,53.4369,-110.5846,762.6,162.2,183.6,4.1,2.3,9.29,49.09,1.9692,394.2654],
    [4625,1537383175,53.4363,-110.5846,762.9,160.9,183.4,4.0,3.8,9.27,48.45,1.9701,393.0916],
    [4626,1537383176,53.4356,-110.5846,763.7,159.0,184.6,5.5,3.1,10.03,47.68,1.9828,394.2503],
    [4627,1537383177,53.4349,-110.5847,763.7,157.0,184.4,4.7,2.0,9.69,47.9,1.9725,393.5224],
    [4628,1537383178,53.4342,-110.5847,762.9,154.9,185.8,6.7,2.0,9.55,47.45,1.9701,394.1455],
    [4629,1537383179,53.4335,-110.5847,761.7,153.7,186.1,6.1,1.9,9.68,47.18,1.9713,394.1455],
    [4630,1537383180,53.4328,-110.5848,760.9,153.9,185.4,5.2,2.1,9.62,47.39,1.974,394.728],
    [4631,1537383181,53.4321,-110.5848,760.1,154.2,186.6,6.2,1.7,9.5,48.13,1.9744,393.8556],
    [4632,1537383182,53.4314,-110.5848,759.7,153.7,185.9,5.2,1.3,9.1,47.33,1.9717,394.9958],
    [4633,1537383183,53.4307,-110.5849,759.7,154.6,185.5,4.9,1.5,8.75,47.12,1.9691,392.2552],
    [4634,1537383184,53.43,-110.5849,760.5,155.5,185.0,4.6,1.6,9.6,46.99,1.9672,393.9232],
    [4635,1537383185,53.4293,-110.5849,761.1,155.6,184.7,4.6,1.2,9.4,46.91,1.9659,394.6989],
    [4636,1537383186,53.4286,-110.585,761.0,154.1,184.5,4.8,1.1,9.35,46.87,1.9659,394.3499],
    [4637,1537383187,53.4279,-110.585,760.4,151.4,184.5,5.2,1.0,9.43,46.55,1.9661,392.8818],
    [4638,1537383188,53.4272,-110.585,760.7,150.6,184.7,6.0,1.1,9.67,45.74,1.9671,394.0677],
    [4639,1537383189,53.4265,-110.585,761.2,150.3,184.1,5.6,1.0,10.16,45.67,1.9635,393.9741],
    [4640,1537383190,53.4259,-110.585,761.8,150.7,183.1,4.7,0.9,9.49,46.5,1.9634,393.0995],
    [4641,1537383191,53.4252,-110.585,761.9,150.9,183.4,5.0,0.2,8.94,45.75,1.9639,393.5355],
    [4642,1537383192,53.4245,-110.585,761.8,150.8,183.1,4.6,-0.4,9.26,45.57,1.9632,392.7496],
    [4643,1537383193,53.4238,-110.585,762.1,151.8,183.8,5.3,-0.1,9.42,45.5,1.9631,394.1423],
    [4644,1537383194,53.4231,-110.585,762.5,152.2,183.5,4.8,-0.1,9.51,45.25,1.9644,393.8973],
    [4645,1537383195,53.4224,-110.585,762.2,151.3,183.2,4.4,0.1,9.43,45.33,1.9663,394.3414],
    [4646,1537383196,53.4217,-110.585,761.2,150.2,183.5,4.7,-0.4,9.43,45.96,1.9665,394.1059],
    [4647,1537383197,53.421,-110.585,761.1,148.0,183.5,4.8,-0.1,9.34,45.46,1.968,394.7261],
    [4648,1537383198,53.4204,-110.585,761.1,147.1,184.7,6.1,0.3,8.82,45.16,1.9736,394.7763],
    [4649,1537383199,53.4197,-110.585,761.4,146.7,184.9,6.1,0.0,9.57,45.19,1.9738,394.3553],
    [4650,1537383200,53.419,-110.585,761.6,146.5,184.5,5.6,-0.2,9.46,46.15,1.9735,395.4293],
    [4651,1537383201,53.4183,-110.585,762.1,147.4,184.4,5.4,0.1,9.89,46.17,1.9744,394.413],
    [4652,1537383202,53.4176,-110.585,762.7,148.7,184.1,5.2,0.1,9.53,47.23,1.9738,394.2605],
    [4653,1537383203,53.4169,-110.585,763.0,150.8,184.8,6.0,0.5,9.67,47.36,1.9727,394.4433],
    [4654,1537383204,53.4162,-110.585,763.0,151.7,183.7,4.6,0.9,9.46,48.31,1.9717,393.2615],
    [4655,1537383205,53.4156,-110.585,762.8,151.6,183.8,4.9,0.9,9.5,47.73,1.9723,393.2615],
    [4656,1537383206,53.4149,-110.585,762.2,151.9,184.1,5.2,0.4,9.46,47.56,1.9732,393.8327],
    [4657,1537383207,53.4142,-110.585,761.3,151.2,183.9,4.9,-0.2,10.09,47.36,1.9686,394.3766],
    [4658,1537383208,53.4135,-110.585,761.0,149.9,183.8,4.9,-0.5,10.0,47.64,1.9677,394.6632],
    [4659,1537383209,53.4128,-110.585,760.7,149.7,184.1,5.2,-0.8,9.83,47.52,1.965,394.6632],
    [4660,1537383210,53.4121,-110.585,760.6,147.6,184.1,5.3,-0.3,9.19,47.26,1.9657,393.4875],
    [4661,1537383211,53.4114,-110.585,761.5,148.5,184.4,5.7,-0.4,8.87,46.76,1.9725,395.2558],
    [4662,1537383212,53.4107,-110.585,762.7,149.7,184.4,5.5,0.0,9.56,46.21,1.9754,395.1792],
    [4663,1537383213,53.4101,-110.585,763.1,151.2,184.1,5.2,0.3,9.45,47.14,1.9722,394.0665],
    [4664,1537383214,53.4094,-110.5851,762.6,149.5,183.9,5.1,1.3,9.53,46.86,1.968,394.5387],
    [4665,1537383215,53.4087,-110.5851,762.8,147.8,184.2,5.7,1.4,9.02,47.33,1.9652,393.6519],
    [4666,1537383216,53.408,-110.5851,763.3,145.3,184.1,5.5,1.6,8.88,47.32,1.9654,393.6612],
    [4667,1537383217,53.4073,-110.5851,763.3,143.3,184.0,5.4,0.9,9.05,47.03,1.97,394.8352],
    [4668,1537383218,53.4066,-110.5851,763.1,140.4,184.3,5.8,1.8,9.55,46.81,1.9698,394.8352],
    [4669,1537383219,53.4059,-110.5851,762.7,138.6,184.2,5.9,2.6,9.71,46.86,1.9713,394.1193],
    [4670,1537383220,53.4052,-110.5851,762.4,138.4,183.6,5.2,2.5,9.92,46.56,1.9717,392.6651],
    [4671,1537383221,53.4045,-110.5851,762.4,139.4,183.3,4.9,2.4,9.0,46.83,1.971,393.272],
    [4672,1537383222,53.4038,-110.585,762.5,141.8,183.0,4.3,2.2,9.0,46.78,1.9753,395.8737],
    [4673,1537383223,53.4031,-110.585,761.5,141.5,182.5,3.5,1.8,9.51,47.07,1.9744,395.3954],
    [4674,1537383224,53.4024,-110.585,760.9,139.2,183.6,4.4,1.4,9.53,47.29,1.9718,393.0871],
    [4675,1537383225,53.4018,-110.5851,760.5,137.4,183.7,4.1,1.3,9.51,47.54,1.9715,392.0375],
    [4676,1537383226,53.4011,-110.5851,761.0,137.8,183.9,4.3,0.7,9.09,47.64,1.97,393.4747],
    [4677,1537383227,53.4005,-110.5851,761.2,138.2,183.8,4.2,0.2,9.6,48.02,1.9684,395.5235],
    [4678,1537383228,53.3998,-110.5851,760.6,138.5,183.9,3.9,-0.4,9.74,48.03,1.9694,394.0366],
    [4679,1537383229,53.399,-110.5851,761.9,142.5,183.7,3.9,0.4,9.47,47.22,1.9726,394.5253],
    [4680,1537383230,53.3983,-110.5851,763.1,146.4,184.9,5.2,1.0,9.52,47.89,1.9724,394.4006],
    [4681,1537383231,53.3977,-110.5852,763.6,151.0,183.8,3.9,-0.1,9.94,47.73,1.9708,393.2606],
    [4682,1537383232,53.397,-110.5852,763.7,152.7,183.9,4.1,-0.1,9.09,47.93,1.9711,393.413],
    [4683,1537383233,53.3963,-110.5852,763.4,155.5,184.3,4.5,0.3,9.6,47.76,1.9723,393.5807],
    [4684,1537383234,53.3956,-110.5852,763.8,155.8,184.1,4.0,-0.4,9.67,48.82,1.9737,393.5777],
    [4685,1537383235,53.3949,-110.5852,764.1,155.1,184.0,3.7,-1.6,9.54,48.46,1.973,395.0025],
    [4686,1537383236,53.3943,-110.5853,764.4,155.4,184.8,4.8,-2.1,9.89,48.36,1.9716,393.9334],
    [4687,1537383237,53.3936,-110.5853,764.8,154.5,184.7,4.5,-1.8,9.62,48.59,1.974,395.4795],
    [4688,1537383238,53.3929,-110.5853,765.2,153.2,184.1,4.2,-1.5,9.56,49.17,1.9738,395.1274],
    [4689,1537383239,53.3922,-110.5853,766.2,153.2,184.9,5.4,-1.7,9.71,48.64,1.9718,392.7173],
    [4690,1537383240,53.3915,-110.5853,767.4,154.4,185.5,6.2,-1.6,9.27,49.27,1.9719,394.1508],
    [4691,1537383241,53.3909,-110.5853,768.5,155.8,184.8,5.7,-0.7,9.55,49.34,1.9722,393.9148],
    [4692,1537383242,53.3902,-110.5853,770.0,160.1,184.4,5.8,1.4,9.5,49.24,1.9729,394.2298],
    [4693,1537383243,53.3895,-110.5853,771.4,162.4,182.7,4.2,2.5,9.5,49.64,1.9712,394.0438],
    [4694,1537383244,53.3888,-110.5853,772.1,164.1,182.3,5.1,2.9,9.88,48.92,1.9733,394.7393],
    [4695,1537383245,53.3881,-110.5853,772.6,164.6,182.1,6.3,1.9,9.54,49.36,1.9732,394.6681],
    [4696,1537383246,53.3875,-110.5852,772.4,164.4,179.9,5.9,1.0,10.24,49.17,1.972,394.5912],
    [4697,1537383247,53.3868,-110.5851,772.4,164.4,177.8,6.5,1.3,9.4,49.31,1.9703,394.5691],
    [4698,1537383248,53.3862,-110.5849,773.6,165.6,174.1,5.0,1.8,9.63,49.34,1.9694,394.8221],
    [4699,1537383249,53.3854,-110.5847,774.9,166.9,170.9,5.2,1.6,9.61,49.86,1.9699,394.5556],
    [4700,1537383250,53.3848,-110.5844,774.8,166.8,169.5,6.2,1.5,9.39,49.33,1.9715,393.3217],
    [4701,1537383251,53.3841,-110.5841,773.7,164.8,166.2,5.8,1.4,9.18,49.22,1.9699,393.4854],
    [4702,1537383252,53.3834,-110.5837,772.7,161.4,163.6,6.1,1.5,9.68,48.64,1.9692,394.5941],
    [4703,1537383253,53.3828,-110.5832,772.2,157.5,160.8,6.4,1.5,9.58,49.25,1.9692,392.6837],
    [4704,1537383254,53.3822,-110.5827,772.2,153.1,157.8,6.5,1.3,9.55,48.74,1.9704,393.9393],
    [4705,1537383255,53.3816,-110.5822,772.5,152.5,154.8,6.5,1.3,9.55,48.77,1.9712,394.9706],
    [4706,1537383256,53.3809,-110.5815,772.7,152.7,151.8,6.4,1.6,9.59,49.08,1.9698,394.2012],
    [4707,1537383257,53.3804,-110.5809,773.2,154.2,148.6,6.1,1.3,9.17,48.36,1.9705,394.0077],
    [4708,1537383258,53.3798,-110.5802,774.7,157.7,145.1,6.1,0.2,9.56,48.97,1.9699,394.7916],
    [4709,1537383259,53.3792,-110.5794,775.1,159.1,142.5,5.9,0.9,9.89,48.46,1.9692,394.7801],
    [4710,1537383260,53.3787,-110.5786,775.7,160.7,139.0,4.9,1.6,9.98,48.51,1.9687,394.8758],
    [4711,1537383261,53.3782,-110.5777,776.3,163.2,136.0,4.7,1.9,9.67,48.74,1.9683,394.169],
    [4712,1537383262,53.3777,-110.5768,777.0,165.0,132.9,4.5,1.7,9.54,48.52,1.971,394.1126],
    [4713,1537383263,53.3773,-110.5759,777.0,165.0,130.2,4.5,1.7,9.41,48.9,1.9705,393.4551],
    [4714,1537383264,53.3769,-110.5749,776.8,163.7,127.1,4.7,1.5,9.2,48.59,1.9684,393.4214],
    [4715,1537383265,53.3765,-110.5739,777.1,163.2,123.6,4.4,1.1,9.7,48.34,1.9682,394.4149],
    [4716,1537383266,53.3761,-110.5728,777.7,161.7,121.0,5.2,1.7,9.74,48.08,1.9649,393.1782],
    [4717,1537383267,53.3758,-110.5718,777.9,160.9,118.3,5.6,1.6,9.64,48.26,1.9645,393.0428],
    [4718,1537383268,53.3755,-110.5707,777.7,159.8,114.4,5.5,0.9,9.53,47.86,1.959,392.752],
    [4719,1537383269,53.3753,-110.5695,777.9,157.6,111.7,5.5,1.7,9.56,47.86,1.9575,393.0958],
    [4720,1537383270,53.3751,-110.5685,778.2,156.6,109.6,5.7,2.0,10.1,46.57,1.9549,392.3314],
    [4721,1537383271,53.3749,-110.5672,778.2,155.5,106.0,5.7,1.5,9.58,46.72,1.9616,392.2949],
    [4722,1537383272,53.3747,-110.566,778.6,156.7,102.8,5.0,1.0,9.71,45.88,1.9663,391.64],
    [4723,1537383273,53.3746,-110.5649,779.3,157.3,100.8,5.1,1.3,9.86,45.86,1.9663,394.9891],
    [4724,1537383274,53.3745,-110.5638,780.9,158.9,98.3,5.3,0.4,9.06,45.76,1.9664,388.928],
    [4725,1537383275,53.3744,-110.5625,782.9,161.3,95.7,4.9,-0.5,9.61,46.2,1.9698,391.7109],
    [4726,1537383276,53.3743,-110.5613,784.1,162.4,95.4,5.1,0.3,10.21,46.27,1.968,395.4909],
    [4727,1537383277,53.3743,-110.5601,784.7,161.9,95.5,4.7,1.1,9.4,47.41,1.9687,393.8082],
    [4728,1537383278,53.3742,-110.5589,787.0,164.3,95.2,4.8,1.2,10.25,47.33,1.9705,395.5493],
    [4729,1537383279,53.3742,-110.5576,789.7,168.0,94.7,4.6,0.7,9.57,48.01,1.9709,393.3396],
    [4730,1537383280,53.3741,-110.5565,791.6,170.6,94.5,4.6,0.6,9.52,48.75,1.9695,393.3396],
    [4731,1537383281,53.3741,-110.5553,791.8,170.8,94.2,4.9,0.3,10.06,48.15,1.9691,393.7487],
    [4732,1537383282,53.374,-110.5541,791.5,170.6,92.8,4.9,-1.1,9.56,49.33,1.9699,394.9994],
    [4733,1537383283,53.374,-110.5529,791.2,168.1,93.2,4.8,-0.5,9.07,48.99,1.9702,393.551],
    [4734,1537383284,53.374,-110.5517,791.2,167.3,93.5,5.3,-0.2,9.37,48.91,1.97,393.5985],
    [4735,1537383285,53.3739,-110.5505,792.3,167.3,92.9,5.9,-1.1,9.35,48.87,1.9656,393.065],
    [4736,1537383286,53.3739,-110.5493,792.4,166.4,92.6,5.6,-1.4,9.74,48.63,1.9641,394.1723],
    [4737,1537383287,53.3738,-110.5481,791.7,165.8,93.5,5.3,-0.4,9.46,49.13,1.9653,393.5059],
    [4738,1537383288,53.3738,-110.5469,791.1,165.1,94.0,5.5,-0.2,9.51,48.84,1.9679,394.4409],
    [4739,1537383289,53.3737,-110.5457,790.7,165.7,93.9,5.3,-0.5,9.72,48.51,1.9694,393.3547],
    [4740,1537383290,53.3737,-110.5444,791.0,167.0,94.3,3.9,0.1,9.24,48.14,1.9726,394.8149],
    [4741,1537383291,53.3736,-110.5432,791.4,169.4,94.7,3.1,1.0,9.71,48.54,1.9727,394.8149],
    [4742,1537383292,53.3736,-110.542,791.6,170.6,95.2,3.5,1.9,9.49,48.92,1.9705,394.2203],
    [4743,1537383293,53.3735,-110.5408,792.1,172.1,94.4,4.6,1.7,9.15,48.71,1.9735,394.3313],
    [4744,1537383294,53.3735,-110.5396,794.0,174.0,93.4,5.0,1.0,9.72,49.39,1.9718,394.7425],
    [4745,1537383295,53.3735,-110.5384,795.4,176.5,92.4,5.1,0.0,9.16,49.0,1.9697,395.4223],
    [4746,1537383296,53.3734,-110.5372,795.3,177.4,92.0,5.0,-0.4,9.22,48.96,1.971,394.8921],
    [4747,1537383297,53.3734,-110.536,794.3,176.3,92.3,4.5,-0.2,9.26,49.18,1.9737,393.3408],
    [4748,1537383298,53.3734,-110.5347,793.8,176.0,91.7,3.8,-1.6,9.71,49.42,1.9723,393.6306],
    [4749,1537383299,53.3734,-110.5335,792.5,174.6,92.6,3.6,-0.9,9.27,49.71,1.9725,393.6901],
    [4750,1537383300,53.3733,-110.5323,791.2,175.7,93.5,3.2,-0.3,9.06,49.69,1.9726,394.0872],
    [4751,1537383301,53.3733,-110.5311,790.8,177.6,93.3,3.5,-1.1,9.48,49.43,1.9729,393.478],
    [4752,1537383302,53.3732,-110.5299,791.5,179.2,93.3,3.9,-0.8,9.76,49.49,1.9746,393.4678],
    [4753,1537383303,53.3732,-110.5286,791.3,179.3,93.9,4.7,0.0,9.9,49.28,1.9768,396.5558],
    [4754,1537383304,53.3731,-110.5274,791.7,181.7,93.4,3.6,0.0,9.41,49.69,1.977,394.7632],
    [4755,1537383305,53.3731,-110.5262,792.8,183.9,93.8,3.0,0.7,9.47,49.77,1.9774,394.8861],
    [4756,1537383306,53.373,-110.525,793.7,185.3,93.6,3.5,0.7,9.37,50.12,1.976,393.8038],
    [4757,1537383307,53.373,-110.5238,793.4,186.4,94.4,4.5,1.7,9.29,50.33,1.9754,393.9665],
    [4758,1537383308,53.373,-110.5226,792.0,185.1,94.3,5.4,1.5,9.25,50.07,1.9751,395.0915],
    [4759,1537383309,53.3729,-110.5213,790.5,181.5,94.4,5.6,1.7,10.1,50.01,1.9742,394.2105],
    [4760,1537383310,53.3729,-110.5201,789.4,179.4,94.3,5.3,1.7,9.77,49.76,1.9751,394.0651],
    [4761,1537383311,53.3729,-110.5189,789.5,178.5,93.5,5.2,1.1,9.28,50.31,1.9759,393.0425],
    [4762,1537383312,53.3728,-110.5177,790.0,177.0,93.6,5.0,1.3,9.03,50.31,1.9766,393.0425],
    [4763,1537383313,53.3728,-110.5164,790.4,176.4,94.4,5.0,2.0,9.62,49.79,1.9767,392.9137],
    [4764,1537383314,53.3728,-110.5152,790.5,175.2,94.1,4.6,1.0,9.53,50.12,1.9755,393.4617],
    [4765,1537383315,53.3727,-110.514,790.7,174.6,93.8,4.5,0.4,8.91,50.47,1.978,394.5575],
    [4766,1537383316,53.3727,-110.5128,790.6,173.3,94.0,4.9,0.5,9.39,50.61,1.9769,395.9949],
    [4767,1537383317,53.3726,-110.5116,790.3,171.5,93.3,4.9,-0.2,9.23,50.53,1.9761,395.0971],
    [4768,1537383318,53.3726,-110.5103,790.2,169.9,93.4,4.9,0.4,8.83,50.5,1.9734,393.5248],
    [4769,1537383319,53.3726,-110.5091,790.1,168.8,92.8,5.4,-0.2,9.18,50.46,1.9774,395.3641],
    [4770,1537383320,53.3725,-110.5079,790.2,168.2,92.4,5.7,-0.2,9.23,50.65,1.9766,395.0131],
    [4771,1537383321,53.3725,-110.5067,789.7,166.8,92.6,4.7,0.4,9.11,50.46,1.9761,394.6559],
    [4772,1537383322,53.3725,-110.5054,790.0,165.0,92.4,4.4,0.5,9.11,50.52,1.973,394.6294],
    [4773,1537383323,53.3724,-110.5042,791.2,167.2,92.6,4.9,0.7,9.8,50.43,1.9742,394.2407],
    [4774,1537383324,53.3724,-110.503,791.8,168.8,92.5,4.9,0.3,9.38,50.62,1.9712,393.9246],
    [4775,1537383325,53.3724,-110.5018,791.4,169.6,92.3,4.9,0.1,9.29,51.03,1.9716,392.1331],
    [4776,1537383326,53.3724,-110.5006,791.0,170.0,92.5,4.9,0.4,9.8,50.09,1.9716,392.9123],
    [4777,1537383327,53.3723,-110.4994,791.0,169.8,92.5,5.1,0.1,8.95,50.0,1.9713,394.5401],
    [4778,1537383328,53.3723,-110.4982,791.5,169.7,92.2,5.3,-0.4,9.81,49.29,1.9699,393.893],
    [4779,1537383329,53.3723,-110.497,791.5,169.0,92.7,5.5,0.1,9.3,49.38,1.9729,393.9105],
    [4780,1537383330,53.3722,-110.4958,791.5,170.5,92.4,5.6,-0.5,9.68,48.94,1.9731,394.3346],
    [4781,1537383331,53.3722,-110.4946,791.3,172.4,92.7,5.6,-0.2,9.32,49.27,1.9743,394.962],
    [4782,1537383332,53.3722,-110.4934,791.1,175.2,93.1,5.5,0.2,9.47,49.17,1.9756,393.81],
    [4783,1537383333,53.3721,-110.4922,791.0,177.0,93.0,5.4,0.0,8.87,49.55,1.9742,393.1062],
    [4784,1537383334,53.3721,-110.491,790.5,178.5,93.1,5.3,0.1,9.26,49.73,1.9712,393.8965],
    [4785,1537383335,53.3721,-110.4897,790.2,179.2,93.1,5.3,0.0,9.27,49.85,1.9718,394.3365],
    [4786,1537383336,53.372,-110.4885,790.8,179.8,93.3,5.5,0.0,9.51,49.66,1.9736,394.3365],
    [4787,1537383337,53.372,-110.4873,792.2,181.2,93.2,5.5,-0.1,9.41,49.67,1.9762,394.7828],
    [4788,1537383338,53.372,-110.4861,793.0,182.0,93.6,4.9,0.6,9.92,49.49,1.9774,393.4938],
    [4789,1537383339,53.3719,-110.4849,793.0,183.0,93.8,4.9,1.1,9.63,49.81,1.977,393.4938],
    [4790,1537383340,53.3719,-110.4837,792.9,184.2,93.9,5.3,1.3,9.32,50.89,1.9771,394.4096],
    [4791,1537383341,53.3719,-110.4825,792.3,185.3,93.9,5.4,1.2,8.8,50.37,1.9754,394.1692],
    [4792,1537383342,53.3718,-110.4812,792.1,185.0,94.0,5.4,1.0,9.42,50.11,1.977,394.5252],
    [4793,1537383343,53.3718,-110.48,793.0,184.8,93.6,5.0,0.5,9.41,50.22,1.9762,394.5415],
    [4794,1537383344,53.3717,-110.4788,793.4,182.4,93.8,4.5,0.8,9.07,50.96,1.9734,393.7367],
    [4795,1537383345,53.3717,-110.4776,793.2,179.1,93.4,4.4,0.3,8.52,50.62,1.9728,393.7236],
    [4796,1537383346,53.3717,-110.4764,792.5,174.4,93.6,4.5,0.7,9.26,50.33,1.9727,394.6274],
    [4797,1537383347,53.3716,-110.4751,790.8,168.1,93.5,5.0,0.9,10.03,50.1,1.9701,393.5005],
    [4798,1537383348,53.3716,-110.4739,790.3,163.3,92.6,5.2,0.2,9.3,50.49,1.9724,394.8281],
    [4799,1537383349,53.3716,-110.4727,791.0,159.5,92.1,5.3,0.1,9.66,49.22,1.9736,394.8281],
    [4800,1537383350,53.3715,-110.4715,791.2,158.9,92.5,5.1,0.7,9.72,48.91,1.9735,393.7171],
    [4801,1537383351,53.3715,-110.4702,790.6,162.0,92.9,4.7,1.0,9.23,49.93,1.9742,393.5091],
    [4802,1537383352,53.3715,-110.469,791.7,167.5,92.3,5.4,0.3,9.32,50.05,1.9743,394.5559],
    [4803,1537383353,53.3715,-110.4678,793.4,171.5,91.0,5.4,-0.3,9.79,49.06,1.9744,395.2226],
    [4804,1537383354,53.3715,-110.4666,793.8,171.0,90.0,5.2,-0.2,9.72,49.28,1.9744,395.4934],
    [4805,1537383355,53.3715,-110.4653,793.2,172.6,87.5,5.0,-0.6,9.08,49.33,1.9749,394.6482],
    [4806,1537383356,53.3715,-110.4641,792.8,173.2,84.8,4.7,-0.3,8.55,49.68,1.9751,393.1154],
    [4807,1537383357,53.3716,-110.4629,792.2,168.8,81.4,4.5,-1.2,9.1,49.83,1.9744,393.1745],
    [4808,1537383358,53.3717,-110.4617,791.5,162.5,78.7,4.6,-0.6,9.66,49.57,1.9775,395.0089],
    [4809,1537383359,53.3718,-110.4606,791.2,156.6,76.0,4.5,-0.1,9.57,50.4,1.9789,394.207],
    [4810,1537383360,53.372,-110.4593,791.2,148.8,73.4,3.1,0.6,9.03,50.26,1.9812,393.8138],
    [4811,1537383361,53.3723,-110.4581,791.8,144.4,70.8,3.0,1.6,9.31,50.18,1.9829,394.1177],
    [4812,1537383362,53.3725,-110.457,791.9,142.6,67.7,3.0,0.9,9.7,50.28,1.9832,392.1185],
    [4813,1537383363,53.3728,-110.4559,790.8,140.5,63.5,3.2,-0.1,9.32,51.57,1.9828,394.1352],
    [4814,1537383364,53.3732,-110.4548,791.3,140.4,61.3,3.5,0.3,8.82,51.22,1.9826,394.8614],
    [4815,1537383365,53.3735,-110.4537,792.1,140.1,57.4,4.6,-1.9,9.02,51.29,1.9821,394.3142],
    [4816,1537383366,53.3739,-110.4527,793.1,140.1,56.7,4.1,0.0,9.95,50.95,1.9833,394.7966],
    [4817,1537383367,53.3743,-110.4516,793.7,142.3,56.7,3.4,0.7,9.0,51.62,1.985,394.3405],
    [4818,1537383368,53.3747,-110.4506,793.3,145.0,55.8,3.0,-0.3,9.21,52.18,1.986,393.6936],
    [4819,1537383369,53.375,-110.4496,793.1,152.4,55.9,2.7,0.2,8.96,52.21,1.9862,394.7677],
    [4820,1537383370,53.3755,-110.4486,792.2,153.2,56.0,3.2,0.5,9.31,52.16,1.985,395.3759],
    [4821,1537383371,53.3759,-110.4475,791.4,154.6,55.3,3.8,0.0,9.05,52.47,1.9865,395.1562],
    [4822,1537383372,53.3763,-110.4465,791.3,153.3,55.2,3.8,0.0,9.3,52.23,1.9871,394.764],
    [4823,1537383373,53.3767,-110.4455,791.5,148.9,55.5,3.8,0.4,8.98,52.21,1.9851,394.5153],
    [4824,1537383374,53.3771,-110.4445,791.8,146.8,55.7,3.7,0.7,9.45,52.12,1.9862,395.4535],
    [4825,1537383375,53.3775,-110.4434,791.6,145.1,55.8,3.8,1.0,9.41,52.29,1.9878,394.9192],
    [4826,1537383376,53.3778,-110.4425,791.4,138.7,55.4,4.0,0.6,8.86,52.58,1.9881,394.9192],
    [4827,1537383377,53.3783,-110.4414,791.4,134.6,55.5,3.7,0.8,9.37,52.45,1.9876,394.7174],
    [4828,1537383378,53.3787,-110.4404,791.6,131.6,55.6,4.2,1.4,9.45,52.19,1.9872,391.9034],
    [4829,1537383379,53.3791,-110.4394,791.2,130.4,55.1,4.4,0.9,9.76,52.41,1.985,394.9681],
    [4830,1537383380,53.3795,-110.4384,790.8,130.9,54.8,3.9,0.2,9.23,53.06,1.9852,395.4239],
    [4831,1537383381,53.3799,-110.4374,791.1,130.1,55.1,3.4,0.5,9.23,52.63,1.9848,394.6103],
    [4832,1537383382,53.3803,-110.4364,791.9,128.9,55.7,3.3,1.5,9.5,52.45,1.9841,394.2591],
    [4833,1537383383,53.3807,-110.4353,792.3,128.3,55.4,3.1,1.7,9.2,53.22,1.9839,396.2048],
    [4834,1537383384,53.3811,-110.4344,791.9,127.9,54.5,3.2,1.9,9.23,52.71,1.9837,395.1022],
    [4835,1537383385,53.3815,-110.4334,791.5,127.8,52.5,3.3,2.1,9.3,52.45,1.9846,394.9221],
    [4836,1537383386,53.382,-110.4324,791.4,129.4,51.1,3.0,3.0,9.05,52.25,1.9819,394.9221],
    [4837,1537383387,53.3824,-110.4315,790.8,130.0,48.6,3.0,3.0,9.08,52.02,1.9801,393.7869],
    [4838,1537383388,53.3829,-110.4306,790.6,131.6,45.4,2.4,2.2,8.96,52.44,1.9799,393.7891],
    [4839,1537383389,53.3834,-110.4298,790.3,133.9,42.3,2.3,2.0,9.28,51.67,1.9791,395.5189],
    [4840,1537383390,53.384,-110.429,789.9,135.2,39.0,2.5,2.0,9.41,51.47,1.9787,394.0042],
    [4841,1537383391,53.3845,-110.4283,789.8,136.8,36.0,2.6,1.7,9.47,50.95,1.9771,394.6042],
    [4842,1537383392,53.3851,-110.4276,789.5,136.5,32.4,2.6,1.0,9.11,50.87,1.9777,393.8992],
    [4843,1537383393,53.3857,-110.427,789.6,135.6,29.6,2.3,1.3,8.69,50.7,1.981,393.4023],
    [4844,1537383394,53.3864,-110.4264,790.1,135.1,26.4,2.9,1.6,9.11,50.57,1.9797,393.5536],
    [4845,1537383395,53.387,-110.4259,790.5,136.5,22.6,3.8,1.5,9.88,50.12,1.9784,393.3482],
    [4846,1537383396,53.3877,-110.4254,791.2,138.1,19.5,3.3,1.3,9.21,50.67,1.9778,394.3331],
    [4847,1537383397,53.3883,-110.425,792.0,139.0,16.4,3.2,1.0,9.22,50.68,1.9793,392.7391],
    [4848,1537383398,53.389,-110.4247,792.5,137.2,13.0,3.7,1.1,9.59,50.35,1.9792,394.2677],
    [4849,1537383399,53.3896,-110.4244,793.5,135.5,10.4,3.0,1.3,9.12,50.73,1.9798,393.417],
    [4850,1537383400,53.3903,-110.4242,794.7,135.7,6.9,3.7,1.6,9.05,50.55,1.9795,394.1715],
    [4851,1537383401,53.391,-110.424,795.9,136.9,4.4,3.2,2.1,9.65,50.42,1.9774,390.8947],
    [4852,1537383402,53.3917,-110.4239,797.0,138.0,362.3,3.3,2.1,9.13,50.69,1.9793,394.7854],
    [4853,1537383403,53.3924,-110.4238,798.1,139.1,359.6,3.9,0.8,9.15,51.03,1.9787,394.838],
    [4854,1537383404,53.3931,-110.4238,799.6,140.6,357.2,4.8,0.6,8.98,50.62,1.9774,394.4025],
    [4855,1537383405,53.3937,-110.4238,801.2,143.2,355.9,4.8,0.7,9.42,50.34,1.9773,394.3938],
    [4856,1537383406,53.3944,-110.4238,802.7,146.6,354.7,5.0,0.5,9.19,51.3,1.9774,393.3094],
    [4857,1537383407,53.3951,-110.4238,804.0,151.7,354.6,4.7,0.3,8.69,50.56,1.9753,392.4258],
    [4858,1537383408,53.3958,-110.4239,805.8,154.7,353.9,5.1,0.3,9.12,50.56,1.9762,392.5309],
    [4859,1537383409,53.3965,-110.4239,807.2,156.9,355.5,3.1,0.5,9.33,51.05,1.9735,394.2701],
    [4860,1537383410,53.3971,-110.424,807.0,157.0,355.1,4.0,0.8,8.68,50.44,1.9705,393.078],
    [4861,1537383411,53.3978,-110.424,806.6,156.5,354.0,5.2,1.0,9.2,50.15,1.9713,392.757],
    [4862,1537383412,53.3985,-110.424,806.3,155.6,354.4,5.0,1.6,9.27,49.75,1.9733,393.8082],
    [4863,1537383413,53.3992,-110.4241,806.2,153.4,353.9,6.0,2.1,8.54,49.28,1.9748,393.1331],
    [4864,1537383414,53.3999,-110.4241,806.2,154.5,354.6,5.7,1.7,9.41,48.97,1.9759,394.7493],
    [4865,1537383415,53.4005,-110.4241,806.8,156.7,355.4,5.5,1.8,9.9,48.4,1.9757,394.1487],
    [4866,1537383416,53.4012,-110.4241,808.0,161.0,355.4,5.8,2.1,9.37,48.78,1.9734,393.196],
    [4867,1537383417,53.4019,-110.4241,809.2,160.8,356.3,5.0,2.1,8.97,49.23,1.9722,393.111],
    [4868,1537383418,53.4026,-110.4241,809.8,157.4,356.9,4.9,2.0,9.53,48.75,1.9724,394.048],
    [4869,1537383419,53.4032,-110.4241,810.3,156.5,356.7,5.3,1.8,9.45,49.63,1.9725,394.3308],
    [4870,1537383420,53.4039,-110.4241,811.4,159.7,356.9,5.1,2.3,8.81,49.01,1.9745,394.5855],
    [4871,1537383421,53.4046,-110.424,813.6,164.3,357.8,4.1,2.7,9.14,48.94,1.9745,394.258],
    [4872,1537383422,53.4053,-110.424,814.8,167.3,357.8,4.4,3.1,8.6,49.24,1.9743,393.8775],
    [4873,1537383423,53.4059,-110.424,815.4,169.4,356.6,5.6,2.9,9.05,49.38,1.9766,394.9842],
    [4874,1537383424,53.4066,-110.424,815.4,169.3,357.1,4.8,2.4,9.24,49.52,1.9745,394.1072],
    [4875,1537383425,53.4073,-110.424,815.7,174.1,357.4,4.3,2.5,9.2,49.54,1.9757,394.3155],
    [4876,1537383426,53.4079,-110.424,816.8,177.9,358.1,3.3,1.9,9.06,50.16,1.9775,394.3029],
    [4877,1537383427,53.4086,-110.4239,817.4,179.4,358.7,2.5,2.1,9.12,49.65,1.9756,395.2284],
    [4878,1537383428,53.4093,-110.4239,818.0,180.9,357.4,3.7,3.2,9.3,49.31,1.9768,393.5955],
    [4879,1537383429,53.41,-110.4239,818.6,181.7,356.9,3.5,2.7,9.12,49.98,1.9777,394.3325],
    [4880,1537383430,53.4107,-110.4239,819.2,183.5,356.7,3.4,2.0,9.05,50.48,1.9791,395.4906],
    [4881,1537383431,53.4113,-110.424,820.1,185.8,355.8,3.8,1.0,9.0,50.19,1.9863,393.5062],
    [4882,1537383432,53.412,-110.424,820.9,188.6,355.4,4.0,0.7,8.82,50.65,1.9866,393.5586],
    [4883,1537383433,53.4127,-110.424,821.6,191.0,355.9,3.0,0.0,8.88,51.07,1.988,393.0757],
    [4884,1537383434,53.4134,-110.4241,822.0,193.9,357.0,1.7,0.9,9.07,51.58,1.9893,393.4723],
    [4885,1537383435,53.414,-110.4241,822.0,194.0,356.3,2.4,1.4,9.01,51.43,1.9917,393.7373],
    [4886,1537383436,53.4147,-110.4241,821.1,192.4,356.4,2.2,0.3,9.08,52.13,1.9935,395.2257],
    [4887,1537383437,53.4154,-110.4242,821.1,191.8,356.0,2.7,0.7,8.68,52.23,1.9949,394.5413],
    [4888,1537383438,53.4161,-110.4242,822.3,194.1,355.5,3.0,1.0,8.86,52.18,1.9955,395.1402],
    [4889,1537383439,53.4167,-110.4243,823.9,199.6,356.6,1.6,0.5,9.48,52.16,1.9952,395.1402],
    [4890,1537383440,53.4174,-110.4243,823.2,200.3,356.9,1.0,0.5,8.92,53.29,1.9921,394.4983],
    [4891,1537383441,53.4181,-110.4243,821.4,199.4,355.6,2.4,0.3,8.91,53.63,1.9901,395.2447],
    [4892,1537383442,53.4188,-110.4244,821.6,199.3,354.6,3.1,0.4,8.72,52.99,1.988,394.9778],
    [4893,1537383443,53.4195,-110.4245,821.0,198.0,354.8,3.0,-0.2,8.86,52.93,1.9859,394.5916],
    [4894,1537383444,53.4202,-110.4245,819.6,194.9,354.6,3.5,-1.6,9.37,52.31,1.9813,393.9712],
    [4895,1537383445,53.4209,-110.4246,819.6,193.0,354.9,3.3,-2.1,9.0,52.38,1.982,395.0274],
    [4896,1537383446,53.4215,-110.4246,820.4,191.0,355.0,3.6,-2.3,9.06,51.86,1.9835,395.1265],
    [4897,1537383447,53.4222,-110.4247,820.8,188.5,355.1,3.7,-2.4,9.77,50.84,1.9824,394.8107],
    [4898,1537383448,53.4229,-110.4247,821.2,186.2,354.5,4.7,-1.8,9.15,51.36,1.9828,394.9036],
    [4899,1537383449,53.4236,-110.4248,820.4,182.3,354.7,4.4,-0.5,9.12,51.01,1.9793,395.3841],
    [4900,1537383450,53.4243,-110.4248,818.9,175.6,355.2,4.0,0.0,9.71,50.2,1.979,394.5376],
    [4901,1537383451,53.425,-110.4248,817.7,171.7,356.1,3.1,-1.0,8.55,50.51,1.9796,394.5376],
    [4902,1537383452,53.4257,-110.4249,816.7,166.3,356.1,3.5,-1.6,9.05,50.02,1.9724,393.3725],
    [4903,1537383453,53.4263,-110.4249,814.8,160.4,354.6,5.6,-1.1,9.13,50.11,1.9749,394.7838],
    [4904,1537383454,53.427,-110.4249,813.6,157.0,354.4,5.1,-0.5,8.95,49.69,1.9744,393.518],
    [4905,1537383455,53.4277,-110.425,813.0,157.1,355.5,4.0,-0.2,8.68,48.99,1.9756,393.3388],
    [4906,1537383456,53.4284,-110.425,812.5,157.5,354.5,5.4,0.5,9.35,48.55,1.9756,392.5561],
    [4907,1537383457,53.4291,-110.425,810.6,155.7,354.8,5.2,0.8,8.95,48.58,1.9752,393.0456],
    [4908,1537383458,53.4298,-110.425,808.6,152.0,355.4,5.1,0.5,8.83,48.43,1.9755,396.0222],
    [4909,1537383459,53.4305,-110.4251,807.2,149.9,355.0,6.0,0.2,8.78,49.13,1.9704,394.6548],
    [4910,1537383460,53.4312,-110.4251,806.7,149.3,355.9,5.6,0.1,9.55,48.22,1.9649,394.2576],
    [4911,1537383461,53.4319,-110.4251,806.5,149.2,356.0,5.8,0.2,8.8,47.94,1.9648,393.6993],
    [4912,1537383462,53.4327,-110.4251,806.7,149.5,356.4,5.5,0.4,9.41,46.96,1.967,394.5187],
    [4913,1537383463,53.4334,-110.425,807.1,152.1,356.3,5.7,0.4,9.15,46.67,1.9675,394.5504],
    [4914,1537383464,53.4341,-110.425,808.0,153.0,356.5,5.6,1.4,9.24,46.21,1.9685,394.7036],
    [4915,1537383465,53.4348,-110.425,808.6,151.2,356.2,5.9,1.9,9.6,45.72,1.9655,394.5993],
    [4916,1537383466,53.4354,-110.425,808.9,149.9,356.7,5.2,1.5,9.42,45.19,1.9706,394.6373],
    [4917,1537383467,53.4361,-110.425,810.1,150.1,357.3,4.2,1.3,9.08,45.69,1.9721,394.8154],
    [4918,1537383468,53.4368,-110.425,811.3,152.3,358.0,2.8,2.2,9.02,46.2,1.9724,392.792],
    [4919,1537383469,53.4375,-110.425,811.9,154.8,357.4,2.8,2.4,8.78,46.24,1.9727,394.925],
    [4920,1537383470,53.4382,-110.425,812.4,156.2,356.9,3.0,1.9,9.04,46.68,1.9728,394.1607],
    [4921,1537383471,53.4388,-110.425,812.4,156.3,355.5,4.2,1.4,8.88,46.77,1.9723,395.2715],
    [4922,1537383472,53.4396,-110.4251,812.6,158.3,354.3,4.9,1.5,9.0,47.22,1.9741,394.7581],
    [4923,1537383473,53.4403,-110.4251,813.7,161.7,353.9,5.2,1.0,8.93,47.0,1.9749,394.2798],
    [4924,1537383474,53.441,-110.4252,814.5,164.2,354.1,4.8,0.8,9.16,47.07,1.9766,394.5059],
    [4925,1537383475,53.4417,-110.4252,813.7,163.7,354.2,4.8,1.7,8.88,47.03,1.981,395.4489],
    [4926,1537383476,53.4424,-110.4252,812.6,161.4,353.8,5.4,2.5,9.2,47.02,1.977,394.1896],
    [4927,1537383477,53.4431,-110.4253,813.0,159.0,353.2,6.1,3.2,8.42,47.48,1.9761,395.179],
    [4928,1537383478,53.4438,-110.4253,814.4,158.4,354.1,4.8,2.5,8.42,47.89,1.9742,396.2323],
    [4929,1537383479,53.4445,-110.4254,814.3,154.3,356.0,2.8,2.1,9.05,48.52,1.9748,395.2249],
    [4930,1537383480,53.4452,-110.4254,813.3,150.6,356.1,3.0,1.3,8.87,48.0,1.9785,395.0355],
    [4931,1537383481,53.4459,-110.4254,812.5,147.6,354.9,4.1,1.5,9.33,47.69,1.9769,394.9622],
    [4932,1537383482,53.4465,-110.4255,812.1,145.8,354.7,4.1,2.4,9.15,48.39,1.9791,394.8056],
    [4933,1537383483,53.4472,-110.4255,812.0,143.9,354.4,4.3,2.4,8.93,48.17,1.9808,394.465],
    [4934,1537383484,53.4479,-110.4256,813.7,146.8,355.2,3.2,1.9,9.8,47.95,1.9836,394.2842],
    [4935,1537383485,53.4486,-110.4256,815.0,147.3,355.0,4.0,0.6,9.24,48.54,1.9803,395.7848],
    [4936,1537383486,53.4493,-110.4257,814.2,147.2,353.3,5.6,-0.1,9.14,48.96,1.9902,393.669],
    [4937,1537383487,53.45,-110.4257,813.0,146.3,354.1,4.6,-0.5,9.02,48.7,2.0294,395.0324],
    [4938,1537383488,53.4507,-110.4258,813.6,147.7,353.9,5.2,0.2,9.03,49.09,2.0177,394.3902],
    [4939,1537383489,53.4514,-110.4258,815.1,150.7,354.7,4.0,-0.3,8.57,49.08,2.0173,394.6626],
    [4940,1537383490,53.4521,-110.4258,817.0,153.9,355.1,4.4,-1.2,8.96,49.29,2.0237,394.6004],
    [4941,1537383491,53.4528,-110.4259,817.9,156.6,354.5,5.2,-0.8,8.98,49.38,2.0173,395.1767],
    [4942,1537383492,53.4535,-110.4259,818.0,156.9,354.8,5.3,0.2,9.2,49.3,2.0718,394.2212],
    [4943,1537383493,53.4542,-110.4259,816.6,156.6,353.7,6.3,0.4,9.1,49.31,2.0531,395.1813],
    [4944,1537383494,53.4549,-110.426,814.2,155.3,354.0,5.4,0.6,9.27,49.23,2.0029,395.3626],
    [4945,1537383495,53.4556,-110.426,813.3,155.3,353.6,5.5,1.1,9.57,49.21,1.9894,396.5566],
    [4946,1537383496,53.4563,-110.4261,812.6,155.6,354.3,4.7,1.4,9.11,49.61,1.9895,395.5513],
    [4947,1537383497,53.4569,-110.4261,811.4,154.4,354.4,4.9,1.7,9.66,49.18,1.9914,395.5104],
    [4948,1537383498,53.4577,-110.4261,810.6,154.6,354.6,4.9,2.2,9.42,48.86,1.991,396.984],
    [4949,1537383499,53.4584,-110.4262,810.3,154.3,355.5,4.1,2.1,9.06,49.44,1.9868,394.936],
    [4950,1537383500,53.4591,-110.4262,810.3,154.3,355.7,4.1,2.3,9.13,49.54,1.9858,396.0912],
    [4951,1537383501,53.4598,-110.4262,810.6,155.6,355.7,4.3,1.7,9.19,49.33,1.9886,395.0005],
    [4952,1537383502,53.4605,-110.4262,811.1,156.1,355.8,4.1,1.7,9.04,50.04,1.9859,395.8214],
    [4953,1537383503,53.4612,-110.4263,811.7,156.7,356.1,3.6,2.5,8.98,50.0,2.029,396.2051],
    [4954,1537383504,53.4619,-110.4263,812.1,157.2,356.1,3.4,3.0,8.97,50.17,2.026,395.7003],
    [4955,1537383505,53.4626,-110.4263,812.1,156.1,355.8,3.7,2.6,9.13,49.55,2.064,395.8402],
    [4956,1537383506,53.4633,-110.4264,811.6,155.6,356.8,3.0,1.1,9.18,50.24,2.0169,395.1865],
    [4957,1537383507,53.464,-110.4264,811.0,154.0,355.7,4.9,0.5,8.99,50.37,2.0185,394.7317],
    [4958,1537383508,53.4647,-110.4264,811.3,154.3,355.3,5.4,0.7,9.12,50.78,2.035,395.9266],
    [4959,1537383509,53.4654,-110.4264,811.0,155.0,355.6,5.1,1.2,9.0,50.55,2.0368,395.7015],
    [4960,1537383510,53.4661,-110.4264,810.1,154.1,356.2,4.4,1.7,9.25,50.76,2.0389,394.8058],
    [4961,1537383511,53.4668,-110.4264,811.2,155.8,356.1,4.9,1.6,9.67,50.39,2.0473,394.6426],
    [4962,1537383512,53.4675,-110.4264,813.7,160.1,356.8,4.3,1.2,9.1,51.41,2.0439,394.323],
    [4963,1537383513,53.4682,-110.4264,816.2,165.5,358.3,2.5,1.7,8.67,50.87,2.0435,395.4109],
    [4964,1537383514,53.4689,-110.4264,817.8,169.8,358.0,2.7,1.5,9.06,51.42,2.04,395.4255],
    [4965,1537383515,53.4696,-110.4264,818.4,171.4,357.7,3.1,-0.5,8.97,51.5,2.03,395.5514],
    [4966,1537383516,53.4703,-110.4264,817.7,170.7,355.9,5.0,-0.4,9.08,51.1,2.0389,395.6183],
    [4967,1537383517,53.471,-110.4264,815.9,170.6,355.9,4.8,-0.1,9.6,50.87,2.0343,395.4831],
    [4968,1537383518,53.4717,-110.4264,814.6,172.3,356.1,4.7,0.5,9.22,50.77,2.0329,395.1118],
    [4969,1537383519,53.4724,-110.4264,813.6,174.1,357.8,3.6,0.7,9.14,50.59,2.0144,394.7722],
    [4970,1537383520,53.4731,-110.4264,813.9,179.7,358.8,3.6,-0.3,9.41,50.59,2.0043,394.8332],
    [4971,1537383521,53.4738,-110.4264,816.1,184.1,358.3,4.8,-0.6,10.02,50.14,2.0012,395.8435],
    [4972,1537383522,53.4745,-110.4263,818.1,194.1,357.9,4.9,-0.3,8.95,50.26,2.0018,395.8596],
    [4973,1537383523,53.4752,-110.4263,819.1,201.4,357.7,5.0,0.2,9.21,51.08,1.9971,394.5927],
    [4974,1537383524,53.4759,-110.4263,818.5,210.4,356.9,5.8,0.0,8.84,50.65,1.994,394.6408],
    [4975,1537383525,53.4766,-110.4263,816.9,217.0,356.7,5.6,0.5,9.15,50.57,1.9956,394.9039],
    [4976,1537383526,53.4773,-110.4263,816.2,227.2,357.5,4.0,1.1,9.04,50.65,1.998,396.6493],
    [4977,1537383527,53.478,-110.4262,815.5,233.5,358.3,3.1,1.5,9.6,50.16,1.9985,395.3971],
    [4978,1537383528,53.4787,-110.4262,814.3,241.3,357.7,3.8,1.9,9.61,50.09,1.9971,395.0986],
    [4979,1537383529,53.4794,-110.4262,812.9,243.5,356.6,5.0,1.8,9.05,50.64,1.9917,395.6709],
    [4980,1537383530,53.4801,-110.4262,812.0,246.7,356.4,4.9,1.0,9.2,50.83,1.9852,395.6709],
    [4981,1537383531,53.4808,-110.4262,811.5,248.4,356.5,4.6,0.8,9.18,50.53,1.9817,394.8338],
    [4982,1537383532,53.4816,-110.4262,811.4,249.4,356.4,4.6,0.6,8.57,50.11,1.983,395.1574],
    [4983,1537383533,53.4823,-110.4262,811.3,249.4,357.1,3.6,0.7,9.21,49.98,1.9821,395.1189],
    [4984,1537383534,53.483,-110.4262,810.8,247.8,356.9,3.7,0.9,9.22,50.07,1.9797,395.8521],
    [4985,1537383535,53.4837,-110.4262,810.5,245.5,356.4,4.2,1.3,9.64,49.75,1.9815,395.8949],
    [4986,1537383536,53.4844,-110.4263,810.4,243.7,356.3,3.9,1.7,9.26,50.01,1.9839,395.1773],
    [4987,1537383537,53.4851,-110.4263,812.2,242.6,356.1,3.7,1.7,8.58,49.9,1.9879,395.3873],
    [4988,1537383538,53.4858,-110.4263,814.7,241.0,355.6,3.7,1.2,9.41,50.0,1.9876,394.6148],
    [4989,1537383539,53.4865,-110.4263,816.5,233.5,354.8,4.2,1.5,9.74,49.62,1.9875,395.1426],
    [4990,1537383540,53.4871,-110.4264,817.1,225.4,356.0,2.1,2.0,9.01,50.24,1.988,395.3029],
    [4991,1537383541,53.4879,-110.4264,817.2,216.5,356.3,2.5,1.2,8.99,50.75,1.9859,394.7157],
    [4992,1537383542,53.4886,-110.4265,815.3,210.2,354.8,4.9,0.4,8.63,50.83,1.9815,393.2637],
    [4993,1537383543,53.4893,-110.4265,812.6,203.4,356.0,3.9,0.6,9.2,51.33,1.9831,394.7261],
    [4994,1537383544,53.49,-110.4265,811.1,196.8,357.6,2.6,0.9,9.17,51.01,1.9833,395.2332],
    [4995,1537383545,53.4907,-110.4265,810.5,191.3,358.2,2.2,0.9,9.19,51.16,1.9805,395.7623],
    [4996,1537383546,53.4914,-110.4265,809.3,189.3,356.7,4.0,1.3,9.63,50.6,1.9796,395.1201],
    [4997,1537383547,53.4921,-110.4265,808.5,188.5,356.6,3.2,2.0,8.87,50.9,1.9801,395.3236],
    [4998,1537383548,53.4928,-110.4266,808.8,189.8,356.1,3.2,2.1,9.04,50.91,1.9807,396.0931],
    [4999,1537383549,53.4935,-110.4266,809.6,191.4,355.6,3.5,2.2,8.96,50.9,1.9827,395.0014],
    [5000,1537383550,53.4942,-110.4266,810.0,194.5,355.1,3.9,2.8,9.6,50.69,1.9839,396.2323],
    [5001,1537383551,53.4949,-110.4267,810.5,195.5,355.6,3.3,3.5,8.69,50.94,1.9821,396.0887],
    [5002,1537383552,53.4956,-110.4267,810.6,197.1,355.4,3.5,3.1,8.99,50.87,1.984,395.586],
    [5003,1537383553,53.4963,-110.4267,809.9,196.8,355.1,3.9,1.7,9.2,51.56,1.9811,395.3338],
    [5004,1537383554,53.497,-110.4268,808.8,196.9,355.8,2.9,0.7,9.14,51.14,1.9787,395.7644],
    [5005,1537383555,53.4977,-110.4268,807.2,196.3,355.7,3.2,0.5,9.45,50.47,1.9772,395.5617],
    [5006,1537383556,53.4984,-110.4269,806.8,197.0,355.2,3.9,1.1,9.56,50.87,1.9757,396.1816],
    [5007,1537383557,53.4991,-110.4269,807.7,198.9,356.4,2.4,1.6,8.72,51.2,1.9753,395.0565],
    [5008,1537383558,53.4999,-110.4269,807.6,200.1,356.3,3.0,1.8,8.66,51.07,1.978,393.5512],
    [5009,1537383559,53.5006,-110.427,807.9,201.6,355.7,3.4,2.5,9.33,50.94,1.9759,395.7723],
    [5010,1537383560,53.5013,-110.427,806.7,200.6,355.4,3.6,2.4,9.33,50.77,1.9766,394.6295],
    [5011,1537383561,53.502,-110.427,804.7,199.9,355.5,3.6,2.2,8.64,51.35,1.9782,394.5609],
    [5012,1537383562,53.5027,-110.4271,803.6,198.8,355.8,3.7,1.7,8.82,51.51,1.9772,395.7697],
    [5013,1537383563,53.5034,-110.4271,803.3,199.3,356.8,2.8,1.7,9.11,52.01,1.976,396.151],
    [5014,1537383564,53.5041,-110.4271,803.7,200.7,356.2,3.8,2.6,9.02,52.0,1.9764,396.1795],
    [5015,1537383565,53.5048,-110.4271,803.8,202.0,356.3,3.8,2.9,9.12,51.54,1.9752,395.7556],
    [5016,1537383566,53.5055,-110.4272,801.8,200.8,357.6,2.5,2.1,8.97,51.63,1.9742,396.2975],
    [5017,1537383567,53.5062,-110.4272,800.0,199.0,358.0,1.9,1.9,8.64,51.7,1.9752,396.034],
    [5018,1537383568,53.5069,-110.4272,799.5,199.5,357.4,2.6,2.2,8.84,51.74,1.975,395.4938],
    [5019,1537383569,53.5077,-110.4272,799.4,199.4,356.8,3.1,2.8,9.07,51.59,1.9746,395.4816],
    [5020,1537383570,53.5084,-110.4272,798.4,198.4,356.6,3.0,2.1,9.2,50.95,1.9748,395.2528],
    [5021,1537383571,53.5091,-110.4272,797.1,198.1,356.8,2.9,0.7,9.22,51.2,1.9769,394.517],
    [5022,1537383572,53.5098,-110.4273,797.4,198.4,357.3,2.0,0.1,9.2,50.77,1.9772,394.4547],
    [5023,1537383573,53.5105,-110.4273,799.0,200.0,358.5,0.5,0.0,9.77,50.54,1.9764,394.6395],
    [5024,1537383574,53.5112,-110.4273,800.9,201.9,357.5,2.4,0.2,9.13,51.26,1.9756,394.6516],
    [5025,1537383575,53.512,-110.4273,801.3,202.3,355.3,5.0,0.2,9.11,51.1,1.9751,393.6821],
    [5026,1537383576,53.5127,-110.4274,800.7,201.7,355.7,4.6,0.6,9.33,49.62,1.9765,392.8404],
    [5027,1537383577,53.5134,-110.4274,800.3,202.3,355.6,4.6,1.2,9.25,49.58,1.9745,394.1103],
    [5028,1537383578,53.5141,-110.4274,799.8,201.8,355.7,4.5,0.5,9.2,49.83,1.972,391.8249],
    [5029,1537383579,53.5148,-110.4274,798.7,200.7,356.0,4.6,-0.2,9.11,49.15,1.9695,392.1616],
    [5030,1537383580,53.5155,-110.4274,798.2,200.2,355.6,5.2,-0.6,8.55,49.02,1.9621,394.0069],
    [5031,1537383581,53.5162,-110.4274,797.8,199.8,356.1,4.7,-0.9,8.61,48.65,1.961,393.2626],
    [5032,1537383582,53.517,-110.4275,797.1,199.1,356.1,4.9,-0.9,9.18,48.11,1.963,395.3744],
    [5033,1537383583,53.5177,-110.4275,797.6,199.7,356.1,4.8,-0.7,9.02,47.01,1.9657,394.9474],
    [5034,1537383584,53.5184,-110.4275,798.0,202.6,356.2,4.6,0.0,8.93,46.51,1.9637,394.0657],
    [5035,1537383585,53.5191,-110.4275,797.3,204.7,355.9,4.9,0.4,9.44,45.7,1.9624,393.7519],
    [5036,1537383586,53.5198,-110.4275,796.5,207.9,356.2,4.6,0.5,9.43,45.74,1.9675,392.6584],
    [5037,1537383587,53.5205,-110.4275,795.8,209.7,356.2,4.5,0.1,8.58,45.52,1.9707,393.6868],
    [5038,1537383588,53.5212,-110.4275,794.7,213.7,356.7,4.0,-0.1,9.13,45.63,1.9732,393.8399],
    [5039,1537383589,53.522,-110.4275,794.3,219.6,356.4,4.3,0.2,8.97,46.41,1.9739,393.305],
    [5040,1537383590,53.5227,-110.4275,794.1,223.8,356.8,3.5,-0.1,8.84,46.38,1.9741,394.1305],
    [5041,1537383591,53.5234,-110.4276,793.8,229.5,356.7,3.8,-0.2,9.2,46.37,1.9749,394.1793],
    [5042,1537383592,53.5241,-110.4276,793.1,230.6,355.7,4.8,0.2,9.82,46.29,1.9736,392.1526],
    [5043,1537383593,53.5248,-110.4276,791.0,231.4,356.5,3.8,0.1,9.11,47.08,1.9709,394.3033],
    [5044,1537383594,53.5255,-110.4276,788.6,230.6,356.3,4.1,0.1,8.82,46.8,1.971,393.9349],
    [5045,1537383595,53.5262,-110.4276,786.9,228.9,356.1,4.1,0.4,9.5,46.73,1.9714,394.4777],
    [5046,1537383596,53.527,-110.4276,785.8,222.8,355.7,4.5,0.2,9.86,46.45,1.9715,392.991],
    [5047,1537383597,53.5277,-110.4277,784.6,216.8,355.5,4.8,0.0,8.7,46.61,1.9711,394.6815],
    [5048,1537383598,53.5284,-110.4277,783.4,206.6,355.1,5.4,0.2,8.63,46.54,1.9717,393.7373],
    [5049,1537383599,53.5291,-110.4277,782.7,203.0,355.1,5.5,0.8,9.16,47.1,1.9711,393.4399],
    [5050,1537383600,53.5298,-110.4277,781.6,199.5,355.5,5.2,1.2,10.05,45.79,1.9692,393.3582],
    [5051,1537383601,53.5305,-110.4277,780.0,197.6,355.5,5.5,1.1,9.13,46.01,1.971,394.0325],
    [5052,1537383602,53.5312,-110.4277,778.5,196.4,355.9,5.2,0.9,9.52,46.0,1.9752,393.3947],
    [5053,1537383603,53.5319,-110.4277,777.7,197.4,355.9,5.1,0.9,9.4,46.37,1.9779,393.7721],
    [5054,1537383604,53.5327,-110.4278,777.0,197.6,356.2,4.9,0.9,9.45,45.9,1.9778,393.4867],
    [5055,1537383605,53.5334,-110.4278,776.2,197.9,356.3,5.0,1.2,8.89,46.94,1.978,393.4867],
    [5056,1537383606,53.5341,-110.4278,775.6,197.5,356.2,5.5,1.0,8.8,46.95,1.9785,393.3544],
    [5057,1537383607,53.5348,-110.4277,774.3,199.3,356.3,5.7,0.7,9.46,47.23,1.9788,393.7968],
    [5058,1537383608,53.5355,-110.4277,773.4,202.0,356.9,5.2,0.4,9.06,47.76,1.9796,393.8262],
    [5059,1537383609,53.5362,-110.4277,773.6,208.2,357.9,3.6,0.2,9.22,48.15,1.9801,393.631],
    [5060,1537383610,53.537,-110.4277,774.3,214.0,357.9,3.8,0.6,8.75,48.19,1.9798,394.1652],
    [5061,1537383611,53.5377,-110.4277,773.7,215.5,356.6,5.5,0.4,9.07,48.47,1.9822,393.4134],
    [5062,1537383612,53.5384,-110.4277,772.6,216.3,357.7,3.9,-0.1,9.07,48.8,1.9801,393.32],
    [5063,1537383613,53.5391,-110.4277,771.7,214.7,358.0,3.7,-0.1,9.2,49.56,1.978,392.6082],
    [5064,1537383614,53.5398,-110.4277,772.2,210.7,358.2,3.1,-0.4,9.18,48.85,1.9737,393.2618],
    [5065,1537383615,53.5405,-110.4277,773.2,205.5,358.2,3.4,-0.9,9.27,48.82,1.9754,394.2126],
    [5066,1537383616,53.5413,-110.4277,772.8,195.1,357.5,4.3,-2.0,8.75,48.67,1.9749,393.6973],
    [5067,1537383617,53.542,-110.4276,772.3,187.6,357.5,4.0,-1.5,8.92,48.72,1.9731,393.6973],
    [5068,1537383618,53.5426,-110.4276,772.0,184.5,357.6,4.3,-0.4,9.54,48.49,1.9747,392.1761],
    [5069,1537383619,53.5434,-110.4276,771.1,182.3,357.1,5.0,-0.1,9.52,48.24,1.9746,392.5123],
    [5070,1537383620,53.5442,-110.4276,769.6,179.2,358.3,3.6,-0.5,9.45,48.52,1.9732,392.3561],
    [5071,1537383621,53.5449,-110.4276,768.2,176.9,358.8,2.9,-1.2,9.36,48.34,1.9743,391.6272],
    [5072,1537383622,53.5456,-110.4276,768.1,176.1,359.7,1.9,-1.0,9.42,48.07,1.9692,393.0173],
    [5073,1537383623,53.5463,-110.4275,767.6,175.6,358.3,3.8,-0.5,9.19,48.12,1.9672,393.0845],
    [5074,1537383624,53.547,-110.4275,765.5,173.5,357.1,4.6,-0.6,8.95,47.74,1.9659,391.6209],
    [5075,1537383625,53.5478,-110.4275,763.5,172.5,356.3,4.9,-0.3,9.15,47.6,1.965,392.3343],
    [5076,1537383626,53.5485,-110.4275,762.4,172.3,355.2,5.7,-0.2,8.88,46.99,1.9661,391.1427],
    [5077,1537383627,53.5492,-110.4276,761.5,171.5,355.1,5.5,-0.4,9.41,47.01,1.968,393.0127],
    [5078,1537383628,53.5499,-110.4276,760.6,170.6,355.2,5.3,-0.2,9.66,45.58,1.9675,393.2467],
    [5079,1537383629,53.5507,-110.4276,759.9,169.0,355.5,5.3,0.4,9.38,46.27,1.9693,393.8166],
    [5080,1537383630,53.5514,-110.4276,760.3,169.3,355.7,5.1,0.3,9.5,45.9,1.9711,393.2047],
    [5081,1537383631,53.552,-110.4276,760.7,169.7,356.7,4.3,0.4,8.95,46.27,1.9685,393.4603],
    [5082,1537383632,53.5528,-110.4276,760.1,170.1,356.4,4.7,0.8,9.48,45.98,1.9652,393.7358],
    [5083,1537383633,53.5535,-110.4276,759.5,169.5,357.1,3.9,0.6,9.46,46.32,1.9666,392.9932],
    [5084,1537383634,53.5542,-110.4276,759.3,169.3,356.8,4.4,0.6,9.77,46.13,1.9699,392.9932],
    [5085,1537383635,53.555,-110.4276,759.5,169.5,356.2,4.8,0.7,9.26,46.27,1.9703,393.0107],
    [5086,1537383636,53.5557,-110.4276,759.6,169.6,356.1,5.0,0.9,9.34,46.3,1.9719,393.773],
    [5087,1537383637,53.5564,-110.4276,759.8,168.8,355.8,5.2,1.0,9.46,46.56,1.9726,393.8263],
    [5088,1537383638,53.5571,-110.4277,759.7,168.7,356.1,4.9,1.2,9.48,47.11,1.9725,393.6854],
    [5089,1537383639,53.5578,-110.4277,760.0,169.0,355.5,5.7,0.8,8.97,47.34,1.9715,393.7662],
    [5090,1537383640,53.5585,-110.4277,760.6,169.6,356.1,5.0,0.7,9.91,46.74,1.972,392.5426],
    [5091,1537383641,53.5592,-110.4277,760.5,168.7,356.0,5.3,1.2,9.44,47.66,1.9737,394.1193],
    [5092,1537383642,53.5599,-110.4277,760.7,168.7,355.8,5.5,1.4,9.59,48.76,1.9733,395.3346],
    [5093,1537383643,53.5606,-110.4277,760.7,168.7,355.9,5.6,1.3,9.65,48.32,1.9723,394.1021],
    [5094,1537383644,53.5613,-110.4277,760.6,168.6,355.8,5.8,1.1,9.44,48.53,1.972,393.7476],
    [5095,1537383645,53.5621,-110.4277,760.3,169.3,356.4,5.2,1.1,9.46,48.6,1.9715,393.8515],
    [5096,1537383646,53.5628,-110.4277,760.4,169.4,356.6,5.0,1.2,9.31,48.49,1.971,393.9189],
    [5097,1537383647,53.5635,-110.4277,760.9,169.9,356.1,5.5,1.2,9.23,48.62,1.9706,393.5561],
    [5098,1537383648,53.5642,-110.4277,761.1,170.1,356.5,4.9,1.6,9.71,48.41,1.9705,393.6029],
    [5099,1537383649,53.5649,-110.4277,760.4,169.4,356.8,4.4,1.5,9.23,48.87,1.9702,390.9487],
    [5100,1537383650,53.5656,-110.4277,759.6,168.6,357.0,4.2,2.1,10.08,48.5,1.9724,394.0878],
    [5101,1537383651,53.5663,-110.4276,759.2,168.2,356.4,4.9,2.7,9.93,48.64,1.9714,391.6655],
    [5102,1537383652,53.567,-110.4276,759.3,168.3,357.2,3.8,3.2,9.83,48.38,1.9707,393.181],
    [5103,1537383653,53.5677,-110.4276,759.5,168.5,356.9,4.0,2.0,9.65,48.64,1.9716,393.654],
    [5104,1537383654,53.5684,-110.4277,759.5,168.5,357.9,2.7,0.9,9.56,49.3,1.9711,392.5158],
    [5105,1537383655,53.5691,-110.4277,759.9,168.9,358.3,2.3,1.1,9.48,49.43,1.968,392.1516],
    [5106,1537383656,53.5698,-110.4277,760.8,169.8,357.1,3.4,0.9,8.88,48.89,1.9679,392.541],
    [5107,1537383657,53.5705,-110.4277,761.1,170.1,356.9,3.7,0.6,9.43,49.09,1.9678,393.3329],
    [5108,1537383658,53.5712,-110.4277,760.6,169.6,355.9,4.8,0.5,10.04,48.32,1.9673,391.9958],
    [5109,1537383659,53.572,-110.4277,760.0,169.0,356.1,4.6,0.6,9.25,48.25,1.9673,393.9955],
    [5110,1537383660,53.5727,-110.4277,759.1,168.1,356.6,4.3,0.6,9.71,47.65,1.9679,394.8726],
    [5111,1537383661,53.5734,-110.4277,758.8,168.7,357.2,3.9,0.3,9.42,47.9,1.9669,392.8741],
    [5112,1537383662,53.5741,-110.4277,759.0,169.0,357.4,3.8,0.4,9.55,47.47,1.9665,393.1268],
    [5113,1537383663,53.5748,-110.4277,759.2,168.2,357.2,4.1,0.4,9.24,47.36,1.9646,393.1268],
    [5114,1537383664,53.5755,-110.4277,759.1,168.1,357.2,4.1,0.1,9.52,47.5,1.9634,392.0909],
    [5115,1537383665,53.5762,-110.4277,759.0,168.0,356.9,4.3,0.4,9.87,46.2,1.9653,391.7982],
    [5116,1537383666,53.577,-110.4277,759.5,168.8,357.0,4.0,1.0,9.19,46.56,1.9651,393.4039],
    [5117,1537383667,53.5777,-110.4277,759.6,169.5,357.0,3.9,1.8,9.06,46.08,1.9636,393.0453],
    [5118,1537383668,53.5784,-110.4277,759.6,171.6,356.9,4.0,2.0,9.18,45.82,1.9629,392.5237],
    [5119,1537383669,53.5791,-110.4277,759.1,173.9,356.8,4.0,1.6,9.55,46.32,1.9626,393.8407],
    [5120,1537383670,53.5798,-110.4277,758.4,179.5,357.0,3.6,0.8,9.53,45.21,1.9638,392.8896],
    [5121,1537383671,53.5805,-110.4277,758.3,183.9,357.2,3.3,0.9,9.15,45.35,1.9646,392.9705],
    [5122,1537383672,53.5812,-110.4277,758.6,192.1,356.8,3.6,0.9,9.51,45.43,1.9647,393.7824],
    [5123,1537383673,53.5818,-110.4277,758.8,196.7,356.7,3.8,0.6,9.21,45.03,1.9677,392.215],
    [5124,1537383674,53.5826,-110.4277,759.8,203.2,356.5,3.9,1.0,9.17,45.18,1.9692,392.4763],
    [5125,1537383675,53.5832,-110.4277,760.3,206.4,356.7,3.6,1.2,9.36,45.46,1.9702,393.2632],
    [5126,1537383676,53.5839,-110.4278,759.7,206.7,356.4,4.1,1.2,9.27,45.56,1.9714,393.1665],
    [5127,1537383677,53.5846,-110.4278,759.4,206.1,355.8,4.5,1.2,9.4,45.9,1.9725,394.1399],
    [5128,1537383678,53.5853,-110.4278,759.6,205.6,356.4,3.9,1.5,9.52,46.08,1.9715,394.0584],
    [5129,1537383679,53.586,-110.4278,759.9,205.0,356.2,4.2,1.5,9.59,47.01,1.9737,393.6891],
    [5130,1537383680,53.5867,-110.4278,759.8,202.9,356.5,3.9,1.5,9.2,46.7,1.9735,393.8217],
    [5131,1537383681,53.5874,-110.4278,759.3,201.3,357.0,3.6,1.5,10.08,46.46,1.971,393.5302],
    [5132,1537383682,53.5881,-110.4278,759.2,201.1,356.3,4.5,1.8,9.43,47.15,1.972,391.0942],
    [5133,1537383683,53.5888,-110.4278,759.7,202.7,355.8,4.9,2.6,9.47,47.12,1.9701,392.6363],
    [5134,1537383684,53.5894,-110.4278,760.1,204.1,356.0,4.4,3.0,10.0,46.52,1.9703,392.6886],
    [5135,1537383685,53.5901,-110.4278,760.2,205.2,355.9,4.5,3.0,9.18,46.89,1.9699,393.5741],
    [5136,1537383686,53.5908,-110.4279,760.3,205.4,356.1,4.3,3.3,9.46,47.09,1.9697,392.6983],
    [5137,1537383687,53.5915,-110.4279,760.4,202.0,356.1,4.4,2.7,9.52,47.7,1.9705,393.1503],
    [5138,1537383688,53.5922,-110.4279,760.8,197.8,356.7,3.7,3.0,9.45,47.12,1.9711,392.4917],
    [5139,1537383689,53.5929,-110.4279,761.5,188.5,357.2,3.0,1.9,9.92,46.84,1.9708,392.3517],
    [5140,1537383690,53.5936,-110.4279,762.6,185.3,357.1,2.7,0.6,9.53,47.47,1.9712,393.5791],
    [5141,1537383691,53.5943,-110.4279,762.5,182.6,357.8,2.0,-0.1,9.32,47.45,1.9689,392.777],
    [5142,1537383692,53.595,-110.4279,761.5,180.6,355.8,4.6,-0.5,9.85,47.27,1.9657,393.0352],
    [5143,1537383693,53.5957,-110.428,760.2,178.3,354.7,5.8,0.2,9.53,47.92,1.9658,393.0436],
    [5144,1537383694,53.5964,-110.428,759.5,175.5,356.2,4.3,0.4,9.56,47.55,1.9666,392.5362],
    [5145,1537383695,53.5971,-110.428,760.9,176.9,356.2,4.7,0.5,9.29,47.26,1.9687,392.61],
    [5146,1537383696,53.5978,-110.428,761.8,178.8,358.5,2.2,0.4,9.05,46.82,1.9693,393.2727],
    [5147,1537383697,53.5985,-110.428,761.6,178.5,359.4,1.6,0.7,8.93,46.74,1.9679,394.2115],
    [5148,1537383698,53.5992,-110.428,762.4,181.1,358.8,2.7,1.7,9.78,46.7,1.9684,392.6691],
    [5149,1537383699,53.5999,-110.4279,762.7,182.0,357.7,3.8,2.1,9.84,47.69,1.9667,394.2789],
    [5150,1537383700,53.6006,-110.4279,761.4,182.7,358.0,3.3,2.0,9.99,47.07,1.966,393.3466],
    [5151,1537383701,53.6013,-110.4279,760.0,183.0,356.4,4.6,2.0,9.49,47.62,1.9644,394.1689],
    [5152,1537383702,53.6021,-110.4279,759.4,184.4,356.6,3.7,3.0,9.36,47.97,1.9666,393.0678],
    [5153,1537383703,53.6028,-110.428,759.4,185.4,356.6,3.0,4.0,9.62,47.28,1.968,392.5019],
    [5154,1537383704,53.6035,-110.428,758.6,185.5,356.1,3.5,3.4,9.36,47.58,1.9669,392.8306],
    [5155,1537383705,53.6041,-110.428,757.3,185.6,355.4,4.1,2.6,9.76,47.25,1.9628,392.5022],
    [5156,1537383706,53.6049,-110.428,757.6,187.9,355.4,4.2,2.7,10.39,47.01,1.9641,392.4374],
    [5157,1537383707,53.6056,-110.4281,759.0,192.3,356.0,3.2,2.0,9.73,47.2,1.9664,393.8937],
    [5158,1537383708,53.6063,-110.4281,759.6,193.9,356.2,3.0,0.9,10.14,47.23,1.967,392.2095],
    [5159,1537383709,53.6071,-110.4281,760.0,195.3,357.5,1.5,0.0,10.36,47.19,1.9673,392.2095],
    [5160,1537383710,53.6078,-110.4282,760.7,197.2,357.2,2.4,-0.3,9.98,46.93,1.9683,392.3428],
    [5161,1537383711,53.6085,-110.4282,761.1,200.2,356.5,3.3,-0.2,9.88,47.68,1.9626,392.1483],
    [5162,1537383712,53.6092,-110.4282,760.6,202.7,356.0,3.2,-0.3,9.66,47.65,1.963,393.0652],
    [5163,1537383713,53.6099,-110.4283,760.2,203.6,355.6,3.2,-0.4,9.57,47.77,1.9629,391.0746],
    [5164,1537383714,53.6106,-110.4283,760.3,204.2,354.9,3.7,-0.6,9.91,46.61,1.9596,393.615],
    [5165,1537383715,53.6113,-110.4284,760.0,206.7,353.8,4.8,-0.2,9.71,47.45,1.9611,391.4229],
    [5166,1537383716,53.6121,-110.4284,758.8,208.8,354.0,4.1,0.7,9.92,46.73,1.9605,392.9316],
    [5167,1537383717,53.6128,-110.4285,757.7,209.6,354.6,3.6,1.3,10.46,46.15,1.9611,393.2069],
    [5168,1537383718,53.6135,-110.4285,757.3,209.4,354.7,3.9,1.5,9.52,46.45,1.9602,391.9728],
    [5169,1537383719,53.6142,-110.4286,757.6,209.2,354.9,3.9,1.3,9.53,46.32,1.9602,393.5709],
    [5170,1537383720,53.6149,-110.4286,757.6,207.3,355.3,3.8,1.2,9.84,45.93,1.9605,393.6492],
    [5171,1537383721,53.6156,-110.4287,757.5,206.5,355.9,3.6,1.3,9.26,46.12,1.9571,393.6492],
    [5172,1537383722,53.6163,-110.4287,757.5,206.5,355.9,3.9,1.0,9.71,45.95,1.9567,392.2978],
    [5173,1537383723,53.617,-110.4287,757.8,205.8,356.0,4.0,1.0,9.63,45.96,1.9505,392.2906],
    [5174,1537383724,53.6177,-110.4287,758.6,205.6,355.8,4.1,1.5,10.14,44.76,1.9527,393.3585],
    [5175,1537383725,53.6184,-110.4288,759.3,206.2,356.0,3.9,1.7,10.08,44.35,1.9546,392.552],
    [5176,1537383726,53.6191,-110.4288,759.1,207.4,356.4,3.5,1.9,10.38,43.79,1.9603,393.0037],
    [5177,1537383727,53.6198,-110.4288,758.8,210.1,356.2,3.9,1.6,9.92,43.96,1.9601,391.796],
    [5178,1537383728,53.6206,-110.4288,760.0,213.0,357.1,2.6,1.2,9.42,44.0,1.9599,392.5535],
    [5179,1537383729,53.6213,-110.4288,761.2,213.2,356.6,3.2,1.2,9.37,44.3,1.9604,393.8775],
    [5180,1537383730,53.622,-110.4289,761.6,208.6,356.6,2.8,1.5,10.01,44.89,1.9613,392.3243],
    [5181,1537383731,53.6227,-110.4289,760.7,203.4,356.9,2.3,2.2,9.4,45.25,1.9596,392.7105],
    [5182,1537383732,53.6234,-110.4289,759.9,194.9,356.5,2.8,1.9,9.98,45.17,1.9584,393.641],
    [5183,1537383733,53.6241,-110.4289,761.6,194.4,356.2,3.0,1.7,9.87,45.48,1.9583,391.7624],
    [5184,1537383734,53.6248,-110.429,762.7,197.8,356.3,2.9,2.2,9.67,45.83,1.9622,393.5846],
    [5185,1537383735,53.6255,-110.429,762.9,201.8,355.0,4.2,2.3,9.25,45.97,1.9628,393.5846],
    [5186,1537383736,53.6262,-110.429,762.2,209.9,356.1,3.2,2.0,9.63,46.27,1.9621,393.0963],
    [5187,1537383737,53.6269,-110.4291,761.1,212.9,356.3,3.1,1.8,10.21,46.22,1.9604,392.9292],
    [5188,1537383738,53.6276,-110.4291,760.5,210.5,356.4,3.2,1.8,9.53,47.07,1.9623,393.4569],
    [5189,1537383739,53.6283,-110.4291,760.6,204.2,356.3,3.4,1.9,10.09,46.56,1.9616,393.8524],
    [5190,1537383740,53.629,-110.4291,761.3,194.9,356.9,2.7,1.5,9.9,46.12,1.9628,393.2525],
    [5191,1537383741,53.6297,-110.4292,761.7,191.7,356.7,3.1,1.1,9.65,46.62,1.9626,393.0282],
    [5192,1537383742,53.6304,-110.4292,761.6,189.6,357.1,2.6,1.2,10.2,46.81,1.9617,392.8532],
    [5193,1537383743,53.631,-110.4292,761.2,188.5,356.7,3.1,1.5,9.9,46.55,1.9618,394.5759],
    [5194,1537383744,53.6318,-110.4292,761.1,190.0,357.0,2.5,1.6,9.6,47.27,1.9629,393.8313],
    [5195,1537383745,53.6325,-110.4292,762.1,193.8,357.4,2.0,0.4,9.49,47.51,1.9679,392.4084],
    [5196,1537383746,53.6332,-110.4293,764.1,197.4,356.2,3.4,0.0,9.95,47.37,1.9681,392.4165],
    [5197,1537383747,53.6339,-110.4293,764.8,196.5,354.6,5.4,-0.3,9.48,47.61,1.9683,392.4153],
    [5198,1537383748,53.6346,-110.4293,763.8,192.8,354.4,5.5,-0.2,9.59,47.96,1.9685,394.4876],
    [5199,1537383749,53.6353,-110.4294,762.1,188.2,354.4,5.6,0.3,9.67,47.61,1.9684,392.8993],
    [5200,1537383750,53.636,-110.4294,760.2,184.5,355.0,5.2,0.0,9.59,47.72,1.9675,393.7967],
    [5201,1537383751,53.6368,-110.4294,759.2,182.7,355.9,4.5,0.1,9.8,47.27,1.9639,393.8754],
    [5202,1537383752,53.6375,-110.4294,759.2,182.2,355.8,5.0,0.6,10.02,46.21,1.9656,392.4665],
    [5203,1537383753,53.6382,-110.4294,759.5,182.5,355.9,4.9,0.2,9.92,46.21,1.9672,391.3052],
    [5204,1537383754,53.6389,-110.4295,759.1,182.1,356.7,4.3,-0.1,9.91,45.68,1.9669,391.8452],
    [5205,1537383755,53.6396,-110.4295,759.0,182.0,356.4,5.0,-0.2,9.34,46.29,1.9701,392.5891],
    [5206,1537383756,53.6403,-110.4295,759.5,181.5,356.8,4.4,0.0,10.36,45.82,1.9675,391.9693],
    [5207,1537383757,53.641,-110.4295,760.1,181.4,356.8,4.6,0.1,9.69,46.3,1.968,392.6504],
    [5208,1537383758,53.6417,-110.4295,760.0,180.0,356.8,4.6,-0.4,9.55,45.82,1.9677,392.3067],
    [5209,1537383759,53.6424,-110.4294,759.9,179.6,357.7,3.4,0.0,9.9,45.16,1.9665,392.8571],
    [5210,1537383760,53.6431,-110.4294,759.6,178.3,357.5,3.8,0.4,9.78,44.6,1.9659,392.8154],
    [5211,1537383761,53.6438,-110.4294,759.5,177.5,357.4,3.8,0.7,9.49,44.25,1.9683,392.0902],
    [5212,1537383762,53.6445,-110.4294,759.5,177.5,357.3,3.8,1.0,9.59,43.84,1.9652,393.0139],
    [5213,1537383763,53.6452,-110.4294,759.0,178.0,356.8,4.1,1.1,9.08,43.78,1.9642,392.9007],
    [5214,1537383764,53.6459,-110.4294,758.4,178.4,356.3,4.5,1.0,9.81,43.49,1.9635,392.9434],
    [5215,1537383765,53.6466,-110.4294,758.2,178.2,356.1,4.5,0.5,8.87,43.47,1.9726,393.8409],
    [5216,1537383766,53.6473,-110.4295,758.7,177.7,356.2,4.4,0.5,9.51,43.7,1.9784,393.0376],
    [5217,1537383767,53.648,-110.4295,759.2,178.2,356.6,3.8,0.5,9.52,43.76,1.9792,392.6892],
    [5218,1537383768,53.6487,-110.4295,759.3,177.3,357.1,3.3,0.4,9.57,44.22,1.9801,392.7327],
    [5219,1537383769,53.6494,-110.4295,759.1,177.1,357.1,3.2,0.9,9.89,44.34,1.9799,393.3459],
    [5220,1537383770,53.6501,-110.4295,759.1,178.1,357.0,3.2,1.4,9.66,44.39,1.9826,391.9569],
    [5221,1537383771,53.6508,-110.4295,759.3,178.2,356.7,3.2,1.3,9.43,45.37,1.9849,393.8086],
    [5222,1537383772,53.6515,-110.4295,759.1,179.1,356.9,2.8,1.4,9.02,45.4,1.9821,393.0323],
    [5223,1537383773,53.6522,-110.4296,758.8,178.8,356.9,2.7,1.6,9.21,45.76,1.98,391.9175],
    [5224,1537383774,53.6529,-110.4296,758.3,177.3,356.7,2.9,1.6,9.83,45.85,1.9833,393.3898],
    [5225,1537383775,53.6536,-110.4296,758.0,177.0,356.4,3.2,1.4,9.62,46.94,1.9855,392.706],
    [5226,1537383776,53.6542,-110.4296,758.1,177.8,356.2,3.3,1.3,9.39,46.44,1.9858,393.5115],
    [5227,1537383777,53.6549,-110.4297,758.0,178.0,356.5,2.8,1.3,9.5,47.62,1.9864,392.9508],
    [5228,1537383778,53.6556,-110.4297,757.4,177.4,356.6,2.7,1.9,9.05,47.37,1.9879,392.7949],
    [5229,1537383779,53.6563,-110.4297,757.6,177.6,355.5,4.1,2.0,9.47,47.63,1.9874,393.0517],
    [5230,1537383780,53.657,-110.4297,759.2,179.2,355.0,4.3,1.1,9.61,47.8,1.9845,393.802],
    [5231,1537383781,53.6577,-110.4298,761.6,181.6,355.7,3.7,0.7,9.34,48.51,1.9855,393.8669],
    [5232,1537383782,53.6584,-110.4298,762.9,182.9,356.0,3.4,-0.1,8.93,48.33,1.9896,393.4865],
    [5233,1537383783,53.6591,-110.4298,761.9,182.9,357.8,1.1,0.1,9.46,48.61,1.9865,392.2896],
    [5234,1537383784,53.6598,-110.4299,760.4,181.4,357.3,1.6,0.2,9.71,48.95,1.9864,392.696],
    [5235,1537383785,53.6605,-110.4299,759.5,180.5,356.7,2.3,-0.3,9.29,48.8,1.9861,391.8591],
    [5236,1537383786,53.6612,-110.4299,758.9,179.9,355.8,3.1,-0.2,9.02,48.84,1.987,393.245],
    [5237,1537383787,53.6618,-110.43,757.6,178.6,355.4,3.9,-0.3,9.44,48.94,1.986,391.8068],
    [5238,1537383788,53.6625,-110.43,756.9,177.9,354.5,4.6,-0.2,9.5,49.19,1.9844,393.5961],
    [5239,1537383789,53.6632,-110.43,756.7,177.7,354.9,4.4,-0.1,9.43,49.14,1.984,392.7526],
    [5240,1537383790,53.6639,-110.4301,757.4,178.4,354.7,4.6,0.0,9.74,49.11,1.9846,392.4392],
    [5241,1537383791,53.6646,-110.4301,757.7,178.7,354.9,4.7,0.4,9.33,48.45,1.9851,393.798],
    [5242,1537383792,53.6653,-110.4301,757.8,178.8,354.9,4.7,1.0,9.65,48.57,1.9827,393.904],
    [5243,1537383793,53.666,-110.4302,757.8,178.8,355.8,3.7,1.1,9.1,48.41,1.9794,393.3197],
    [5244,1537383794,53.6666,-110.4302,758.0,179.0,356.3,3.7,1.3,9.76,48.13,1.9825,393.1552],
    [5245,1537383795,53.6673,-110.4302,758.9,178.9,355.4,4.8,1.1,9.01,48.08,1.9847,393.613],
    [5246,1537383796,53.668,-110.4302,760.9,180.9,357.2,3.0,0.9,9.38,48.24,1.9844,392.5072],
    [5247,1537383797,53.6687,-110.4302,762.0,182.0,356.4,4.3,0.6,8.94,48.37,1.9853,392.5072],
    [5248,1537383798,53.6693,-110.4302,761.9,181.9,356.0,4.4,0.4,9.84,48.34,1.9873,393.0978],
    [5249,1537383799,53.6701,-110.4303,761.2,181.2,356.3,3.6,0.8,9.02,48.53,1.9853,393.3052],
    [5250,1537383800,53.6707,-110.4303,760.7,180.7,356.0,3.6,1.0,9.64,48.36,1.9839,393.0215],
    [5251,1537383801,53.6714,-110.4303,760.1,180.1,355.5,4.1,0.3,9.19,48.36,1.9841,393.4313],
    [5252,1537383802,53.6721,-110.4303,759.8,179.8,355.7,3.5,0.2,10.29,48.24,1.9847,392.8872],
    [5253,1537383803,53.6728,-110.4304,760.6,181.6,356.7,2.7,0.9,9.51,48.57,1.9854,394.662],
    [5254,1537383804,53.6735,-110.4304,761.7,182.7,355.1,4.4,2.7,9.51,49.14,1.9857,393.1749],
    [5255,1537383805,53.6742,-110.4304,761.5,182.5,355.6,3.5,1.7,9.73,49.09,1.9854,393.0898],
    [5256,1537383806,53.6749,-110.4305,760.9,181.9,356.9,2.0,1.4,9.27,49.79,1.9843,393.0024],
    [5257,1537383807,53.6756,-110.4305,760.5,180.5,355.9,3.2,2.3,9.57,50.36,1.9857,392.4652],
    [5258,1537383808,53.6763,-110.4305,759.9,179.9,355.7,3.0,1.7,9.57,49.87,1.9834,393.7184],
    [5259,1537383809,53.677,-110.4306,759.9,179.9,356.8,1.6,0.7,10.2,49.65,1.9839,393.2685],
    [5260,1537383810,53.6777,-110.4306,759.5,180.2,357.7,0.7,0.4,9.32,49.73,1.9811,393.7978],
    [5261,1537383811,53.6784,-110.4307,758.9,180.9,356.3,2.8,-0.2,9.79,49.53,1.9816,392.7652],
    [5262,1537383812,53.6791,-110.4307,758.3,180.2,356.5,2.7,-0.4,9.36,49.64,1.9791,393.3375],
    [5263,1537383813,53.6798,-110.4307,758.2,179.1,356.6,2.9,-0.1,9.85,48.87,1.9776,392.0203],
    [5264,1537383814,53.6805,-110.4307,758.1,178.1,357.0,2.4,-0.3,9.16,48.99,1.9779,392.0223],
    [5265,1537383815,53.6812,-110.4308,757.8,176.8,357.5,2.0,-0.5,9.42,48.55,1.9774,392.4602],
    [5266,1537383816,53.6819,-110.4308,757.8,176.8,356.7,3.1,-0.2,9.6,48.18,1.9762,393.2052],
    [5267,1537383817,53.6826,-110.4308,758.0,177.0,356.3,3.5,0.2,9.58,48.16,1.9757,392.8863],
    [5268,1537383818,53.6833,-110.4308,757.8,176.8,355.7,4.2,0.3,9.26,47.9,1.9723,392.6992],
    [5269,1537383819,53.6841,-110.4309,757.4,176.4,355.4,4.7,0.4,10.19,46.84,1.9745,392.6992],
    [5270,1537383820,53.6847,-110.4309,758.0,177.0,355.4,4.4,0.5,9.63,47.16,1.9737,393.2753],
    [5271,1537383821,53.6855,-110.4309,758.6,177.6,356.7,3.1,0.1,8.88,47.2,1.9721,392.6648],
    [5272,1537383822,53.6861,-110.4309,758.6,178.7,356.1,4.0,0.5,9.43,46.92,1.9704,393.1559],
    [5273,1537383823,53.6869,-110.431,758.0,178.0,355.8,4.0,0.9,9.8,47.18,1.9762,393.1559],
    [5274,1537383824,53.6875,-110.431,757.7,177.8,355.9,3.9,1.2,9.57,46.77,1.9758,392.1382],
    [5275,1537383825,53.6882,-110.431,757.6,176.8,355.2,4.4,1.6,9.57,46.52,1.9694,393.4685],
    [5276,1537383826,53.6889,-110.431,758.1,177.1,355.6,3.9,1.8,9.64,46.35,1.9701,393.4685],
    [5277,1537383827,53.6896,-110.4311,758.2,177.2,355.7,4.0,2.0,9.43,45.95,1.972,392.5981],
    [5278,1537383828,53.6903,-110.4311,757.9,176.2,355.9,3.8,2.0,9.68,45.46,1.9638,392.3783],
    [5279,1537383829,53.691,-110.4311,757.7,175.7,356.2,3.7,1.9,9.87,45.29,1.9635,391.8122],
    [5280,1537383830,53.6917,-110.4311,757.5,174.8,356.6,3.4,1.8,9.83,45.23,1.9689,392.4885],
    [5281,1537383831,53.6924,-110.4311,757.9,174.9,356.5,3.3,1.6,9.68,44.54,1.9776,392.1505],
    [5282,1537383832,53.6931,-110.4312,759.3,177.4,356.9,2.7,2.4,9.18,44.71,1.997,393.1372],
    [5283,1537383833,53.6938,-110.4312,759.7,177.7,356.8,2.8,3.5,10.25,44.05,1.9958,391.5715],
    [5284,1537383834,53.6945,-110.4312,759.8,178.8,356.2,3.3,3.4,9.25,44.29,1.9867,393.069],
    [5285,1537383835,53.6952,-110.4312,760.1,178.1,356.6,2.5,2.7,9.61,45.1,1.9844,392.5016],
    [5286,1537383836,53.6959,-110.4313,761.1,178.1,356.7,2.0,3.3,9.64,44.65,1.9857,393.3382],
    [5287,1537383837,53.6966,-110.4313,760.7,176.7,356.5,2.2,2.9,9.65,44.94,1.9911,392.82],
    [5288,1537383838,53.6973,-110.4313,758.6,173.3,356.6,2.1,2.0,9.3,45.42,2.0095,392.5989],
    [5289,1537383839,53.698,-110.4314,757.0,171.0,357.3,1.4,2.0,9.33,45.4,2.0156,392.9682],
    [5290,1537383840,53.6987,-110.4314,756.6,169.6,357.6,1.1,2.0,9.9,45.65,2.0187,393.5389],
    [5291,1537383841,53.6994,-110.4314,756.8,169.8,356.8,1.8,2.3,9.68,46.57,2.0175,392.5697],
    [5292,1537383842,53.7001,-110.4315,756.7,169.7,356.2,2.4,1.9,9.9,45.85,2.0168,393.9657],
    [5293,1537383843,53.7007,-110.4315,756.1,169.9,355.4,3.4,1.5,9.75,46.17,2.0207,393.0601],
    [5294,1537383844,53.7015,-110.4316,755.5,169.2,354.9,3.5,1.7,9.76,46.86,2.0193,393.0601],
    [5295,1537383845,53.7022,-110.4316,755.9,168.9,355.8,2.2,2.5,8.88,47.23,2.0149,392.8906],
    [5296,1537383846,53.7029,-110.4317,757.4,169.4,355.1,2.9,2.0,9.37,47.45,2.0091,393.2878],
    [5297,1537383847,53.7036,-110.4317,759.8,171.7,356.1,1.8,1.0,9.36,47.57,2.0083,393.5011],
    [5298,1537383848,53.7043,-110.4318,761.5,175.8,355.8,2.3,0.5,9.51,48.05,2.0118,392.6736],
    [5299,1537383849,53.705,-110.4318,762.2,178.3,355.1,3.0,0.8,9.32,47.71,2.0238,392.7623],
    [5300,1537383850,53.7056,-110.4319,762.1,179.7,355.6,2.2,0.2,10.26,47.7,2.0352,392.9409],
    [5301,1537383851,53.7063,-110.4319,762.6,180.6,355.1,2.5,0.2,9.51,48.04,2.042,391.8866],
    [5302,1537383852,53.707,-110.432,762.9,181.9,355.3,2.5,-0.3,9.53,49.13,2.0433,393.3473],
    [5303,1537383853,53.7077,-110.4321,762.4,180.4,354.7,3.5,-0.8,9.45,48.6,2.0454,392.5578],
    [5304,1537383854,53.7084,-110.4321,761.6,179.6,355.1,3.2,-0.5,10.26,48.14,2.0449,392.5578],
    [5305,1537383855,53.7091,-110.4322,761.1,179.1,355.2,3.1,0.0,9.75,48.82,2.0433,392.8822],
    [5306,1537383856,53.7098,-110.4322,760.4,178.4,355.7,2.5,0.4,9.19,49.09,2.0455,393.0436],
    [5307,1537383857,53.7105,-110.4323,760.1,178.0,356.5,1.5,0.4,9.91,48.52,2.0421,391.7666],
    [5308,1537383858,53.7112,-110.4323,760.4,179.3,356.2,2.0,0.4,9.69,48.29,2.0462,390.8963],
    [5309,1537383859,53.7119,-110.4324,760.1,180.0,354.8,3.3,0.6,9.62,48.49,2.0482,391.202],
    [5310,1537383860,53.7126,-110.4324,760.3,182.1,354.9,2.6,0.5,9.77,48.35,2.047,392.0949],
    [5311,1537383861,53.7133,-110.4325,760.4,183.6,355.1,2.3,0.8,9.32,48.56,2.046,392.3083],
    [5312,1537383862,53.714,-110.4326,759.8,185.0,354.8,3.0,0.7,9.61,48.33,2.0518,392.5931],
    [5313,1537383863,53.7147,-110.4326,759.6,185.9,354.8,3.5,0.3,9.79,48.66,2.059,392.7642],
    [5314,1537383864,53.7154,-110.4327,759.6,186.9,354.5,4.3,0.4,10.22,48.05,2.0606,392.0961],
    [5315,1537383865,53.7161,-110.4327,759.1,188.1,355.4,3.7,0.3,9.19,48.2,2.047,392.6162],
    [5316,1537383866,53.7168,-110.4327,758.2,188.4,355.6,3.9,0.3,9.1,47.96,2.0371,391.8413],
    [5317,1537383867,53.7175,-110.4328,757.9,189.8,356.2,3.4,0.4,9.77,46.97,2.0366,392.7381],
    [5318,1537383868,53.7182,-110.4328,757.5,189.5,357.0,2.9,1.0,9.85,46.84,2.0329,391.2579],
    [5319,1537383869,53.7189,-110.4328,757.3,190.4,356.2,4.0,1.4,9.45,46.49,2.035,390.6341],
    [5320,1537383870,53.7196,-110.4328,757.3,190.3,356.5,3.5,1.7,9.76,46.07,2.0385,391.2086],
    [5321,1537383871,53.7203,-110.4328,757.3,190.3,356.8,3.1,1.8,9.82,45.65,2.0425,392.6045],
    [5322,1537383872,53.721,-110.4329,757.5,190.5,356.1,3.9,2.3,9.64,45.24,2.0481,392.1805],
    [5323,1537383873,53.7217,-110.4329,757.9,189.9,356.5,3.2,2.9,9.67,45.24,2.0564,391.8275],
    [5324,1537383874,53.7224,-110.4329,758.0,190.0,356.3,3.2,2.8,9.4,45.54,2.0615,394.2593],
    [5325,1537383875,53.7231,-110.4329,758.0,189.7,357.2,2.2,1.9,9.65,45.97,2.0618,393.0098],
    [5326,1537383876,53.7238,-110.433,759.0,189.0,356.7,2.8,0.9,9.39,46.14,2.0622,392.7387],
    [5327,1537383877,53.7245,-110.433,759.8,188.8,357.0,2.3,1.1,9.37,46.23,2.0568,393.5816],
    [5328,1537383878,53.7253,-110.433,758.7,189.3,356.4,3.0,1.2,9.45,46.58,2.0582,393.1462],
    [5329,1537383879,53.726,-110.433,758.5,193.0,355.8,3.2,1.2,9.77,46.23,2.0569,393.1022],
    [5330,1537383880,53.7267,-110.4331,759.1,196.4,356.7,2.3,1.1,8.94,46.9,2.056,391.7354],
    [5331,1537383881,53.7274,-110.4331,760.0,204.0,357.5,1.3,2.1,9.03,46.94,2.0515,393.0374],
    [5332,1537383882,53.7281,-110.4331,761.0,211.5,357.4,1.5,2.3,9.77,46.64,2.0477,393.0374],
    [5333,1537383883,53.7288,-110.4332,760.7,215.3,357.2,1.6,1.8,9.8,46.92,2.0456,392.5453],
    [5334,1537383884,53.7295,-110.4332,759.7,220.3,357.1,2.0,1.0,9.89,46.96,2.0412,392.0452],
    [5335,1537383885,53.7302,-110.4332,759.4,224.4,356.1,2.9,0.0,9.52,47.34,2.0418,392.3841],
    [5336,1537383886,53.7309,-110.4333,759.6,230.1,356.5,2.3,0.0,9.01,47.02,2.0327,392.5097],
    [5337,1537383887,53.7316,-110.4333,760.2,233.4,355.4,3.5,-0.2,9.5,47.45,2.0286,393.1687],
    [5338,1537383888,53.7323,-110.4333,760.8,235.9,355.3,3.8,-0.3,9.45,47.51,2.029,392.0543],
    [5339,1537383889,53.733,-110.4334,761.9,236.9,355.3,4.1,-0.4,9.12,46.42,2.026,391.6764],
    [5340,1537383890,53.7337,-110.4334,762.9,237.8,355.4,4.3,-0.8,9.86,46.22,2.0249,392.9737],
    [5341,1537383891,53.7344,-110.4334,763.5,238.5,356.3,3.4,0.4,9.51,46.42,2.0271,393.0192],
    [5342,1537383892,53.7351,-110.4335,763.7,237.5,356.8,2.7,-0.2,9.89,46.28,2.0272,391.3764],
    [5343,1537383893,53.7358,-110.4335,762.5,236.5,356.9,2.9,-0.6,9.64,46.11,2.0238,390.4162],
    [5344,1537383894,53.7365,-110.4335,759.7,234.8,355.7,4.3,0.5,9.68,46.19,2.0236,392.3147],
    [5345,1537383895,53.7372,-110.4335,757.4,234.6,356.7,3.3,1.3,9.52,45.5,2.03,392.1779],
    [5346,1537383896,53.7379,-110.4336,756.4,236.7,356.2,3.6,1.6,8.99,45.68,2.0252,391.9919],
    [5347,1537383897,53.7387,-110.4336,756.3,243.2,357.5,1.6,2.1,9.31,45.69,2.0251,391.5056],
    [5348,1537383898,53.7394,-110.4336,755.6,246.3,354.7,3.9,2.3,9.76,45.41,2.0316,391.6195],
    [5349,1537383899,53.7401,-110.4337,755.8,246.8,354.1,2.6,2.6,9.7,45.44,2.024,391.3029],
    [5350,1537383900,53.7408,-110.4338,756.5,246.5,352.7,3.4,2.7,9.32,45.74,2.0235,392.7292],
    [5351,1537383901,53.7415,-110.4339,757.9,246.1,351.5,3.6,3.4,9.54,46.34,2.0247,392.4865],
    [5352,1537383902,53.7422,-110.434,758.3,244.6,353.8,1.1,2.5,9.82,45.4,2.026,392.3613],
    [5353,1537383903,53.7429,-110.4341,758.8,242.1,354.2,2.4,0.7,9.0,45.76,2.0274,392.4432],
    [5354,1537383904,53.7437,-110.4342,759.1,239.7,356.0,1.1,0.8,9.49,46.25,2.0275,392.216],
    [5355,1537383905,53.7444,-110.4342,758.1,236.2,358.1,0.3,0.5,10.29,45.47,2.0224,392.9697],
    [5356,1537383906,53.7451,-110.4343,757.0,229.3,358.2,1.7,-1.5,9.56,46.54,2.014,392.4313],
    [5357,1537383907,53.7458,-110.4343,757.7,224.7,359.0,1.8,-1.5,9.54,46.3,2.0045,394.0084],
    [5358,1537383908,53.7466,-110.4342,758.9,217.8,357.7,3.5,-0.4,9.82,46.04,2.0055,393.4217],
    [5359,1537383909,53.7473,-110.4342,759.7,210.5,357.9,2.7,-0.2,9.97,45.62,2.0061,392.098],
    [5360,1537383910,53.748,-110.4343,760.1,204.7,357.3,2.9,-0.2,10.08,45.28,2.0067,392.098],
    [5361,1537383911,53.7487,-110.4343,759.7,193.8,356.9,2.6,0.0,9.94,45.67,2.004,393.0672],
    [5362,1537383912,53.7494,-110.4343,759.8,186.6,356.0,3.5,-0.1,9.39,45.63,1.9996,394.3073],
    [5363,1537383913,53.7502,-110.4343,760.0,179.5,356.0,2.9,0.2,9.43,45.51,1.9986,391.5123],
    [5364,1537383914,53.7509,-110.4344,759.0,179.0,355.7,3.4,1.3,9.35,45.34,1.9986,392.5283],
    [5365,1537383915,53.7516,-110.4344,758.3,181.1,353.7,5.6,1.4,9.51,45.37,1.9994,393.0146],
    [5366,1537383916,53.7523,-110.4345,758.0,189.0,353.9,5.4,0.9,9.47,44.96,1.9982,393.0291],
    [5367,1537383917,53.753,-110.4345,758.7,195.9,354.7,4.7,1.2,10.26,44.3,1.9984,392.8256],
    [5368,1537383918,53.7538,-110.4345,758.8,201.5,355.4,4.3,0.9,10.42,44.3,1.9983,393.2056],
    [5369,1537383919,53.7545,-110.4346,758.5,199.0,356.1,3.8,0.6,9.4,44.85,1.9982,393.2056],
    [5370,1537383920,53.7552,-110.4346,757.9,192.9,356.8,3.4,0.3,9.69,45.12,1.9977,391.3719],
    [5371,1537383921,53.7559,-110.4346,758.2,186.7,357.2,3.3,0.1,10.08,44.42,1.9959,392.8447],
    [5372,1537383922,53.7566,-110.4346,758.7,185.7,357.6,3.2,0.4,9.82,44.89,1.9953,394.1202],
    [5373,1537383923,53.7573,-110.4346,758.7,184.4,357.1,3.7,0.6,9.92,43.93,1.9945,392.633],
    [5374,1537383924,53.758,-110.4346,758.5,181.5,357.1,3.5,0.6,9.07,44.17,2.0005,392.9959],
    [5375,1537383925,53.7588,-110.4346,758.1,178.1,357.3,3.2,1.0,9.16,44.45,2.0096,393.3506],
    [5376,1537383926,53.7595,-110.4346,758.3,175.3,357.1,3.1,1.7,10.37,43.79,2.0062,394.2973],
    [5377,1537383927,53.7602,-110.4347,759.2,175.2,357.0,3.0,2.2,9.74,44.25,2.0089,394.2794],
    [5378,1537383928,53.7609,-110.4347,760.1,177.0,356.7,3.0,1.6,9.28,44.68,2.0096,393.424],
    [5379,1537383929,53.7616,-110.4347,760.0,178.0,357.1,2.3,1.2,9.61,45.94,2.0076,393.424],
    [5380,1537383930,53.7623,-110.4347,759.1,177.1,356.9,2.7,0.5,9.27,45.51,2.0125,394.548],
    [5381,1537383931,53.763,-110.4347,758.5,176.5,356.1,3.6,0.1,10.19,45.33,2.0152,394.2363],
    [5382,1537383932,53.7637,-110.4348,759.4,179.5,355.8,3.9,0.3,9.86,45.73,2.0149,394.7597],
    [5383,1537383933,53.7644,-110.4348,760.0,181.0,357.1,2.0,0.6,9.81,45.86,2.0149,394.8583],
    [5384,1537383934,53.7651,-110.4348,759.8,183.6,357.9,1.0,0.2,10.32,46.16,2.0114,394.5044],
    [5385,1537383935,53.7658,-110.4349,758.9,183.5,357.1,2.2,-0.6,9.63,46.4,2.0087,393.5366],
    [5386,1537383936,53.7665,-110.4349,757.9,182.7,356.7,2.4,-0.1,9.7,46.91,2.0069,393.4217],
    [5387,1537383937,53.7672,-110.4349,757.7,180.6,356.5,2.8,0.9,10.1,46.23,2.0165,394.2161],
    [5388,1537383938,53.7679,-110.4349,758.1,181.1,355.9,3.4,1.6,9.48,46.72,2.0169,393.9128],
    [5389,1537383939,53.7686,-110.435,758.9,183.0,355.9,3.3,0.9,8.85,46.54,2.0148,394.0323],
    [5390,1537383940,53.7693,-110.435,759.8,183.7,356.5,2.5,0.0,9.44,46.81,2.0113,393.6969],
    [5391,1537383941,53.77,-110.435,761.2,186.2,357.1,1.6,0.7,10.26,46.42,2.0081,393.6414],
    [5392,1537383942,53.7707,-110.4351,761.3,186.3,356.6,2.2,1.0,9.55,47.22,2.0066,393.529],
    [5393,1537383943,53.7714,-110.4351,760.2,186.5,355.5,2.8,0.4,9.82,46.55,2.0038,395.7026],
    [5394,1537383944,53.7721,-110.4352,758.9,187.2,355.5,2.0,-0.2,8.94,46.88,2.0023,393.366],
    [5395,1537383945,53.7728,-110.4352,757.9,190.2,354.6,2.7,-0.3,9.23,46.48,2.0028,394.3108],
    [5396,1537383946,53.7735,-110.4353,757.9,191.9,353.4,4.0,-0.1,9.57,46.96,2.012,394.992],
    [5397,1537383947,53.7742,-110.4354,758.6,195.3,353.5,3.9,-0.1,9.59,46.64,2.0139,395.249],
    [5398,1537383948,53.7749,-110.4355,758.5,195.5,353.9,3.9,-0.1,9.59,46.48,2.0121,395.5425],
    [5399,1537383949,53.7756,-110.4355,758.1,194.1,354.0,4.0,0.3,9.39,47.37,2.0076,393.3323],
    [5400,1537383950,53.7763,-110.4356,758.1,194.2,354.7,3.7,0.5,9.49,46.74,1.9953,394.6342],
    [5401,1537383951,53.777,-110.4356,758.2,193.2,355.4,3.5,0.3,9.15,46.57,1.9836,394.7296],
    [5402,1537383952,53.7777,-110.4357,758.4,193.4,355.8,3.6,0.4,10.11,46.26,1.9796,395.1513],
    [5403,1537383953,53.7784,-110.4357,758.4,194.2,356.0,3.7,0.7,9.43,46.57,1.9808,394.1311],
    [5404,1537383954,53.7791,-110.4357,758.2,194.6,356.5,3.3,0.8,9.21,46.54,1.9822,394.844],
    [5405,1537383955,53.7797,-110.4357,758.0,195.0,356.6,3.5,0.9,10.0,46.65,1.9833,393.8585],
    [5406,1537383956,53.7805,-110.4358,757.3,195.4,356.7,3.5,0.8,9.56,46.98,1.9866,394.6062],
    [5407,1537383957,53.7812,-110.4358,757.7,195.7,356.4,3.8,1.3,9.51,46.74,1.9895,394.6062],
    [5408,1537383958,53.7819,-110.4358,758.3,197.1,356.7,3.4,1.4,10.05,45.96,1.992,394.3568],
    [5409,1537383959,53.7825,-110.4358,758.1,197.3,356.7,3.2,1.3,9.12,46.58,1.991,394.3351],
    [5410,1537383960,53.7832,-110.4358,758.0,198.0,357.0,2.8,1.2,9.23,46.73,1.9878,394.7467],
    [5411,1537383961,53.7839,-110.4358,758.1,199.1,356.8,2.9,1.3,9.48,46.7,1.9874,395.0675],
    [5412,1537383962,53.7846,-110.4359,757.9,198.9,356.7,2.6,1.1,9.38,46.84,1.9882,394.4098],
    [5413,1537383963,53.7853,-110.4359,757.5,198.5,357.0,2.1,1.1,10.09,46.32,1.9902,394.9372],
    [5414,1537383964,53.786,-110.4359,757.9,198.4,356.6,2.6,1.6,9.08,47.0,1.995,396.0739],
    [5415,1537383965,53.7867,-110.436,758.6,198.6,355.9,3.2,2.3,9.47,47.24,1.9977,394.4591],
    [5416,1537383966,53.7874,-110.436,758.8,198.6,355.7,3.3,2.8,9.49,47.57,1.9991,394.0021],
    [5417,1537383967,53.7881,-110.436,758.9,197.9,355.9,3.2,3.1,9.77,47.04,2.0029,393.5396],
    [5418,1537383968,53.7887,-110.436,759.1,198.2,355.5,3.7,3.4,9.45,47.66,2.0034,394.5801],
    [5419,1537383969,53.7894,-110.4361,759.7,197.7,355.4,3.8,2.8,9.55,48.34,1.996,393.541],
    [5420,1537383970,53.7901,-110.4361,760.0,198.1,357.1,1.6,1.9,9.61,47.91,1.9902,393.9843],
    [5421,1537383971,53.7908,-110.4361,759.2,196.2,357.9,1.0,1.1,9.76,47.58,1.9898,394.197],
    [5422,1537383972,53.7915,-110.4362,759.2,195.9,356.7,2.6,-0.1,9.53,48.04,1.9871,394.3867],
    [5423,1537383973,53.7922,-110.4362,759.9,196.0,356.6,2.3,-0.2,9.55,47.99,1.9869,394.3288],
    [5424,1537383974,53.7929,-110.4362,759.9,194.9,357.5,1.3,0.7,9.44,47.84,1.9878,392.6111],
    [5425,1537383975,53.7936,-110.4363,758.9,193.9,356.3,2.7,0.5,9.73,47.51,1.9869,392.0172],
    [5426,1537383976,53.7943,-110.4363,757.8,191.8,356.3,2.5,-0.2,9.49,47.86,1.9871,395.0758],
    [5427,1537383977,53.795,-110.4363,756.8,189.2,356.7,1.9,0.2,9.84,47.66,1.985,394.1118],
    [5428,1537383978,53.7957,-110.4364,755.7,185.4,356.7,2.1,0.9,9.54,47.7,1.9844,394.0762],
    [5429,1537383979,53.7964,-110.4364,754.8,179.4,356.1,2.7,0.8,9.44,47.49,1.9825,393.5105],
    [5430,1537383980,53.7971,-110.4365,754.7,177.4,356.8,1.9,0.0,9.77,47.27,1.9775,393.9544],
    [5431,1537383981,53.7978,-110.4365,755.2,177.8,357.0,1.5,0.0,9.44,47.59,1.9778,394.1093],
    [5432,1537383982,53.7985,-110.4365,755.7,180.0,357.1,1.3,0.0,9.36,47.04,1.9785,394.7435],
    [5433,1537383983,53.7992,-110.4366,756.4,182.3,356.2,2.3,0.2,9.55,46.84,1.9801,393.0484],
    [5434,1537383984,53.7999,-110.4366,757.2,185.1,356.0,2.5,0.7,9.23,47.04,1.9813,393.0484],
    [5435,1537383985,53.8006,-110.4367,757.4,187.1,355.6,2.7,1.1,8.93,46.87,1.9804,394.3222],
    [5436,1537383986,53.8013,-110.4367,756.7,188.9,356.3,1.9,1.1,9.36,47.05,1.9807,394.3222],
    [5437,1537383987,53.802,-110.4368,756.4,192.5,355.8,2.7,1.7,9.28,47.15,1.9828,394.4498],
    [5438,1537383988,53.8026,-110.4368,758.0,194.8,355.1,3.4,2.1,9.31,47.27,1.9834,395.4284],
    [5439,1537383989,53.8033,-110.4368,759.0,196.0,355.6,2.9,2.8,9.38,47.55,1.9837,395.5413],
    [5440,1537383990,53.804,-110.4369,759.4,195.6,356.1,2.6,2.3,9.42,48.33,1.9838,394.5349],
    [5441,1537383991,53.8047,-110.4369,760.2,196.0,357.6,1.7,2.6,9.72,47.55,1.9815,394.2424],
    [5442,1537383992,53.8054,-110.4369,761.0,196.3,357.4,2.5,3.1,9.28,47.69,1.9821,394.5915],
    [5443,1537383993,53.8061,-110.4369,761.7,196.0,356.8,3.1,3.9,10.03,47.44,1.9845,392.911],
    [5444,1537383994,53.8068,-110.437,761.5,193.9,356.8,2.8,4.9,9.31,47.78,1.9848,393.45],
    [5445,1537383995,53.8075,-110.437,760.5,188.9,356.1,3.3,3.3,8.96,47.87,1.9838,393.8118],
    [5446,1537383996,53.8081,-110.437,758.9,184.5,356.0,3.4,2.3,9.25,48.35,1.9846,394.7411],
    [5447,1537383997,53.8089,-110.437,757.3,179.3,355.2,3.3,3.1,9.38,48.28,1.9841,394.8146],
    [5448,1537383998,53.8096,-110.4371,756.2,172.2,356.7,1.5,3.0,10.09,48.18,1.9853,394.9702],
    [5449,1537383999,53.8103,-110.4371,756.3,166.3,355.2,3.7,2.7,9.5,48.46,1.9856,394.9364],
    [5450,1537384000,53.811,-110.4372,756.1,163.4,355.5,3.2,2.6,9.71,48.0,1.9842,394.4863],
    [5451,1537384001,53.8117,-110.4372,755.9,160.9,356.4,2.3,2.8,9.57,48.41,1.9838,395.6747],
    [5452,1537384002,53.8124,-110.4373,756.2,160.1,356.7,1.8,2.4,9.42,48.22,1.9855,395.8222],
    [5453,1537384003,53.8131,-110.4373,756.6,160.6,357.3,1.1,2.7,10.15,47.81,1.9856,395.0649],
    [5454,1537384004,53.8138,-110.4373,757.1,160.0,357.0,1.3,2.9,9.06,48.13,1.9836,395.9719],
    [5455,1537384005,53.8145,-110.4374,757.7,161.4,356.6,1.6,2.4,9.56,48.2,2.048,394.601],
    [5456,1537384006,53.8152,-110.4374,759.1,163.1,356.9,0.9,2.0,9.5,48.17,2.0369,393.4531],
    [5457,1537384007,53.8159,-110.4375,760.3,164.3,357.2,0.7,2.2,9.83,48.6,2.0107,393.293],
    [5458,1537384008,53.8166,-110.4375,760.1,164.2,355.1,3.1,1.0,9.29,48.31,1.9966,394.3091],
    [5459,1537384009,53.8173,-110.4376,758.4,162.2,355.1,2.7,0.0,9.31,48.3,1.9925,394.3058],
    [5460,1537384010,53.818,-110.4376,756.9,159.8,354.7,2.9,0.3,9.4,48.05,1.9932,394.3572],
    [5461,1537384011,53.8187,-110.4377,755.7,157.7,355.0,2.3,0.5,9.35,48.57,1.9948,393.8676],
    [5462,1537384012,53.8195,-110.4378,755.3,157.3,355.3,2.0,0.7,9.42,48.16,1.9959,392.9408],
    [5463,1537384013,53.8201,-110.4378,755.7,158.4,354.7,2.8,1.0,9.0,47.66,1.9959,394.0456],
    [5464,1537384014,53.8208,-110.4379,756.3,160.3,354.5,3.4,1.0,9.66,47.49,1.9898,394.426],
    [5465,1537384015,53.8216,-110.438,756.7,160.7,354.8,3.2,1.3,9.7,47.63,1.9935,393.9819],
    [5466,1537384016,53.8223,-110.438,756.4,160.4,355.0,3.5,1.9,9.11,47.58,1.9926,393.5452],
    [5467,1537384017,53.823,-110.4381,756.0,160.0,355.2,3.3,1.8,9.43,47.3,1.9989,394.621],
    [5468,1537384018,53.8236,-110.4381,756.0,160.0,355.5,3.0,1.7,9.8,47.2,2.0005,394.3134],
    [5469,1537384019,53.8243,-110.4382,756.1,159.2,355.1,3.3,1.9,9.24,46.85,1.9963,394.4266],
    [5470,1537384020,53.825,-110.4382,756.1,159.1,355.0,3.6,1.9,9.4,47.11,1.9922,393.5102],
    [5471,1537384021,53.8257,-110.4382,756.6,159.3,354.7,3.9,1.6,9.31,46.95,1.9895,392.9901],
    [5472,1537384022,53.8264,-110.4383,757.3,159.0,355.7,3.2,1.4,9.35,46.97,1.9874,392.0426],
    [5473,1537384023,53.8271,-110.4383,757.5,158.5,355.6,3.5,1.3,9.08,46.74,1.9847,394.5079],
    [5474,1537384024,53.8278,-110.4384,757.4,157.4,355.9,3.4,1.2,9.36,46.76,1.9829,393.8712],
    [5475,1537384025,53.8285,-110.4384,757.4,156.7,355.8,3.8,1.1,9.55,47.03,1.9802,394.197],
    [5476,1537384026,53.8292,-110.4384,757.4,156.4,355.6,4.0,1.1,9.22,46.35,1.9746,394.5134],
    [5477,1537384027,53.8299,-110.4384,757.2,155.3,355.8,3.7,1.3,9.37,46.06,1.9731,393.5714],
    [5478,1537384028,53.8306,-110.4385,757.0,154.7,355.5,4.2,1.5,9.63,45.65,1.9707,393.7936],
    [5479,1537384029,53.8313,-110.4385,757.0,154.0,355.7,4.0,1.4,10.04,45.01,1.9753,393.2214],
    [5480,1537384030,53.832,-110.4385,758.2,153.2,355.5,4.2,1.3,9.95,44.89,1.9762,393.152],
    [5481,1537384031,53.8327,-110.4385,758.8,152.9,356.0,3.4,1.7,9.41,45.61,1.9756,393.7896],
    [5482,1537384032,53.8334,-110.4386,758.7,150.0,357.0,2.5,2.3,9.37,45.66,1.9778,393.2329],
    [5483,1537384033,53.834,-110.4386,759.2,148.8,356.3,3.6,2.5,9.87,45.47,1.9767,394.6908],
    [5484,1537384034,53.8347,-110.4386,760.2,147.0,356.5,3.1,2.1,9.62,46.11,1.9733,392.8266],
    [5485,1537384035,53.8354,-110.4386,759.1,144.1,356.6,2.9,1.5,9.04,45.72,1.9743,392.3962],
    [5486,1537384036,53.8361,-110.4387,757.3,139.3,356.2,3.4,1.3,9.57,45.9,1.976,394.0975],
    [5487,1537384037,53.8368,-110.4387,756.0,137.0,356.0,3.6,1.4,9.77,45.51,1.975,392.5722],
    [5488,1537384038,53.8375,-110.4387,755.5,135.5,357.1,2.5,1.8,9.72,46.36,1.9748,394.7218],
    [5489,1537384039,53.8382,-110.4387,755.3,134.3,356.8,3.1,2.4,10.31,45.53,1.9763,394.2315],
    [5490,1537384040,53.8389,-110.4387,755.1,134.1,356.4,3.6,3.0,9.52,45.98,1.9774,394.0975],
    [5491,1537384041,53.8396,-110.4388,754.9,132.9,356.4,3.6,3.3,9.3,46.05,1.9748,392.4722],
    [5492,1537384042,53.8403,-110.4388,755.2,133.2,356.0,4.0,3.1,9.27,46.21,1.9752,394.153],
    [5493,1537384043,53.841,-110.4388,755.7,133.7,355.8,4.0,2.8,8.82,46.33,1.9771,393.5218],
    [5494,1537384044,53.8417,-110.4388,756.6,134.6,356.4,3.3,1.7,9.47,46.55,2.0008,394.2544],
    [5495,1537384045,53.8424,-110.4388,758.0,136.0,356.8,2.4,1.2,9.29,46.47,2.0822,394.4732],
    [5496,1537384046,53.843,-110.4389,759.6,136.6,357.7,1.3,1.8,9.5,46.6,2.0949,394.295],
    [5497,1537384047,53.8437,-110.4389,759.3,136.3,356.1,3.4,1.4,9.92,46.2,2.0872,393.0],
    [5498,1537384048,53.8444,-110.4389,758.5,135.5,355.7,3.7,0.9,9.4,46.77,2.0118,393.5704],
    [5499,1537384049,53.8451,-110.439,757.9,134.9,355.9,3.5,1.1,9.51,46.86,1.9953,393.9231],
    [5500,1537384050,53.8458,-110.439,757.9,134.9,356.6,2.4,1.1,9.02,46.93,2.0251,393.9573],
    [5501,1537384051,53.8465,-110.439,756.8,133.8,357.9,1.2,0.7,9.33,46.84,2.011,393.6813],
    [5502,1537384052,53.8472,-110.439,755.0,132.0,356.7,2.5,0.8,9.42,46.43,1.983,393.7222],
    [5503,1537384053,53.8479,-110.4391,754.2,131.2,356.6,2.4,1.2,9.22,46.56,1.9711,393.5221],
    [5504,1537384054,53.8485,-110.4391,754.6,131.6,356.3,2.5,1.2,9.53,46.14,1.9721,393.4683],
    [5505,1537384055,53.8493,-110.4392,755.6,132.6,356.8,1.5,1.9,9.34,45.93,1.9752,393.3026],
    [5506,1537384056,53.85,-110.4392,755.2,132.2,356.3,2.0,2.0,9.51,45.58,1.9755,393.8004],
    [5507,1537384057,53.8507,-110.4392,753.7,130.7,355.9,2.2,1.6,9.68,45.72,1.9696,394.3144],
    [5508,1537384058,53.8514,-110.4393,753.0,130.0,355.6,2.5,1.6,10.13,45.15,1.9693,394.4057],
    [5509,1537384059,53.8521,-110.4393,753.0,130.7,355.5,2.7,1.6,9.59,45.32,1.9725,394.8814],
    [5510,1537384060,53.8528,-110.4394,753.3,131.0,355.2,3.2,1.6,9.53,45.26,1.9714,393.8622],
    [5511,1537384061,53.8535,-110.4394,753.6,131.6,355.5,2.9,2.3,9.65,45.58,1.9742,394.3071],
    [5512,1537384062,53.8542,-110.4395,753.7,131.7,355.1,3.6,2.4,9.17,45.37,1.9789,394.4393],
    [5513,1537384063,53.8549,-110.4395,754.2,132.2,355.4,3.6,2.1,9.55,45.98,1.988,395.3512],
    [5514,1537384064,53.8556,-110.4396,754.6,132.6,356.1,2.9,2.1,10.05,44.85,1.9861,395.0778],
    [5515,1537384065,53.8563,-110.4396,755.1,134.1,356.4,2.7,2.3,9.71,45.6,1.9801,394.1995],
    [5516,1537384066,53.857,-110.4396,755.5,135.5,356.0,3.2,3.0,9.74,45.71,1.9846,393.3551],
    [5517,1537384067,53.8577,-110.4397,756.6,137.6,356.1,2.9,4.0,9.38,46.1,1.9909,393.4897],
    [5518,1537384068,53.8584,-110.4397,757.8,140.5,356.7,2.3,4.1,9.49,46.26,1.9979,393.9113],
    [5519,1537384069,53.859,-110.4397,758.4,141.4,356.1,3.2,3.5,9.33,46.1,1.9908,394.1564],
    [5520,1537384070,53.8597,-110.4397,759.0,143.0,356.1,2.9,3.3,9.57,46.39,1.9722,393.869],
    [5521,1537384071,53.8604,-110.4398,761.0,145.0,355.2,4.2,3.4,9.53,46.26,1.9708,394.8896],
    [5522,1537384072,53.8611,-110.4398,763.0,147.0,355.0,4.1,3.5,9.37,45.69,1.9699,393.8531],
    [5523,1537384073,53.8618,-110.4398,763.0,147.8,356.5,2.6,3.2,9.52,45.54,1.9676,393.8531],
    [5524,1537384074,53.8625,-110.4399,763.0,148.8,356.2,3.4,2.6,9.46,45.39,1.9732,393.6567],
    [5525,1537384075,53.8632,-110.4399,764.4,150.9,356.3,3.9,2.4,9.23,45.22,1.9864,393.7884],
    [5526,1537384076,53.8639,-110.4399,766.3,155.6,356.5,4.0,2.3,9.33,45.36,1.9872,394.2347],
    [5527,1537384077,53.8646,-110.4399,767.7,158.7,358.0,2.2,2.7,9.49,45.21,1.9972,393.0275],
    [5528,1537384078,53.8653,-110.4399,768.6,161.4,358.6,2.0,2.7,9.26,45.14,1.9964,393.6621],
    [5529,1537384079,53.8659,-110.4399,770.4,163.4,358.8,1.5,2.4,9.72,45.9,1.9879,393.9119],
    [5530,1537384080,53.8666,-110.4399,771.9,163.9,359.0,1.3,2.1,9.49,45.73,2.001,394.1835],
    [5531,1537384081,53.8673,-110.4399,772.9,163.9,356.9,2.8,2.4,9.58,46.52,2.0127,395.1539],
    [5532,1537384082,53.868,-110.4399,773.7,163.7,357.0,2.3,2.4,9.5,46.49,1.9883,393.3442],
    [5533,1537384083,53.8687,-110.44,774.3,164.3,355.4,3.4,2.8,9.43,46.58,1.9851,393.3442],
    [5534,1537384084,53.8694,-110.44,775.3,165.3,355.1,3.2,2.5,9.8,46.97,1.9788,393.2787],
    [5535,1537384085,53.8701,-110.4401,776.0,166.0,355.3,2.6,1.8,9.54,47.51,1.979,394.9456],
    [5536,1537384086,53.8707,-110.4401,776.8,166.8,355.4,2.6,2.0,10.21,47.12,1.9854,394.743],
    [5537,1537384087,53.8714,-110.4402,778.0,168.0,355.3,2.8,2.5,9.96,47.53,1.981,394.6788],
    [5538,1537384088,53.8721,-110.4402,779.4,169.4,356.3,1.6,3.0,9.55,48.43,1.9812,394.5743],
    [5539,1537384089,53.8728,-110.4402,779.8,169.8,356.3,2.2,2.6,9.02,47.91,1.9757,393.6558],
    [5540,1537384090,53.8735,-110.4403,780.2,170.2,356.0,2.4,3.1,9.76,48.24,1.9734,393.6833],
    [5541,1537384091,53.8741,-110.4403,781.9,171.9,356.3,2.1,3.0,8.98,47.83,1.9742,393.9147],
    [5542,1537384092,53.8748,-110.4404,784.3,174.0,355.6,2.9,2.2,9.14,48.04,1.9737,393.9999],
    [5543,1537384093,53.8755,-110.4404,787.0,176.0,355.0,3.5,2.1,9.5,48.16,1.975,393.9972],
    [5544,1537384094,53.8761,-110.4404,788.1,176.1,354.7,3.8,2.2,9.1,48.26,1.9713,393.8858],
    [5545,1537384095,53.8768,-110.4405,787.5,174.8,353.9,4.5,2.2,9.76,47.84,1.9671,394.4793],
    [5546,1537384096,53.8775,-110.4405,787.5,173.8,354.2,4.2,1.7,9.15,48.29,1.9693,392.9486],
    [5547,1537384097,53.8782,-110.4406,788.8,174.8,354.9,3.2,1.6,9.78,47.47,1.9696,394.7351],
    [5548,1537384098,53.8789,-110.4406,790.0,175.0,356.6,2.0,1.6,9.72,46.88,1.9673,394.9427],
    [5549,1537384099,53.8795,-110.4407,789.5,173.5,354.1,5.1,1.6,9.17,47.59,1.9641,393.9781],
    [5550,1537384100,53.8802,-110.4407,787.1,171.2,355.3,3.6,1.2,9.68,47.3,1.9608,393.4619],
    [5551,1537384101,53.8809,-110.4408,784.5,167.1,354.9,4.4,0.6,9.73,46.24,1.9634,394.4923],
    [5552,1537384102,53.8816,-110.4408,784.1,166.1,354.6,4.7,0.7,9.36,46.4,1.967,394.3028],
    [5553,1537384103,53.8823,-110.4408,784.6,165.3,355.6,3.6,1.0,9.57,45.57,1.9679,393.5888],
    [5554,1537384104,53.883,-110.4409,784.5,164.5,355.6,3.9,0.9,9.57,45.8,1.9651,394.6929],
    [5555,1537384105,53.8837,-110.4409,784.5,163.5,355.7,3.9,0.6,9.49,45.37,1.967,393.765],
    [5556,1537384106,53.8844,-110.4409,784.9,162.9,356.4,3.1,0.8,9.5,45.21,1.9704,393.4652],
    [5557,1537384107,53.885,-110.4409,786.1,164.1,356.7,2.6,1.9,10.31,44.78,1.9732,394.0938],
    [5558,1537384108,53.8857,-110.441,786.6,164.6,356.8,2.5,2.4,9.61,45.01,1.976,394.4948],
    [5559,1537384109,53.8864,-110.441,786.1,165.2,356.1,3.5,2.4,10.12,44.56,1.9829,394.1262],
    [5560,1537384110,53.8871,-110.441,785.8,165.1,355.7,3.8,2.3,9.48,45.01,1.9814,394.8987],
    [5561,1537384111,53.8878,-110.441,785.7,166.8,355.8,3.6,2.2,9.63,44.95,1.9754,393.6609],
    [5562,1537384112,53.8885,-110.4411,785.9,166.9,356.0,3.3,1.6,10.19,44.28,1.9733,394.8498],
    [5563,1537384113,53.8892,-110.4411,785.3,167.3,356.5,2.7,1.7,9.53,45.0,1.9724,395.864],
    [5564,1537384114,53.8898,-110.4411,785.5,167.5,356.0,3.4,1.6,9.28,45.05,1.9701,395.6184],
    [5565,1537384115,53.8906,-110.4412,787.5,168.5,356.5,2.4,1.8,9.01,45.15,1.967,395.1276],
    [5566,1537384116,53.8913,-110.4412,789.0,170.0,356.1,2.9,2.0,10.22,44.53,1.9656,395.1276],
    [5567,1537384117,53.892,-110.4412,788.0,170.0,355.0,3.9,1.8,9.56,44.85,1.9605,395.0458],
    [5568,1537384118,53.8927,-110.4413,786.8,169.5,355.5,3.3,2.4,9.34,44.88,1.9638,395.0458],
    [5569,1537384119,53.8933,-110.4413,786.8,170.8,354.7,4.4,3.0,9.08,44.63,1.963,394.5026],
    [5570,1537384120,53.894,-110.4413,786.9,172.0,354.3,4.8,2.7,9.21,44.47,1.9631,394.9416],
    [5571,1537384121,53.8947,-110.4414,786.4,172.4,355.1,4.4,2.1,9.88,43.79,1.9652,394.279],
    [5572,1537384122,53.8954,-110.4414,786.7,173.7,354.5,5.4,2.5,9.12,44.34,1.968,395.4768],
    [5573,1537384123,53.8961,-110.4414,787.9,174.9,355.6,3.9,3.4,8.89,44.37,1.9668,394.5598],
    [5574,1537384124,53.8968,-110.4415,788.1,174.4,355.3,4.5,3.8,9.82,43.73,1.9662,394.4809],
    [5575,1537384125,53.8975,-110.4415,788.3,174.3,355.2,4.4,4.4,9.2,44.48,1.9734,396.3168],
    [5576,1537384126,53.8982,-110.4415,788.6,174.6,356.8,3.0,4.2,9.46,44.59,1.9763,395.6689],
    [5577,1537384127,53.8989,-110.4415,787.9,173.9,356.4,3.9,3.6,9.46,44.24,1.9725,395.6107],
    [5578,1537384128,53.8996,-110.4415,786.7,172.7,356.4,3.9,3.0,9.75,43.9,1.9664,394.8442],
    [5579,1537384129,53.9003,-110.4415,785.3,171.6,355.5,5.2,2.6,9.56,44.24,1.9683,395.8941],
    [5580,1537384130,53.901,-110.4416,785.3,171.6,354.4,6.3,2.5,9.37,44.56,1.9697,395.9417],
    [5581,1537384131,53.9017,-110.4416,787.1,174.1,354.9,5.2,2.2,8.94,44.51,1.9711,395.9425],
    [5582,1537384132,53.9024,-110.4416,788.6,175.6,354.6,5.0,1.4,9.52,44.86,1.9722,395.7973],
    [5583,1537384133,53.9031,-110.4416,790.3,177.3,356.1,3.3,1.3,9.81,44.17,1.9733,394.9389],
    [5584,1537384134,53.9038,-110.4417,790.7,178.7,355.2,4.6,2.2,9.92,45.09,1.9729,396.1812],
    [5585,1537384135,53.9045,-110.4417,790.4,179.4,355.3,4.3,2.4,9.38,45.44,1.9725,395.5354],
    [5586,1537384136,53.9052,-110.4417,789.8,178.8,356.8,2.8,2.5,9.72,45.77,1.9712,395.4803],
    [5587,1537384137,53.9058,-110.4417,788.4,177.0,357.0,2.8,2.7,9.14,45.34,1.9706,394.806],
    [5588,1537384138,53.9066,-110.4418,787.5,175.3,357.5,2.4,3.0,9.55,45.45,1.9698,395.7583],
    [5589,1537384139,53.9073,-110.4418,787.6,174.6,357.2,2.6,3.4,9.3,45.66,1.9711,395.4575],
    [5590,1537384140,53.908,-110.4418,787.1,174.1,356.2,3.9,3.4,9.43,45.6,1.9714,396.9309],
    [5591,1537384141,53.9087,-110.4418,786.4,172.4,355.8,4.0,2.4,9.37,45.39,1.9721,394.7076],
    [5592,1537384142,53.9093,-110.4418,786.7,171.8,356.4,3.2,1.1,9.16,46.12,1.9711,395.9462],
    [5593,1537384143,53.9101,-110.4419,787.3,170.6,357.0,2.8,0.9,9.43,46.27,1.9716,395.0976],
    [5594,1537384144,53.9108,-110.4419,786.7,169.7,356.1,3.5,1.4,9.62,46.45,1.9711,395.0976],
    [5595,1537384145,53.9115,-110.4419,785.4,167.3,356.7,2.4,1.3,9.44,46.82,1.9726,395.5518],
    [5596,1537384146,53.9122,-110.4419,785.0,167.1,355.8,3.3,2.0,9.23,46.12,1.9714,396.2441],
    [5597,1537384147,53.9129,-110.442,785.6,165.6,355.5,3.6,2.8,9.37,46.3,1.9704,395.1871],
    [5598,1537384148,53.9136,-110.442,785.8,164.7,355.3,3.7,2.4,9.96,46.24,1.9717,396.41],
    [5599,1537384149,53.9143,-110.442,786.3,164.3,354.7,4.0,2.0,10.05,45.62,1.9725,396.7177],
    [5600,1537384150,53.9149,-110.4421,787.2,164.2,354.1,4.4,1.6,9.38,46.44,1.9722,395.9809],
    [5601,1537384151,53.9157,-110.4422,788.8,165.4,354.6,3.9,1.3,9.36,46.25,1.9718,395.9872],
    [5602,1537384152,53.9164,-110.4422,789.3,165.3,355.7,2.9,0.7,10.08,46.11,1.9703,395.1791],
    [5603,1537384153,53.9171,-110.4422,789.2,162.9,355.5,3.7,0.0,9.34,46.24,1.9688,395.5543],
    [5604,1537384154,53.9178,-110.4423,788.8,161.6,355.4,4.0,-0.1,9.45,47.1,1.9697,394.8444],
    [5605,1537384155,53.9185,-110.4423,788.8,160.5,354.7,4.9,0.5,9.11,46.26,1.9726,395.4678],
    [5606,1537384156,53.9192,-110.4423,789.9,160.6,355.1,4.0,0.7,9.16,45.97,1.9789,395.0167],
    [5607,1537384157,53.9199,-110.4424,791.0,160.8,355.4,3.9,0.8,9.38,45.74,1.9737,394.6177],
    [5608,1537384158,53.9206,-110.4424,790.5,160.2,354.1,5.2,1.3,9.07,45.42,1.9706,394.9193],
    [5609,1537384159,53.9213,-110.4425,789.0,158.1,354.4,5.0,0.8,9.27,45.54,1.9666,394.9303],
    [5610,1537384160,53.922,-110.4425,787.9,155.9,354.9,4.7,0.3,9.29,45.61,1.9644,395.0043],
    [5611,1537384161,53.9227,-110.4425,786.8,153.9,356.1,3.5,1.0,9.39,44.89,1.9638,394.692],
    [5612,1537384162,53.9234,-110.4426,785.7,151.3,356.9,2.9,1.6,9.7,44.3,1.9646,394.4049],
    [5613,1537384163,53.9241,-110.4426,785.8,150.7,356.5,3.6,1.6,9.7,43.11,1.9657,393.805],
    [5614,1537384164,53.9247,-110.4426,786.0,149.1,356.6,3.2,1.8,9.72,43.26,1.9681,394.9792],
    [5615,1537384165,53.9255,-110.4426,785.6,148.7,356.7,3.3,2.3,9.14,43.32,1.9719,395.7776],
    [5616,1537384166,53.9262,-110.4426,786.3,148.4,355.0,5.0,2.9,9.67,43.13,1.9772,396.3146],
    [5617,1537384167,53.9269,-110.4427,787.7,149.0,355.2,4.3,2.7,9.13,44.04,1.9762,396.3146],
    [5618,1537384168,53.9276,-110.4427,787.8,149.6,355.5,4.2,2.0,9.09,43.97,1.9751,395.558],
    [5619,1537384169,53.9283,-110.4427,786.7,148.8,356.1,3.6,1.8,9.47,44.47,1.9756,396.2069],
    [5620,1537384170,53.929,-110.4427,785.7,147.0,356.9,2.9,2.2,10.2,44.01,1.973,396.2808],
    [5621,1537384171,53.9297,-110.4427,785.4,146.4,356.6,3.8,2.7,9.51,44.89,1.9744,395.0983],
    [5622,1537384172,53.9304,-110.4427,785.6,146.6,357.7,3.0,2.3,9.68,44.45,1.9744,394.9743],
    [5623,1537384173,53.931,-110.4427,785.5,147.4,358.2,3.1,1.8,9.73,44.67,1.9744,395.6784],
    [5624,1537384174,53.9318,-110.4427,785.4,148.3,358.5,2.9,2.4,8.93,44.97,1.9741,396.0461],
    [5625,1537384175,53.9324,-110.4427,786.7,149.7,358.5,2.5,2.9,9.39,45.03,1.9747,396.3511],
    [5626,1537384176,53.9331,-110.4427,786.7,150.9,357.7,3.2,3.0,9.57,45.11,1.9746,393.4842],
    [5627,1537384177,53.9339,-110.4427,786.2,150.2,358.1,2.5,3.3,8.99,45.77,1.975,395.9024],
    [5628,1537384178,53.9345,-110.4427,785.3,150.4,357.9,3.6,2.8,9.48,45.57,1.9765,395.6463],
    [5629,1537384179,53.9352,-110.4427,784.9,150.1,358.1,3.7,2.8,9.53,45.84,1.9763,396.5322],
    [5630,1537384180,53.9359,-110.4427,784.7,150.7,359.4,2.8,3.2,9.1,46.16,1.9764,394.07],
    [5631,1537384181,53.9366,-110.4426,785.1,151.7,358.9,3.4,3.6,9.38,45.6,1.9755,397.0312],
    [5632,1537384182,53.9373,-110.4426,785.8,154.0,359.3,2.3,2.7,9.26,46.09,1.9731,395.661],
    [5633,1537384183,53.9381,-110.4426,786.3,154.6,360.2,1.2,1.7,9.77,45.96,1.9726,394.7704],
    [5634,1537384184,53.9388,-110.4426,787.5,157.6,358.5,2.9,2.2,9.59,46.02,1.9727,395.4647],
    [5635,1537384185,53.9395,-110.4426,788.3,159.3,357.9,3.2,2.4,10.0,45.45,1.9752,394.9689],
    [5636,1537384186,53.9402,-110.4426,787.4,159.5,357.6,2.7,2.5,9.75,46.5,1.9772,394.9685],
    [5637,1537384187,53.9408,-110.4426,785.1,158.1,357.1,3.0,2.2,8.83,46.38,1.979,394.9685],
    [5638,1537384188,53.9416,-110.4426,783.2,156.8,356.0,3.9,1.3,9.33,46.76,1.977,396.1516],
    [5639,1537384189,53.9423,-110.4426,783.0,157.0,356.5,2.9,1.4,9.25,46.51,1.9794,395.8284],
    [5640,1537384190,53.943,-110.4426,783.6,157.9,357.6,1.8,2.6,9.29,46.47,1.9757,395.6837],
    [5641,1537384191,53.9437,-110.4427,783.8,157.8,357.3,2.2,2.7,9.33,46.28,1.9753,395.6837],
    [5642,1537384192,53.9443,-110.4427,784.1,157.6,356.7,3.0,1.4,9.19,46.41,1.9765,395.8037],
    [5643,1537384193,53.9451,-110.4427,785.6,158.5,356.7,2.2,1.1,9.12,46.37,1.9763,395.4168],
    [5644,1537384194,53.9458,-110.4427,787.5,160.5,356.3,2.9,0.8,9.43,46.69,1.9771,395.5096],
    [5645,1537384195,53.9465,-110.4428,788.4,161.7,355.1,3.9,0.1,10.08,46.65,1.9783,396.7191],
    [5646,1537384196,53.9472,-110.4428,788.4,161.4,355.6,3.8,0.2,9.47,46.97,1.9801,395.5481],
    [5647,1537384197,53.9478,-110.4428,787.6,161.6,353.5,6.4,0.1,9.64,47.62,1.9797,394.7963],
    [5648,1537384198,53.9485,-110.4429,786.6,160.6,354.6,5.2,0.5,9.46,47.47,1.9804,395.5945],
    [5649,1537384199,53.9492,-110.4429,787.0,161.7,355.2,4.8,0.6,9.45,47.26,1.9807,396.7045],
    [5650,1537384200,53.9499,-110.4429,787.5,162.5,356.6,3.6,-0.8,9.5,47.3,1.9794,396.8961],
    [5651,1537384201,53.9506,-110.4429,787.7,163.4,357.1,3.8,-1.9,9.58,47.94,1.9714,393.2745],
    [5652,1537384202,53.9513,-110.4429,788.8,163.8,356.5,4.7,-1.3,9.46,47.22,1.9657,395.1347],
    [5653,1537384203,53.952,-110.4429,790.0,164.0,357.7,3.6,-0.8,9.1,46.93,1.9622,394.4476],
    [5654,1537384204,53.9527,-110.4429,790.1,164.1,356.8,5.4,-0.5,9.62,46.79,1.9548,393.5081],
    [5655,1537384205,53.9534,-110.4429,789.0,163.0,356.0,6.1,-0.3,9.47,45.97,1.955,393.5081],
    [5656,1537384206,53.9541,-110.4429,787.3,161.3,355.6,6.2,0.1,9.8,44.36,1.9564,393.54],
    [5657,1537384207,53.9548,-110.4429,786.1,161.1,355.0,6.4,0.7,9.56,44.42,1.9556,392.1867],
    [5658,1537384208,53.9555,-110.4429,784.8,159.8,355.5,5.6,1.2,9.42,43.27,1.9563,393.2894],
    [5659,1537384209,53.9562,-110.4429,783.2,159.2,355.8,5.4,1.6,8.91,42.67,1.9563,392.5583],
    [5660,1537384210,53.9569,-110.4429,782.5,159.2,356.6,4.4,2.0,9.86,41.82,1.9545,392.5152],
    [5661,1537384211,53.9576,-110.4429,782.3,160.3,356.9,4.2,2.3,9.18,42.23,1.9568,391.3007],
    [5662,1537384212,53.9583,-110.4429,782.6,160.6,356.3,5.0,2.4,9.31,41.62,1.9643,393.6692],
    [5663,1537384213,53.959,-110.4429,783.8,161.8,355.4,5.7,2.3,9.39,41.83,1.9618,393.8337],
    [5664,1537384214,53.9597,-110.4429,784.2,163.2,356.4,4.5,1.9,9.64,41.82,1.9604,394.3553],
    [5665,1537384215,53.9604,-110.4429,784.2,163.2,356.0,5.4,2.1,8.9,42.35,1.956,393.597],
    [5666,1537384216,53.9611,-110.4429,784.9,164.3,355.4,5.9,2.3,9.09,42.38,1.9595,394.7732],
    [5667,1537384217,53.9618,-110.4429,785.9,164.9,357.4,3.7,1.2,9.57,42.67,1.9668,394.4396],
    [5668,1537384218,53.9624,-110.4429,787.1,166.1,358.4,2.9,0.5,9.74,42.33,1.9666,394.143],
    [5669,1537384219,53.9632,-110.4429,787.6,166.6,358.3,3.1,0.4,10.3,42.48,1.9648,394.143],
    [5670,1537384220,53.9639,-110.4429,787.7,166.7,357.8,3.2,0.9,9.46,43.15,1.961,393.2951],
    [5671,1537384221,53.9646,-110.4429,786.7,165.7,357.0,3.9,1.1,9.83,43.07,1.9588,393.2951],
    [5672,1537384222,53.9652,-110.4429,786.1,165.2,356.3,4.5,0.7,9.02,43.64,1.9592,394.1479],
    [5673,1537384223,53.9659,-110.4429,786.0,164.0,355.9,4.8,0.7,10.06,43.23,1.9615,393.6203],
    [5674,1537384224,53.9666,-110.4429,785.6,163.6,355.6,5.0,1.0,9.38,43.3,1.9604,392.7591],
    [5675,1537384225,53.9673,-110.4429,785.2,162.2,355.4,5.1,1.5,9.67,42.88,1.9598,392.7973],
    [5676,1537384226,53.968,-110.4429,785.4,162.4,355.6,4.9,1.7,8.83,43.15,1.9598,391.6924],
    [5677,1537384227,53.9687,-110.443,786.1,163.1,355.4,5.0,2.2,9.91,42.65,1.9599,393.7324],
    [5678,1537384228,53.9694,-110.443,786.4,163.4,355.6,4.9,2.3,9.91,42.53,1.9607,393.053],
    [5679,1537384229,53.9701,-110.443,786.2,164.8,355.2,5.6,2.0,9.03,43.06,1.9598,391.8528],
    [5680,1537384230,53.9708,-110.443,786.1,166.2,355.0,5.9,1.8,9.14,43.23,1.9608,393.4297],
    [5681,1537384231,53.9715,-110.443,787.3,169.4,355.5,5.4,1.7,9.48,43.37,2.0107,393.4008],
    [5682,1537384232,53.9722,-110.443,788.7,171.7,356.1,4.9,1.3,10.0,43.29,2.004,393.1617],
    [5683,1537384233,53.9729,-110.443,789.1,172.1,357.1,4.3,0.3,9.5,44.22,1.9819,393.1038],
    [5684,1537384234,53.9736,-110.443,787.2,170.2,356.0,6.3,-0.2,9.67,43.7,1.9731,392.9732],
    [5685,1537384235,53.9742,-110.443,785.3,167.3,356.5,5.6,0.6,9.57,43.65,1.9702,393.799],
    [5686,1537384236,53.975,-110.443,784.3,166.3,356.7,5.4,1.7,9.72,43.5,1.9712,393.4193],
    [5687,1537384237,53.9757,-110.443,783.8,166.7,356.5,5.5,1.9,10.17,43.87,1.9717,393.9697],
    [5688,1537384238,53.9764,-110.4429,783.8,167.8,356.9,5.2,0.3,9.76,43.93,1.9718,394.2663],
    [5689,1537384239,53.9771,-110.4429,784.9,168.9,356.8,5.1,-1.0,9.45,44.71,1.9713,393.4528],
    [5690,1537384240,53.9778,-110.4429,786.1,168.4,357.9,3.4,-1.0,9.46,45.24,1.9712,393.8645],
    [5691,1537384241,53.9785,-110.4429,787.1,168.4,359.2,1.5,-1.0,9.09,45.45,1.9698,393.9995],
    [5692,1537384242,53.9792,-110.4429,787.0,168.0,359.8,0.7,-1.1,9.41,45.64,1.9675,394.0388],
    [5693,1537384243,53.9798,-110.4429,786.6,167.6,358.2,2.0,-1.7,9.77,45.25,1.9659,393.5378],
    [5694,1537384244,53.9806,-110.4429,787.5,169.5,358.3,1.4,-1.9,9.48,45.08,1.9679,392.9014],
    [5695,1537384245,53.9813,-110.4429,787.4,168.4,357.1,2.6,-1.6,9.59,45.38,1.9709,394.2359],
    [5696,1537384246,53.982,-110.443,786.1,165.1,357.7,1.6,-1.6,9.82,45.19,1.9687,393.2098],
    [5697,1537384247,53.9827,-110.443,786.1,162.4,357.6,1.7,-1.0,10.35,44.88,1.9673,393.583],
    [5698,1537384248,53.9834,-110.443,786.7,161.0,358.1,1.4,-0.1,9.77,45.14,1.9658,393.7192],
    [5699,1537384249,53.9841,-110.443,787.1,161.1,358.0,2.1,0.0,9.38,45.32,1.965,390.2845],
    [5700,1537384250,53.9847,-110.443,787.2,162.5,357.6,2.7,0.0,9.96,44.68,1.9629,392.5055],
    [5701,1537384251,53.9854,-110.443,786.6,162.6,357.5,2.6,0.3,9.52,44.74,1.9634,393.7372],
    [5702,1537384252,53.9861,-110.4431,785.5,160.4,357.7,2.2,-0.7,8.9,44.59,1.9627,392.2402],
    [5703,1537384253,53.9868,-110.4431,785.3,160.0,357.1,2.6,-0.8,9.18,44.41,1.9635,393.1127],
    [5704,1537384254,53.9875,-110.4431,785.3,159.0,356.9,2.5,-0.6,9.74,44.75,1.9627,393.3381],
    [5705,1537384255,53.9882,-110.4431,785.3,159.0,356.8,2.6,-0.7,9.57,44.62,1.9617,392.9038],
    [5706,1537384256,53.9889,-110.4432,786.0,159.8,356.1,3.0,-0.4,9.57,43.89,1.9602,392.7372],
    [5707,1537384257,53.9896,-110.4432,786.8,159.8,356.0,2.9,-0.9,10.41,43.48,1.9619,392.7856],
    [5708,1537384258,53.9903,-110.4432,787.3,160.3,356.3,2.6,-1.0,9.69,43.78,1.9627,392.7856],
    [5709,1537384259,53.991,-110.4433,787.8,160.6,355.7,3.6,-0.2,10.34,42.79,1.9631,392.8318],
    [5710,1537384260,53.9917,-110.4433,787.3,159.2,354.9,4.5,0.1,9.68,43.87,1.9637,393.8828],
    [5711,1537384261,53.9924,-110.4433,786.0,158.0,354.6,5.0,0.1,9.61,43.78,1.968,393.537],
    [5712,1537384262,53.9931,-110.4434,785.4,157.6,355.2,4.6,0.2,9.47,43.88,1.9664,392.7438],
    [5713,1537384263,53.9938,-110.4434,784.8,156.1,356.2,4.1,0.3,9.33,43.95,1.9691,393.7848],
    [5714,1537384264,53.9945,-110.4434,784.3,155.7,356.8,3.8,0.4,9.49,44.17,1.9685,393.5799],
    [5715,1537384265,53.9952,-110.4434,784.0,155.0,357.0,3.9,0.3,9.96,43.64,1.9687,392.8718],
    [5716,1537384266,53.9959,-110.4434,784.6,155.6,356.4,4.6,0.4,9.63,44.65,1.9671,393.3627],
    [5717,1537384267,53.9965,-110.4434,784.8,155.8,356.5,4.6,1.0,9.56,44.89,1.9699,394.1948],
    [5718,1537384268,53.9972,-110.4434,784.8,155.8,356.2,4.9,2.0,9.69,45.29,1.9711,392.6449],
    [5719,1537384269,53.9979,-110.4434,784.7,155.8,355.7,5.5,2.2,9.56,45.74,1.9719,392.777],
    [5720,1537384270,53.9986,-110.4434,784.0,155.2,355.6,5.8,2.1,9.58,45.33,1.97,392.3357],
    [5721,1537384271,53.9993,-110.4434,783.6,154.6,355.3,6.4,2.0,9.89,44.45,1.9662,392.3078],
    [5722,1537384272,54.0,-110.4434,783.9,154.1,355.4,6.4,2.0,9.33,45.14,1.9664,394.1858],
    [5723,1537384273,54.0007,-110.4434,784.4,154.4,356.3,5.6,2.5,9.1,45.4,1.9653,394.1943],
    [5724,1537384274,54.0014,-110.4434,784.7,154.6,356.4,5.6,2.9,9.0,45.33,1.9658,391.9963],
    [5725,1537384275,54.0021,-110.4434,785.3,154.4,356.6,5.2,2.7,9.45,45.44,1.9637,391.9963],
    [5726,1537384276,54.0028,-110.4434,786.6,155.7,356.7,4.8,3.0,9.71,44.71,1.9677,391.6346],
    [5727,1537384277,54.0034,-110.4434,787.1,155.3,356.8,4.5,3.0,10.28,44.56,1.9682,391.6346],
    [5728,1537384278,54.0041,-110.4434,786.3,153.3,357.3,3.9,2.3,9.55,44.88,1.9675,392.9916],
    [5729,1537384279,54.0048,-110.4433,786.3,152.2,357.3,3.8,1.6,9.69,44.85,1.9696,393.625],
    [5730,1537384280,54.0055,-110.4433,786.3,151.1,358.3,2.5,1.6,9.72,45.24,1.9688,391.8394],
    [5731,1537384281,54.0062,-110.4433,785.0,147.7,357.2,4.2,2.1,9.42,45.63,1.968,393.1081],
    [5732,1537384282,54.0069,-110.4433,783.9,144.0,356.1,5.2,2.0,9.49,46.02,1.9692,393.1081],
    [5733,1537384283,54.0076,-110.4433,783.6,140.4,356.7,4.3,2.1,9.24,45.74,1.9689,393.365],
    [5734,1537384284,54.0083,-110.4433,783.4,139.4,356.8,4.4,2.2,10.0,45.56,1.9705,393.7004],
    [5735,1537384285,54.009,-110.4433,783.1,140.1,357.0,4.1,2.3,9.44,45.66,1.9699,393.9077],
    [5736,1537384286,54.0097,-110.4433,782.8,141.7,356.9,4.4,2.4,9.74,45.53,1.9716,393.7072],
    [5737,1537384287,54.0104,-110.4433,783.0,145.7,356.5,4.9,2.4,9.54,46.18,1.9737,392.8539],
    [5738,1537384288,54.0111,-110.4433,783.2,148.2,357.1,4.2,2.1,9.47,45.68,1.9743,391.182],
    [5739,1537384289,54.0118,-110.4433,783.4,148.4,357.4,3.9,2.2,9.22,45.87,1.9726,393.3427],
    [5740,1537384290,54.0125,-110.4433,784.2,149.2,357.6,3.3,3.3,9.47,45.93,1.9725,392.4094],
    [5741,1537384291,54.0132,-110.4433,784.5,149.0,357.6,3.4,3.3,9.31,46.3,1.9741,393.8488],
    [5742,1537384292,54.0139,-110.4433,784.0,147.0,357.1,4.0,2.9,9.01,46.41,1.9731,394.6086],
    [5743,1537384293,54.0146,-110.4433,783.8,144.8,356.8,4.4,3.3,9.33,46.66,1.9727,393.2999],
    [5744,1537384294,54.0153,-110.4433,783.9,143.9,357.3,3.5,4.1,10.09,46.3,1.9719,392.4482],
    [5745,1537384295,54.016,-110.4433,783.7,143.7,357.5,3.6,4.1,9.49,46.62,1.9726,391.3752],
    [5746,1537384296,54.0167,-110.4433,783.1,142.3,357.2,3.8,4.0,9.69,46.71,1.9735,394.2995],
    [5747,1537384297,54.0174,-110.4433,783.1,141.3,357.6,3.2,4.3,9.37,46.85,1.9744,393.3032],
    [5748,1537384298,54.018,-110.4433,783.8,141.8,357.5,3.4,4.2,9.54,47.14,1.9709,392.5876],
    [5749,1537384299,54.0188,-110.4433,784.1,141.1,358.5,2.7,4.1,9.01,46.83,1.971,392.7207],
    [5750,1537384300,54.0195,-110.4433,784.0,141.0,359.4,2.5,4.6,9.5,47.19,1.9693,392.8533],
    [5751,1537384301,54.0202,-110.4432,783.3,139.9,360.1,2.9,5.5,9.76,46.95,1.9719,393.6227],
    [5752,1537384302,54.0209,-110.4432,782.2,139.3,2.6,1.9,5.6,9.58,47.16,1.9717,393.2026],
    [5753,1537384303,54.0216,-110.443,781.6,138.6,5.5,1.7,5.4,9.59,47.46,1.9708,392.7494],
    [5754,1537384304,54.0222,-110.4429,781.3,138.3,7.9,1.9,4.6,10.09,47.05,1.9704,392.2586],
    [5755,1537384305,54.023,-110.4427,780.8,137.9,11.3,1.4,4.2,9.27,47.03,1.9693,393.7156],
    [5756,1537384306,54.0236,-110.4424,781.4,137.4,14.3,1.7,4.5,9.16,47.27,1.969,392.1343],
    [5757,1537384307,54.0243,-110.4421,782.9,138.9,16.7,2.3,4.0,9.43,47.34,1.97,394.1666],
    [5758,1537384308,54.025,-110.4417,783.9,138.9,19.6,1.9,4.7,9.44,47.2,1.9687,392.2203],
    [5759,1537384309,54.0257,-110.4412,784.5,138.5,22.2,2.5,5.1,9.89,47.02,1.9688,393.2897],
    [5760,1537384310,54.0263,-110.4407,785.6,138.6,26.1,1.3,5.6,9.49,47.45,1.9696,392.1566],
    [5761,1537384311,54.027,-110.4402,785.5,137.5,27.9,1.9,4.6,9.8,46.66,1.971,391.6498],
    [5762,1537384312,54.0276,-110.4396,784.6,136.6,30.8,1.1,3.7,9.68,47.18,1.9696,394.0101],
    [5763,1537384313,54.0282,-110.439,784.6,135.6,34.1,1.0,3.1,10.3,46.63,1.9691,391.3251],
    [5764,1537384314,54.0288,-110.4383,786.0,137.0,35.8,2.1,1.4,9.87,46.61,1.9674,392.8174],
    [5765,1537384315,54.0293,-110.4375,788.1,138.1,38.4,2.2,0.4,9.55,46.66,1.9662,392.1901],
    [5766,1537384316,54.0299,-110.4368,789.1,139.1,41.4,2.1,0.8,9.51,46.85,1.9646,392.1194],
    [5767,1537384317,54.0304,-110.4359,789.7,139.7,45.2,2.7,1.2,9.39,47.02,1.9673,393.1616],
    [5768,1537384318,54.0309,-110.435,789.5,138.5,46.5,4.2,-0.2,9.49,46.83,1.9649,393.511],
    [5769,1537384319,54.0313,-110.4341,788.2,137.2,49.9,4.7,0.0,9.4,46.38,1.9646,393.0439],
    [5770,1537384320,54.0318,-110.4331,787.1,136.1,53.8,4.5,1.1,9.45,46.51,1.9657,387.5792],
    [5771,1537384321,54.0321,-110.4321,786.0,135.0,57.2,4.4,0.9,8.92,46.12,1.9654,392.9823],
    [5772,1537384322,54.0325,-110.431,785.2,134.2,59.6,4.6,0.6,10.05,46.1,1.9646,391.882],
    [5773,1537384323,54.0329,-110.4299,784.9,133.9,62.9,4.6,1.0,9.99,45.19,1.9612,391.882],
    [5774,1537384324,54.0332,-110.4287,785.1,133.1,65.9,4.2,1.0,10.03,45.58,1.9595,393.7375],
    [5775,1537384325,54.0334,-110.4276,784.8,132.7,69.5,3.7,1.8,9.67,45.7,1.9589,392.222],
    [5776,1537384326,54.0337,-110.4264,784.8,132.8,72.3,4.3,1.7,9.56,45.05,1.96,393.259],
    [5777,1537384327,54.0339,-110.4253,785.2,134.5,75.4,4.6,2.1,9.53,44.66,1.9602,393.4024],
    [5778,1537384328,54.0341,-110.4241,785.7,136.8,78.4,3.6,2.5,9.69,44.43,1.9621,393.1841],
    [5779,1537384329,54.0342,-110.4229,787.2,138.2,81.3,1.8,2.8,9.78,44.08,1.9654,393.6196],
    [5780,1537384330,54.0343,-110.4216,788.9,139.9,84.1,1.5,3.9,9.54,44.76,1.9672,393.1966],
    [5781,1537384331,54.0344,-110.4204,790.2,141.2,85.2,2.6,3.7,9.7,44.92,1.9667,393.1669],
    [5782,1537384332,54.0345,-110.4192,790.7,141.7,86.4,3.5,3.7,9.06,44.89,1.9653,392.0033],
    [5783,1537384333,54.0346,-110.418,791.2,141.2,85.6,3.1,1.1,9.48,44.74,1.9592,392.2305],
    [5784,1537384334,54.0346,-110.4168,790.9,139.8,85.1,2.5,-0.1,9.37,44.97,1.9588,392.931],
    [5785,1537384335,54.0347,-110.4156,789.7,138.7,86.8,2.4,1.6,9.75,44.46,1.963,393.0079],
    [5786,1537384336,54.0347,-110.4144,788.7,136.9,86.6,3.4,1.5,9.3,44.24,1.9638,393.0449],
    [5787,1537384337,54.0348,-110.4131,788.3,137.2,87.2,4.2,1.9,10.02,43.83,1.9617,392.2792],
    [5788,1537384338,54.0348,-110.4119,786.9,137.9,86.5,4.2,0.7,9.74,43.92,1.9612,392.2556],
    [5789,1537384339,54.0349,-110.4106,785.6,137.6,86.8,3.9,0.3,9.76,43.84,1.9608,392.4283],
    [5790,1537384340,54.0349,-110.4094,785.1,137.7,87.1,2.9,0.1,10.15,43.42,1.9596,391.7651],
    [5791,1537384341,54.035,-110.4082,784.7,137.8,88.1,2.4,0.6,9.74,43.72,1.9556,392.9049],
    [5792,1537384342,54.035,-110.407,783.5,137.5,88.2,3.5,0.0,9.62,43.85,1.9572,393.0973],
    [5793,1537384343,54.035,-110.4057,782.0,135.9,89.5,4.4,0.7,9.58,43.39,1.9627,393.5562],
    [5794,1537384344,54.035,-110.4044,781.0,135.7,90.0,4.9,0.1,9.83,43.37,1.9605,393.3143],
    [5795,1537384345,54.035,-110.4032,780.5,135.3,90.1,5.3,-0.2,9.38,42.95,1.9618,393.2038],
    [5796,1537384346,54.035,-110.402,780.5,135.5,90.7,5.6,0.1,9.21,43.06,1.9591,393.3514],
    [5797,1537384347,54.035,-110.4007,780.5,136.7,90.4,5.5,-0.2,10.07,42.9,1.964,393.7636],
    [5798,1537384348,54.035,-110.3995,781.0,139.0,90.9,5.4,0.4,9.33,43.5,1.9657,393.5612],
    [5799,1537384349,54.035,-110.3983,782.0,142.7,90.4,5.5,0.1,10.1,43.12,1.9635,393.3599],
    [5800,1537384350,54.035,-110.3971,782.4,145.4,90.6,5.6,0.6,9.56,44.64,1.9616,393.2272],
    [5801,1537384351,54.035,-110.3958,783.2,148.3,90.4,4.9,0.3,9.24,44.05,1.9648,392.2432],
    [5802,1537384352,54.035,-110.3946,785.4,151.4,89.2,5.2,-1.3,9.45,44.39,1.964,393.1084],
    [5803,1537384353,54.035,-110.3934,786.9,151.8,87.4,6.0,-2.8,9.65,44.7,1.9623,393.6962],
    [5804,1537384354,54.035,-110.3922,786.7,150.4,90.2,4.9,0.8,9.44,44.67,1.9636,393.5391],
    [5805,1537384355,54.035,-110.391,786.3,148.7,92.2,4.2,2.1,8.97,44.79,1.9654,393.5446],
    [5806,1537384356,54.035,-110.3897,786.0,146.9,90.8,3.3,-0.5,9.68,44.71,1.965,393.1009],
    [5807,1537384357,54.0349,-110.3885,786.3,145.2,92.8,2.7,1.4,9.93,45.18,1.9628,393.3276],
    [5808,1537384358,54.0349,-110.3873,788.3,146.5,94.8,3.4,2.7,9.47,45.27,1.9635,392.8961],
    [5809,1537384359,54.0349,-110.3861,791.6,148.3,94.5,3.3,2.0,9.22,45.45,1.9673,393.0173],
    [5810,1537384360,54.0348,-110.3849,794.0,148.1,95.2,2.3,3.0,9.55,45.34,1.9699,392.4458],
    [5811,1537384361,54.0348,-110.3837,795.9,146.2,94.5,2.1,2.8,9.94,45.29,1.973,392.6293],
    [5812,1537384362,54.0348,-110.3825,798.3,145.4,93.4,2.9,2.9,9.36,45.59,1.9699,394.3302],
    [5813,1537384363,54.0348,-110.3813,799.4,144.4,93.1,3.1,3.5,9.07,46.02,1.969,393.8875],
    [5814,1537384364,54.0348,-110.3801,799.5,143.5,91.7,3.1,3.5,9.51,46.0,1.9701,393.6183],
    [5815,1537384365,54.0348,-110.3789,799.6,143.6,91.5,3.9,4.3,9.68,46.2,1.9732,393.3931],
    [5816,1537384366,54.0348,-110.3776,800.3,143.1,90.0,4.0,3.4,10.04,45.99,1.9717,393.0052],
    [5817,1537384367,54.0349,-110.3764,800.0,140.1,90.3,3.1,4.1,9.85,46.49,1.9675,393.9469],
    [5818,1537384368,54.0349,-110.3752,800.3,137.1,89.2,2.9,2.8,10.08,46.21,1.9667,389.1969],
    [5819,1537384369,54.0349,-110.374,802.0,138.0,88.8,3.4,2.6,9.65,46.78,1.9688,394.1336],
    [5820,1537384370,54.035,-110.3728,802.5,138.4,90.5,3.5,4.2,9.38,46.4,1.9693,394.5108],
    [5821,1537384371,54.035,-110.3716,802.5,140.0,90.2,3.7,3.2,10.05,46.15,1.971,393.9394],
    [5822,1537384372,54.035,-110.3704,803.4,141.4,90.2,4.0,3.0,9.78,46.01,1.9716,393.6506],
    [5823,1537384373,54.035,-110.3692,804.8,144.0,89.8,3.5,2.7,10.31,45.7,1.97,394.2314],
    [5824,1537384374,54.0351,-110.368,806.8,147.1,90.6,3.6,3.8,9.64,46.14,1.9722,392.8129],
    [5825,1537384375,54.0351,-110.3668,808.5,151.0,89.7,4.1,2.8,9.76,46.43,1.9717,393.9481],
    [5826,1537384376,54.0351,-110.3656,808.2,152.4,89.8,3.7,3.3,9.87,46.65,1.9708,393.6966],
    [5827,1537384377,54.0352,-110.3644,807.4,152.6,89.3,4.0,2.5,9.85,46.78,1.9719,394.2327],
    [5828,1537384378,54.0352,-110.3633,808.0,154.8,88.8,3.9,2.0,9.43,46.85,1.9698,393.3862],
    [5829,1537384379,54.0352,-110.362,809.8,157.9,90.0,3.1,3.3,9.96,46.23,1.9703,393.3834],
    [5830,1537384380,54.0353,-110.3609,810.2,158.7,90.1,3.9,3.4,9.88,46.74,1.9724,394.2252],
    [5831,1537384381,54.0353,-110.3597,810.5,157.5,90.3,4.3,4.3,9.74,46.54,1.9724,394.3923],
    [5832,1537384382,54.0353,-110.3586,811.5,159.4,90.7,4.2,5.0,9.32,46.62,1.9735,394.4349],
    [5833,1537384383,54.0354,-110.3573,812.6,162.3,89.9,3.7,4.2,9.68,46.61,1.9714,394.1188],
    [5834,1537384384,54.0354,-110.3561,813.2,163.2,89.4,3.8,3.8,9.15,46.83,1.9708,393.0732],
    [5835,1537384385,54.0354,-110.355,813.8,162.8,89.7,4.4,4.2,9.38,47.44,1.9713,393.5079],
    [5836,1537384386,54.0355,-110.3538,814.2,163.2,90.3,3.2,4.9,9.75,47.64,1.9705,394.8687],
    [5837,1537384387,54.0355,-110.3526,814.3,164.4,89.6,2.2,3.9,9.6,47.41,1.9695,392.14],
    [5838,1537384388,54.0356,-110.3514,813.8,162.8,87.6,2.8,2.4,9.38,47.11,1.9693,394.6016],
    [5839,1537384389,54.0356,-110.3502,813.9,162.2,87.1,3.1,3.0,9.82,46.49,1.9699,394.1364],
    [5840,1537384390,54.0357,-110.3491,813.6,163.5,85.9,3.2,2.4,9.71,47.22,1.9686,393.1423],
    [5841,1537384391,54.0358,-110.3479,813.5,165.5,85.3,3.9,2.2,9.77,46.56,1.9699,393.7455],
    [5842,1537384392,54.0358,-110.3467,813.6,166.6,85.8,4.5,2.4,9.33,47.31,1.9704,393.7455],
    [5843,1537384393,54.0359,-110.3455,813.2,166.4,87.1,4.4,2.6,10.1,46.23,1.9703,393.3605],
    [5844,1537384394,54.0359,-110.3444,813.3,165.5,89.7,4.3,3.1,9.27,47.24,1.9688,393.0944],
    [5845,1537384395,54.036,-110.3432,813.6,165.4,91.5,4.7,3.0,8.95,47.05,1.969,393.3697],
    [5846,1537384396,54.036,-110.3421,813.4,164.5,94.0,4.6,4.1,9.4,47.11,1.9727,393.5165],
    [5847,1537384397,54.0359,-110.3408,814.3,164.9,95.0,3.8,3.4,9.61,47.58,1.9727,392.5587],
    [5848,1537384398,54.0359,-110.3397,817.8,167.7,95.7,3.3,3.0,9.86,46.55,1.9737,394.7949],
    [5849,1537384399,54.0359,-110.3385,821.8,170.3,97.0,3.6,4.4,9.83,46.91,1.9749,393.3183],
    [5850,1537384400,54.0358,-110.3373,824.2,170.3,97.5,3.2,4.8,9.47,47.64,1.9781,394.4779],
    [5851,1537384401,54.0358,-110.3362,826.1,171.5,96.8,2.9,4.6,9.36,48.16,1.9794,395.2767],
    [5852,1537384402,54.0357,-110.335,826.6,171.6,95.8,3.2,4.0,9.46,48.42,1.9816,395.2824],
    [5853,1537384403,54.0357,-110.3338,826.1,172.1,95.0,3.4,3.9,9.74,47.76,1.9809,395.8447],
    [5854,1537384404,54.0357,-110.3326,824.3,169.4,95.8,3.6,5.7,9.34,49.07,1.9824,395.3775],
    [5855,1537384405,54.0357,-110.3314,822.3,165.4,94.7,3.4,5.1,9.83,48.3,1.9821,395.9869],
    [5856,1537384406,54.0357,-110.3303,820.5,160.4,92.2,2.6,3.4,9.71,48.82,1.9783,395.9869],
    [5857,1537384407,54.0357,-110.3291,818.8,157.3,89.4,1.1,1.6,8.9,48.85,1.9726,393.7054],
    [5858,1537384408,54.0357,-110.3279,817.6,155.6,88.0,0.2,1.1,9.68,48.62,1.9718,394.4718],
    [5859,1537384409,54.0358,-110.3267,817.5,154.5,87.1,0.1,0.6,9.89,48.05,1.9702,393.7681],
    [5860,1537384410,54.0358,-110.3255,817.7,153.7,87.4,0.6,1.0,10.03,47.64,1.9725,394.1705],
    [5861,1537384411,54.0358,-110.3243,817.3,152.1,88.7,1.1,2.1,9.28,47.95,1.9726,394.8861],
    [5862,1537384412,54.0359,-110.3232,815.9,149.9,91.1,2.3,3.8,9.65,47.48,1.9742,393.8701],
    [5863,1537384413,54.0359,-110.3219,815.1,148.1,89.6,2.9,0.9,9.44,47.87,1.972,394.2902],
    [5864,1537384414,54.0359,-110.3207,814.4,147.4,89.9,3.1,1.4,9.5,47.8,1.9734,395.1828],
    [5865,1537384415,54.0359,-110.3196,813.4,146.4,91.2,3.7,2.5,9.56,48.06,1.9724,394.9247],
    [5866,1537384416,54.0359,-110.3183,813.2,147.2,90.5,3.2,1.4,8.73,47.48,1.9707,394.1661],
    [5867,1537384417,54.0359,-110.3171,814.1,149.1,89.2,2.8,0.0,8.91,47.35,1.9697,394.7698],
    [5868,1537384418,54.0359,-110.3159,814.7,150.1,90.3,2.5,1.4,9.59,47.33,1.9722,393.1612],
    [5869,1537384419,54.0359,-110.3147,814.6,150.6,90.5,3.1,1.3,10.15,46.74,1.971,393.2514],
    [5870,1537384420,54.0359,-110.3135,813.8,149.8,90.0,3.5,0.7,9.14,47.35,1.9695,393.4322],
    [5871,1537384421,54.0359,-110.3123,813.0,149.0,90.5,4.1,1.1,9.48,47.66,1.9693,394.3163],
    [5872,1537384422,54.036,-110.3111,813.5,150.5,90.0,5.1,0.3,9.31,46.71,1.9692,393.4485],
    [5873,1537384423,54.036,-110.3099,813.9,150.9,90.6,5.2,1.1,9.85,46.45,1.9689,394.6617],
    [5874,1537384424,54.036,-110.3087,814.1,150.4,90.6,5.1,0.9,9.47,46.75,1.9702,393.8055],
    [5875,1537384425,54.036,-110.3075,814.6,148.8,90.0,5.0,0.5,9.46,46.8,1.9692,394.0975],
    [5876,1537384426,54.036,-110.3063,815.8,148.7,90.2,5.0,0.9,9.78,46.79,1.9716,394.2436],
    [5877,1537384427,54.036,-110.3051,816.8,149.8,91.8,3.6,2.6,9.5,46.72,1.9732,393.6909],
    [5878,1537384428,54.036,-110.3039,817.8,151.2,92.9,2.4,2.9,8.96,46.87,1.9771,392.9936],
    [5879,1537384429,54.036,-110.3027,818.3,152.3,92.8,2.4,1.7,9.44,47.15,1.9773,395.0472],
    [5880,1537384430,54.0359,-110.3015,817.1,151.1,94.8,2.5,2.7,9.43,48.13,1.9772,394.4874],
    [5881,1537384431,54.0359,-110.3003,815.9,151.0,96.5,2.7,3.1,9.38,47.82,1.9777,395.7581],
    [5882,1537384432,54.0358,-110.2991,815.9,151.8,99.2,3.1,3.4,9.58,47.68,1.9776,392.5477],
    [5883,1537384433,54.0357,-110.2979,815.8,152.5,101.1,3.1,2.7,9.3,48.41,1.9773,393.9033],
    [5884,1537384434,54.0356,-110.2968,814.7,152.4,103.3,2.6,2.5,9.3,47.72,1.9761,393.9033],
    [5885,1537384435,54.0355,-110.2956,813.5,153.5,106.9,3.0,2.9,9.37,47.71,1.9759,394.9177],
    [5886,1537384436,54.0353,-110.2944,813.2,154.2,110.1,4.0,2.2,9.92,47.04,1.976,394.8868],
    [5887,1537384437,54.035,-110.2933,813.2,154.2,113.1,5.1,1.3,9.53,47.39,1.9775,394.6648],
    [5888,1537384438,54.0348,-110.2922,813.5,153.5,114.4,4.4,-0.4,9.32,48.1,1.9766,395.2961],
    [5889,1537384439,54.0345,-110.2911,813.2,152.2,116.9,3.4,0.3,9.01,47.65,1.9768,395.0387],
    [5890,1537384440,54.0341,-110.29,813.2,150.5,119.8,2.8,0.4,8.78,47.53,1.9755,395.0555],
    [5891,1537384441,54.0338,-110.289,813.2,150.2,123.0,2.9,1.2,9.34,47.49,1.974,394.5323],
    [5892,1537384442,54.0334,-110.288,814.1,151.1,125.9,2.1,1.3,9.47,47.14,1.9746,394.5323],
    [5893,1537384443,54.033,-110.287,815.6,152.6,128.0,2.2,0.8,9.48,47.13,1.9764,394.2031],
    [5894,1537384444,54.0326,-110.2861,816.3,153.3,132.2,4.5,1.4,10.15,46.83,1.9755,395.165],
    [5895,1537384445,54.0321,-110.2851,817.2,154.2,134.1,2.6,0.5,9.75,46.98,1.9766,394.603],
    [5896,1537384446,54.0316,-110.2843,818.1,155.1,136.3,1.4,1.7,9.18,47.25,1.9749,394.603],
    [5897,1537384447,54.0311,-110.2835,817.4,154.1,140.1,2.9,2.6,9.16,47.71,1.975,394.9363],
    [5898,1537384448,54.0306,-110.2827,816.0,151.7,144.0,3.5,2.6,10.13,46.83,1.9766,394.5893],
    [5899,1537384449,54.03,-110.282,815.5,150.5,147.9,2.5,2.5,9.47,47.8,1.975,394.3832],
    [5900,1537384450,54.0294,-110.2813,814.9,149.9,152.4,4.1,3.2,9.45,47.23,1.976,393.7509],
    [5901,1537384451,54.0288,-110.2807,813.3,149.3,155.1,3.4,2.7,9.27,46.69,1.9761,396.2383],
    [5902,1537384452,54.0282,-110.2802,811.6,147.6,158.8,3.8,3.5,9.17,46.42,1.9747,394.3296],
    [5903,1537384453,54.0275,-110.2798,811.3,147.3,162.9,4.0,2.9,8.94,46.44,1.9735,393.2947],
    [5904,1537384454,54.0269,-110.2794,813.7,148.7,164.7,1.5,2.2,9.53,46.4,1.9736,394.3777],
    [5905,1537384455,54.0262,-110.2791,816.6,150.6,169.2,4.6,3.7,9.41,46.53,1.973,393.6794],
    [5906,1537384456,54.0256,-110.2788,817.9,152.0,173.2,6.0,3.2,9.45,46.99,1.9729,394.5447],
    [5907,1537384457,54.0249,-110.2786,817.7,151.0,175.3,4.6,2.8,9.43,46.75,1.9736,394.5784],
    [5908,1537384458,54.0242,-110.2785,817.0,150.5,178.5,4.5,3.0,9.46,46.98,1.9728,394.9717],
    [5909,1537384459,54.0236,-110.2784,816.4,151.5,181.7,4.6,2.0,9.14,46.29,1.9746,395.0241],
    [5910,1537384460,54.0229,-110.2784,816.5,152.5,184.5,4.6,1.6,9.93,45.95,1.975,395.266],
    [5911,1537384461,54.0222,-110.2784,816.8,154.8,186.0,4.5,1.8,9.44,46.75,1.9741,394.4449],
    [5912,1537384462,54.0215,-110.2785,816.2,156.2,187.7,5.1,1.7,9.25,46.49,1.9734,394.5695],
    [5913,1537384463,54.0209,-110.2786,815.4,155.4,187.6,4.1,2.1,9.35,46.33,1.9737,394.3049],
    [5914,1537384464,54.0202,-110.2787,815.2,155.2,187.0,2.9,1.9,9.78,45.99,1.9735,394.3345],
    [5915,1537384465,54.0196,-110.2788,815.6,155.6,185.9,1.4,1.0,9.35,46.36,1.9723,394.7262],
    [5916,1537384466,54.0189,-110.2789,815.4,155.4,186.7,2.2,0.1,9.71,46.21,1.9733,395.3715],
    [5917,1537384467,54.0182,-110.279,815.4,155.4,187.1,2.1,0.2,9.43,46.36,1.9737,393.8177],
    [5918,1537384468,54.0176,-110.2791,815.6,155.6,187.8,2.6,0.0,9.31,46.44,1.9725,394.3252],
    [5919,1537384469,54.0169,-110.2792,816.1,154.8,188.3,2.5,0.1,8.95,46.69,1.9756,394.528],
    [5920,1537384470,54.0163,-110.2793,817.6,154.6,186.2,0.6,1.6,9.91,46.16,1.974,395.1482],
    [5921,1537384471,54.0156,-110.2795,818.3,154.6,187.2,2.9,1.8,9.65,46.36,1.9732,393.9813],
    [5922,1537384472,54.0149,-110.2795,818.1,152.1,187.4,3.8,2.0,9.92,45.64,1.9734,393.8836],
    [5923,1537384473,54.0143,-110.2796,816.9,149.8,186.1,2.8,2.2,9.57,46.33,1.9728,393.5941],
    [5924,1537384474,54.0136,-110.2797,817.0,151.1,185.0,2.1,1.2,9.27,46.26,1.9723,393.5941],
    [5925,1537384475,54.0129,-110.2798,818.4,153.7,184.1,1.8,0.9,9.57,45.86,1.9726,395.3545],
    [5926,1537384476,54.0123,-110.2798,818.3,155.0,183.6,1.9,0.7,9.15,46.42,1.9723,395.0743],
    [5927,1537384477,54.0116,-110.2799,817.1,155.0,182.9,2.2,0.5,9.19,46.35,1.9728,393.173],
    [5928,1537384478,54.0109,-110.2799,815.5,154.6,183.4,3.0,-0.7,8.82,46.45,1.9742,393.7497],
    [5929,1537384479,54.0103,-110.2799,814.6,154.5,183.5,3.1,-0.6,9.26,46.14,1.9733,394.6167],
    [5930,1537384480,54.0096,-110.2799,814.6,156.7,183.2,2.3,0.4,9.35,46.25,1.9724,395.2748],
    [5931,1537384481,54.0089,-110.2799,814.8,157.8,184.2,3.6,0.9,9.38,46.18,1.9739,395.7107],
    [5932,1537384482,54.0082,-110.28,815.3,159.3,184.7,3.9,0.6,9.55,46.03,1.9739,394.8569],
    [5933,1537384483,54.0076,-110.28,816.0,160.0,184.3,3.4,0.1,9.31,46.39,1.9747,392.9145],
    [5934,1537384484,54.0069,-110.28,816.7,161.7,183.1,2.3,0.2,9.42,46.47,1.9722,394.1576],
    [5935,1537384485,54.0062,-110.2801,817.2,161.8,182.4,1.7,0.3,10.16,45.88,1.9718,394.8895],
    [5936,1537384486,54.0056,-110.2801,816.5,160.7,182.4,1.6,0.3,9.31,46.06,1.9752,393.9115],
    [5937,1537384487,54.0049,-110.2801,815.8,159.7,181.4,0.1,0.4,9.25,45.96,1.9807,394.7564],
    [5938,1537384488,54.0042,-110.2801,816.5,160.4,180.4,-0.6,0.4,9.97,45.79,1.9826,395.5573],
    [5939,1537384489,54.0035,-110.2802,817.7,161.7,181.2,0.7,0.0,9.1,46.75,1.9843,395.5573],
    [5940,1537384490,54.0028,-110.2802,818.8,162.7,181.6,0.6,0.1,9.42,47.83,1.9884,395.2005],
    [5941,1537384491,54.0022,-110.2802,819.0,162.4,183.4,2.2,1.3,9.6,47.46,1.9842,394.9039],
    [5942,1537384492,54.0015,-110.2803,818.1,161.5,185.9,4.6,1.7,9.41,48.27,1.9776,394.7927],
    [5943,1537384493,54.0008,-110.2803,817.7,160.8,187.5,5.7,1.7,9.82,47.78,1.9763,394.7927],
    [5944,1537384494,54.0001,-110.2804,818.2,161.0,186.2,4.6,3.0,9.5,48.43,1.9782,395.1609],
    [5945,1537384495,53.9994,-110.2804,818.0,160.1,185.6,4.8,3.4,9.4,47.94,1.9823,394.6726],
    [5946,1537384496,53.9988,-110.2805,818.1,158.6,183.5,4.1,3.5,10.08,47.48,1.9826,394.6726],
    [5947,1537384497,53.9981,-110.2805,817.7,157.9,183.7,5.9,3.2,9.22,47.6,1.9787,394.6553],
    [5948,1537384498,53.9974,-110.2804,817.3,155.1,181.8,4.8,2.6,9.43,47.67,1.9773,394.2036],
    [5949,1537384499,53.9967,-110.2804,815.9,153.1,181.2,5.1,2.2,9.64,47.36,1.9771,395.0388],
    [5950,1537384500,53.996,-110.2803,815.5,151.5,179.7,4.5,2.0,9.73,47.37,1.976,395.1023],
    [5951,1537384501,53.9953,-110.2802,815.8,150.8,179.0,4.4,2.5,9.62,47.68,1.9758,394.069],
    [5952,1537384502,53.9946,-110.2802,815.6,149.5,179.4,5.0,3.0,9.2,46.63,1.9764,393.5778],
    [5953,1537384503,53.9939,-110.2801,815.9,150.0,178.9,4.7,2.8,9.13,46.54,1.9768,393.4408],
    [5954,1537384504,53.9932,-110.28,816.3,149.4,179.1,5.1,2.1,9.13,46.67,1.9749,394.1327],
    [5955,1537384505,53.9925,-110.2799,816.6,148.6,178.6,4.7,2.3,9.31,46.62,1.9747,393.7603],
    [5956,1537384506,53.9918,-110.2798,816.7,149.8,178.5,4.7,3.1,9.43,47.1,1.974,394.3817],
    [5957,1537384507,53.9912,-110.2797,816.6,150.6,178.5,4.7,3.8,9.66,46.37,1.98,394.5489],
    [5958,1537384508,53.9905,-110.2796,816.8,152.8,178.3,3.6,3.7,9.64,45.84,1.9831,395.203],
    [5959,1537384509,53.9898,-110.2795,818.5,155.2,177.5,2.4,3.1,9.36,46.52,1.9823,395.3132],
    [5960,1537384510,53.9891,-110.2794,820.2,158.2,178.9,3.6,2.7,9.35,46.69,1.9848,394.894],
    [5961,1537384511,53.9884,-110.2793,820.0,159.1,179.5,3.8,2.2,9.17,47.18,1.9849,394.894],
    [5962,1537384512,53.9878,-110.2793,819.0,158.0,179.1,2.4,2.5,9.97,46.93,1.9837,395.2932],
    [5963,1537384513,53.9871,-110.2792,819.5,160.5,178.3,1.0,3.3,10.04,47.11,1.9838,395.1259],
    [5964,1537384514,53.9864,-110.2792,820.2,162.2,180.1,2.6,3.4,9.4,48.36,1.9831,394.3846],
    [5965,1537384515,53.9857,-110.2791,819.4,162.5,181.6,3.0,2.7,9.33,48.41,1.981,392.5817],
    [5966,1537384516,53.985,-110.2791,818.0,161.0,182.8,3.0,2.0,9.15,47.8,1.98,397.2633],
    [5967,1537384517,53.9844,-110.2792,817.0,159.9,184.0,3.1,1.9,9.26,47.81,1.9785,395.2466],
    [5968,1537384518,53.9837,-110.2792,816.4,158.3,184.1,2.7,2.3,9.48,47.92,1.9774,394.2452],
    [5969,1537384519,53.983,-110.2792,816.0,157.1,184.9,3.5,2.2,8.78,47.48,1.9775,396.1246],
    [5970,1537384520,53.9823,-110.2793,816.0,156.1,184.5,3.2,2.0,8.79,47.34,1.9775,394.0518],
    [5971,1537384521,53.9816,-110.2793,815.7,154.6,184.2,3.4,2.2,9.35,47.47,1.9765,395.1697],
    [5972,1537384522,53.981,-110.2794,814.6,154.7,183.3,2.7,2.6,9.38,47.04,1.9762,394.262],
    [5973,1537384523,53.9803,-110.2794,814.3,155.3,182.7,2.5,3.3,9.27,46.91,1.9787,393.9818],
    [5974,1537384524,53.9796,-110.2794,815.6,157.6,182.7,3.1,3.9,9.54,46.75,1.98,394.9038],
    [5975,1537384525,53.9789,-110.2794,817.1,159.1,182.8,3.3,3.2,9.09,47.07,1.9809,394.6753],
    [5976,1537384526,53.9783,-110.2794,818.2,160.2,182.4,3.3,2.1,8.98,47.12,1.9817,395.1363],
    [5977,1537384527,53.9776,-110.2794,818.3,160.0,182.8,4.1,1.3,9.2,47.61,1.9809,394.3862],
    [5978,1537384528,53.9769,-110.2794,817.4,157.3,181.8,3.4,1.4,8.87,47.87,1.9823,394.2894],
    [5979,1537384529,53.9763,-110.2794,817.6,156.6,181.3,3.8,2.3,8.93,47.8,1.9808,390.4303],
    [5980,1537384530,53.9756,-110.2793,817.3,155.3,181.2,3.9,2.5,9.62,47.59,1.9796,395.0111],
    [5981,1537384531,53.9749,-110.2793,816.9,156.5,179.9,2.5,2.1,9.2,47.88,1.9798,393.8335],
    [5982,1537384532,53.9743,-110.2793,816.6,160.2,179.8,2.7,2.3,9.25,47.84,1.9784,394.9199],
    [5983,1537384533,53.9736,-110.2792,816.1,166.1,181.0,4.1,2.5,9.8,47.4,1.9773,393.7739],
    [5984,1537384534,53.9729,-110.2792,816.1,170.7,180.8,3.3,2.5,8.75,47.69,1.9802,393.4846],
    [5985,1537384535,53.9723,-110.2791,816.4,178.1,181.1,3.5,2.6,9.33,48.07,1.9785,395.1259],
    [5986,1537384536,53.9716,-110.2791,816.3,184.3,182.5,4.8,2.6,9.26,47.59,1.9767,395.7449],
    [5987,1537384537,53.9709,-110.2791,816.7,187.6,181.2,3.4,2.5,9.71,47.38,1.9769,395.7449],
    [5988,1537384538,53.9702,-110.2791,817.2,188.3,181.3,4.1,2.4,9.26,47.81,1.9761,394.1943],
    [5989,1537384539,53.9696,-110.279,817.2,186.5,181.4,4.5,2.6,8.7,47.38,1.9784,395.1901],
    [5990,1537384540,53.9689,-110.279,817.3,182.3,181.4,4.5,2.7,9.27,47.24,1.9807,395.1295],
    [5991,1537384541,53.9682,-110.2789,817.4,175.0,181.2,4.3,2.8,9.89,46.81,1.9819,393.7221],
    [5992,1537384542,53.9676,-110.2789,817.3,171.1,180.5,3.4,2.7,9.23,47.05,1.9838,395.7349],
    [5993,1537384543,53.9669,-110.2789,817.2,169.2,179.9,2.7,2.4,9.04,47.9,1.9844,395.565],
    [5994,1537384544,53.9662,-110.2788,817.7,169.7,179.6,2.6,2.1,9.23,47.99,1.986,394.6521],
    [5995,1537384545,53.9656,-110.2788,818.1,170.8,180.2,3.1,2.4,9.85,47.93,1.9842,394.0523],
    [5996,1537384546,53.9649,-110.2787,817.4,171.0,179.8,2.2,3.0,9.59,48.34,1.9829,394.9153],
    [5997,1537384547,53.9642,-110.2787,816.1,170.4,181.0,3.1,3.1,9.44,48.49,1.9821,393.3532],
    [5998,1537384548,53.9635,-110.2787,815.7,171.0,181.4,3.2,2.7,9.09,49.28,1.9804,395.0089],
    [5999,1537384549,53.9629,-110.2787,814.9,170.9,181.4,3.2,2.2,9.15,48.91,1.9814,395.6637],
    [6000,1537384550,53.9622,-110.2786,814.0,168.0,181.1,3.2,1.7,9.41,48.42,1.9773,393.1875],
    [6001,1537384551,53.9615,-110.2786,813.8,163.7,181.3,3.8,1.4,9.17,49.16,1.9741,394.0936],
    [6002,1537384552,53.9609,-110.2786,813.8,159.7,181.3,3.9,1.4,9.34,48.25,1.9737,394.4521],
    [6003,1537384553,53.9602,-110.2785,813.8,157.2,180.8,3.5,1.5,9.39,47.8,1.9745,394.3192],
    [6004,1537384554,53.9596,-110.2785,813.8,159.2,180.2,2.9,1.9,9.27,47.63,1.9783,395.1793],
    [6005,1537384555,53.9589,-110.2785,813.9,162.4,179.8,2.3,1.5,9.36,47.58,1.9837,394.6455],
    [6006,1537384556,53.9582,-110.2784,813.7,166.3,179.5,2.3,1.0,9.19,48.04,1.9851,396.6221],
    [6007,1537384557,53.9576,-110.2784,813.2,168.2,179.5,1.9,0.9,9.13,47.83,1.9867,395.7099],
    [6008,1537384558,53.9569,-110.2783,813.5,169.2,179.4,1.9,0.0,9.77,48.32,1.9857,395.4988],
    [6009,1537384559,53.9562,-110.2783,812.8,167.8,180.7,3.1,0.3,9.17,49.17,1.9854,394.1299],
    [6010,1537384560,53.9555,-110.2783,811.1,167.1,181.9,4.1,1.7,9.06,50.15,1.9864,394.1179],
    [6011,1537384561,53.9549,-110.2782,809.8,165.8,181.4,3.1,2.7,9.01,49.86,1.988,393.6902],
    [6012,1537384562,53.9542,-110.2782,809.9,167.0,181.8,3.5,2.8,9.16,50.1,1.9882,393.6902],
    [6013,1537384563,53.9535,-110.2782,810.1,167.1,182.1,3.6,2.3,9.06,50.87,1.9862,394.4293],
    [6014,1537384564,53.9528,-110.2782,809.4,166.4,182.2,4.1,1.3,9.11,50.44,1.9844,394.4782],
    [6015,1537384565,53.9522,-110.2782,808.5,165.5,181.2,3.5,0.7,8.84,50.17,1.9834,394.3106],
    [6016,1537384566,53.9515,-110.2781,808.2,165.2,180.4,3.5,0.7,9.37,49.85,1.9821,395.031],
    [6017,1537384567,53.9508,-110.2781,809.9,167.1,180.8,4.5,1.4,9.55,49.53,1.9838,392.0598],
    [6018,1537384568,53.9501,-110.278,812.6,170.6,180.0,3.5,2.4,8.77,49.99,1.9865,393.6122],
    [6019,1537384569,53.9495,-110.278,814.8,172.8,179.8,3.3,2.4,9.08,49.93,1.9822,393.6676],
    [6020,1537384570,53.9488,-110.2779,816.9,174.9,180.4,4.0,2.5,9.5,49.93,1.9819,393.6676],
    [6021,1537384571,53.9481,-110.2779,816.6,175.6,181.6,5.2,2.4,8.83,50.11,1.9786,393.6944],
    [6022,1537384572,53.9475,-110.2778,815.7,175.8,181.7,5.0,1.9,9.11,49.64,1.9772,393.6291],
    [6023,1537384573,53.9468,-110.2778,814.6,175.7,181.8,5.0,1.1,9.13,50.09,1.9763,395.3639],
    [6024,1537384574,53.9461,-110.2778,813.8,175.8,181.3,4.4,0.8,9.02,49.69,1.9754,395.54],
    [6025,1537384575,53.9454,-110.2777,814.2,177.2,180.8,4.3,1.4,8.93,48.71,1.9794,395.4686],
    [6026,1537384576,53.9448,-110.2777,815.1,178.1,181.2,4.9,1.2,8.9,49.24,1.9805,393.6664],
    [6027,1537384577,53.9441,-110.2776,814.7,178.0,180.5,4.2,1.3,8.89,48.81,1.9839,394.3507],
    [6028,1537384578,53.9434,-110.2776,814.2,178.2,180.0,4.3,2.3,9.45,48.95,1.9944,394.0019],
    [6029,1537384579,53.9427,-110.2775,814.9,181.1,178.8,3.0,2.2,9.05,49.27,1.9892,394.0019],
    [6030,1537384580,53.9421,-110.2774,815.3,184.3,179.4,4.4,2.1,8.79,49.68,1.9849,395.2852],
    [6031,1537384581,53.9414,-110.2773,813.4,185.8,179.9,5.0,1.9,9.55,49.54,1.9775,395.2852],
    [6032,1537384582,53.9407,-110.2773,811.3,181.9,179.3,4.3,1.8,9.11,49.96,1.9753,393.6544],
    [6033,1537384583,53.94,-110.2772,809.6,176.2,179.7,4.6,1.8,9.34,48.86,1.9757,394.1371],
    [6034,1537384584,53.9393,-110.2771,808.8,172.7,179.8,4.2,1.8,9.0,48.94,1.9762,394.7963],
    [6035,1537384585,53.9386,-110.277,808.8,172.8,179.9,4.0,2.5,9.33,48.77,1.9771,392.8114],
    [6036,1537384586,53.938,-110.277,810.7,174.7,179.4,2.7,2.0,9.11,49.18,1.9783,394.4305],
    [6037,1537384587,53.9373,-110.2769,813.3,178.4,179.6,2.7,1.8,9.34,48.53,1.9787,394.1977],
    [6038,1537384588,53.9366,-110.2769,814.1,180.0,180.3,2.6,1.9,9.2,48.43,1.9784,394.5114],
    [6039,1537384589,53.936,-110.2769,814.1,181.1,180.7,2.9,2.0,9.12,48.61,1.9769,394.8861],
    [6040,1537384590,53.9353,-110.2768,814.2,182.1,182.5,4.6,2.3,9.49,49.0,1.9774,393.7679],
    [6041,1537384591,53.9346,-110.2768,814.7,183.7,182.8,4.6,2.2,8.95,48.73,1.9749,393.7431],
    [6042,1537384592,53.9339,-110.2768,814.8,184.6,182.9,4.5,1.9,9.15,48.78,1.9755,394.1544],
    [6043,1537384593,53.9333,-110.2768,814.3,187.0,182.5,4.2,1.9,9.12,48.36,1.9757,394.7125],
    [6044,1537384594,53.9326,-110.2768,814.0,188.1,181.6,3.1,2.6,8.98,48.07,1.9754,394.1345],
    [6045,1537384595,53.9319,-110.2768,814.6,190.5,181.6,3.4,3.1,9.24,48.25,1.9755,393.583],
    [6046,1537384596,53.9313,-110.2767,815.5,192.5,181.1,2.9,2.4,9.07,48.17,1.9747,394.0896],
    [6047,1537384597,53.9306,-110.2767,815.4,193.4,181.1,3.0,1.4,9.3,47.65,1.9729,395.3127],
    [6048,1537384598,53.9299,-110.2767,814.1,192.1,180.8,2.7,1.6,8.43,47.75,1.9715,395.9247],
    [6049,1537384599,53.9293,-110.2767,813.2,191.4,180.8,3.1,2.1,9.34,47.67,1.9723,394.3159],
    [6050,1537384600,53.9286,-110.2766,812.8,193.2,180.9,3.2,2.2,8.96,48.23,1.9758,394.1984],
    [6051,1537384601,53.9279,-110.2766,813.2,197.1,180.1,2.5,2.1,9.35,47.05,1.9751,394.6605],
    [6052,1537384602,53.9273,-110.2766,813.6,203.0,180.7,3.2,1.7,9.52,46.39,1.9747,394.3524],
    [6053,1537384603,53.9266,-110.2765,813.5,212.0,181.2,3.6,1.2,9.04,47.34,1.9737,394.3782],
    [6054,1537384604,53.9259,-110.2765,812.9,217.8,181.6,4.0,1.2,9.22,47.75,1.9763,395.3114],
    [6055,1537384605,53.9253,-110.2765,812.5,225.1,181.6,3.9,1.6,8.97,47.26,1.9741,394.1646],
    [6056,1537384606,53.9246,-110.2765,812.4,228.5,181.3,3.5,2.0,9.77,47.26,1.9758,393.8805],
    [6057,1537384607,53.9239,-110.2764,812.9,230.6,181.4,3.9,2.1,9.14,47.56,1.9753,394.0229],
    [6058,1537384608,53.9233,-110.2764,813.5,232.5,181.6,4.1,1.9,9.59,47.31,1.9742,394.0229],
    [6059,1537384609,53.9226,-110.2764,813.8,232.8,181.2,3.6,1.5,9.6,47.14,1.9746,394.3691],
    [6060,1537384610,53.9219,-110.2763,814.5,233.5,180.7,3.1,1.2,8.98,47.64,1.9766,394.4563],
    [6061,1537384611,53.9213,-110.2763,816.2,235.2,180.2,2.7,0.5,9.03,47.66,1.9771,395.6011],
    [6062,1537384612,53.9206,-110.2763,817.0,236.0,181.0,3.3,0.3,9.37,47.77,1.9788,394.9213],
    [6063,1537384613,53.9199,-110.2762,816.3,236.3,180.6,2.6,0.8,8.93,47.93,1.98,394.2187],
    [6064,1537384614,53.9193,-110.2762,815.6,235.5,180.1,1.9,0.7,9.33,47.84,1.9801,394.9989],
    [6065,1537384615,53.9186,-110.2762,815.0,236.0,180.8,2.8,0.5,9.07,48.73,1.9793,394.9989],
    [6066,1537384616,53.9179,-110.2762,815.3,236.3,180.6,2.6,0.9,9.0,48.24,1.981,394.2715],
    [6067,1537384617,53.9173,-110.2761,814.3,235.3,180.7,2.9,2.0,9.7,48.1,1.9851,394.3549],
    [6068,1537384618,53.9166,-110.2761,813.2,234.2,180.8,3.0,2.1,9.05,48.14,1.9853,393.3674],
    [6069,1537384619,53.9159,-110.2761,812.8,233.8,180.5,2.7,1.4,8.61,47.88,1.9855,392.8239],
    [6070,1537384620,53.9152,-110.276,814.3,235.3,180.7,2.9,1.1,9.08,48.54,1.9867,392.9937],
    [6071,1537384621,53.9146,-110.276,816.0,237.0,180.4,2.6,1.2,8.98,48.16,1.9867,392.9937],
    [6072,1537384622,53.9139,-110.276,815.9,236.9,180.4,2.5,1.2,9.02,48.18,1.9861,392.8863],
    [6073,1537384623,53.9132,-110.2759,814.8,235.7,180.4,2.5,0.9,9.21,47.91,1.9877,394.01],
    [6074,1537384624,53.9125,-110.2759,814.1,234.0,180.9,3.2,0.8,9.03,48.69,1.9856,389.595],
    [6075,1537384625,53.9119,-110.2759,814.1,234.8,181.0,3.3,1.5,9.34,47.83,1.9904,393.0445],
    [6076,1537384626,53.9112,-110.2759,814.3,235.0,181.1,3.4,1.6,9.4,47.23,1.9906,393.0445],
    [6077,1537384627,53.9105,-110.2758,814.2,234.2,180.7,2.9,1.5,9.28,47.31,1.9907,394.046],
    [6078,1537384628,53.9098,-110.2758,814.3,234.3,180.4,2.6,1.9,9.2,46.67,1.9951,393.868],
    [6079,1537384629,53.9091,-110.2758,814.4,234.4,180.4,2.7,2.2,9.78,46.08,1.9997,392.2372],
    [6080,1537384630,53.9085,-110.2757,814.2,234.3,180.7,3.1,2.3,9.29,46.2,1.9898,393.2444],
    [6081,1537384631,53.9078,-110.2757,813.9,234.0,180.7,3.2,2.2,8.8,46.83,1.9738,392.6895],
    [6082,1537384632,53.9072,-110.2757,813.3,233.6,181.4,3.8,1.7,8.56,46.09,1.9823,392.991],
    [6083,1537384633,53.9064,-110.2756,812.4,232.7,181.1,3.2,2.0,8.88,45.28,2.0042,391.5258],
    [6084,1537384634,53.9058,-110.2756,812.0,232.8,181.2,3.4,1.9,8.87,44.86,2.0094,394.0651],
    [6085,1537384635,53.9051,-110.2756,812.2,233.2,181.4,3.6,1.4,9.38,44.26,1.9999,393.9324],
    [6086,1537384636,53.9045,-110.2756,811.3,231.3,181.3,3.6,1.9,9.14,44.97,1.978,393.718],
    [6087,1537384637,53.9037,-110.2755,809.7,228.7,181.3,3.6,2.4,9.03,44.98,1.981,392.8212],
    [6088,1537384638,53.9031,-110.2755,808.7,226.0,180.8,3.1,2.5,9.08,45.59,1.9825,392.5253],
    [6089,1537384639,53.9024,-110.2755,808.1,222.4,181.1,3.8,1.7,9.12,44.45,1.9869,392.925],
    [6090,1537384640,53.9017,-110.2754,807.6,219.3,180.5,3.2,1.3,8.78,44.22,1.9881,392.925],
    [6091,1537384641,53.901,-110.2754,806.8,214.4,180.4,3.5,2.2,9.35,43.44,2.0,392.8981],
    [6092,1537384642,53.9003,-110.2753,805.2,210.2,181.1,4.7,1.9,8.63,44.29,2.0073,393.7301],
    [6093,1537384643,53.8997,-110.2753,804.3,205.3,179.6,3.2,1.4,9.07,44.16,2.008,394.1969],
    [6094,1537384644,53.899,-110.2752,803.2,200.4,179.6,3.7,1.8,9.13,44.71,2.0062,392.8543],
    [6095,1537384645,53.8983,-110.2752,802.1,194.4,179.8,4.2,1.6,9.09,45.16,2.0072,394.0173],
    [6096,1537384646,53.8976,-110.2751,801.4,191.9,180.3,4.6,1.7,8.97,45.71,2.0085,393.7047],
    [6097,1537384647,53.8969,-110.275,801.1,189.0,180.0,4.2,2.1,9.49,45.54,2.0092,394.28],
    [6098,1537384648,53.8962,-110.275,800.4,188.3,180.7,5.0,1.8,8.71,45.72,2.0063,393.8314],
    [6099,1537384649,53.8956,-110.2749,799.4,188.1,180.8,4.9,1.6,8.87,45.91,2.0073,392.257],
    [6100,1537384650,53.8949,-110.2748,798.1,186.0,180.5,4.4,1.8,9.07,46.3,2.0099,394.7205],
    [6101,1537384651,53.8942,-110.2748,797.1,186.7,180.5,4.4,1.9,9.01,46.38,2.0065,394.2998],
    [6102,1537384652,53.8935,-110.2747,796.5,188.8,180.3,4.3,2.0,9.1,46.39,2.0067,393.7773],
    [6103,1537384653,53.8928,-110.2747,796.1,191.1,180.9,4.9,2.2,9.07,46.92,2.0063,394.1072],
    [6104,1537384654,53.8921,-110.2746,795.5,194.5,180.7,4.6,2.1,8.91,46.92,2.0081,393.199],
    [6105,1537384655,53.8914,-110.2746,794.5,195.2,180.5,4.3,1.8,9.1,47.07,2.0073,393.1984],
    [6106,1537384656,53.8907,-110.2745,793.0,195.1,180.5,4.3,1.1,9.04,47.74,2.0071,394.6322],
    [6107,1537384657,53.89,-110.2745,791.6,192.5,180.6,4.2,0.5,9.02,47.76,2.0076,392.5866],
    [6108,1537384658,53.8893,-110.2744,790.5,189.3,180.1,3.3,0.6,9.46,47.08,2.0079,393.9623],
    [6109,1537384659,53.8887,-110.2744,789.7,188.6,180.7,4.0,0.7,9.2,47.84,2.0072,394.2964],
    [6110,1537384660,53.888,-110.2743,789.3,189.3,182.2,5.6,0.2,8.96,47.96,2.0067,393.3991],
    [6111,1537384661,53.8873,-110.2743,789.3,188.5,181.8,4.7,-0.1,8.86,47.73,2.0081,394.0452],
    [6112,1537384662,53.8866,-110.2742,789.2,185.9,180.1,3.2,-0.6,8.8,47.76,2.0083,392.9142],
    [6113,1537384663,53.8859,-110.2742,789.0,184.7,180.7,4.3,-0.4,8.61,47.86,2.003,392.8742],
    [6114,1537384664,53.8852,-110.2741,789.0,182.0,180.2,3.4,0.0,9.36,47.54,2.0012,392.8862],
    [6115,1537384665,53.8845,-110.2741,790.0,181.1,179.9,2.8,0.9,9.21,47.93,2.0012,392.2601],
    [6116,1537384666,53.8838,-110.2741,790.4,177.7,180.5,3.0,2.0,9.61,47.83,1.9992,394.0621],
    [6117,1537384667,53.8831,-110.274,789.4,175.5,181.8,4.4,2.7,9.85,47.24,1.9986,393.795],
    [6118,1537384668,53.8824,-110.274,788.5,173.9,181.9,3.9,3.4,9.33,47.38,1.9951,393.6961],
    [6119,1537384669,53.8817,-110.274,787.8,175.4,181.5,3.4,3.5,9.75,46.76,1.9919,392.1674],
    [6120,1537384670,53.881,-110.274,787.2,177.5,182.3,4.9,2.5,9.71,46.49,1.9924,393.0717],
    [6121,1537384671,53.8803,-110.2739,786.2,179.7,182.2,4.8,2.4,9.22,46.5,1.994,393.7556],
    [6122,1537384672,53.8796,-110.2739,785.8,179.8,181.1,4.0,3.0,9.18,46.18,1.9937,393.6851],
    [6123,1537384673,53.8788,-110.2739,786.5,176.5,181.4,4.7,3.0,9.34,46.27,1.9944,389.2662],
    [6124,1537384674,53.8782,-110.2738,787.7,174.2,180.0,2.9,2.2,8.98,45.84,1.9929,392.7976],
    [6125,1537384675,53.8775,-110.2738,788.5,168.9,180.6,3.7,1.4,9.19,46.48,1.9929,391.5163],
    [6126,1537384676,53.8768,-110.2737,788.3,164.9,181.1,4.0,2.0,8.94,46.01,1.9936,393.6164],
    [6127,1537384677,53.8761,-110.2737,788.2,159.8,180.8,2.9,3.1,9.45,45.4,1.9925,393.5772],
    [6128,1537384678,53.8754,-110.2737,788.6,157.6,181.3,3.0,3.1,9.34,45.68,1.992,391.7623],
    [6129,1537384679,53.8747,-110.2737,788.3,152.3,181.1,2.3,2.7,9.41,45.65,1.9903,392.7455],
    [6130,1537384680,53.874,-110.2737,788.5,150.9,181.7,3.2,3.5,9.56,45.5,1.9867,393.9151],
    [6131,1537384681,53.8733,-110.2736,788.3,147.6,182.9,4.6,4.0,9.37,45.42,1.9874,392.6269],
    [6132,1537384682,53.8726,-110.2736,789.3,148.0,182.6,3.9,3.5,9.39,45.62,1.9871,393.441],
    [6133,1537384683,53.8719,-110.2736,790.1,148.1,182.7,4.2,3.1,9.35,45.28,1.9878,395.0346],
    [6134,1537384684,53.8712,-110.2736,789.8,146.8,183.1,4.6,2.9,9.2,44.6,1.9881,393.6784],
    [6135,1537384685,53.8705,-110.2736,789.6,145.6,183.5,4.9,2.2,9.39,44.41,1.9888,391.4438],
    [6136,1537384686,53.8698,-110.2736,789.8,144.8,182.9,4.2,2.2,9.41,44.35,1.9867,393.943],
    [6137,1537384687,53.8692,-110.2736,789.7,144.7,183.1,5.0,2.7,9.32,44.02,1.9856,391.1766],
    [6138,1537384688,53.8685,-110.2736,790.2,143.9,181.5,3.1,2.1,9.61,43.76,1.9881,394.0234],
    [6139,1537384689,53.8678,-110.2736,790.9,143.9,179.8,2.1,1.5,9.45,44.43,1.9871,393.847],
    [6140,1537384690,53.867,-110.2735,790.6,141.6,181.0,3.9,2.9,9.58,43.44,1.9867,392.8777],
    [6141,1537384691,53.8663,-110.2735,789.4,137.5,180.5,3.1,3.1,9.42,43.96,1.9875,393.5635],
    [6142,1537384692,53.8656,-110.2735,788.6,134.6,181.7,4.5,2.9,9.73,43.8,1.9865,393.3358],
    [6143,1537384693,53.8649,-110.2734,788.3,132.9,182.2,4.2,3.0,8.99,44.2,1.9868,392.0242],
    [6144,1537384694,53.8642,-110.2734,787.5,131.5,182.5,4.6,2.7,9.72,44.07,1.9885,390.0969],
    [6145,1537384695,53.8635,-110.2734,787.0,131.1,182.0,4.1,3.0,9.29,44.35,1.9862,392.627],
    [6146,1537384696,53.8629,-110.2734,787.7,131.7,181.0,3.7,3.7,9.86,44.16,1.9834,393.6906],
    [6147,1537384697,53.8622,-110.2733,787.7,132.8,181.1,4.5,3.1,10.02,43.95,1.9786,392.9838],
    [6148,1537384698,53.8615,-110.2733,787.0,132.0,180.6,4.7,2.8,9.58,43.76,1.9814,392.8817],
    [6149,1537384699,53.8608,-110.2732,784.8,129.0,180.8,5.0,2.7,9.21,44.17,1.9798,393.4739],
    [6150,1537384700,53.86,-110.2732,783.0,126.7,179.3,3.6,2.9,10.27,42.95,1.9774,393.9076],
    [6151,1537384701,53.8594,-110.2731,782.0,124.7,179.5,3.9,2.8,10.26,42.8,1.9727,394.0092],
    [6152,1537384702,53.8587,-110.273,783.5,125.5,178.5,2.0,2.7,9.4,42.94,1.9856,390.8344],
    [6153,1537384703,53.858,-110.273,785.2,127.2,179.0,2.0,2.5,9.67,42.83,1.9873,393.0551],
    [6154,1537384704,53.8573,-110.2729,786.2,128.9,179.8,2.2,2.5,10.0,42.97,1.9859,392.4065],
    [6155,1537384705,53.8566,-110.2729,787.2,131.9,180.9,2.7,2.7,10.28,42.8,1.9851,393.8173],
    [6156,1537384706,53.8559,-110.2729,788.6,134.6,181.4,2.5,2.6,10.36,42.96,1.9784,393.3496],
    [6157,1537384707,53.8552,-110.2729,788.7,137.8,182.0,2.6,2.4,10.33,42.87,1.9771,393.5196],
    [6158,1537384708,53.8545,-110.2729,788.3,140.3,182.4,2.9,2.4,10.3,42.64,1.9799,392.7829],
    [6159,1537384709,53.8538,-110.2729,788.1,146.1,182.7,3.1,2.8,9.81,42.99,1.9838,392.2181],
    [6160,1537384710,53.8531,-110.2729,788.6,150.9,182.6,3.0,2.5,9.41,43.65,1.9816,392.8286],
    [6161,1537384711,53.8525,-110.2729,788.9,153.0,182.3,2.7,2.1,9.51,43.63,1.9818,393.4638],
    [6162,1537384712,53.8518,-110.2729,788.6,150.3,182.1,2.5,2.4,9.44,43.86,1.9891,393.0445],
    [6163,1537384713,53.8511,-110.2729,789.0,145.6,182.0,2.1,1.9,9.66,43.05,1.9916,394.5516],
    [6164,1537384714,53.8504,-110.2729,789.5,143.5,181.5,2.1,2.1,9.19,43.56,1.9919,394.6208],
    [6165,1537384715,53.8497,-110.2729,789.7,142.8,181.7,3.0,3.3,9.71,43.73,1.9937,394.3836],
    [6166,1537384716,53.8491,-110.2729,789.4,140.4,181.3,2.6,3.2,9.6,44.47,1.9943,395.0657],
    [6167,1537384717,53.8484,-110.2729,788.9,139.9,181.4,2.8,3.0,9.75,45.26,1.994,395.1387],
    [6168,1537384718,53.8477,-110.2729,788.8,138.8,181.7,3.2,2.9,9.13,45.35,1.9931,393.6855],
    [6169,1537384719,53.847,-110.2729,788.9,139.9,182.2,3.7,3.0,9.64,45.66,1.9915,393.9088],
    [6170,1537384720,53.8463,-110.2729,788.7,139.7,182.4,3.8,2.6,9.1,45.92,1.9861,394.5689],
    [6171,1537384721,53.8456,-110.2729,788.2,138.2,182.1,3.3,2.3,9.54,45.86,1.9927,393.424],
    [6172,1537384722,53.845,-110.2729,788.8,136.8,181.8,2.9,2.2,9.4,46.3,1.9991,394.1855],
    [6173,1537384723,53.8443,-110.2729,789.2,137.2,182.4,3.3,1.0,10.06,45.3,1.9957,393.7279],
    [6174,1537384724,53.8436,-110.2729,789.1,138.1,182.4,2.8,0.6,9.67,46.15,1.9972,393.7279],
    [6175,1537384725,53.8429,-110.2729,788.3,137.3,183.4,4.1,0.6,9.37,46.56,1.993,393.0269],
    [6176,1537384726,53.8422,-110.2729,787.5,134.8,183.6,4.2,0.1,8.92,46.77,1.9938,393.8434],
    [6177,1537384727,53.8416,-110.2729,787.4,132.7,183.0,4.0,0.6,9.46,47.5,1.9956,393.901],
    [6178,1537384728,53.8409,-110.2729,787.3,131.2,182.5,3.5,0.9,9.39,47.12,1.9986,393.5879],
    [6179,1537384729,53.8402,-110.2729,787.4,131.7,181.9,3.0,0.9,9.52,47.57,1.9982,393.1152],
    [6180,1537384730,53.8395,-110.2729,787.4,132.4,183.0,4.3,1.6,10.08,47.36,1.998,394.5759],
    [6181,1537384731,53.8389,-110.2729,788.4,135.4,182.3,3.5,2.3,9.59,47.76,2.0014,393.4452],
    [6182,1537384732,53.8382,-110.2729,788.7,136.7,181.6,2.4,1.6,10.16,47.16,1.9987,392.1225],
    [6183,1537384733,53.8375,-110.2729,787.9,136.8,182.2,3.1,1.4,10.22,47.34,2.0002,393.1478],
    [6184,1537384734,53.8368,-110.2729,787.2,137.5,182.8,3.2,1.2,9.58,48.57,1.9966,393.7943],
    [6185,1537384735,53.8361,-110.2729,787.3,139.3,182.0,1.8,1.3,8.97,47.93,1.9974,393.4704],
    [6186,1537384736,53.8354,-110.2729,788.6,141.6,183.2,2.6,0.9,9.06,47.97,1.9989,393.4704],
    [6187,1537384737,53.8348,-110.2729,790.2,144.2,185.3,4.4,0.6,8.92,48.13,1.9988,393.2393],
    [6188,1537384738,53.8341,-110.273,790.4,145.4,185.4,4.4,1.6,9.97,48.16,1.9992,394.1936],
    [6189,1537384739,53.8334,-110.273,790.2,145.2,185.0,4.2,2.6,9.39,48.53,1.9995,394.3191],
    [6190,1537384740,53.8327,-110.273,790.5,145.8,185.0,4.8,3.4,9.79,48.09,1.9996,393.1457],
    [6191,1537384741,53.832,-110.2731,790.6,147.6,185.3,5.7,3.1,10.01,47.84,1.9992,393.0816],
    [6192,1537384742,53.8314,-110.2731,789.9,149.2,184.7,5.4,2.3,9.25,48.31,1.9992,394.9589],
    [6193,1537384743,53.8307,-110.2731,789.0,149.3,183.9,5.1,1.6,9.46,48.42,1.9999,394.2314],
    [6194,1537384744,53.83,-110.2731,788.1,148.5,182.8,4.7,1.3,10.28,47.95,2.0008,393.9646],
    [6195,1537384745,53.8293,-110.2731,787.6,147.9,182.8,5.2,1.5,9.72,48.21,1.9967,394.0734],
    [6196,1537384746,53.8287,-110.2731,786.9,148.2,183.1,5.6,1.8,9.62,49.02,1.9955,393.7202],
    [6197,1537384747,53.8279,-110.273,786.7,148.7,182.6,4.6,2.0,9.24,48.42,1.9936,393.8144],
    [6198,1537384748,53.8273,-110.273,787.3,148.6,181.9,3.6,2.0,9.58,48.12,1.9927,394.4],
    [6199,1537384749,53.8266,-110.273,788.5,147.6,182.6,4.8,1.4,9.27,48.3,1.9955,394.252],
    [6200,1537384750,53.8259,-110.273,789.4,146.4,183.1,4.9,1.5,9.27,48.16,1.9924,394.252],
    [6201,1537384751,53.8252,-110.273,789.1,143.9,183.1,4.8,1.6,9.58,47.63,1.9926,392.7565],
    [6202,1537384752,53.8245,-110.273,787.6,140.6,183.7,5.0,0.8,9.25,47.63,1.9916,393.818],
    [6203,1537384753,53.8238,-110.273,786.1,137.1,183.9,5.0,0.9,9.54,48.39,1.9953,394.6723],
    [6204,1537384754,53.8232,-110.273,784.8,134.7,185.4,6.2,0.3,9.33,47.4,1.9939,393.0678],
    [6205,1537384755,53.8225,-110.273,784.8,134.8,185.0,5.6,0.2,9.59,47.26,1.9908,394.4882],
    [6206,1537384756,53.8218,-110.273,786.0,136.0,185.0,6.0,1.0,8.93,47.5,1.9901,393.6391],
    [6207,1537384757,53.8211,-110.273,787.3,136.0,184.1,4.7,1.7,9.45,47.72,1.99,394.1798],
    [6208,1537384758,53.8204,-110.273,788.6,135.6,182.0,2.9,2.7,9.72,47.27,1.9891,393.7757],
    [6209,1537384759,53.8198,-110.273,788.6,134.0,182.5,4.2,3.5,9.09,47.14,1.9878,393.2093],
    [6210,1537384760,53.8191,-110.273,787.8,131.1,182.5,4.4,3.3,9.64,46.81,1.9871,394.8611],
    [6211,1537384761,53.8184,-110.273,787.1,130.1,182.1,4.0,2.6,9.06,46.72,1.9857,394.014],
    [6212,1537384762,53.8177,-110.273,787.3,129.2,182.5,4.3,1.9,9.81,46.06,1.9876,392.6082],
    [6213,1537384763,53.817,-110.273,787.8,128.8,182.6,4.2,1.3,9.5,46.32,1.9887,393.9385],
    [6214,1537384764,53.8164,-110.273,787.8,127.8,182.8,4.2,1.2,9.31,46.22,1.9853,393.1669],
    [6215,1537384765,53.8157,-110.2729,787.2,126.2,182.5,3.7,1.2,9.43,46.02,1.9862,391.2574],
    [6216,1537384766,53.815,-110.2729,787.4,126.7,182.4,3.5,0.9,10.17,45.39,1.9877,391.2574],
    [6217,1537384767,53.8143,-110.2729,788.3,129.3,182.5,3.4,0.3,9.29,45.59,1.9898,393.8697],
    [6218,1537384768,53.8137,-110.2729,788.4,128.4,182.7,3.5,-0.7,9.25,45.57,1.9902,393.8697],
    [6219,1537384769,53.813,-110.2729,787.3,126.3,183.4,3.8,-1.0,9.48,45.85,1.9938,394.3622],
    [6220,1537384770,53.8123,-110.273,786.5,122.8,182.6,2.7,-1.4,9.45,45.92,1.9955,393.8009],
    [6221,1537384771,53.8117,-110.273,786.2,120.5,182.0,2.3,-1.5,9.62,45.39,1.9952,393.923],
    [6222,1537384772,53.811,-110.273,787.0,121.0,182.4,3.5,-1.2,10.12,45.81,2.002,393.0885],
    [6223,1537384773,53.8103,-110.273,787.7,120.7,181.5,2.6,-1.4,9.24,46.68,2.0003,392.2127],
    [6224,1537384774,53.8096,-110.2729,788.6,121.6,180.2,1.6,-0.4,8.92,46.29,1.9999,394.008],
    [6225,1537384775,53.8089,-110.2729,788.5,122.2,182.6,4.0,0.4,9.32,47.3,2.0004,393.8415],
    [6226,1537384776,53.8082,-110.2729,788.2,122.2,182.8,3.2,0.7,9.8,46.97,2.0045,394.6241],
    [6227,1537384777,53.8076,-110.2729,787.6,121.6,184.2,3.9,1.6,9.55,47.05,2.0055,394.7589],
    [6228,1537384778,53.8069,-110.273,787.3,120.3,185.1,4.0,1.5,9.52,47.99,2.0038,394.0981],
    [6229,1537384779,53.8062,-110.273,787.3,120.3,185.2,3.9,1.8,9.35,48.26,2.0018,394.512],
    [6230,1537384780,53.8055,-110.2731,788.1,122.1,185.9,4.9,1.8,9.37,47.68,2.0031,394.6685],
    [6231,1537384781,53.8049,-110.2731,788.8,122.7,185.2,4.5,1.9,8.95,47.6,2.0077,394.3621],
    [6232,1537384782,53.8042,-110.2731,788.8,123.8,184.9,4.9,1.6,8.79,47.41,2.0056,393.8825],
    [6233,1537384783,53.8035,-110.2732,789.3,124.2,184.7,5.0,0.7,10.06,47.17,2.0024,393.8507],
    [6234,1537384784,53.8028,-110.2732,790.5,126.2,183.9,4.3,0.7,9.4,47.83,2.0055,392.7044],
    [6235,1537384785,53.8022,-110.2732,790.4,128.1,183.0,3.7,1.4,8.73,47.76,2.0091,393.3704],
    [6236,1537384786,53.8015,-110.2732,789.5,128.2,182.6,3.4,1.7,8.88,48.03,2.0095,392.6203],
    [6237,1537384787,53.8008,-110.2732,788.0,126.7,182.8,3.8,1.9,9.33,48.67,2.0081,392.7799],
    [6238,1537384788,53.8001,-110.2732,787.5,127.8,183.1,4.1,2.9,9.28,48.76,2.0088,394.5185],
    [6239,1537384789,53.7994,-110.2732,787.6,130.6,183.4,4.2,3.3,9.33,48.47,2.0088,393.2992],
    [6240,1537384790,53.7987,-110.2732,788.5,131.8,182.1,2.3,2.8,9.63,48.56,2.0078,393.098],
    [6241,1537384791,53.7981,-110.2732,789.3,131.8,182.2,2.6,1.8,9.4,48.4,2.0077,393.5447],
    [6242,1537384792,53.7974,-110.2732,788.2,127.8,182.9,3.2,1.4,9.5,48.63,2.0053,393.0042],
    [6243,1537384793,53.7967,-110.2732,785.7,123.6,183.0,3.3,1.2,9.46,48.24,2.0064,393.3047],
    [6244,1537384794,53.796,-110.2733,784.0,120.0,183.1,3.0,0.6,10.13,47.46,2.0062,393.4798],
    [6245,1537384795,53.7953,-110.2733,783.3,118.3,183.0,2.8,0.5,9.92,47.23,2.0022,392.6381],
    [6246,1537384796,53.7947,-110.2733,783.3,117.3,183.3,3.0,0.6,9.37,47.67,2.0024,392.8606],
    [6247,1537384797,53.794,-110.2733,783.6,117.5,182.8,2.5,1.0,9.5,47.35,1.9989,392.102],
    [6248,1537384798,53.7933,-110.2733,783.7,119.5,182.4,2.2,1.8,9.34,47.02,1.9985,393.986],
    [6249,1537384799,53.7926,-110.2733,784.2,121.0,182.4,2.3,2.7,8.99,47.13,1.9995,393.1099],
    [6250,1537384800,53.792,-110.2734,785.5,122.4,182.1,1.8,2.5,9.57,46.66,1.9999,392.7816],
    [6251,1537384801,53.7913,-110.2734,787.4,125.4,181.8,2.1,2.8,9.38,47.69,1.9995,392.8581],
    [6252,1537384802,53.7906,-110.2734,789.3,128.9,183.1,3.7,3.3,9.35,47.03,1.9976,392.6586],
    [6253,1537384803,53.79,-110.2734,791.3,135.0,181.3,1.8,3.0,9.15,46.96,1.9975,393.2603],
    [6254,1537384804,53.7893,-110.2734,791.5,136.9,182.2,3.4,2.7,9.38,47.04,1.9934,393.3736],
    [6255,1537384805,53.7886,-110.2734,790.9,136.9,182.7,4.1,2.1,9.65,46.1,1.9956,393.0949],
    [6256,1537384806,53.788,-110.2734,791.2,138.2,182.1,3.6,1.9,9.48,46.0,1.9971,393.4846],
    [6257,1537384807,53.7873,-110.2733,791.4,139.4,181.2,2.4,2.1,8.98,46.02,1.9985,393.5848],
    [6258,1537384808,53.7866,-110.2733,791.7,140.7,181.8,3.3,2.3,9.36,45.85,1.9988,393.9315],
    [6259,1537384809,53.786,-110.2733,791.0,141.0,183.4,5.1,2.2,9.94,45.2,1.9948,392.944],
    [6260,1537384810,53.7853,-110.2733,789.4,141.9,183.2,4.6,2.3,9.62,45.72,1.9915,393.942],
    [6261,1537384811,53.7846,-110.2733,788.1,143.1,183.1,4.8,2.4,9.64,45.42,1.9902,392.6204],
    [6262,1537384812,53.784,-110.2733,787.0,145.4,182.6,4.4,2.1,9.34,45.46,1.9891,392.9044],
    [6263,1537384813,53.7833,-110.2733,786.3,151.6,182.1,4.6,2.2,9.4,45.9,1.9924,392.506],
    [6264,1537384814,53.7826,-110.2732,785.9,155.7,182.2,4.9,1.4,9.9,44.67,1.9943,392.0971],
    [6265,1537384815,53.7819,-110.2732,786.3,162.8,181.5,4.3,0.9,9.4,44.91,1.9927,392.2345],
    [6266,1537384816,53.7812,-110.2732,786.6,166.6,181.6,4.7,1.1,9.38,44.35,1.9953,393.5171],
    [6267,1537384817,53.7806,-110.2731,786.0,169.3,181.6,4.5,0.7,9.56,44.12,1.9951,391.8751],
    [6268,1537384818,53.7799,-110.2731,785.6,173.2,181.4,4.4,0.3,9.5,44.04,1.9902,392.0383],
    [6269,1537384819,53.7792,-110.2731,785.8,175.9,181.4,4.2,0.4,9.4,44.47,1.9953,392.9382],
    [6270,1537384820,53.7786,-110.273,786.4,178.5,181.0,3.7,0.3,9.54,44.58,1.9995,390.3829],
    [6271,1537384821,53.7779,-110.273,787.3,179.3,181.2,3.9,0.2,9.06,44.36,2.0036,392.7446],
    [6272,1537384822,53.7773,-110.273,787.9,181.6,181.2,3.8,-0.2,9.44,44.64,2.0118,392.3599],
    [6273,1537384823,53.7766,-110.2729,788.2,183.1,181.1,3.4,-0.7,9.32,43.95,2.0137,392.3599],
    [6274,1537384824,53.7759,-110.2729,788.0,184.3,180.8,2.7,-1.1,8.88,44.56,2.017,392.576],
    [6275,1537384825,53.7752,-110.2729,788.0,186.3,181.0,2.9,-1.1,9.51,44.55,2.0222,393.6209],
    [6276,1537384826,53.7746,-110.2729,788.6,186.6,181.0,2.6,-1.0,9.4,45.44,2.0186,393.1651],
    [6277,1537384827,53.7739,-110.2728,789.2,187.3,180.7,2.4,-1.0,9.35,45.09,2.0281,393.1651],
    [6278,1537384828,53.7732,-110.2728,789.3,186.3,181.3,2.8,0.0,9.33,45.05,2.0352,394.0565],
    [6279,1537384829,53.7726,-110.2728,789.0,186.3,180.8,1.8,0.4,9.15,45.77,2.0389,393.469],
    [6280,1537384830,53.7719,-110.2728,789.9,188.2,180.4,2.0,1.0,9.26,45.38,2.0588,392.3108],
    [6281,1537384831,53.7712,-110.2728,791.5,190.5,181.4,3.0,2.0,9.87,45.27,2.0651,393.5946],
    [6282,1537384832,53.7705,-110.2727,792.1,190.0,180.5,2.2,1.5,8.99,46.42,2.044,393.9728],
    [6283,1537384833,53.7698,-110.2727,790.6,189.3,181.3,3.2,0.7,9.15,46.35,2.0383,393.9728],
    [6284,1537384834,53.7692,-110.2727,789.8,189.1,180.9,2.7,1.2,9.19,46.28,2.0195,393.8773],
    [6285,1537384835,53.7685,-110.2727,789.8,191.1,181.4,3.4,2.3,9.49,46.96,2.0132,392.4867],
    [6286,1537384836,53.7678,-110.2727,789.8,194.1,182.3,4.1,2.5,9.98,45.9,2.037,393.8561],
    [6287,1537384837,53.7671,-110.2726,789.1,199.4,182.8,4.4,2.4,9.26,46.36,2.0475,392.8372],
    [6288,1537384838,53.7665,-110.2726,788.4,201.4,183.3,4.6,1.8,9.35,46.5,2.0411,391.6816],
    [6289,1537384839,53.7658,-110.2726,788.4,202.4,184.3,5.6,1.6,9.21,46.58,2.0183,393.1457],
    [6290,1537384840,53.7651,-110.2726,788.6,202.7,184.0,5.3,1.3,9.5,46.46,2.0108,393.3643],
    [6291,1537384841,53.7644,-110.2726,788.5,202.5,183.5,5.0,0.9,8.67,46.38,2.0003,391.7208],
    [6292,1537384842,53.7638,-110.2726,787.8,201.8,183.0,4.8,0.7,9.12,46.26,1.9895,393.3015],
    [6293,1537384843,53.7631,-110.2726,787.7,201.0,182.2,4.2,0.6,8.93,45.4,1.9847,392.8759],
    [6294,1537384844,53.7624,-110.2726,788.0,201.0,181.6,3.6,-0.1,8.96,44.9,1.9831,392.8434],
    [6295,1537384845,53.7617,-110.2726,787.8,201.4,181.9,4.0,-0.7,9.2,44.24,1.9818,394.088],
    [6296,1537384846,53.7611,-110.2725,787.5,201.5,182.3,4.5,-0.2,9.21,43.75,1.9844,392.4884],
    [6297,1537384847,53.7604,-110.2725,788.0,201.0,182.2,4.1,0.2,9.35,43.65,1.9928,393.1681],
    [6298,1537384848,53.7597,-110.2725,789.5,200.9,181.1,2.6,-0.2,9.3,43.25,2.0185,393.7184],
    [6299,1537384849,53.7591,-110.2725,791.3,200.6,180.3,1.8,-0.7,9.67,43.56,2.0196,394.0579],
    [6300,1537384850,53.7584,-110.2725,791.5,198.3,181.2,3.0,-1.1,9.27,44.48,2.0212,394.9153],
    [6301,1537384851,53.7577,-110.2724,789.7,193.9,182.3,3.8,-1.1,9.64,45.35,2.0189,393.1717],
    [6302,1537384852,53.757,-110.2724,787.6,188.9,181.1,2.5,-0.4,9.79,45.68,2.0271,393.5482],
    [6303,1537384853,53.7564,-110.2724,786.6,182.6,182.8,4.5,0.4,9.28,46.52,2.032,393.9932],
    [6304,1537384854,53.7557,-110.2724,786.8,180.3,183.1,4.8,1.3,9.88,46.9,2.0339,394.0213],
    [6305,1537384855,53.755,-110.2724,787.4,178.9,182.9,4.7,1.7,9.31,47.74,2.0383,393.3989],
    [6306,1537384856,53.7543,-110.2724,788.3,178.3,182.7,4.4,1.2,8.87,47.22,2.0797,393.5928],
    [6307,1537384857,53.7536,-110.2724,789.0,179.0,182.1,3.9,1.2,9.28,47.41,2.078,393.5928],
    [6308,1537384858,53.753,-110.2723,788.8,178.3,182.4,4.5,1.4,9.21,47.62,2.0233,392.7249],
    [6309,1537384859,53.7523,-110.2723,788.4,176.6,182.1,4.2,1.4,9.52,47.6,2.0199,392.715],
    [6310,1537384860,53.7516,-110.2723,788.4,175.4,182.1,4.3,1.2,8.76,47.47,2.0194,393.9646],
    [6311,1537384861,53.7509,-110.2723,788.2,176.0,182.3,4.6,0.9,9.42,47.27,2.0209,394.096],
    [6312,1537384862,53.7503,-110.2723,787.9,175.4,182.8,5.2,0.7,9.44,47.14,2.0177,393.7744],
    [6313,1537384863,53.7496,-110.2722,787.9,175.7,182.5,4.8,0.6,8.99,46.98,2.0166,392.9642],
    [6314,1537384864,53.7489,-110.2722,788.2,175.7,182.4,4.8,0.4,8.9,46.79,2.0144,392.9747],
    [6315,1537384865,53.7482,-110.2722,788.1,175.7,182.4,4.8,0.3,9.32,47.0,2.0088,391.8464],
    [6316,1537384866,53.7475,-110.2722,788.2,176.7,182.2,4.6,0.5,9.34,46.25,2.0084,392.1677],
    [6317,1537384867,53.7469,-110.2721,788.0,176.7,181.9,4.1,0.4,9.16,46.1,2.0298,393.0712],
    [6318,1537384868,53.7462,-110.2721,787.6,177.0,181.8,4.0,0.1,9.22,45.94,2.0304,393.399],
    [6319,1537384869,53.7455,-110.2721,788.0,175.0,182.0,4.2,-0.2,9.78,45.57,2.0166,393.2927],
    [6320,1537384870,53.7449,-110.2721,789.0,172.8,182.2,4.5,-0.3,8.82,45.86,2.0272,393.3889],
    [6321,1537384871,53.7442,-110.272,790.1,174.5,182.4,4.6,0.4,9.34,46.06,2.0353,393.5052],
    [6322,1537384872,53.7435,-110.272,790.5,178.8,182.3,4.3,0.5,9.94,45.5,2.0378,392.0978],
    [6323,1537384873,53.7428,-110.272,791.2,183.2,181.1,2.9,0.7,9.35,45.96,2.038,392.5293],
    [6324,1537384874,53.7422,-110.272,791.9,185.9,180.8,2.9,1.7,9.6,46.54,2.0349,392.3693],
    [6325,1537384875,53.7415,-110.2719,791.4,185.5,180.8,3.0,2.0,9.12,47.26,2.0321,392.3603],
    [6326,1537384876,53.7408,-110.2719,790.3,180.4,181.1,3.2,2.1,9.15,47.7,2.0297,392.5215],
    [6327,1537384877,53.7401,-110.2719,789.7,177.1,181.7,3.5,2.3,9.35,48.11,2.0286,392.6653],
    [6328,1537384878,53.7394,-110.2719,790.1,173.9,181.6,3.0,2.6,9.17,48.16,2.0251,392.6638],
    [6329,1537384879,53.7388,-110.2719,790.3,174.3,181.4,2.6,2.9,9.03,48.21,2.0268,392.9563],
    [6330,1537384880,53.7381,-110.2719,790.0,175.6,182.2,3.5,3.0,9.34,48.82,2.0257,393.8405],
    [6331,1537384881,53.7374,-110.2719,789.6,178.8,182.6,3.5,2.9,9.8,48.04,2.0249,393.63],
    [6332,1537384882,53.7367,-110.2719,790.5,181.7,182.5,3.3,3.0,9.11,48.38,2.0237,393.63],
    [6333,1537384883,53.7361,-110.2719,791.6,185.3,183.0,3.9,3.0,8.58,48.28,2.0225,393.639],
    [6334,1537384884,53.7354,-110.2719,791.9,189.0,182.8,3.9,2.7,9.18,48.35,2.0208,393.6515],
    [6335,1537384885,53.7347,-110.2719,792.1,194.4,182.9,4.3,2.5,9.67,48.19,2.0197,392.7458],
    [6336,1537384886,53.734,-110.2719,791.8,196.5,182.8,4.2,2.1,9.34,48.89,2.0202,390.1629],
    [6337,1537384887,53.7334,-110.2718,791.3,197.9,182.2,3.5,2.0,9.68,47.81,2.0198,393.6761],
    [6338,1537384888,53.7327,-110.2718,791.1,201.7,181.7,3.3,2.0,9.84,47.95,2.0213,393.0754],
    [6339,1537384889,53.732,-110.2718,790.7,204.0,182.2,4.0,2.0,8.95,48.57,2.0225,392.7109],
    [6340,1537384890,53.7313,-110.2718,790.7,207.1,181.6,3.1,1.7,9.79,47.9,2.0223,392.9231],
    [6341,1537384891,53.7307,-110.2718,791.2,209.0,180.9,2.6,1.2,9.61,48.45,2.0186,392.9434],
    [6342,1537384892,53.73,-110.2718,790.6,209.7,182.7,4.8,1.3,9.25,49.51,2.0158,392.2803],
    [6343,1537384893,53.7293,-110.2717,789.7,209.7,183.0,5.0,1.8,9.02,48.9,2.0132,391.5483],
    [6344,1537384894,53.7286,-110.2717,789.5,209.5,182.8,4.5,1.5,8.98,48.52,2.0185,393.7593],
    [6345,1537384895,53.728,-110.2717,790.4,211.4,181.3,2.8,0.8,9.95,47.8,2.0173,391.0544],
    [6346,1537384896,53.7273,-110.2717,790.1,211.4,181.8,3.8,1.1,9.65,48.14,2.0143,392.0695],
    [6347,1537384897,53.7266,-110.2717,788.8,210.1,182.9,5.2,1.1,9.34,48.94,2.0122,393.1537],
    [6348,1537384898,53.7259,-110.2717,788.2,210.4,182.3,4.5,1.1,9.29,48.48,2.0096,392.555],
    [6349,1537384899,53.7253,-110.2716,788.2,210.1,182.5,4.9,1.1,9.42,48.19,2.0068,393.0498],
    [6350,1537384900,53.7246,-110.2716,788.3,211.0,182.1,4.4,0.9,9.18,48.2,2.0078,393.4838],
    [6351,1537384901,53.7239,-110.2716,788.6,211.2,182.0,4.5,0.7,9.44,48.31,2.0105,392.8975],
    [6352,1537384902,53.7232,-110.2716,788.7,212.1,182.0,4.4,0.5,9.29,48.27,2.0131,391.5505],
    [6353,1537384903,53.7226,-110.2715,788.5,212.7,181.8,4.3,0.7,9.28,48.34,2.0089,391.0393],
    [6354,1537384904,53.7219,-110.2715,787.9,213.7,182.2,4.8,0.6,9.28,48.58,2.0045,393.0887],
    [6355,1537384905,53.7212,-110.2715,787.5,213.5,181.9,4.2,0.4,9.14,48.31,2.0016,392.6488],
    [6356,1537384906,53.7205,-110.2714,787.8,213.8,181.8,4.3,0.3,9.52,48.22,2.0004,392.6488],
    [6357,1537384907,53.7198,-110.2714,787.9,213.9,181.9,4.3,0.2,9.31,47.9,1.9996,392.4693],
    [6358,1537384908,53.7192,-110.2714,787.7,213.7,181.7,4.3,0.7,9.21,46.71,1.9999,392.8168],
    [6359,1537384909,53.7185,-110.2714,787.5,214.6,181.7,4.2,0.5,9.12,46.49,2.0008,392.2503],
    [6360,1537384910,53.7178,-110.2713,787.6,215.6,181.4,4.0,0.1,9.43,45.94,1.9983,390.1753],
    [6361,1537384911,53.7171,-110.2713,788.5,216.5,181.4,3.9,-0.2,9.13,45.86,2.0099,391.965],
    [6362,1537384912,53.7165,-110.2713,789.6,217.6,181.2,3.6,-0.5,9.65,44.99,2.0248,393.403],
    [6363,1537384913,53.7158,-110.2712,790.0,218.0,181.0,3.4,-0.4,9.71,45.73,2.0217,392.7595],
    [6364,1537384914,53.7151,-110.2712,789.1,217.1,181.7,3.9,-0.1,8.94,47.03,2.012,392.0672],
    [6365,1537384915,53.7145,-110.2712,788.2,216.2,182.2,4.3,-0.1,9.24,47.0,2.012,392.0868],
    [6366,1537384916,53.7138,-110.2712,788.1,216.1,182.3,4.1,-0.6,9.47,47.68,2.0139,392.4756],
    [6367,1537384917,53.7131,-110.2711,788.5,217.2,181.7,3.4,-0.7,9.24,47.6,2.0139,392.5239],
    [6368,1537384918,53.7124,-110.2711,788.1,218.1,181.6,3.2,-0.2,9.51,47.87,2.0126,392.9266],
    [6369,1537384919,53.7118,-110.2711,787.9,219.8,181.6,3.1,-0.3,9.72,47.58,2.01,392.1986],
    [6370,1537384920,53.7111,-110.2711,788.7,221.7,181.1,2.5,-0.5,9.26,48.56,2.0095,393.0631],
    [6371,1537384921,53.7104,-110.2711,790.1,223.1,181.3,2.6,0.6,9.06,48.38,2.0023,389.5718],
    [6372,1537384922,53.7097,-110.2711,792.4,224.4,179.8,1.0,1.6,9.61,48.05,1.9947,392.6551],
    [6373,1537384923,53.7091,-110.271,793.8,227.5,181.9,3.6,1.4,9.21,49.22,1.9943,392.5042],
    [6374,1537384924,53.7084,-110.271,793.6,228.9,181.2,2.5,1.8,9.41,48.68,1.9958,393.8254],
    [6375,1537384925,53.7077,-110.271,792.4,231.7,181.8,3.3,2.4,9.56,48.27,1.9994,391.8568],
    [6376,1537384926,53.707,-110.271,791.2,233.1,182.3,3.3,2.4,9.2,48.66,1.9992,393.1114],
    [6377,1537384927,53.7064,-110.271,791.2,236.1,182.5,3.4,1.9,9.71,48.63,1.9969,392.7644],
    [6378,1537384928,53.7057,-110.271,791.0,238.0,183.4,4.1,0.7,9.17,48.77,1.9946,391.801],
    [6379,1537384929,53.7051,-110.271,790.7,238.6,182.5,3.2,0.6,9.12,48.87,1.9942,392.6923],
    [6380,1537384930,53.7043,-110.271,790.0,238.0,182.6,3.7,1.6,8.91,48.7,1.9894,392.9232],
    [6381,1537384931,53.7036,-110.271,789.8,237.8,182.2,3.7,1.9,9.89,48.13,1.9851,392.3834],
    [6382,1537384932,53.703,-110.271,791.4,237.4,182.2,4.0,1.2,9.29,48.99,1.9838,390.5014],
    [6383,1537384933,53.7023,-110.271,793.7,240.1,181.6,3.0,1.7,9.82,48.04,1.9841,393.1198],
    [6384,1537384934,53.7016,-110.271,794.5,243.0,182.4,4.1,1.8,9.28,48.45,1.9786,392.0947],
    [6385,1537384935,53.7009,-110.271,793.0,243.3,183.2,4.8,1.0,9.14,48.27,1.984,391.8863],
    [6386,1537384936,53.7003,-110.2709,791.6,243.5,182.5,3.8,0.6,8.88,48.17,1.9815,392.0178],
    [6387,1537384937,53.6996,-110.2709,791.4,243.4,181.1,2.5,1.0,9.39,48.07,1.985,392.4558],
    [6388,1537384938,53.6989,-110.2709,791.5,243.5,182.6,4.7,2.2,9.18,48.22,1.9884,392.0853],
    [6389,1537384939,53.6982,-110.2709,791.2,243.2,182.1,4.0,2.0,8.98,48.33,1.9875,392.0853],
    [6390,1537384940,53.6975,-110.2709,791.3,242.2,181.4,3.6,1.8,9.32,49.23,1.9824,393.1207],
    [6391,1537384941,53.6968,-110.2709,790.4,239.4,182.8,5.3,1.7,9.29,49.08,1.9817,391.8836],
    [6392,1537384942,53.6961,-110.2708,788.7,235.7,182.6,4.8,1.5,9.31,48.58,1.979,392.3534],
    [6393,1537384943,53.6955,-110.2708,787.6,233.3,182.2,4.3,1.3,9.08,48.47,1.9753,390.1036],
    [6394,1537384944,53.6948,-110.2708,787.6,231.8,182.4,4.6,1.3,9.15,48.6,1.9794,391.5842],
    [6395,1537384945,53.6941,-110.2708,787.9,230.1,181.9,3.9,1.5,9.91,47.47,1.9847,391.5587],
    [6396,1537384946,53.6934,-110.2708,788.3,229.2,180.8,2.2,1.2,9.6,47.06,1.9897,391.6378],
    [6397,1537384947,53.6927,-110.2707,788.9,228.9,180.3,1.8,0.7,8.8,47.81,1.9838,392.4541],
    [6398,1537384948,53.692,-110.2707,789.1,229.1,182.0,4.4,0.0,8.82,48.24,1.9789,390.8534],
    [6399,1537384949,53.6913,-110.2707,789.3,229.3,183.5,5.4,-0.8,9.33,49.24,1.9762,392.2248],
    [6400,1537384950,53.6906,-110.2707,789.6,230.6,180.7,2.2,0.2,9.4,48.64,1.9763,393.2692],
    [6401,1537384951,53.6899,-110.2707,788.6,230.6,181.9,3.9,1.2,9.64,48.37,1.9772,392.3559],
    [6402,1537384952,53.6892,-110.2706,786.9,230.1,182.7,5.1,1.2,9.42,47.99,1.9784,392.8799],
    [6403,1537384953,53.6885,-110.2706,785.1,230.9,182.2,4.3,1.2,9.18,48.07,1.9788,393.2157],
    [6404,1537384954,53.6878,-110.2706,785.2,233.9,180.7,2.5,1.4,9.05,48.25,1.9795,392.9751],
    [6405,1537384955,53.6871,-110.2706,785.8,243.0,181.0,3.1,1.9,9.42,48.89,1.9766,393.1215],
    [6406,1537384956,53.6864,-110.2706,785.7,253.6,181.7,4.1,1.3,8.91,48.2,1.9782,392.9144],
    [6407,1537384957,53.6857,-110.2705,784.2,265.1,182.3,4.5,0.3,9.64,48.23,1.9761,391.8037],
    [6408,1537384958,53.685,-110.2705,782.7,270.5,182.1,4.4,1.0,9.41,48.07,1.978,392.5441],
    [6409,1537384959,53.6843,-110.2705,782.2,276.7,182.4,4.6,1.6,9.36,48.73,1.9842,392.7645],
    [6410,1537384960,53.6836,-110.2705,781.9,277.9,181.7,3.7,0.8,9.16,48.1,1.9835,394.083],
    [6411,1537384961,53.6829,-110.2704,780.5,276.5,182.3,4.5,-0.1,9.74,47.86,1.9781,391.7758],
    [6412,1537384962,53.6822,-110.2704,778.2,272.2,182.8,4.8,-0.2,9.25,48.58,1.9782,392.2496],
    [6413,1537384963,53.6815,-110.2704,776.7,269.1,182.1,4.2,0.4,8.74,48.6,1.9776,392.3836],
    [6414,1537384964,53.6808,-110.2704,775.8,265.1,182.6,4.8,1.0,9.33,48.86,1.9774,392.7286],
    [6415,1537384965,53.6801,-110.2704,774.9,262.8,182.2,4.5,1.4,9.94,48.1,1.9889,392.7537],
    [6416,1537384966,53.6794,-110.2703,774.8,261.8,181.5,3.6,2.2,9.36,48.28,1.9949,393.1957],
    [6417,1537384967,53.6787,-110.2703,775.5,262.5,181.1,3.1,2.3,9.61,48.02,1.9939,393.7708],
    [6418,1537384968,53.678,-110.2703,776.3,262.3,181.1,2.9,1.3,9.53,48.48,1.9926,394.1255],
    [6419,1537384969,53.6773,-110.2703,775.8,260.9,182.0,3.5,0.1,9.54,49.01,1.9953,392.5095],
    [6420,1537384970,53.6766,-110.2703,775.4,256.7,180.8,2.0,0.2,9.47,50.33,1.9972,394.1139],
    [6421,1537384971,53.6759,-110.2703,774.8,251.8,182.1,3.7,0.5,9.41,50.34,1.9979,392.3927],
    [6422,1537384972,53.6752,-110.2703,772.5,239.0,182.6,4.0,0.2,10.22,49.97,1.9978,393.8734],
    [6423,1537384973,53.6745,-110.2702,770.0,229.6,181.5,2.8,-0.3,9.2,50.59,1.9975,394.085],
    [6424,1537384974,53.6738,-110.2702,768.1,216.7,181.9,3.6,0.1,8.91,50.63,1.9954,393.0899],
    [6425,1537384975,53.673,-110.2702,764.6,202.2,181.9,3.7,0.8,9.12,50.82,1.9934,392.4622],
    [6426,1537384976,53.6723,-110.2702,761.5,193.7,181.3,3.3,1.0,9.52,50.58,1.9932,393.2911],
    [6427,1537384977,53.6716,-110.2702,759.7,184.3,181.0,3.1,0.5,9.8,50.18,1.9931,393.2788],
    [6428,1537384978,53.6709,-110.2701,758.7,179.2,180.9,3.0,0.2,9.13,50.65,1.9929,393.1709],
    [6429,1537384979,53.6702,-110.2701,758.6,173.1,181.1,3.2,0.0,10.22,50.24,1.9943,393.2161],
    [6430,1537384980,53.6695,-110.2701,758.1,169.1,180.9,3.0,0.1,9.47,50.66,1.9934,393.0263],
    [6431,1537384981,53.6688,-110.2701,758.0,165.9,181.3,3.3,0.3,9.02,50.66,1.9928,394.2288],
    [6432,1537384982,53.668,-110.2701,758.4,165.7,181.9,3.7,0.2,10.09,50.3,1.9942,393.0552],
    [6433,1537384983,53.6673,-110.27,758.8,166.1,181.9,3.4,0.4,9.39,50.58,1.9936,393.1016],
    [6434,1537384984,53.6666,-110.27,759.8,169.6,181.7,3.1,0.4,10.23,50.28,1.9865,392.0065],
    [6435,1537384985,53.6659,-110.27,759.8,171.1,182.6,4.2,0.1,8.94,50.42,1.9788,393.7675],
    [6436,1537384986,53.6652,-110.27,758.9,171.9,182.9,4.4,0.1,9.47,50.31,1.9745,392.3972],
    [6437,1537384987,53.6645,-110.27,758.5,171.5,182.6,3.9,-0.2,9.49,50.13,1.9711,392.7581],
    [6438,1537384988,53.6638,-110.27,758.0,169.0,182.8,4.3,-0.3,10.08,49.28,1.9696,393.1279],
    [6439,1537384989,53.6631,-110.27,758.1,166.4,183.1,4.7,-0.6,10.21,48.61,1.972,392.4896],
    [6440,1537384990,53.6623,-110.27,758.6,162.3,182.4,3.9,-0.8,9.39,48.71,1.9793,390.7018],
    [6441,1537384991,53.6616,-110.27,759.4,157.1,182.0,3.3,-0.5,10.0,47.95,1.9743,391.7248],
    [6442,1537384992,53.661,-110.27,758.9,153.2,182.5,3.9,-0.3,8.95,48.34,1.9703,392.5463],
    [6443,1537384993,53.6602,-110.27,757.6,149.3,183.2,4.5,-0.6,9.41,48.37,1.9612,392.0428],
    [6444,1537384994,53.6595,-110.27,756.8,148.8,182.7,3.8,-0.7,9.35,47.84,1.9636,392.1603],
    [6445,1537384995,53.6588,-110.27,756.1,151.1,182.8,4.2,-0.4,9.1,47.25,1.9666,393.214],
    [6446,1537384996,53.6581,-110.27,755.9,154.3,183.5,5.3,-0.6,8.89,46.68,1.9706,393.214],
    [6447,1537384997,53.6574,-110.2699,756.0,158.6,183.0,4.7,-0.6,9.34,46.75,1.9693,393.2106],
    [6448,1537384998,53.6567,-110.2699,757.0,163.1,182.3,4.3,-0.2,9.49,46.04,1.9728,393.0287],
    [6449,1537384999,53.656,-110.2699,757.9,166.8,182.2,4.1,-0.5,8.83,46.24,1.9742,393.5686],
    [6450,1537385000,53.6553,-110.2699,758.8,168.8,181.9,3.6,-0.9,10.25,46.23,1.9743,393.7406],
    [6451,1537385001,53.6546,-110.2699,759.5,170.5,182.0,3.8,-0.7,9.13,46.57,1.9746,393.0199],
    [6452,1537385002,53.6539,-110.2699,759.2,170.2,182.2,4.0,-0.5,9.6,47.73,1.9734,394.2983],
    [6453,1537385003,53.6532,-110.2698,759.7,169.9,181.7,3.6,0.1,9.44,47.27,1.9674,392.3868],
    [6454,1537385004,53.6525,-110.2698,759.7,169.8,181.8,3.9,0.9,9.1,47.79,1.965,392.7748],
    [6455,1537385005,53.6518,-110.2698,759.6,167.6,182.3,4.8,1.9,9.48,47.42,1.9608,392.0293],
    [6456,1537385006,53.6511,-110.2698,760.0,167.0,181.9,4.7,2.5,9.53,47.24,1.961,392.083],
    [6457,1537385007,53.6505,-110.2697,760.4,165.4,182.1,5.1,2.5,9.28,46.97,1.9591,393.0987],
    [6458,1537385008,53.6497,-110.2697,759.6,163.6,182.2,5.3,2.7,9.65,46.68,1.9585,393.0987],
    [6459,1537385009,53.649,-110.2697,759.2,162.5,182.0,4.9,2.4,9.97,45.4,1.9579,393.4937],
    [6460,1537385010,53.6483,-110.2696,759.4,162.4,181.7,4.5,2.0,9.64,45.46,1.9561,391.7834],
    [6461,1537385011,53.6476,-110.2696,760.2,164.6,182.2,5.1,2.1,9.05,45.35,1.9563,393.1393],
    [6462,1537385012,53.6469,-110.2696,759.7,167.1,182.9,5.5,1.4,9.83,44.77,1.9542,392.5896],
    [6463,1537385013,53.6462,-110.2696,759.8,169.8,183.4,5.9,1.1,9.67,44.5,1.9559,393.5141],
    [6464,1537385014,53.6455,-110.2695,760.6,176.6,183.7,6.0,1.1,9.43,44.66,1.9583,392.4792],
    [6465,1537385015,53.6448,-110.2695,760.7,180.0,183.0,5.1,1.2,9.72,44.38,1.9587,392.6124],
    [6466,1537385016,53.6442,-110.2695,760.3,184.0,182.4,4.5,1.5,9.69,44.5,1.9591,393.2571],
    [6467,1537385017,53.6434,-110.2695,759.9,191.6,182.8,5.4,1.8,9.79,45.09,1.9583,393.2264],
    [6468,1537385018,53.6427,-110.2695,759.1,200.1,183.0,5.8,2.2,10.08,44.23,1.9564,392.6712],
    [6469,1537385019,53.642,-110.2695,758.4,204.4,182.4,5.2,1.9,9.67,44.72,1.9572,392.3514],
    [6470,1537385020,53.6413,-110.2694,758.4,208.4,182.1,4.9,1.7,9.49,45.17,1.9579,393.2017],
    [6471,1537385021,53.6407,-110.2694,758.7,209.0,181.6,4.2,1.4,9.49,44.92,1.9557,393.3924],
    [6472,1537385022,53.6399,-110.2694,758.9,207.2,181.6,4.4,1.3,9.84,44.75,1.9581,392.9597],
    [6473,1537385023,53.6392,-110.2693,759.0,205.7,181.9,4.8,1.2,9.93,44.31,1.9601,391.9101],
    [6474,1537385024,53.6385,-110.2693,758.8,201.1,182.3,5.3,1.3,9.71,45.11,1.9616,393.4877],
    [6475,1537385025,53.6379,-110.2693,758.5,195.5,182.4,5.4,1.0,9.72,44.79,1.9602,393.3689],
    [6476,1537385026,53.6372,-110.2692,758.9,184.9,182.7,5.8,0.6,9.66,44.87,1.9599,391.6177],
    [6477,1537385027,53.6365,-110.2692,759.1,178.6,182.5,5.7,0.6,9.68,45.77,1.9584,392.1932],
    [6478,1537385028,53.6358,-110.2692,758.7,174.0,182.4,5.7,1.0,9.74,46.01,1.9591,393.3031],
    [6479,1537385029,53.6351,-110.2691,758.9,172.8,182.3,5.8,1.1,9.56,45.11,1.9576,392.9179],
    [6480,1537385030,53.6344,-110.2691,759.0,172.0,182.3,5.9,1.1,10.05,45.39,1.9571,392.8642],
    [6481,1537385031,53.6337,-110.269,759.0,172.0,182.0,5.5,0.8,9.33,45.46,1.9568,394.4655],
    [6482,1537385032,53.633,-110.269,759.2,171.2,181.9,5.3,0.3,9.82,45.3,1.9615,392.1703],
    [6483,1537385033,53.6324,-110.269,760.0,172.1,181.6,4.7,-0.9,9.76,45.83,1.9616,393.0211],
    [6484,1537385034,53.6317,-110.2689,761.1,172.2,181.3,4.5,-1.4,10.1,45.41,1.9613,392.8099],
    [6485,1537385035,53.6309,-110.2689,760.8,170.5,181.0,4.2,-0.9,9.46,46.05,1.9613,392.6471],
    [6486,1537385036,53.6302,-110.2688,759.7,167.8,180.8,4.0,0.3,9.44,46.38,1.9629,391.986],
    [6487,1537385037,53.6295,-110.2688,759.0,166.0,180.7,3.6,1.4,9.63,46.78,1.9631,393.2735],
    [6488,1537385038,53.6289,-110.2687,759.6,167.6,180.9,3.8,2.1,9.75,47.58,1.9636,393.5731],
    [6489,1537385039,53.6282,-110.2687,760.3,169.3,181.6,4.4,2.0,9.67,47.5,1.9638,392.989],
    [6490,1537385040,53.6275,-110.2687,760.0,168.0,182.7,5.7,1.5,9.88,47.49,1.964,392.3618],
    [6491,1537385041,53.6268,-110.2687,759.7,167.7,183.6,6.4,0.3,10.02,46.95,1.964,393.6321],
    [6492,1537385042,53.6261,-110.2686,759.3,167.3,183.0,5.6,-0.8,10.27,46.71,1.9624,392.8919],
    [6493,1537385043,53.6254,-110.2686,758.4,165.4,183.2,5.9,-0.4,9.96,47.65,1.963,393.5255],
    [6494,1537385044,53.6247,-110.2686,757.5,163.5,181.9,4.3,-0.5,10.04,47.5,1.9635,393.5255],
    [6495,1537385045,53.624,-110.2685,756.8,161.8,180.6,3.4,-0.8,9.87,47.63,1.9627,393.5448],
    [6496,1537385046,53.6233,-110.2685,756.3,161.3,180.7,3.9,-0.9,9.89,47.66,1.9628,393.6104],
    [6497,1537385047,53.6226,-110.2685,756.0,161.0,180.8,4.3,-1.0,10.5,47.37,1.9633,392.3286],
    [6498,1537385048,53.6219,-110.2684,756.3,161.2,180.6,4.1,-0.9,9.51,48.25,1.9636,392.4071],
    [6499,1537385049,53.6212,-110.2684,756.9,160.9,180.7,4.0,-0.9,9.75,47.98,1.9645,393.309],
    [6500,1537385050,53.6205,-110.2683,758.5,160.5,180.8,3.9,-1.2,9.3,48.36,1.964,393.5056],
    [6501,1537385051,53.6198,-110.2683,759.2,159.5,181.4,4.2,-1.7,9.74,48.01,1.964,393.1895],
    [6502,1537385052,53.6191,-110.2682,759.5,157.6,181.2,3.7,-1.6,9.65,48.57,1.9642,394.0665],
    [6503,1537385053,53.6185,-110.2682,759.7,156.7,181.1,3.6,-1.5,9.98,47.78,1.963,390.6211],
    [6504,1537385054,53.6178,-110.2682,759.9,156.0,181.9,4.5,-1.0,9.79,48.45,1.9642,392.4989],
    [6505,1537385055,53.6171,-110.2682,760.8,155.8,181.8,4.2,-0.7,9.21,48.49,1.9648,392.8281],
    [6506,1537385056,53.6164,-110.2681,761.4,157.4,181.4,3.7,-0.6,9.1,48.22,1.9651,392.7948],
    [6507,1537385057,53.6157,-110.2681,760.6,158.3,181.5,4.0,-1.3,9.43,48.15,1.964,392.6119],
    [6508,1537385058,53.615,-110.2681,759.7,163.1,181.1,3.3,-1.6,9.59,48.06,1.9648,392.9118],
    [6509,1537385059,53.6143,-110.268,760.2,167.9,180.0,2.2,-0.5,10.42,48.0,1.9665,393.1907],
    [6510,1537385060,53.6136,-110.268,760.7,176.4,181.6,4.1,1.5,9.35,48.35,1.9641,393.1822],
    [6511,1537385061,53.6129,-110.268,760.4,181.4,182.0,4.3,1.7,9.66,47.73,1.9664,392.453],
    [6512,1537385062,53.6122,-110.268,760.1,184.1,182.0,4.4,1.1,9.62,47.48,1.9636,392.6567],
    [6513,1537385063,53.6115,-110.2679,759.9,184.2,183.0,5.7,0.8,10.18,47.19,1.9608,391.9491],
    [6514,1537385064,53.6108,-110.2679,759.6,182.0,183.1,5.7,0.3,9.7,47.44,1.9594,392.5264],
    [6515,1537385065,53.6101,-110.2679,759.2,178.9,182.3,4.8,0.0,9.97,46.28,1.9626,392.4723],
    [6516,1537385066,53.6094,-110.2679,759.3,174.9,181.5,4.0,0.0,9.52,46.11,1.9695,392.3393],
    [6517,1537385067,53.6087,-110.2678,759.6,171.6,181.0,3.6,0.1,9.59,45.71,1.9742,393.6053],
    [6518,1537385068,53.608,-110.2678,759.3,164.3,181.9,4.9,0.4,9.79,45.51,1.9645,393.2011],
    [6519,1537385069,53.6073,-110.2678,758.9,159.8,181.9,4.4,0.5,9.05,45.41,1.9608,393.2011],
    [6520,1537385070,53.6066,-110.2677,759.1,154.4,181.5,4.1,0.3,10.28,44.59,1.964,393.3524],
    [6521,1537385071,53.6059,-110.2677,759.5,152.5,182.2,4.7,-0.1,9.43,44.87,1.9587,393.3897],
    [6522,1537385072,53.6052,-110.2677,759.2,150.1,182.0,4.4,-0.3,9.53,44.75,1.9567,393.3688],
    [6523,1537385073,53.6045,-110.2676,758.5,148.4,182.0,4.2,-0.3,10.02,44.06,1.9563,392.8721],
    [6524,1537385074,53.6039,-110.2676,758.7,148.7,182.1,4.4,-0.2,9.71,44.36,1.9577,392.208],
    [6525,1537385075,53.6032,-110.2676,759.8,148.9,182.5,4.8,0.0,9.53,43.75,1.9609,392.255],
    [6526,1537385076,53.6025,-110.2676,761.2,150.2,182.1,4.6,0.5,9.61,43.78,1.9618,392.596],
    [6527,1537385077,53.6018,-110.2676,762.5,151.5,183.2,5.8,0.0,9.61,43.81,1.962,392.8432],
    [6528,1537385078,53.6011,-110.2675,763.6,153.5,182.5,5.1,-0.5,9.55,43.48,1.9683,393.1275],
    [6529,1537385079,53.6004,-110.2675,764.8,154.7,181.9,4.4,-0.9,9.78,44.35,1.9646,393.1275],
    [6530,1537385080,53.5997,-110.2675,764.3,155.3,181.8,4.6,-1.2,9.76,44.22,1.9621,392.0561],
    [6531,1537385081,53.599,-110.2674,764.0,155.7,181.4,4.2,-1.1,9.49,44.01,1.9663,391.6773],
    [6532,1537385082,53.5983,-110.2674,765.3,157.1,180.6,3.4,-1.2,9.58,44.06,1.9665,393.3993],
    [6533,1537385083,53.5976,-110.2674,767.1,158.0,181.6,4.4,-1.6,9.65,44.31,1.9642,392.4558],
    [6534,1537385084,53.5969,-110.2673,767.7,157.6,181.4,4.0,-1.3,9.97,43.68,1.9644,393.6938],
    [6535,1537385085,53.5963,-110.2673,767.2,156.1,182.5,5.2,-1.5,9.41,44.11,1.9641,393.6938],
    [6536,1537385086,53.5955,-110.2673,765.8,152.8,182.2,4.6,-1.6,9.6,44.47,1.9631,393.098],
    [6537,1537385087,53.5949,-110.2672,765.3,150.5,181.9,4.1,-1.2,9.78,44.83,1.9646,393.1382],
    [6538,1537385088,53.5942,-110.2672,766.0,149.6,181.6,3.8,-1.0,10.13,43.97,1.9651,392.4482],
    [6539,1537385089,53.5934,-110.2672,767.2,150.2,181.1,3.1,-0.4,9.77,44.62,1.9656,392.984],
    [6540,1537385090,53.5928,-110.2672,767.4,149.4,180.9,3.0,-0.2,10.04,44.18,1.9661,392.8291],
    [6541,1537385091,53.5921,-110.2671,765.9,147.9,181.6,3.7,0.0,9.23,44.44,1.963,391.856],
    [6542,1537385092,53.5914,-110.2671,764.5,147.5,181.6,3.5,0.8,9.8,44.21,1.9637,393.0463],
    [6543,1537385093,53.5907,-110.2671,764.5,148.5,182.0,3.8,1.2,9.95,44.61,1.9648,393.5929],
    [6544,1537385094,53.59,-110.2671,765.3,149.3,182.6,4.2,1.5,9.79,44.03,1.9672,393.2889],
    [6545,1537385095,53.5893,-110.2671,765.7,149.7,181.9,3.4,2.8,9.29,43.9,1.9892,393.0997],
    [6546,1537385096,53.5886,-110.2671,765.9,149.9,182.7,4.9,2.9,9.77,44.06,1.988,393.4166],
    [6547,1537385097,53.5879,-110.2671,766.3,149.3,182.5,4.8,2.6,9.5,44.04,1.9712,393.8565],
    [6548,1537385098,53.5872,-110.267,766.2,148.2,181.8,4.5,2.3,9.8,44.47,1.9657,392.8064],
    [6549,1537385099,53.5865,-110.267,765.9,147.9,181.9,4.9,2.3,9.73,44.04,1.9633,391.8585],
    [6550,1537385100,53.5858,-110.267,765.8,147.8,182.1,5.2,2.1,9.96,43.86,1.9624,393.4503],
    [6551,1537385101,53.5851,-110.2669,764.9,146.9,181.6,4.5,2.0,10.25,44.26,1.963,392.4123],
    [6552,1537385102,53.5844,-110.2669,763.9,146.9,181.7,4.7,1.9,9.47,43.6,1.9629,394.7319],
    [6553,1537385103,53.5837,-110.2669,763.4,146.4,182.3,5.4,1.7,9.14,43.66,1.9608,393.1519],
    [6554,1537385104,53.583,-110.2668,763.2,145.6,182.5,5.5,1.1,10.15,43.68,1.9594,393.4385],
    [6555,1537385105,53.5823,-110.2668,763.5,145.5,182.5,5.5,0.7,10.57,43.14,1.9607,392.4983],
    [6556,1537385106,53.5816,-110.2668,763.5,144.0,182.3,5.3,0.6,9.59,43.18,1.9579,390.98],
    [6557,1537385107,53.5809,-110.2667,763.2,143.3,182.1,5.2,0.6,10.14,42.52,1.9577,393.2264],
    [6558,1537385108,53.5803,-110.2667,763.1,142.1,181.7,4.8,0.6,9.67,43.35,1.9608,393.4847],
    [6559,1537385109,53.5795,-110.2667,763.3,142.3,181.9,5.2,0.5,9.65,42.67,1.9584,393.3837],
    [6560,1537385110,53.5789,-110.2666,763.6,142.6,182.1,5.3,0.5,9.35,42.74,1.9585,393.552],
    [6561,1537385111,53.5782,-110.2666,763.6,142.4,182.6,5.8,0.4,9.27,42.73,1.96,392.4766],
    [6562,1537385112,53.5775,-110.2665,763.6,141.5,182.2,5.4,0.2,10.24,42.06,1.9601,393.0632],
    [6563,1537385113,53.5768,-110.2665,763.3,140.3,182.2,5.4,0.2,9.78,43.12,1.9584,393.0632],
    [6564,1537385114,53.5761,-110.2665,763.6,139.1,181.8,4.9,0.4,9.85,42.95,1.9593,394.5009],
    [6565,1537385115,53.5754,-110.2664,764.7,138.4,181.7,5.0,0.4,9.82,42.92,1.9592,392.2913],
    [6566,1537385116,53.5747,-110.2664,765.2,137.5,182.1,5.4,0.4,9.77,42.87,1.9598,393.1668],
    [6567,1537385117,53.5741,-110.2663,764.8,135.9,181.9,5.1,0.4,9.12,43.18,1.9595,393.1763],
    [6568,1537385118,53.5734,-110.2663,764.6,133.6,181.9,5.0,0.9,9.92,43.0,1.9621,392.9451],
    [6569,1537385119,53.5727,-110.2663,766.1,132.8,181.8,5.0,0.7,9.89,43.87,1.9628,393.117],
    [6570,1537385120,53.572,-110.2662,767.7,131.7,182.0,5.3,0.4,10.65,42.88,1.9639,393.188],
    [6571,1537385121,53.5713,-110.2662,768.2,130.2,181.8,5.2,0.6,9.63,43.22,1.9647,394.1263],
    [6572,1537385122,53.5707,-110.2661,767.9,127.2,181.6,5.1,0.1,9.72,43.73,1.9659,394.1263],
    [6573,1537385123,53.57,-110.2661,767.8,125.2,181.2,4.8,-0.3,9.75,43.36,1.9648,393.5733],
    [6574,1537385124,53.5693,-110.2661,767.6,123.3,181.4,4.9,-0.7,9.18,43.37,1.9644,393.4327],
    [6575,1537385125,53.5686,-110.266,767.1,121.1,181.5,4.9,-0.5,10.16,43.97,1.9651,394.1347],
    [6576,1537385126,53.5679,-110.266,766.2,119.2,181.9,5.1,-0.7,9.77,43.74,1.9633,392.6669],
    [6577,1537385127,53.5673,-110.2659,765.3,117.3,182.2,5.2,-1.1,9.83,44.35,1.963,393.0558],
    [6578,1537385128,53.5666,-110.2659,764.9,115.9,182.5,5.5,-1.2,9.74,43.94,1.9645,393.774],
    [6579,1537385129,53.5659,-110.2659,764.2,115.2,182.6,5.7,-1.3,9.8,44.33,1.9661,393.1584],
    [6580,1537385130,53.5652,-110.2658,763.5,114.5,183.1,6.3,-1.5,9.35,44.08,1.9694,393.2365],
    [6581,1537385131,53.5645,-110.2658,763.6,114.6,182.5,5.7,-1.2,9.56,44.13,1.9776,393.5756],
    [6582,1537385132,53.5638,-110.2658,765.0,115.0,181.3,4.1,-0.9,9.85,44.57,1.9706,391.2925],
    [6583,1537385133,53.5631,-110.2657,766.2,115.4,179.6,2.7,-1.9,9.85,44.2,1.9681,392.9616],
    [6584,1537385134,53.5625,-110.2657,764.9,112.9,181.7,5.3,-1.2,10.12,44.42,1.9691,393.9929],
    [6585,1537385135,53.5618,-110.2656,762.9,109.9,182.3,6.1,0.4,10.22,44.16,1.97,393.3479],
    [6586,1537385136,53.5611,-110.2656,762.4,108.1,182.2,4.7,0.1,10.11,44.28,1.9681,393.3068],
    [6587,1537385137,53.5604,-110.2656,762.2,107.2,181.9,3.8,0.1,9.87,45.33,1.97,393.3306],
    [6588,1537385138,53.5597,-110.2655,760.9,104.9,182.2,4.0,-0.1,10.01,44.21,1.9694,392.1653],
    [6589,1537385139,53.559,-110.2655,760.5,104.5,182.0,3.7,-0.1,10.44,43.97,1.9659,393.8347],
    [6590,1537385140,53.5583,-110.2655,760.7,104.7,182.2,4.0,-0.4,10.02,43.76,1.9663,393.8583],
    [6591,1537385141,53.5576,-110.2655,760.6,104.6,183.4,4.9,-0.7,9.8,44.21,1.9661,393.5053],
    [6592,1537385142,53.5569,-110.2655,760.7,104.7,182.5,3.5,-0.4,9.84,45.04,1.9699,394.1052],
    [6593,1537385143,53.5562,-110.2655,760.8,104.8,182.4,2.8,1.0,9.98,44.62,1.9683,391.9862],
    [6594,1537385144,53.5555,-110.2655,762.1,105.1,182.6,3.2,1.9,9.25,44.92,1.9698,393.5703],
    [6595,1537385145,53.5548,-110.2655,763.7,107.7,184.6,5.1,1.4,10.04,45.23,1.9722,393.6865],
    [6596,1537385146,53.5541,-110.2655,764.2,109.2,184.8,4.7,1.8,10.41,44.95,1.9694,393.83],
    [6597,1537385147,53.5534,-110.2656,764.6,110.6,185.9,5.4,1.9,9.92,44.75,1.9704,392.9572],
    [6598,1537385148,53.5528,-110.2656,765.2,111.2,185.7,4.7,2.0,9.87,45.2,1.9695,392.7681],
    [6599,1537385149,53.5521,-110.2657,766.3,112.3,185.3,4.5,1.7,9.53,44.69,1.9688,393.7524],
    [6600,1537385150,53.5514,-110.2657,767.6,114.6,184.7,3.9,1.2,9.36,44.7,1.9679,393.3246],
    [6601,1537385151,53.5507,-110.2657,768.5,115.5,183.6,2.7,0.9,9.71,44.65,1.967,392.9612],
    [6602,1537385152,53.55,-110.2658,769.6,116.8,183.8,3.1,1.2,9.69,44.54,1.9664,393.7959],
    [6603,1537385153,53.5494,-110.2658,770.5,118.5,184.8,4.3,1.3,9.39,44.27,1.9657,391.1608],
    [6604,1537385154,53.5487,-110.2658,771.9,119.9,184.6,3.9,0.3,9.56,43.97,1.9675,392.3317],
    [6605,1537385155,53.548,-110.2659,773.5,122.5,184.5,3.8,0.6,9.33,44.25,1.968,393.3108],
    [6606,1537385156,53.5474,-110.2659,774.4,124.1,184.6,3.9,0.7,10.05,43.84,1.9656,393.3102],
    [6607,1537385157,53.5467,-110.2659,775.3,125.3,184.2,3.5,0.4,9.89,44.17,1.9686,392.6959],
    [6608,1537385158,53.546,-110.266,777.9,128.0,183.6,3.1,0.8,10.25,43.75,1.9723,393.2932],
    [6609,1537385159,53.5454,-110.266,781.3,132.3,183.6,3.3,1.6,9.69,44.59,1.971,393.1055],
    [6610,1537385160,53.5447,-110.266,783.5,134.5,184.7,4.4,1.0,9.96,44.92,1.9696,393.1055],
    [6611,1537385161,53.544,-110.266,784.1,135.1,184.8,4.2,0.7,10.01,44.06,1.9672,393.3492],
    [6612,1537385162,53.5434,-110.2661,784.2,135.2,185.7,5.2,0.3,9.62,44.49,1.9673,391.3759],
    [6613,1537385163,53.5427,-110.2661,784.8,136.9,185.7,5.0,0.3,10.53,43.96,1.967,393.222],
    [6614,1537385164,53.542,-110.2661,785.8,137.8,185.8,5.0,0.3,9.91,44.16,1.9645,392.9638],
    [6615,1537385165,53.5414,-110.2662,787.2,139.2,184.7,3.8,-0.1,9.66,44.2,1.9611,392.1598],
    [6616,1537385166,53.5407,-110.2662,788.4,140.4,183.9,3.0,-0.5,9.87,44.1,1.9649,393.5645],
    [6617,1537385167,53.5401,-110.2662,788.5,140.5,182.4,1.7,-1.2,10.0,43.25,1.9667,391.7694],
    [6618,1537385168,53.5394,-110.2662,790.3,142.3,183.6,4.2,-1.7,10.04,43.86,1.9683,393.2769],
    [6619,1537385169,53.5387,-110.2662,793.2,145.2,185.7,6.0,-1.3,9.65,43.69,1.9683,394.3038],
    [6620,1537385170,53.5381,-110.2663,795.1,148.0,185.5,5.0,-1.0,10.08,43.16,1.9668,393.5355],
    [6621,1537385171,53.5374,-110.2663,796.2,150.9,187.1,5.7,-0.4,9.84,43.79,1.9678,393.7762],
    [6622,1537385172,53.5368,-110.2664,797.4,153.5,187.4,5.6,1.2,10.15,43.76,1.9672,394.5575],
    [6623,1537385173,53.5361,-110.2664,798.1,154.4,187.6,5.8,1.6,10.01,43.66,1.9636,393.9205],
    [6624,1537385174,53.5355,-110.2665,796.8,153.8,188.3,6.7,1.2,9.75,44.19,1.9623,392.8039],
    [6625,1537385175,53.5348,-110.2666,795.7,152.8,187.7,6.2,0.7,9.93,44.53,1.9625,391.9815],
    [6626,1537385176,53.5342,-110.2666,795.0,150.9,186.6,5.3,0.1,9.23,43.82,1.9622,393.4369],
    [6627,1537385177,53.5335,-110.2667,793.6,149.6,186.4,5.6,0.2,9.4,43.85,1.9615,392.9779],
    [6628,1537385178,53.5328,-110.2667,792.5,149.5,185.8,5.3,0.1,9.93,43.67,1.9621,393.2687],
    [6629,1537385179,53.5322,-110.2667,791.6,149.6,185.2,5.1,-0.2,9.81,43.36,1.9622,393.2734],
    [6630,1537385180,53.5315,-110.2667,790.5,149.2,185.3,5.5,-0.4,10.33,43.01,1.9623,394.2898],
    [6631,1537385181,53.5308,-110.2668,790.0,149.9,184.7,4.9,-0.5,9.79,43.71,1.9618,393.8285],
    [6632,1537385182,53.5302,-110.2668,790.0,150.2,184.4,5.0,-0.6,10.11,43.1,1.9616,393.8285],
    [6633,1537385183,53.5295,-110.2668,790.8,151.8,184.7,5.3,-0.6,9.39,42.65,1.9621,393.7172],
    [6634,1537385184,53.5288,-110.2668,791.4,154.1,184.4,5.2,0.0,10.09,42.67,1.9613,393.0451],
    [6635,1537385185,53.5281,-110.2668,790.6,153.6,185.3,6.3,-0.3,9.75,43.26,1.9614,394.1614],
    [6636,1537385186,53.5275,-110.2668,790.0,154.0,185.1,5.9,1.2,9.5,43.09,1.9625,394.1614],
    [6637,1537385187,53.5268,-110.2668,790.2,155.3,184.7,6.1,1.8,9.04,42.62,1.9621,391.7622],
    [6638,1537385188,53.5261,-110.2668,790.7,155.7,185.1,6.8,1.5,9.71,42.72,1.9601,394.0097],
    [6639,1537385189,53.5254,-110.2668,791.6,157.6,182.9,4.6,1.7,9.77,42.84,1.9597,394.0757],
    [6640,1537385190,53.5247,-110.2668,791.3,157.3,182.9,4.9,1.7,9.83,42.76,1.9598,394.0757],
    [6641,1537385191,53.5241,-110.2668,790.5,156.5,183.2,5.3,1.8,9.63,42.55,1.9604,393.3157],
    [6642,1537385192,53.5234,-110.2668,790.0,156.0,183.3,5.2,1.8,9.94,42.46,1.9628,394.0796],
    [6643,1537385193,53.5227,-110.2668,789.7,154.7,183.3,5.0,2.1,9.68,42.21,1.9617,393.6401],
    [6644,1537385194,53.522,-110.2668,789.9,154.9,183.0,4.4,2.0,9.68,42.31,1.9588,394.1454],
    [6645,1537385195,53.5213,-110.2668,789.4,154.4,183.2,4.5,1.7,10.47,41.8,1.9583,392.405],
    [6646,1537385196,53.5206,-110.2668,788.4,154.3,183.6,4.6,1.5,9.61,42.17,1.9594,393.8962],
    [6647,1537385197,53.52,-110.2668,788.0,155.9,184.1,5.1,1.1,9.55,42.14,1.9623,395.0896],
    [6648,1537385198,53.5193,-110.2668,788.7,157.7,184.6,5.2,0.6,9.15,42.27,1.9642,395.0491],
    [6649,1537385199,53.5186,-110.2668,789.4,157.2,184.0,4.1,0.5,10.18,42.04,1.9661,393.5125],
    [6650,1537385200,53.518,-110.2668,789.5,155.8,184.1,4.2,-0.1,9.61,42.53,1.9676,393.002],
    [6651,1537385201,53.5172,-110.2668,789.7,155.3,184.6,4.6,-0.4,10.36,42.49,1.9684,393.002],
    [6652,1537385202,53.5166,-110.2669,790.4,155.3,184.7,4.7,-0.5,10.14,43.19,1.9686,393.9208],
    [6653,1537385203,53.5159,-110.2669,790.6,156.6,185.1,5.0,-0.7,9.41,43.71,1.9695,394.7487],
    [6654,1537385204,53.5152,-110.2669,789.6,156.9,184.8,4.5,-0.1,9.75,45.03,1.9683,393.7819],
    [6655,1537385205,53.5145,-110.2669,788.5,156.5,183.5,3.3,0.7,9.6,44.69,1.9671,393.8174],
    [6656,1537385206,53.5138,-110.267,787.1,156.1,184.4,4.5,0.8,10.06,45.07,1.9658,394.4179],
    [6657,1537385207,53.5132,-110.267,786.5,155.5,184.2,4.0,0.3,9.08,45.41,1.9643,393.6026],
    [6658,1537385208,53.5125,-110.267,786.7,154.6,183.9,3.7,0.3,9.81,45.39,1.9646,394.8146],
    [6659,1537385209,53.5118,-110.267,786.6,154.6,184.2,4.0,0.1,9.02,45.43,1.9661,394.1641],
    [6660,1537385210,53.5111,-110.267,786.5,153.5,184.1,3.9,-0.3,9.97,44.78,1.9676,392.8832],
    [6661,1537385211,53.5104,-110.2671,786.6,152.6,183.7,3.1,-0.7,9.65,45.2,1.9686,394.3225],
    [6662,1537385212,53.5098,-110.2671,786.9,152.9,183.5,3.0,-1.0,9.6,45.55,1.9671,394.8686],
    [6663,1537385213,53.5091,-110.2671,786.9,152.9,183.5,2.9,-1.0,9.53,45.24,1.9651,395.0953],
    [6664,1537385214,53.5084,-110.2671,787.4,154.7,183.1,2.4,-1.0,10.1,45.03,1.966,395.0953],
    [6665,1537385215,53.5077,-110.2672,788.6,157.9,183.9,3.3,-0.7,9.59,45.64,1.968,394.9948],
    [6666,1537385216,53.5071,-110.2672,789.5,160.5,185.2,4.6,-1.5,9.05,45.85,1.9695,394.7189],
    [6667,1537385217,53.5064,-110.2672,789.8,162.3,184.9,3.8,-1.7,10.2,45.5,1.9692,394.7189],
    [6668,1537385218,53.5057,-110.2673,790.4,165.2,184.1,2.9,-1.2,10.2,45.44,1.968,391.3173],
    [6669,1537385219,53.505,-110.2673,791.8,168.7,184.1,3.4,0.1,9.97,46.37,1.9695,394.8433],
    [6670,1537385220,53.5044,-110.2673,791.7,169.9,185.8,5.5,1.6,9.64,46.72,1.9699,394.4532],
    [6671,1537385221,53.5037,-110.2674,791.8,170.8,185.2,5.1,2.1,9.65,46.79,1.9718,393.3823],
    [6672,1537385222,53.503,-110.2674,793.4,172.4,185.1,5.3,1.8,8.97,46.66,1.9716,394.6678],
    [6673,1537385223,53.5023,-110.2674,794.4,173.6,184.3,4.6,2.5,9.19,46.88,1.971,394.422],
    [6674,1537385224,53.5017,-110.2674,793.9,172.9,184.0,4.7,3.0,9.9,46.02,1.9702,394.7142],
    [6675,1537385225,53.501,-110.2674,792.8,172.4,184.7,5.4,2.1,10.15,46.01,1.9724,395.0696],
    [6676,1537385226,53.5003,-110.2675,792.2,171.8,184.5,5.4,1.3,9.42,46.89,1.9732,394.4648],
    [6677,1537385227,53.4997,-110.2675,791.9,171.1,185.3,6.4,1.3,9.46,46.48,1.9734,394.4612],
    [6678,1537385228,53.499,-110.2675,791.8,171.0,184.8,5.5,1.7,9.67,46.39,1.975,395.2908],
    [6679,1537385229,53.4983,-110.2675,792.5,172.2,182.8,3.1,1.2,9.72,46.56,1.9722,395.3173],
    [6680,1537385230,53.4976,-110.2675,792.8,172.7,183.6,4.0,-0.2,9.86,46.42,1.9734,394.3442],
    [6681,1537385231,53.4969,-110.2675,792.0,172.8,183.2,3.4,-0.4,9.57,46.5,1.9749,393.237],
    [6682,1537385232,53.4962,-110.2675,791.3,172.2,183.2,3.6,-0.4,9.68,46.46,1.9744,394.6319],
    [6683,1537385233,53.4955,-110.2675,790.9,172.0,183.8,4.6,-0.6,9.34,46.87,1.9724,393.7042],
    [6684,1537385234,53.4949,-110.2675,791.3,172.5,185.4,6.5,-0.6,9.74,46.21,1.9711,393.1873],
    [6685,1537385235,53.4942,-110.2676,791.0,173.0,185.0,5.4,-0.8,9.08,46.84,1.9729,394.397],
    [6686,1537385236,53.4935,-110.2676,790.4,173.4,182.8,3.3,-0.7,9.67,46.69,1.974,393.7046],
    [6687,1537385237,53.4928,-110.2676,789.5,171.5,184.3,5.1,-0.3,9.85,46.21,1.9777,394.9014],
    [6688,1537385238,53.4921,-110.2676,788.4,170.4,184.3,4.6,-0.3,10.06,46.38,1.9752,394.5289],
    [6689,1537385239,53.4914,-110.2676,787.9,170.9,185.7,6.1,-0.1,10.22,45.96,1.9717,396.0052],
    [6690,1537385240,53.4907,-110.2676,788.4,171.4,185.5,5.4,-0.1,9.74,46.65,1.9692,394.6483],
    [6691,1537385241,53.49,-110.2677,788.9,171.9,185.3,5.4,-0.1,10.33,45.27,1.9643,394.6483],
    [6692,1537385242,53.4894,-110.2677,789.1,171.7,185.6,5.6,-0.3,9.71,45.64,1.9732,394.376],
    [6693,1537385243,53.4887,-110.2677,790.5,173.6,184.1,4.0,-0.9,9.66,45.47,1.987,393.9082],
    [6694,1537385244,53.488,-110.2677,791.5,174.5,184.1,4.5,-0.3,9.94,44.83,1.9952,394.8349],
    [6695,1537385245,53.4873,-110.2677,791.7,175.7,184.9,5.5,1.4,9.9,45.67,1.9982,395.2916],
    [6696,1537385246,53.4866,-110.2678,792.4,177.1,183.9,3.8,2.7,9.82,45.53,2.0009,393.9753],
    [6697,1537385247,53.4859,-110.2678,793.0,178.0,185.2,5.1,3.2,9.68,46.26,1.9986,395.0045],
    [6698,1537385248,53.4852,-110.2678,793.0,179.0,186.1,5.8,3.0,9.22,46.52,1.999,396.1292],
    [6699,1537385249,53.4845,-110.2679,793.0,180.0,185.9,5.6,2.9,9.73,46.25,1.9992,396.1969],
    [6700,1537385250,53.4839,-110.2679,792.9,180.9,186.1,5.9,2.7,9.33,46.63,1.9984,395.5063],
    [6701,1537385251,53.4832,-110.2679,792.5,181.2,185.4,5.2,3.0,10.15,46.41,1.9978,395.0087],
    [6702,1537385252,53.4825,-110.268,791.9,181.9,184.9,4.7,2.9,9.86,46.47,1.998,395.411],
    [6703,1537385253,53.4818,-110.268,791.6,181.9,184.7,4.5,2.6,9.32,46.51,1.9973,395.2386],
    [6704,1537385254,53.4811,-110.268,791.2,182.2,184.2,4.4,2.4,9.62,47.4,1.9968,393.4997],
    [6705,1537385255,53.4805,-110.2681,790.7,181.7,183.6,4.0,1.9,10.22,46.5,1.9968,394.1055],
    [6706,1537385256,53.4797,-110.2681,790.6,182.6,182.6,3.2,1.9,9.25,46.62,1.9972,395.3102],
    [6707,1537385257,53.4791,-110.2681,789.9,182.7,184.0,5.1,1.7,9.5,46.52,1.997,394.8955],
    [6708,1537385258,53.4784,-110.2681,788.8,181.8,184.5,5.4,1.8,9.66,46.64,1.9974,394.6216],
    [6709,1537385259,53.4777,-110.2681,787.6,181.6,184.8,5.5,1.7,9.71,47.22,1.9983,394.5463],
    [6710,1537385260,53.477,-110.2681,786.3,180.3,184.9,5.7,1.5,9.62,46.63,1.9946,395.8264],
    [6711,1537385261,53.4763,-110.2681,785.4,179.4,184.9,5.7,1.6,10.22,46.3,1.9963,394.7652],
    [6712,1537385262,53.4756,-110.2681,784.5,177.4,184.7,5.5,1.0,9.78,46.56,1.9947,393.9973],
    [6713,1537385263,53.4749,-110.2681,783.5,175.8,184.7,5.7,0.6,9.5,46.81,1.9924,394.8429],
    [6714,1537385264,53.4743,-110.2682,782.3,173.1,184.7,5.5,0.5,9.28,46.98,1.9909,395.5397],
    [6715,1537385265,53.4736,-110.2682,780.9,170.9,184.2,5.0,0.2,10.26,46.37,1.9914,394.9687],
    [6716,1537385266,53.4729,-110.2682,780.1,170.4,184.0,5.0,0.3,9.4,46.77,1.9903,395.3751],
    [6717,1537385267,53.4722,-110.2682,779.8,170.8,184.0,5.1,-0.3,9.59,46.68,1.9895,395.7227],
    [6718,1537385268,53.4716,-110.2682,779.0,171.1,183.6,4.6,-0.5,9.62,46.59,1.9926,394.9894],
    [6719,1537385269,53.4708,-110.2682,777.1,168.9,183.7,4.7,-0.5,9.96,46.47,1.9935,395.2734],
    [6720,1537385270,53.4702,-110.2682,775.5,165.5,183.7,4.5,-0.4,10.2,45.63,1.9905,394.4412],
    [6721,1537385271,53.4695,-110.2682,774.0,163.1,183.7,4.5,-0.6,9.62,46.23,1.9824,394.9416],
    [6722,1537385272,53.4688,-110.2682,772.7,159.7,183.9,4.6,-1.0,9.03,46.12,1.9819,394.3738],
    [6723,1537385273,53.4681,-110.2682,772.7,158.7,183.7,4.5,-1.3,9.38,46.13,1.9833,392.5818],
    [6724,1537385274,53.4674,-110.2682,772.9,157.9,183.9,4.5,-1.4,10.22,45.08,1.9823,394.0231],
    [6725,1537385275,53.4667,-110.2682,773.0,157.7,183.5,4.1,-1.5,9.75,45.34,1.983,395.5674],
    [6726,1537385276,53.466,-110.2682,772.8,155.7,184.0,4.9,-1.1,10.2,45.08,1.98,395.2756],
    [6727,1537385277,53.4653,-110.2682,773.0,155.0,184.0,4.7,-0.8,10.01,45.21,1.9777,392.855],
    [6728,1537385278,53.4646,-110.2682,773.8,154.8,183.9,4.8,-0.6,9.64,45.95,1.9786,394.7077],
    [6729,1537385279,53.464,-110.2682,774.8,154.8,183.8,4.5,-0.6,9.66,45.3,1.9807,394.7269],
    [6730,1537385280,53.4633,-110.2683,775.8,155.8,183.6,4.4,-0.2,9.9,44.78,1.9822,394.1535],
    [6731,1537385281,53.4626,-110.2683,776.4,156.4,184.5,5.4,-0.7,9.67,45.6,1.9825,394.1542],
    [6732,1537385282,53.4619,-110.2683,776.8,156.8,184.0,4.6,-1.3,9.57,44.93,1.9799,394.139],
    [6733,1537385283,53.4613,-110.2683,776.8,156.8,183.8,4.5,-1.0,9.66,45.63,1.9779,395.0674],
    [6734,1537385284,53.4606,-110.2683,777.0,156.3,184.0,4.6,-0.5,10.21,44.56,1.979,393.8327],
    [6735,1537385285,53.4599,-110.2683,778.6,157.0,183.5,4.0,-0.6,9.63,44.96,1.9782,393.8327],
    [6736,1537385286,53.4592,-110.2683,779.9,157.6,182.6,2.8,-0.6,9.51,45.02,1.973,393.8513],
    [6737,1537385287,53.4585,-110.2683,780.3,156.8,182.4,2.7,-0.7,9.67,45.22,1.9726,393.5629],
    [6738,1537385288,53.4578,-110.2683,780.5,155.4,183.9,4.4,-1.3,9.72,45.16,1.9731,393.5629],
    [6739,1537385289,53.4571,-110.2683,779.3,152.6,183.4,3.1,-3.0,10.29,44.65,1.9718,394.6505],
    [6740,1537385290,53.4565,-110.2684,778.0,150.3,184.5,5.1,-2.8,10.38,44.78,1.9719,393.8732],
    [6741,1537385291,53.4558,-110.2684,778.1,149.1,186.7,7.5,-0.6,9.63,45.09,1.9733,393.4578],
    [6742,1537385292,53.4551,-110.2684,778.3,148.3,185.8,6.1,0.5,9.97,44.44,1.9739,393.4578],
    [6743,1537385293,53.4544,-110.2684,779.0,146.7,186.1,6.4,1.4,9.62,44.71,1.9699,395.0888],
    [6744,1537385294,53.4537,-110.2684,779.6,145.6,186.1,6.5,1.8,10.24,44.34,1.968,394.4834],
    [6745,1537385295,53.453,-110.2685,780.2,144.2,185.1,5.7,2.4,9.55,44.4,1.9685,392.8319],
    [6746,1537385296,53.4523,-110.2685,781.1,144.1,184.7,5.2,2.8,9.99,44.36,1.9677,394.455],
    [6747,1537385297,53.4516,-110.2685,781.3,142.4,184.1,4.7,3.0,10.22,43.82,1.9664,394.1292],
    [6748,1537385298,53.4509,-110.2685,780.5,141.5,185.4,5.8,2.3,9.32,44.03,1.9668,393.3765],
    [6749,1537385299,53.4502,-110.2686,779.6,140.1,185.0,4.9,2.8,10.61,43.54,1.9667,392.8576],
    [6750,1537385300,53.4496,-110.2686,779.0,139.0,185.4,5.2,2.7,9.96,43.78,1.9675,393.4926],
    [6751,1537385301,53.4489,-110.2686,778.7,136.7,185.0,4.7,2.5,9.66,43.58,1.967,394.2475],
    [6752,1537385302,53.4482,-110.2687,778.6,134.6,184.9,4.8,2.4,9.68,43.18,1.9682,393.7255],
    [6753,1537385303,53.4475,-110.2687,778.9,133.6,184.5,4.6,2.2,10.4,42.74,1.969,390.9585],
    [6754,1537385304,53.4468,-110.2687,778.6,130.6,184.3,4.5,2.4,9.6,43.38,1.9683,392.9109],
    [6755,1537385305,53.4461,-110.2687,777.7,128.7,184.6,4.8,2.3,9.75,43.19,1.9682,393.5158],
    [6756,1537385306,53.4454,-110.2688,777.0,127.0,184.3,4.5,2.1,9.6,43.38,1.9682,393.4893],
    [6757,1537385307,53.4448,-110.2688,777.2,126.5,184.1,4.1,2.0,9.91,43.4,1.9682,392.8387],
    [6758,1537385308,53.4441,-110.2688,777.5,125.5,184.3,4.4,2.0,10.57,42.66,1.9666,392.1504],
    [6759,1537385309,53.4434,-110.2688,777.5,124.4,184.4,4.5,1.8,9.99,42.87,1.9672,393.9683],
    [6760,1537385310,53.4427,-110.2688,777.0,123.0,184.0,4.1,1.4,9.86,43.08,1.9682,392.6173],
    [6761,1537385311,53.4421,-110.2689,776.6,122.6,183.9,4.0,1.1,9.51,43.01,1.968,393.171],
    [6762,1537385312,53.4413,-110.2689,776.9,121.9,184.1,4.2,1.1,9.89,43.06,1.9681,394.2218],
    [6763,1537385313,53.4407,-110.2689,777.2,121.9,184.1,3.9,0.8,9.33,43.28,1.9674,394.5135],
    [6764,1537385314,53.44,-110.2689,777.1,121.9,184.2,4.1,0.7,9.61,43.22,1.9667,394.3599],
    [6765,1537385315,53.4393,-110.269,776.8,121.8,184.4,4.2,0.6,9.32,43.38,1.9664,393.9576],
    [6766,1537385316,53.4386,-110.269,776.5,122.2,184.2,4.1,0.5,9.77,43.9,1.9671,394.0704],
    [6767,1537385317,53.438,-110.269,776.3,122.2,184.1,4.0,0.1,9.83,43.01,1.9644,394.1496],
    [6768,1537385318,53.4373,-110.269,776.3,122.3,184.1,4.2,0.1,9.78,42.62,1.9648,392.6087],
    [6769,1537385319,53.4366,-110.269,776.4,121.6,184.4,4.5,0.1,9.77,43.54,1.9649,395.6463],
    [6770,1537385320,53.4359,-110.2691,776.5,121.0,184.1,4.2,0.0,10.5,42.07,1.966,394.4662],
    [6771,1537385321,53.4352,-110.2691,776.8,119.2,184.2,4.5,0.2,10.35,42.37,1.9685,394.3389],
    [6772,1537385322,53.4346,-110.2691,777.1,118.0,184.1,4.5,0.1,9.35,42.53,1.9675,394.1652],
    [6773,1537385323,53.4339,-110.2691,777.3,117.3,184.1,4.4,0.2,9.41,42.89,1.9665,394.7631],
    [6774,1537385324,53.4332,-110.2691,777.5,117.5,183.9,4.3,0.1,10.16,42.19,1.9651,393.7513],
    [6775,1537385325,53.4325,-110.2691,777.7,117.7,183.9,4.2,0.1,10.02,42.51,1.9672,394.0291],
    [6776,1537385326,53.4318,-110.2691,778.2,118.2,183.6,4.0,-0.3,10.45,42.19,1.9697,394.9005],
    [6777,1537385327,53.4312,-110.2692,778.6,118.6,183.6,4.2,-0.7,9.34,42.68,1.9678,395.3604],
    [6778,1537385328,53.4305,-110.2692,777.8,117.8,184.2,4.8,-0.6,9.67,42.75,1.9667,393.3007],
    [6779,1537385329,53.4298,-110.2692,776.9,116.9,184.1,4.6,-0.6,9.61,43.04,1.97,393.1368],
    [6780,1537385330,53.4292,-110.2692,776.5,116.5,184.6,5.2,-0.7,9.97,43.36,1.9712,394.295],
    [6781,1537385331,53.4285,-110.2692,776.5,116.3,184.3,4.9,-0.4,10.34,42.26,1.9723,394.068],
    [6782,1537385332,53.4278,-110.2692,777.1,116.1,184.5,5.0,0.2,10.42,42.81,1.9755,394.0509],
    [6783,1537385333,53.4271,-110.2692,777.0,116.7,184.3,4.7,-0.4,10.02,43.4,1.9759,393.2987],
    [6784,1537385334,53.4264,-110.2692,776.2,116.1,183.9,4.4,-0.1,9.35,44.17,1.9736,393.5148],
    [6785,1537385335,53.4258,-110.2692,775.9,117.4,184.5,5.3,-0.1,9.95,44.03,1.9742,394.2367],
    [6786,1537385336,53.4251,-110.2693,776.1,118.3,183.9,4.3,-1.0,9.67,44.66,1.9734,394.3117],
    [6787,1537385337,53.4244,-110.2693,775.6,119.6,183.2,3.9,-1.3,9.84,45.49,1.9729,394.4724],
    [6788,1537385338,53.4237,-110.2693,775.1,120.1,183.9,4.8,-1.8,9.49,44.81,1.9745,394.8378],
    [6789,1537385339,53.4231,-110.2693,776.6,123.5,183.9,4.8,-1.5,10.16,44.4,1.9759,394.8378],
    [6790,1537385340,53.4224,-110.2693,777.6,128.3,183.6,4.5,-1.1,9.79,44.93,1.9739,394.0495],
    [6791,1537385341,53.4217,-110.2693,778.2,130.4,183.7,4.5,-2.2,9.68,45.21,1.9744,393.5261],
    [6792,1537385342,53.421,-110.2693,778.2,131.2,183.9,4.3,-3.2,9.57,45.17,1.975,393.5261],
    [6793,1537385343,53.4203,-110.2693,778.2,131.2,183.4,3.6,-2.4,9.66,45.71,1.9744,394.1234],
    [6794,1537385344,53.4197,-110.2693,780.0,130.9,184.2,4.3,-1.2,9.73,45.97,1.9743,394.6651],
    [6795,1537385345,53.419,-110.2693,781.2,131.0,184.6,4.4,-1.0,9.56,45.73,1.9745,393.9621],
    [6796,1537385346,53.4183,-110.2693,781.7,129.8,184.4,4.1,0.8,9.21,45.81,1.9764,394.2275],
    [6797,1537385347,53.4176,-110.2694,781.3,129.3,184.8,4.5,1.0,10.1,45.96,1.9744,393.7845],
    [6798,1537385348,53.4169,-110.2694,781.3,128.3,184.7,4.5,0.6,9.88,45.75,1.9742,394.2025],
    [6799,1537385349,53.4163,-110.2694,781.4,128.4,185.1,5.1,0.3,9.77,46.07,1.976,394.7107],
    [6800,1537385350,53.4156,-110.2695,781.2,128.2,185.3,5.6,0.0,9.55,45.98,1.9761,394.8222],
    [6801,1537385351,53.4149,-110.2695,781.4,128.4,184.5,4.6,0.1,9.79,46.46,1.9754,394.8058],
    [6802,1537385352,53.4142,-110.2695,781.6,128.9,184.0,4.3,1.9,9.97,46.49,1.9736,394.5939],
    [6803,1537385353,53.4135,-110.2695,781.4,129.4,184.0,4.9,3.2,10.21,46.63,1.9709,394.1628],
    [6804,1537385354,53.4128,-110.2695,780.7,128.7,184.6,5.9,2.8,9.92,46.72,1.971,394.3224],
    [6805,1537385355,53.4121,-110.2695,780.0,127.0,183.0,4.5,2.7,9.66,46.56,1.9705,393.6293],
    [6806,1537385356,53.4114,-110.2695,779.7,125.7,182.8,4.6,3.2,9.74,45.89,1.9709,394.5122],
    [6807,1537385357,53.4107,-110.2695,779.7,125.7,182.3,4.0,2.8,9.93,46.15,1.9705,394.2617],
    [6808,1537385358,53.4101,-110.2695,779.0,125.0,183.7,5.9,3.1,9.37,46.18,1.9711,393.4554],
    [6809,1537385359,53.4094,-110.2695,778.0,124.0,184.3,6.0,2.5,9.82,46.48,1.9724,393.186],
    [6810,1537385360,53.4087,-110.2695,777.9,123.9,184.5,6.3,2.4,9.78,46.08,1.9731,393.6469],
    [6811,1537385361,53.408,-110.2695,777.6,123.6,184.4,6.0,1.6,9.76,45.79,1.9696,393.9422],
    [6812,1537385362,53.4073,-110.2695,776.6,122.6,183.9,5.5,1.6,9.25,45.53,1.966,393.7151],
    [6813,1537385363,53.4066,-110.2695,775.7,121.0,183.9,5.6,1.1,9.49,45.59,1.9674,393.7421],
    [6814,1537385364,53.4059,-110.2695,775.5,120.8,184.1,5.9,0.7,10.1,44.69,1.9692,393.5243],
    [6815,1537385365,53.4053,-110.2695,776.2,122.1,184.2,5.8,0.5,10.19,44.9,1.973,394.7271],
    [6816,1537385366,53.4046,-110.2695,776.7,123.7,184.3,5.9,0.9,9.86,45.37,1.9735,395.534],
    [6817,1537385367,53.4039,-110.2695,776.8,124.8,184.2,5.8,1.0,9.98,45.1,1.9725,395.534],
    [6818,1537385368,53.4032,-110.2695,777.3,126.4,184.3,6.0,1.2,9.86,45.02,1.9711,393.6762],
    [6819,1537385369,53.4025,-110.2695,777.8,126.8,184.8,6.4,1.8,10.5,44.8,1.9696,392.19],
    [6820,1537385370,53.4018,-110.2695,778.9,127.9,183.6,4.9,2.2,9.35,45.7,1.9688,393.5781],
    [6821,1537385371,53.4012,-110.2695,779.7,129.7,184.0,5.7,1.5,9.59,45.64,1.9687,393.7482],
    [6822,1537385372,53.4005,-110.2695,779.4,129.4,184.8,6.5,1.0,10.69,45.1,1.9699,392.9785],
    [6823,1537385373,53.3998,-110.2695,778.7,129.6,184.2,5.6,0.7,9.85,46.13,1.9786,392.2112],
    [6824,1537385374,53.3991,-110.2695,778.3,131.0,184.5,6.1,1.6,10.23,45.3,1.9685,393.4862],
    [6825,1537385375,53.3984,-110.2695,777.6,130.6,184.9,6.2,0.8,9.85,45.15,1.9672,393.6651],
    [6826,1537385376,53.3978,-110.2695,777.2,130.2,184.6,5.8,1.0,9.77,45.07,1.9693,394.4544],
    [6827,1537385377,53.3971,-110.2695,777.3,129.3,184.5,5.7,1.0,9.71,45.5,1.9839,392.5817],
    [6828,1537385378,53.3964,-110.2695,777.9,128.9,183.5,4.6,0.9,9.18,44.86,1.9779,393.0018],
    [6829,1537385379,53.3957,-110.2695,777.6,128.7,184.5,5.8,0.7,10.24,44.68,1.9652,394.3881],
    [6830,1537385380,53.395,-110.2695,777.2,127.3,184.8,5.9,0.6,10.02,44.48,1.9629,394.3881],
    [6831,1537385381,53.3944,-110.2695,777.5,125.5,184.7,5.6,0.7,9.63,44.61,1.9916,394.0731],
    [6832,1537385382,53.3937,-110.2695,778.5,125.5,185.0,5.7,0.7,10.39,43.82,2.0068,393.5382],
    [6833,1537385383,53.393,-110.2695,779.6,125.6,185.0,5.7,0.5,9.15,43.91,1.9686,393.5226],
    [6834,1537385384,53.3923,-110.2695,780.9,126.9,185.0,5.8,0.4,9.54,44.11,1.9547,393.2496],
    [6835,1537385385,53.3916,-110.2695,782.5,127.5,184.6,5.9,0.3,9.2,43.02,1.9545,393.2816],
    [6836,1537385386,53.391,-110.2695,784.0,129.0,183.6,5.9,0.1,9.45,43.05,1.953,393.6518],
    [6837,1537385387,53.3903,-110.2695,784.9,128.9,182.1,6.0,0.0,9.48,42.22,1.9539,394.4121],
    [6838,1537385388,53.3896,-110.2694,785.5,129.8,179.5,5.7,-0.2,9.79,41.67,1.9531,394.4121],
    [6839,1537385389,53.389,-110.2693,786.1,130.1,176.6,5.6,-0.3,9.78,42.23,1.9541,392.6565],
    [6840,1537385390,53.3883,-110.2691,787.0,130.0,173.3,5.4,-0.2,9.9,41.14,1.9513,392.1171],
    [6841,1537385391,53.3876,-110.2689,788.2,130.1,170.0,5.3,-0.2,9.69,41.84,1.9484,393.3145],
    [6842,1537385392,53.387,-110.2686,789.5,130.4,166.6,5.0,-0.1,9.64,41.01,1.9547,393.8097],
    [6843,1537385393,53.3863,-110.2682,790.7,131.4,163.3,5.1,0.0,9.6,40.74,1.957,393.9718],
    [6844,1537385394,53.3857,-110.2678,792.0,133.0,160.5,5.5,-0.1,9.11,40.54,1.96,393.7275],
    [6845,1537385395,53.3851,-110.2673,794.0,135.7,156.8,5.1,-0.3,10.37,40.22,1.96,392.7493],
    [6846,1537385396,53.3845,-110.2668,796.0,138.0,153.1,4.6,-0.5,9.35,40.87,1.9587,393.4543],
    [6847,1537385397,53.3839,-110.2662,797.5,139.6,150.0,4.5,-0.6,10.21,40.59,1.9565,393.6338],
    [6848,1537385398,53.3833,-110.2655,798.7,139.6,146.8,4.4,-0.5,9.72,41.33,1.9521,393.9283],
    [6849,1537385399,53.3828,-110.2648,799.9,139.9,143.5,4.2,-0.7,10.24,40.77,1.9665,393.5758],
    [6850,1537385400,53.3823,-110.2641,801.3,140.5,140.1,4.1,-0.9,9.51,42.31,1.9657,392.5519],
    [6851,1537385401,53.3818,-110.2633,802.8,142.2,137.1,4.4,-0.7,10.03,41.52,1.9617,393.3358],
    [6852,1537385402,53.3813,-110.2625,804.2,144.2,133.8,4.2,-0.8,9.35,42.51,1.9616,392.3517],
    [6853,1537385403,53.3809,-110.2616,805.3,146.3,130.5,4.4,-1.1,10.29,42.65,1.965,392.6137],
    [6854,1537385404,53.3805,-110.2607,806.6,148.6,127.0,4.4,-1.1,9.17,43.05,1.9649,393.0509],
    [6855,1537385405,53.3801,-110.2598,808.1,150.5,123.9,4.3,-0.8,9.58,43.28,1.9648,393.9519],
    [6856,1537385406,53.3797,-110.2588,809.8,151.8,121.1,4.6,-0.3,9.64,43.06,1.9695,395.4768],
    [6857,1537385407,53.3794,-110.2578,811.4,152.4,117.9,4.6,-0.4,9.45,43.6,1.9704,393.8849],
    [6858,1537385408,53.3791,-110.2568,812.6,152.7,114.4,4.6,-0.9,10.39,43.91,1.974,395.2201],
    [6859,1537385409,53.3789,-110.2557,814.0,152.9,111.3,4.8,-0.9,9.3,44.64,1.9739,394.8822],
    [6860,1537385410,53.3787,-110.2546,815.1,155.1,108.2,4.7,-1.1,9.19,45.21,1.9721,392.5949],
    [6861,1537385411,53.3785,-110.2535,816.0,156.1,104.9,4.6,-1.6,9.96,45.29,1.9713,392.0752],
    [6862,1537385412,53.3783,-110.2524,817.0,157.9,102.1,4.8,-1.9,10.07,46.09,1.97,393.1873],
    [6863,1537385413,53.3782,-110.2513,818.0,159.8,100.4,5.1,-1.7,10.1,46.24,1.9716,393.8008],
    [6864,1537385414,53.378,-110.2502,819.0,160.9,98.3,4.9,-2.2,9.38,46.91,1.9708,393.1356],
    [6865,1537385415,53.3779,-110.2491,819.9,160.9,97.0,4.7,-2.0,9.28,47.64,1.9695,393.8567],
    [6866,1537385416,53.3779,-110.2479,820.2,160.4,96.2,4.6,-1.8,9.58,47.9,1.9679,394.6949],
    [6867,1537385417,53.3778,-110.2468,820.0,159.9,95.4,4.9,-2.2,9.66,47.29,1.9657,394.2455],
    [6868,1537385418,53.3777,-110.2457,819.6,159.2,95.2,5.3,-2.0,9.04,47.39,1.9666,393.621],
    [6869,1537385419,53.3776,-110.2446,819.2,158.3,95.1,5.5,-2.0,9.29,48.05,1.9676,394.8997],
    [6870,1537385420,53.3775,-110.2434,819.3,157.3,95.2,5.5,-1.7,9.32,48.11,1.9684,392.9764],
    [6871,1537385421,53.3775,-110.2423,819.7,157.7,95.5,5.4,-1.5,9.35,47.6,1.9695,394.3227],
    [6872,1537385422,53.3774,-110.2411,820.3,159.3,95.1,5.0,-1.7,10.07,46.84,1.9686,393.9079],
    [6873,1537385423,53.3773,-110.24,820.7,160.7,95.1,4.8,-1.7,9.67,47.09,1.9665,394.0805],
    [6874,1537385424,53.3773,-110.2389,820.9,161.9,95.1,4.8,-1.7,9.35,47.59,1.9658,393.1824],
    [6875,1537385425,53.3772,-110.2377,820.8,162.9,95.0,5.2,-1.8,8.97,47.4,1.9658,393.2583],
    [6876,1537385426,53.3771,-110.2366,820.8,163.5,94.8,4.9,-2.0,9.35,47.24,1.9655,394.6707],
    [6877,1537385427,53.377,-110.2355,820.5,163.5,95.1,5.0,-1.6,9.29,47.39,1.9637,394.2582],
    [6878,1537385428,53.377,-110.2344,820.4,164.1,95.3,5.3,-1.4,9.57,47.39,1.9639,392.3069],
    [6879,1537385429,53.3769,-110.2332,820.2,163.0,94.8,5.3,-1.9,8.92,47.5,1.9632,393.9252],
    [6880,1537385430,53.3768,-110.232,819.9,161.6,95.1,5.3,-1.7,9.45,46.67,1.962,393.3554],
    [6881,1537385431,53.3768,-110.2308,819.8,160.8,95.2,5.5,-1.8,9.69,46.7,1.9621,393.218],
    [6882,1537385432,53.3767,-110.2297,819.6,160.9,95.3,5.4,-1.7,9.24,46.62,1.9587,393.218],
    [6883,1537385433,53.3766,-110.2286,819.4,160.4,95.3,5.1,-1.9,9.31,46.95,1.9541,392.613],
    [6884,1537385434,53.3765,-110.2274,819.5,160.5,95.1,5.3,-2.1,9.18,46.35,1.9575,393.5907],
    [6885,1537385435,53.3765,-110.2262,819.7,159.7,95.5,5.6,-1.7,9.2,45.66,1.9588,393.5907],
    [6886,1537385436,53.3764,-110.2251,820.0,159.0,95.7,5.5,-1.5,9.03,45.08,1.9554,393.2375],
    [6887,1537385437,53.3763,-110.2239,820.3,159.3,95.5,5.3,-1.7,9.01,44.69,1.9586,393.5592],
    [6888,1537385438,53.3762,-110.2229,820.5,160.5,95.5,5.2,-1.6,9.2,44.67,1.9624,392.8121],
    [6889,1537385439,53.3761,-110.2216,820.7,160.7,95.5,5.5,-1.7,9.23,44.4,1.9603,393.7166],
    [6890,1537385440,53.3761,-110.2205,820.9,160.9,95.1,5.7,-2.0,9.21,44.82,1.9595,393.7166],
    [6891,1537385441,53.376,-110.2193,820.7,159.7,95.0,5.5,-2.0,9.24,44.81,1.9607,394.713],
    [6892,1537385442,53.3759,-110.2181,820.3,159.3,95.1,4.6,-2.0,8.69,44.71,1.958,392.2856],
    [6893,1537385443,53.3758,-110.217,820.3,159.3,95.1,4.3,-2.0,9.66,44.14,1.9576,393.1854],
    [6894,1537385444,53.3758,-110.2158,820.3,160.3,95.2,4.9,-2.0,9.52,44.75,1.9599,394.66],
    [6895,1537385445,53.3757,-110.2146,820.0,161.0,95.9,5.3,-1.1,9.24,44.44,1.9629,392.1233],
    [6896,1537385446,53.3756,-110.2134,820.1,161.7,95.7,5.5,-1.3,9.21,44.41,1.9612,393.4928],
    [6897,1537385447,53.3755,-110.2123,820.4,161.4,95.2,5.1,-1.9,9.2,44.64,1.9652,394.5255],
    [6898,1537385448,53.3755,-110.2111,821.1,162.1,94.5,4.8,-2.5,9.21,44.4,1.9685,394.3875],
    [6899,1537385449,53.3754,-110.2099,821.0,161.0,94.8,4.7,-2.2,9.44,45.1,1.9673,393.7686],
    [6900,1537385450,53.3753,-110.2087,820.8,160.8,94.7,4.8,-2.2,9.21,45.8,1.9691,393.9481],
    [6901,1537385451,53.3752,-110.2076,820.5,160.0,94.9,4.8,-1.9,8.98,46.12,1.9685,393.8357],
    [6902,1537385452,53.3752,-110.2064,821.3,161.3,95.1,4.5,-1.7,9.24,46.12,1.9705,394.2709],
    [6903,1537385453,53.3751,-110.2052,822.5,162.5,95.1,4.3,-1.8,8.89,46.72,1.9735,393.5504],
    [6904,1537385454,53.375,-110.204,822.4,162.4,95.5,4.9,-1.4,9.14,47.71,1.9745,394.8611],
    [6905,1537385455,53.3749,-110.2028,821.4,161.4,95.5,4.5,-1.8,9.19,47.38,1.9727,394.3262],
    [6906,1537385456,53.3749,-110.2017,820.9,159.9,96.2,4.4,-0.7,9.21,47.76,1.9739,392.805],
    [6907,1537385457,53.3748,-110.2005,820.5,159.5,96.1,4.6,-0.7,9.26,47.4,1.9771,393.39],
    [6908,1537385458,53.3747,-110.1993,820.6,159.6,96.0,3.9,-0.3,9.25,48.56,1.9762,394.2563],
    [6909,1537385459,53.3746,-110.1981,820.0,158.3,96.2,3.7,0.1,9.49,47.75,1.9746,394.9729],
    [6910,1537385460,53.3746,-110.1969,819.1,156.1,95.9,3.8,0.0,9.89,48.12,1.9769,392.3919],
    [6911,1537385461,53.3745,-110.1957,818.8,154.7,96.2,3.8,0.5,9.22,48.4,1.9765,395.0098],
    [6912,1537385462,53.3744,-110.1945,818.7,154.7,95.6,3.6,-0.1,9.29,48.78,1.9779,395.5737],
    [6913,1537385463,53.3743,-110.1933,819.1,154.1,96.1,4.3,0.4,9.35,48.12,1.9784,394.2774],
    [6914,1537385464,53.3743,-110.1922,819.5,154.5,96.0,4.8,0.2,9.03,48.34,1.9797,394.48],
    [6915,1537385465,53.3742,-110.191,819.3,155.3,95.4,5.0,-0.4,9.22,48.5,1.9796,394.9383],
    [6916,1537385466,53.3741,-110.1898,819.5,156.5,94.4,4.6,-1.4,9.62,47.74,1.9806,393.9194],
    [6917,1537385467,53.3741,-110.1886,820.0,157.0,94.6,4.4,-0.7,9.33,48.21,1.979,394.3815],
    [6918,1537385468,53.374,-110.1874,820.3,156.3,95.5,4.6,0.2,9.01,48.48,1.9781,394.3815],
    [6919,1537385469,53.374,-110.1863,820.4,156.4,95.8,5.0,0.6,9.29,48.44,1.9766,394.9409],
    [6920,1537385470,53.3739,-110.185,820.6,156.6,95.8,5.2,0.6,9.35,48.93,1.9777,393.5357],
    [6921,1537385471,53.3738,-110.1839,820.4,156.4,95.0,5.1,0.0,9.14,48.68,1.977,393.9558],
    [6922,1537385472,53.3738,-110.1828,820.4,156.4,95.4,5.0,0.9,9.77,48.35,1.9741,393.2824],
    [6923,1537385473,53.3737,-110.1815,820.1,156.8,95.2,4.8,0.7,9.31,48.76,1.9721,394.315],
    [6924,1537385474,53.3737,-110.1804,819.8,156.8,94.5,4.6,0.2,9.21,48.87,1.9689,394.0803],
    [6925,1537385475,53.3736,-110.1791,819.4,156.4,94.4,4.9,0.2,9.1,48.86,1.9671,393.4387],
    [6926,1537385476,53.3736,-110.178,819.1,157.1,94.3,5.1,0.3,9.26,48.33,1.965,392.7217],
    [6927,1537385477,53.3735,-110.1768,818.8,156.8,94.8,4.6,1.1,9.31,48.43,1.9623,393.6803],
    [6928,1537385478,53.3735,-110.1756,818.8,156.8,94.9,4.5,0.9,8.84,48.13,1.9637,393.767],
    [6929,1537385479,53.3734,-110.1744,820.5,158.5,94.6,5.2,0.8,9.19,47.43,1.964,393.2898],
    [6930,1537385480,53.3734,-110.1732,821.8,159.8,94.3,4.9,0.5,9.8,46.5,1.9607,393.638],
    [6931,1537385481,53.3733,-110.1721,822.1,160.1,94.2,5.2,0.4,8.82,46.73,1.9599,393.4463],
    [6932,1537385482,53.3733,-110.1709,821.8,159.9,93.8,5.6,-0.2,9.24,46.78,1.9621,393.5799],
    [6933,1537385483,53.3733,-110.1697,822.1,161.1,94.1,5.8,0.3,8.89,46.08,1.961,394.6935],
    [6934,1537385484,53.3732,-110.1685,822.7,161.7,93.9,6.3,-0.4,9.16,45.97,1.9633,392.8333],
    [6935,1537385485,53.3732,-110.1673,822.6,162.6,93.9,6.3,-0.4,9.32,45.86,1.9634,393.0271],
    [6936,1537385486,53.3731,-110.1661,821.3,161.3,94.7,6.1,0.3,9.44,45.96,1.9625,393.8698],
    [6937,1537385487,53.3731,-110.1649,820.3,160.3,93.9,5.9,-0.7,9.12,46.06,1.9624,393.114],
    [6938,1537385488,53.373,-110.1637,820.0,161.0,93.9,6.3,-0.7,8.83,45.82,1.9613,393.7135],
    [6939,1537385489,53.373,-110.1626,819.9,161.2,93.4,5.9,-1.2,9.26,46.35,1.9585,393.8588],
    [6940,1537385490,53.3729,-110.1614,819.2,162.2,93.8,5.4,-1.0,8.5,45.84,1.9594,392.412],
    [6941,1537385491,53.3729,-110.1602,818.9,160.9,93.9,5.6,-1.0,9.29,45.62,1.9594,393.4748],
    [6942,1537385492,53.3728,-110.159,819.2,161.9,93.4,5.7,-1.8,8.53,45.58,1.9595,393.589],
    [6943,1537385493,53.3727,-110.1578,820.3,163.6,93.6,5.8,-1.5,9.32,44.76,1.9621,393.891],
    [6944,1537385494,53.3727,-110.1566,820.5,163.8,94.1,5.9,-1.2,9.23,45.42,1.9658,391.3285],
    [6945,1537385495,53.3726,-110.1554,820.3,163.7,93.6,6.0,-2.0,9.65,44.42,1.9539,394.8883],
    [6946,1537385496,53.3726,-110.1542,819.9,164.0,93.3,5.5,-2.1,9.56,44.92,1.9569,394.8883],
    [6947,1537385497,53.3725,-110.153,820.0,163.3,93.9,5.2,-0.5,9.93,44.76,1.9636,392.7299],
    [6948,1537385498,53.3725,-110.1518,820.3,163.2,92.7,5.7,0.0,9.33,45.39,1.9632,394.6484],
    [6949,1537385499,53.3725,-110.1506,820.0,163.0,89.1,5.6,-0.7,9.28,44.9,1.9608,394.6484],
    [6950,1537385500,53.3725,-110.1494,819.5,162.5,84.7,5.6,-1.0,9.21,44.92,1.9665,392.3102],
    [6951,1537385501,53.3726,-110.1482,820.0,164.0,79.5,5.6,-1.8,9.91,44.52,1.9666,394.4168],
    [6952,1537385502,53.3727,-110.1472,820.4,164.4,76.4,5.0,-1.0,8.95,44.89,1.9668,393.0765],
    [6953,1537385503,53.3729,-110.1459,821.2,166.2,71.0,5.2,-1.0,9.42,45.13,1.9677,392.0111],
    [6954,1537385504,53.3731,-110.1448,822.1,166.1,65.4,5.6,-1.3,8.76,45.46,1.9691,393.9651],
    [6955,1537385505,53.3734,-110.1437,823.7,167.7,59.8,5.7,-1.1,9.17,45.72,1.9719,393.0838],
    [6956,1537385506,53.3738,-110.1427,825.8,170.8,54.1,5.0,-2.1,9.29,45.99,1.9722,393.1898],
    [6957,1537385507,53.3741,-110.1418,827.2,173.3,49.9,5.0,-2.1,9.25,46.26,1.9719,393.9196],
    [6958,1537385508,53.3746,-110.1409,826.9,172.9,45.4,5.4,-2.0,9.23,46.23,1.9709,394.1718],
    [6959,1537385509,53.375,-110.1401,824.0,170.2,41.5,5.5,-1.9,9.47,46.48,1.9723,393.7129],
    [6960,1537385510,53.3755,-110.1393,820.9,167.9,36.3,5.8,-1.9,9.35,46.86,1.9724,394.8579],
    [6961,1537385511,53.3761,-110.1386,820.5,168.5,32.3,5.0,-2.3,9.64,47.1,1.972,395.187],
    [6962,1537385512,53.3766,-110.138,822.1,170.1,29.8,4.5,-1.8,9.1,47.41,1.9695,394.1102],
    [6963,1537385513,53.3772,-110.1374,825.2,174.2,25.6,5.9,-1.6,8.9,47.69,1.9702,393.4046],
    [6964,1537385514,53.3778,-110.1368,828.8,178.8,24.1,4.4,-1.2,9.31,47.76,1.9679,393.0551],
    [6965,1537385515,53.3783,-110.1363,830.5,180.5,22.5,4.0,-1.3,9.38,47.23,1.9683,393.0551],
    [6966,1537385516,53.3789,-110.1359,829.8,180.8,20.4,4.0,-1.1,8.94,47.61,1.9669,394.4961],
    [6967,1537385517,53.3795,-110.1355,827.9,178.9,18.3,4.1,-0.5,9.32,47.01,1.9647,393.9874],
    [6968,1537385518,53.3802,-110.1351,825.9,176.9,16.7,4.7,-0.6,9.35,46.52,1.9668,393.2852],
    [6969,1537385519,53.3808,-110.1347,822.5,173.2,16.3,4.8,-0.8,9.38,46.86,1.9644,393.1953],
    [6970,1537385520,53.3814,-110.1343,819.1,169.1,15.9,5.2,-0.9,9.47,45.81,1.963,393.8827],
    [6971,1537385521,53.382,-110.1339,816.6,166.6,16.8,4.5,-0.8,9.38,46.42,1.9627,393.5478],
    [6972,1537385522,53.3827,-110.1335,815.1,165.1,16.9,5.0,-0.4,9.38,45.95,1.9687,392.4908],
    [6973,1537385523,53.3833,-110.1331,814.6,164.9,18.2,4.1,-0.5,9.5,45.35,1.9675,392.6775],
    [6974,1537385524,53.3839,-110.1327,815.1,166.1,18.9,4.3,-1.1,9.38,45.76,1.9686,393.6724],
    [6975,1537385525,53.3845,-110.1323,817.3,168.3,20.0,4.0,0.3,9.72,45.32,1.9683,393.6139],
    [6976,1537385526,53.3852,-110.1318,819.5,170.5,20.3,4.6,0.1,8.68,45.57,1.9663,393.8543],
    [6977,1537385527,53.3858,-110.1314,822.0,174.0,19.2,5.7,-0.4,8.91,45.95,1.9674,393.799],
    [6978,1537385528,53.3864,-110.1309,823.1,175.1,19.9,4.8,-0.1,9.37,46.18,1.9677,393.635],
    [6979,1537385529,53.3869,-110.1306,823.7,175.7,19.8,4.6,0.1,8.98,45.64,1.9663,393.7828],
    [6980,1537385530,53.3876,-110.1301,825.4,177.4,18.7,4.6,-0.1,9.62,45.65,1.9658,394.0433],
    [6981,1537385531,53.3883,-110.1297,825.8,178.8,16.9,5.1,-0.9,9.67,45.7,1.9641,391.9885],
    [6982,1537385532,53.3889,-110.1293,825.8,179.8,14.6,5.8,-0.8,9.63,45.05,1.9623,393.1666],
    [6983,1537385533,53.3895,-110.1289,826.9,181.9,12.5,5.8,-0.2,9.52,45.5,1.9651,392.4645],
    [6984,1537385534,53.3902,-110.1286,827.5,182.5,11.9,5.0,0.5,9.43,44.56,1.9639,394.2835],
    [6985,1537385535,53.3908,-110.1283,827.6,182.9,11.3,4.3,0.2,10.19,44.12,1.9595,393.9046],
    [6986,1537385536,53.3914,-110.1281,828.1,184.1,9.4,5.0,0.4,10.04,43.7,1.9614,392.7449],
    [6987,1537385537,53.3921,-110.1278,829.5,186.5,7.7,5.2,0.9,9.37,44.11,1.9603,393.9315],
    [6988,1537385538,53.3927,-110.1276,829.7,186.7,6.2,5.6,0.7,9.61,43.8,1.9622,394.3968],
    [6989,1537385539,53.3934,-110.1274,828.3,184.5,5.2,4.9,0.6,9.73,43.55,1.9604,392.4632],
    [6990,1537385540,53.394,-110.1273,826.1,183.1,3.6,5.2,0.7,9.47,43.71,1.9626,394.1322],
    [6991,1537385541,53.3947,-110.1272,824.5,181.5,361.8,5.6,1.0,8.83,43.65,1.9613,394.7472],
    [6992,1537385542,53.3953,-110.127,822.9,179.9,361.7,5.2,1.3,9.24,43.85,1.9621,394.7081],
    [6993,1537385543,53.396,-110.1269,821.7,178.7,360.8,5.8,1.6,9.64,44.07,1.9629,394.3472],
    [6994,1537385544,53.3967,-110.1268,821.0,178.0,361.1,5.3,1.2,8.75,44.05,1.9641,394.0941],
    [6995,1537385545,53.3973,-110.1267,821.0,178.3,361.5,5.1,1.1,8.73,44.27,1.9628,395.0457],
    [6996,1537385546,53.398,-110.1266,821.4,179.4,361.6,5.1,1.3,9.33,44.99,1.9624,393.5381],
    [6997,1537385547,53.3987,-110.1265,821.8,180.8,362.2,4.4,1.5,8.67,44.94,1.963,392.9149],
    [6998,1537385548,53.3993,-110.1264,822.2,181.1,361.2,5.4,1.5,8.76,45.31,1.9645,393.9343],
    [6999,1537385549,53.4,-110.1263,821.7,181.8,360.8,5.8,1.5,9.32,45.85,1.9639,394.6165],
    [7000,1537385550,53.4006,-110.1262,821.0,182.0,360.6,5.9,1.6,9.99,45.34,1.9653,394.5369],
    [7001,1537385551,53.4013,-110.1261,821.1,183.1,360.8,5.3,1.5,9.12,45.65,1.9656,394.4287],
    [7002,1537385552,53.402,-110.126,821.7,184.7,359.7,5.9,2.0,9.48,45.66,1.9694,394.4572],
    [7003,1537385553,53.4026,-110.1259,822.0,185.5,360.3,4.8,2.3,9.35,46.76,1.9662,394.4572],
    [7004,1537385554,53.4033,-110.1259,821.3,185.3,360.1,5.5,2.2,9.77,45.83,1.9654,394.0334],
    [7005,1537385555,53.404,-110.1258,821.2,185.8,359.6,6.2,2.1,9.3,46.25,1.9669,394.747],
    [7006,1537385556,53.4046,-110.1257,821.6,186.6,360.5,5.6,2.0,9.22,46.31,1.9674,394.8039],
    [7007,1537385557,53.4053,-110.1256,822.9,187.9,359.5,6.7,1.4,8.81,46.18,1.968,394.2959],
    [7008,1537385558,53.406,-110.1255,824.2,189.2,360.3,5.8,1.4,8.93,46.75,1.9666,392.4821],
    [7009,1537385559,53.4066,-110.1254,825.9,190.9,360.0,6.0,3.3,9.08,46.54,1.9671,393.8595],
    [7010,1537385560,53.4073,-110.1253,828.1,192.8,360.6,5.3,4.7,9.26,47.17,1.9683,394.0886],
    [7011,1537385561,53.408,-110.1252,829.8,193.8,360.1,6.2,3.6,9.65,46.37,1.9673,393.1348],
    [7012,1537385562,53.4087,-110.1251,830.9,194.9,361.3,4.7,0.8,8.76,46.83,1.9668,394.0083],
    [7013,1537385563,53.4093,-110.125,831.5,195.5,2.8,3.2,0.2,9.26,47.47,1.9658,393.2699],
    [7014,1537385564,53.41,-110.1249,832.7,196.6,2.7,3.3,-0.4,9.41,46.92,1.9646,393.8457],
    [7015,1537385565,53.4107,-110.1248,834.1,199.1,2.5,3.5,-0.7,8.81,47.3,1.964,393.8457],
    [7016,1537385566,53.4114,-110.1247,834.9,199.9,3.2,2.5,-1.7,9.48,47.08,1.964,393.879],
    [7017,1537385567,53.412,-110.1246,835.5,200.5,362.4,3.3,-2.3,8.74,47.3,1.9635,394.1412],
    [7018,1537385568,53.4127,-110.1245,835.4,199.3,361.2,4.0,-2.5,9.69,46.42,1.9635,392.7007],
    [7019,1537385569,53.4134,-110.1245,834.8,198.1,360.7,3.9,-2.1,9.41,47.03,1.9645,393.4839],
    [7020,1537385570,53.4141,-110.1244,833.6,196.0,360.6,3.3,-2.0,9.46,46.39,1.9637,394.7748],
    [7021,1537385571,53.4147,-110.1243,831.7,193.7,360.8,2.8,-1.6,9.21,46.9,1.9635,393.7758],
    [7022,1537385572,53.4154,-110.1243,830.1,191.0,359.6,4.7,-1.5,10.12,46.16,1.964,394.258],
    [7023,1537385573,53.4161,-110.1242,830.4,191.4,359.0,5.0,-0.8,8.77,46.62,1.9646,394.3792],
    [7024,1537385574,53.4168,-110.1242,829.7,189.7,361.2,3.2,-0.6,9.14,46.64,1.9647,392.8608],
    [7025,1537385575,53.4174,-110.1241,828.0,188.0,359.8,5.0,-1.2,9.22,47.06,1.9631,392.0864],
    [7026,1537385576,53.4181,-110.124,825.2,185.0,360.2,4.4,-1.6,9.66,46.62,1.9635,394.7409],
    [7027,1537385577,53.4188,-110.1239,822.7,182.0,359.0,5.5,-1.6,9.94,46.59,1.9615,392.6317],
    [7028,1537385578,53.4195,-110.1239,821.7,180.7,358.6,5.8,-0.9,10.1,46.47,1.9642,394.26],
    [7029,1537385579,53.4202,-110.1238,821.1,180.1,359.2,5.2,-0.5,9.69,46.56,1.9625,394.26],
    [7030,1537385580,53.4209,-110.1238,819.6,177.5,359.8,4.8,-0.6,9.49,46.0,1.9629,391.849],
    [7031,1537385581,53.4216,-110.1237,818.6,176.6,360.0,4.8,-0.7,9.03,45.8,1.9584,391.849],
    [7032,1537385582,53.4222,-110.1236,818.4,176.4,360.0,5.0,-0.8,8.86,46.06,1.9582,394.2913],
    [7033,1537385583,53.4229,-110.1235,819.0,177.0,360.1,4.6,-0.7,9.45,45.81,1.9616,391.4523],
    [7034,1537385584,53.4236,-110.1235,819.7,177.7,360.4,4.4,-0.8,9.4,45.4,1.9622,395.6052],
    [7035,1537385585,53.4243,-110.1234,819.9,177.9,359.4,5.2,-0.9,9.43,46.21,1.9627,394.6172],
    [7036,1537385586,53.425,-110.1233,819.9,177.9,359.6,5.0,-0.3,9.18,45.21,1.964,392.3203],
    [7037,1537385587,53.4256,-110.1233,819.4,177.4,359.2,5.4,-0.3,9.57,45.5,1.9635,394.1334],
    [7038,1537385588,53.4263,-110.1232,818.4,176.4,360.2,4.1,-0.8,9.58,44.9,1.9634,393.5655],
    [7039,1537385589,53.427,-110.1231,818.8,177.8,359.8,4.5,-0.4,9.04,45.59,1.9641,392.7539],
    [7040,1537385590,53.4277,-110.1231,819.8,178.8,359.5,4.6,0.4,9.81,45.07,1.9612,395.072],
    [7041,1537385591,53.4284,-110.123,819.5,178.5,359.0,5.1,0.0,9.27,45.21,1.9612,393.8165],
    [7042,1537385592,53.4291,-110.123,818.4,177.4,358.9,4.6,-0.4,9.9,45.14,1.9625,393.8177],
    [7043,1537385593,53.4297,-110.1229,818.9,177.9,358.2,4.9,-0.3,9.46,45.52,1.9624,393.1235],
    [7044,1537385594,53.4304,-110.1229,821.2,180.2,357.5,5.2,0.6,9.91,44.73,1.9639,393.1235],
    [7045,1537385595,53.4311,-110.1229,822.3,182.3,357.2,5.2,0.8,10.01,44.57,1.9637,394.0536],
    [7046,1537385596,53.4318,-110.1228,823.0,182.3,356.3,5.9,0.9,9.22,45.31,1.9654,394.0536],
    [7047,1537385597,53.4325,-110.1228,822.5,181.5,356.6,5.4,0.8,9.45,44.78,1.9633,394.1019],
    [7048,1537385598,53.4332,-110.1228,821.9,180.9,357.4,4.6,1.1,9.22,45.02,1.9644,394.8159],
    [7049,1537385599,53.4338,-110.1228,820.8,179.8,357.6,4.5,1.7,9.13,45.14,1.964,395.3451],
    [7050,1537385600,53.4345,-110.1228,819.8,180.4,356.7,5.5,1.5,9.21,45.3,1.9634,393.9704],
    [7051,1537385601,53.4352,-110.1228,818.9,179.9,356.6,5.6,0.9,9.67,45.19,1.9638,390.2577],
    [7052,1537385602,53.4359,-110.1227,818.4,178.4,356.9,5.1,0.6,9.4,45.16,1.9646,393.2401],
    [7053,1537385603,53.4366,-110.1227,818.5,178.5,358.0,4.2,0.2,9.41,45.52,1.9649,393.2401],
    [7054,1537385604,53.4373,-110.1227,818.4,178.4,357.7,4.6,0.4,10.04,45.11,1.9674,395.135],
    [7055,1537385605,53.438,-110.1227,818.4,179.4,358.8,3.5,0.8,9.52,45.74,1.9647,394.5862],
    [7056,1537385606,53.4387,-110.1226,818.2,180.2,358.1,4.7,1.4,8.87,45.56,1.9648,394.4677],
    [7057,1537385607,53.4394,-110.1226,817.0,179.0,357.9,5.0,1.5,9.75,45.0,1.9644,394.7665],
    [7058,1537385608,53.4401,-110.1226,815.9,177.9,358.4,4.5,1.4,9.96,45.41,1.964,391.4899],
    [7059,1537385609,53.4407,-110.1225,815.2,176.2,358.0,5.1,1.2,9.36,45.68,1.9647,394.5482],
    [7060,1537385610,53.4414,-110.1225,815.2,174.9,357.7,5.2,0.8,9.13,45.69,1.9655,394.0501],
    [7061,1537385611,53.4421,-110.1225,816.3,175.3,359.0,3.8,0.3,8.7,45.67,1.9671,393.9928],
    [7062,1537385612,53.4428,-110.1224,816.7,174.7,357.8,5.6,0.2,9.5,46.15,1.968,390.6646],
    [7063,1537385613,53.4435,-110.1224,815.9,174.1,357.6,5.7,-0.1,8.85,45.7,1.9689,393.6615],
    [7064,1537385614,53.4442,-110.1224,814.1,173.1,358.4,5.0,0.7,9.6,46.0,1.9673,393.6615],
    [7065,1537385615,53.4449,-110.1223,812.3,171.3,357.6,5.7,1.2,9.2,45.95,1.9666,393.5382],
    [7066,1537385616,53.4456,-110.1223,811.4,170.4,358.6,4.5,0.2,9.41,46.07,1.9659,392.9346],
    [7067,1537385617,53.4463,-110.1222,812.3,171.3,358.0,4.7,0.4,9.5,46.55,1.9662,393.634],
    [7068,1537385618,53.447,-110.1222,813.7,172.7,358.7,3.9,-0.2,9.45,46.56,1.968,393.3587],
    [7069,1537385619,53.4477,-110.1222,814.0,173.0,358.5,4.1,-1.2,9.46,45.75,1.9679,392.8802],
    [7070,1537385620,53.4484,-110.1221,814.4,174.4,359.2,3.3,-1.6,9.46,46.61,1.9673,393.6357],
    [7071,1537385621,53.4491,-110.1221,815.4,175.7,358.8,3.6,-1.0,9.33,45.71,1.9673,394.6916],
    [7072,1537385622,53.4498,-110.1221,815.8,177.9,359.2,3.1,-1.3,9.63,45.22,1.969,394.7085],
    [7073,1537385623,53.4505,-110.1221,815.7,178.7,359.7,2.2,-1.3,9.42,45.47,1.9657,393.9976],
    [7074,1537385624,53.4512,-110.122,814.1,179.1,359.5,2.5,-0.1,9.43,45.62,1.9636,393.9651],
    [7075,1537385625,53.4518,-110.122,812.1,178.7,358.8,2.8,0.3,9.35,45.11,1.9643,393.9793],
    [7076,1537385626,53.4526,-110.122,810.1,179.8,358.4,2.8,0.6,9.36,44.95,1.9639,394.217],
    [7077,1537385627,53.4533,-110.122,809.0,180.3,357.6,3.3,1.0,9.83,44.51,1.962,394.0462],
    [7078,1537385628,53.454,-110.122,808.5,185.2,357.3,3.4,1.0,8.97,44.47,1.9643,393.1871],
    [7079,1537385629,53.4547,-110.122,807.9,189.9,356.9,3.8,1.3,8.93,44.08,1.9654,394.2222],
    [7080,1537385630,53.4554,-110.122,807.4,198.4,356.7,4.1,1.1,9.3,43.95,1.9671,393.8483],
    [7081,1537385631,53.4561,-110.122,806.8,199.0,356.7,4.5,0.8,9.43,43.75,1.9655,392.2962],
    [7082,1537385632,53.4568,-110.122,806.4,189.4,356.7,4.7,0.6,10.24,43.26,1.966,394.6223],
    [7083,1537385633,53.4575,-110.122,806.4,183.7,357.0,4.6,1.7,9.01,43.48,1.9697,393.7203],
    [7084,1537385634,53.4582,-110.122,806.1,175.0,357.3,4.4,2.2,9.74,43.64,1.9673,393.8943],
    [7085,1537385635,53.4589,-110.122,805.4,169.4,356.9,4.9,2.4,10.16,43.47,1.9685,394.2522],
    [7086,1537385636,53.4596,-110.122,804.6,163.6,356.8,5.2,2.4,10.1,43.62,1.9654,393.6177],
    [7087,1537385637,53.4603,-110.1219,804.4,161.5,357.1,5.2,2.7,9.4,44.16,1.9658,393.5804],
    [7088,1537385638,53.461,-110.1219,804.3,159.3,357.6,5.1,3.5,9.38,44.02,1.9662,393.5147],
    [7089,1537385639,53.4617,-110.1219,803.5,157.4,358.2,5.1,2.8,9.18,44.37,1.9664,393.8894],
    [7090,1537385640,53.4624,-110.1218,802.9,156.9,357.9,5.6,1.9,9.11,44.68,1.9695,394.4202],
    [7091,1537385641,53.4631,-110.1218,802.4,156.4,359.9,3.6,1.2,10.23,43.76,1.97,394.1967],
    [7092,1537385642,53.4638,-110.1217,803.8,156.8,360.3,3.2,1.7,9.84,43.99,1.9721,394.1967],
    [7093,1537385643,53.4645,-110.1217,805.5,157.5,359.5,4.2,2.0,10.12,44.37,1.9697,394.5414],
    [7094,1537385644,53.4652,-110.1216,806.2,157.5,358.0,5.2,3.1,9.51,45.51,1.97,394.5439],
    [7095,1537385645,53.4659,-110.1216,806.2,157.2,359.3,2.6,2.6,9.3,45.21,1.9732,395.4399],
    [7096,1537385646,53.4666,-110.1216,806.4,157.4,359.1,2.0,1.9,9.69,44.74,1.9747,394.5783],
    [7097,1537385647,53.4673,-110.1216,807.0,158.0,358.3,2.6,1.2,8.78,45.3,1.9757,394.5581],
    [7098,1537385648,53.468,-110.1216,807.0,158.0,357.4,3.5,-0.4,9.91,45.4,1.9811,394.5292],
    [7099,1537385649,53.4687,-110.1216,806.4,156.4,358.4,2.5,-1.0,9.71,46.26,1.9831,395.2274],
    [7100,1537385650,53.4694,-110.1216,805.6,155.6,357.9,3.4,-0.4,9.2,46.08,1.9822,394.1675],
    [7101,1537385651,53.4701,-110.1216,805.8,156.5,358.2,3.3,-0.2,9.75,45.83,1.9843,394.0651],
    [7102,1537385652,53.4708,-110.1216,805.6,156.6,357.9,3.7,-0.8,10.1,46.07,1.9834,394.1496],
    [7103,1537385653,53.4716,-110.1215,805.1,157.1,358.1,3.5,-1.6,8.95,46.2,1.9832,393.6013],
    [7104,1537385654,53.4723,-110.1215,804.7,156.7,358.3,2.9,-2.3,9.23,46.29,1.9826,393.6013],
    [7105,1537385655,53.473,-110.1215,804.3,157.3,358.0,3.2,-2.6,9.97,45.98,1.9822,394.944],
    [7106,1537385656,53.4737,-110.1215,804.4,157.1,357.5,3.9,-2.8,9.68,46.63,1.9853,393.228],
    [7107,1537385657,53.4744,-110.1215,804.5,157.0,357.4,3.9,-2.3,9.28,46.23,1.9848,393.228],
    [7108,1537385658,53.4751,-110.1215,805.1,158.1,357.8,3.7,-1.9,9.56,46.52,1.9852,394.7441],
    [7109,1537385659,53.4758,-110.1215,804.8,157.8,357.7,4.3,-1.4,9.46,46.29,1.9823,394.6678],
    [7110,1537385660,53.4765,-110.1215,803.7,155.6,357.8,4.5,-0.8,10.31,45.7,1.9806,394.4483],
    [7111,1537385661,53.4772,-110.1215,802.7,155.0,358.1,4.4,-0.5,9.59,46.24,1.9794,394.3648],
    [7112,1537385662,53.4779,-110.1214,801.9,154.9,357.7,4.9,-0.2,9.66,45.73,1.9802,394.5697],
    [7113,1537385663,53.4786,-110.1214,801.2,155.1,357.3,5.3,0.1,10.07,44.92,1.9836,394.5697],
    [7114,1537385664,53.4793,-110.1214,801.3,155.3,357.6,5.1,-0.3,9.38,45.7,1.9841,394.0322],
    [7115,1537385665,53.48,-110.1213,801.6,156.3,357.7,5.2,0.6,9.56,45.93,1.9847,394.0322],
    [7116,1537385666,53.4807,-110.1213,800.9,155.9,358.7,4.3,1.4,9.41,46.41,1.9849,393.6445],
    [7117,1537385667,53.4814,-110.1213,800.7,155.7,358.5,4.7,1.9,9.45,46.42,1.9856,393.9117],
    [7118,1537385668,53.4821,-110.1212,799.7,154.7,359.0,4.4,1.7,9.65,46.57,1.9854,395.0164],
    [7119,1537385669,53.4828,-110.1212,797.9,151.9,358.8,5.1,1.9,10.23,46.1,1.9862,394.9204],
    [7120,1537385670,53.4835,-110.1211,796.6,151.7,358.9,5.1,2.1,9.45,46.59,1.987,395.1173],
    [7121,1537385671,53.4842,-110.1211,795.9,152.6,359.2,5.0,2.2,9.53,46.7,1.9862,394.9881],
    [7122,1537385672,53.485,-110.121,794.1,152.2,358.8,5.5,2.2,9.35,46.52,1.988,395.6304],
    [7123,1537385673,53.4857,-110.1209,792.5,152.5,358.4,5.9,2.6,9.56,46.64,1.9883,394.7004],
    [7124,1537385674,53.4864,-110.1209,792.1,153.1,359.1,4.2,3.3,9.21,46.63,1.9845,394.2964],
    [7125,1537385675,53.4871,-110.1209,791.8,153.8,359.5,3.1,3.4,10.14,46.42,1.9843,393.284],
    [7126,1537385676,53.4878,-110.1208,790.8,152.7,357.0,5.2,2.9,9.24,47.33,1.9855,393.9382],
    [7127,1537385677,53.4886,-110.1208,790.1,153.1,355.8,5.3,2.2,9.43,46.94,1.9862,393.1513],
    [7128,1537385678,53.4893,-110.1208,790.0,154.0,356.6,3.6,1.5,10.16,46.63,1.9833,394.325],
    [7129,1537385679,53.49,-110.1209,789.8,154.8,356.3,3.7,2.2,9.63,46.58,1.9875,393.8733],
    [7130,1537385680,53.4907,-110.1209,789.5,154.5,355.8,4.6,1.8,9.77,46.27,1.9829,395.1466],
    [7131,1537385681,53.4914,-110.1209,790.1,154.8,356.6,3.7,1.7,9.74,46.65,1.9871,394.1229],
    [7132,1537385682,53.4921,-110.1209,791.0,155.0,357.7,3.0,1.7,9.66,47.02,1.9864,394.4447],
    [7133,1537385683,53.4929,-110.1209,791.4,154.3,357.7,3.5,0.7,9.65,47.08,1.9871,394.4447],
    [7134,1537385684,53.4936,-110.1209,791.5,154.5,358.6,2.3,-0.6,9.49,46.46,1.9821,395.4792],
    [7135,1537385685,53.4943,-110.1209,791.7,154.8,359.0,2.3,-0.4,9.22,46.77,1.9781,393.6641],
    [7136,1537385686,53.495,-110.1209,792.2,155.6,358.2,2.8,0.0,9.52,46.75,1.9781,394.1414],
    [7137,1537385687,53.4957,-110.1209,791.7,156.4,358.2,2.9,0.1,9.01,46.4,1.978,393.7263],
    [7138,1537385688,53.4964,-110.1209,791.4,158.7,357.0,4.2,-0.2,9.55,46.54,1.9765,393.7263],
    [7139,1537385689,53.4971,-110.1209,791.1,160.2,356.5,4.6,-0.7,9.65,46.28,1.9727,394.3569],
    [7140,1537385690,53.4978,-110.1209,791.0,162.8,356.8,4.0,-0.7,9.79,46.33,1.9762,395.0703],
    [7141,1537385691,53.4986,-110.1209,791.4,164.2,357.3,3.4,0.1,9.43,46.33,2.0177,393.5031],
    [7142,1537385692,53.4993,-110.1209,790.9,166.1,357.2,3.9,0.0,10.32,45.81,1.99,393.8585],
    [7143,1537385693,53.5,-110.1209,789.6,165.8,357.0,4.3,-0.5,9.65,46.21,1.9728,394.4458],
    [7144,1537385694,53.5007,-110.1209,788.9,166.4,356.7,4.8,-0.5,9.95,44.98,1.967,393.6463],
    [7145,1537385695,53.5014,-110.1209,789.0,168.2,356.5,5.1,-0.7,9.91,45.03,1.9686,393.0394],
    [7146,1537385696,53.5021,-110.1209,789.2,168.4,357.0,4.6,-0.6,9.21,44.76,1.9676,394.0103],
    [7147,1537385697,53.5028,-110.1209,789.1,169.9,357.5,4.2,-0.7,9.97,43.93,1.9644,393.6751],
    [7148,1537385698,53.5035,-110.1208,788.9,170.8,357.3,4.6,-0.4,9.55,44.46,1.9615,392.6627],
    [7149,1537385699,53.5042,-110.1208,788.8,172.5,357.8,4.2,-0.3,9.44,44.23,1.9611,393.4316],
    [7150,1537385700,53.5049,-110.1208,788.9,174.7,358.2,3.7,-0.2,9.76,43.87,1.9618,394.1224],
    [7151,1537385701,53.5057,-110.1208,788.8,177.6,358.7,3.2,0.1,9.68,43.56,1.9601,393.9063],
    [7152,1537385702,53.5063,-110.1208,788.8,179.5,358.5,3.4,0.2,9.53,43.53,1.9593,394.2252],
    [7153,1537385703,53.507,-110.1208,788.9,180.9,358.5,3.3,0.3,9.61,43.0,1.9592,393.8593],
    [7154,1537385704,53.5077,-110.1207,789.2,181.2,358.5,3.3,0.7,9.3,43.05,1.9616,395.5757],
    [7155,1537385705,53.5084,-110.1207,789.3,180.3,357.9,4.0,0.2,10.04,42.49,1.9666,394.6721],
    [7156,1537385706,53.5091,-110.1207,789.3,180.3,357.8,4.2,-0.1,9.65,42.61,2.0402,394.5153],
    [7157,1537385707,53.5098,-110.1207,789.8,183.1,357.8,4.1,0.7,9.9,42.33,2.0405,393.1524],
    [7158,1537385708,53.5105,-110.1207,790.2,186.2,358.6,3.2,0.5,10.31,42.79,2.0019,393.2708],
    [7159,1537385709,53.5112,-110.1206,790.1,189.1,358.8,2.9,0.8,9.46,43.16,1.9647,394.1381],
    [7160,1537385710,53.5119,-110.1206,790.0,189.9,358.6,3.0,0.9,9.51,43.11,1.9641,395.205],
    [7161,1537385711,53.5126,-110.1206,790.0,193.5,358.2,3.5,0.6,9.96,42.84,1.9667,393.6585],
    [7162,1537385712,53.5133,-110.1206,789.8,197.3,357.8,3.7,0.9,9.63,42.71,1.9657,393.5313],
    [7163,1537385713,53.514,-110.1206,789.1,204.1,358.2,3.5,1.0,9.67,42.66,1.9613,393.4354],
    [7164,1537385714,53.5147,-110.1206,788.7,206.7,358.1,3.4,1.4,9.64,42.78,1.9604,393.302],
    [7165,1537385715,53.5154,-110.1206,788.7,206.7,358.3,3.2,1.5,10.28,42.71,1.9603,393.96],
    [7166,1537385716,53.5161,-110.1205,789.0,207.0,358.0,3.4,1.9,9.95,42.43,1.9603,393.495],
    [7167,1537385717,53.5168,-110.1205,789.0,207.0,358.4,2.9,1.9,9.74,43.47,1.9591,392.8768],
    [7168,1537385718,53.5175,-110.1205,788.7,206.7,358.5,2.8,1.7,9.65,42.89,1.9589,392.8768],
    [7169,1537385719,53.5182,-110.1205,788.6,206.6,358.5,2.7,1.5,10.07,42.73,1.961,392.991],
    [7170,1537385720,53.5189,-110.1205,788.7,206.7,358.6,2.5,1.4,9.44,42.86,1.9614,393.9955],
    [7171,1537385721,53.5196,-110.1205,788.9,206.9,358.7,2.3,1.3,9.43,43.41,1.9614,393.5291],
    [7172,1537385722,53.5203,-110.1205,789.0,207.0,358.8,2.1,1.4,9.43,42.94,1.9608,392.7323],
    [7173,1537385723,53.521,-110.1205,789.2,207.2,358.4,2.6,1.6,9.69,43.36,1.9618,393.1721],
    [7174,1537385724,53.5217,-110.1205,789.0,206.7,357.9,3.0,1.6,9.68,42.73,1.9657,394.206],
    [7175,1537385725,53.5223,-110.1205,789.0,204.9,358.1,2.6,1.6,9.5,42.92,1.9665,394.206],
    [7176,1537385726,53.523,-110.1205,789.0,204.0,357.9,2.9,0.9,9.61,43.13,1.9673,393.9388],
    [7177,1537385727,53.5237,-110.1205,789.6,202.6,358.2,2.4,0.9,9.25,43.78,1.9714,395.5532],
    [7178,1537385728,53.5244,-110.1205,790.1,202.1,358.1,2.4,0.5,9.1,43.78,1.9724,392.5732],
    [7179,1537385729,53.5251,-110.1205,790.7,201.7,358.8,1.6,-0.2,9.57,44.06,1.9678,394.1365],
    [7180,1537385730,53.5258,-110.1205,792.0,202.0,357.4,4.0,-0.9,10.23,43.7,1.9627,393.517],
    [7181,1537385731,53.5265,-110.1205,792.3,201.2,356.9,4.5,-1.5,9.41,44.25,1.961,394.154],
    [7182,1537385732,53.5272,-110.1205,791.7,199.7,357.5,3.7,-1.1,9.82,44.18,1.9558,393.6175],
    [7183,1537385733,53.5279,-110.1204,790.6,197.6,357.6,3.8,-0.8,10.36,43.51,1.9567,393.6555],
    [7184,1537385734,53.5286,-110.1204,790.0,196.0,357.5,4.0,-0.6,9.31,43.75,1.9561,392.8918],
    [7185,1537385735,53.5293,-110.1204,789.9,194.9,357.6,4.0,-0.9,9.03,42.87,1.955,392.4129],
    [7186,1537385736,53.53,-110.1204,789.9,193.9,357.5,4.2,-0.6,9.14,42.28,1.9545,392.9972],
    [7187,1537385737,53.5307,-110.1204,789.8,192.8,357.5,4.3,-0.4,10.17,41.52,1.952,393.0652],
    [7188,1537385738,53.5314,-110.1204,789.6,192.6,357.3,4.7,-0.5,9.62,41.59,1.9531,393.0652],
    [7189,1537385739,53.5321,-110.1204,789.4,192.4,357.1,5.1,-0.7,10.07,40.63,1.9567,393.2601],
    [7190,1537385740,53.5328,-110.1204,789.1,193.1,357.4,4.8,-0.7,10.45,40.59,1.9599,393.3591],
    [7191,1537385741,53.5335,-110.1203,789.0,193.0,357.7,4.6,-0.6,9.25,40.85,1.9607,395.1794],
    [7192,1537385742,53.5342,-110.1203,789.0,193.1,357.7,4.9,-0.2,10.14,40.61,1.9628,392.9576],
    [7193,1537385743,53.5349,-110.1203,788.7,191.7,357.8,4.9,0.1,10.19,41.12,1.9634,393.4882],
    [7194,1537385744,53.5356,-110.1203,788.4,189.2,358.0,4.8,-0.2,9.44,41.33,1.9635,393.4613],
    [7195,1537385745,53.5363,-110.1202,788.8,188.5,358.0,4.8,0.1,9.54,41.85,1.9627,393.4288],
    [7196,1537385746,53.537,-110.1202,789.3,187.0,358.1,4.5,0.2,9.35,41.95,1.9646,392.635],
    [7197,1537385747,53.5377,-110.1202,789.6,186.6,358.1,4.3,0.3,9.94,41.47,1.9643,394.9098],
    [7198,1537385748,53.5384,-110.1201,789.3,186.3,358.2,4.2,0.3,9.55,42.49,1.9655,393.7053],
    [7199,1537385749,53.5391,-110.1201,789.3,186.3,357.8,4.6,0.6,9.4,42.53,1.9655,393.0811],
    [7200,1537385750,53.5398,-110.1201,789.3,186.3,358.1,4.2,0.6,10.19,42.26,1.9653,393.1993],
    [7201,1537385751,53.5405,-110.1201,789.3,185.3,358.1,4.2,0.8,9.36,42.63,1.9653,393.3977],
    [7202,1537385752,53.5412,-110.12,789.6,185.3,357.9,4.4,0.8,9.66,42.99,1.9664,393.0375],
    [7203,1537385753,53.5419,-110.12,789.6,185.6,357.8,4.5,1.1,9.53,42.94,1.9662,393.0375],
    [7204,1537385754,53.5426,-110.12,789.2,185.2,357.8,4.5,1.0,9.56,43.02,1.9675,394.0497],
    [7205,1537385755,53.5432,-110.12,788.9,184.9,357.3,5.1,0.7,9.63,43.12,1.9674,394.0261],
    [7206,1537385756,53.5439,-110.1199,788.6,185.6,357.4,4.9,-0.1,10.02,42.74,1.9678,394.0261],
    [7207,1537385757,53.5446,-110.1199,788.6,185.6,357.8,4.6,0.2,10.0,42.91,1.9671,394.2446],
    [7208,1537385758,53.5453,-110.1199,788.8,184.8,357.9,4.5,0.3,9.91,42.85,1.9651,392.7251],
    [7209,1537385759,53.546,-110.1199,788.8,184.7,358.0,4.5,0.2,9.4,43.66,1.9655,393.1807],
    [7210,1537385760,53.5467,-110.1198,788.7,184.4,357.8,4.7,0.1,9.49,43.68,1.9655,393.8136],
    [7211,1537385761,53.5474,-110.1198,788.4,184.5,358.3,4.3,0.3,9.94,43.12,1.9656,393.978],
    [7212,1537385762,53.5481,-110.1198,788.4,184.3,357.6,5.1,0.3,9.57,44.05,1.9657,393.8944],
    [7213,1537385763,53.5488,-110.1198,788.2,184.2,357.6,5.2,0.6,9.61,43.7,1.9676,392.6774],
    [7214,1537385764,53.5495,-110.1197,788.2,184.9,357.1,5.7,0.8,10.34,43.39,1.965,392.9509],
    [7215,1537385765,53.5501,-110.1197,788.4,186.4,357.2,5.5,0.7,9.51,43.78,1.9695,392.7881],
    [7216,1537385766,53.5508,-110.1197,788.3,187.3,358.6,3.7,0.6,9.56,43.92,1.9722,394.3577],
    [7217,1537385767,53.5515,-110.1196,787.7,186.7,359.0,3.9,0.8,9.26,43.91,1.9998,392.9739],
    [7218,1537385768,53.5522,-110.1196,788.1,187.1,358.7,4.3,0.8,9.66,44.07,1.9989,393.1942],
    [7219,1537385769,53.5529,-110.1196,789.0,187.0,359.0,4.1,0.5,9.67,44.6,1.9972,394.2207],
    [7220,1537385770,53.5536,-110.1195,790.8,187.8,358.3,4.7,1.0,9.51,44.67,2.0092,394.2856],
    [7221,1537385771,53.5543,-110.1195,791.0,187.0,357.7,5.2,1.6,9.66,44.63,1.9859,394.0749],
    [7222,1537385772,53.5549,-110.1195,790.6,185.5,357.0,5.5,1.2,9.98,44.41,1.9806,392.685],
    [7223,1537385773,53.5556,-110.1194,789.4,180.6,357.3,5.3,1.0,10.33,44.32,1.9717,393.9787],
    [7224,1537385774,53.5563,-110.1194,789.1,176.4,356.7,5.7,1.1,9.82,44.68,1.9717,393.4508],
    [7225,1537385775,53.557,-110.1194,790.2,170.8,357.0,5.3,1.5,9.61,45.1,1.9698,393.4581],
    [7226,1537385776,53.5576,-110.1194,791.4,167.7,357.5,4.9,1.1,9.63,44.72,1.9748,393.9113],
    [7227,1537385777,53.5584,-110.1193,791.7,164.4,358.3,3.9,0.4,9.18,44.91,1.9769,394.1501],
    [7228,1537385778,53.5591,-110.1193,790.9,164.0,360.3,1.8,-1.2,9.7,44.99,1.9751,393.592],
    [7229,1537385779,53.5598,-110.1193,790.2,166.7,359.8,2.9,-1.7,10.38,44.66,1.9692,393.3713],
    [7230,1537385780,53.5605,-110.1192,790.0,170.0,358.9,3.7,-2.5,9.8,45.02,1.9686,393.3713],
    [7231,1537385781,53.5612,-110.1192,790.0,176.7,359.3,2.8,-2.2,9.65,45.31,1.9711,394.1799],
    [7232,1537385782,53.5619,-110.1192,790.4,179.8,360.0,2.0,-1.6,9.66,45.56,1.9757,392.9158],
    [7233,1537385783,53.5625,-110.1192,790.6,184.2,358.5,3.4,-1.2,10.36,44.65,1.9721,393.3314],
    [7234,1537385784,53.5632,-110.1191,789.9,185.2,358.3,3.2,-1.3,9.82,44.96,1.9689,393.2231],
    [7235,1537385785,53.5639,-110.1191,788.9,186.1,357.8,3.6,-1.5,9.52,45.09,1.9645,394.0968],
    [7236,1537385786,53.5645,-110.1191,788.6,186.6,357.4,3.7,-1.7,9.62,45.03,1.9635,393.3245],
    [7237,1537385787,53.5653,-110.1191,788.6,187.6,357.4,3.7,-1.5,9.61,44.59,1.9631,393.0068],
    [7238,1537385788,53.566,-110.1191,788.8,188.2,357.6,3.4,-1.5,9.15,44.14,1.9643,392.0158],
    [7239,1537385789,53.5666,-110.1191,789.0,189.0,357.8,3.3,-1.4,10.2,43.76,1.965,393.2254],
    [7240,1537385790,53.5674,-110.1191,789.2,189.6,357.8,3.3,-1.5,9.59,44.4,1.9658,393.7058],
    [7241,1537385791,53.568,-110.1191,789.2,189.2,357.9,3.3,-1.4,9.91,42.77,1.9666,393.7763],
    [7242,1537385792,53.5687,-110.1191,789.0,186.9,357.9,3.2,-1.3,9.78,43.08,1.9596,394.4845],
    [7243,1537385793,53.5694,-110.1191,789.0,186.1,357.6,3.7,-1.0,9.66,43.47,1.9608,393.3637],
    [7244,1537385794,53.57,-110.1191,789.4,186.2,357.2,4.1,-0.9,10.22,43.06,1.9599,393.1958],
    [7245,1537385795,53.5708,-110.1191,789.5,184.7,357.3,4.0,-0.9,9.8,42.68,1.9597,393.0231],
    [7246,1537385796,53.5714,-110.1191,789.4,184.4,357.2,4.2,-0.9,9.7,43.33,1.9612,392.6113],
    [7247,1537385797,53.5721,-110.1191,789.3,183.3,357.0,4.5,-0.7,9.68,42.96,1.9637,393.6496],
    [7248,1537385798,53.5728,-110.1191,789.4,181.4,357.2,4.5,-0.7,9.7,42.83,1.9645,393.9699],
    [7249,1537385799,53.5735,-110.119,789.5,179.8,357.0,4.8,-0.2,10.36,42.02,1.964,393.9236],
    [7250,1537385800,53.5742,-110.119,789.4,178.4,357.3,4.5,0.1,9.6,42.67,1.9641,393.6954],
    [7251,1537385801,53.5748,-110.119,789.2,178.2,357.2,4.8,0.5,10.1,42.02,1.9644,392.8185],
    [7252,1537385802,53.5755,-110.119,788.7,177.7,357.3,4.7,0.6,9.86,43.11,1.9649,393.9477],
    [7253,1537385803,53.5762,-110.119,788.4,176.4,357.5,4.6,0.8,9.5,42.89,1.967,393.3232],
    [7254,1537385804,53.5769,-110.119,788.3,176.3,357.8,4.4,0.8,9.83,42.84,1.9655,393.2434],
    [7255,1537385805,53.5776,-110.1189,788.2,176.2,357.9,4.3,1.2,9.4,43.04,1.9715,393.6084],
    [7256,1537385806,53.5783,-110.1189,788.6,177.6,358.0,4.2,1.5,9.76,42.76,1.9749,392.3653],
    [7257,1537385807,53.579,-110.1189,788.7,184.7,358.2,4.0,1.5,9.62,43.42,1.9713,395.2054],
    [7258,1537385808,53.5797,-110.1189,788.5,194.5,358.5,3.6,1.6,10.23,42.7,1.967,392.9394],
    [7259,1537385809,53.5803,-110.1188,788.2,209.2,358.6,3.5,1.7,9.6,43.97,1.964,393.9837],
    [7260,1537385810,53.581,-110.1188,788.0,216.3,358.3,3.7,1.5,9.08,43.42,1.9673,393.8116],
    [7261,1537385811,53.5817,-110.1188,787.8,221.4,358.1,3.8,1.3,9.19,43.62,1.969,393.223],
    [7262,1537385812,53.5824,-110.1188,788.0,224.0,357.8,3.9,1.5,9.56,43.62,1.9704,393.223],
    [7263,1537385813,53.5831,-110.1188,788.2,226.3,357.4,4.3,1.9,9.35,44.2,1.9702,393.9897],
    [7264,1537385814,53.5837,-110.1187,788.0,226.0,356.7,4.9,1.9,9.77,44.14,1.9689,394.3306],
    [7265,1537385815,53.5844,-110.1187,787.5,225.6,357.0,4.5,1.8,9.78,45.03,1.971,392.3477],
    [7266,1537385816,53.5851,-110.1187,787.5,221.9,356.7,5.1,2.1,9.39,44.31,1.9762,393.8885],
    [7267,1537385817,53.5858,-110.1187,788.2,217.5,356.8,5.0,2.2,9.78,44.55,1.9781,393.9824],
    [7268,1537385818,53.5865,-110.1187,789.1,210.4,357.6,4.1,2.1,9.86,44.47,1.9732,393.1561],
    [7269,1537385819,53.5872,-110.1187,789.1,208.1,358.0,4.0,2.2,9.47,44.98,1.9735,393.9087],
    [7270,1537385820,53.5878,-110.1187,788.9,208.9,358.1,3.7,2.5,9.39,44.62,1.9744,393.1299],
    [7271,1537385821,53.5885,-110.1186,789.5,208.9,359.4,2.5,2.5,9.55,44.68,1.9787,392.4494],
    [7272,1537385822,53.5892,-110.1186,789.4,204.1,358.1,4.2,2.6,9.6,44.95,1.9891,392.7949],
    [7273,1537385823,53.5899,-110.1186,788.5,198.6,357.9,4.1,2.5,9.3,44.91,2.031,394.3867],
    [7274,1537385824,53.5906,-110.1186,788.0,194.4,358.7,2.9,2.7,9.45,44.89,2.0319,393.4886],
    [7275,1537385825,53.5913,-110.1186,789.0,192.1,359.6,1.6,2.9,9.41,45.53,2.0251,392.6401],
    [7276,1537385826,53.592,-110.1185,790.0,184.9,360.2,1.3,3.0,9.08,45.64,2.0245,393.1279],
    [7277,1537385827,53.5927,-110.1185,790.4,181.0,359.7,2.3,2.3,9.93,45.21,2.0252,393.7983],
    [7278,1537385828,53.5934,-110.1185,789.9,175.0,359.7,2.6,1.5,10.16,45.75,2.0402,393.7983],
    [7279,1537385829,53.5941,-110.1184,789.1,172.7,359.0,3.5,1.6,9.43,46.67,2.0282,393.4531],
    [7280,1537385830,53.5948,-110.1184,788.4,171.5,359.2,2.9,0.7,9.64,45.77,2.0118,395.0721],
    [7281,1537385831,53.5954,-110.1184,789.6,172.5,358.9,2.4,1.1,9.52,46.4,1.9986,391.9901],
    [7282,1537385832,53.5961,-110.1184,792.0,177.0,358.8,1.7,0.7,10.04,46.41,1.9888,392.5311],
    [7283,1537385833,53.5969,-110.1184,793.6,178.6,358.8,1.2,1.0,9.42,47.12,1.9882,393.4951],
    [7284,1537385834,53.5975,-110.1184,793.3,178.3,357.7,2.6,0.9,10.0,47.43,1.9896,393.6529],
    [7285,1537385835,53.5982,-110.1184,792.9,177.9,356.9,3.0,-0.5,9.17,47.33,1.9864,393.6383],
    [7286,1537385836,53.5989,-110.1184,793.8,180.1,358.0,1.2,-0.4,9.76,47.61,1.9853,392.7185],
    [7287,1537385837,53.5996,-110.1184,794.5,183.5,357.7,2.0,-0.3,9.87,47.18,1.9841,391.9799],
    [7288,1537385838,53.6003,-110.1185,793.4,184.5,356.9,3.3,-0.6,9.71,47.09,1.975,392.8448],
    [7289,1537385839,53.601,-110.1185,792.0,182.3,357.6,3.0,-1.1,9.45,47.06,1.9738,392.8448],
    [7290,1537385840,53.6017,-110.1185,791.4,179.7,358.1,2.7,-1.1,9.66,46.6,1.9728,393.6816],
    [7291,1537385841,53.6024,-110.1185,791.8,179.3,359.9,0.6,-1.4,9.07,45.86,1.977,392.7768],
    [7292,1537385842,53.6031,-110.1185,792.3,178.2,359.6,1.4,-0.8,9.64,45.79,1.9751,393.3846],
    [7293,1537385843,53.6038,-110.1184,791.1,177.1,358.1,3.2,-1.7,10.29,45.0,1.9746,392.4619],
    [7294,1537385844,53.6045,-110.1184,790.7,176.7,358.4,2.3,-2.4,9.83,45.03,1.9807,393.6518],
    [7295,1537385845,53.6052,-110.1184,791.8,177.8,357.6,2.7,-0.2,9.34,45.52,1.9795,393.1697],
    [7296,1537385846,53.6059,-110.1185,791.3,176.6,356.5,3.5,-0.4,9.6,45.14,1.9763,391.6274],
    [7297,1537385847,53.6066,-110.1185,789.9,174.7,356.1,3.9,-0.7,9.07,45.09,1.9767,393.3721],
    [7298,1537385848,53.6073,-110.1185,788.1,171.0,356.0,3.9,-1.0,9.7,45.04,1.9764,393.3369],
    [7299,1537385849,53.608,-110.1185,787.6,169.7,356.9,2.6,-1.1,9.76,44.97,1.9766,394.7375],
    [7300,1537385850,53.6087,-110.1186,787.5,167.6,358.1,1.3,-1.8,10.32,44.96,1.9811,392.9916],
    [7301,1537385851,53.6094,-110.1186,788.2,166.5,358.4,1.3,-2.0,9.73,45.43,1.9814,394.0951],
    [7302,1537385852,53.6101,-110.1186,789.7,168.4,358.3,1.7,-1.9,9.58,45.74,1.9729,393.6456],
    [7303,1537385853,53.6108,-110.1186,790.2,170.3,357.7,2.3,-1.6,10.16,45.44,1.9725,393.6404],
    [7304,1537385854,53.6115,-110.1186,790.0,172.0,357.1,3.2,-1.2,9.07,45.52,1.9734,393.656],
    [7305,1537385855,53.6122,-110.1186,789.7,171.7,356.8,3.5,-1.4,9.75,45.59,1.9732,392.5376],
    [7306,1537385856,53.6129,-110.1186,789.3,171.3,356.6,4.0,-1.5,9.04,45.75,1.9734,392.9117],
    [7307,1537385857,53.6136,-110.1186,789.1,171.1,356.0,4.7,-1.4,9.56,45.62,1.968,393.3687],
    [7308,1537385858,53.6142,-110.1187,789.0,169.4,356.5,4.1,-1.5,9.63,45.41,1.9667,393.3036],
    [7309,1537385859,53.6149,-110.1187,789.3,168.0,357.2,3.4,-1.0,9.78,45.33,1.9665,390.7174],
    [7310,1537385860,53.6156,-110.1187,789.5,165.2,357.3,3.5,-0.8,9.72,44.99,1.9651,394.1404],
    [7311,1537385861,53.6163,-110.1187,789.0,164.0,357.4,3.4,-0.8,9.72,44.89,1.9609,393.6097],
    [7312,1537385862,53.617,-110.1187,788.7,166.7,357.3,3.7,-0.2,10.0,44.07,1.9604,393.1742],
    [7313,1537385863,53.6177,-110.1187,788.2,169.6,357.0,3.9,0.1,9.03,44.01,1.9585,393.1368],
    [7314,1537385864,53.6184,-110.1187,788.1,177.4,357.1,4.0,0.5,9.21,43.66,1.9577,391.8987],
    [7315,1537385865,53.619,-110.1187,788.0,183.4,356.5,4.8,0.9,9.5,43.23,1.9593,393.4489],
    [7316,1537385866,53.6197,-110.1187,787.8,182.2,356.6,4.6,1.0,9.54,43.14,1.9602,392.7394],
    [7317,1537385867,53.6204,-110.1187,787.7,176.7,356.7,4.6,0.6,9.72,42.55,1.9667,393.2055],
    [7318,1537385868,53.6211,-110.1186,787.8,173.7,356.8,4.6,1.5,9.78,42.5,1.9696,393.112],
    [7319,1537385869,53.6218,-110.1186,787.7,177.9,357.5,3.9,1.5,9.75,42.81,1.9698,394.1867],
    [7320,1537385870,53.6225,-110.1186,787.6,184.7,357.7,4.2,1.6,10.43,42.79,1.9663,394.2457],
    [7321,1537385871,53.6232,-110.1186,787.6,195.7,357.0,5.1,1.8,9.94,43.32,1.963,393.8509],
    [7322,1537385872,53.6238,-110.1186,787.7,200.0,357.2,5.0,2.1,9.5,43.73,1.9581,393.4392],
    [7323,1537385873,53.6245,-110.1186,787.7,200.0,357.3,4.7,2.5,9.41,43.76,1.9624,393.1652],
    [7324,1537385874,53.6252,-110.1186,787.9,197.9,357.9,4.1,2.2,9.66,44.28,1.9663,393.0871],
    [7325,1537385875,53.6259,-110.1185,788.1,197.5,357.8,4.3,2.5,9.33,43.68,1.9664,393.4396],
    [7326,1537385876,53.6266,-110.1185,788.3,197.6,358.1,4.0,2.7,10.02,43.09,1.9689,392.7178],
    [7327,1537385877,53.6273,-110.1185,788.4,196.5,359.1,3.1,2.3,9.89,43.27,1.97,394.5136],
    [7328,1537385878,53.628,-110.1185,788.8,196.2,358.4,3.8,2.6,9.84,44.09,1.9735,395.0876],
    [7329,1537385879,53.6286,-110.1184,788.6,195.9,358.3,3.8,2.4,9.25,44.41,1.9747,395.4475],
    [7330,1537385880,53.6293,-110.1184,788.8,198.5,357.8,4.1,1.6,9.89,44.77,1.9764,391.8629],
    [7331,1537385881,53.63,-110.1184,789.8,205.2,358.1,3.1,0.6,9.49,45.34,1.9802,393.4318],
    [7332,1537385882,53.6307,-110.1184,791.0,211.5,359.1,1.8,0.1,9.75,45.45,1.9855,393.7478],
    [7333,1537385883,53.6314,-110.1184,791.3,219.4,359.3,1.7,0.0,9.49,46.12,1.9823,392.5855],
    [7334,1537385884,53.6321,-110.1184,791.0,224.0,358.4,2.6,0.0,9.41,46.62,1.9811,392.5855],
    [7335,1537385885,53.6328,-110.1184,790.6,227.6,358.3,2.2,-0.1,9.9,46.37,1.9821,393.2446],
    [7336,1537385886,53.6335,-110.1184,790.3,229.1,356.6,3.6,0.9,9.43,47.67,1.9797,392.0582],
    [7337,1537385887,53.6342,-110.1184,790.1,230.0,356.0,3.6,1.4,9.63,47.17,1.977,393.8799],
    [7338,1537385888,53.6349,-110.1184,789.6,229.6,355.9,3.8,1.2,9.74,47.08,1.9745,394.1974],
    [7339,1537385889,53.6356,-110.1184,788.3,228.4,355.1,4.8,0.3,9.64,46.9,1.974,393.734],
    [7340,1537385890,53.6363,-110.1185,786.9,229.0,355.7,4.3,-0.8,9.04,46.54,1.9749,392.9442],
    [7341,1537385891,53.637,-110.1185,786.8,237.2,356.6,3.4,-1.0,9.59,46.32,1.9801,392.9442],
    [7342,1537385892,53.6377,-110.1185,787.3,246.3,358.6,1.4,-1.0,10.18,46.21,1.9817,392.5647],
    [7343,1537385893,53.6384,-110.1185,787.9,259.1,359.3,1.1,-0.3,9.61,46.7,1.9839,392.5647],
    [7344,1537385894,53.6391,-110.1185,788.2,267.6,359.3,1.8,-0.5,9.25,47.04,1.9875,393.2692],
    [7345,1537385895,53.6397,-110.1185,788.4,277.1,358.6,2.6,-0.3,9.64,47.16,1.9869,394.2294],
    [7346,1537385896,53.6404,-110.1185,788.3,281.3,359.0,1.9,-0.4,9.71,46.8,1.9799,393.0765],
    [7347,1537385897,53.6411,-110.1185,788.0,287.1,358.3,2.6,-0.4,9.63,47.65,1.9747,393.6481],
    [7348,1537385898,53.6418,-110.1185,787.8,288.5,358.2,2.4,-0.3,9.61,47.66,1.9705,393.1895],
    [7349,1537385899,53.6425,-110.1185,787.7,288.7,357.6,3.0,-0.3,9.57,47.4,1.9679,392.8949],
    [7350,1537385900,53.6432,-110.1185,787.7,288.7,357.2,3.1,-0.6,8.92,46.8,1.9619,392.259],
    [7351,1537385901,53.6439,-110.1185,787.5,288.0,357.8,2.3,-0.5,9.36,46.65,1.9603,393.6445],
    [7352,1537385902,53.6446,-110.1185,787.4,286.4,358.0,2.1,-0.3,10.25,45.28,1.9666,393.1727],
    [7353,1537385903,53.6453,-110.1185,788.4,284.4,358.0,2.3,-0.4,8.9,45.28,1.9702,392.6246],
    [7354,1537385904,53.646,-110.1185,789.9,284.1,358.3,2.3,-0.3,9.48,45.58,1.974,393.1846],
    [7355,1537385905,53.6467,-110.1185,790.7,283.4,357.7,3.1,-0.1,9.37,44.94,1.9751,392.5689],
    [7356,1537385906,53.6473,-110.1185,790.8,276.5,357.7,3.0,0.1,9.2,45.47,1.9757,393.1226],
    [7357,1537385907,53.648,-110.1185,790.8,266.5,357.9,2.9,-0.1,10.48,45.09,1.9748,392.1515],
    [7358,1537385908,53.6487,-110.1185,791.1,249.8,358.9,1.9,-0.6,9.7,45.55,1.9732,393.8986],
    [7359,1537385909,53.6494,-110.1185,791.1,241.7,358.4,3.0,0.0,9.69,45.83,1.9732,393.5847],
    [7360,1537385910,53.6501,-110.1185,791.3,232.8,358.4,2.9,-0.7,9.45,45.89,1.9731,393.7437],
    [7361,1537385911,53.6508,-110.1185,790.8,228.4,359.6,1.8,-0.4,9.42,46.49,1.9714,392.8881],
    [7362,1537385912,53.6515,-110.1185,789.4,222.0,359.3,2.1,0.6,10.14,45.96,1.97,392.8881],
    [7363,1537385913,53.6522,-110.1184,787.4,218.5,358.8,2.5,0.0,9.58,46.1,1.9742,392.6492],
    [7364,1537385914,53.6529,-110.1184,786.4,215.4,357.6,3.6,-0.7,9.61,46.87,1.9789,392.6492],
    [7365,1537385915,53.6536,-110.1184,787.9,216.7,357.5,3.6,-1.3,10.0,45.9,1.9991,393.5972],
    [7366,1537385916,53.6542,-110.1184,791.5,219.3,357.8,3.0,-1.6,9.4,46.08,1.9999,395.1607],
    [7367,1537385917,53.6549,-110.1184,793.4,219.9,358.5,2.2,-1.8,9.17,46.28,1.9993,394.4257],
    [7368,1537385918,53.6556,-110.1184,792.5,214.6,357.4,3.4,-1.2,9.8,45.85,1.9993,392.7518],
    [7369,1537385919,53.6563,-110.1184,791.1,209.1,358.5,1.8,-1.9,9.36,47.11,2.008,395.5306],
    [7370,1537385920,53.657,-110.1184,789.9,203.8,358.1,2.4,-1.8,9.28,47.37,2.0093,392.0489],
    [7371,1537385921,53.6576,-110.1184,790.3,203.1,357.8,2.5,-1.8,9.54,47.93,2.0108,394.2955],
    [7372,1537385922,53.6583,-110.1184,791.7,202.5,357.5,2.9,-1.1,9.08,47.18,2.0124,394.8946],
    [7373,1537385923,53.659,-110.1185,792.7,201.5,357.8,2.5,-2.0,9.65,47.99,2.007,395.5382],
    [7374,1537385924,53.6597,-110.1185,792.3,199.4,357.9,2.6,-1.4,9.2,47.81,1.9936,393.6],
    [7375,1537385925,53.6604,-110.1185,791.3,194.2,356.9,3.8,-1.8,9.64,47.74,1.9877,393.0383],
    [7376,1537385926,53.6611,-110.1185,790.4,191.8,357.6,2.6,-2.0,9.33,47.9,1.9942,393.0383],
    [7377,1537385927,53.6618,-110.1185,790.6,189.0,357.4,2.6,-1.3,9.14,47.38,2.0019,393.7918],
    [7378,1537385928,53.6624,-110.1185,790.9,186.9,357.2,2.8,-0.8,9.55,47.67,2.0031,394.3107],
    [7379,1537385929,53.6631,-110.1185,789.9,181.5,357.3,2.7,-0.5,9.62,46.91,1.9985,394.3536],
    [7380,1537385930,53.6638,-110.1185,789.0,177.0,357.3,2.7,-0.5,9.62,47.3,1.9988,393.861],
    [7381,1537385931,53.6645,-110.1185,788.3,173.3,356.9,3.4,-0.8,9.59,47.15,1.9879,394.2445],
    [7382,1537385932,53.6651,-110.1185,788.4,174.1,357.2,3.0,-1.1,9.53,46.77,2.0,394.5638],
    [7383,1537385933,53.6659,-110.1186,788.2,175.8,357.6,2.7,-0.3,9.59,46.86,1.9892,394.6679],
    [7384,1537385934,53.6666,-110.1186,787.4,177.5,357.7,2.6,-0.6,10.33,45.75,1.9768,392.7089],
    [7385,1537385935,53.6672,-110.1186,787.1,179.3,357.8,2.7,-0.3,9.86,45.81,1.9774,393.4911],
    [7386,1537385936,53.6679,-110.1186,787.5,180.4,357.7,2.7,0.0,9.36,45.67,1.9752,393.8531],
    [7387,1537385937,53.6686,-110.1186,787.9,182.5,358.4,1.9,-0.1,10.28,44.55,1.9818,394.0213],
    [7388,1537385938,53.6693,-110.1186,788.0,185.8,358.3,2.3,-0.4,9.49,44.45,1.9845,393.8085],
    [7389,1537385939,53.67,-110.1186,787.9,186.9,358.0,2.6,-0.4,8.96,44.35,1.9882,393.5234],
    [7390,1537385940,53.6707,-110.1186,787.9,186.9,357.5,3.2,-0.3,9.54,44.24,1.9919,393.2384],
    [7391,1537385941,53.6714,-110.1186,788.1,187.1,358.0,2.3,-0.5,9.59,44.63,1.9934,394.2853],
    [7392,1537385942,53.6721,-110.1186,788.0,188.3,358.4,2.0,-0.9,9.36,44.89,1.9895,394.2738],
    [7393,1537385943,53.6727,-110.1186,788.0,189.7,358.0,2.5,-0.6,9.98,44.64,1.9962,393.4199],
    [7394,1537385944,53.6734,-110.1186,789.1,192.1,358.1,2.0,-0.8,9.8,45.06,1.9998,393.4199],
    [7395,1537385945,53.6741,-110.1186,789.7,192.7,358.4,1.6,-0.4,9.97,45.44,1.993,394.8518],
    [7396,1537385946,53.6748,-110.1186,789.5,192.5,357.7,2.5,-0.4,9.61,45.84,1.9979,394.5385],
    [7397,1537385947,53.6755,-110.1186,790.2,193.2,357.5,2.4,-0.5,9.64,45.4,2.0013,394.5799],
    [7398,1537385948,53.6761,-110.1186,790.8,194.8,357.4,2.7,-0.9,9.52,46.41,1.9968,394.5588],
    [7399,1537385949,53.6768,-110.1186,790.6,194.6,357.7,2.4,-1.1,10.03,46.07,1.9959,395.5834],
    [7400,1537385950,53.6775,-110.1187,789.2,193.2,357.1,3.7,-1.3,10.01,45.89,1.9918,393.8345],
    [7401,1537385951,53.6782,-110.1187,788.2,192.2,356.7,4.1,-0.8,9.46,46.62,1.9923,395.1157],
    [7402,1537385952,53.6789,-110.1187,787.6,192.6,357.4,3.5,-0.4,9.43,46.44,1.994,395.1157],
    [7403,1537385953,53.6796,-110.1187,787.7,193.7,357.2,3.7,-0.6,9.59,47.16,1.9977,392.862],
    [7404,1537385954,53.6803,-110.1187,788.1,194.1,357.4,3.8,-0.5,9.39,46.62,1.9952,392.862],
    [7405,1537385955,53.6809,-110.1187,788.3,194.3,357.8,3.2,-0.3,10.28,46.27,1.9906,393.0326],
    [7406,1537385956,53.6816,-110.1187,788.2,194.2,358.0,2.9,0.7,9.51,46.51,1.9935,393.0122],
    [7407,1537385957,53.6823,-110.1186,787.5,193.5,357.6,3.4,1.4,9.41,46.48,1.9927,393.0491],
    [7408,1537385958,53.683,-110.1186,786.5,191.5,358.5,2.5,1.4,9.87,45.91,1.993,393.9136],
    [7409,1537385959,53.6837,-110.1186,785.6,190.6,359.7,1.7,0.9,9.45,45.83,1.9892,394.0479],
    [7410,1537385960,53.6843,-110.1186,785.6,190.6,359.2,2.5,0.8,10.18,45.65,1.9911,394.3396],
    [7411,1537385961,53.6851,-110.1186,786.1,191.1,358.6,3.2,1.0,9.45,46.09,1.9936,394.3962],
    [7412,1537385962,53.6858,-110.1186,786.1,191.1,358.6,3.0,0.8,8.71,46.07,1.9929,393.8626],
    [7413,1537385963,53.6864,-110.1185,786.0,191.0,358.4,3.1,0.6,9.02,45.86,1.992,394.1549],
    [7414,1537385964,53.6871,-110.1185,786.3,191.3,358.2,2.8,0.8,9.49,46.01,1.993,394.4823],
    [7415,1537385965,53.6878,-110.1185,787.4,192.4,358.0,2.9,1.3,9.43,46.15,1.9923,392.7068],
    [7416,1537385966,53.6885,-110.1185,788.0,193.0,358.1,2.7,0.9,9.54,45.51,1.9924,393.1264],
    [7417,1537385967,53.6892,-110.1185,787.9,192.9,358.2,2.5,0.4,9.51,45.44,1.99,394.5114],
    [7418,1537385968,53.6899,-110.1185,787.5,192.5,358.3,2.3,0.2,9.53,45.66,1.9909,394.2382],
    [7419,1537385969,53.6905,-110.1185,788.2,192.2,358.1,2.7,0.9,10.29,45.38,1.9934,393.5998],
    [7420,1537385970,53.6912,-110.1185,788.6,192.6,358.1,2.6,1.9,9.49,45.77,1.9922,394.7882],
    [7421,1537385971,53.6919,-110.1185,787.8,191.8,358.2,2.7,1.8,9.68,45.42,1.9939,393.4981],
    [7422,1537385972,53.6926,-110.1185,787.4,191.4,357.4,3.0,2.1,9.38,45.72,1.9929,393.819],
    [7423,1537385973,53.6932,-110.1185,786.8,191.6,357.7,2.3,2.5,10.08,45.42,1.9902,394.2631],
    [7424,1537385974,53.6939,-110.1185,786.4,191.4,357.2,2.7,2.8,9.28,45.55,1.9938,394.4419],
    [7425,1537385975,53.6946,-110.1186,786.8,191.8,357.1,2.3,2.7,9.58,46.15,1.9933,393.7989],
    [7426,1537385976,53.6953,-110.1186,787.7,192.7,357.6,1.7,3.3,9.39,45.71,1.9995,395.0527],
    [7427,1537385977,53.696,-110.1186,788.5,193.5,356.9,2.4,2.2,9.5,45.49,1.9995,393.8769],
    [7428,1537385978,53.6967,-110.1186,788.7,193.7,357.1,2.2,1.6,9.44,46.42,1.9987,394.6966],
    [7429,1537385979,53.6973,-110.1186,788.6,192.6,357.0,2.2,1.9,9.43,46.77,2.0,393.9729],
    [7430,1537385980,53.698,-110.1187,787.9,191.9,357.6,1.9,1.1,9.36,46.3,2.0026,394.0946],
    [7431,1537385981,53.6987,-110.1187,788.3,192.3,357.0,2.6,0.8,9.63,45.8,2.0046,393.0345],
    [7432,1537385982,53.6994,-110.1187,788.8,191.8,357.4,2.4,1.8,9.41,47.06,2.0027,394.6821],
    [7433,1537385983,53.7001,-110.1187,788.8,191.8,357.4,2.7,1.2,9.24,47.39,2.0025,393.6265],
    [7434,1537385984,53.7008,-110.1187,789.0,192.0,357.6,2.4,1.4,9.18,47.45,2.0021,392.234],
    [7435,1537385985,53.7015,-110.1187,790.1,193.1,358.3,1.7,1.8,9.41,48.21,1.9994,393.5456],
    [7436,1537385986,53.7022,-110.1188,790.9,193.9,357.7,2.4,1.9,9.43,47.96,2.0004,393.5113],
    [7437,1537385987,53.7029,-110.1188,791.2,194.2,357.3,2.7,1.4,8.78,47.95,2.0018,393.5113],
    [7438,1537385988,53.7036,-110.1188,790.1,192.4,356.7,3.2,0.8,9.32,48.38,2.0011,392.2566],
    [7439,1537385989,53.7043,-110.1188,788.5,188.9,355.8,4.0,0.0,8.61,48.36,2.0034,392.8306],
    [7440,1537385990,53.7049,-110.1188,787.5,186.2,355.3,4.2,0.8,9.35,48.77,2.0009,393.8096],
    [7441,1537385991,53.7057,-110.1189,787.0,184.1,355.2,4.2,1.1,9.98,48.3,2.0006,394.5022],
    [7442,1537385992,53.7064,-110.1189,787.1,183.1,355.7,3.8,1.2,10.11,48.24,1.9992,394.5985],
    [7443,1537385993,53.7071,-110.1189,786.9,182.2,355.5,4.4,1.4,9.19,48.16,1.9977,392.0822],
    [7444,1537385994,53.7078,-110.1189,786.3,181.3,355.8,4.3,1.2,9.59,47.27,1.9952,392.9992],
    [7445,1537385995,53.7085,-110.119,785.9,182.3,356.0,4.5,1.1,9.17,47.4,1.9999,392.9951],
    [7446,1537385996,53.7091,-110.119,786.2,184.6,356.1,4.7,0.8,9.07,47.05,2.0012,392.6102],
    [7447,1537385997,53.7099,-110.119,786.8,186.9,357.7,3.0,0.4,9.44,46.75,1.9999,393.7635],
    [7448,1537385998,53.7106,-110.119,786.9,186.8,358.1,3.1,0.8,9.48,46.68,2.0014,393.4859],
    [7449,1537385999,53.7113,-110.119,788.5,188.5,356.8,4.5,1.4,9.66,46.23,2.001,392.8542],
    [7450,1537386000,53.7119,-110.119,789.2,188.5,357.9,3.2,0.5,9.26,47.33,2.0002,394.6672],
    [7451,1537386001,53.7126,-110.119,789.9,186.8,356.9,3.8,1.9,9.43,47.39,2.0015,393.5389],
    [7452,1537386002,53.7133,-110.119,790.8,182.9,356.4,3.9,2.4,9.67,46.76,2.0029,393.6826],
    [7453,1537386003,53.714,-110.119,791.8,173.0,356.3,3.8,3.1,9.4,47.64,2.0025,393.2309],
    [7454,1537386004,53.7147,-110.119,791.2,165.2,356.3,4.1,2.4,9.26,47.45,2.0023,392.3301],
    [7455,1537386005,53.7154,-110.119,789.2,154.9,356.6,4.2,1.7,9.77,47.2,2.0018,394.3577],
    [7456,1537386006,53.7161,-110.119,787.8,148.3,356.5,4.7,1.3,9.1,48.04,2.0021,392.6983],
    [7457,1537386007,53.7168,-110.119,787.2,141.5,357.0,4.2,1.8,9.76,47.41,2.0029,393.9805],
    [7458,1537386008,53.7175,-110.119,787.2,137.8,357.2,4.4,2.2,9.14,47.07,2.0034,393.1319],
    [7459,1537386009,53.7182,-110.119,788.0,132.6,356.9,4.7,2.3,9.79,46.87,2.0073,393.7452],
    [7460,1537386010,53.7189,-110.119,787.7,128.7,357.7,3.8,1.9,9.69,47.57,2.0067,393.1716],
    [7461,1537386011,53.7196,-110.119,786.8,122.8,357.5,3.9,1.6,9.32,47.47,2.0059,393.1942],
    [7462,1537386012,53.7203,-110.1189,786.5,118.5,357.1,4.4,1.5,9.37,47.53,2.0083,392.6031],
    [7463,1537386013,53.721,-110.1189,786.6,118.7,357.2,4.1,1.3,9.54,46.9,2.006,392.6733],
    [7464,1537386014,53.7217,-110.1189,787.0,121.9,357.7,3.5,1.4,9.53,47.67,2.0072,392.4424],
    [7465,1537386015,53.7223,-110.1189,787.5,125.2,356.8,4.3,2.0,8.74,46.95,2.009,392.5997],
    [7466,1537386016,53.7231,-110.1189,787.4,129.8,357.3,3.6,1.3,9.25,46.92,2.0165,394.3616],
    [7467,1537386017,53.7238,-110.1189,788.5,134.4,357.2,3.6,0.9,9.58,46.77,2.0212,393.5801],
    [7468,1537386018,53.7245,-110.1189,789.0,140.0,357.4,3.2,0.0,9.55,47.12,2.0215,392.5179],
    [7469,1537386019,53.7252,-110.1189,788.9,141.7,357.6,2.6,-0.1,9.75,47.32,2.0175,393.7868],
    [7470,1537386020,53.7259,-110.119,788.6,143.4,358.6,1.5,-0.4,9.57,47.16,2.0233,393.6796],
    [7471,1537386021,53.7265,-110.119,788.2,145.6,357.5,2.7,-0.4,9.08,47.73,2.0225,393.8661],
    [7472,1537386022,53.7273,-110.119,788.5,149.8,358.1,1.8,-1.3,9.52,47.03,2.0232,394.5974],
    [7473,1537386023,53.728,-110.119,790.3,155.3,357.6,2.0,-0.4,9.23,47.22,2.0251,392.6071],
    [7474,1537386024,53.7287,-110.119,791.2,159.5,357.7,1.4,0.0,9.4,47.23,2.0288,392.6071],
    [7475,1537386025,53.7293,-110.119,790.9,160.6,356.7,2.5,-0.6,9.44,47.46,2.0327,392.7873],
    [7476,1537386026,53.73,-110.1191,790.3,164.3,356.1,3.0,-0.3,9.36,47.6,2.0357,393.4414],
    [7477,1537386027,53.7307,-110.1191,790.2,167.0,356.6,2.5,0.3,10.31,46.81,2.0362,392.5184],
    [7478,1537386028,53.7314,-110.1191,790.6,170.0,356.9,2.6,0.6,9.1,47.32,2.0319,392.8602],
    [7479,1537386029,53.7321,-110.1191,790.7,172.0,358.8,0.6,0.6,9.91,46.56,2.0326,393.8096],
    [7480,1537386030,53.7328,-110.1192,789.3,175.6,358.8,1.6,0.2,9.19,47.24,2.0318,392.4333],
    [7481,1537386031,53.7335,-110.1192,787.4,177.1,357.4,3.5,0.5,9.26,47.38,2.0364,392.3614],
    [7482,1537386032,53.7342,-110.1192,786.4,180.4,357.2,3.5,0.6,9.69,47.24,2.0376,394.4468],
    [7483,1537386033,53.7349,-110.1192,786.0,182.2,356.9,3.8,1.3,9.78,47.36,2.0383,393.5823],
    [7484,1537386034,53.7356,-110.1192,785.6,183.7,356.9,3.8,1.0,9.83,46.83,2.0371,390.4333],
    [7485,1537386035,53.7363,-110.1192,785.2,184.2,357.9,2.9,0.9,9.4,47.84,2.0381,393.279],
    [7486,1537386036,53.7369,-110.1192,785.3,184.3,358.2,2.9,1.0,9.34,47.52,2.0366,393.6049],
    [7487,1537386037,53.7377,-110.1192,786.0,185.3,358.8,2.2,1.1,9.75,47.35,2.0397,393.1166],
    [7488,1537386038,53.7383,-110.1191,786.6,186.6,358.9,2.3,1.3,9.4,47.36,2.0412,392.049],
    [7489,1537386039,53.739,-110.1191,786.8,187.0,358.4,2.8,0.8,9.3,47.58,2.0392,392.0723],
    [7490,1537386040,53.7397,-110.1191,787.1,189.2,358.5,2.6,1.1,9.88,47.13,2.0437,392.0723],
    [7491,1537386041,53.7404,-110.1191,787.4,191.7,358.2,2.8,0.9,9.13,47.94,2.035,393.4151],
    [7492,1537386042,53.741,-110.1191,787.6,194.4,358.4,2.5,0.8,10.12,46.99,2.0369,393.5708],
    [7493,1537386043,53.7418,-110.1191,787.9,200.0,358.1,2.6,1.4,9.55,47.48,2.0355,393.5708],
    [7494,1537386044,53.7425,-110.1191,787.8,201.6,358.3,2.4,1.2,9.86,47.38,2.0325,393.3548],
    [7495,1537386045,53.7432,-110.1191,787.7,202.6,358.2,2.4,0.8,9.28,47.72,2.0313,393.5861],
    [7496,1537386046,53.7439,-110.1191,787.4,202.8,358.3,2.3,0.8,9.33,47.57,2.0371,393.2069],
    [7497,1537386047,53.7446,-110.1191,787.4,204.7,358.0,2.6,1.1,9.13,47.49,2.0352,393.3167],
    [7498,1537386048,53.7452,-110.1191,787.8,206.0,357.5,3.1,1.3,9.32,48.01,2.034,393.4607],
    [7499,1537386049,53.7459,-110.1191,788.1,207.5,357.4,3.2,1.4,9.44,47.3,2.0341,392.4988],
    [7500,1537386050,53.7466,-110.1191,788.4,209.0,356.8,4.2,1.2,10.03,47.02,2.0355,394.293],
    [7501,1537386051,53.7473,-110.1191,788.0,212.2,356.2,4.8,2.1,9.19,47.48,2.036,394.4733],
    [7502,1537386052,53.748,-110.1191,787.1,211.2,357.0,4.0,2.5,9.68,46.86,2.0363,393.6154],
    [7503,1537386053,53.7487,-110.1191,786.2,209.7,356.8,4.5,3.1,9.19,47.56,2.0364,392.9393],
    [7504,1537386054,53.7493,-110.1191,785.7,209.3,356.6,4.9,2.2,10.1,47.22,2.04,393.4248],
    [7505,1537386055,53.7501,-110.1191,786.2,210.1,356.9,4.7,2.3,9.26,47.71,2.0421,394.1871],
    [7506,1537386056,53.7508,-110.1191,786.4,210.6,357.1,4.7,1.9,9.31,47.8,2.041,392.4742],
    [7507,1537386057,53.7514,-110.1191,786.6,210.7,357.3,4.6,1.8,8.83,47.73,2.044,393.3742],
    [7508,1537386058,53.7522,-110.119,787.2,211.3,357.8,4.4,1.6,9.64,47.81,2.0456,396.3401],
    [7509,1537386059,53.7528,-110.119,788.0,211.9,356.7,5.5,0.8,9.25,47.95,2.0449,394.7547],
    [7510,1537386060,53.7535,-110.119,787.9,211.7,357.9,4.2,0.6,9.28,48.08,2.045,391.8223],
    [7511,1537386061,53.7542,-110.119,787.2,210.2,357.3,4.8,1.2,10.02,47.7,2.0438,391.9718],
    [7512,1537386062,53.7549,-110.119,787.2,209.2,358.3,3.8,1.5,9.41,48.07,2.0399,392.5713],
    [7513,1537386063,53.7556,-110.1189,788.5,209.6,360.3,1.6,1.4,9.37,49.07,2.041,392.1498],
    [7514,1537386064,53.7563,-110.1189,789.9,209.9,360.6,1.7,1.4,9.34,48.95,2.0429,392.6929],
    [7515,1537386065,53.757,-110.1189,791.8,211.8,359.5,3.0,0.9,8.72,48.56,2.0472,391.8902],
    [7516,1537386066,53.7577,-110.1188,792.9,212.2,359.0,3.2,0.6,9.3,48.82,2.0447,391.7362],
    [7517,1537386067,53.7584,-110.1188,793.3,212.4,359.9,1.6,0.8,9.73,48.63,2.0368,392.1418],
    [7518,1537386068,53.7591,-110.1188,792.8,210.8,360.8,0.7,-1.5,9.32,48.9,2.0292,392.4909],
    [7519,1537386069,53.7598,-110.1188,793.3,211.3,360.1,1.5,-0.8,9.41,48.98,2.0264,391.5726],
    [7520,1537386070,53.7605,-110.1187,793.7,211.7,359.8,1.2,-0.6,9.42,48.25,2.0262,391.2425],
    [7521,1537386071,53.7612,-110.1187,792.4,209.4,360.2,0.5,-1.1,9.14,48.3,2.0293,392.7558],
    [7522,1537386072,53.7619,-110.1187,791.0,208.0,358.5,2.0,-1.6,9.34,47.39,2.0244,392.0148],
    [7523,1537386073,53.7626,-110.1187,790.2,207.2,357.5,2.8,-1.7,9.54,47.1,2.0212,392.4869],
    [7524,1537386074,53.7633,-110.1187,789.5,207.5,357.0,2.9,-1.3,9.26,46.4,2.0088,392.7959],
    [7525,1537386075,53.764,-110.1188,788.7,206.7,356.8,2.9,-1.3,8.94,45.66,1.9843,391.5066],
    [7526,1537386076,53.7647,-110.1188,787.6,205.6,355.8,4.1,-1.0,9.45,45.11,1.9696,390.9655],
    [7527,1537386077,53.7654,-110.1188,787.0,205.0,355.5,4.3,-0.5,9.0,43.93,1.9671,392.3067],
    [7528,1537386078,53.7661,-110.1188,787.1,206.1,355.7,4.3,-0.5,9.83,42.32,1.9713,392.0509],
    [7529,1537386079,53.7668,-110.1189,787.2,205.2,355.9,4.1,-0.5,9.37,40.7,1.9856,392.6914],
    [7530,1537386080,53.7675,-110.1189,787.2,205.2,357.1,3.3,0.1,9.47,40.25,1.9933,392.8603],
    [7531,1537386081,53.7682,-110.1189,787.1,204.6,356.6,3.9,1.0,9.58,38.74,2.0137,391.9915],
    [7532,1537386082,53.7689,-110.1189,787.3,205.3,356.7,3.6,2.5,8.85,39.08,2.0017,394.3639],
    [7533,1537386083,53.7696,-110.1189,786.8,204.8,356.0,4.1,2.3,9.54,39.91,1.9966,392.501],
    [7534,1537386084,53.7703,-110.1189,786.1,204.4,355.9,4.2,1.7,9.62,39.67,2.0043,392.2849],
    [7535,1537386085,53.771,-110.119,785.8,203.8,356.2,4.1,1.9,9.82,39.74,2.0095,392.765],
    [7536,1537386086,53.7717,-110.119,785.4,203.4,356.1,4.5,1.9,9.36,40.52,2.0144,395.0839],
    [7537,1537386087,53.7724,-110.119,785.6,203.6,356.8,4.0,1.9,9.35,40.56,2.0077,391.5207],
    [7538,1537386088,53.7731,-110.119,786.1,203.1,356.4,4.6,2.6,9.45,40.82,2.0115,393.0808],
    [7539,1537386089,53.7738,-110.119,787.1,204.2,356.8,4.0,3.0,8.92,41.41,2.0172,393.7324],
    [7540,1537386090,53.7745,-110.119,788.3,202.4,357.2,3.8,2.7,9.51,41.26,2.0162,393.0824],
    [7541,1537386091,53.7752,-110.119,789.2,199.2,357.1,4.1,2.8,9.1,41.57,2.0112,391.3764],
    [7542,1537386092,53.7759,-110.119,789.8,191.8,357.1,4.0,2.8,9.25,41.84,2.0055,394.1923],
    [7543,1537386093,53.7766,-110.119,790.5,185.6,357.4,3.7,2.7,9.47,41.85,2.0011,393.3952],
    [7544,1537386094,53.7773,-110.119,791.4,178.1,357.9,3.2,2.6,10.05,41.66,2.001,393.5344],
    [7545,1537386095,53.778,-110.119,792.4,173.1,357.6,3.5,3.1,9.58,41.75,1.9992,392.524],
    [7546,1537386096,53.7787,-110.119,793.7,168.1,358.0,3.1,3.1,9.51,41.86,1.9966,393.4906],
    [7547,1537386097,53.7794,-110.1189,794.7,165.9,358.0,3.1,3.4,9.35,41.8,1.9998,392.7861],
    [7548,1537386098,53.7801,-110.1189,795.7,164.9,357.6,3.5,3.3,10.03,41.05,2.0009,393.1148],
    [7549,1537386099,53.7808,-110.1189,796.4,163.0,358.0,3.2,3.4,9.26,41.46,2.0028,392.691],
    [7550,1537386100,53.7815,-110.1189,796.8,157.3,357.9,3.3,3.2,9.51,41.88,2.0041,392.9181],
    [7551,1537386101,53.7822,-110.1189,797.0,152.9,357.8,3.4,3.6,10.18,40.96,2.0044,393.2441],
    [7552,1537386102,53.7829,-110.1189,797.7,147.7,357.5,3.6,4.0,9.75,41.45,2.0036,393.8075],
    [7553,1537386103,53.7836,-110.1189,798.7,146.0,357.1,4.0,3.9,9.92,41.45,2.0046,393.1585],
    [7554,1537386104,53.7843,-110.1189,799.7,143.0,357.5,3.5,3.4,9.51,41.21,2.0093,392.6864],
    [7555,1537386105,53.785,-110.1189,800.5,142.2,357.3,3.9,3.1,9.53,42.63,2.0165,394.1189],
    [7556,1537386106,53.7857,-110.1189,801.3,140.2,357.4,3.9,3.7,9.48,42.13,2.0248,394.0943],
    [7557,1537386107,53.7863,-110.1189,801.4,139.4,357.9,3.4,3.7,9.21,42.33,2.0273,394.2929],
    [7558,1537386108,53.787,-110.1189,800.4,135.4,357.8,3.6,3.8,9.37,42.99,2.0283,393.6472],
    [7559,1537386109,53.7877,-110.1189,799.0,133.0,357.1,4.5,3.8,9.36,43.32,2.028,393.6041],
    [7560,1537386110,53.7884,-110.1188,798.2,130.6,356.4,5.2,3.9,9.14,43.7,2.0236,393.6041],
    [7561,1537386111,53.7891,-110.1188,797.3,129.0,356.9,5.0,4.8,9.53,44.1,2.0171,394.2315],
    [7562,1537386112,53.7899,-110.1188,796.3,126.3,356.7,5.5,4.8,9.53,44.2,2.0201,393.7353],
    [7563,1537386113,53.7906,-110.1188,796.1,125.2,357.7,4.7,4.1,10.19,43.88,2.0275,393.75],
    [7564,1537386114,53.7913,-110.1188,797.0,125.0,359.8,2.3,4.5,9.34,44.19,2.0266,393.75],
    [7565,1537386115,53.792,-110.1187,797.4,125.4,359.7,3.2,4.8,9.55,44.23,2.0287,393.6227],
    [7566,1537386116,53.7927,-110.1187,798.6,126.6,359.7,3.0,5.0,9.29,44.97,2.0297,393.7084],
    [7567,1537386117,53.7934,-110.1186,799.3,126.2,360.4,2.2,5.7,9.33,45.39,2.0307,392.7571],
    [7568,1537386118,53.7941,-110.1186,799.3,126.3,359.7,2.8,5.6,9.33,45.28,2.0318,392.7571],
    [7569,1537386119,53.7948,-110.1186,800.2,127.1,359.6,2.4,4.1,9.67,45.51,2.0298,392.7622],
    [7570,1537386120,53.7955,-110.1185,800.8,126.7,359.3,2.7,4.1,9.57,46.43,2.03,392.2391],
    [7571,1537386121,53.7962,-110.1185,800.7,126.7,359.0,3.0,3.7,9.58,45.59,2.0315,392.8255],
    [7572,1537386122,53.7969,-110.1185,801.1,126.9,360.2,1.8,2.7,9.22,45.98,2.0294,392.5435],
    [7573,1537386123,53.7976,-110.1185,801.7,126.6,359.0,3.3,3.6,9.01,45.89,2.0299,392.2856],
    [7574,1537386124,53.7983,-110.1184,802.0,127.0,357.4,4.8,3.5,9.46,46.78,2.0308,393.1631],
    [7575,1537386125,53.7991,-110.1184,802.4,127.0,357.5,4.6,3.2,9.2,46.02,2.0247,392.7787],
    [7576,1537386126,53.7998,-110.1184,802.9,127.6,357.1,5.1,3.8,9.7,45.78,2.0216,392.9019],
    [7577,1537386127,53.8005,-110.1184,803.6,128.6,358.7,3.5,2.1,9.48,45.81,2.017,392.7071],
    [7578,1537386128,53.8012,-110.1183,803.0,127.0,359.8,2.6,2.0,9.25,45.55,2.0149,393.6103],
    [7579,1537386129,53.8019,-110.1183,802.5,125.5,359.3,3.8,3.8,9.66,45.36,2.0156,393.6103],
    [7580,1537386130,53.8027,-110.1183,803.2,124.8,359.3,3.3,2.7,9.61,45.62,2.0137,392.9991],
    [7581,1537386131,53.8034,-110.1182,803.4,123.4,357.9,5.3,4.6,9.61,44.57,2.015,394.1455],
    [7582,1537386132,53.8041,-110.1182,803.7,122.6,356.7,5.8,3.5,10.0,43.93,2.0197,393.3092],
    [7583,1537386133,53.8048,-110.1182,804.4,122.3,358.5,3.9,3.3,9.75,43.96,2.0209,393.5123],
    [7584,1537386134,53.8055,-110.1181,805.6,122.6,357.4,5.7,2.5,9.56,44.46,2.0224,392.2085],
    [7585,1537386135,53.8062,-110.1181,807.2,123.2,359.4,3.2,2.8,9.52,44.95,2.0236,393.3861],
    [7586,1537386136,53.8069,-110.1181,807.8,123.9,359.1,3.6,2.3,9.32,44.31,2.0212,392.9644],
    [7587,1537386137,53.8076,-110.118,810.0,126.0,358.2,3.7,2.4,9.53,45.11,2.0195,392.5124],
    [7588,1537386138,53.8084,-110.118,813.0,129.7,358.6,2.9,3.2,9.44,45.49,2.0193,393.6314],
    [7589,1537386139,53.8091,-110.118,815.2,132.1,357.8,3.6,4.1,9.72,45.1,2.0218,393.7284],
    [7590,1537386140,53.8098,-110.118,816.6,134.9,358.0,2.7,3.6,9.14,45.11,2.0222,393.7284],
    [7591,1537386141,53.8105,-110.118,819.2,138.2,358.6,1.5,3.5,9.45,45.28,2.018,392.7926],
    [7592,1537386142,53.8112,-110.118,821.3,142.3,356.0,5.2,-0.7,9.07,45.39,1.9925,393.6306],
    [7593,1537386143,53.8119,-110.118,822.0,143.0,355.6,4.8,-1.7,9.72,45.35,1.9921,393.402],
    [7594,1537386144,53.8126,-110.118,820.7,143.4,358.1,1.9,-0.5,9.79,44.92,1.9966,392.7339],
    [7595,1537386145,53.8133,-110.1181,818.0,141.3,356.7,3.8,0.5,9.51,43.86,1.9889,393.5687],
    [7596,1537386146,53.814,-110.1181,815.0,139.3,358.7,2.4,0.1,9.12,43.55,1.984,393.6225],
    [7597,1537386147,53.8147,-110.118,813.6,138.6,358.6,5.0,0.1,9.75,42.72,1.983,393.0105],
    [7598,1537386148,53.8154,-110.118,814.3,139.3,361.0,4.0,0.4,9.84,42.44,1.9798,392.3285],
    [7599,1537386149,53.8161,-110.1179,815.3,140.3,3.0,3.3,0.7,9.63,41.79,1.9727,394.0531],
    [7600,1537386150,53.8168,-110.1177,815.9,140.9,3.6,3.5,0.2,9.57,42.14,1.9733,391.4022],
    [7601,1537386151,53.8175,-110.1176,816.5,141.5,4.0,3.9,0.1,10.29,40.88,1.9746,393.4576],
    [7602,1537386152,53.8182,-110.1175,817.0,143.3,2.8,5.1,0.2,9.61,40.59,1.978,392.0253],
    [7603,1537386153,53.8189,-110.1173,817.4,145.4,2.9,4.2,1.4,9.76,39.61,1.9783,391.1309],
    [7604,1537386154,53.8196,-110.1172,816.8,146.9,361.6,4.6,1.0,9.54,40.49,1.9829,393.0591],
    [7605,1537386155,53.8203,-110.1171,817.2,149.2,360.4,4.6,1.4,9.87,39.59,1.9848,391.9319],
    [7606,1537386156,53.821,-110.1171,817.8,151.5,359.2,4.6,1.2,10.57,39.34,1.9895,391.9319],
    [7607,1537386157,53.8217,-110.117,817.8,151.1,358.3,4.3,2.1,9.47,39.77,1.9909,392.7889],
    [7608,1537386158,53.8224,-110.117,817.4,150.4,358.2,3.6,2.4,8.96,40.37,1.9909,393.8932],
    [7609,1537386159,53.8231,-110.117,816.5,149.8,357.2,4.5,2.4,10.15,40.1,1.9669,393.7811],
    [7610,1537386160,53.8238,-110.117,815.6,149.6,356.9,4.3,2.0,9.41,40.9,1.9644,393.5576],
    [7611,1537386161,53.8245,-110.117,815.8,150.8,356.4,4.7,2.5,9.12,40.41,1.9614,392.6856],
    [7612,1537386162,53.8252,-110.117,816.6,150.6,356.0,5.1,3.0,9.69,40.54,1.9685,391.5575],
    [7613,1537386163,53.8259,-110.117,816.7,150.7,356.3,5.0,3.1,9.51,39.44,1.9632,393.0727],
    [7614,1537386164,53.8266,-110.117,816.1,151.4,356.1,5.4,2.9,9.33,39.06,1.962,393.2737],
    [7615,1537386165,53.8273,-110.117,815.9,154.3,356.4,5.1,3.2,9.6,39.01,1.9633,393.6143],
    [7616,1537386166,53.828,-110.117,815.7,156.7,356.9,4.8,3.2,9.85,38.17,1.9672,393.9371],
    [7617,1537386167,53.8287,-110.117,815.7,159.7,356.9,4.9,2.9,9.54,38.28,1.9744,393.9371],
    [7618,1537386168,53.8294,-110.1169,816.0,161.7,357.5,4.5,2.2,9.58,39.32,1.978,394.2552],
    [7619,1537386169,53.8301,-110.1169,816.7,165.5,357.4,4.7,3.1,9.7,38.14,1.9708,393.5488],
    [7620,1537386170,53.8308,-110.1169,816.4,168.1,356.5,5.7,3.3,9.43,38.77,1.9704,393.5737],
    [7621,1537386171,53.8315,-110.1169,815.6,170.9,356.1,6.0,3.1,9.39,39.09,1.9731,393.4753],
    [7622,1537386172,53.8321,-110.1169,815.4,172.5,356.3,5.8,2.6,9.7,39.0,1.9779,392.9805],
    [7623,1537386173,53.8329,-110.1169,816.9,174.9,355.9,6.0,3.3,9.63,39.84,1.9795,393.511],
    [7624,1537386174,53.8336,-110.1168,819.1,177.0,356.8,5.1,3.2,9.54,39.64,1.9807,392.5993],
    [7625,1537386175,53.8343,-110.1168,820.3,178.1,357.5,4.4,1.3,9.29,39.82,1.9826,393.761],
    [7626,1537386176,53.835,-110.1168,820.1,176.1,356.3,5.9,1.7,10.13,39.81,1.983,393.9728],
    [7627,1537386177,53.8357,-110.1168,820.0,175.7,357.3,4.3,0.9,9.27,40.63,1.9834,393.467],
    [7628,1537386178,53.8364,-110.1168,821.0,177.8,359.1,2.5,0.0,9.19,40.68,1.9821,393.6938],
    [7629,1537386179,53.8371,-110.1168,821.9,179.9,357.8,4.0,1.8,9.59,41.11,1.9828,392.1473],
    [7630,1537386180,53.8379,-110.1168,822.0,182.0,359.6,1.3,1.4,9.98,41.11,1.9862,392.4534],
    [7631,1537386181,53.8385,-110.1167,821.3,182.3,360.1,0.8,0.4,10.0,41.48,1.9869,392.3372],
    [7632,1537386182,53.8393,-110.1167,820.2,181.1,358.1,2.7,0.2,9.14,41.92,1.9841,392.9998],
    [7633,1537386183,53.84,-110.1167,819.0,180.8,357.0,3.1,-1.1,9.35,41.89,1.9839,392.9998],
    [7634,1537386184,53.8407,-110.1168,818.5,180.5,356.2,2.9,-0.9,9.6,41.86,1.9853,392.5509],
    [7635,1537386185,53.8414,-110.1168,818.2,181.2,355.5,3.3,-0.8,9.61,42.84,1.9866,393.8114],
    [7636,1537386186,53.8421,-110.1169,817.6,180.6,354.9,3.7,-0.9,9.24,42.09,1.9864,394.7787],
    [7637,1537386187,53.8428,-110.1169,817.9,180.9,355.2,3.5,-0.2,10.37,41.77,1.9872,393.8927],
    [7638,1537386188,53.8435,-110.117,817.2,180.2,355.4,3.9,0.0,10.27,41.94,1.9871,393.7332],
    [7639,1537386189,53.8442,-110.117,815.9,178.9,356.4,3.3,0.3,9.5,42.09,1.9871,394.0406],
    [7640,1537386190,53.845,-110.117,814.9,177.9,357.4,2.8,0.3,9.67,42.21,1.9848,394.0406],
    [7641,1537386191,53.8457,-110.117,814.6,177.6,357.4,3.2,0.3,9.61,42.81,1.9879,394.1179],
    [7642,1537386192,53.8464,-110.117,815.4,178.4,356.8,4.0,0.4,9.54,42.63,1.9856,392.0897],
    [7643,1537386193,53.8471,-110.117,816.0,179.0,356.7,3.7,0.5,9.35,42.66,1.9795,393.1437],
    [7644,1537386194,53.8478,-110.117,817.1,180.1,357.6,2.8,1.6,9.94,42.33,1.9755,392.8882],
    [7645,1537386195,53.8485,-110.117,817.8,180.8,356.6,4.2,1.8,9.53,42.68,1.9798,393.2172],
    [7646,1537386196,53.8492,-110.1171,817.2,180.2,356.5,4.5,0.3,9.4,42.65,1.9754,392.3321],
    [7647,1537386197,53.8499,-110.1171,817.2,180.2,356.8,4.1,0.1,9.66,42.24,1.9693,392.3321],
    [7648,1537386198,53.8506,-110.1171,817.4,179.0,357.0,3.9,0.4,9.61,42.02,1.967,392.0526],
    [7649,1537386199,53.8513,-110.1171,817.1,178.1,356.9,3.9,0.9,9.47,41.69,1.9675,392.4737],
    [7650,1537386200,53.852,-110.1171,816.8,175.8,356.6,4.4,0.6,9.59,41.45,1.9716,394.0762],
    [7651,1537386201,53.8527,-110.1171,816.8,174.8,355.8,5.1,1.0,9.87,40.46,1.9745,393.6258],
    [7652,1537386202,53.8534,-110.1171,816.8,173.8,356.4,4.5,0.2,9.57,40.5,1.9707,390.4235],
    [7653,1537386203,53.8542,-110.1171,816.3,172.2,356.6,4.5,0.2,9.94,39.78,1.9579,393.2764],
    [7654,1537386204,53.8549,-110.1171,816.1,169.8,356.6,4.5,-0.1,10.09,39.3,1.9562,393.162],
    [7655,1537386205,53.8556,-110.1171,816.3,167.3,356.7,4.4,0.5,10.21,39.0,1.9582,392.8485],
    [7656,1537386206,53.8563,-110.1171,816.8,165.8,356.8,4.0,0.5,10.05,38.33,1.9637,393.819],
    [7657,1537386207,53.8569,-110.1171,817.6,166.6,356.8,4.1,0.8,8.79,38.12,1.9593,393.2421],
    [7658,1537386208,53.8576,-110.1171,817.0,167.1,355.7,5.5,0.7,9.33,37.74,1.9554,393.1839],
    [7659,1537386209,53.8583,-110.1171,816.2,166.1,355.5,5.6,0.6,9.69,37.75,1.953,393.8268],
    [7660,1537386210,53.859,-110.1171,815.9,167.2,355.7,5.6,0.8,9.65,38.13,1.9579,394.4768],
    [7661,1537386211,53.8597,-110.1171,816.3,171.6,355.2,6.6,0.5,9.51,37.63,1.9595,394.4768],
    [7662,1537386212,53.8604,-110.1171,816.5,173.5,356.0,6.1,0.7,9.56,37.71,1.9605,392.1249],
    [7663,1537386213,53.8611,-110.1171,816.5,175.2,356.1,6.3,1.3,9.71,36.78,1.9584,392.8991],
    [7664,1537386214,53.8618,-110.1171,816.1,174.1,357.2,5.3,2.0,9.59,37.42,1.9582,392.484],
    [7665,1537386215,53.8625,-110.117,816.2,173.2,357.6,5.2,2.3,9.98,36.31,1.9584,393.8451],
    [7666,1537386216,53.8632,-110.117,816.0,174.4,358.0,4.7,2.3,9.75,36.86,1.9632,394.2802],
    [7667,1537386217,53.8639,-110.117,815.4,173.4,358.4,4.4,3.4,9.78,36.74,1.9667,394.3228],
    [7668,1537386218,53.8646,-110.1169,816.0,174.0,358.2,4.6,3.8,9.29,37.06,1.9663,394.2329],
    [7669,1537386219,53.8653,-110.1169,816.1,173.8,358.2,4.5,3.5,9.94,37.07,1.9671,393.1505],
    [7670,1537386220,53.866,-110.1169,815.7,172.7,358.2,4.3,2.2,9.28,37.52,1.9667,393.1483],
    [7671,1537386221,53.8667,-110.1168,816.1,173.1,357.3,4.8,2.6,9.07,37.71,1.9659,394.0684],
    [7672,1537386222,53.8674,-110.1168,816.4,173.4,358.4,3.4,2.9,9.68,38.3,1.9639,393.4865],
    [7673,1537386223,53.8681,-110.1168,816.5,173.0,357.5,4.8,3.5,9.34,37.88,1.9642,392.4127],
    [7674,1537386224,53.8688,-110.1168,817.0,172.3,357.6,4.4,4.0,9.5,38.24,1.9648,391.1976],
    [7675,1537386225,53.8695,-110.1168,817.6,171.6,358.3,3.7,3.7,9.96,37.44,1.9658,392.3492],
    [7676,1537386226,53.8702,-110.1167,817.5,171.4,357.9,4.1,3.2,9.55,38.59,1.9679,392.7781],
    [7677,1537386227,53.8709,-110.1167,816.9,169.9,357.7,4.5,1.3,9.65,38.13,1.9679,394.6138],
    [7678,1537386228,53.8716,-110.1167,817.2,170.0,357.8,4.0,2.6,8.78,38.17,1.9681,393.6086],
    [7679,1537386229,53.8723,-110.1167,818.2,168.2,356.6,5.1,3.5,9.38,38.4,1.9716,393.666],
    [7680,1537386230,53.873,-110.1167,818.8,167.8,356.3,5.1,3.4,9.82,38.24,1.9717,393.1178],
    [7681,1537386231,53.8737,-110.1167,817.1,165.8,356.4,5.1,3.1,9.2,38.62,1.9729,392.9769],
    [7682,1537386232,53.8744,-110.1167,815.3,163.3,356.9,4.6,0.5,9.35,39.54,1.9733,392.6617],
    [7683,1537386233,53.8751,-110.1167,815.3,161.8,356.8,4.6,1.2,10.02,38.44,1.9732,392.1042],
    [7684,1537386234,53.8758,-110.1167,815.3,161.3,356.1,5.4,1.4,9.76,39.16,1.9733,392.3523],
    [7685,1537386235,53.8765,-110.1167,814.7,161.9,355.9,5.7,1.4,9.56,38.82,1.9753,393.5668],
    [7686,1537386236,53.8772,-110.1167,814.6,161.5,356.0,5.4,1.6,9.92,39.04,1.9759,394.066],
    [7687,1537386237,53.8778,-110.1166,815.0,161.3,357.0,4.5,2.6,9.23,39.58,1.9753,394.1111],
    [7688,1537386238,53.8786,-110.1166,815.3,161.3,356.5,5.2,2.1,9.42,39.7,1.9757,392.0109],
    [7689,1537386239,53.8793,-110.1166,815.4,162.4,357.3,4.3,2.5,9.58,39.82,1.9763,392.0109],
    [7690,1537386240,53.88,-110.1166,815.4,162.3,357.2,4.8,2.6,9.59,39.64,1.976,391.9823],
    [7691,1537386241,53.8807,-110.1166,816.0,164.1,357.2,5.1,1.6,9.65,40.07,1.9763,392.4243],
    [7692,1537386242,53.8814,-110.1166,816.9,164.9,357.3,5.2,1.7,9.8,40.27,1.9761,391.8935],
    [7693,1537386243,53.8821,-110.1165,818.3,166.3,359.4,2.9,0.9,10.0,40.48,1.9791,391.8935],
    [7694,1537386244,53.8828,-110.1165,818.7,166.7,360.8,1.5,0.1,9.38,40.54,1.9903,392.5987],
    [7695,1537386245,53.8835,-110.1165,818.7,167.8,361.4,1.1,0.0,9.2,41.56,1.9846,394.4513],
    [7696,1537386246,53.8842,-110.1164,818.7,167.7,361.0,1.7,-0.9,9.16,41.28,1.9836,393.1731],
    [7697,1537386247,53.8849,-110.1164,819.8,168.8,360.8,1.9,-1.6,8.98,41.47,1.9835,393.4289],
    [7698,1537386248,53.8857,-110.1163,820.0,170.1,360.5,1.8,-1.0,9.28,41.58,1.9852,393.0009],
    [7699,1537386249,53.8864,-110.1163,819.7,169.7,360.2,1.7,-1.4,9.55,41.83,1.9838,394.6533],
    [7700,1537386250,53.8871,-110.1163,818.6,169.6,360.3,1.3,-0.7,9.29,41.97,1.9835,393.9137],
    [7701,1537386251,53.8878,-110.1162,817.8,168.9,359.2,2.3,0.0,9.32,41.66,1.9833,393.1741],
    [7702,1537386252,53.8885,-110.1162,817.3,167.4,358.8,2.0,-0.2,9.71,41.28,1.9844,393.5822],
    [7703,1537386253,53.8892,-110.1162,817.7,166.0,358.3,2.0,0.1,9.48,41.84,1.983,392.9602],
    [7704,1537386254,53.8899,-110.1162,818.2,165.1,357.6,2.7,0.3,9.05,41.78,1.9908,393.2266],
    [7705,1537386255,53.8906,-110.1163,817.1,162.1,358.1,2.0,0.2,9.55,41.95,1.9833,393.2266],
    [7706,1537386256,53.8913,-110.1163,815.2,159.2,358.7,1.8,0.5,9.75,42.21,1.9803,393.4171],
    [7707,1537386257,53.892,-110.1163,814.2,157.2,358.3,2.3,0.5,10.1,41.05,1.9811,392.5525],
    [7708,1537386258,53.8927,-110.1163,813.9,156.2,357.7,3.1,1.4,9.53,41.33,1.9809,392.5525],
    [7709,1537386259,53.8934,-110.1163,813.7,155.0,356.5,4.1,1.7,9.22,41.48,1.9815,392.7163],
    [7710,1537386260,53.8941,-110.1163,813.8,154.8,357.1,3.5,1.7,9.52,41.36,1.9819,392.7163],
    [7711,1537386261,53.8947,-110.1163,813.9,154.9,356.4,4.5,1.7,9.67,41.43,1.9849,392.3137],
    [7712,1537386262,53.8955,-110.1163,813.9,153.9,356.8,4.0,1.6,9.05,41.99,1.9838,393.0696],
    [7713,1537386263,53.8962,-110.1163,813.8,151.8,357.8,3.1,1.3,9.51,41.88,1.9866,392.9196],
    [7714,1537386264,53.8969,-110.1163,814.2,152.2,358.1,2.8,1.5,10.34,41.54,1.9868,392.3655],
    [7715,1537386265,53.8976,-110.1163,815.3,152.3,358.7,2.5,1.6,9.44,42.02,1.9873,392.7032],
    [7716,1537386266,53.8983,-110.1163,815.8,152.8,357.6,4.0,1.4,9.74,41.69,1.9876,392.6043],
    [7717,1537386267,53.899,-110.1162,816.0,150.6,358.1,3.2,1.3,9.17,42.17,1.9861,392.6839],
    [7718,1537386268,53.8997,-110.1162,816.0,148.0,358.1,3.0,1.8,9.52,42.41,1.9928,394.3041],
    [7719,1537386269,53.9004,-110.1162,816.2,145.2,358.3,2.6,1.7,9.48,42.24,1.9978,394.3041],
    [7720,1537386270,53.901,-110.1162,816.5,143.8,358.2,2.7,1.2,9.96,42.07,2.0613,392.2841],
    [7721,1537386271,53.9018,-110.1162,818.4,146.1,358.1,3.1,-0.2,10.33,41.94,2.0774,393.8089],
    [7722,1537386272,53.9025,-110.1162,820.0,148.0,357.8,3.6,1.1,9.35,42.21,2.0736,393.8089],
    [7723,1537386273,53.9032,-110.1162,820.6,149.6,358.4,3.1,0.6,9.47,42.53,2.0237,393.0676],
    [7724,1537386274,53.9039,-110.1162,820.1,148.1,358.1,4.4,0.8,9.49,42.51,2.0305,393.0676],
    [7725,1537386275,53.9046,-110.1161,819.1,145.1,356.4,6.8,-0.1,9.41,42.2,2.0032,392.0597],
    [7726,1537386276,53.9053,-110.1161,818.1,142.5,356.3,6.8,-0.1,9.55,42.69,1.974,392.0597],
    [7727,1537386277,53.906,-110.1161,817.9,140.4,356.8,6.3,0.2,9.09,41.82,1.9672,391.5113],
    [7728,1537386278,53.9067,-110.1161,818.3,141.9,356.9,6.1,0.7,9.46,41.88,1.9682,393.7369],
    [7729,1537386279,53.9074,-110.116,818.2,144.6,357.3,5.8,1.4,9.05,40.92,1.9777,393.5567],
    [7730,1537386280,53.9081,-110.116,817.3,146.7,357.1,6.3,1.1,9.35,40.59,1.979,392.9794],
    [7731,1537386281,53.9088,-110.116,816.6,147.6,357.4,6.0,-0.2,9.47,41.48,1.9918,392.9449],
    [7732,1537386282,53.9095,-110.1159,817.1,150.1,358.7,4.5,-0.1,9.5,40.81,1.9837,393.4195],
    [7733,1537386283,53.9102,-110.1159,817.6,152.3,359.3,3.7,-0.7,9.23,40.53,1.9824,392.8936],
    [7734,1537386284,53.9109,-110.1158,817.2,153.8,359.6,3.4,0.7,9.01,40.41,1.9779,393.6762],
    [7735,1537386285,53.9116,-110.1158,817.0,155.2,359.1,3.8,1.6,9.81,40.58,1.9802,393.575],
    [7736,1537386286,53.9123,-110.1158,816.8,158.0,358.1,4.7,1.6,10.29,40.18,1.9827,393.575],
    [7737,1537386287,53.913,-110.1157,816.5,158.5,357.4,5.1,2.1,9.63,41.2,1.9834,393.7833],
    [7738,1537386288,53.9137,-110.1157,816.2,159.5,356.9,5.7,1.6,9.94,40.53,1.9778,393.7833],
    [7739,1537386289,53.9144,-110.1157,816.1,160.3,356.7,5.9,2.1,9.76,40.82,1.9688,392.6554],
    [7740,1537386290,53.9151,-110.1156,815.8,161.1,357.2,5.6,2.5,9.11,40.67,1.9646,393.8178],
    [7741,1537386291,53.9158,-110.1156,815.3,161.6,357.4,5.7,2.0,9.21,40.98,1.966,393.0987],
    [7742,1537386292,53.9165,-110.1156,815.0,164.7,357.7,5.3,2.0,10.01,40.89,1.9721,394.1521],
    [7743,1537386293,53.9172,-110.1155,816.5,169.8,359.3,3.6,-0.6,9.32,40.84,1.9753,393.7711],
    [7744,1537386294,53.9179,-110.1155,818.7,175.7,359.0,3.9,-1.0,10.11,40.64,1.9754,394.4147],
    [7745,1537386295,53.9187,-110.1155,819.9,183.9,359.0,3.7,0.7,9.6,40.84,1.9763,392.8321],
    [7746,1537386296,53.9194,-110.1154,819.5,186.8,357.4,4.9,2.2,10.06,40.55,1.9718,393.1178],
    [7747,1537386297,53.92,-110.1154,818.5,190.8,356.2,5.5,2.4,9.5,41.26,1.972,394.0522],
    [7748,1537386298,53.9208,-110.1154,818.6,193.6,356.2,4.8,1.6,10.28,41.0,1.9761,394.3246],
    [7749,1537386299,53.9215,-110.1154,819.1,196.1,358.0,2.7,0.8,8.97,41.34,1.976,393.4103],
    [7750,1537386300,53.9222,-110.1154,819.4,196.4,357.3,4.1,1.5,9.22,41.52,1.9757,393.2738],
    [7751,1537386301,53.9229,-110.1154,819.0,196.0,355.3,6.4,1.4,9.45,41.48,1.9767,393.2738],
    [7752,1537386302,53.9236,-110.1154,817.7,194.7,355.4,6.0,1.5,9.55,41.85,1.9751,393.1341],
    [7753,1537386303,53.9243,-110.1154,816.2,193.2,356.0,5.1,1.3,9.77,41.24,1.9755,393.3595],
    [7754,1537386304,53.925,-110.1154,814.7,191.7,356.9,4.0,1.1,9.64,41.81,1.9709,392.9162],
    [7755,1537386305,53.9257,-110.1154,814.4,191.5,357.1,4.1,0.7,9.08,42.29,1.9734,393.5606],
    [7756,1537386306,53.9264,-110.1154,814.2,184.5,357.2,4.2,0.8,9.22,41.92,1.9634,394.7174],
    [7757,1537386307,53.9271,-110.1154,814.1,181.1,357.6,3.7,1.5,9.05,41.94,1.9664,393.7073],
    [7758,1537386308,53.9278,-110.1154,814.6,175.6,358.1,3.5,1.3,9.69,41.19,1.9691,393.4807],
    [7759,1537386309,53.9285,-110.1154,814.7,173.1,357.7,4.0,1.9,9.19,41.55,1.9679,393.3935],
    [7760,1537386310,53.9292,-110.1154,814.4,169.5,357.9,3.9,1.2,9.44,41.52,1.9671,394.3697],
    [7761,1537386311,53.9299,-110.1154,814.7,168.7,357.8,3.8,1.6,9.43,41.15,1.9679,394.411],
    [7762,1537386312,53.9306,-110.1154,815.0,169.0,357.6,3.8,1.7,9.3,41.0,1.9666,394.3287],
    [7763,1537386313,53.9313,-110.1153,814.7,169.7,357.7,3.6,1.9,9.98,40.42,1.9706,393.5933],
    [7764,1537386314,53.932,-110.1153,815.1,171.1,358.5,2.6,1.6,9.66,40.52,1.9737,393.0415],
    [7765,1537386315,53.9327,-110.1153,817.8,172.8,358.4,2.9,1.1,9.54,41.39,1.9729,395.1912],
    [7766,1537386316,53.9334,-110.1153,819.7,173.7,357.0,4.6,2.4,9.22,40.92,1.9732,394.1839],
    [7767,1537386317,53.9341,-110.1153,819.8,174.0,356.8,4.7,1.7,9.75,41.43,1.9735,392.8562],
    [7768,1537386318,53.9348,-110.1153,818.6,175.9,357.5,3.7,2.6,9.23,41.71,1.9744,393.6501],
    [7769,1537386319,53.9355,-110.1153,817.2,175.2,357.1,4.1,2.4,9.55,41.62,1.9725,394.0849],
    [7770,1537386320,53.9361,-110.1153,816.5,174.6,357.4,3.5,2.3,9.4,41.84,1.9714,393.528],
    [7771,1537386321,53.9369,-110.1153,816.5,170.8,357.6,3.3,3.1,9.62,41.72,1.9713,394.2512],
    [7772,1537386322,53.9376,-110.1153,816.4,168.7,357.6,3.3,3.2,8.84,41.89,1.9701,394.4128],
    [7773,1537386323,53.9383,-110.1153,816.4,169.5,357.8,2.9,2.7,9.24,41.79,1.9704,392.4481],
    [7774,1537386324,53.939,-110.1153,816.6,170.6,358.1,2.7,3.0,9.28,42.0,1.9732,394.559],
    [7775,1537386325,53.9396,-110.1153,816.5,171.5,357.6,3.6,2.3,9.5,42.0,1.9721,394.7717],
    [7776,1537386326,53.9404,-110.1153,816.5,170.5,356.9,4.5,1.4,10.04,41.88,1.9721,395.8216],
    [7777,1537386327,53.941,-110.1153,816.0,168.3,356.2,5.3,2.9,9.77,42.11,1.9731,394.3775],
    [7778,1537386328,53.9418,-110.1153,815.5,164.1,357.3,4.0,1.8,9.64,42.52,1.974,393.8466],
    [7779,1537386329,53.9424,-110.1153,817.1,163.1,357.6,2.3,1.6,9.7,42.37,1.9753,394.3278],
    [7780,1537386330,53.9431,-110.1153,818.9,160.5,358.5,1.6,1.8,9.07,43.0,1.9744,394.6395],
    [7781,1537386331,53.9438,-110.1153,819.3,158.3,354.1,6.5,1.9,9.49,42.98,1.9742,394.3758],
    [7782,1537386332,53.9445,-110.1153,818.3,156.3,356.3,3.5,2.0,9.44,43.52,1.9755,394.4796],
    [7783,1537386333,53.9452,-110.1153,816.9,154.9,354.8,5.9,3.3,9.54,43.14,1.9778,394.6013],
    [7784,1537386334,53.9459,-110.1153,815.9,153.9,354.2,6.2,2.9,10.2,42.99,1.9792,392.5562],
    [7785,1537386335,53.9466,-110.1154,815.0,154.0,355.9,4.8,2.9,8.81,43.17,1.9788,393.7134],
    [7786,1537386336,53.9473,-110.1154,815.0,153.7,356.7,4.4,3.3,9.39,44.23,1.976,393.918],
    [7787,1537386337,53.9481,-110.1154,815.0,153.0,359.0,2.0,1.7,9.21,43.53,1.9741,395.1259],
    [7788,1537386338,53.9487,-110.1153,814.4,151.4,359.9,1.8,2.1,9.44,44.0,1.9753,394.7822],
    [7789,1537386339,53.9495,-110.1153,814.3,150.3,358.3,3.2,2.3,9.46,43.8,1.9763,393.6169],
    [7790,1537386340,53.9502,-110.1153,814.8,149.8,358.2,2.8,3.2,9.35,43.47,1.9776,394.6884],
    [7791,1537386341,53.9509,-110.1153,814.4,147.7,356.6,3.8,3.9,9.6,43.34,1.9781,393.4481],
    [7792,1537386342,53.9516,-110.1153,814.4,146.3,357.5,2.3,4.9,9.37,43.83,1.9791,394.6716],
    [7793,1537386343,53.9523,-110.1153,814.5,144.1,357.9,1.8,4.7,10.02,42.96,1.9786,394.4238],
    [7794,1537386344,53.953,-110.1154,814.4,142.4,357.8,2.1,3.9,9.11,44.0,1.9784,393.7328],
    [7795,1537386345,53.9537,-110.1154,814.5,141.5,358.0,1.9,2.7,9.96,43.16,1.9772,393.0912],
    [7796,1537386346,53.9544,-110.1154,814.7,141.7,358.1,1.7,1.8,9.24,43.79,1.9815,394.258],
    [7797,1537386347,53.9551,-110.1154,815.9,142.9,358.2,1.4,1.3,9.52,43.25,1.9824,393.9867],
    [7798,1537386348,53.9558,-110.1154,816.5,143.5,356.5,3.3,1.7,9.39,44.63,1.9821,394.2865],
    [7799,1537386349,53.9565,-110.1154,816.1,143.1,357.3,2.1,0.0,9.12,43.88,1.9823,393.5668],
    [7800,1537386350,53.9572,-110.1155,815.6,142.6,357.5,2.7,1.4,9.34,43.95,1.9804,394.1698],
    [7801,1537386351,53.958,-110.1155,816.6,142.6,356.8,3.7,1.3,9.56,43.56,1.9784,394.3689],
    [7802,1537386352,53.9587,-110.1155,818.5,144.5,358.7,1.8,1.8,9.58,44.01,1.9757,393.275],
    [7803,1537386353,53.9594,-110.1155,818.7,144.7,358.0,3.3,2.6,9.64,44.51,1.9771,394.2719],
    [7804,1537386354,53.9601,-110.1155,817.6,144.6,358.7,2.8,1.8,9.52,43.97,1.9772,394.0431],
    [7805,1537386355,53.9607,-110.1154,818.0,146.0,358.7,2.7,0.3,9.71,43.37,1.9806,395.1627],
    [7806,1537386356,53.9615,-110.1154,818.0,148.3,358.7,2.9,0.7,9.37,44.18,1.9785,393.7338],
    [7807,1537386357,53.9622,-110.1154,817.7,150.7,358.0,3.3,1.0,9.96,43.37,1.9805,393.8764],
    [7808,1537386358,53.9629,-110.1154,817.1,155.1,358.9,2.4,1.6,9.69,43.74,1.977,393.5715],
    [7809,1537386359,53.9636,-110.1154,816.2,155.9,357.4,4.1,2.1,9.52,44.33,1.9728,393.289],
    [7810,1537386360,53.9643,-110.1154,815.5,155.5,357.7,3.4,2.0,9.53,44.58,1.9732,394.6343],
    [7811,1537386361,53.965,-110.1154,815.3,154.6,357.7,3.3,1.8,9.5,43.84,1.9745,394.4053],
    [7812,1537386362,53.9657,-110.1154,815.9,154.6,357.4,3.3,1.9,9.46,43.43,1.9741,394.527],
    [7813,1537386363,53.9664,-110.1154,816.9,153.8,357.6,2.9,3.4,8.95,43.74,1.9739,394.3578],
    [7814,1537386364,53.9671,-110.1154,817.3,154.3,357.7,2.8,2.8,9.61,43.82,1.9739,395.0959],
    [7815,1537386365,53.9678,-110.1154,817.0,154.0,359.0,2.0,2.8,9.37,43.9,1.9723,392.1607],
    [7816,1537386366,53.9685,-110.1154,817.0,155.0,359.4,1.9,2.2,8.98,43.89,1.9747,394.6317],
    [7817,1537386367,53.9692,-110.1153,816.7,154.6,360.5,0.8,2.7,9.81,43.35,1.9773,395.0049],
    [7818,1537386368,53.9699,-110.1153,816.0,155.0,358.9,2.7,1.6,9.43,43.93,1.984,395.1485],
    [7819,1537386369,53.9705,-110.1153,815.2,154.2,358.1,2.5,2.3,9.51,44.29,1.9884,394.3438],
    [7820,1537386370,53.9713,-110.1153,814.0,153.0,357.1,2.3,1.7,9.14,44.56,1.9828,394.7696],
    [7821,1537386371,53.972,-110.1154,813.8,152.8,356.6,1.5,0.9,9.64,44.26,1.9823,394.8858],
    [7822,1537386372,53.9727,-110.1154,815.5,153.5,356.1,1.8,0.7,9.52,44.49,1.9787,392.8945],
    [7823,1537386373,53.9735,-110.1155,817.3,154.4,355.7,2.1,1.1,10.14,44.16,1.9787,394.7037],
    [7824,1537386374,53.9742,-110.1155,817.1,152.1,355.1,3.1,1.5,9.17,44.26,1.9764,394.1361],
    [7825,1537386375,53.9749,-110.1156,815.9,148.7,354.0,4.4,1.6,10.15,44.26,1.9775,394.4501],
    [7826,1537386376,53.9756,-110.1156,814.5,146.4,355.4,3.8,1.8,9.57,44.76,1.9773,393.6965],
    [7827,1537386377,53.9763,-110.1157,814.9,146.6,354.8,5.3,2.2,10.28,44.07,1.977,395.6947],
    [7828,1537386378,53.977,-110.1157,814.8,145.5,356.3,4.6,0.7,9.78,44.83,1.9761,394.4858],
    [7829,1537386379,53.9777,-110.1157,815.2,145.9,356.5,5.4,0.5,9.59,44.73,1.9753,394.9227],
    [7830,1537386380,53.9784,-110.1157,816.5,148.0,356.8,5.6,1.6,9.11,44.57,1.975,394.1421],
    [7831,1537386381,53.9791,-110.1156,818.1,150.3,358.1,4.1,2.4,8.99,44.68,1.9754,394.3993],
    [7832,1537386382,53.9798,-110.1156,817.8,152.1,357.6,5.3,2.7,9.52,44.79,1.9734,394.7936],
    [7833,1537386383,53.9805,-110.1156,816.5,152.4,355.8,7.2,2.5,8.86,44.61,1.9714,394.4834],
    [7834,1537386384,53.9812,-110.1156,815.8,153.5,357.8,4.5,3.5,9.54,44.89,1.9719,394.5437],
    [7835,1537386385,53.982,-110.1155,815.1,153.1,356.2,7.0,4.1,9.43,44.29,1.9729,393.4686],
    [7836,1537386386,53.9827,-110.1155,813.5,150.5,355.2,7.7,3.2,9.37,44.5,1.9722,394.1978],
    [7837,1537386387,53.9834,-110.1155,811.6,149.6,356.6,6.4,3.4,9.64,44.07,1.9697,393.6366],
    [7838,1537386388,53.9841,-110.1155,810.0,148.0,356.3,6.9,3.9,9.33,44.27,1.9689,394.466],
    [7839,1537386389,53.9848,-110.1154,809.4,148.4,357.4,5.7,4.1,9.38,44.15,1.9691,394.6804],
    [7840,1537386390,53.9856,-110.1154,809.3,149.3,357.7,5.4,4.2,9.77,43.57,1.9718,393.4322],
    [7841,1537386391,53.9863,-110.1154,809.5,150.5,358.4,4.6,3.9,9.53,43.79,1.9718,395.0508],
    [7842,1537386392,53.987,-110.1153,810.0,154.0,357.5,5.6,4.2,9.59,44.02,1.972,393.1845],
    [7843,1537386393,53.9877,-110.1153,811.2,156.1,357.0,5.5,4.1,9.54,44.08,1.9724,393.655],
    [7844,1537386394,53.9884,-110.1153,812.1,158.1,358.2,3.8,5.8,10.04,43.44,1.9722,394.6181],
    [7845,1537386395,53.9891,-110.1152,812.8,158.8,358.1,3.3,3.8,8.94,43.95,1.9732,394.5699],
    [7846,1537386396,53.9898,-110.1152,813.1,159.1,358.6,3.0,4.3,9.25,44.11,1.9739,393.7959],
    [7847,1537386397,53.9905,-110.1152,813.7,158.7,358.3,3.3,4.8,9.3,44.24,1.9742,393.3557],
    [7848,1537386398,53.9912,-110.1152,814.0,159.0,359.6,1.9,5.3,9.31,44.15,1.9749,393.0939],
    [7849,1537386399,53.992,-110.1152,813.3,158.3,359.5,2.3,4.2,8.84,44.22,1.9752,394.6041],
    [7850,1537386400,53.9927,-110.1151,813.9,158.9,360.2,1.5,2.9,9.46,44.62,1.9765,394.9424],
    [7851,1537386401,53.9934,-110.1151,814.7,159.7,361.2,0.4,2.4,9.03,44.45,1.9775,394.9424],
    [7852,1537386402,53.9941,-110.1151,813.8,157.7,359.7,2.3,2.7,9.58,44.84,1.9796,394.9354],
    [7853,1537386403,53.9948,-110.1151,813.2,157.4,358.0,3.2,3.0,9.43,44.74,1.9798,394.9354],
    [7854,1537386404,53.9955,-110.1151,813.6,157.8,357.6,3.0,2.7,9.25,44.67,1.9798,394.519],
    [7855,1537386405,53.9962,-110.1151,815.6,160.4,357.1,2.9,1.5,9.01,45.1,1.9811,393.2612],
    [7856,1537386406,53.9969,-110.1151,818.1,162.8,357.9,2.1,1.6,9.64,45.72,1.9781,394.3039],
    [7857,1537386407,53.9977,-110.1151,819.3,164.2,357.0,3.6,1.5,9.37,45.19,1.9765,393.9083],
    [7858,1537386408,53.9984,-110.1151,818.4,163.4,357.3,3.3,1.0,9.45,45.12,1.9756,394.6666],
    [7859,1537386409,53.999,-110.1151,817.1,162.1,358.6,2.0,0.7,9.91,44.8,1.9746,393.3363],
    [7860,1537386410,53.9998,-110.1151,816.3,161.5,357.6,3.6,0.6,9.52,45.34,1.9714,393.195],
    [7861,1537386411,54.0005,-110.1151,815.9,161.1,357.0,4.5,1.4,9.1,44.57,1.9727,393.367],
    [7862,1537386412,54.0012,-110.1151,815.2,160.1,357.4,4.3,1.4,10.05,44.31,1.9687,392.6014],
    [7863,1537386413,54.0019,-110.1151,814.7,159.7,356.9,5.2,2.0,9.73,43.66,1.9705,395.2482],
    [7864,1537386414,54.0026,-110.1151,814.4,159.4,357.3,4.8,0.6,9.69,43.57,1.9714,394.0543],
    [7865,1537386415,54.0033,-110.115,813.4,158.3,357.8,4.4,1.0,9.39,43.64,1.9715,394.49],
    [7866,1537386416,54.0041,-110.115,812.7,157.6,357.4,4.6,2.5,9.55,44.12,1.973,392.3548],
    [7867,1537386417,54.0048,-110.115,813.2,157.2,357.5,4.2,4.1,9.59,43.03,1.9729,393.4935],
    [7868,1537386418,54.0055,-110.115,814.0,158.0,357.5,4.2,4.4,9.96,42.57,1.9733,394.0086],
    [7869,1537386419,54.0062,-110.115,814.4,158.4,357.3,4.4,3.8,9.01,43.32,1.973,394.6798],
    [7870,1537386420,54.0069,-110.115,814.4,159.4,357.1,4.5,3.0,9.43,43.52,1.9748,391.8295],
    [7871,1537386421,54.0076,-110.115,813.9,158.9,357.8,3.5,1.8,9.57,43.95,1.9771,395.4349],
    [7872,1537386422,54.0083,-110.115,814.4,159.4,358.3,2.5,2.4,9.99,43.19,1.9756,394.4932],
    [7873,1537386423,54.009,-110.115,815.1,160.1,357.8,2.4,3.3,9.4,44.13,1.9758,394.2766],
    [7874,1537386424,54.0097,-110.115,815.1,160.1,356.7,3.7,2.0,9.31,44.44,1.9782,394.5508],
    [7875,1537386425,54.0104,-110.115,813.8,158.8,354.3,5.8,2.5,8.81,44.4,1.9763,393.5259],
    [7876,1537386426,54.0111,-110.115,813.1,156.6,355.5,3.3,1.2,9.54,44.75,1.9784,392.5989],
    [7877,1537386427,54.0118,-110.1151,814.0,156.1,355.9,2.8,2.5,10.24,44.28,1.9781,394.6664],
    [7878,1537386428,54.0126,-110.1151,815.3,155.6,354.5,4.2,2.7,9.6,44.87,1.9782,394.7065],
    [7879,1537386429,54.0133,-110.1152,814.8,154.9,354.8,3.8,4.8,9.13,45.09,1.9772,394.7065],
    [7880,1537386430,54.014,-110.1152,813.0,153.0,354.8,4.1,4.6,10.24,44.6,1.9798,394.4837],
    [7881,1537386431,54.0147,-110.1152,811.2,150.2,355.8,4.2,4.1,9.26,45.6,1.9782,394.1121],
    [7882,1537386432,54.0154,-110.1152,809.7,147.7,357.6,3.5,3.4,9.66,46.05,1.9779,394.0576],
    [7883,1537386433,54.0161,-110.1152,807.7,144.6,360.0,3.0,3.6,10.23,44.79,1.9781,394.0435],
    [7884,1537386434,54.0169,-110.1151,806.5,144.4,3.6,2.5,2.8,10.09,44.62,1.9785,395.4745],
    [7885,1537386435,54.0176,-110.115,806.9,146.6,6.9,2.7,3.3,10.28,44.74,1.9803,394.5349],
    [7886,1537386436,54.0183,-110.1148,807.4,147.7,10.3,2.2,4.1,9.55,44.86,1.9817,394.7001],
    [7887,1537386437,54.019,-110.1145,807.5,148.8,13.0,3.4,3.6,9.66,45.12,1.9798,393.1972],
    [7888,1537386438,54.0197,-110.1142,809.6,151.6,16.7,3.0,3.3,9.46,45.76,1.9822,393.1972],
    [7889,1537386439,54.0204,-110.1137,812.6,154.6,20.6,1.8,3.4,9.55,45.47,1.9833,393.3125],
    [7890,1537386440,54.021,-110.1133,815.1,157.8,21.8,3.3,2.8,10.46,45.04,1.9831,394.2018],
    [7891,1537386441,54.0217,-110.1128,815.5,157.6,25.0,1.5,2.5,9.47,46.54,1.9835,393.861],
    [7892,1537386442,54.0224,-110.1122,815.3,154.9,27.2,3.3,3.5,9.42,45.92,1.9824,395.369],
    [7893,1537386443,54.023,-110.1116,816.1,154.1,29.3,2.6,1.3,9.07,46.0,1.9842,395.5646],
    [7894,1537386444,54.0236,-110.111,816.4,153.7,33.8,0.9,2.5,9.46,45.84,1.9847,395.0132],
    [7895,1537386445,54.0242,-110.1102,816.4,151.7,35.8,2.6,2.4,9.59,45.65,1.984,393.5675],
    [7896,1537386446,54.0248,-110.1095,815.4,149.0,38.6,2.6,3.0,9.4,45.7,1.9861,395.2652],
    [7897,1537386447,54.0253,-110.1087,814.7,146.7,41.5,1.6,1.6,9.7,45.9,1.9854,394.1575],
    [7898,1537386448,54.0259,-110.1078,815.1,145.4,43.9,2.8,2.1,9.67,46.2,1.9834,396.373],
    [7899,1537386449,54.0264,-110.1069,813.7,142.7,47.3,2.2,3.0,10.57,45.41,1.9835,394.5423],
    [7900,1537386450,54.0269,-110.106,811.5,139.5,50.3,2.9,3.4,9.12,45.85,1.9851,393.9247],
    [7901,1537386451,54.0273,-110.105,810.5,139.9,54.7,1.4,2.9,10.22,45.53,1.9862,395.6725],
    [7902,1537386452,54.0277,-110.104,810.7,143.5,58.5,2.1,4.1,9.63,45.68,1.9876,394.5708],
    [7903,1537386453,54.0281,-110.103,810.5,143.4,62.0,2.6,5.0,9.89,45.86,1.9879,394.5652],
    [7904,1537386454,54.0285,-110.1019,810.2,143.2,65.5,2.3,5.3,9.21,45.88,1.9877,394.2312],
    [7905,1537386455,54.0288,-110.1007,811.1,143.2,68.5,2.4,5.2,9.41,46.15,1.9887,394.8987],
    [7906,1537386456,54.0291,-110.0996,811.8,142.8,70.6,1.8,4.7,9.63,46.22,1.988,393.8271],
    [7907,1537386457,54.0293,-110.0985,811.7,140.7,72.9,1.8,4.5,9.39,46.06,1.9896,395.1093],
    [7908,1537386458,54.0296,-110.0973,812.4,140.5,75.5,2.7,4.3,9.4,46.2,1.9902,394.7546],
    [7909,1537386459,54.0298,-110.0961,814.2,139.8,76.9,3.0,3.3,9.74,46.71,1.9916,395.0983],
    [7910,1537386460,54.0299,-110.0949,815.8,141.4,78.8,2.2,3.2,9.13,46.43,1.9952,394.2359],
    [7911,1537386461,54.0301,-110.0937,816.5,141.7,81.1,1.2,4.1,9.48,46.81,1.9964,395.1531],
    [7912,1537386462,54.0302,-110.0925,816.5,144.7,82.5,1.1,3.8,9.52,47.08,1.995,395.2916],
    [7913,1537386463,54.0303,-110.0913,816.0,146.0,84.3,0.9,4.3,9.52,46.74,1.9934,394.2441],
    [7914,1537386464,54.0304,-110.0901,816.1,148.1,85.6,1.0,4.5,9.95,46.83,1.9917,394.0655],
    [7915,1537386465,54.0305,-110.0889,816.4,150.5,87.1,2.2,5.7,10.02,46.6,1.9936,394.0693],
    [7916,1537386466,54.0306,-110.0877,815.5,149.7,86.4,2.6,4.1,9.12,46.79,1.9922,394.1432],
    [7917,1537386467,54.0307,-110.0865,813.6,148.6,85.5,2.6,3.6,9.71,46.79,1.9914,394.6212],
    [7918,1537386468,54.0308,-110.0852,812.8,146.7,85.4,2.2,4.1,9.66,46.86,1.9938,394.213],
    [7919,1537386469,54.0309,-110.084,812.8,145.1,84.2,1.3,3.3,9.44,46.88,1.9942,395.3224],
    [7920,1537386470,54.031,-110.0828,812.8,144.8,84.3,2.3,4.0,9.92,46.57,1.9943,393.7307],
    [7921,1537386471,54.0311,-110.0816,813.7,146.9,84.0,3.8,3.3,9.87,46.45,1.995,393.7172],
    [7922,1537386472,54.0312,-110.0804,814.0,148.0,84.2,3.8,2.8,9.42,47.09,1.9926,394.8251],
    [7923,1537386473,54.0313,-110.0792,812.8,147.8,85.5,3.7,3.0,9.4,47.2,1.9914,394.0924],
    [7924,1537386474,54.0313,-110.078,812.5,147.5,86.8,3.1,2.2,9.7,46.9,1.9926,393.7092],
    [7925,1537386475,54.0314,-110.0768,813.6,147.5,87.7,3.2,2.2,9.27,46.89,1.9909,394.7555],
    [7926,1537386476,54.0314,-110.0755,812.9,147.5,90.3,2.2,3.3,9.99,46.41,1.989,393.5055],
    [7927,1537386477,54.0315,-110.0743,811.2,145.2,92.3,1.2,4.0,9.75,47.43,1.988,394.135],
    [7928,1537386478,54.0315,-110.0731,810.0,142.9,93.4,2.8,3.0,9.79,47.47,1.9915,393.9449],
    [7929,1537386479,54.0314,-110.0719,809.7,141.4,94.7,1.6,3.7,10.19,47.12,1.993,394.2933],
    [7930,1537386480,54.0314,-110.0707,811.1,141.2,96.7,3.4,5.3,9.54,46.82,1.9932,395.0117],
    [7931,1537386481,54.0314,-110.0694,812.4,142.4,95.9,3.1,4.5,10.16,46.18,1.9937,392.9277],
    [7932,1537386482,54.0313,-110.0682,813.1,142.1,95.2,2.2,4.3,9.57,46.86,1.9895,392.9277],
    [7933,1537386483,54.0313,-110.067,813.2,142.2,94.6,1.6,4.5,9.74,47.06,1.9919,394.0183],
    [7934,1537386484,54.0313,-110.0658,813.3,142.3,93.8,2.1,4.6,9.38,46.9,1.9886,395.2423],
    [7935,1537386485,54.0313,-110.0646,813.4,142.4,92.8,3.6,4.2,9.08,46.51,1.9887,395.29],
    [7936,1537386486,54.0313,-110.0634,812.4,142.4,90.8,4.5,2.9,9.65,46.69,1.9869,395.225],
    [7937,1537386487,54.0313,-110.0622,810.9,141.9,89.2,4.6,2.1,9.5,47.18,1.9864,392.4903],
    [7938,1537386488,54.0314,-110.0609,810.5,141.5,88.2,4.4,1.6,10.43,46.05,1.9886,394.2537],
    [7939,1537386489,54.0314,-110.0597,810.9,142.6,89.3,4.8,3.0,9.91,46.52,1.9895,395.8821],
    [7940,1537386490,54.0314,-110.0585,810.7,142.7,89.3,6.7,2.5,10.38,46.03,1.9888,394.1356],
    [7941,1537386491,54.0315,-110.0573,810.8,142.8,88.8,6.8,1.8,9.57,46.41,1.99,395.4556],
    [7942,1537386492,54.0315,-110.0561,811.1,143.1,89.6,5.1,2.7,9.64,46.61,1.9936,394.1021],
    [7943,1537386493,54.0315,-110.0549,811.8,143.8,88.4,5.3,0.9,9.45,46.49,1.9947,395.7851],
    [7944,1537386494,54.0316,-110.0536,812.6,145.6,87.7,4.9,0.6,9.95,46.79,1.9959,395.199],
    [7945,1537386495,54.0316,-110.0524,813.7,146.7,90.3,4.5,4.0,9.87,46.06,1.9963,394.2215],
    [7946,1537386496,54.0316,-110.0512,813.1,146.1,90.5,4.2,3.7,9.84,46.66,1.9945,394.1862],
    [7947,1537386497,54.0317,-110.05,811.9,142.9,89.7,5.2,2.7,9.61,46.83,1.9949,392.2251],
    [7948,1537386498,54.0317,-110.0488,811.4,142.5,91.3,5.3,4.1,9.59,46.92,1.9954,392.2251],
    [7949,1537386499,54.0317,-110.0475,811.8,142.9,89.9,6.2,2.0,9.27,47.01,1.9973,393.543],
    [7950,1537386500,54.0317,-110.0463,811.7,142.7,90.9,5.8,3.1,9.41,46.9,1.9981,393.543],
    [7951,1537386501,54.0317,-110.045,810.6,141.6,91.5,6.1,3.3,10.11,46.56,1.9943,394.644],
    [7952,1537386502,54.0317,-110.0438,809.9,142.0,91.9,5.8,3.8,9.15,47.09,1.9951,393.3814],
    [7953,1537386503,54.0318,-110.0426,810.4,142.5,92.4,5.3,4.6,9.73,46.6,1.9938,394.1047],
    [7954,1537386504,54.0318,-110.0414,811.0,142.9,92.7,4.6,5.0,10.24,46.51,1.9935,395.2014],
    [7955,1537386505,54.0318,-110.0401,810.6,143.6,92.0,5.3,4.4,9.47,46.82,1.9943,394.211],
    [7956,1537386506,54.0318,-110.0389,810.7,143.7,92.1,4.7,4.9,9.98,46.44,1.9937,395.0781],
    [7957,1537386507,54.0318,-110.0376,812.0,145.0,91.4,4.2,4.4,10.55,46.3,1.9937,394.4091],
    [7958,1537386508,54.0318,-110.0364,812.9,145.9,91.6,4.4,4.8,9.61,46.79,1.9935,395.5834],
    [7959,1537386509,54.0319,-110.0352,812.4,146.4,91.4,4.4,4.0,9.77,46.67,1.9921,395.5834],
    [7960,1537386510,54.0319,-110.034,811.7,145.7,91.0,3.6,3.2,9.97,46.24,1.9906,393.4179],
    [7961,1537386511,54.0319,-110.0327,811.5,145.5,92.2,4.5,3.7,8.88,46.2,1.9912,394.5053],
    [7962,1537386512,54.0319,-110.0315,811.6,145.6,91.6,5.1,2.7,9.73,46.49,1.9987,394.1821],
    [7963,1537386513,54.0319,-110.0303,812.4,146.4,93.0,5.2,4.0,9.23,45.73,1.999,394.1821],
    [7964,1537386514,54.0319,-110.0292,813.8,147.8,92.4,4.2,2.9,9.77,45.56,1.9978,395.4293],
    [7965,1537386515,54.0319,-110.0279,813.7,147.7,91.6,3.2,2.1,9.86,45.95,1.9978,394.4996],
    [7966,1537386516,54.0319,-110.0266,812.8,146.8,91.5,2.9,2.0,9.24,45.99,2.001,394.2345],
    [7967,1537386517,54.0319,-110.0254,811.7,145.7,91.6,3.9,2.1,9.44,46.27,1.9991,394.2345],
    [7968,1537386518,54.0319,-110.0242,810.7,144.7,91.2,4.2,1.6,9.57,46.21,2.0002,394.6399],
    [7969,1537386519,54.0319,-110.023,809.8,143.8,91.9,4.4,2.3,9.47,46.86,2.0017,395.7911],
    [7970,1537386520,54.0319,-110.0217,810.4,144.4,91.8,4.0,2.2,9.76,45.89,2.0028,393.9566],
    [7971,1537386521,54.0319,-110.0205,811.4,145.4,92.6,5.2,2.8,9.62,46.99,2.0016,395.8869],
    [7972,1537386522,54.0319,-110.0194,811.9,145.9,92.7,5.7,2.8,9.44,46.38,2.0017,394.042],
    [7973,1537386523,54.0319,-110.0181,811.8,145.8,93.2,4.2,3.4,9.87,46.41,1.9974,394.042],
    [7974,1537386524,54.0319,-110.0169,812.0,146.0,93.1,4.2,3.1,9.99,45.72,1.9976,394.2563],
    [7975,1537386525,54.0319,-110.0156,813.2,147.2,92.7,4.2,2.5,9.61,46.85,1.9999,394.2563],
    [7976,1537386526,54.0319,-110.0144,814.2,148.2,92.4,4.1,2.0,9.13,46.21,2.0013,394.9589],
    [7977,1537386527,54.0318,-110.0132,814.6,148.6,91.8,3.8,1.3,10.15,45.86,1.9995,394.9982],
    [7978,1537386528,54.0318,-110.0121,814.0,148.0,92.5,3.9,2.0,9.9,45.43,1.9981,394.6456],
    [7979,1537386529,54.0318,-110.0108,813.5,146.5,93.0,5.1,2.4,9.66,45.72,1.9934,394.6456],
    [7980,1537386530,54.0318,-110.0096,812.8,144.7,93.2,5.0,2.5,9.6,45.78,1.9957,395.8067],
    [7981,1537386531,54.0318,-110.0085,812.2,144.1,92.8,5.0,2.2,9.91,45.2,1.9909,393.241],
    [7982,1537386532,54.0318,-110.0072,811.8,144.8,92.3,4.6,1.6,9.26,45.25,1.9868,394.3244],
    [7983,1537386533,54.0318,-110.0059,812.1,143.9,92.1,4.3,1.5,9.46,44.69,1.9866,393.7805],
    [7984,1537386534,54.0318,-110.0047,812.5,141.6,92.3,4.5,1.7,9.83,44.47,1.9867,394.1791],
    [7985,1537386535,54.0317,-110.0035,812.1,142.0,92.6,4.7,2.0,9.59,43.54,1.988,394.7265],
    [7986,1537386536,54.0317,-110.0023,811.6,141.8,93.4,5.0,2.6,10.18,42.62,1.9991,394.7738],
    [7987,1537386537,54.0317,-110.0011,812.4,145.4,93.7,4.1,2.7,10.1,42.82,1.9984,394.7738],
    [7988,1537386538,54.0317,-109.9999,813.4,148.2,93.2,4.9,1.8,9.82,42.75,1.9998,395.6285],
    [7989,1537386539,54.0317,-109.9986,813.5,150.9,93.4,4.8,2.2,9.67,43.56,2.0011,394.03],
    [7990,1537386540,54.0316,-109.9974,813.3,154.2,93.7,4.2,2.5,9.61,43.72,2.0017,395.3105],
    [7991,1537386541,54.0316,-109.9962,814.3,156.8,93.1,4.6,2.2,8.88,44.07,2.0035,396.2209],
    [7992,1537386542,54.0316,-109.9951,815.3,159.3,92.8,3.5,1.9,9.39,44.51,2.0048,394.8675],
    [7993,1537386543,54.0316,-109.9937,817.3,163.3,91.5,2.9,1.0,9.55,44.66,2.0045,394.8675],
    [7994,1537386544,54.0316,-109.9925,818.4,166.5,93.0,3.0,2.3,9.28,45.23,2.0046,395.621],
    [7995,1537386545,54.0316,-109.9913,818.5,168.5,93.4,3.5,2.1,10.22,44.92,2.0035,395.7181],
    [7996,1537386546,54.0315,-109.9901,817.5,169.5,94.7,4.3,2.4,9.06,45.46,2.0033,394.4443],
    [7997,1537386547,54.0315,-109.9889,816.0,170.0,95.6,4.9,1.6,9.71,45.65,2.004,394.1686],
    [7998,1537386548,54.0314,-109.9876,815.3,171.6,97.6,4.2,2.5,9.22,45.95,2.0049,394.7584],
    [7999,1537386549,54.0314,-109.9864,813.9,172.6,100.5,2.3,3.6,9.79,45.83,2.0053,392.3578],
    [8000,1537386550,54.0312,-109.9852,812.9,171.9,102.5,1.6,3.2,9.57,45.57,2.0045,394.8163],
    [8001,1537386551,54.0311,-109.984,812.3,171.3,106.6,1.6,4.6,9.05,45.58,2.0031,394.7788],
    [8002,1537386552,54.0309,-109.9828,812.1,171.1,109.0,2.1,3.5,9.0,45.17,2.0031,395.6774],
    [8003,1537386553,54.0307,-109.9817,811.7,169.3,112.3,2.3,3.5,9.6,45.25,2.0029,393.9289],
    [8004,1537386554,54.0305,-109.9806,812.1,167.4,116.3,2.0,4.1,9.54,45.0,2.0029,394.6784],
    [8005,1537386555,54.0302,-109.9795,812.8,164.7,118.9,2.2,3.2,9.69,45.27,2.0037,395.1008],
    [8006,1537386556,54.0298,-109.9784,812.9,162.1,122.7,2.7,3.8,9.22,45.19,2.0014,394.5649],
    [8007,1537386557,54.0295,-109.9773,812.5,159.6,125.4,3.2,2.7,10.42,44.66,2.0015,394.948],
    [8008,1537386558,54.0291,-109.9764,811.7,156.7,128.8,3.4,3.1,9.85,44.78,2.0019,395.3378],
    [8009,1537386559,54.0286,-109.9754,811.5,156.5,131.5,3.0,2.6,10.48,44.3,2.0011,394.096],
    [8010,1537386560,54.0282,-109.9745,811.8,156.8,134.3,2.8,3.1,9.31,45.3,2.0016,393.2732],
    [8011,1537386561,54.0277,-109.9736,812.1,157.1,136.9,2.5,2.4,9.44,45.45,2.0024,395.1921],
    [8012,1537386562,54.0272,-109.9728,812.3,158.0,140.1,3.0,3.3,10.08,44.93,2.0032,393.9209],
    [8013,1537386563,54.0267,-109.972,812.7,160.0,143.1,3.6,1.7,9.43,45.07,2.0022,395.1619],
    [8014,1537386564,54.0262,-109.9713,812.8,162.8,145.7,2.8,2.4,9.95,45.07,2.0016,394.097],
    [8015,1537386565,54.0257,-109.9707,812.5,162.7,149.7,3.6,4.4,9.74,45.42,2.0019,394.9308],
    [8016,1537386566,54.025,-109.97,812.8,162.6,152.9,3.1,3.4,9.79,45.02,2.0008,394.6125],
    [8017,1537386567,54.0244,-109.9695,813.7,162.7,156.3,4.0,3.3,9.8,45.22,2.0001,394.6501],
    [8018,1537386568,54.0238,-109.969,814.0,164.0,160.0,4.0,3.9,10.28,44.84,2.0022,394.0038],
    [8019,1537386569,54.0233,-109.9686,815.3,165.2,161.9,3.5,0.7,9.61,44.9,2.0022,395.1536],
    [8020,1537386570,54.0226,-109.9682,814.8,164.7,165.1,4.1,2.6,9.67,45.6,1.9986,394.1832],
    [8021,1537386571,54.022,-109.9679,812.7,162.7,170.1,5.6,2.7,9.67,45.69,1.9965,394.9554],
    [8022,1537386572,54.0213,-109.9676,811.7,161.7,173.5,5.3,2.2,9.83,44.59,1.9945,394.1345],
    [8023,1537386573,54.0206,-109.9674,811.0,161.5,176.4,5.4,1.6,9.62,44.6,1.9942,394.0558],
    [8024,1537386574,54.02,-109.9673,810.4,161.4,179.6,5.9,1.6,10.41,43.98,1.9949,394.1906],
    [8025,1537386575,54.0193,-109.9672,811.1,162.1,182.9,6.4,2.1,9.65,45.14,1.9995,393.4478],
    [8026,1537386576,54.0186,-109.9672,812.7,164.7,184.4,5.3,1.9,8.94,44.51,2.0004,393.0917],
    [8027,1537386577,54.018,-109.9672,814.7,166.7,184.9,3.9,2.6,9.69,45.06,2.002,394.176],
    [8028,1537386578,54.0173,-109.9673,816.6,168.6,185.7,3.1,1.6,9.73,44.09,2.0001,394.0966],
    [8029,1537386579,54.0167,-109.9674,817.5,170.5,186.3,3.1,2.1,10.01,43.86,2.0,394.6529],
    [8030,1537386580,54.016,-109.9675,817.6,170.9,188.7,5.3,2.0,9.64,44.41,1.9993,394.3509],
    [8031,1537386581,54.0154,-109.9676,817.8,171.8,189.8,6.2,1.7,9.59,44.52,1.9989,394.3509],
    [8032,1537386582,54.0147,-109.9677,817.9,171.9,190.2,6.5,1.1,9.7,45.09,1.9993,394.5798],
    [8033,1537386583,54.0141,-109.9678,817.7,171.7,189.3,5.7,0.8,9.16,44.57,1.999,394.1774],
    [8034,1537386584,54.0134,-109.9678,816.1,169.1,188.4,5.3,1.2,9.62,44.82,1.9972,395.4616],
    [8035,1537386585,54.0128,-109.9679,813.9,165.9,187.8,5.4,0.5,9.86,44.49,1.9961,393.1402],
    [8036,1537386586,54.0121,-109.968,812.1,164.1,186.5,4.9,-0.2,10.02,44.41,1.9971,393.7425],
    [8037,1537386587,54.0115,-109.968,811.9,164.0,184.8,4.3,-0.2,10.11,44.14,1.9981,394.3885],
    [8038,1537386588,54.0108,-109.968,813.4,164.5,183.7,4.1,-0.3,9.43,44.5,1.9999,394.1119],
    [8039,1537386589,54.0101,-109.9681,814.0,164.0,183.3,4.1,-0.3,9.61,45.08,2.0,394.7592],
    [8040,1537386590,54.0095,-109.9681,814.2,164.2,182.7,3.8,-0.2,9.67,44.74,2.0004,395.1909],
    [8041,1537386591,54.0088,-109.968,814.2,166.2,183.3,4.4,0.3,9.1,45.12,1.998,394.8513],
    [8042,1537386592,54.0081,-109.9681,814.5,166.5,183.8,4.2,-1.1,9.68,44.57,1.9993,394.6817],
    [8043,1537386593,54.0075,-109.9681,815.0,166.3,183.2,3.0,-1.4,9.25,45.24,1.9996,394.4832],
    [8044,1537386594,54.0068,-109.9681,814.3,165.8,183.4,3.5,-0.8,9.63,45.05,1.9981,395.0819],
    [8045,1537386595,54.0061,-109.9681,813.5,164.5,183.7,3.9,0.2,9.47,45.24,1.9963,394.7627],
    [8046,1537386596,54.0054,-109.9681,814.1,164.2,184.0,4.3,2.7,10.26,44.69,1.9938,394.7031],
    [8047,1537386597,54.0048,-109.9681,814.7,164.8,184.7,4.7,2.7,9.45,45.05,1.9923,395.2598],
    [8048,1537386598,54.0041,-109.9682,814.6,163.0,185.3,5.4,2.2,9.44,45.25,1.9942,394.4207],
    [8049,1537386599,54.0034,-109.9682,814.6,162.8,185.7,6.0,1.6,9.06,45.15,1.9949,392.695],
    [8050,1537386600,54.0027,-109.9682,814.3,161.4,185.4,5.9,1.9,10.09,45.11,1.9925,392.695],
    [8051,1537386601,54.0021,-109.9682,814.4,161.7,184.9,5.5,1.2,8.95,45.23,1.9921,394.1606],
    [8052,1537386602,54.0014,-109.9682,814.4,160.5,185.1,6.1,1.0,9.64,45.08,1.9917,394.152],
    [8053,1537386603,54.0007,-109.9682,813.9,159.7,184.9,6.2,1.7,9.79,44.34,1.9919,393.6813],
    [8054,1537386604,54.0,-109.9683,813.5,158.1,185.4,7.2,2.3,9.58,45.02,1.9916,394.9101],
    [8055,1537386605,53.9993,-109.9683,814.0,157.8,185.5,7.1,1.7,9.12,44.35,1.9901,393.8919],
    [8056,1537386606,53.9987,-109.9683,814.4,156.3,185.7,7.6,1.4,9.72,43.8,1.99,395.0241],
    [8057,1537386607,53.998,-109.9683,814.2,155.0,185.6,7.3,0.9,9.52,44.12,1.9921,393.816],
    [8058,1537386608,53.9973,-109.9683,814.9,154.2,182.5,4.4,1.6,9.72,43.78,1.9925,393.259],
    [8059,1537386609,53.9966,-109.9682,816.2,153.4,184.2,7.7,0.9,9.53,44.61,1.9896,393.1753],
    [8060,1537386610,53.996,-109.9682,815.2,151.6,184.5,8.8,0.0,10.11,44.22,1.9915,393.4393],
    [8061,1537386611,53.9953,-109.9681,813.4,148.3,182.5,7.6,-1.0,9.97,44.08,1.9906,394.5071],
    [8062,1537386612,53.9946,-109.9681,813.2,147.1,181.2,7.2,-0.7,9.26,44.34,1.9914,395.8592],
    [8063,1537386613,53.9939,-109.968,812.7,146.0,181.3,8.0,-0.3,8.86,44.25,1.9911,395.8592],
    [8064,1537386614,53.9932,-109.9679,810.1,142.4,182.2,8.7,0.8,9.99,44.1,1.9885,393.6309],
    [8065,1537386615,53.9925,-109.9678,808.7,140.3,180.7,6.8,0.0,9.72,44.13,1.9896,394.6185],
    [8066,1537386616,53.9918,-109.9677,808.1,138.1,181.3,7.3,-0.3,10.15,43.88,1.9864,394.1591],
    [8067,1537386617,53.9911,-109.9676,807.6,135.7,181.0,6.2,0.3,9.42,44.46,1.9839,393.8445],
    [8068,1537386618,53.9904,-109.9676,807.4,133.8,182.2,7.3,0.3,9.58,43.67,1.9845,395.5084],
    [8069,1537386619,53.9897,-109.9675,808.5,136.1,183.3,7.8,-0.5,9.56,43.23,1.9871,395.3678],
    [8070,1537386620,53.9891,-109.9674,810.0,138.7,182.8,6.8,-1.6,8.93,43.18,1.9896,394.2336],
    [8071,1537386621,53.9884,-109.9674,810.5,139.2,182.7,6.8,-2.0,9.45,43.29,1.9906,393.3994],
    [8072,1537386622,53.9877,-109.9674,810.9,139.9,181.0,4.7,-1.2,9.56,43.04,1.9904,393.7524],
    [8073,1537386623,53.987,-109.9673,812.1,142.1,180.5,4.1,-0.1,10.25,42.49,1.9897,394.4286],
    [8074,1537386624,53.9863,-109.9672,812.6,142.6,181.3,4.9,-0.2,9.53,43.48,1.9908,393.1334],
    [8075,1537386625,53.9856,-109.9672,811.5,141.5,183.3,6.6,0.0,9.62,43.85,1.99,395.3433],
    [8076,1537386626,53.9849,-109.9672,811.6,141.6,183.8,6.1,2.2,9.59,43.15,1.9902,395.3433],
    [8077,1537386627,53.9842,-109.9672,813.8,143.8,184.0,5.0,1.4,9.15,43.04,1.9916,394.4433],
    [8078,1537386628,53.9836,-109.9672,815.6,145.6,183.9,4.5,0.9,9.56,43.23,1.99,394.1266],
    [8079,1537386629,53.9829,-109.9672,816.4,146.4,185.4,5.8,1.5,9.08,43.17,1.9904,394.1266],
    [8080,1537386630,53.9822,-109.9672,816.6,147.6,185.0,4.8,1.4,9.86,42.66,1.9892,394.5951],
    [8081,1537386631,53.9816,-109.9673,816.8,147.9,185.6,5.4,1.6,9.33,43.2,1.9898,394.5776],
    [8082,1537386632,53.9809,-109.9673,816.4,148.4,186.0,5.5,2.6,9.17,43.23,1.9892,393.6149],
    [8083,1537386633,53.9802,-109.9673,816.2,148.7,185.5,4.8,2.1,9.51,43.44,1.9885,394.7437],
    [8084,1537386634,53.9795,-109.9674,816.9,149.9,185.5,4.8,1.9,9.89,43.04,1.9877,394.1748],
    [8085,1537386635,53.9788,-109.9674,816.4,150.4,186.4,5.7,0.3,10.09,42.59,1.9889,394.8888],
    [8086,1537386636,53.9781,-109.9675,814.9,148.9,186.5,5.2,0.9,9.31,42.84,1.9899,393.6345],
    [8087,1537386637,53.9775,-109.9675,813.7,148.7,187.1,5.6,0.4,9.52,43.06,1.9889,393.857],
    [8088,1537386638,53.9768,-109.9676,814.1,149.1,185.8,4.0,-0.4,9.38,42.87,1.9893,394.674],
    [8089,1537386639,53.9761,-109.9676,815.3,151.3,185.3,4.4,0.2,9.97,42.97,1.9843,393.9782],
    [8090,1537386640,53.9754,-109.9677,816.4,153.4,184.9,4.3,1.0,9.61,43.04,1.9854,394.7515],
    [8091,1537386641,53.9747,-109.9677,816.5,153.5,184.0,3.7,1.3,10.05,43.17,1.9854,394.5008],
    [8092,1537386642,53.9741,-109.9677,814.8,152.8,183.7,3.7,1.3,9.07,43.02,1.983,393.9659],
    [8093,1537386643,53.9734,-109.9677,813.1,152.1,183.4,3.6,1.0,9.77,42.85,1.9835,393.7835],
    [8094,1537386644,53.9727,-109.9678,811.8,151.1,183.9,4.4,0.5,9.12,42.31,1.9826,394.3782],
    [8095,1537386645,53.972,-109.9678,811.7,151.6,184.3,5.0,0.4,9.31,42.31,1.9812,394.431],
    [8096,1537386646,53.9714,-109.9678,812.3,154.3,184.8,5.5,1.1,9.69,42.42,1.9836,394.1008],
    [8097,1537386647,53.9707,-109.9678,812.6,154.6,185.2,5.9,0.1,9.64,41.53,1.9847,394.2997],
    [8098,1537386648,53.97,-109.9678,812.8,154.8,184.7,5.5,-0.2,9.62,42.27,1.9827,394.2997],
    [8099,1537386649,53.9693,-109.9678,812.5,155.5,185.0,6.4,0.4,9.43,41.4,1.982,393.5505],
    [8100,1537386650,53.9687,-109.9678,812.3,155.3,185.1,6.8,1.2,10.08,40.7,1.9813,394.7533],
    [8101,1537386651,53.968,-109.9678,812.9,156.9,184.6,6.6,0.2,9.61,42.07,1.983,394.5843],
    [8102,1537386652,53.9673,-109.9678,813.5,158.5,183.7,6.2,-0.4,9.71,41.51,1.9868,393.345],
    [8103,1537386653,53.9666,-109.9678,814.1,159.8,182.8,5.3,0.0,9.22,41.2,1.9876,394.0192],
    [8104,1537386654,53.966,-109.9677,815.4,161.4,181.6,4.0,-0.6,9.74,41.55,1.9889,393.6027],
    [8105,1537386655,53.9653,-109.9677,815.8,161.8,181.9,4.3,0.3,9.59,42.53,1.9912,395.1868],
    [8106,1537386656,53.9646,-109.9677,815.8,161.8,181.8,4.0,2.5,10.27,41.65,1.9954,394.5598],
    [8107,1537386657,53.964,-109.9677,815.8,161.8,183.3,5.1,2.8,9.55,42.43,1.991,394.1061],
    [8108,1537386658,53.9633,-109.9677,815.6,161.6,183.8,4.9,2.6,9.18,42.85,1.9893,395.0568],
    [8109,1537386659,53.9626,-109.9677,816.1,161.5,184.3,5.0,3.6,8.93,42.62,1.9942,392.919],
    [8110,1537386660,53.9619,-109.9677,817.1,161.8,184.7,5.2,3.4,9.56,42.34,1.9938,393.9843],
    [8111,1537386661,53.9613,-109.9677,817.3,157.3,185.3,5.7,3.2,9.57,43.22,1.9906,394.0193],
    [8112,1537386662,53.9606,-109.9677,817.0,154.3,185.6,5.6,3.1,9.51,42.48,1.9943,393.9605],
    [8113,1537386663,53.9599,-109.9678,817.6,151.7,183.4,2.8,4.0,10.19,42.16,1.9949,393.2108],
    [8114,1537386664,53.9593,-109.9678,818.6,150.2,183.1,3.3,3.3,9.62,43.42,1.9905,393.058],
    [8115,1537386665,53.9586,-109.9678,817.3,147.3,185.6,6.3,2.9,9.5,42.77,1.9874,392.9044],
    [8116,1537386666,53.9579,-109.9678,815.2,146.2,184.8,5.7,2.4,9.55,42.65,1.9838,393.3056],
    [8117,1537386667,53.9572,-109.9678,813.0,146.6,185.8,7.0,2.4,10.03,42.19,1.9823,393.0687],
    [8118,1537386668,53.9566,-109.9679,811.4,148.4,185.4,7.0,2.1,9.98,41.38,1.9817,393.569],
    [8119,1537386669,53.9559,-109.9679,810.3,150.0,184.9,6.6,1.2,9.69,41.92,1.977,393.569],
    [8120,1537386670,53.9552,-109.9678,809.7,152.4,184.7,7.0,2.5,9.27,41.58,1.987,393.3496],
    [8121,1537386671,53.9545,-109.9678,811.0,152.0,184.1,6.1,3.0,9.8,42.01,1.9932,394.3707],
    [8122,1537386672,53.9539,-109.9678,813.0,152.0,183.0,4.9,2.3,9.19,41.32,1.9926,392.6331],
    [8123,1537386673,53.9532,-109.9678,814.3,154.3,183.9,5.3,2.6,10.27,41.16,1.994,394.1095],
    [8124,1537386674,53.9525,-109.9678,815.7,156.8,182.3,3.3,2.7,9.72,41.48,1.9936,394.7241],
    [8125,1537386675,53.9519,-109.9678,816.3,158.4,183.5,4.6,2.6,9.84,41.14,1.9918,394.3425],
    [8126,1537386676,53.9511,-109.9678,815.6,157.6,183.6,4.7,3.7,9.66,41.66,1.9925,394.2635],
    [8127,1537386677,53.9505,-109.9678,815.5,158.5,184.2,5.0,2.0,9.82,40.74,1.9923,393.5718],
    [8128,1537386678,53.9498,-109.9678,816.3,160.3,184.1,4.3,0.9,9.63,41.41,1.9921,394.4616],
    [8129,1537386679,53.9491,-109.9679,816.5,160.4,184.7,4.8,2.4,9.65,40.99,1.993,393.1625],
    [8130,1537386680,53.9484,-109.9679,815.1,160.1,185.7,5.8,2.9,9.33,40.99,1.9952,393.5973],
    [8131,1537386681,53.9478,-109.9679,813.5,159.6,185.8,5.6,3.2,9.92,40.26,1.9953,392.3821],
    [8132,1537386682,53.9471,-109.968,813.0,160.0,184.8,4.4,3.5,10.04,40.6,1.9927,393.983],
    [8133,1537386683,53.9464,-109.968,813.2,163.2,183.9,3.7,2.6,9.98,40.97,1.9936,393.983],
    [8134,1537386684,53.9457,-109.968,813.2,164.8,183.8,4.6,3.0,10.33,40.22,1.9933,393.8806],
    [8135,1537386685,53.945,-109.968,812.8,166.1,183.6,5.1,3.4,9.99,40.85,1.9942,393.8181],
    [8136,1537386686,53.9444,-109.968,813.0,169.3,182.5,4.7,3.3,10.25,40.51,1.9934,393.2241],
    [8137,1537386687,53.9437,-109.968,812.9,170.9,182.6,5.0,3.2,9.51,40.84,1.9939,393.4157],
    [8138,1537386688,53.943,-109.968,813.1,173.1,182.2,4.7,3.5,9.49,40.39,1.9964,393.0923],
    [8139,1537386689,53.9424,-109.9679,813.5,174.5,183.0,5.5,3.0,9.26,40.36,1.9973,393.4214],
    [8140,1537386690,53.9416,-109.9679,814.2,176.2,183.3,5.3,1.4,9.76,40.53,1.9967,394.771],
    [8141,1537386691,53.941,-109.9679,814.7,176.7,183.8,5.6,1.9,9.37,40.57,1.9958,393.8561],
    [8142,1537386692,53.9403,-109.9679,815.2,178.2,183.8,5.7,2.8,9.28,41.06,1.9955,393.1334],
    [8143,1537386693,53.9396,-109.9679,815.8,179.8,184.2,5.9,1.9,10.12,40.44,1.9961,394.4322],
    [8144,1537386694,53.939,-109.9679,815.7,179.7,184.1,5.6,1.2,8.97,40.56,1.9977,393.4369],
    [8145,1537386695,53.9383,-109.9679,815.1,182.1,184.0,5.4,0.8,9.6,40.88,1.998,392.7898],
    [8146,1537386696,53.9376,-109.9679,814.8,181.8,183.6,4.5,0.8,10.23,40.23,1.9943,394.32],
    [8147,1537386697,53.9369,-109.9679,814.6,181.6,183.2,3.9,1.6,9.79,40.56,1.9924,392.8293],
    [8148,1537386698,53.9362,-109.9679,814.1,181.1,183.2,3.7,2.0,9.73,40.7,1.9939,394.2407],
    [8149,1537386699,53.9355,-109.9679,813.8,180.8,184.1,4.8,2.5,9.3,40.9,1.9928,394.9944],
    [8150,1537386700,53.9349,-109.9679,814.1,181.1,184.8,5.5,2.8,9.58,41.03,1.9927,394.1428],
    [8151,1537386701,53.9342,-109.9679,814.5,181.5,185.2,6.0,2.8,9.4,40.78,1.9942,393.6824],
    [8152,1537386702,53.9335,-109.968,814.6,181.6,184.9,5.4,2.7,9.42,40.74,1.9932,394.2981],
    [8153,1537386703,53.9328,-109.968,814.7,181.7,184.4,5.1,2.6,9.34,40.65,1.9922,394.1715],
    [8154,1537386704,53.9321,-109.968,814.6,181.6,184.8,5.6,2.2,9.34,40.94,1.9937,394.1265],
    [8155,1537386705,53.9315,-109.968,814.8,179.8,184.1,4.9,2.5,9.09,40.62,1.9902,394.2124],
    [8156,1537386706,53.9308,-109.968,815.9,180.9,184.0,4.5,1.8,9.29,40.5,1.9897,393.7759],
    [8157,1537386707,53.9301,-109.968,816.8,181.8,183.2,3.5,2.4,8.93,40.43,1.9888,393.7415],
    [8158,1537386708,53.9294,-109.9681,816.8,181.8,185.1,5.6,2.1,9.05,40.51,1.9916,394.8778],
    [8159,1537386709,53.9288,-109.9681,815.8,180.8,186.4,6.7,2.4,8.78,40.29,1.9915,394.8778],
    [8160,1537386710,53.9281,-109.9681,814.4,179.4,186.4,5.8,1.1,9.14,40.32,1.991,392.4852],
    [8161,1537386711,53.9274,-109.9682,814.3,179.3,185.9,5.2,1.2,9.58,40.75,1.9914,394.6164],
    [8162,1537386712,53.9267,-109.9682,814.3,179.3,185.9,5.4,2.3,9.88,39.68,1.9908,394.035],
    [8163,1537386713,53.926,-109.9682,814.7,179.7,185.4,5.5,1.4,9.59,40.55,1.9913,394.035],
    [8164,1537386714,53.9253,-109.9683,815.5,180.5,185.1,5.7,2.1,9.53,41.07,1.992,393.2786],
    [8165,1537386715,53.9246,-109.9683,815.5,180.5,184.6,5.8,2.3,9.94,40.4,1.9929,392.7684],
    [8166,1537386716,53.9239,-109.9683,814.3,178.5,184.1,5.6,1.0,9.67,40.31,1.9937,394.0091],
    [8167,1537386717,53.9232,-109.9683,812.5,176.5,184.1,6.4,1.4,9.54,40.73,1.9924,393.3434],
    [8168,1537386718,53.9226,-109.9683,810.7,174.7,184.5,7.0,0.4,10.2,39.67,1.9911,392.8139],
    [8169,1537386719,53.9219,-109.9682,809.4,173.4,183.9,6.3,-0.5,9.68,39.86,1.9907,394.7462],
    [8170,1537386720,53.9212,-109.9682,808.5,172.5,183.6,6.1,-0.1,8.99,40.33,1.9902,394.6309],
    [8171,1537386721,53.9205,-109.9682,807.5,171.5,184.1,6.6,0.4,9.52,40.22,1.9912,392.43],
    [8172,1537386722,53.9198,-109.9682,806.3,170.3,183.7,5.9,0.8,9.66,40.17,1.991,393.4834],
    [8173,1537386723,53.9191,-109.9682,805.3,169.2,184.0,6.1,0.5,9.12,40.25,1.9918,393.4617],
    [8174,1537386724,53.9184,-109.9682,804.7,167.7,184.0,5.9,0.3,9.58,40.26,1.9912,393.3035],
    [8175,1537386725,53.9177,-109.9682,803.6,166.6,183.8,6.0,0.4,9.55,39.83,1.9887,393.3035],
    [8176,1537386726,53.917,-109.9682,802.4,165.4,184.2,6.4,1.4,9.37,39.71,1.9899,391.6706],
    [8177,1537386727,53.9163,-109.9681,802.2,165.2,183.6,5.5,0.4,9.15,39.62,1.9906,394.4931],
    [8178,1537386728,53.9156,-109.9681,801.8,164.8,183.9,6.1,-0.8,10.21,39.31,1.9887,394.0513],
    [8179,1537386729,53.9149,-109.9681,800.3,162.4,184.7,6.9,-0.2,10.32,38.94,1.9849,393.4925],
    [8180,1537386730,53.9142,-109.9681,798.7,160.7,184.4,6.6,-0.6,9.56,39.41,1.9805,393.4398],
    [8181,1537386731,53.9135,-109.9681,797.3,159.3,184.5,6.7,-0.8,9.44,39.17,1.9795,393.3854],
    [8182,1537386732,53.9128,-109.9681,796.2,158.2,184.1,6.3,-0.4,9.33,38.99,1.9814,394.6568],
    [8183,1537386733,53.9121,-109.9681,796.2,158.2,183.6,6.0,-0.7,9.53,38.63,1.9854,393.6328],
    [8184,1537386734,53.9114,-109.9681,795.3,157.3,183.8,6.2,-1.8,9.47,38.38,1.9783,393.5027],
    [8185,1537386735,53.9107,-109.968,793.3,155.3,183.7,6.1,-1.6,9.45,38.23,1.9786,392.5352],
    [8186,1537386736,53.91,-109.968,791.8,153.8,184.2,6.6,-1.6,9.72,37.5,1.985,393.4024],
    [8187,1537386737,53.9093,-109.968,791.5,153.5,184.4,6.4,-2.2,9.49,37.78,1.9882,393.6284],
    [8188,1537386738,53.9086,-109.968,790.6,152.6,184.3,6.3,-2.2,9.7,37.45,1.9796,393.633],
    [8189,1537386739,53.9079,-109.968,788.5,150.5,184.2,6.1,-2.6,9.51,38.47,1.9785,393.8109],
    [8190,1537386740,53.9071,-109.968,786.6,148.6,184.1,6.1,-2.0,9.82,37.21,1.9907,394.6676],
    [8191,1537386741,53.9064,-109.968,785.6,153.8,184.2,6.1,-2.1,9.09,37.43,1.9971,393.9412],
    [8192,1537386742,53.9057,-109.968,785.3,156.3,183.6,5.2,-1.8,9.97,37.13,1.9973,394.646],
    [8193,1537386743,53.905,-109.968,785.7,156.7,184.0,5.5,-1.3,10.1,37.0,1.9978,394.4454],
    [8194,1537386744,53.9043,-109.968,785.7,148.2,184.6,6.3,0.6,9.4,38.58,2.0025,395.1369],
    [8195,1537386745,53.9036,-109.968,786.7,152.9,184.5,5.9,-0.4,9.73,38.15,2.0016,394.4631],
    [8196,1537386746,53.9029,-109.968,788.6,150.6,182.5,3.7,0.8,9.95,38.81,2.0057,393.7589],
    [8197,1537386747,53.9022,-109.968,788.7,150.7,183.8,5.2,1.7,9.68,39.16,2.0142,393.2153],
    [8198,1537386748,53.9015,-109.968,787.5,149.5,182.7,3.5,1.8,10.32,38.53,2.0134,394.583],
    [8199,1537386749,53.9007,-109.968,787.2,148.5,183.4,4.3,2.2,9.56,39.25,2.0113,394.8664],
    [8200,1537386750,53.9,-109.968,787.3,148.3,184.3,4.7,1.8,9.55,39.42,2.0064,393.2901],
    [8201,1537386751,53.8994,-109.968,787.0,148.0,184.3,4.4,1.1,9.53,39.4,2.0022,393.007],
    [8202,1537386752,53.8986,-109.9681,786.5,147.5,185.0,5.1,1.1,9.75,39.29,2.0048,393.4273],
    [8203,1537386753,53.8979,-109.9681,785.7,145.7,185.3,5.4,1.0,9.32,39.28,2.0074,393.8863],
    [8204,1537386754,53.8972,-109.9681,785.4,145.4,185.2,5.4,1.1,9.81,38.97,2.0061,393.8672],
    [8205,1537386755,53.8965,-109.9682,785.4,143.4,185.0,5.1,0.8,9.77,38.85,2.0031,393.7081],
    [8206,1537386756,53.8958,-109.9682,785.7,142.7,185.0,5.2,0.5,10.15,38.41,2.0025,393.7081],
    [8207,1537386757,53.8951,-109.9682,785.5,141.4,185.2,5.4,-0.1,9.77,38.76,2.0026,393.8212],
    [8208,1537386758,53.8944,-109.9682,784.8,139.8,185.0,5.2,-0.7,9.77,38.85,2.0038,394.0479],
    [8209,1537386759,53.8937,-109.9683,784.8,138.8,185.0,5.4,-0.8,9.89,38.3,2.0051,394.9645],
    [8210,1537386760,53.893,-109.9683,784.8,137.8,185.3,5.9,-0.6,9.78,38.58,2.0032,394.9645],
    [8211,1537386761,53.8923,-109.9683,784.1,136.7,185.7,6.0,-1.1,9.74,38.6,2.004,392.5296],
    [8212,1537386762,53.8916,-109.9683,783.9,135.2,185.7,6.2,-0.5,10.53,38.15,1.9995,393.543],
    [8213,1537386763,53.8909,-109.9683,784.0,134.9,186.1,6.6,-0.9,9.97,38.37,1.9964,393.638],
    [8214,1537386764,53.8902,-109.9684,783.7,133.1,185.7,6.3,-0.9,9.35,38.59,1.9967,394.4153],
    [8215,1537386765,53.8895,-109.9684,784.4,133.4,185.0,5.3,-1.4,9.73,38.57,1.9998,394.5778],
    [8216,1537386766,53.8888,-109.9684,786.6,133.6,183.1,3.4,-1.4,9.55,38.71,2.0011,393.6866],
    [8217,1537386767,53.8881,-109.9684,786.6,132.9,185.4,6.5,0.1,9.73,38.5,1.9997,393.8034],
    [8218,1537386768,53.8874,-109.9684,786.1,131.4,184.7,5.4,1.0,9.87,38.52,2.0063,392.7917],
    [8219,1537386769,53.8867,-109.9685,786.2,131.3,183.8,3.6,-0.9,9.64,38.69,2.0031,393.0084],
    [8220,1537386770,53.886,-109.9685,785.7,129.7,185.2,4.8,-1.7,9.81,38.71,1.9964,394.2451],
    [8221,1537386771,53.8853,-109.9685,784.4,128.6,186.1,5.5,-0.9,9.72,39.35,1.9965,394.0901],
    [8222,1537386772,53.8846,-109.9686,784.0,128.0,186.1,5.4,-0.6,9.81,39.38,2.0008,392.8661],
    [8223,1537386773,53.8839,-109.9686,784.3,128.3,184.7,3.5,0.0,9.51,38.68,2.0115,392.4347],
    [8224,1537386774,53.8831,-109.9687,784.9,129.6,184.0,3.0,1.0,9.81,38.9,2.0167,392.4347],
    [8225,1537386775,53.8824,-109.9687,784.9,129.9,183.0,1.6,0.3,9.61,39.0,2.0172,393.0785],
    [8226,1537386776,53.8817,-109.9687,784.0,129.0,182.2,1.2,2.1,9.74,39.32,2.0136,393.6091],
    [8227,1537386777,53.8811,-109.9688,783.9,129.9,183.9,3.3,1.3,9.94,40.2,2.0127,393.0558],
    [8228,1537386778,53.8803,-109.9688,784.3,130.3,184.0,2.9,0.6,9.9,39.93,2.0157,393.0987],
    [8229,1537386779,53.8796,-109.9688,784.6,130.6,183.6,2.6,1.1,9.99,39.93,2.0117,393.9769],
    [8230,1537386780,53.8789,-109.9689,784.7,130.0,185.3,4.4,-0.4,10.04,40.25,2.0102,393.9769],
    [8231,1537386781,53.8782,-109.9689,784.4,129.4,183.2,2.1,0.1,9.7,39.99,2.01,392.9625],
    [8232,1537386782,53.8775,-109.9689,784.1,129.1,183.2,2.9,2.4,9.59,40.02,2.0108,393.6555],
    [8233,1537386783,53.8768,-109.969,783.8,129.7,183.3,3.0,4.0,9.8,39.98,2.0092,393.8156],
    [8234,1537386784,53.8761,-109.969,784.1,130.1,182.4,1.9,3.4,9.79,40.02,2.0057,394.086],
    [8235,1537386785,53.8754,-109.969,784.5,130.5,182.5,1.8,2.5,10.08,39.87,1.9988,392.5975],
    [8236,1537386786,53.8747,-109.969,784.9,130.9,181.7,0.8,3.1,9.99,40.07,1.9956,393.8507],
    [8237,1537386787,53.874,-109.9691,785.1,130.5,182.4,1.5,1.8,10.16,39.77,1.9937,393.3534],
    [8238,1537386788,53.8733,-109.9691,784.8,129.0,184.0,3.7,2.5,10.03,39.99,1.9908,393.7147],
    [8239,1537386789,53.8726,-109.9691,784.0,127.8,186.6,6.9,2.2,10.11,40.24,1.9877,393.8552],
    [8240,1537386790,53.8719,-109.9692,783.5,125.8,185.9,6.1,2.6,10.17,39.62,1.987,394.1146],
    [8241,1537386791,53.8712,-109.9692,783.2,124.2,185.5,5.8,2.4,10.19,39.31,1.9858,392.7327],
    [8242,1537386792,53.8705,-109.9692,783.4,123.4,185.3,6.2,3.5,9.97,39.09,1.9822,393.3783],
    [8243,1537386793,53.8698,-109.9692,783.1,122.1,185.4,6.0,2.7,10.44,38.15,1.9778,393.4101],
    [8244,1537386794,53.8691,-109.9693,783.3,121.3,184.6,4.9,2.4,10.14,38.36,1.9795,393.6785],
    [8245,1537386795,53.8684,-109.9693,784.7,121.7,184.8,5.2,2.9,9.68,38.12,1.9791,393.6971],
    [8246,1537386796,53.8677,-109.9693,786.2,122.0,184.7,4.6,2.6,10.64,37.75,1.9781,393.5769],
    [8247,1537386797,53.8671,-109.9693,786.5,121.5,184.6,4.7,3.4,10.15,37.98,1.9767,393.0405],
    [8248,1537386798,53.8664,-109.9694,786.4,120.4,185.2,5.3,3.1,9.97,37.79,1.9715,392.5955],
    [8249,1537386799,53.8657,-109.9694,786.7,119.8,185.1,5.3,3.4,10.34,37.24,1.9711,392.9186],
    [8250,1537386800,53.865,-109.9694,787.2,119.0,185.1,5.2,2.8,10.17,37.16,1.971,393.1381],
    [8251,1537386801,53.8643,-109.9694,786.9,116.9,185.0,5.3,2.8,10.18,36.8,1.9707,393.6168],
    [8252,1537386802,53.8636,-109.9695,786.4,116.4,184.7,5.1,3.0,10.65,36.62,1.9733,392.441],
    [8253,1537386803,53.863,-109.9695,786.4,117.4,183.8,4.4,2.5,10.02,36.96,1.9728,394.5311],
    [8254,1537386804,53.8623,-109.9695,786.3,117.3,184.1,5.2,2.3,10.03,37.62,1.969,393.4975],
    [8255,1537386805,53.8616,-109.9695,785.4,115.5,183.6,4.8,2.2,9.92,37.14,1.9674,393.2269],
    [8256,1537386806,53.8609,-109.9695,784.9,113.9,183.6,5.3,2.5,9.51,36.74,1.9664,392.7199],
    [8257,1537386807,53.8603,-109.9695,784.4,111.4,183.9,5.4,1.7,9.79,36.6,1.9676,393.4113],
    [8258,1537386808,53.8596,-109.9695,784.2,110.2,183.3,4.7,1.4,10.2,36.35,1.9678,394.7124],
    [8259,1537386809,53.8589,-109.9695,783.5,108.6,184.7,5.8,1.6,10.07,36.7,1.964,393.2639],
    [8260,1537386810,53.8582,-109.9695,783.3,106.6,185.0,5.9,2.7,9.98,36.99,1.9676,393.4928],
    [8261,1537386811,53.8575,-109.9695,783.9,105.8,185.0,5.3,1.5,10.18,36.7,1.9683,393.104],
    [8262,1537386812,53.8569,-109.9695,784.3,105.0,184.7,4.6,0.8,9.94,36.24,1.9695,392.6705],
    [8263,1537386813,53.8562,-109.9696,783.9,103.9,185.0,5.2,1.6,10.03,36.47,1.9696,394.1525],
    [8264,1537386814,53.8555,-109.9696,783.9,102.9,185.2,5.5,1.3,9.94,36.25,1.9684,394.1525],
    [8265,1537386815,53.8548,-109.9696,784.2,102.5,184.7,5.2,1.2,9.91,36.4,1.9637,392.6846],
    [8266,1537386816,53.8542,-109.9696,784.3,102.3,184.1,5.0,1.3,10.13,36.25,1.9645,393.2019],
    [8267,1537386817,53.8535,-109.9696,784.7,102.7,184.1,5.3,1.1,10.73,35.73,1.9661,393.257],
    [8268,1537386818,53.8528,-109.9696,784.7,102.7,183.6,4.6,0.7,9.35,36.16,1.9698,392.9181],
    [8269,1537386819,53.8521,-109.9696,784.8,102.8,183.0,4.2,-0.1,10.09,36.08,1.9669,392.8811],
    [8270,1537386820,53.8515,-109.9696,784.8,102.8,183.5,5.1,0.9,9.98,36.39,1.9657,393.9221],
    [8271,1537386821,53.8508,-109.9696,785.1,103.1,183.7,5.6,0.8,9.95,36.02,1.9651,391.5729],
    [8272,1537386822,53.8501,-109.9696,785.1,103.1,184.1,5.8,0.5,10.06,36.3,1.9658,393.3008],
    [8273,1537386823,53.8494,-109.9696,784.8,103.8,184.2,6.0,0.2,9.37,36.26,1.9645,393.3008],
    [8274,1537386824,53.8488,-109.9696,784.7,103.7,184.0,5.4,0.3,9.76,36.31,1.9637,394.2181],
    [8275,1537386825,53.8481,-109.9696,784.4,104.4,183.2,4.4,0.6,9.92,36.29,1.9637,395.6315],
    [8276,1537386826,53.8474,-109.9696,783.7,104.7,183.5,4.8,0.0,10.27,36.36,1.9649,392.9797],
    [8277,1537386827,53.8467,-109.9696,783.8,105.1,183.4,4.6,-0.7,9.51,36.48,1.965,392.5914],
    [8278,1537386828,53.846,-109.9696,784.5,106.8,183.6,4.7,-1.0,9.41,36.13,1.9677,393.4673],
    [8279,1537386829,53.8454,-109.9696,785.1,108.1,183.7,4.2,-2.5,10.46,35.6,1.9746,392.7795],
    [8280,1537386830,53.8447,-109.9696,785.9,109.9,182.7,3.5,-0.5,9.93,36.59,1.9875,392.9413],
    [8281,1537386831,53.844,-109.9696,785.7,110.4,183.6,4.7,0.0,9.49,36.39,1.9935,394.7934],
    [8282,1537386832,53.8433,-109.9696,786.2,111.2,182.0,3.2,-1.3,9.9,37.36,1.9942,394.2524],
    [8283,1537386833,53.8427,-109.9696,786.4,111.7,182.6,4.5,-1.1,9.56,37.38,1.984,394.3455],
    [8284,1537386834,53.842,-109.9696,785.3,111.3,182.3,3.9,-1.3,10.09,37.35,1.9764,393.6504],
    [8285,1537386835,53.8413,-109.9695,783.7,109.7,181.3,2.7,-1.3,9.36,37.81,1.9869,394.1754],
    [8286,1537386836,53.8406,-109.9695,783.1,110.1,182.6,3.8,-1.3,9.46,38.07,1.996,395.0186],
    [8287,1537386837,53.8399,-109.9695,784.4,111.4,183.3,3.8,-0.9,10.52,37.32,2.0015,394.2274],
    [8288,1537386838,53.8392,-109.9695,785.9,112.9,183.1,3.7,-1.2,10.08,37.95,2.0041,393.1197],
    [8289,1537386839,53.8386,-109.9695,786.8,113.8,183.6,4.7,2.5,9.25,38.69,2.0044,394.3653],
    [8290,1537386840,53.8379,-109.9696,787.1,114.1,183.6,4.5,1.9,9.92,39.68,2.0042,393.0423],
    [8291,1537386841,53.8372,-109.9696,787.9,115.9,181.1,1.8,0.2,9.42,39.73,2.0051,393.0423],
    [8292,1537386842,53.8365,-109.9695,788.5,116.5,181.5,3.1,1.4,9.78,40.28,1.9938,395.1344],
    [8293,1537386843,53.8358,-109.9695,787.7,116.7,182.6,5.1,0.5,9.91,40.46,1.9941,391.9736],
    [8294,1537386844,53.8351,-109.9695,786.2,115.2,182.7,5.4,0.2,10.56,40.13,1.9924,394.6565],
    [8295,1537386845,53.8345,-109.9695,785.1,115.1,181.7,3.9,0.6,9.89,40.58,1.995,392.1905],
    [8296,1537386846,53.8338,-109.9694,785.0,115.0,180.7,2.7,0.3,9.96,40.06,1.9947,393.0274],
    [8297,1537386847,53.8331,-109.9694,785.6,117.3,181.2,3.1,0.3,10.38,39.84,1.994,392.0057],
    [8298,1537386848,53.8324,-109.9694,786.0,119.0,181.4,2.8,0.6,10.08,39.94,1.9942,394.0304],
    [8299,1537386849,53.8317,-109.9694,787.3,121.6,182.1,2.8,0.8,9.93,40.51,1.9981,393.1751],
    [8300,1537386850,53.831,-109.9694,789.6,124.9,182.7,2.9,2.2,10.02,39.98,1.9981,392.3815],
    [8301,1537386851,53.8304,-109.9694,790.8,126.8,185.1,6.0,0.9,10.1,40.0,1.9972,392.8699],
    [8302,1537386852,53.8297,-109.9694,791.4,126.8,185.5,5.8,-0.5,10.29,39.84,1.9952,393.39],
    [8303,1537386853,53.829,-109.9694,793.1,128.2,183.5,3.5,-0.4,9.94,40.16,2.0037,393.8142],
    [8304,1537386854,53.8283,-109.9695,793.7,127.5,182.9,3.2,-0.6,10.63,39.74,2.0102,393.167],
    [8305,1537386855,53.8276,-109.9695,793.5,129.5,184.0,4.5,-0.3,9.44,40.09,2.0137,391.5054],
    [8306,1537386856,53.827,-109.9695,794.1,130.1,182.9,2.6,-0.8,9.8,40.68,2.0239,392.8005],
    [8307,1537386857,53.8263,-109.9695,795.8,131.8,181.5,1.1,0.3,9.98,40.95,2.0228,393.5439],
    [8308,1537386858,53.8256,-109.9695,798.1,134.1,183.4,3.7,1.8,9.94,40.94,2.0148,393.4592],
    [8309,1537386859,53.825,-109.9695,799.8,132.3,185.2,5.3,1.2,9.92,41.1,2.0064,393.386],
    [8310,1537386860,53.8243,-109.9696,800.6,131.6,184.2,4.4,2.4,9.3,41.31,2.005,392.792],
    [8311,1537386861,53.8236,-109.9696,802.5,133.5,185.5,6.6,3.0,10.27,41.1,2.0189,394.1362],
    [8312,1537386862,53.823,-109.9696,804.2,135.2,185.6,7.1,3.2,9.97,42.12,2.0164,392.547],
    [8313,1537386863,53.8223,-109.9696,805.3,135.3,184.8,6.5,2.4,9.96,41.73,2.0162,393.6364],
    [8314,1537386864,53.8216,-109.9696,805.9,135.0,184.5,6.6,2.6,10.09,40.83,2.0349,401.0383],
    [8315,1537386865,53.821,-109.9696,807.5,135.5,183.0,4.7,1.8,10.0,41.45,2.0498,400.7577],
    [8316,1537386866,53.8203,-109.9695,810.4,138.4,181.8,4.2,2.1,9.61,41.59,2.0493,402.4035],
    [8317,1537386867,53.8196,-109.9695,813.6,141.6,182.6,4.9,3.1,10.05,42.18,2.0467,400.7957],
    [8318,1537386868,53.819,-109.9695,814.3,143.4,183.8,5.5,3.1,9.89,41.69,2.0389,392.3834],
    [8319,1537386869,53.8183,-109.9695,814.5,143.5,183.3,3.9,4.5,9.99,42.29,2.0335,392.3834],
    [8320,1537386870,53.8177,-109.9695,815.2,144.2,184.2,4.6,5.3,9.91,42.6,2.03,393.1793],
    [8321,1537386871,53.817,-109.9695,815.1,143.1,185.3,5.7,4.8,9.24,41.82,2.0221,393.1644],
    [8322,1537386872,53.8164,-109.9696,814.6,136.6,185.7,6.1,4.1,9.77,42.36,2.0174,392.9725],
    [8323,1537386873,53.8157,-109.9696,814.7,131.0,185.5,6.0,3.6,10.01,41.71,2.0272,392.8494],
    [8324,1537386874,53.8151,-109.9696,816.2,131.5,184.3,4.3,2.7,9.72,42.33,2.0265,391.9705],
    [8325,1537386875,53.8144,-109.9696,817.9,137.0,183.9,4.5,2.3,9.37,41.47,2.0296,392.9829],
    [8326,1537386876,53.8138,-109.9696,818.2,138.2,185.2,5.9,1.3,9.49,41.8,2.0206,394.3935],
    [8327,1537386877,53.8131,-109.9696,817.5,137.5,183.8,4.5,3.7,9.86,41.62,1.9952,393.3694],
    [8328,1537386878,53.8125,-109.9696,815.9,135.8,182.6,3.5,3.4,9.86,41.85,1.992,392.8097],
    [8329,1537386879,53.8118,-109.9696,814.3,135.3,183.3,4.6,2.5,10.41,40.83,2.0024,392.0133],
    [8330,1537386880,53.8112,-109.9696,813.4,134.4,184.2,6.2,3.2,10.41,40.9,2.0198,392.5598],
    [8331,1537386881,53.8106,-109.9696,813.1,133.0,184.9,6.4,3.1,9.88,41.43,2.0335,394.6237],
    [8332,1537386882,53.8099,-109.9696,812.4,132.5,183.3,4.0,3.4,9.72,40.56,2.0641,394.6237],
    [8333,1537386883,53.8092,-109.9696,812.4,131.7,184.2,4.6,3.4,9.67,40.82,2.0815,393.7242],
    [8334,1537386884,53.8086,-109.9697,812.5,132.8,184.4,4.4,2.6,9.58,40.71,2.0815,393.3671],
    [8335,1537386885,53.8079,-109.9697,812.4,134.4,184.2,4.2,1.7,9.41,40.72,2.0947,393.8154],
    [8336,1537386886,53.8073,-109.9697,813.9,136.8,181.9,2.2,1.7,9.87,40.98,2.0983,393.8154],
    [8337,1537386887,53.8066,-109.9697,815.7,140.8,181.4,1.9,2.9,9.79,41.28,2.1007,394.4171],
    [8338,1537386888,53.806,-109.9697,815.9,142.0,181.8,2.8,2.4,9.63,42.08,2.0962,392.033],
    [8339,1537386889,53.8053,-109.9697,815.0,141.0,184.9,6.4,2.7,9.94,41.49,2.04,393.4951],
    [8340,1537386890,53.8047,-109.9697,814.2,141.2,185.7,6.4,2.9,9.52,41.58,2.0707,392.5629],
    [8341,1537386891,53.804,-109.9697,813.6,141.6,186.2,5.9,2.9,10.01,41.28,2.0838,392.928],
    [8342,1537386892,53.8034,-109.9698,814.3,143.6,184.8,3.1,2.3,10.21,40.63,2.0811,391.4434],
    [8343,1537386893,53.8027,-109.9698,816.4,146.4,184.7,3.3,3.6,10.43,40.74,2.1163,393.1216],
    [8344,1537386894,53.8021,-109.9699,817.4,148.5,186.8,5.1,2.5,9.58,41.42,2.1252,393.7986],
    [8345,1537386895,53.8014,-109.9699,818.2,151.2,185.4,3.1,3.1,10.24,40.85,2.1252,393.1585],
    [8346,1537386896,53.8008,-109.97,818.8,154.6,185.5,3.3,2.6,10.12,41.65,2.0291,392.3947],
    [8347,1537386897,53.8001,-109.97,818.4,156.2,186.5,4.3,2.1,10.35,41.21,2.0301,393.588],
    [8348,1537386898,53.7995,-109.9701,817.9,156.6,186.4,4.4,1.6,9.52,42.29,2.0264,393.1098],
    [8349,1537386899,53.7988,-109.9702,817.2,156.8,187.2,6.0,1.6,9.62,41.62,2.0489,394.2314],
    [8350,1537386900,53.7982,-109.9702,816.1,156.8,187.2,6.2,1.6,9.29,42.05,2.0463,394.3486],
    [8351,1537386901,53.7975,-109.9703,815.6,157.4,185.5,5.3,1.3,9.99,41.43,2.065,394.2001],
    [8352,1537386902,53.7969,-109.9703,814.6,157.3,184.8,5.2,1.7,9.61,41.51,2.0202,393.3857],
    [8353,1537386903,53.7962,-109.9703,813.7,157.7,182.6,3.8,2.1,9.33,41.33,2.0105,392.9133],
    [8354,1537386904,53.7955,-109.9703,813.1,158.1,181.8,3.9,3.4,9.17,41.05,2.0915,393.7169],
    [8355,1537386905,53.7949,-109.9702,814.0,159.3,180.6,3.1,3.6,10.22,40.76,2.1116,392.6117],
    [8356,1537386906,53.7942,-109.9702,815.8,175.8,181.1,3.4,1.5,9.72,41.49,2.0612,393.4301],
    [8357,1537386907,53.7936,-109.9702,816.4,176.4,181.6,3.3,0.0,9.65,41.28,2.058,393.2496],
    [8358,1537386908,53.7929,-109.9702,815.6,175.6,183.1,4.1,-0.6,10.09,41.58,2.0509,393.5845],
    [8359,1537386909,53.7922,-109.9702,816.0,176.0,183.3,4.1,2.9,10.5,41.54,2.0396,393.1864],
    [8360,1537386910,53.7916,-109.9702,816.0,176.0,184.1,4.9,2.0,9.91,42.18,2.0204,393.6664],
    [8361,1537386911,53.7909,-109.9702,815.5,174.5,184.1,4.8,1.6,10.39,41.95,2.0417,393.3432],
    [8362,1537386912,53.7903,-109.9702,815.8,175.8,183.9,4.3,2.8,9.98,42.15,2.0835,394.3352],
    [8363,1537386913,53.7896,-109.9702,816.6,176.6,183.0,3.1,2.8,10.34,42.65,2.1217,393.9111],
    [8364,1537386914,53.7889,-109.9702,816.4,176.4,184.8,5.0,0.9,9.67,43.74,2.1089,393.9111],
    [8365,1537386915,53.7883,-109.9702,815.7,175.7,185.7,5.4,1.3,9.65,44.52,2.0872,394.6568],
    [8366,1537386916,53.7876,-109.9703,815.5,175.5,184.9,4.8,1.6,9.68,44.17,2.0791,392.5905],
    [8367,1537386917,53.7869,-109.9703,814.9,174.9,186.0,6.2,1.6,10.37,43.76,2.0367,392.5905],
    [8368,1537386918,53.7863,-109.9703,813.8,158.8,185.7,6.1,1.5,9.53,44.25,2.0045,393.749],
    [8369,1537386919,53.7856,-109.9704,813.1,158.1,185.1,5.6,1.4,9.71,43.63,2.0553,394.0862],
    [8370,1537386920,53.7849,-109.9704,814.2,161.3,184.6,5.2,0.0,9.26,43.02,2.0558,393.4274],
    [8371,1537386921,53.7843,-109.9704,816.0,163.1,184.3,5.2,0.0,9.58,42.54,2.1905,392.7639],
    [8372,1537386922,53.7836,-109.9704,817.1,162.1,184.4,5.3,0.1,9.55,42.6,2.4524,392.4924],
    [8373,1537386923,53.7829,-109.9704,817.7,162.7,184.0,5.2,1.1,9.76,42.5,2.5289,392.0267],
    [8374,1537386924,53.7823,-109.9704,818.5,162.8,184.3,5.1,0.9,9.14,42.65,2.4936,392.2581],
    [8375,1537386925,53.7816,-109.9704,818.8,161.1,184.7,5.8,2.6,10.18,43.02,2.4611,392.951],
    [8376,1537386926,53.7809,-109.9704,817.7,160.0,185.5,6.4,2.6,9.54,43.83,2.4446,392.9187],
    [8377,1537386927,53.7802,-109.9704,817.3,160.3,183.6,4.1,3.4,9.54,44.3,2.2049,394.5056],
    [8378,1537386928,53.7796,-109.9704,816.4,159.4,186.0,6.6,2.9,9.74,43.87,2.2343,392.6031],
    [8379,1537386929,53.7789,-109.9705,815.6,158.6,185.2,5.5,3.2,9.43,44.13,2.4274,392.231],
    [8380,1537386930,53.7782,-109.9705,814.7,156.7,185.3,5.5,2.7,9.72,44.31,2.4705,393.2405],
    [8381,1537386931,53.7775,-109.9705,813.2,156.2,184.6,4.6,2.2,9.69,44.34,2.1781,392.8116],
    [8382,1537386932,53.7768,-109.9705,812.4,155.4,185.7,6.1,1.9,9.52,44.01,2.0613,392.183],
    [8383,1537386933,53.7762,-109.9706,813.5,155.3,186.1,6.0,1.1,9.37,43.99,2.0476,392.7981],
    [8384,1537386934,53.7755,-109.9706,815.4,153.3,185.4,5.8,2.1,9.57,44.03,2.0413,393.2251],
    [8385,1537386935,53.7748,-109.9706,816.0,154.1,185.9,7.0,1.2,9.76,43.78,2.0335,393.1773],
    [8386,1537386936,53.7741,-109.9706,815.3,154.3,185.6,7.4,1.3,9.58,44.29,2.0341,392.2918],
    [8387,1537386937,53.7734,-109.9706,815.5,152.3,183.9,6.2,0.6,9.79,44.02,2.032,392.8111],
    [8388,1537386938,53.7728,-109.9706,815.8,151.8,183.0,5.6,1.9,9.75,44.5,2.0319,393.5244],
    [8389,1537386939,53.7721,-109.9706,815.5,151.5,181.5,4.2,1.3,9.47,44.1,2.0204,393.8188],
    [8390,1537386940,53.7714,-109.9705,814.6,150.7,182.6,5.4,1.2,9.51,44.29,2.0207,393.8215],
    [8391,1537386941,53.7707,-109.9705,815.0,150.0,182.7,5.2,0.6,9.45,43.92,2.0253,392.9074],
    [8392,1537386942,53.7701,-109.9705,815.9,150.9,182.6,4.7,0.1,9.72,43.8,2.0177,392.5811],
    [8393,1537386943,53.7694,-109.9705,815.8,149.8,182.9,4.7,0.1,9.68,44.28,2.0012,392.6702],
    [8394,1537386944,53.7687,-109.9705,815.5,149.5,183.2,4.6,1.0,9.68,43.44,2.0108,392.0612],
    [8395,1537386945,53.768,-109.9705,818.0,152.0,183.4,4.3,1.1,9.4,43.38,2.023,392.0179],
    [8396,1537386946,53.7674,-109.9705,821.1,155.1,182.8,3.1,0.2,9.68,43.58,2.0266,392.3714],
    [8397,1537386947,53.7667,-109.9705,823.6,157.6,183.4,4.0,1.4,9.3,42.52,2.0271,392.9594],
    [8398,1537386948,53.7661,-109.9705,825.0,159.0,184.5,5.3,2.9,9.24,43.04,2.0166,393.5456],
    [8399,1537386949,53.7653,-109.9705,824.6,158.6,184.8,5.7,3.7,9.55,42.61,2.0131,392.9848],
    [8400,1537386950,53.7647,-109.9705,823.0,157.0,185.3,6.3,2.5,9.68,42.24,1.9984,393.4167],
    [8401,1537386951,53.764,-109.9705,821.3,155.3,185.0,5.9,0.6,9.86,41.85,2.0003,392.3204],
    [8402,1537386952,53.7633,-109.9705,819.6,153.6,184.5,5.4,1.1,9.63,41.66,2.0012,393.0255],
    [8403,1537386953,53.7627,-109.9705,818.4,152.4,184.1,4.9,1.0,9.74,41.84,1.9956,393.5325],
    [8404,1537386954,53.762,-109.9706,817.1,151.1,183.6,4.4,1.1,9.17,40.89,1.9837,391.8976],
    [8405,1537386955,53.7613,-109.9706,815.7,150.0,183.5,4.1,1.4,9.08,40.35,2.0183,391.8976],
    [8406,1537386956,53.7606,-109.9706,815.3,149.6,182.9,3.1,0.5,9.14,40.48,2.0256,394.5718],
    [8407,1537386957,53.7599,-109.9706,816.2,150.2,182.8,3.0,0.2,9.74,40.33,2.0252,393.7886],
    [8408,1537386958,53.7593,-109.9706,817.5,151.5,182.9,3.2,0.8,9.54,40.7,2.0224,393.5901],
    [8409,1537386959,53.7586,-109.9706,817.6,151.6,183.1,3.5,2.6,9.54,41.93,2.0201,394.044],
    [8410,1537386960,53.7579,-109.9706,817.0,150.0,182.9,2.9,2.0,9.64,41.51,2.025,393.4128],
    [8411,1537386961,53.7573,-109.9706,816.7,149.7,182.5,2.2,1.3,9.33,41.64,2.0251,394.2428],
    [8412,1537386962,53.7566,-109.9707,816.9,149.7,182.8,1.8,0.4,9.71,41.33,2.0272,394.5542],
    [8413,1537386963,53.7559,-109.9707,817.8,150.5,184.1,3.1,2.0,9.97,42.0,2.029,393.1236],
    [8414,1537386964,53.7552,-109.9707,818.3,151.2,185.3,4.5,0.8,8.81,42.32,2.0253,393.7537],
    [8415,1537386965,53.7545,-109.9708,818.1,151.2,185.5,4.4,1.4,10.02,41.89,2.0239,393.4534],
    [8416,1537386966,53.7538,-109.9708,816.8,150.6,185.0,3.8,1.7,9.59,43.02,2.0262,392.9436],
    [8417,1537386967,53.7532,-109.9709,815.0,149.1,185.9,4.9,1.7,9.65,42.85,2.0343,392.9436],
    [8418,1537386968,53.7525,-109.9709,816.2,151.3,185.7,4.5,3.4,9.96,42.16,2.04,393.7308],
    [8419,1537386969,53.7518,-109.971,819.4,155.4,184.2,2.7,2.9,10.28,42.57,2.0512,394.7879],
    [8420,1537386970,53.7511,-109.971,822.6,159.8,184.2,3.5,3.2,9.6,43.61,2.0491,394.1679],
    [8421,1537386971,53.7505,-109.971,823.9,163.1,186.3,6.4,1.3,10.26,43.42,2.0418,394.1086],
    [8422,1537386972,53.7498,-109.9711,823.6,164.8,186.1,6.2,0.6,9.82,44.24,2.0494,394.1799],
    [8423,1537386973,53.7491,-109.9711,821.8,165.4,185.2,5.5,0.6,10.26,44.49,2.0251,393.3142],
    [8424,1537386974,53.7484,-109.9711,820.0,164.9,184.7,5.1,0.5,9.64,45.33,2.0085,393.8612],
    [8425,1537386975,53.7478,-109.9711,818.7,164.7,184.0,4.4,0.7,9.58,44.85,2.0249,394.5289],
    [8426,1537386976,53.7471,-109.9711,817.8,164.8,184.1,4.7,2.2,9.36,44.19,2.025,393.3151],
    [8427,1537386977,53.7464,-109.9712,817.2,164.2,183.8,4.4,1.6,9.51,43.76,2.0247,392.8628],
    [8428,1537386978,53.7457,-109.9712,816.6,164.7,184.1,4.7,1.0,8.92,43.59,2.0272,394.6059],
    [8429,1537386979,53.745,-109.9712,816.0,164.4,183.9,4.6,0.4,9.81,43.32,2.0445,393.7522],
    [8430,1537386980,53.7443,-109.9712,815.8,164.9,183.6,4.5,0.8,9.2,43.52,2.0453,394.2259],
    [8431,1537386981,53.7437,-109.9712,816.2,166.2,183.7,4.9,1.0,10.36,43.38,2.0472,394.8666],
    [8432,1537386982,53.743,-109.9712,816.9,166.9,183.8,4.9,0.1,9.15,43.98,2.0513,394.8737],
    [8433,1537386983,53.7423,-109.9712,818.1,168.1,182.2,3.0,0.1,9.39,44.63,2.0523,394.7313],
    [8434,1537386984,53.7416,-109.9712,818.7,169.7,182.5,3.3,0.6,9.18,45.12,2.0528,394.2148],
    [8435,1537386985,53.7409,-109.9712,817.9,168.9,182.4,2.7,0.1,9.14,45.67,2.0537,393.1904],
    [8436,1537386986,53.7402,-109.9712,816.5,167.5,183.3,3.5,0.8,9.27,45.97,2.0552,394.222],
    [8437,1537386987,53.7396,-109.9712,815.5,166.5,183.5,3.3,-0.1,9.55,46.46,2.056,394.9492],
    [8438,1537386988,53.7389,-109.9712,815.1,166.1,183.5,3.2,0.1,9.11,46.7,2.0554,395.8975],
    [8439,1537386989,53.7382,-109.9713,814.9,165.2,184.1,3.8,0.3,10.12,46.46,2.0543,395.8975],
    [8440,1537386990,53.7375,-109.9713,815.8,165.8,184.1,3.8,1.5,9.07,46.94,2.0488,392.7354],
    [8441,1537386991,53.7369,-109.9713,817.9,167.6,184.0,3.8,0.6,9.4,47.79,2.0451,394.3979],
    [8442,1537386992,53.7361,-109.9713,818.9,167.9,184.2,4.1,1.4,9.59,48.17,2.0432,394.447],
    [8443,1537386993,53.7354,-109.9714,818.6,166.6,183.2,3.2,1.2,9.76,47.7,2.044,394.3279],
    [8444,1537386994,53.7348,-109.9714,818.6,166.6,182.6,2.9,1.8,9.67,47.11,2.0424,393.8344],
    [8445,1537386995,53.7341,-109.9714,819.1,166.1,182.8,3.4,1.8,8.94,47.81,2.0416,394.7326],
    [8446,1537386996,53.7334,-109.9714,819.0,165.0,182.5,2.9,2.1,8.79,47.85,2.0423,394.7722],
    [8447,1537386997,53.7327,-109.9714,818.3,163.2,182.6,3.0,1.4,9.43,48.49,2.0441,393.1695],
    [8448,1537386998,53.732,-109.9714,818.0,163.0,182.8,3.1,0.9,9.57,47.96,2.0454,393.4337],
    [8449,1537386999,53.7313,-109.9714,817.1,160.4,184.7,5.1,0.5,9.71,46.98,2.0461,395.0779],
    [8450,1537387000,53.7306,-109.9714,816.1,159.1,184.1,4.0,0.7,9.89,47.37,2.0439,393.183],
    [8451,1537387001,53.73,-109.9715,815.7,158.9,183.5,3.5,1.1,9.37,47.92,2.0409,393.6345],
    [8452,1537387002,53.7293,-109.9715,815.9,160.7,183.4,3.3,0.8,9.14,47.82,2.0381,393.628],
    [8453,1537387003,53.7286,-109.9715,816.1,160.6,183.1,2.8,0.2,9.63,47.23,2.0368,394.3012],
    [8454,1537387004,53.7279,-109.9715,816.2,159.1,182.5,2.3,0.8,9.7,47.25,2.0367,393.2545],
    [8455,1537387005,53.7272,-109.9715,816.2,159.1,182.8,2.8,0.7,9.82,47.23,2.0362,393.1096],
    [8456,1537387006,53.7265,-109.9715,816.4,161.8,183.3,3.2,0.6,9.38,48.04,2.039,393.8381],
    [8457,1537387007,53.7259,-109.9716,816.3,163.5,183.7,3.7,0.2,9.16,47.35,2.0417,394.6249],
    [8458,1537387008,53.7252,-109.9716,815.6,162.6,183.7,3.6,0.3,9.4,47.61,2.0424,393.6099],
    [8459,1537387009,53.7245,-109.9716,815.4,166.2,183.8,3.7,0.6,8.79,47.35,2.0392,393.57],
    [8460,1537387010,53.7238,-109.9716,815.9,169.8,183.6,3.3,0.6,9.35,47.46,2.0398,394.1999],
    [8461,1537387011,53.7231,-109.9716,815.8,167.5,183.5,3.4,0.8,9.29,48.22,2.0358,394.8011],
    [8462,1537387012,53.7224,-109.9717,815.8,159.0,184.1,4.4,1.5,8.82,47.41,2.0348,393.8601],
    [8463,1537387013,53.7218,-109.9717,816.1,159.0,184.5,4.8,0.7,9.11,47.62,2.0348,393.8847],
    [8464,1537387014,53.7211,-109.9717,816.6,162.0,184.2,4.5,0.3,9.13,47.65,2.0338,394.5445],
    [8465,1537387015,53.7204,-109.9717,816.7,167.1,184.1,4.5,-0.5,10.05,47.15,2.0344,394.096],
    [8466,1537387016,53.7197,-109.9717,816.2,173.0,184.1,4.7,-0.7,9.55,47.37,2.03,393.8159],
    [8467,1537387017,53.7191,-109.9717,815.5,183.9,183.8,4.6,-0.4,9.08,47.85,2.0242,392.7551],
    [8468,1537387018,53.7184,-109.9717,815.3,192.9,183.5,4.5,-0.6,9.63,46.92,2.0133,395.4305],
    [8469,1537387019,53.7177,-109.9717,815.5,200.2,183.4,4.8,-0.7,10.0,46.28,2.0041,394.0972],
    [8470,1537387020,53.717,-109.9717,815.9,204.0,184.1,5.9,0.4,9.38,46.38,1.9959,393.7501],
    [8471,1537387021,53.7163,-109.9717,816.2,207.2,183.3,4.9,-0.9,9.52,45.33,1.9933,392.4282],
    [8472,1537387022,53.7157,-109.9717,816.3,209.2,183.2,5.1,-0.7,9.61,45.18,1.9949,393.2081],
    [8473,1537387023,53.715,-109.9717,816.3,210.3,183.2,4.9,-0.9,9.08,44.2,1.9934,393.2182],
    [8474,1537387024,53.7143,-109.9717,816.2,211.4,183.0,4.4,-0.9,9.96,43.24,1.9938,393.1164],
    [8475,1537387025,53.7136,-109.9717,816.0,211.0,183.7,4.8,-1.6,9.21,43.22,1.9981,393.6868],
    [8476,1537387026,53.713,-109.9717,815.4,211.4,183.6,4.5,-1.7,8.63,42.73,2.0132,393.6868],
    [8477,1537387027,53.7123,-109.9717,814.7,211.8,183.4,4.3,-2.1,9.23,42.85,2.0101,393.5101],
    [8478,1537387028,53.7116,-109.9717,813.7,211.7,183.7,4.7,-2.3,9.39,43.1,2.0058,394.203],
    [8479,1537387029,53.7109,-109.9717,812.6,211.8,184.2,5.2,-2.7,10.0,42.71,1.9973,393.2397],
    [8480,1537387030,53.7102,-109.9717,811.2,211.2,184.1,5.2,-3.1,8.78,42.98,2.0009,392.7053],
    [8481,1537387031,53.7095,-109.9717,809.8,210.8,183.9,4.9,-3.3,9.39,42.79,2.0147,393.784],
    [8482,1537387032,53.7088,-109.9717,809.7,210.7,181.8,2.7,-2.0,9.33,43.03,2.0228,393.7125],
    [8483,1537387033,53.7081,-109.9717,810.0,212.0,181.6,2.7,-1.5,9.21,42.88,2.0253,395.5056],
    [8484,1537387034,53.7074,-109.9717,809.6,210.6,181.4,2.4,-2.1,8.85,43.36,2.0282,395.3091],
    [8485,1537387035,53.7067,-109.9717,809.1,210.1,181.8,2.5,-2.8,9.51,43.97,2.0264,393.3524],
    [8486,1537387036,53.7061,-109.9717,809.2,209.2,181.2,1.2,-1.3,9.73,44.76,2.0263,393.2162],
    [8487,1537387037,53.7054,-109.9717,809.1,208.1,181.1,0.5,-1.3,8.85,45.42,2.0241,394.2494],
    [8488,1537387038,53.7047,-109.9717,808.6,206.6,183.8,3.2,-0.1,9.67,45.36,2.017,394.7073],
    [8489,1537387039,53.704,-109.9717,808.3,205.6,185.2,4.1,1.0,8.73,46.11,2.0091,394.4565],
    [8490,1537387040,53.7032,-109.9718,807.2,203.5,185.3,4.0,1.6,9.77,45.67,2.0057,392.7666],
    [8491,1537387041,53.7025,-109.9719,806.6,202.6,186.5,5.1,1.5,9.51,46.37,2.0044,394.4273],
    [8492,1537387042,53.7019,-109.9719,806.3,201.3,186.1,4.2,2.8,9.81,45.19,2.0049,392.7224],
    [8493,1537387043,53.7011,-109.972,805.2,201.2,185.7,4.1,2.9,9.16,45.65,2.0038,394.0773],
    [8494,1537387044,53.7004,-109.972,804.0,200.0,186.4,5.2,2.6,8.82,45.24,2.0061,393.8556],
    [8495,1537387045,53.6997,-109.9721,804.3,197.3,185.8,4.3,1.4,9.03,45.22,2.0055,392.5376],
    [8496,1537387046,53.699,-109.9722,804.2,195.5,184.7,3.4,2.5,9.32,44.83,2.0051,392.6809],
    [8497,1537387047,53.6983,-109.9722,803.8,193.8,184.9,4.3,2.3,9.43,45.31,1.9987,393.0751],
    [8498,1537387048,53.6976,-109.9722,801.7,190.4,185.2,4.7,2.2,9.62,44.62,1.9978,393.9229],
    [8499,1537387049,53.6969,-109.9723,800.0,186.7,184.7,4.7,2.8,9.48,44.3,1.9999,391.1939],
    [8500,1537387050,53.6962,-109.9723,798.7,183.7,185.2,5.1,3.0,9.58,43.77,2.0013,393.8011],
    [8501,1537387051,53.6954,-109.9724,797.8,180.1,184.9,4.9,2.5,10.0,43.47,2.004,394.1498],
    [8502,1537387052,53.6947,-109.9724,797.0,177.5,184.7,5.0,1.4,9.35,43.5,2.0047,394.1498],
    [8503,1537387053,53.694,-109.9724,796.2,174.6,184.0,4.6,1.2,9.08,43.42,2.0021,394.0384],
    [8504,1537387054,53.6933,-109.9724,795.6,171.6,183.9,4.9,1.5,9.66,43.95,2.0035,394.3219],
    [8505,1537387055,53.6926,-109.9724,794.8,170.7,182.5,2.7,1.1,9.66,43.53,2.0053,394.4423],
    [8506,1537387056,53.6919,-109.9724,794.5,172.6,181.6,2.1,2.3,9.37,43.63,2.0038,393.068],
    [8507,1537387057,53.6912,-109.9724,792.9,172.2,184.5,5.6,2.1,9.52,44.11,2.002,393.3617],
    [8508,1537387058,53.6904,-109.9725,791.3,172.4,184.2,4.6,1.7,9.78,44.14,2.0011,394.1372],
    [8509,1537387059,53.6897,-109.9725,790.6,172.6,184.8,5.1,1.6,9.48,43.89,2.0007,393.7489],
    [8510,1537387060,53.689,-109.9725,790.0,172.7,185.3,5.2,0.4,9.03,43.45,1.9999,393.4208],
    [8511,1537387061,53.6883,-109.9725,789.2,172.2,184.9,5.0,2.0,9.97,43.44,1.997,392.6109],
    [8512,1537387062,53.6876,-109.9726,788.0,171.3,185.8,6.4,1.2,9.52,43.33,1.9934,393.5415],
    [8513,1537387063,53.6869,-109.9726,786.9,170.2,185.2,5.7,0.6,9.52,43.24,1.9916,393.3031],
    [8514,1537387064,53.6861,-109.9726,786.8,170.9,184.9,5.8,1.0,9.47,43.48,1.9961,393.5312],
    [8515,1537387065,53.6854,-109.9726,787.3,171.3,183.7,4.3,0.9,9.38,42.55,2.0029,394.5559],
    [8516,1537387066,53.6847,-109.9726,787.5,172.5,183.1,4.0,1.0,9.52,42.51,2.0052,394.5703],
    [8517,1537387067,53.684,-109.9726,787.0,173.0,183.8,4.8,0.5,9.68,43.0,1.9992,393.7076],
    [8518,1537387068,53.6833,-109.9727,786.1,174.1,183.9,5.1,1.0,9.03,42.66,1.9904,394.2264],
    [8519,1537387069,53.6826,-109.9727,786.0,173.9,184.2,5.4,1.1,9.65,42.69,1.9981,394.3581],
    [8520,1537387070,53.6818,-109.9727,786.7,174.9,183.8,4.8,1.2,9.33,42.4,2.0107,394.1049],
    [8521,1537387071,53.6812,-109.9727,787.4,176.4,183.6,4.5,1.5,9.66,42.94,2.0083,394.6249],
    [8522,1537387072,53.6804,-109.9727,787.5,177.5,183.1,3.7,1.4,9.77,43.58,2.0127,394.7898],
    [8523,1537387073,53.6797,-109.9727,787.6,178.3,183.2,3.7,0.3,9.43,43.18,2.0104,394.2315],
    [8524,1537387074,53.679,-109.9727,787.0,177.8,184.0,4.3,-0.7,9.74,43.56,2.0073,394.669],
    [8525,1537387075,53.6783,-109.9727,786.2,178.2,184.3,4.6,-0.2,9.76,44.47,2.0041,393.4877],
    [8526,1537387076,53.6776,-109.9727,786.4,179.4,183.7,4.0,-1.1,9.95,43.87,1.9977,394.4751],
    [8527,1537387077,53.6769,-109.9728,786.3,180.3,184.5,5.0,-1.2,9.06,44.15,2.0043,394.5709],
    [8528,1537387078,53.6762,-109.9728,786.1,181.1,183.4,3.8,-0.7,10.35,43.59,2.0066,393.7384],
    [8529,1537387079,53.6755,-109.9728,786.2,182.2,183.1,3.5,-0.3,10.04,43.56,2.0099,394.4203],
    [8530,1537387080,53.6748,-109.9728,786.3,184.0,183.1,3.6,-0.8,9.46,43.78,2.0109,394.5397],
    [8531,1537387081,53.6741,-109.9728,786.2,184.9,183.5,4.1,-0.2,10.07,43.73,2.0115,394.3597],
    [8532,1537387082,53.6734,-109.9728,785.9,184.9,183.3,3.7,0.2,9.85,43.92,2.0119,394.4684],
    [8533,1537387083,53.6727,-109.9728,785.8,184.8,182.8,2.8,-0.1,9.66,44.76,2.0126,394.4684],
    [8534,1537387084,53.672,-109.9728,786.4,186.4,182.4,2.3,0.1,9.06,44.85,2.0146,395.408],
    [8535,1537387085,53.6713,-109.9729,786.9,186.9,183.3,3.4,-0.3,9.45,45.02,2.0136,393.6391],
    [8536,1537387086,53.6705,-109.9729,786.7,187.7,183.7,3.8,-1.2,10.16,44.91,2.0065,393.876],
    [8537,1537387087,53.6698,-109.9729,785.9,187.9,183.8,4.0,-0.6,9.01,45.6,2.0012,393.7373],
    [8538,1537387088,53.6691,-109.9729,785.1,188.1,183.4,3.7,-0.1,9.83,45.19,2.0006,393.9125],
    [8539,1537387089,53.6685,-109.9729,785.1,189.2,183.6,3.9,-0.5,9.82,45.07,2.0012,392.3504],
    [8540,1537387090,53.6677,-109.973,785.7,190.8,183.5,3.6,-0.8,10.02,45.1,2.0022,393.8518],
    [8541,1537387091,53.667,-109.973,785.8,190.8,183.8,4.0,-1.1,8.98,44.81,1.9997,395.0295],
    [8542,1537387092,53.6663,-109.973,785.2,191.2,184.3,4.5,-1.0,9.55,44.72,2.0032,393.7958],
    [8543,1537387093,53.6656,-109.973,785.0,194.1,184.4,4.6,-1.1,10.03,44.32,2.0068,393.9565],
    [8544,1537387094,53.6649,-109.973,785.5,194.5,184.3,4.3,-0.3,9.47,44.56,2.0093,393.9565],
    [8545,1537387095,53.6642,-109.973,786.2,195.2,182.8,2.3,-0.9,9.39,44.59,2.0115,394.6163],
    [8546,1537387096,53.6636,-109.9731,786.0,192.5,183.1,2.8,-0.4,10.19,44.81,2.0104,394.6163],
    [8547,1537387097,53.6629,-109.9731,785.8,191.8,183.2,2.4,-0.6,9.5,45.65,2.0123,394.5807],
    [8548,1537387098,53.6622,-109.9731,787.6,193.6,182.8,1.6,-0.4,10.06,45.2,2.0118,394.8188],
    [8549,1537387099,53.6615,-109.9732,788.1,194.1,184.7,3.6,-0.1,9.54,45.9,2.0125,394.8188],
    [8550,1537387100,53.6608,-109.9732,788.1,194.1,185.5,4.1,-0.5,9.63,45.7,2.0107,393.9593],
    [8551,1537387101,53.6601,-109.9733,789.2,196.0,185.9,3.9,-1.4,10.08,44.98,2.0118,395.0186],
    [8552,1537387102,53.6594,-109.9733,789.3,201.3,185.9,4.0,0.5,9.82,45.03,2.0086,394.9711],
    [8553,1537387103,53.6587,-109.9734,788.9,197.9,186.3,4.5,-0.2,9.66,46.26,1.9978,393.5916],
    [8554,1537387104,53.658,-109.9734,788.8,196.8,185.5,4.0,-0.1,9.31,45.54,1.9962,393.7966],
    [8555,1537387105,53.6573,-109.9735,788.3,195.3,185.6,4.5,-0.3,10.0,44.85,1.9911,393.2258],
    [8556,1537387106,53.6566,-109.9735,787.5,193.5,185.3,4.4,-0.2,9.55,45.02,1.9906,393.2258],
    [8557,1537387107,53.6559,-109.9736,787.1,193.1,184.8,4.1,-0.2,9.72,44.84,1.9912,394.4408],
    [8558,1537387108,53.6552,-109.9736,787.4,194.4,184.6,4.3,0.3,9.42,44.34,1.9939,394.4058],
    [8559,1537387109,53.6545,-109.9736,786.9,194.9,185.1,5.0,0.8,10.02,44.44,1.9934,394.69],
    [8560,1537387110,53.6538,-109.9737,786.1,195.1,185.0,4.9,0.7,9.65,44.91,1.995,394.2081],
    [8561,1537387111,53.6531,-109.9737,785.0,195.0,185.1,5.2,0.4,9.01,44.37,1.993,392.8093],
    [8562,1537387112,53.6524,-109.9737,784.0,195.0,185.4,5.7,-0.1,9.06,44.25,1.9918,392.8162],
    [8563,1537387113,53.6517,-109.9737,782.6,194.7,184.8,5.2,1.4,9.05,44.31,1.9905,393.921],
    [8564,1537387114,53.651,-109.9738,781.0,193.0,185.1,6.0,0.8,9.48,44.09,1.9907,393.6453],
    [8565,1537387115,53.6503,-109.9738,779.7,192.7,185.3,6.1,0.1,9.72,43.81,1.9922,393.9323],
    [8566,1537387116,53.6496,-109.9738,779.1,192.1,184.7,5.5,0.5,10.3,43.26,1.9916,392.8546],
    [8567,1537387117,53.649,-109.9738,778.8,192.8,184.3,5.3,-0.2,9.29,43.56,1.988,393.8248],
    [8568,1537387118,53.6482,-109.9738,777.0,192.0,184.6,5.8,-0.8,9.52,43.64,1.9827,394.464],
    [8569,1537387119,53.6475,-109.9738,774.5,193.5,184.5,5.8,-0.7,9.4,43.46,1.9778,394.217],
    [8570,1537387120,53.6468,-109.9738,772.6,191.6,184.2,5.5,-1.3,10.16,43.05,1.9858,393.776],
    [8571,1537387121,53.6461,-109.9738,771.5,188.8,183.9,5.0,-2.5,9.12,42.53,1.9878,392.585],
    [8572,1537387122,53.6454,-109.9738,769.9,187.9,183.8,5.0,-2.3,9.8,42.12,1.9896,393.2501],
    [8573,1537387123,53.6446,-109.9738,767.4,186.4,183.3,4.2,-3.6,9.9,41.73,1.9912,394.3918],
    [8574,1537387124,53.6439,-109.9738,765.3,184.3,183.2,4.3,-2.8,9.79,41.9,1.9896,393.0804],
    [8575,1537387125,53.6432,-109.9738,763.9,182.9,183.6,4.6,-1.8,9.47,42.52,1.9851,393.8179],
    [8576,1537387126,53.6425,-109.9738,762.2,182.5,183.1,3.8,-1.3,9.71,42.97,1.9857,393.9089],
    [8577,1537387127,53.6418,-109.9738,760.8,185.4,183.5,4.1,-1.1,9.52,42.81,1.9879,394.7547],
    [8578,1537387128,53.6411,-109.9739,759.9,192.6,184.2,4.6,-1.9,9.72,43.01,1.9849,393.8661],
    [8579,1537387129,53.6404,-109.9739,758.7,195.7,184.5,4.6,-3.2,9.34,42.45,1.9846,393.7018],
    [8580,1537387130,53.6397,-109.9739,757.9,196.9,184.5,4.3,-2.5,9.74,43.0,1.9883,392.5984],
    [8581,1537387131,53.6389,-109.9739,757.4,195.5,185.0,4.6,-2.2,9.41,42.36,1.9869,391.9576],
    [8582,1537387132,53.6382,-109.974,757.0,193.8,185.1,4.6,-2.5,9.39,42.08,1.9851,394.4303],
    [8583,1537387133,53.6375,-109.974,756.5,192.4,185.4,4.6,-2.5,9.91,41.88,1.9921,392.8096],
    [8584,1537387134,53.6369,-109.974,756.2,191.2,184.9,3.8,-1.6,9.35,42.37,1.994,393.6304],
    [8585,1537387135,53.6361,-109.9741,756.4,191.4,183.6,2.5,-2.1,9.37,42.41,1.9929,392.7334],
    [8586,1537387136,53.6354,-109.9741,756.6,191.6,184.6,4.0,-1.9,9.75,42.48,1.9918,392.7334],
    [8587,1537387137,53.6347,-109.9741,756.8,193.8,184.1,3.1,-1.6,9.8,43.34,1.9918,393.8645],
    [8588,1537387138,53.634,-109.9742,756.8,195.8,183.7,2.7,-1.6,9.47,42.9,1.9927,393.882],
    [8589,1537387139,53.6333,-109.9742,757.6,200.7,184.7,3.3,-2.8,10.17,42.19,2.001,393.8725],
    [8590,1537387140,53.6326,-109.9743,759.1,199.7,184.3,2.7,-2.0,9.87,43.18,2.0007,393.9125],
    [8591,1537387141,53.6318,-109.9743,759.0,194.9,186.2,5.0,-1.4,9.84,43.81,1.9991,394.034],
    [8592,1537387142,53.6311,-109.9744,758.8,193.8,186.1,4.5,-0.4,10.23,43.28,1.9958,393.5515],
    [8593,1537387143,53.6304,-109.9744,758.0,191.0,185.8,4.2,0.7,9.84,44.59,1.9953,393.684],
    [8594,1537387144,53.6297,-109.9745,757.0,186.0,186.4,4.7,0.7,10.25,44.36,1.9957,393.8107],
    [8595,1537387145,53.629,-109.9746,756.2,183.3,186.4,4.5,0.9,10.08,44.21,1.9956,394.4767],
    [8596,1537387146,53.6283,-109.9746,755.8,179.2,186.3,4.6,1.4,9.39,44.42,1.9939,392.9118],
    [8597,1537387147,53.6275,-109.9747,756.6,177.5,186.0,4.8,1.7,10.43,44.11,1.9938,393.9652],
    [8598,1537387148,53.6268,-109.9747,757.3,179.6,186.1,5.0,1.0,9.42,44.42,1.9934,393.6572],
    [8599,1537387149,53.6261,-109.9748,758.1,181.2,185.9,5.1,0.3,9.8,44.12,1.9938,393.192],
    [8600,1537387150,53.6254,-109.9748,758.7,181.0,185.7,5.2,1.4,10.14,44.27,1.9922,392.4521],
    [8601,1537387151,53.6247,-109.9749,759.2,180.5,185.2,4.7,1.1,9.99,44.76,1.9929,393.1022],
    [8602,1537387152,53.624,-109.9749,759.9,181.7,185.0,4.8,0.0,9.7,44.08,1.9915,393.0168],
    [8603,1537387153,53.6233,-109.9749,760.7,184.7,184.7,4.3,-0.4,9.55,44.8,1.9916,392.6736],
    [8604,1537387154,53.6226,-109.975,761.5,186.8,184.1,3.7,0.6,10.29,44.38,1.9909,392.6761],
    [8605,1537387155,53.6219,-109.975,761.9,189.0,184.3,4.1,0.4,9.9,44.81,1.9908,393.5947],
    [8606,1537387156,53.6212,-109.975,761.9,189.9,184.3,3.9,0.3,9.88,44.88,1.9894,393.5086],
    [8607,1537387157,53.6205,-109.9751,761.7,191.4,184.7,4.4,0.1,9.58,44.93,1.9896,393.7795],
    [8608,1537387158,53.6198,-109.9751,761.6,192.4,184.9,4.4,-0.4,9.81,44.9,1.9899,392.5942],
    [8609,1537387159,53.6191,-109.9751,761.9,194.7,185.0,4.6,-0.6,9.85,44.79,1.989,393.9095],
    [8610,1537387160,53.6184,-109.9752,762.3,196.5,185.0,4.7,-0.8,9.9,44.66,1.9892,393.3885],
    [8611,1537387161,53.6176,-109.9752,762.9,198.9,185.0,4.8,-0.9,9.57,44.51,1.9802,392.8302],
    [8612,1537387162,53.617,-109.9752,763.4,200.5,185.2,5.1,-0.9,9.93,44.47,1.9803,392.6301],
    [8613,1537387163,53.6162,-109.9753,763.8,200.8,184.6,4.4,-0.8,9.67,44.16,1.9795,392.2729],
    [8614,1537387164,53.6155,-109.9753,764.0,203.0,184.6,4.6,-0.8,10.07,43.46,1.9797,392.1432],
    [8615,1537387165,53.6148,-109.9753,764.2,204.2,184.5,4.7,-0.9,9.59,43.33,1.9813,393.1803],
    [8616,1537387166,53.6141,-109.9753,764.9,204.8,184.4,4.7,-0.9,9.93,43.39,1.984,391.5265],
    [8617,1537387167,53.6135,-109.9753,765.6,206.6,184.4,4.7,-1.1,9.69,43.18,1.9816,390.9861],
    [8618,1537387168,53.6128,-109.9754,766.4,208.4,184.2,4.6,-1.3,9.99,42.75,1.9811,393.9393],
    [8619,1537387169,53.6121,-109.9754,766.8,210.8,184.5,4.8,-1.7,9.37,42.77,1.9805,394.1965],
    [8620,1537387170,53.6114,-109.9754,766.7,212.7,184.5,4.6,-1.6,9.71,43.13,1.9831,393.2724],
    [8621,1537387171,53.6107,-109.9754,766.5,213.5,184.2,4.2,-1.9,10.1,42.78,1.9822,393.4434],
    [8622,1537387172,53.61,-109.9754,766.4,215.3,184.3,4.4,-1.4,9.92,42.58,1.9759,393.0701],
    [8623,1537387173,53.6093,-109.9754,766.5,216.5,184.8,5.1,-1.8,9.62,42.93,1.9718,392.3677],
    [8624,1537387174,53.6086,-109.9755,767.1,219.2,184.8,4.9,-2.1,9.58,42.58,1.9715,392.8696],
    [8625,1537387175,53.6079,-109.9755,767.8,219.8,184.1,4.3,-1.7,10.14,42.13,1.9691,394.3296],
    [8626,1537387176,53.6072,-109.9755,768.0,222.0,184.0,4.2,-1.4,10.33,41.44,1.9709,393.0417],
    [8627,1537387177,53.6065,-109.9755,768.3,223.0,183.4,3.5,-1.6,9.98,41.6,1.9773,393.3589],
    [8628,1537387178,53.6058,-109.9755,769.1,224.4,184.4,4.3,-2.3,9.42,41.86,1.9757,394.2702],
    [8629,1537387179,53.6051,-109.9756,770.4,227.5,184.1,3.5,-2.1,9.67,41.49,1.9738,394.2702],
    [8630,1537387180,53.6045,-109.9756,770.8,228.8,184.4,3.6,-2.4,9.78,41.72,1.975,393.6435],
    [8631,1537387181,53.6038,-109.9756,770.8,231.1,184.6,4.0,-3.1,10.29,41.4,1.9747,393.5988],
    [8632,1537387182,53.6031,-109.9756,771.1,231.7,184.1,4.2,-2.2,9.3,41.98,1.9746,394.725],
    [8633,1537387183,53.6024,-109.9757,771.6,234.3,184.0,4.8,-1.4,10.25,41.35,1.9805,394.725],
    [8634,1537387184,53.6017,-109.9757,772.8,236.9,183.6,4.9,0.2,9.64,42.09,1.987,394.1216],
    [8635,1537387185,53.601,-109.9757,774.7,240.1,182.3,3.4,0.4,9.8,42.22,2.0035,392.1785],
    [8636,1537387186,53.6003,-109.9756,776.1,242.1,182.0,3.2,0.2,9.62,42.64,2.0056,394.2831],
    [8637,1537387187,53.5996,-109.9756,777.4,244.1,181.7,2.8,0.7,9.9,42.68,2.0002,394.907],
    [8638,1537387188,53.599,-109.9756,779.4,246.8,181.6,2.7,-0.6,9.88,43.03,1.9986,392.6502],
    [8639,1537387189,53.5983,-109.9756,779.6,259.0,182.3,3.1,0.8,10.02,43.38,2.0041,392.5744],
    [8640,1537387190,53.5976,-109.9756,779.2,272.8,181.8,2.1,1.1,10.02,43.43,2.006,392.7215],
    [8641,1537387191,53.5969,-109.9756,778.9,281.5,182.3,2.2,0.8,10.0,44.13,2.0009,392.8999],
    [8642,1537387192,53.5962,-109.9757,779.0,283.0,182.8,2.2,0.9,10.18,44.44,1.9964,393.3074],
    [8643,1537387193,53.5955,-109.9757,780.0,284.0,183.4,2.3,1.1,10.13,43.52,1.9949,392.491],
    [8644,1537387194,53.5948,-109.9757,781.6,280.8,184.4,3.4,1.2,9.23,44.29,1.9916,393.2425],
    [8645,1537387195,53.5942,-109.9758,782.8,279.8,184.8,3.5,0.5,10.2,44.3,1.9924,393.2321],
    [8646,1537387196,53.5935,-109.9758,783.7,287.7,184.8,3.6,0.7,9.62,44.01,1.9942,393.2412],
    [8647,1537387197,53.5928,-109.9759,784.3,288.3,184.8,3.4,0.8,9.69,43.96,1.9898,394.137],
    [8648,1537387198,53.5921,-109.9759,785.0,289.0,183.9,2.5,1.3,10.35,42.96,1.9861,393.6992],
    [8649,1537387199,53.5915,-109.9759,786.0,290.0,183.9,2.5,0.5,9.68,43.57,1.985,393.4131],
    [8650,1537387200,53.5908,-109.976,786.5,288.8,184.5,3.3,1.3,9.36,43.42,1.9845,392.8482],
    [8651,1537387201,53.5901,-109.976,786.5,284.7,185.2,3.8,1.7,9.95,43.02,1.9825,392.7371],
    [8652,1537387202,53.5894,-109.9761,787.0,271.2,185.1,3.5,1.5,10.43,43.04,1.9852,392.433],
    [8653,1537387203,53.5887,-109.9761,787.5,259.5,185.7,4.2,1.3,9.89,42.96,1.987,393.4034],
    [8654,1537387204,53.5881,-109.9762,787.4,253.8,186.0,4.7,1.5,10.22,42.02,1.9869,393.076],
    [8655,1537387205,53.5874,-109.9762,787.0,249.4,185.8,4.7,1.5,9.83,42.4,1.9797,393.3935],
    [8656,1537387206,53.5867,-109.9763,786.8,247.5,185.2,4.4,1.3,10.34,41.62,1.9766,393.6747],
    [8657,1537387207,53.586,-109.9763,786.6,244.4,185.1,4.7,1.4,9.23,42.03,1.9793,393.6747],
    [8658,1537387208,53.5854,-109.9763,786.6,242.6,184.9,4.6,1.2,10.26,41.59,1.9753,393.3527],
    [8659,1537387209,53.5847,-109.9764,786.7,240.8,184.6,4.4,1.0,9.11,41.62,1.9784,391.5558],
    [8660,1537387210,53.584,-109.9764,787.2,231.6,184.1,4.1,0.9,9.79,41.5,1.978,392.4519],
    [8661,1537387211,53.5833,-109.9764,787.0,222.4,184.7,4.8,0.6,9.61,41.51,1.9743,392.4519],
    [8662,1537387212,53.5826,-109.9764,786.2,217.8,184.3,4.3,0.7,9.84,41.36,1.9731,391.8539],
    [8663,1537387213,53.582,-109.9764,785.9,214.6,184.5,4.6,1.0,9.84,40.85,1.9722,393.0272],
    [8664,1537387214,53.5813,-109.9765,786.0,208.9,184.7,4.7,0.7,9.24,40.88,1.9721,394.0005],
    [8665,1537387215,53.5806,-109.9765,786.1,204.7,184.7,4.8,0.9,9.49,40.8,1.972,392.6638],
    [8666,1537387216,53.5799,-109.9765,786.0,193.5,185.2,5.4,0.3,9.95,40.76,1.973,392.7758],
    [8667,1537387217,53.5792,-109.9765,785.5,185.8,185.0,5.0,0.2,9.7,40.67,1.9718,392.647],
    [8668,1537387218,53.5786,-109.9766,785.4,177.0,184.7,4.9,0.3,9.78,40.19,1.9688,399.5783],
    [8669,1537387219,53.5779,-109.9766,785.3,174.3,184.6,5.0,0.0,9.79,39.79,1.9668,392.6197],
    [8670,1537387220,53.5772,-109.9766,785.2,171.2,184.6,5.1,0.1,9.65,39.54,1.9662,394.0111],
    [8671,1537387221,53.5765,-109.9766,785.0,169.2,184.6,5.0,-0.3,9.8,39.2,1.9689,392.7155],
    [8672,1537387222,53.5758,-109.9766,784.9,166.6,184.3,4.9,-0.2,9.94,39.04,1.9674,393.1385],
    [8673,1537387223,53.5752,-109.9766,785.1,163.8,184.3,4.8,-0.1,9.95,38.57,1.9588,392.8241],
    [8674,1537387224,53.5745,-109.9766,785.5,162.6,184.3,4.9,-0.3,9.23,38.46,1.9566,393.2201],
    [8675,1537387225,53.5738,-109.9767,785.8,161.1,184.4,5.0,-0.4,10.52,37.7,1.9561,393.2257],
    [8676,1537387226,53.5731,-109.9767,786.1,160.4,184.6,5.1,-0.7,9.58,37.72,1.9577,392.1634],
    [8677,1537387227,53.5724,-109.9767,786.2,158.4,184.3,4.8,-0.9,9.54,37.71,1.9619,392.6443],
    [8678,1537387228,53.5718,-109.9767,786.1,157.1,184.0,4.6,-1.1,9.47,37.77,1.9617,392.1642],
    [8679,1537387229,53.5711,-109.9767,785.8,155.8,183.7,4.4,-1.2,10.2,37.21,1.964,393.9573],
    [8680,1537387230,53.5704,-109.9767,785.4,153.4,183.9,4.6,-1.5,9.71,37.95,1.969,393.9573],
    [8681,1537387231,53.5697,-109.9767,785.4,152.4,184.1,4.8,-1.3,9.91,37.84,1.9656,395.1998],
    [8682,1537387232,53.569,-109.9767,785.5,150.8,184.2,4.8,-1.6,9.65,37.54,1.963,393.5223],
    [8683,1537387233,53.5684,-109.9767,785.8,150.5,184.1,4.7,-1.5,9.82,38.31,1.9562,393.3062],
    [8684,1537387234,53.5677,-109.9767,785.7,148.6,184.4,4.9,-1.7,9.95,37.34,1.9561,393.1964],
    [8685,1537387235,53.567,-109.9768,785.3,148.2,183.9,4.3,-1.7,9.79,37.83,1.9727,392.5277],
    [8686,1537387236,53.5663,-109.9768,785.1,148.0,183.6,3.9,-2.1,9.56,37.86,1.9925,394.0615],
    [8687,1537387237,53.5656,-109.9768,785.4,149.5,183.3,3.5,-1.6,9.18,37.45,1.9864,394.0615],
    [8688,1537387238,53.5649,-109.9768,785.6,153.2,183.8,4.1,-1.5,9.94,37.87,1.9771,393.3641],
    [8689,1537387239,53.5642,-109.9768,785.4,155.5,183.9,4.0,-1.3,9.94,39.26,1.9786,394.0167],
    [8690,1537387240,53.5635,-109.9768,785.3,156.7,183.4,3.4,-0.9,9.61,39.21,1.9798,393.8561],
    [8691,1537387241,53.5628,-109.9768,785.4,157.6,184.0,4.2,-1.4,9.62,39.57,1.9798,393.7949],
    [8692,1537387242,53.5622,-109.9769,785.4,166.4,184.2,4.1,-1.5,9.66,40.13,2.0121,393.9636],
    [8693,1537387243,53.5615,-109.9769,785.5,175.5,183.8,3.6,-2.1,9.8,40.62,2.0287,392.1129],
    [8694,1537387244,53.5608,-109.9769,785.6,188.6,183.9,3.8,-2.5,9.75,41.08,2.0312,393.6313],
    [8695,1537387245,53.5601,-109.9769,785.7,194.2,183.7,3.4,-2.2,9.42,41.01,2.0634,393.9438],
    [8696,1537387246,53.5594,-109.9769,785.4,197.2,184.1,4.0,-2.3,9.99,41.26,2.0478,393.2197],
    [8697,1537387247,53.5587,-109.977,784.6,197.6,184.7,4.5,-2.7,9.39,41.67,2.0162,393.2197],
    [8698,1537387248,53.558,-109.977,784.6,199.6,184.3,4.2,-2.3,9.76,42.02,1.9986,393.5871],
    [8699,1537387249,53.5574,-109.977,785.2,201.1,184.2,4.2,-1.4,9.82,41.99,1.9891,394.1865],
    [8700,1537387250,53.5567,-109.977,785.5,203.4,184.2,4.2,-0.9,9.51,42.17,1.9805,393.8067],
    [8701,1537387251,53.556,-109.977,785.4,204.7,184.5,4.4,-1.0,9.73,42.1,1.9804,392.7312],
    [8702,1537387252,53.5553,-109.9771,785.5,206.5,184.1,3.9,-1.2,10.41,42.04,1.9867,392.7581],
    [8703,1537387253,53.5546,-109.9771,785.6,207.6,184.4,4.2,-1.5,9.48,42.78,2.0045,393.4715],
    [8704,1537387254,53.5539,-109.9771,786.0,208.0,184.0,3.5,-1.1,9.16,43.43,2.0295,393.8318],
    [8705,1537387255,53.5532,-109.9771,786.4,209.5,183.6,2.8,-2.1,9.81,43.5,2.0275,393.8156],
    [8706,1537387256,53.5525,-109.9772,786.4,208.4,182.6,1.9,-1.4,10.03,43.24,2.0041,392.9012],
    [8707,1537387257,53.5519,-109.9772,787.2,207.9,183.1,2.7,-0.5,9.65,43.51,2.0003,393.8781],
    [8708,1537387258,53.5512,-109.9772,788.1,207.1,183.6,3.1,-0.1,10.21,43.45,1.9849,393.869],
    [8709,1537387259,53.5505,-109.9772,788.9,203.9,183.2,2.3,0.3,9.68,44.21,1.9714,394.6222],
    [8710,1537387260,53.5498,-109.9773,789.3,201.7,182.4,1.3,1.3,10.11,43.9,1.9713,393.3719],
    [8711,1537387261,53.5491,-109.9773,790.5,197.8,183.8,3.4,2.6,9.6,44.79,1.9689,394.6822],
    [8712,1537387262,53.5484,-109.9773,791.1,196.8,184.4,3.8,1.3,9.74,44.29,1.9677,393.2661],
    [8713,1537387263,53.5477,-109.9774,790.1,191.9,184.5,4.2,1.9,9.31,44.26,1.9676,392.5079],
    [8714,1537387264,53.547,-109.9774,788.5,188.5,184.9,4.6,1.7,10.11,43.62,1.9669,392.6464],
    [8715,1537387265,53.5463,-109.9774,787.4,182.4,184.0,3.7,1.7,9.68,44.4,1.9658,392.427],
    [8716,1537387266,53.5456,-109.9775,786.6,179.2,183.5,3.3,1.7,10.31,43.35,1.9675,392.427],
    [8717,1537387267,53.5449,-109.9775,786.4,177.4,183.7,3.6,2.1,9.6,43.68,1.9646,394.2736],
    [8718,1537387268,53.5442,-109.9775,786.9,177.4,183.1,3.0,1.8,10.07,42.92,1.9649,391.7587],
    [8719,1537387269,53.5435,-109.9775,787.1,178.1,184.3,4.8,2.3,9.6,43.5,1.9635,391.7587],
    [8720,1537387270,53.5428,-109.9775,786.9,177.9,183.6,3.8,2.3,9.9,43.22,1.964,393.3741],
    [8721,1537387271,53.5422,-109.9776,787.1,178.1,182.7,3.3,3.3,9.76,43.98,1.9627,393.2479],
    [8722,1537387272,53.5415,-109.9776,787.1,178.1,184.0,5.0,2.5,9.86,43.66,1.9619,391.5088],
    [8723,1537387273,53.5408,-109.9776,786.9,178.6,183.5,4.4,2.2,10.39,42.97,1.9614,394.405],
    [8724,1537387274,53.5401,-109.9776,786.7,181.1,182.2,3.0,3.3,10.1,42.89,1.9619,392.2665],
    [8725,1537387275,53.5394,-109.9776,786.3,181.6,182.8,3.9,3.2,10.63,42.72,1.962,392.755],
    [8726,1537387276,53.5387,-109.9776,786.1,181.2,182.9,3.9,3.3,10.2,43.24,1.962,393.3039],
    [8727,1537387277,53.538,-109.9776,786.2,180.5,183.9,5.2,3.8,9.93,42.89,1.9629,393.1498],
    [8728,1537387278,53.5373,-109.9776,787.1,181.8,184.0,4.9,2.8,9.77,42.77,1.9641,393.3347],
    [8729,1537387279,53.5366,-109.9776,788.0,183.8,183.9,5.0,1.9,9.94,43.15,1.9639,393.3347],
    [8730,1537387280,53.5359,-109.9776,787.2,183.5,185.1,6.3,2.1,10.09,43.52,1.9633,394.1341],
    [8731,1537387281,53.5352,-109.9776,785.5,183.8,184.7,5.6,2.0,10.26,42.92,1.9657,392.6118],
    [8732,1537387282,53.5345,-109.9776,784.1,184.1,184.4,5.3,1.1,9.77,43.06,1.9651,393.2744],
    [8733,1537387283,53.5339,-109.9776,783.3,186.3,184.9,6.1,0.4,10.43,42.52,1.9627,393.7166],
    [8734,1537387284,53.5332,-109.9776,783.0,188.5,184.5,5.9,0.6,9.86,43.21,1.9608,394.5393],
    [8735,1537387285,53.5325,-109.9776,784.0,190.8,183.6,5.2,0.8,9.58,42.49,1.9622,392.9216],
    [8736,1537387286,53.5318,-109.9776,784.6,193.7,183.5,5.3,0.6,9.68,42.39,1.9619,392.9674],
    [8737,1537387287,53.5312,-109.9776,784.2,194.2,182.9,4.7,0.6,9.64,42.62,1.9612,393.3397],
    [8738,1537387288,53.5305,-109.9776,783.9,195.6,183.3,5.0,0.7,10.4,41.85,1.9581,391.9225],
    [8739,1537387289,53.5297,-109.9776,784.1,196.9,183.9,5.5,0.9,9.49,42.4,1.9575,392.6345],
    [8740,1537387290,53.5291,-109.9776,785.0,199.9,184.1,5.5,-0.1,9.68,42.48,1.9591,394.1174],
    [8741,1537387291,53.5284,-109.9776,786.4,202.5,183.4,4.7,0.2,9.93,42.03,1.963,393.5309],
    [8742,1537387292,53.5277,-109.9776,787.0,203.5,182.3,3.8,0.5,10.38,41.97,1.9596,393.6444],
    [8743,1537387293,53.527,-109.9776,785.6,202.7,183.4,5.3,0.2,10.07,41.53,1.9543,393.6444],
    [8744,1537387294,53.5263,-109.9776,784.6,201.6,183.2,5.0,-0.1,9.46,42.08,1.9546,393.1266],
    [8745,1537387295,53.5257,-109.9776,784.3,202.2,183.3,4.9,-0.3,10.39,41.37,1.9587,394.2076],
    [8746,1537387296,53.525,-109.9775,784.2,203.9,183.7,5.4,-0.4,9.55,41.35,1.9563,392.2709],
    [8747,1537387297,53.5243,-109.9775,783.7,204.8,183.6,5.1,-0.4,9.63,41.43,1.9496,392.8406],
    [8748,1537387298,53.5236,-109.9775,783.1,205.1,183.4,4.8,-0.3,9.84,41.34,1.9519,393.4436],
    [8749,1537387299,53.5229,-109.9775,782.1,205.1,183.6,5.1,-0.4,9.97,40.53,1.9582,393.6964],
    [8750,1537387300,53.5222,-109.9775,780.7,202.7,183.5,4.9,-0.5,10.44,39.71,1.9614,392.6392],
    [8751,1537387301,53.5215,-109.9775,779.2,200.5,183.2,4.5,-0.5,9.91,39.75,1.9629,393.4907],
    [8752,1537387302,53.5209,-109.9775,777.9,200.0,183.0,4.2,-0.4,9.23,40.18,1.9606,392.7882],
    [8753,1537387303,53.5202,-109.9775,776.5,198.5,183.0,4.2,0.1,9.86,40.85,1.9597,393.4546],
    [8754,1537387304,53.5195,-109.9775,775.1,197.1,183.1,4.2,0.1,9.78,41.51,1.9597,393.1437],
    [8755,1537387305,53.5188,-109.9775,773.7,195.7,182.9,3.9,0.1,9.96,40.76,1.961,393.7746],
    [8756,1537387306,53.5181,-109.9775,772.5,193.4,182.8,3.5,0.3,9.7,40.73,1.9607,392.7121],
    [8757,1537387307,53.5174,-109.9775,771.3,192.4,183.2,3.9,0.3,9.61,40.99,1.9595,393.5106],
    [8758,1537387308,53.5167,-109.9775,770.0,189.7,183.3,3.7,-0.1,9.61,40.76,1.9584,392.7399],
    [8759,1537387309,53.516,-109.9775,768.5,186.8,183.7,4.2,-0.2,9.18,40.66,1.9606,393.6654],
    [8760,1537387310,53.5153,-109.9776,766.7,186.8,183.7,4.0,-0.4,9.87,40.65,1.9608,391.7813],
    [8761,1537387311,53.5146,-109.9776,765.1,187.1,183.7,4.0,-0.4,9.69,40.75,1.9627,394.7342],
    [8762,1537387312,53.5139,-109.9776,763.6,184.9,183.8,4.3,-0.4,9.75,40.76,1.9629,393.3682],
    [8763,1537387313,53.5132,-109.9776,762.1,179.1,183.9,4.5,-0.5,10.01,41.01,1.9638,394.3139],
    [8764,1537387314,53.5125,-109.9776,761.0,175.0,183.9,4.6,-1.0,9.83,41.04,1.9653,393.9918],
    [8765,1537387315,53.5118,-109.9776,759.8,170.5,183.8,4.4,-1.4,9.81,41.01,1.9639,394.3501],
    [8766,1537387316,53.5111,-109.9776,759.3,168.2,183.2,3.7,-1.4,9.98,41.11,1.9651,394.6661],
    [8767,1537387317,53.5104,-109.9776,759.1,167.0,183.1,3.5,-0.9,9.71,41.72,1.966,392.3822],
    [8768,1537387318,53.5097,-109.9776,758.5,167.1,183.3,4.0,-1.0,10.14,41.78,1.9674,393.6789],
    [8769,1537387319,53.509,-109.9777,757.2,166.7,184.1,4.9,-1.5,10.05,41.95,1.9683,393.6789],
    [8770,1537387320,53.5083,-109.9777,756.5,166.4,183.8,4.6,-1.5,9.19,42.29,1.9692,394.3068],
    [8771,1537387321,53.5077,-109.9777,756.2,166.2,184.2,5.0,-1.8,9.5,42.22,1.9717,393.9985],
    [8772,1537387322,53.5068,-109.9777,755.8,163.7,184.0,4.9,-1.2,9.97,42.3,1.9688,395.1767],
    [8773,1537387323,53.5061,-109.9777,755.3,163.1,184.0,5.0,-0.5,9.97,42.43,1.969,395.1767],
    [8774,1537387324,53.5054,-109.9777,755.8,163.9,183.5,4.7,-0.6,9.89,42.47,1.9677,394.1855],
    [8775,1537387325,53.5047,-109.9777,756.6,164.9,183.9,5.1,-1.0,9.62,42.92,1.9703,394.2046],
    [8776,1537387326,53.504,-109.9777,756.8,165.6,184.0,5.1,-1.7,9.83,42.44,1.9726,395.2979],
    [8777,1537387327,53.5033,-109.9777,757.0,166.5,183.6,4.6,-0.7,9.91,42.47,1.9724,392.6049],
    [8778,1537387328,53.5026,-109.9777,757.9,166.9,183.1,4.0,0.8,10.21,42.59,1.9761,392.7424],
    [8779,1537387329,53.5019,-109.9777,759.2,169.1,182.8,3.7,0.0,9.37,42.7,1.9802,394.5387],
    [8780,1537387330,53.5012,-109.9777,759.3,169.4,183.0,3.8,0.8,10.06,42.79,1.9844,392.4744],
    [8781,1537387331,53.5005,-109.9777,758.0,169.2,183.0,3.7,0.3,10.44,42.71,1.9832,393.2981],
    [8782,1537387332,53.4998,-109.9777,756.6,168.0,183.2,3.9,0.7,10.4,42.23,1.9828,394.0794],
    [8783,1537387333,53.4991,-109.9777,755.8,167.8,183.7,4.6,1.0,10.14,43.02,1.9781,393.9878],
    [8784,1537387334,53.4984,-109.9777,755.7,168.2,183.9,4.8,1.3,10.41,42.21,1.9797,393.1441],
    [8785,1537387335,53.4977,-109.9778,755.7,168.4,183.9,4.8,1.0,10.46,42.68,1.9773,393.2075],
    [8786,1537387336,53.497,-109.9778,756.1,169.5,183.7,4.6,0.8,10.72,42.53,1.9754,393.2075],
    [8787,1537387337,53.4963,-109.9778,756.0,169.3,184.0,5.0,1.2,9.89,42.68,1.978,394.5643],
    [8788,1537387338,53.4956,-109.9778,755.6,169.8,183.9,4.9,1.2,9.85,43.19,1.9787,394.2489],
    [8789,1537387339,53.4949,-109.9778,755.6,170.4,183.3,4.3,0.9,10.72,42.45,1.9775,393.7946],
    [8790,1537387340,53.4942,-109.9778,755.7,170.8,183.1,4.2,0.6,10.07,42.86,1.9761,393.7946],
    [8791,1537387341,53.4935,-109.9778,755.7,171.0,182.7,4.0,0.5,9.68,42.74,1.9779,394.8488],
    [8792,1537387342,53.4928,-109.9778,755.6,171.6,182.9,4.2,0.1,9.74,42.48,1.9775,394.7088],
    [8793,1537387343,53.4921,-109.9778,755.9,171.9,182.7,3.8,-0.4,9.51,42.0,1.9773,391.7718],
    [8794,1537387344,53.4914,-109.9778,755.7,175.7,182.6,3.5,0.0,9.97,42.12,1.9784,394.5876],
    [8795,1537387345,53.4907,-109.9778,755.0,175.0,182.1,3.1,-0.2,10.02,42.87,1.9814,393.6842],
    [8796,1537387346,53.49,-109.9778,755.0,173.9,182.9,4.1,-0.1,10.02,42.87,1.9791,396.1807],
    [8797,1537387347,53.4893,-109.9778,755.6,175.6,183.7,5.0,-0.3,10.05,42.47,1.9785,394.0906],
    [8798,1537387348,53.4886,-109.9778,756.0,176.0,183.4,4.6,-0.5,9.81,42.23,1.9816,394.6355],
    [8799,1537387349,53.4879,-109.9778,755.9,175.9,183.8,5.2,-0.7,9.83,42.39,1.9825,394.5198],
    [8800,1537387350,53.4872,-109.9778,755.5,175.5,183.7,4.9,-1.2,10.63,41.9,1.9833,393.1751],
    [8801,1537387351,53.4866,-109.9778,755.2,175.2,183.3,4.8,-0.7,9.49,42.56,1.9812,393.1751],
    [8802,1537387352,53.4858,-109.9778,755.0,175.0,183.6,5.4,-0.7,9.63,42.85,1.9772,394.0405],
    [8803,1537387353,53.4852,-109.9777,755.0,175.0,183.4,5.4,-0.8,9.51,42.49,1.9758,393.1439],
    [8804,1537387354,53.4845,-109.9777,755.6,175.6,183.5,5.7,-0.7,9.71,42.51,1.9765,395.2064],
    [8805,1537387355,53.4838,-109.9777,756.3,176.3,183.3,5.4,-0.9,10.12,43.0,1.9794,394.9211],
    [8806,1537387356,53.4831,-109.9777,756.9,176.5,183.0,4.9,-0.9,10.1,42.25,1.9792,394.3625],
    [8807,1537387357,53.4824,-109.9777,757.0,176.0,182.8,4.8,-0.9,10.07,42.81,1.9772,392.6544],
    [8808,1537387358,53.4817,-109.9777,756.9,175.9,183.2,5.4,-1.1,10.17,43.01,1.977,393.6147],
    [8809,1537387359,53.481,-109.9777,756.2,176.0,183.1,5.3,-0.4,9.95,42.66,1.9767,393.8327],
    [8810,1537387360,53.4803,-109.9776,756.0,176.0,183.2,5.3,-1.0,9.81,42.54,1.9758,394.1343],
    [8811,1537387361,53.4797,-109.9776,756.0,177.0,182.9,5.0,-2.1,10.02,43.05,1.9769,395.1318],
    [8812,1537387362,53.479,-109.9776,755.7,176.7,183.5,5.9,-1.6,10.11,42.41,1.9762,394.5226],
    [8813,1537387363,53.4783,-109.9776,755.7,177.7,183.7,6.0,-1.7,10.18,42.26,1.977,394.2271],
    [8814,1537387364,53.4776,-109.9776,756.0,176.9,182.9,5.3,-1.4,10.55,41.93,1.9762,393.849],
    [8815,1537387365,53.4769,-109.9775,756.4,177.5,183.1,5.6,-1.7,10.05,42.87,1.9763,395.2302],
    [8816,1537387366,53.4762,-109.9775,755.8,176.5,182.9,5.5,-1.8,9.63,42.61,1.9765,393.7464],
    [8817,1537387367,53.4755,-109.9775,755.2,173.3,183.4,6.2,-1.0,9.97,43.22,2.0029,394.5271],
    [8818,1537387368,53.4748,-109.9775,756.6,171.6,183.5,5.8,-1.7,10.22,42.27,2.0252,393.4804],
    [8819,1537387369,53.4741,-109.9775,758.3,167.0,181.8,3.3,-0.6,10.54,42.37,2.0067,393.2011],
    [8820,1537387370,53.4734,-109.9774,758.8,164.4,180.6,2.0,0.8,9.96,43.29,1.9886,393.2011],
    [8821,1537387371,53.4727,-109.9774,758.6,162.5,181.5,3.3,0.5,10.4,42.85,1.9763,393.2064],
    [8822,1537387372,53.472,-109.9774,758.3,163.3,181.5,3.4,1.0,10.2,42.99,1.9707,394.2652],
    [8823,1537387373,53.4713,-109.9774,757.0,164.1,182.2,4.0,1.2,10.22,43.56,1.9693,394.0487],
    [8824,1537387374,53.4706,-109.9774,755.8,166.1,182.7,4.2,0.8,10.61,42.51,1.9699,394.3637],
    [8825,1537387375,53.4699,-109.9774,755.6,173.0,182.5,3.8,1.5,9.97,42.46,1.965,393.2717],
    [8826,1537387376,53.4692,-109.9774,756.0,176.6,182.8,4.2,1.2,9.43,42.19,1.9699,394.029],
    [8827,1537387377,53.4685,-109.9774,756.5,184.5,183.2,4.5,1.0,10.4,42.23,1.966,393.2639],
    [8828,1537387378,53.4678,-109.9774,756.3,184.3,182.6,3.8,0.3,9.77,41.85,1.9634,393.5129],
    [8829,1537387379,53.4672,-109.9774,755.8,183.8,182.9,4.0,0.7,9.71,41.91,1.9633,393.3921],
    [8830,1537387380,53.4665,-109.9774,755.4,183.4,182.9,3.9,0.5,10.82,41.23,1.9662,394.9908],
    [8831,1537387381,53.4658,-109.9774,755.7,183.7,182.8,3.9,0.3,10.15,41.78,1.9667,393.9763],
    [8832,1537387382,53.4651,-109.9774,755.9,183.9,183.3,4.5,0.5,10.06,41.34,1.9659,394.3806],
    [8833,1537387383,53.4644,-109.9774,755.9,183.9,183.3,4.7,0.6,10.15,41.52,1.9648,392.6894],
    [8834,1537387384,53.4637,-109.9773,755.6,183.6,183.5,5.1,0.5,10.15,41.21,1.965,393.4693],
    [8835,1537387385,53.463,-109.9773,755.3,183.3,183.6,5.4,0.4,9.89,41.28,1.9645,393.7262],
    [8836,1537387386,53.4623,-109.9773,755.0,183.0,183.3,5.1,0.5,10.2,40.65,1.9646,395.2795],
    [8837,1537387387,53.4616,-109.9773,754.5,182.5,183.2,5.0,-0.7,10.29,41.69,1.9644,393.7664],
    [8838,1537387388,53.4609,-109.9773,754.1,182.1,183.2,5.0,-0.8,10.1,40.77,1.9643,394.9027],
    [8839,1537387389,53.4602,-109.9773,754.4,175.4,182.4,4.2,-0.5,10.89,40.57,1.966,392.8553],
    [8840,1537387390,53.4596,-109.9773,755.1,175.0,182.5,4.6,-0.9,10.11,41.03,1.9657,393.9002],
    [8841,1537387391,53.4589,-109.9773,755.2,174.2,182.7,4.6,-1.7,9.94,41.0,1.9662,394.8542],
    [8842,1537387392,53.4582,-109.9772,754.1,172.3,182.7,4.6,-1.4,10.15,41.56,1.965,392.4447],
    [8843,1537387393,53.4575,-109.9772,753.6,172.3,182.7,4.4,-1.1,9.98,41.02,1.9636,394.1179],
    [8844,1537387394,53.4568,-109.9772,753.9,174.0,182.5,4.2,-0.9,9.55,40.99,1.9681,394.6815],
    [8845,1537387395,53.4561,-109.9772,754.9,175.9,181.7,3.5,-1.2,10.29,41.37,1.9646,393.0716],
    [8846,1537387396,53.4554,-109.9772,755.6,176.6,182.0,4.0,-1.6,10.22,41.26,1.9652,392.3068],
    [8847,1537387397,53.4547,-109.9772,755.4,176.4,182.3,4.4,-1.3,9.67,41.31,1.9642,393.4924],
    [8848,1537387398,53.454,-109.9771,755.2,175.2,182.2,4.2,-0.9,10.69,41.19,1.9636,393.4876],
    [8849,1537387399,53.4533,-109.9771,756.7,176.7,181.3,2.9,-1.2,9.75,41.63,1.9664,392.0614],
    [8850,1537387400,53.4526,-109.9771,757.2,176.5,181.7,3.5,-1.4,9.83,41.86,1.966,393.4723],
    [8851,1537387401,53.4519,-109.9771,757.1,177.1,182.7,4.0,-0.6,10.19,42.56,1.9646,393.9265],
    [8852,1537387402,53.4513,-109.9771,757.3,178.3,183.6,4.7,0.2,9.88,42.37,1.9629,393.6444],
    [8853,1537387403,53.4506,-109.9771,757.5,178.5,185.1,6.0,1.0,11.04,42.11,1.9611,392.5518],
    [8854,1537387404,53.4499,-109.9771,757.8,178.8,185.7,6.5,0.8,10.22,41.99,1.9588,394.1552],
    [8855,1537387405,53.4492,-109.9771,757.8,180.9,185.3,6.1,1.2,9.68,42.15,1.9577,392.7661],
    [8856,1537387406,53.4485,-109.9771,757.4,185.4,185.0,6.2,1.6,9.73,41.39,1.9564,393.5508],
    [8857,1537387407,53.4478,-109.9772,757.0,185.0,184.5,6.1,1.1,10.6,40.07,1.9571,392.4048],
    [8858,1537387408,53.4471,-109.9772,756.6,184.6,184.3,6.2,0.8,9.91,40.38,1.9566,392.4048],
    [8859,1537387409,53.4464,-109.9771,756.4,179.6,183.8,5.8,0.4,9.85,40.28,1.9569,393.8237],
    [8860,1537387410,53.4457,-109.9771,755.7,173.1,182.9,5.3,0.2,9.89,40.44,1.9576,393.9072],
    [8861,1537387411,53.445,-109.9771,755.2,169.9,183.1,6.0,0.6,10.37,39.76,1.9603,393.6707],
    [8862,1537387412,53.4443,-109.9771,755.1,165.4,182.8,5.7,0.9,10.27,40.67,1.9642,393.6443],
    [8863,1537387413,53.4436,-109.977,755.1,162.1,182.4,5.4,1.3,10.37,40.04,1.9646,393.9211],
    [8864,1537387414,53.4429,-109.977,755.6,163.6,182.7,5.8,0.8,9.72,40.52,1.9638,394.368],
    [8865,1537387415,53.4423,-109.977,755.8,166.4,182.8,5.9,0.8,10.4,40.92,1.9619,393.7976],
    [8866,1537387416,53.4416,-109.977,755.6,169.3,182.6,5.6,1.0,10.34,41.43,1.9613,394.4883],
    [8867,1537387417,53.4409,-109.9769,755.6,170.6,182.4,5.3,1.3,10.62,41.3,1.9659,393.1642],
    [8868,1537387418,53.4402,-109.9769,756.0,177.3,182.3,5.3,1.2,10.24,42.06,1.9629,393.7998],
    [8869,1537387419,53.4395,-109.9769,756.0,179.0,182.7,5.5,0.3,10.23,42.12,1.9615,395.278],
    [8870,1537387420,53.4388,-109.9768,755.6,177.6,182.6,5.4,0.6,10.28,42.09,1.9558,393.3148],
    [8871,1537387421,53.4382,-109.9768,755.2,175.5,182.8,5.5,0.1,10.41,42.73,1.9562,393.3148],
    [8872,1537387422,53.4374,-109.9768,755.3,174.8,182.6,5.1,0.4,10.44,41.27,1.9648,393.8101],
    [8873,1537387423,53.4367,-109.9768,755.7,175.7,182.6,5.1,0.4,10.39,40.99,1.9677,394.4818],
    [8874,1537387424,53.4361,-109.9767,755.7,172.9,182.7,5.1,-0.2,10.43,40.9,1.9643,394.0627],
    [8875,1537387425,53.4353,-109.9767,755.4,172.5,182.8,5.2,-0.3,10.37,41.62,1.9607,393.8605],
    [8876,1537387426,53.4347,-109.9767,755.2,170.2,182.8,5.1,-0.1,10.35,41.45,1.9623,394.7922],
    [8877,1537387427,53.434,-109.9767,754.9,168.8,182.7,4.9,0.0,10.71,41.24,1.9582,394.0253],
    [8878,1537387428,53.4333,-109.9766,754.7,171.3,182.5,4.7,-0.1,10.28,41.4,1.954,392.9269],
    [8879,1537387429,53.4326,-109.9766,754.6,169.8,182.6,4.7,-0.6,10.37,41.16,1.9553,393.4],
    [8880,1537387430,53.4319,-109.9766,754.6,162.0,182.2,4.3,-0.4,10.21,41.62,1.9563,392.8206],
    [8881,1537387431,53.4312,-109.9766,754.7,158.7,182.5,4.5,-0.4,9.96,40.8,1.9567,393.4266],
    [8882,1537387432,53.4305,-109.9766,755.0,155.0,182.3,4.2,-0.3,9.83,40.4,1.9556,392.3207],
    [8883,1537387433,53.4299,-109.9766,755.3,153.6,182.7,4.7,0.0,10.05,40.42,1.9568,394.3253],
    [8884,1537387434,53.4292,-109.9765,755.5,152.6,183.0,4.9,-0.6,10.22,40.42,1.954,393.5976],
    [8885,1537387435,53.4285,-109.9765,755.7,151.7,183.1,5.0,-0.8,10.28,40.26,1.9564,393.178],
    [8886,1537387436,53.4278,-109.9765,755.7,150.7,183.0,4.9,-0.9,9.84,40.35,1.9549,393.2996],
    [8887,1537387437,53.4271,-109.9765,755.6,148.5,182.8,4.8,-0.4,10.48,39.65,1.9535,394.4141],
    [8888,1537387438,53.4264,-109.9765,755.6,148.5,182.7,4.8,-1.0,10.13,40.33,1.958,393.4644],
    [8889,1537387439,53.4257,-109.9765,755.8,146.7,182.8,5.0,-0.9,10.53,40.11,1.9516,394.1494],
    [8890,1537387440,53.4251,-109.9764,755.6,144.4,182.5,4.6,-0.9,10.06,40.31,1.9498,392.1315],
    [8891,1537387441,53.4244,-109.9764,755.3,142.7,182.1,4.2,-0.5,10.82,39.88,1.9464,393.9094],
    [8892,1537387442,53.4237,-109.9764,754.8,141.9,182.0,4.0,-0.5,10.25,39.4,1.9497,394.3222],
    [8893,1537387443,53.423,-109.9764,754.6,139.6,182.1,4.2,-0.6,10.22,39.29,1.9483,393.2912],
    [8894,1537387444,53.4223,-109.9764,754.7,139.0,182.6,4.5,-1.1,10.2,38.66,1.9485,393.0874],
    [8895,1537387445,53.4216,-109.9763,755.0,139.3,182.7,4.5,-1.4,9.78,38.81,1.9495,392.922],
    [8896,1537387446,53.4209,-109.9763,755.1,140.5,182.7,4.4,-1.2,10.35,37.94,1.9515,393.2775],
    [8897,1537387447,53.4203,-109.9763,754.9,146.3,182.4,4.1,-1.4,10.23,38.14,1.9529,394.5608],
    [8898,1537387448,53.4196,-109.9763,754.7,146.7,182.3,4.0,-1.4,10.08,38.29,1.9555,394.5357],
    [8899,1537387449,53.4189,-109.9763,754.5,146.5,182.6,4.3,-1.6,10.49,38.27,1.9545,394.6343],
    [8900,1537387450,53.4182,-109.9763,754.3,146.4,182.9,4.6,-2.1,10.24,38.98,1.9554,394.6343],
    [8901,1537387451,53.4175,-109.9763,754.8,145.8,182.7,4.2,-1.8,10.21,38.65,1.9554,395.5293],
    [8902,1537387452,53.4168,-109.9762,755.4,150.6,182.2,3.4,-2.8,10.2,38.93,1.9552,395.5293],
    [8903,1537387453,53.4162,-109.9762,754.8,146.8,183.1,4.2,-2.3,10.13,39.25,1.9555,393.4991],
    [8904,1537387454,53.4155,-109.9762,754.3,145.3,183.6,4.0,-2.6,10.4,39.36,1.9571,395.0405],
    [8905,1537387455,53.4148,-109.9763,754.4,143.8,183.8,4.1,-2.3,10.17,39.32,1.9582,393.2641],
    [8906,1537387456,53.4141,-109.9763,754.8,139.1,184.0,4.3,-1.4,10.53,39.85,1.9587,393.2431],
    [8907,1537387457,53.4134,-109.9763,755.0,137.9,183.9,4.4,-1.9,10.24,40.7,1.9589,394.5282],
    [8908,1537387458,53.4127,-109.9763,754.0,138.0,184.1,4.8,-2.4,10.05,40.42,1.9579,392.3121],
    [8909,1537387459,53.412,-109.9763,752.9,136.9,182.9,3.9,-2.2,10.25,40.1,1.9598,393.6103],
    [8910,1537387460,53.4114,-109.9763,752.2,137.2,182.9,4.1,-2.4,10.36,40.13,1.96,393.9576],
    [8911,1537387461,53.4107,-109.9763,752.1,137.1,182.6,3.7,-2.0,9.91,40.78,1.9599,394.5269],
    [8912,1537387462,53.41,-109.9763,752.7,137.7,183.3,4.8,-2.6,10.01,41.18,1.9578,392.9411],
    [8913,1537387463,53.4093,-109.9763,753.9,138.9,184.3,5.6,-0.9,9.94,41.41,1.9601,392.9411],
    [8914,1537387464,53.4086,-109.9763,755.7,141.7,183.0,3.7,-2.3,10.88,40.82,1.9602,393.9984],
    [8915,1537387465,53.4079,-109.9763,755.8,141.8,184.2,5.0,-2.7,10.54,41.56,1.9596,394.6164],
    [8916,1537387466,53.4072,-109.9763,755.1,141.1,184.0,5.0,-0.9,10.98,41.24,1.96,393.6504],
    [8917,1537387467,53.4066,-109.9763,756.2,142.2,183.3,4.0,-2.2,10.69,41.29,1.959,394.0532],
    [8918,1537387468,53.4058,-109.9763,759.1,145.1,182.3,3.4,-1.2,10.05,41.67,1.9589,392.9195],
    [8919,1537387469,53.4052,-109.9763,760.4,146.4,183.6,4.8,0.4,10.19,42.26,1.9588,392.5733],
    [8920,1537387470,53.4045,-109.9763,761.1,148.1,182.8,3.6,0.5,10.06,42.13,1.9625,393.1899],
    [8921,1537387471,53.4038,-109.9763,760.9,147.9,184.3,5.4,1.2,10.08,41.8,1.9647,393.2018],
    [8922,1537387472,53.4031,-109.9763,760.5,146.4,184.9,5.7,1.9,10.11,41.06,1.9615,392.5356],
    [8923,1537387473,53.4024,-109.9763,760.3,146.3,184.6,5.2,1.3,10.07,40.8,1.9597,393.8788],
    [8924,1537387474,53.4017,-109.9763,760.3,146.0,184.9,5.9,1.5,10.31,40.24,1.9601,391.7751],
    [8925,1537387475,53.4011,-109.9764,759.7,144.7,184.5,5.5,1.0,9.98,39.94,1.9594,393.5579],
    [8926,1537387476,53.4003,-109.9764,758.5,143.5,183.3,4.4,1.2,10.41,39.62,1.9589,392.56],
    [8927,1537387477,53.3996,-109.9764,757.6,141.6,183.5,4.9,0.9,10.31,39.43,1.9578,392.5931],
    [8928,1537387478,53.399,-109.9764,757.5,141.5,183.4,5.2,1.9,10.47,39.02,1.9545,392.5931],
    [8929,1537387479,53.3983,-109.9763,757.1,140.1,183.4,5.1,0.9,10.41,39.82,1.9552,392.0078],
    [8930,1537387480,53.3976,-109.9763,756.7,139.7,183.4,5.3,1.4,10.29,39.12,1.9537,392.9131],
    [8931,1537387481,53.3969,-109.9763,756.4,138.3,183.7,5.7,1.5,10.83,38.79,1.9533,392.9131],
    [8932,1537387482,53.3962,-109.9763,756.2,138.2,183.6,5.6,1.1,10.02,38.62,1.9504,392.8416],
    [8933,1537387483,53.3955,-109.9763,756.1,137.1,183.4,5.4,0.9,10.66,38.49,1.9512,392.5533],
    [8934,1537387484,53.3948,-109.9763,756.2,137.2,183.3,5.3,1.0,10.23,38.54,1.9489,393.2],
    [8935,1537387485,53.3941,-109.9763,756.3,136.3,183.1,5.3,0.9,10.65,37.71,1.949,393.8889],
    [8936,1537387486,53.3934,-109.9763,756.2,136.2,183.1,5.3,0.7,10.27,38.1,1.9483,393.7203],
    [8937,1537387487,53.3927,-109.9762,756.2,135.9,183.1,5.3,0.5,10.24,38.29,1.9502,392.7776],
    [8938,1537387488,53.392,-109.9762,756.1,135.1,183.0,5.2,0.3,10.29,37.71,1.9525,393.1101],
    [8939,1537387489,53.3914,-109.9762,755.8,134.8,183.2,5.3,0.3,10.8,36.58,1.9543,393.2561],
    [8940,1537387490,53.3907,-109.9762,755.5,133.5,183.2,5.3,0.3,9.98,37.32,1.9574,393.3081],
    [8941,1537387491,53.39,-109.9762,755.3,133.3,183.3,5.5,0.3,9.75,37.64,1.9561,394.0117],
    [8942,1537387492,53.3893,-109.9762,755.1,133.1,183.1,5.3,0.5,10.31,38.02,1.9529,393.5881],
    [8943,1537387493,53.3886,-109.9761,755.3,133.3,183.2,5.5,1.0,10.39,38.6,1.9575,394.1734],
    [8944,1537387494,53.3879,-109.9761,756.4,134.4,182.6,4.8,0.2,10.3,38.25,1.9559,393.4977],
    [8945,1537387495,53.3872,-109.9761,756.6,134.2,182.9,5.3,-0.3,10.25,38.74,1.9555,392.2495],
    [8946,1537387496,53.3866,-109.9761,756.3,133.4,183.0,5.3,0.3,9.66,38.88,1.9549,393.289],
    [8947,1537387497,53.3859,-109.9761,756.4,133.5,182.5,4.9,-0.1,10.22,39.28,1.9546,394.8448],
    [8948,1537387498,53.3852,-109.976,756.5,132.5,183.1,5.6,-0.4,10.32,40.07,1.9552,394.011],
    [8949,1537387499,53.3845,-109.976,756.4,132.4,182.7,5.2,-0.6,10.55,38.99,1.9543,394.3437],
    [8950,1537387500,53.3838,-109.976,756.1,132.1,183.1,5.8,-0.5,9.89,39.37,1.9522,394.3437],
    [8951,1537387501,53.3831,-109.976,756.0,132.0,183.1,5.7,-0.8,9.84,39.35,1.9629,393.5384],
    [8952,1537387502,53.3824,-109.9759,756.1,132.1,182.7,5.2,-1.0,10.21,39.24,1.9834,394.4314],
    [8953,1537387503,53.3817,-109.9759,756.0,132.0,182.7,5.4,-0.5,10.14,39.36,1.9665,393.7191],
    [8954,1537387504,53.381,-109.9759,756.2,132.2,182.8,5.5,-0.8,10.3,39.71,1.9654,393.5191],
    [8955,1537387505,53.3804,-109.9759,756.5,132.5,182.6,5.2,-1.0,10.38,39.98,1.9612,392.7088],
    [8956,1537387506,53.3797,-109.9758,756.6,132.6,182.4,5.0,-1.4,10.14,39.88,1.9554,393.7314],
    [8957,1537387507,53.379,-109.9758,756.0,132.0,182.6,5.2,-1.1,10.18,39.95,1.9564,394.1104],
    [8958,1537387508,53.3783,-109.9758,755.9,131.9,182.5,4.6,-1.2,10.28,39.9,1.9564,392.7596],
    [8959,1537387509,53.3776,-109.9758,755.8,131.8,183.2,5.1,-1.3,10.28,40.06,1.9509,390.6814],
    [8960,1537387510,53.3769,-109.9758,755.4,130.4,184.3,5.1,-1.3,10.21,39.75,1.9517,392.4741],
    [8961,1537387511,53.3762,-109.9758,755.2,130.2,185.4,4.6,-1.3,10.35,40.28,1.9556,393.6172],
    [8962,1537387512,53.3755,-109.9759,754.9,129.9,187.1,3.8,-2.0,10.25,39.47,1.9551,392.4881],
    [8963,1537387513,53.3749,-109.976,754.5,129.5,189.1,3.3,-1.4,11.11,39.09,1.9666,392.8622],
    [8964,1537387514,53.3742,-109.9761,753.9,127.9,192.9,3.8,-1.4,10.42,39.55,2.0038,393.4886],
    [8965,1537387515,53.3735,-109.9763,753.9,127.9,196.4,3.8,-1.6,9.53,39.7,2.0121,394.4441],
    [8966,1537387516,53.3728,-109.9766,754.1,128.1,199.9,4.0,-1.9,10.63,39.3,1.9763,393.3155],
    [8967,1537387517,53.3722,-109.977,754.2,128.2,202.8,3.7,-1.9,10.48,39.66,1.9657,394.3753],
    [8968,1537387518,53.3716,-109.9774,754.8,127.8,205.7,3.3,-1.9,10.47,40.28,1.9677,392.4226],
    [8969,1537387519,53.371,-109.9779,755.7,128.7,209.0,3.4,-2.3,10.17,40.6,1.9713,393.7365],
    [8970,1537387520,53.3704,-109.9784,756.3,129.3,211.8,3.4,-1.6,10.09,40.62,1.9775,393.6456],
    [8971,1537387521,53.3698,-109.9789,756.7,130.4,215.0,3.5,-1.9,10.53,40.66,1.9802,393.4775],
    [8972,1537387522,53.3692,-109.9796,756.6,130.6,218.7,5.3,-1.5,9.56,41.05,1.9812,393.2336],
    [8973,1537387523,53.3687,-109.9802,756.3,130.3,222.5,5.3,-2.7,9.91,41.34,1.9827,393.3072],
    [8974,1537387524,53.3682,-109.981,757.0,131.0,225.0,4.7,-2.0,10.22,42.1,1.9798,392.1648],
    [8975,1537387525,53.3677,-109.9817,757.2,131.8,228.0,4.8,-2.4,9.99,42.2,1.9686,393.9011],
    [8976,1537387526,53.3672,-109.9825,757.0,131.0,231.2,4.8,-2.6,10.25,42.08,1.9656,393.8329],
    [8977,1537387527,53.3668,-109.9834,756.9,131.2,234.6,4.9,-2.8,10.06,41.9,1.963,393.3753],
    [8978,1537387528,53.3664,-109.9842,757.2,132.9,237.7,4.3,-3.0,10.31,41.73,1.9622,393.544],
    [8979,1537387529,53.366,-109.9851,757.2,133.1,240.5,4.4,-2.8,10.26,42.61,1.962,393.5317],
    [8980,1537387530,53.3657,-109.9861,756.8,134.8,243.4,4.5,-2.8,10.83,41.68,1.9636,393.1119],
    [8981,1537387531,53.3654,-109.987,756.2,126.2,246.3,4.4,-2.6,10.21,41.95,1.9633,392.1597],
    [8982,1537387532,53.3651,-109.988,756.1,124.8,249.4,4.0,-2.6,10.07,41.56,1.9641,393.5605],
    [8983,1537387533,53.3648,-109.989,755.9,126.2,252.8,4.2,-3.3,10.33,41.78,1.9648,392.5841],
    [8984,1537387534,53.3646,-109.99,755.9,129.0,256.2,4.2,-3.4,10.91,40.81,1.9648,393.6377],
    [8985,1537387535,53.3645,-109.9911,756.1,130.0,259.2,4.4,-3.3,10.92,40.77,1.9656,393.0763],
    [8986,1537387536,53.3643,-109.9921,756.4,131.4,262.2,4.2,-3.4,10.06,41.6,1.9669,393.8968],
    [8987,1537387537,53.3642,-109.9932,757.1,131.1,264.6,4.3,-3.2,10.31,41.19,1.9671,393.7742],
    [8988,1537387538,53.3641,-109.9942,757.7,131.7,266.4,3.9,-3.0,10.47,40.81,1.9683,393.6341],
    [8989,1537387539,53.3641,-109.9953,758.1,132.1,268.2,4.1,-2.9,10.27,41.06,1.9659,393.6341],
    [8990,1537387540,53.364,-109.9963,758.1,131.5,269.0,4.7,-2.2,10.48,41.66,1.9713,393.4969],
    [8991,1537387541,53.364,-109.9974,758.3,130.6,269.9,4.7,-2.0,10.04,41.08,1.9711,393.7005],
    [8992,1537387542,53.364,-109.9985,757.9,129.3,271.7,4.2,-3.0,10.26,41.11,1.9725,393.7005],
    [8993,1537387543,53.364,-109.9996,757.6,128.1,272.4,4.7,-3.2,10.26,42.09,1.972,393.6449],
    [8994,1537387544,53.364,-110.0006,756.9,125.7,272.6,4.0,-3.1,10.21,42.02,1.971,393.4121],
    [8995,1537387545,53.364,-110.0017,755.9,123.9,272.2,5.1,-2.4,9.99,41.83,1.9705,392.1156],
    [8996,1537387546,53.364,-110.0028,755.4,123.1,273.5,4.3,-3.2,10.3,41.61,1.9679,392.7606],
    [8997,1537387547,53.364,-110.0039,755.3,122.2,273.8,4.0,-2.4,10.03,41.89,1.9626,393.6773],
    [8998,1537387548,53.3641,-110.0049,755.2,121.2,274.8,4.4,-2.7,10.44,41.46,1.9621,393.4853],
    [8999,1537387549,53.3641,-110.006,754.8,122.8,275.9,3.9,-2.8,10.72,41.62,1.9638,393.1344],
    [9000,1537387550,53.3641,-110.0071,754.6,122.6,276.7,3.7,-2.8,10.19,42.08,1.9667,394.2779],
    [9001,1537387551,53.3642,-110.0081,755.0,123.0,277.7,3.8,-3.6,10.0,41.81,1.9706,393.8381],
    [9002,1537387552,53.3643,-110.0091,756.3,124.3,278.0,4.1,-3.7,10.23,42.17,1.9682,391.4668],
    [9003,1537387553,53.3643,-110.0102,756.5,123.8,277.2,4.1,-2.8,10.57,41.57,1.9646,393.3983],
    [9004,1537387554,53.3644,-110.0113,756.5,123.8,276.6,4.3,-2.7,9.66,41.95,1.9711,393.5427],
    [9005,1537387555,53.3644,-110.0124,756.8,123.8,276.8,4.7,-3.5,10.75,41.57,1.9676,394.4303],
    [9006,1537387556,53.3645,-110.0134,756.8,122.8,276.1,5.0,-3.2,10.01,42.3,1.9635,393.3044],
    [9007,1537387557,53.3645,-110.0145,756.2,122.2,275.0,4.5,-2.3,10.28,42.02,1.9613,393.3044],
    [9008,1537387558,53.3646,-110.0156,755.6,122.6,275.3,4.3,-3.0,10.17,42.08,1.9625,393.7395],
    [9009,1537387559,53.3646,-110.0166,755.6,122.6,275.4,4.8,-3.2,10.3,42.21,1.964,392.6876],
    [9010,1537387560,53.3646,-110.0177,755.4,122.5,275.3,4.1,-2.8,10.04,42.22,1.9623,391.5959],
    [9011,1537387561,53.3647,-110.0188,754.8,120.8,274.8,4.1,-1.9,10.01,42.29,1.9597,393.0082],
    [9012,1537387562,53.3647,-110.0199,754.2,120.2,274.7,3.4,-1.7,10.5,41.56,1.9625,394.2256],
    [9013,1537387563,53.3648,-110.0209,755.0,121.0,275.3,2.2,-2.3,11.05,41.68,1.9664,393.5325],
    [9014,1537387564,53.3648,-110.022,756.4,121.4,275.6,4.0,-2.5,10.23,42.13,1.9622,390.8329],
    [9015,1537387565,53.3648,-110.023,756.7,121.7,275.2,3.5,-2.0,10.58,41.9,1.9626,391.8949],
    [9016,1537387566,53.3649,-110.0241,757.2,122.2,276.2,3.2,-3.1,10.02,42.7,1.9629,392.8358],
    [9017,1537387567,53.3649,-110.0252,758.6,123.9,276.0,3.4,-2.9,10.22,42.07,1.9648,393.4844],
    [9018,1537387568,53.365,-110.0262,760.0,125.0,275.6,3.6,-2.6,10.02,42.23,1.9644,393.4844],
    [9019,1537387569,53.365,-110.0273,760.9,125.9,275.7,3.6,-2.8,10.04,42.15,1.9645,393.8729],
    [9020,1537387570,53.3651,-110.0284,762.4,127.4,275.3,3.5,-2.5,10.03,42.62,1.9656,394.5077],
    [9021,1537387571,53.3651,-110.0294,763.5,128.5,275.3,3.3,-2.8,10.95,41.62,1.9647,393.6028],
    [9022,1537387572,53.3651,-110.0305,764.2,128.2,274.7,3.1,-2.5,9.83,42.14,1.9649,392.658],
    [9023,1537387573,53.3652,-110.0315,764.6,128.6,274.6,2.8,-2.5,10.22,42.26,1.9651,393.5444],
    [9024,1537387574,53.3652,-110.0326,765.5,128.6,274.2,3.2,-2.4,10.22,42.23,1.9656,393.5618],
    [9025,1537387575,53.3652,-110.0337,766.6,128.6,274.5,3.0,-2.8,10.03,42.28,1.9648,394.443],
    [9026,1537387576,53.3652,-110.0347,767.7,128.7,274.7,3.4,-3.0,9.8,42.24,1.9647,394.1682],
    [9027,1537387577,53.3653,-110.0357,768.7,128.7,274.4,4.3,-2.8,10.21,42.27,1.9658,393.4394],
    [9028,1537387578,53.3653,-110.0368,770.2,130.2,274.1,3.7,-2.3,10.05,42.44,1.9635,393.4496],
    [9029,1537387579,53.3653,-110.0378,771.0,131.0,273.6,4.0,-1.3,10.5,41.93,1.962,394.3136],
    [9030,1537387580,53.3653,-110.0389,771.2,131.2,273.1,3.3,-0.9,10.16,42.23,1.9647,393.9033],
    [9031,1537387581,53.3654,-110.04,772.4,132.4,274.1,3.1,-2.1,9.71,42.57,1.9642,393.5006],
    [9032,1537387582,53.3654,-110.041,774.0,133.3,274.3,3.1,-2.2,10.42,42.55,1.964,393.3596],
    [9033,1537387583,53.3654,-110.0421,775.1,134.1,274.3,4.1,-2.0,9.94,42.43,1.9629,392.4105],
    [9034,1537387584,53.3655,-110.0431,776.2,134.2,274.0,3.7,-1.7,9.97,42.78,1.9646,393.1429],
    [9035,1537387585,53.3655,-110.0441,777.2,134.2,274.3,3.0,-1.8,10.86,42.41,1.9642,393.6121],
    [9036,1537387586,53.3655,-110.0452,778.4,134.7,274.6,3.5,-2.1,10.5,42.13,1.9639,393.3447],
    [9037,1537387587,53.3656,-110.0462,779.8,135.8,274.3,3.8,-1.6,10.1,43.13,1.9624,392.9977],
    [9038,1537387588,53.3656,-110.0473,781.5,137.5,273.7,3.8,-1.1,10.28,42.76,1.969,391.3982],
    [9039,1537387589,53.3656,-110.0484,782.5,137.8,273.5,4.3,-0.8,10.43,42.9,1.9645,391.6898],
    [9040,1537387590,53.3657,-110.0494,782.7,137.7,273.8,5.0,-1.1,10.53,42.09,1.9665,393.5795],
    [9041,1537387591,53.3657,-110.0505,782.9,137.9,274.3,5.0,-1.6,10.07,42.36,1.9639,393.6528],
    [9042,1537387592,53.3657,-110.0515,783.4,137.6,274.6,4.7,-1.7,10.03,42.05,1.9621,393.9874],
    [9043,1537387593,53.3658,-110.0526,784.2,138.2,274.6,3.9,-1.6,10.2,42.81,1.9624,393.7414],
    [9044,1537387594,53.3658,-110.0536,784.5,137.8,275.0,4.8,-2.1,9.78,42.0,1.9614,392.8314],
    [9045,1537387595,53.3659,-110.0547,784.7,136.7,274.6,5.0,-2.0,9.88,41.7,1.9606,392.586],
    [9046,1537387596,53.3659,-110.0557,785.0,136.4,274.7,4.7,-2.4,10.18,42.52,1.9602,393.4657],
    [9047,1537387597,53.3659,-110.0568,785.6,136.3,274.3,4.5,-2.3,10.44,41.76,1.9599,392.9736],
    [9048,1537387598,53.3659,-110.0578,786.4,135.3,273.4,3.9,-1.7,10.1,41.9,1.9574,393.6255],
    [9049,1537387599,53.366,-110.0588,786.7,135.4,273.2,4.3,-1.9,10.16,42.59,1.9571,393.3538],
    [9050,1537387600,53.366,-110.0599,786.7,133.7,272.8,4.9,-1.8,9.9,41.81,1.9587,392.9132],
    [9051,1537387601,53.366,-110.061,786.8,132.6,273.1,5.3,-2.5,9.48,41.38,1.9582,393.9181],
    [9052,1537387602,53.366,-110.062,786.9,131.8,273.4,5.4,-2.9,10.41,40.99,1.9561,393.4243],
    [9053,1537387603,53.366,-110.0631,787.0,131.9,273.3,4.6,-2.8,10.83,40.99,1.957,393.6818],
    [9054,1537387604,53.366,-110.0641,786.9,131.3,272.7,4.3,-2.1,10.36,40.85,1.9564,394.2107],
    [9055,1537387605,53.3661,-110.0652,786.4,130.2,272.2,3.8,-1.8,10.34,40.59,1.9567,393.1726],
    [9056,1537387606,53.3661,-110.0662,785.7,128.7,272.1,3.7,-1.7,9.42,40.76,1.9571,394.0029],
    [9057,1537387607,53.3661,-110.0673,785.1,128.1,272.2,3.7,-1.9,9.98,40.63,1.9589,393.6498],
    [9058,1537387608,53.3661,-110.0683,785.0,128.7,272.7,3.8,-2.4,9.89,40.61,1.96,394.755],
    [9059,1537387609,53.3661,-110.0694,785.4,128.9,272.7,3.6,-2.2,10.23,40.45,1.9624,394.4302],
    [9060,1537387610,53.3661,-110.0705,786.2,130.1,272.6,3.5,-2.1,10.24,40.57,1.9619,393.7096],
    [9061,1537387611,53.3661,-110.0715,787.2,132.2,272.7,3.4,-2.3,9.94,40.89,1.9603,393.8562],
    [9062,1537387612,53.3661,-110.0725,787.9,133.9,272.9,3.3,-2.6,10.55,40.79,1.9609,393.3185],
    [9063,1537387613,53.3661,-110.0736,788.8,134.1,272.9,3.1,-2.7,9.95,41.89,1.9596,393.3139],
    [9064,1537387614,53.3661,-110.0746,789.6,134.6,272.7,3.4,-2.6,10.13,41.04,1.9619,394.2921],
    [9065,1537387615,53.3662,-110.0757,790.5,135.5,272.7,3.9,-2.9,9.86,41.31,1.9612,392.2149],
    [9066,1537387616,53.3662,-110.0768,792.0,137.0,272.9,3.5,-3.3,10.14,41.75,1.9604,394.133],
    [9067,1537387617,53.3662,-110.0778,793.6,138.6,272.4,4.0,-2.9,10.0,41.44,1.9606,393.986],
    [9068,1537387618,53.3662,-110.0788,795.0,141.0,271.4,3.5,-1.8,10.16,41.03,1.9613,394.3851],
    [9069,1537387619,53.3662,-110.0799,795.5,141.5,270.4,4.8,-1.0,9.91,41.84,1.9637,394.3851],
    [9070,1537387620,53.3662,-110.081,795.8,142.8,271.4,4.0,-2.6,9.98,42.22,1.9653,393.1188],
    [9071,1537387621,53.3661,-110.082,797.1,144.1,271.0,3.3,-2.1,9.87,42.0,1.9657,393.7024],
    [9072,1537387622,53.3661,-110.083,798.8,146.8,271.1,3.8,-2.2,10.23,42.36,1.9631,393.772],
    [9073,1537387623,53.3661,-110.0841,799.6,146.6,271.6,3.7,-2.5,10.6,41.8,1.962,392.3721],
    [9074,1537387624,53.3661,-110.0851,800.0,147.0,271.9,4.7,-2.8,10.17,43.07,1.9648,392.3721],
    [9075,1537387625,53.3661,-110.0861,800.8,148.8,272.4,3.8,-3.2,9.97,42.15,1.9657,393.4996],
    [9076,1537387626,53.3661,-110.0872,802.2,150.2,271.8,3.8,-2.4,10.79,42.26,1.9657,393.7369],
    [9077,1537387627,53.3661,-110.0883,803.5,151.8,271.6,4.2,-2.3,9.86,42.89,1.9655,394.0771],
    [9078,1537387628,53.3661,-110.0893,804.4,153.4,271.5,3.7,-2.4,9.71,43.01,1.964,393.6112],
    [9079,1537387629,53.3661,-110.0903,805.0,154.0,271.6,3.9,-2.9,10.02,42.44,1.9627,393.3364],
    [9080,1537387630,53.3661,-110.0914,805.0,154.0,271.7,4.1,-2.9,10.15,43.04,1.9616,391.6987],
    [9081,1537387631,53.3661,-110.0924,804.9,154.1,271.1,4.1,-2.3,9.91,43.1,1.9628,393.4697],
    [9082,1537387632,53.3661,-110.0935,804.7,154.7,271.1,4.3,-2.3,10.02,42.59,1.9612,394.2651],
    [9083,1537387633,53.3661,-110.0946,804.0,154.0,271.1,4.1,-2.2,10.53,42.55,1.9623,393.8484],
    [9084,1537387634,53.3661,-110.0956,803.2,153.2,270.9,5.4,-2.1,9.76,43.64,1.9644,393.5904],
    [9085,1537387635,53.3661,-110.0967,802.5,152.5,270.9,4.4,-2.0,9.3,43.09,1.9632,393.4316],
    [9086,1537387636,53.3661,-110.0977,802.2,152.7,271.3,3.7,-2.4,9.82,43.22,1.9634,392.9772],
    [9087,1537387637,53.3661,-110.0987,801.9,152.9,270.6,3.0,-1.3,9.6,43.54,1.9658,393.8121],
    [9088,1537387638,53.3661,-110.0998,801.2,152.2,270.7,4.1,-1.5,9.19,43.41,1.9644,394.5494],
    [9089,1537387639,53.366,-110.1009,800.7,151.7,271.5,4.0,-2.3,9.69,43.48,1.9649,394.5494],
    [9090,1537387640,53.366,-110.1019,800.6,151.6,271.3,4.5,-2.1,10.18,43.58,1.966,394.8354],
    [9091,1537387641,53.366,-110.103,800.9,151.9,271.7,4.5,-2.3,10.08,43.51,1.9664,394.8354],
    [9092,1537387642,53.366,-110.1041,800.6,151.6,271.3,4.2,-1.8,9.83,43.98,1.9638,393.708],
    [9093,1537387643,53.366,-110.1051,800.3,152.3,271.2,3.9,-1.7,9.87,44.6,1.9626,393.708],
    [9094,1537387644,53.366,-110.1062,800.2,152.2,271.1,3.6,-1.6,9.87,43.85,1.9637,393.9968],
    [9095,1537387645,53.366,-110.1072,800.5,152.5,270.7,3.0,-1.1,9.24,43.59,1.9639,394.0107],
    [9096,1537387646,53.366,-110.1083,800.7,152.0,270.5,3.5,-1.1,10.23,42.87,1.9628,393.1469],
    [9097,1537387647,53.366,-110.1094,800.7,151.7,271.1,3.8,-1.8,9.28,43.6,1.9625,393.0662],
    [9098,1537387648,53.366,-110.1105,800.7,151.7,271.0,3.8,-1.6,10.33,43.0,1.9561,392.5184],
    [9099,1537387649,53.366,-110.1115,800.7,151.7,271.4,3.5,-2.0,9.69,43.33,1.9512,390.1294],
    [9100,1537387650,53.366,-110.1126,800.8,151.8,271.2,3.2,-1.7,9.23,42.76,1.9541,390.8469],
    [9101,1537387651,53.366,-110.1137,800.9,151.9,271.0,3.3,-1.3,9.74,42.65,1.9543,393.2492],
    [9102,1537387652,53.366,-110.1147,801.2,152.2,271.4,3.6,-1.8,10.14,41.52,1.9538,393.3088],
    [9103,1537387653,53.366,-110.1158,801.6,152.6,271.7,3.3,-2.1,9.71,41.59,1.9531,393.222],
    [9104,1537387654,53.366,-110.1169,801.9,152.9,271.4,3.4,-1.8,9.85,41.5,1.9553,394.6643],
    [9105,1537387655,53.366,-110.1179,801.5,152.5,271.5,3.7,-2.0,10.11,40.55,1.9567,394.3835],
    [9106,1537387656,53.366,-110.119,801.0,152.0,271.5,3.7,-2.0,9.82,41.13,1.9562,394.0736],
    [9107,1537387657,53.366,-110.1201,801.0,152.7,271.3,3.9,-1.8,9.75,41.75,1.9556,392.8465],
    [9108,1537387658,53.366,-110.1211,801.1,153.1,271.0,4.2,-1.4,9.81,40.7,1.956,392.3089],
    [9109,1537387659,53.366,-110.1222,801.4,153.4,270.7,4.2,-1.1,9.72,40.99,1.9568,393.7339],
    [9110,1537387660,53.366,-110.1233,802.2,153.9,270.6,4.1,-1.0,9.71,40.94,1.9589,394.1069],
    [9111,1537387661,53.366,-110.1244,802.4,153.4,271.3,4.4,-1.9,9.61,41.21,1.9634,392.6893],
    [9112,1537387662,53.366,-110.1254,801.8,152.9,271.2,4.3,-1.6,9.56,41.19,1.9691,392.8134],
    [9113,1537387663,53.366,-110.1265,801.5,151.5,271.3,4.6,-1.8,9.88,41.57,1.9693,393.4149],
    [9114,1537387664,53.366,-110.1276,801.8,151.9,271.6,4.7,-2.0,9.67,42.05,1.9687,394.0852],
    [9115,1537387665,53.366,-110.1286,802.1,151.0,271.2,4.8,-1.6,9.84,43.32,1.97,394.8886],
    [9116,1537387666,53.366,-110.1297,801.8,150.8,271.2,4.5,-1.6,9.66,43.39,1.9701,394.5987],
    [9117,1537387667,53.366,-110.1308,801.3,149.9,271.2,5.7,-1.7,9.28,43.59,1.9703,395.3131],
    [9118,1537387668,53.366,-110.1318,800.7,148.5,271.1,5.5,-1.3,9.43,44.19,1.9701,393.7566],
    [9119,1537387669,53.366,-110.1329,800.9,146.9,270.4,4.8,-0.2,9.78,45.05,1.9698,392.253],
    [9120,1537387670,53.366,-110.134,801.4,146.4,270.5,3.5,0.0,9.78,44.52,1.9704,393.352],
    [9121,1537387671,53.366,-110.1351,801.8,145.9,271.9,3.5,-1.3,9.55,45.01,1.9698,394.5644],
    [9122,1537387672,53.366,-110.1361,801.6,145.6,272.6,4.0,-1.5,9.79,45.52,1.9695,393.1503],
    [9123,1537387673,53.3661,-110.1372,802.1,146.1,272.0,4.2,-0.3,9.53,45.64,1.9701,393.6189],
    [9124,1537387674,53.3661,-110.1383,802.7,146.7,272.0,4.3,-0.5,10.68,45.07,1.971,393.8611],
    [9125,1537387675,53.3661,-110.1393,802.8,146.8,273.0,4.4,-1.7,10.39,45.19,1.9699,393.8611],
    [9126,1537387676,53.3661,-110.1404,802.2,146.2,271.9,4.2,-0.4,9.35,45.97,1.9706,394.3628],
    [9127,1537387677,53.3661,-110.1415,801.9,145.9,271.7,4.0,-0.9,9.86,45.92,1.9675,393.8434],
    [9128,1537387678,53.3662,-110.1425,801.6,145.6,271.1,4.8,-0.3,9.77,45.63,1.9671,394.5815],
    [9129,1537387679,53.3662,-110.1436,800.3,144.3,271.1,5.0,-0.7,9.07,45.84,1.9664,394.5815],
    [9130,1537387680,53.3662,-110.1447,799.5,142.5,271.8,5.1,-1.4,9.6,46.14,1.9682,394.5703],
    [9131,1537387681,53.3662,-110.1458,799.9,142.9,271.6,4.7,-1.1,9.72,45.67,1.9681,393.1587],
    [9132,1537387682,53.3662,-110.1468,800.1,143.1,271.4,3.4,-0.9,9.75,45.66,1.9681,393.405],
    [9133,1537387683,53.3662,-110.1479,799.7,142.7,270.7,3.9,-0.5,9.7,45.62,1.9675,393.5777],
    [9134,1537387684,53.3662,-110.149,799.8,142.8,269.8,3.0,0.4,10.0,45.69,1.9666,392.7715],
    [9135,1537387685,53.3662,-110.1501,800.6,143.6,269.9,2.4,-0.1,9.83,46.14,1.9668,394.2143],
    [9136,1537387686,53.3662,-110.1511,801.5,143.5,270.1,2.8,0.0,9.85,45.51,1.9671,392.2112],
    [9137,1537387687,53.3662,-110.1522,802.4,144.4,269.6,2.6,0.5,9.77,45.74,1.9669,393.8128],
    [9138,1537387688,53.3662,-110.1533,802.3,143.3,270.1,2.0,0.3,9.67,45.66,1.9668,393.352],
    [9139,1537387689,53.3662,-110.1544,802.2,143.2,269.8,3.0,0.7,9.84,46.14,1.9662,393.352],
    [9140,1537387690,53.3662,-110.1554,802.2,143.2,271.2,3.6,-0.4,10.29,45.13,1.9653,392.8988],
    [9141,1537387691,53.3662,-110.1565,801.5,142.5,270.8,3.6,0.7,9.51,46.23,1.9645,392.8988],
    [9142,1537387692,53.3662,-110.1576,801.1,141.1,271.7,3.6,0.4,9.91,45.73,1.9662,392.9918],
    [9143,1537387693,53.3663,-110.1587,801.1,141.1,272.2,3.7,0.4,9.85,45.54,1.9664,392.9918],
    [9144,1537387694,53.3663,-110.1598,801.3,140.3,272.1,3.2,0.6,9.87,45.67,1.9662,392.8561],
    [9145,1537387695,53.3663,-110.1609,801.4,139.7,272.4,3.1,0.2,10.06,44.75,1.9662,392.6544],
    [9146,1537387696,53.3664,-110.162,801.3,139.3,272.6,3.4,0.0,10.03,44.77,1.9669,393.3617],
    [9147,1537387697,53.3664,-110.1631,801.2,138.2,272.1,3.2,0.4,9.34,44.62,1.9675,393.1198],
    [9148,1537387698,53.3664,-110.1641,801.2,138.2,272.3,3.1,-0.1,9.84,44.72,1.9654,393.9914],
    [9149,1537387699,53.3664,-110.1652,801.4,137.3,271.4,3.6,0.8,9.97,45.29,1.9647,393.921],
    [9150,1537387700,53.3665,-110.1663,801.8,137.8,272.0,3.1,-0.2,10.03,44.71,1.9652,394.7052],
    [9151,1537387701,53.3665,-110.1674,802.4,138.4,271.5,3.1,0.6,10.33,44.83,1.9647,392.2228],
    [9152,1537387702,53.3665,-110.1685,802.9,139.6,271.2,4.0,0.0,9.87,45.02,1.9641,394.0331],
    [9153,1537387703,53.3665,-110.1696,804.3,140.3,271.9,2.8,-1.5,9.75,45.09,1.9634,394.0331],
    [9154,1537387704,53.3665,-110.1707,805.4,141.4,272.0,1.8,-2.2,9.95,45.22,1.9629,393.7761],
    [9155,1537387705,53.3665,-110.1718,804.8,140.8,272.9,3.7,-3.1,10.04,45.26,1.9617,394.0299],
    [9156,1537387706,53.3665,-110.1729,802.9,138.9,272.4,3.8,-2.5,9.85,44.81,1.964,394.0299],
    [9157,1537387707,53.3665,-110.174,801.2,137.2,272.1,4.9,-2.3,9.94,45.17,1.964,393.0836],
    [9158,1537387708,53.3665,-110.1751,800.2,136.2,272.4,4.9,-3.0,10.1,44.66,1.962,393.9132],
    [9159,1537387709,53.3665,-110.1761,799.8,134.8,272.7,5.3,-3.6,10.38,44.01,1.9635,393.9132],
    [9160,1537387710,53.3665,-110.1773,799.4,134.4,272.3,3.7,-2.8,9.98,44.61,1.9638,392.8413],
    [9161,1537387711,53.3665,-110.1784,799.8,134.8,272.1,2.7,-2.5,9.79,44.3,1.9635,393.7707],
    [9162,1537387712,53.3666,-110.1795,800.9,135.9,271.0,2.9,-0.5,10.05,44.83,1.9634,393.6953],
    [9163,1537387713,53.3666,-110.1807,800.9,134.9,270.3,3.4,0.0,9.76,44.2,1.9643,392.5276],
    [9164,1537387714,53.3666,-110.1818,801.1,135.1,271.6,4.2,-1.5,10.07,44.23,1.9652,393.3022],
    [9165,1537387715,53.3666,-110.1828,801.7,136.4,270.8,5.8,-1.1,9.85,44.46,1.9669,393.5194],
    [9166,1537387716,53.3666,-110.184,803.8,138.8,271.5,4.9,-2.5,9.76,44.88,1.9671,393.9289],
    [9167,1537387717,53.3666,-110.1851,803.9,138.9,271.6,5.2,-2.6,10.33,44.2,1.9645,392.6487],
    [9168,1537387718,53.3666,-110.1862,803.3,137.3,271.0,4.8,-2.0,10.22,44.1,1.9625,392.0044],
    [9169,1537387719,53.3666,-110.1873,802.5,136.6,271.4,4.9,-2.3,10.17,44.54,1.9615,393.866],
    [9170,1537387720,53.3665,-110.1884,801.9,136.6,272.0,5.2,-2.9,9.58,43.9,1.9606,394.1661],
    [9171,1537387721,53.3666,-110.1895,801.6,137.6,272.1,5.4,-2.7,9.98,43.54,1.9657,394.247],
    [9172,1537387722,53.3666,-110.1906,801.7,139.5,271.9,5.3,-2.5,10.14,43.22,1.9557,392.8818],
    [9173,1537387723,53.3666,-110.1917,801.6,138.9,272.0,4.7,-2.5,10.06,43.09,1.9527,392.7218],
    [9174,1537387724,53.3666,-110.1929,801.5,138.5,271.9,5.1,-2.5,9.88,42.85,1.9511,391.0333],
    [9175,1537387725,53.3666,-110.194,802.0,138.8,271.8,5.0,-2.4,9.74,42.33,1.9506,393.4186],
    [9176,1537387726,53.3666,-110.1951,802.3,139.3,271.8,5.0,-2.4,10.34,41.95,1.9548,393.9142],
    [9177,1537387727,53.3666,-110.1962,801.7,138.7,271.6,4.7,-2.1,9.88,41.99,1.9641,393.2967],
    [9178,1537387728,53.3666,-110.1973,801.0,138.0,271.8,4.6,-2.4,10.22,41.95,1.9643,393.8997],
    [9179,1537387729,53.3666,-110.1984,800.6,137.6,272.0,4.8,-2.4,10.43,41.35,1.9637,392.4879],
    [9180,1537387730,53.3666,-110.1995,800.7,137.7,271.9,4.8,-2.4,9.92,42.08,1.9607,393.2537],
    [9181,1537387731,53.3666,-110.2006,801.4,138.4,272.0,4.9,-2.5,10.14,42.81,1.9552,393.442],
    [9182,1537387732,53.3666,-110.2017,802.3,139.3,272.3,4.9,-2.8,9.76,42.17,1.951,393.6161],
    [9183,1537387733,53.3666,-110.2028,803.4,140.4,272.0,4.9,-2.5,10.19,42.75,1.9502,393.6888],
    [9184,1537387734,53.3666,-110.2039,804.6,141.6,272.1,5.2,-2.5,10.02,42.31,1.9498,392.7624],
    [9185,1537387735,53.3666,-110.205,805.3,142.4,271.8,5.2,-2.2,10.14,42.58,1.9538,393.47],
    [9186,1537387736,53.3666,-110.2061,805.6,143.6,271.8,5.2,-2.2,10.05,41.9,1.9509,392.3322],
    [9187,1537387737,53.3666,-110.2072,806.0,145.0,271.9,5.0,-2.4,10.15,41.07,1.9523,393.4188],
    [9188,1537387738,53.3666,-110.2082,806.7,145.7,272.1,4.6,-2.4,10.24,41.19,1.9544,392.7227],
    [9189,1537387739,53.3666,-110.2093,807.4,145.8,271.9,4.6,-2.3,9.8,41.19,1.955,393.9662],
    [9190,1537387740,53.3666,-110.2104,808.4,146.4,272.1,4.2,-2.3,10.2,41.36,1.9546,394.4552],
    [9191,1537387741,53.3666,-110.2115,810.0,149.0,271.7,4.7,-1.9,9.62,41.57,1.9557,391.9867],
    [9192,1537387742,53.3666,-110.2126,810.9,150.4,272.4,4.3,-2.6,10.34,40.81,1.9562,394.6575],
    [9193,1537387743,53.3666,-110.2136,811.6,151.6,271.9,4.2,-2.1,9.82,41.84,1.957,393.0721],
    [9194,1537387744,53.3666,-110.2147,812.4,152.4,271.7,4.1,-1.9,9.96,42.27,1.959,393.0721],
    [9195,1537387745,53.3666,-110.2158,813.2,152.2,271.5,3.8,-1.7,9.88,42.65,1.9599,395.5243],
    [9196,1537387746,53.3666,-110.2168,813.6,152.6,271.5,4.1,-1.8,10.38,41.47,1.9603,394.2711],
    [9197,1537387747,53.3666,-110.2179,813.9,152.6,272.0,4.1,-2.3,9.83,42.51,1.9588,394.4898],
    [9198,1537387748,53.3666,-110.219,814.3,153.3,272.0,3.7,-2.2,10.03,43.18,1.957,394.2172],
    [9199,1537387749,53.3666,-110.22,814.6,153.6,272.2,3.9,-2.5,9.91,42.77,1.9603,393.0944],
    [9200,1537387750,53.3666,-110.2211,814.8,153.8,272.5,3.4,-2.8,9.88,42.98,1.9615,394.9895],
    [9201,1537387751,53.3666,-110.2222,814.8,154.8,272.1,3.4,-2.5,9.52,43.35,1.9605,393.0755],
    [9202,1537387752,53.3666,-110.2232,814.7,155.1,272.1,3.3,-2.6,9.68,43.03,1.9609,394.1016],
    [9203,1537387753,53.3666,-110.2243,814.9,155.4,271.9,3.5,-2.3,9.53,43.23,1.9605,393.8885],
    [9204,1537387754,53.3666,-110.2254,815.1,154.1,271.5,3.2,-2.0,9.66,43.65,1.96,393.0817],
    [9205,1537387755,53.3666,-110.2264,815.6,154.6,271.5,3.3,-2.0,9.41,43.7,1.9605,393.215],
    [9206,1537387756,53.3666,-110.2275,816.4,155.4,271.4,3.3,-1.9,10.26,42.9,1.9609,393.5113],
    [9207,1537387757,53.3666,-110.2285,817.1,155.1,271.8,3.8,-2.3,9.79,43.69,1.9596,394.3236],
    [9208,1537387758,53.3666,-110.2296,817.5,155.8,271.0,3.2,-1.3,9.71,43.54,1.9592,392.8515],
    [9209,1537387759,53.3666,-110.2306,816.7,155.5,271.1,3.1,-1.5,9.64,44.08,1.9603,394.6132],
    [9210,1537387760,53.3666,-110.2317,815.5,153.5,271.9,3.7,-2.4,9.61,43.82,1.9589,393.9661],
    [9211,1537387761,53.3666,-110.2327,814.9,153.1,272.1,3.9,-2.6,10.04,43.39,1.958,392.7222],
    [9212,1537387762,53.3666,-110.2339,815.4,151.4,272.6,4.4,-3.2,9.81,43.97,1.9574,392.0845],
    [9213,1537387763,53.3666,-110.2349,815.9,149.6,272.2,4.2,-2.7,9.67,44.1,1.9576,393.7983],
    [9214,1537387764,53.3666,-110.236,816.1,147.4,272.3,4.8,-3.1,9.34,43.88,1.9572,393.7983],
    [9215,1537387765,53.3666,-110.2371,816.3,145.2,272.8,5.1,-3.9,9.6,44.31,1.9579,393.4668],
    [9216,1537387766,53.3666,-110.2381,816.5,145.2,272.8,5.2,-3.9,10.13,43.74,1.9594,394.5216],
    [9217,1537387767,53.3666,-110.2392,816.6,146.3,272.6,4.9,-3.8,9.83,44.16,1.9611,392.9083],
    [9218,1537387768,53.3666,-110.2402,816.7,146.6,272.5,5.0,-3.8,9.64,43.94,1.9597,394.0477],
    [9219,1537387769,53.3666,-110.2413,816.8,147.8,272.0,4.6,-3.6,9.69,43.92,1.959,394.1999],
    [9220,1537387770,53.3666,-110.2424,816.8,147.7,271.9,5.1,-3.6,10.4,43.49,1.9584,393.9342],
    [9221,1537387771,53.3666,-110.2434,816.5,147.5,271.9,5.3,-3.8,9.26,44.13,1.9579,396.0293],
    [9222,1537387772,53.3666,-110.2445,816.3,147.2,271.8,5.8,-3.7,10.03,43.47,1.9582,394.348],
    [9223,1537387773,53.3666,-110.2456,816.6,147.8,271.7,4.8,-3.3,9.76,44.0,1.9591,393.6808],
    [9224,1537387774,53.3666,-110.2466,817.2,148.2,271.4,3.7,-2.6,9.52,43.85,1.9581,393.8991],
    [9225,1537387775,53.3666,-110.2477,817.0,147.5,271.5,5.3,-2.9,9.91,43.69,1.9587,393.7568],
    [9226,1537387776,53.3665,-110.2488,816.6,146.8,271.7,5.6,-3.3,9.75,44.23,1.9572,393.7568],
    [9227,1537387777,53.3665,-110.2499,816.5,147.9,271.7,5.3,-3.4,9.74,44.59,1.9593,393.7038],
    [9228,1537387778,53.3665,-110.2509,816.6,148.3,271.3,4.3,-2.9,9.21,44.05,1.9614,393.3295],
    [9229,1537387779,53.3665,-110.252,817.0,148.1,270.6,5.2,-1.9,9.73,43.93,1.9594,394.1437],
    [9230,1537387780,53.3665,-110.2531,816.9,147.0,270.3,5.0,-1.6,9.79,44.97,1.9601,393.5741],
    [9231,1537387781,53.3665,-110.2542,816.6,145.7,271.1,4.9,-2.2,9.47,44.0,1.9607,393.141],
    [9232,1537387782,53.3665,-110.2552,816.7,145.0,270.7,5.2,-1.5,9.67,44.27,1.9592,393.6694],
    [9233,1537387783,53.3665,-110.2563,816.6,144.7,271.1,4.3,-1.7,10.24,43.83,1.9593,392.3725],
    [9234,1537387784,53.3665,-110.2574,816.2,143.2,270.8,5.2,-1.1,9.63,44.43,1.9594,393.434],
    [9235,1537387785,53.3665,-110.2585,816.2,142.2,270.7,4.6,-0.9,9.83,44.71,1.966,392.8954],
    [9236,1537387786,53.3665,-110.2596,816.6,142.6,271.1,5.1,-1.3,10.11,44.23,1.9684,394.339],
    [9237,1537387787,53.3665,-110.2607,817.3,143.3,271.6,4.9,-1.6,9.79,45.14,1.9691,391.9419],
    [9238,1537387788,53.3665,-110.2617,818.1,144.1,271.6,4.9,-1.7,9.94,44.75,1.9653,393.1063],
    [9239,1537387789,53.3665,-110.2628,819.2,145.3,272.3,4.5,-2.6,9.6,44.32,1.9608,394.386],
    [9240,1537387790,53.3665,-110.2639,820.2,145.2,272.3,4.8,-2.5,10.2,43.54,1.9607,393.3406],
    [9241,1537387791,53.3665,-110.265,821.0,145.2,272.0,4.6,-2.3,10.13,44.18,1.9595,392.3104],
    [9242,1537387792,53.3665,-110.266,822.1,145.2,272.5,4.8,-3.0,9.75,44.74,1.9608,393.9018],
    [9243,1537387793,53.3665,-110.2671,823.5,145.8,272.4,4.7,-3.0,9.72,44.38,1.9596,393.248],
    [9244,1537387794,53.3665,-110.2681,824.8,146.6,272.2,5.7,-2.8,9.73,44.38,1.9581,393.248],
    [9245,1537387795,53.3665,-110.2692,825.5,146.6,272.0,5.3,-2.7,9.75,44.32,1.9574,392.0934],
    [9246,1537387796,53.3665,-110.2703,826.2,146.3,271.7,5.3,-2.6,9.79,44.45,1.954,395.8664],
    [9247,1537387797,53.3665,-110.2713,827.0,145.3,271.9,5.0,-2.8,9.7,44.43,1.9509,393.3208],
    [9248,1537387798,53.3665,-110.2724,828.0,144.8,271.6,5.0,-2.6,9.79,44.52,1.9496,393.5999],
    [9249,1537387799,53.3665,-110.2734,829.0,143.6,271.5,4.8,-2.6,10.11,43.22,1.9501,393.2988],
    [9250,1537387800,53.3665,-110.2745,830.2,143.3,271.9,4.1,-3.0,9.92,42.79,1.9642,391.6263],
    [9251,1537387801,53.3665,-110.2756,831.4,142.7,271.3,4.9,-2.3,10.1,42.03,1.9562,394.3036],
    [9252,1537387802,53.3665,-110.2766,833.0,143.0,270.8,3.7,-1.7,9.69,42.87,1.9557,393.7162],
    [9253,1537387803,53.3665,-110.2777,834.1,142.7,271.0,3.7,-2.0,9.83,41.77,1.9722,394.1034],
    [9254,1537387804,53.3665,-110.2787,833.9,140.9,270.3,3.1,-1.0,9.98,41.62,1.9888,393.1552],
    [9255,1537387805,53.3665,-110.2798,834.1,139.9,270.1,4.1,-0.9,9.77,43.06,2.0169,393.7941],
    [9256,1537387806,53.3665,-110.2808,835.1,140.2,270.7,3.2,-1.1,9.73,42.56,2.0135,393.7941],
    [9257,1537387807,53.3665,-110.2819,835.6,139.2,270.7,3.7,-1.0,9.74,43.5,1.9881,396.412],
    [9258,1537387808,53.3665,-110.283,835.8,138.9,270.9,3.4,-1.1,9.61,43.89,1.9698,393.4056],
    [9259,1537387809,53.3665,-110.284,836.2,138.2,271.4,4.1,-1.6,10.07,43.26,1.9646,393.9305],
    [9260,1537387810,53.3665,-110.285,836.6,138.2,271.7,4.1,-1.6,9.7,43.94,1.962,394.5793],
    [9261,1537387811,53.3665,-110.2861,836.7,137.7,271.4,3.6,-1.0,10.09,43.49,1.958,393.5429],
    [9262,1537387812,53.3665,-110.2872,836.2,137.2,271.5,4.4,-1.2,9.55,44.12,1.9561,393.6745],
    [9263,1537387813,53.3665,-110.2883,836.1,138.1,272.3,4.1,-2.0,10.15,44.03,1.9573,393.1582],
    [9264,1537387814,53.3665,-110.2893,837.0,139.0,271.7,4.1,-1.3,9.79,44.12,1.9577,392.3582],
    [9265,1537387815,53.3665,-110.2904,837.6,139.6,271.9,3.9,-1.7,9.67,44.8,1.9563,392.9127],
    [9266,1537387816,53.3665,-110.2914,836.8,138.8,271.6,4.1,-1.3,9.86,43.36,1.9563,393.905],
    [9267,1537387817,53.3665,-110.2925,835.3,137.3,271.3,4.3,-1.0,9.53,43.91,1.9565,393.8639],
    [9268,1537387818,53.3665,-110.2936,834.2,137.2,270.7,3.8,-0.4,9.07,43.8,1.955,393.4073],
    [9269,1537387819,53.3665,-110.2947,833.2,136.2,270.7,4.0,-0.6,10.16,43.37,1.9559,393.0173],
    [9270,1537387820,53.3665,-110.2958,833.0,136.8,271.1,3.7,-0.5,9.99,43.11,1.955,394.0162],
    [9271,1537387821,53.3665,-110.2968,833.2,137.7,271.4,4.3,-0.6,9.63,44.1,1.9572,392.543],
    [9272,1537387822,53.3666,-110.2979,833.3,138.3,272.3,3.9,-1.1,9.14,43.39,1.9553,392.2731],
    [9273,1537387823,53.3666,-110.299,833.8,138.8,272.4,4.2,-1.0,9.03,43.36,1.956,393.0945],
    [9274,1537387824,53.3666,-110.3,834.0,138.2,272.4,4.6,-1.0,9.13,43.3,1.9548,393.0945],
    [9275,1537387825,53.3666,-110.3011,834.3,138.3,272.0,4.7,-0.7,9.62,43.46,1.9564,392.9034],
    [9276,1537387826,53.3666,-110.3022,834.6,139.3,271.6,4.3,-0.5,9.19,43.34,1.9529,395.0093],
    [9277,1537387827,53.3666,-110.3032,834.9,139.9,271.6,4.5,-0.8,9.36,43.33,1.9533,392.0556],
    [9278,1537387828,53.3667,-110.3043,835.4,141.4,271.1,4.4,-0.3,9.64,42.92,1.9545,392.4854],
    [9279,1537387829,53.3667,-110.3054,835.5,141.5,270.8,4.6,-0.1,9.52,43.37,1.955,391.7743],
    [9280,1537387830,53.3667,-110.3065,834.5,140.5,271.4,5.0,-0.9,10.0,42.13,1.9555,393.7809],
    [9281,1537387831,53.3667,-110.3075,834.3,140.3,271.9,4.6,-1.4,9.66,42.91,1.9559,394.0153],
    [9282,1537387832,53.3667,-110.3085,834.8,141.8,272.7,3.9,-2.2,9.64,42.97,1.9538,393.8928],
    [9283,1537387833,53.3667,-110.3097,834.8,141.9,272.9,4.0,-2.4,9.76,43.27,1.9501,393.6882],
    [9284,1537387834,53.3667,-110.3107,834.7,140.7,272.6,4.6,-2.2,9.51,43.34,1.9502,393.3124],
    [9285,1537387835,53.3667,-110.3118,835.0,141.0,271.4,4.4,-0.9,9.29,42.62,1.9534,393.4431],
    [9286,1537387836,53.3667,-110.3129,835.2,141.2,271.1,4.6,-0.8,9.84,41.98,1.9536,393.9143],
    [9287,1537387837,53.3667,-110.3139,835.0,141.0,271.3,5.7,-1.1,9.38,42.36,1.9543,393.9143],
    [9288,1537387838,53.3667,-110.315,834.9,141.9,271.3,5.0,-0.9,9.8,41.99,1.9533,393.8481],
    [9289,1537387839,53.3668,-110.3161,835.6,142.6,271.4,3.7,-0.8,9.91,42.14,1.9544,394.3294],
    [9290,1537387840,53.3668,-110.3172,836.9,144.9,271.3,5.5,-0.6,9.73,42.44,1.955,393.2282],
    [9291,1537387841,53.3668,-110.3183,837.7,145.7,271.2,5.8,-0.7,9.48,42.16,1.9538,393.5625],
    [9292,1537387842,53.3668,-110.3193,838.6,147.5,271.5,6.2,-1.3,9.96,41.68,1.9538,392.5784],
    [9293,1537387843,53.3668,-110.3204,839.5,149.9,271.4,6.0,-1.2,9.28,42.52,1.9537,392.895],
    [9294,1537387844,53.3668,-110.3214,840.1,152.4,271.9,5.6,-1.8,10.04,41.73,1.9517,393.1888],
    [9295,1537387845,53.3668,-110.3225,840.6,155.4,271.7,5.6,-1.5,9.25,42.06,1.951,393.1888],
    [9296,1537387846,53.3668,-110.3236,841.1,157.4,271.4,5.4,-1.2,10.03,41.82,1.953,393.2897],
    [9297,1537387847,53.3668,-110.3246,841.5,159.6,271.4,5.0,-1.1,9.77,41.4,1.9542,393.5231],
    [9298,1537387848,53.3668,-110.3257,842.7,161.8,271.2,4.8,-0.8,9.37,41.71,1.9565,392.8168],
    [9299,1537387849,53.3668,-110.3268,844.0,165.1,271.6,4.4,-1.3,9.47,42.17,1.9572,393.3666],
    [9300,1537387850,53.3668,-110.3278,844.6,169.0,271.1,4.0,-0.8,9.44,41.94,1.955,392.7519],
    [9301,1537387851,53.3668,-110.3289,845.0,172.1,270.7,4.3,-0.5,9.57,42.38,1.9532,394.5391],
    [9302,1537387852,53.3668,-110.3299,845.0,175.2,270.7,4.3,-0.8,9.57,42.68,1.9538,393.0871],
    [9303,1537387853,53.3668,-110.331,844.9,176.7,270.8,4.4,-1.0,10.38,42.04,1.9554,393.4019],
    [9304,1537387854,53.3668,-110.332,845.0,177.0,271.1,4.8,-1.1,9.08,42.41,1.9552,393.4205],
    [9305,1537387855,53.3668,-110.3331,845.5,180.1,270.9,4.4,-0.6,10.22,42.14,1.9549,392.6829],
    [9306,1537387856,53.3669,-110.3341,846.7,184.1,270.8,4.2,-0.4,9.74,42.46,1.9556,394.1482],
    [9307,1537387857,53.3669,-110.3352,847.5,188.3,271.0,4.6,-0.6,9.49,42.59,1.9555,392.1742],
    [9308,1537387858,53.3669,-110.3362,847.3,188.4,271.6,3.8,-1.2,9.68,43.17,1.9567,392.7422],
    [9309,1537387859,53.3669,-110.3373,846.9,186.1,272.0,3.6,-1.6,9.64,42.38,1.9554,393.3895],
    [9310,1537387860,53.3669,-110.3383,847.1,187.1,271.7,4.6,-1.2,9.44,43.23,1.9552,393.6466],
    [9311,1537387861,53.3669,-110.3394,847.2,187.5,271.7,5.2,-1.2,9.28,43.07,1.9551,393.3672],
    [9312,1537387862,53.3669,-110.3404,846.6,187.6,272.0,5.3,-1.6,8.85,43.13,1.9556,393.6207],
    [9313,1537387863,53.3669,-110.3415,845.8,187.1,271.8,5.2,-1.5,9.73,42.95,1.9533,393.6207],
    [9314,1537387864,53.3669,-110.3426,845.7,187.7,271.8,4.9,-1.5,9.37,43.26,1.9542,393.313],
    [9315,1537387865,53.3669,-110.3436,845.8,188.1,271.7,5.2,-1.4,9.6,43.25,1.9546,393.313],
    [9316,1537387866,53.3669,-110.3447,845.5,188.5,271.3,5.2,-0.9,9.75,43.18,1.9565,393.3318],
    [9317,1537387867,53.3669,-110.3457,844.6,189.1,271.1,5.3,-0.9,9.52,43.23,1.9568,393.7623],
    [9318,1537387868,53.3669,-110.3468,843.3,188.3,271.2,5.1,-1.0,9.36,43.24,1.9564,393.6708],
    [9319,1537387869,53.367,-110.3479,842.3,187.3,271.1,5.4,-1.0,9.15,43.23,1.9561,393.8657],
    [9320,1537387870,53.367,-110.3489,841.0,186.0,271.6,5.1,-1.6,9.15,43.23,1.9563,393.4297],
    [9321,1537387871,53.367,-110.35,840.2,184.2,271.4,4.9,-1.1,9.3,43.97,1.9554,393.9106],
    [9322,1537387872,53.367,-110.3511,839.2,182.2,271.6,4.8,-1.3,9.25,43.35,1.9564,394.1171],
    [9323,1537387873,53.367,-110.3522,837.6,179.6,271.3,5.4,-1.0,10.19,42.89,1.9578,393.6637],
    [9324,1537387874,53.367,-110.3532,835.6,175.6,271.1,5.2,-0.9,9.6,43.05,1.9588,392.7255],
    [9325,1537387875,53.367,-110.3542,833.8,173.8,271.2,4.9,-1.0,9.44,43.39,1.957,394.9041],
    [9326,1537387876,53.367,-110.3554,832.0,172.0,270.9,5.4,-0.7,9.74,42.86,1.9552,393.8547],
    [9327,1537387877,53.367,-110.3565,831.3,172.3,271.1,5.1,-1.1,9.45,43.11,1.9573,393.1806],
    [9328,1537387878,53.367,-110.3576,830.0,171.0,271.0,5.0,-1.0,9.22,43.86,1.9594,393.8637],
    [9329,1537387879,53.367,-110.3586,828.4,169.4,271.2,5.2,-1.2,9.3,43.45,1.959,394.329],
    [9330,1537387880,53.367,-110.3597,826.5,167.5,271.2,5.3,-1.1,9.32,43.41,1.9586,393.6212],
    [9331,1537387881,53.367,-110.3608,825.0,166.0,271.4,5.1,-1.3,9.44,44.06,1.9591,394.3173],
    [9332,1537387882,53.367,-110.3619,823.8,164.8,271.7,5.0,-1.5,10.11,43.09,1.9578,392.9774],
    [9333,1537387883,53.367,-110.363,822.6,163.6,271.7,5.0,-1.7,9.75,42.81,1.9576,393.768],
    [9334,1537387884,53.367,-110.3641,821.5,162.5,271.8,4.8,-1.8,10.0,42.89,1.9563,392.3093],
    [9335,1537387885,53.367,-110.3652,820.2,161.2,271.5,4.9,-1.6,9.52,43.93,1.9571,392.3093],
    [9336,1537387886,53.367,-110.3663,819.1,161.1,271.1,4.4,-1.1,9.5,43.11,1.9567,391.6196],
    [9337,1537387887,53.367,-110.3674,817.8,159.8,270.6,4.8,-0.8,9.82,42.65,1.9563,393.9009],
    [9338,1537387888,53.367,-110.3685,816.8,158.8,271.0,4.4,-1.4,9.54,43.53,1.9564,393.9009],
    [9339,1537387889,53.367,-110.3696,816.3,159.3,270.8,4.6,-0.9,9.56,42.98,1.9575,394.355],
    [9340,1537387890,53.367,-110.3707,816.3,158.3,271.8,4.9,-1.8,9.46,43.12,1.956,393.9625],
    [9341,1537387891,53.3671,-110.3718,816.6,157.6,271.9,3.7,-1.7,9.67,43.24,1.9574,393.7241],
    [9342,1537387892,53.3671,-110.3729,816.8,156.8,271.7,3.4,-1.5,9.69,43.0,1.9564,393.6546],
    [9343,1537387893,53.3671,-110.374,816.7,155.7,270.9,4.1,-0.6,9.41,43.25,1.9573,393.6546],
    [9344,1537387894,53.3671,-110.3751,816.6,154.6,270.6,3.9,-0.7,9.54,43.89,1.9573,392.8313],
    [9345,1537387895,53.3671,-110.3762,817.2,154.2,271.2,3.4,-1.1,9.22,43.44,1.9572,393.8005],
    [9346,1537387896,53.3671,-110.3773,817.6,154.6,269.7,3.1,0.9,10.26,42.62,1.9581,394.6122],
    [9347,1537387897,53.3671,-110.3784,817.2,153.1,270.5,3.2,-0.1,9.2,43.09,1.9563,393.6742],
    [9348,1537387898,53.3671,-110.3795,816.5,152.5,271.2,3.7,-0.9,9.02,43.51,1.957,393.6742],
    [9349,1537387899,53.3671,-110.3806,816.3,153.3,271.6,3.0,-1.0,9.64,42.89,1.9589,392.4032],
    [9350,1537387900,53.3671,-110.3818,816.6,153.6,271.2,3.0,-0.5,9.39,43.65,1.957,394.0079],
    [9351,1537387901,53.3671,-110.3829,816.1,153.1,271.7,2.9,-0.7,9.36,43.49,1.9573,392.7808],
    [9352,1537387902,53.3671,-110.384,815.8,151.8,271.7,4.3,-0.7,9.4,43.55,1.9576,392.7808],
    [9353,1537387903,53.3672,-110.3851,815.6,151.6,272.9,5.0,-1.7,10.08,43.4,1.9574,393.2541],
    [9354,1537387904,53.3672,-110.3862,815.1,151.1,273.6,4.7,-2.2,9.85,43.74,1.9577,392.667],
    [9355,1537387905,53.3672,-110.3873,815.4,152.4,273.5,4.6,-1.9,9.63,44.39,1.9582,390.0631],
    [9356,1537387906,53.3672,-110.3885,816.1,154.1,273.4,4.2,-2.2,9.15,43.78,1.9585,391.4868],
    [9357,1537387907,53.3672,-110.3896,816.8,155.7,273.1,4.4,-2.0,9.44,43.35,1.9618,392.7423],
    [9358,1537387908,53.3673,-110.3907,816.5,156.6,271.5,4.6,-0.4,9.53,43.44,1.9621,393.4125],
    [9359,1537387909,53.3673,-110.3918,815.9,155.6,271.4,5.2,-1.2,9.68,43.24,1.9623,393.4125],
    [9360,1537387910,53.3673,-110.393,816.1,155.8,271.8,4.8,-1.8,10.08,42.83,1.9607,393.6137],
    [9361,1537387911,53.3673,-110.3941,816.3,155.3,271.5,5.1,-1.6,10.06,43.04,1.96,392.6823],
    [9362,1537387912,53.3673,-110.3951,816.1,154.3,271.3,5.5,-1.5,9.54,43.48,1.9607,393.6224],
    [9363,1537387913,53.3673,-110.3963,816.1,153.8,271.1,5.3,-1.3,10.27,42.98,1.9601,393.9104],
    [9364,1537387914,53.3673,-110.3974,816.3,153.3,271.2,5.3,-1.5,9.59,43.29,1.96,392.5805],
    [9365,1537387915,53.3673,-110.3985,816.6,153.6,271.4,5.2,-1.7,9.59,43.01,1.9594,392.2116],
    [9366,1537387916,53.3673,-110.3996,816.8,153.7,271.2,5.6,-1.5,9.78,42.74,1.96,393.3012],
    [9367,1537387917,53.3673,-110.4007,816.8,154.3,271.3,5.3,-1.7,9.5,42.91,1.9606,393.8197],
    [9368,1537387918,53.3673,-110.4019,816.5,153.5,271.2,5.3,-1.7,9.14,42.69,1.9624,393.8197],
    [9369,1537387919,53.3673,-110.403,816.4,153.4,271.6,5.1,-2.1,9.33,42.72,1.9613,393.2455],
    [9370,1537387920,53.3673,-110.4041,816.7,153.7,271.4,4.8,-1.8,10.11,42.26,1.9619,394.338],
    [9371,1537387921,53.3673,-110.4052,817.3,153.3,271.0,4.3,-1.5,10.26,42.4,1.9618,394.338],
    [9372,1537387922,53.3673,-110.4063,817.4,153.4,270.9,4.5,-1.5,9.74,43.73,1.9612,390.8025],
    [9373,1537387923,53.3673,-110.4074,816.7,153.5,271.5,4.8,-2.1,9.76,43.23,1.9619,394.3378],
    [9374,1537387924,53.3673,-110.4085,815.6,151.6,271.8,5.0,-2.2,9.58,44.0,1.9605,392.3581],
    [9375,1537387925,53.3673,-110.4096,815.1,149.8,272.0,5.0,-2.3,9.32,44.05,1.9601,393.7908],
    [9376,1537387926,53.3673,-110.4108,814.9,147.9,272.5,4.7,-2.8,9.68,43.58,1.9606,394.1178],
    [9377,1537387927,53.3673,-110.4119,814.7,147.7,271.9,4.8,-1.9,9.82,44.28,1.9616,393.5894],
    [9378,1537387928,53.3673,-110.413,815.1,149.1,270.9,4.2,-1.3,9.89,43.25,1.9603,392.8285],
    [9379,1537387929,53.3673,-110.4141,815.2,149.2,271.2,4.3,-1.6,9.69,43.26,1.9606,393.9365],
    [9380,1537387930,53.3673,-110.4152,815.0,150.1,270.0,4.6,-0.6,10.03,42.83,1.9615,394.3848],
    [9381,1537387931,53.3673,-110.4163,814.6,150.6,270.7,5.0,-1.6,9.54,43.35,1.9629,394.0104],
    [9382,1537387932,53.3673,-110.4174,814.2,151.2,270.7,4.9,-1.6,9.77,43.18,1.9616,392.7628],
    [9383,1537387933,53.3673,-110.4185,814.5,151.5,271.1,4.9,-2.0,9.65,43.01,1.9617,393.08],
    [9384,1537387934,53.3673,-110.4196,814.8,151.8,271.3,4.8,-2.3,9.34,43.28,1.9611,394.5797],
    [9385,1537387935,53.3673,-110.4207,814.9,153.0,271.4,4.3,-2.3,9.49,42.86,1.9607,393.2049],
    [9386,1537387936,53.3673,-110.4218,815.1,153.1,270.9,4.0,-1.8,9.09,42.69,1.9626,393.9532],
    [9387,1537387937,53.3673,-110.4229,815.1,153.8,270.9,4.0,-1.8,9.46,42.69,1.9649,393.7747],
    [9388,1537387938,53.3673,-110.424,814.8,153.7,271.0,4.3,-2.0,9.63,42.72,1.9642,393.848],
    [9389,1537387939,53.3673,-110.4251,815.0,155.9,271.0,3.9,-1.9,9.22,42.97,1.9638,393.5452],
    [9390,1537387940,53.3673,-110.4262,815.5,157.6,270.9,4.2,-2.0,9.85,42.62,1.9623,394.3478],
    [9391,1537387941,53.3673,-110.4273,815.9,157.9,270.8,4.0,-1.8,9.92,42.49,1.9626,394.5423],
    [9392,1537387942,53.3673,-110.4284,815.7,158.6,270.6,4.0,-1.6,9.7,42.8,1.9633,394.5265],
    [9393,1537387943,53.3672,-110.4295,815.5,157.8,270.5,3.4,-1.6,9.43,43.47,1.9607,393.1228],
    [9394,1537387944,53.3672,-110.4306,815.6,157.6,270.6,3.2,-1.8,9.68,43.35,1.9624,393.9943],
    [9395,1537387945,53.3672,-110.4317,815.6,157.4,271.1,3.3,-2.5,9.7,42.9,1.9598,393.4684],
    [9396,1537387946,53.3672,-110.4328,815.8,157.8,271.6,3.4,-3.0,10.27,42.45,1.9592,393.1176],
    [9397,1537387947,53.3672,-110.4339,815.7,158.0,271.0,3.4,-2.2,9.86,42.73,1.9625,392.7002],
    [9398,1537387948,53.3672,-110.435,815.7,161.3,270.7,3.2,-2.0,9.74,43.11,1.9599,392.1731],
    [9399,1537387949,53.3672,-110.4361,815.3,164.3,271.0,3.1,-2.4,9.82,42.92,1.96,392.185],
    [9400,1537387950,53.3672,-110.4372,815.0,167.0,270.5,3.7,-1.9,10.05,42.37,1.9609,393.2813],
    [9401,1537387951,53.3672,-110.4383,815.1,164.8,269.9,4.0,-1.3,10.22,42.67,1.96,394.4492],
    [9402,1537387952,53.3672,-110.4394,815.3,161.3,270.0,3.6,-1.5,9.2,43.4,1.9614,393.5567],
    [9403,1537387953,53.3671,-110.4405,815.5,160.5,270.3,3.2,-1.7,10.36,42.93,1.9611,393.845],
    [9404,1537387954,53.3671,-110.4416,815.5,160.5,270.6,4.0,-2.1,10.17,43.39,1.961,393.9705],
    [9405,1537387955,53.3671,-110.4427,815.6,161.5,270.8,3.8,-1.9,9.72,43.8,1.9603,392.9608],
    [9406,1537387956,53.3671,-110.4438,816.1,164.1,270.3,3.7,-1.4,9.64,44.03,1.9595,394.1982],
    [9407,1537387957,53.3671,-110.4449,816.7,167.0,270.8,2.9,-2.1,9.07,43.55,1.9602,392.2136],
    [9408,1537387958,53.3671,-110.446,816.6,169.3,270.9,2.4,-2.1,9.55,43.46,1.9612,393.4274],
    [9409,1537387959,53.3671,-110.4471,816.5,170.5,271.0,2.4,-2.3,9.52,43.84,1.9614,393.1614],
    [9410,1537387960,53.3671,-110.4482,816.6,170.5,271.7,3.2,-2.9,9.72,43.84,1.9619,394.5456],
    [9411,1537387961,53.3671,-110.4492,816.4,168.7,271.1,3.9,-2.2,9.87,43.83,1.9616,394.0376],
    [9412,1537387962,53.3671,-110.4504,815.6,164.6,271.1,3.3,-2.4,9.88,44.52,1.9636,394.0388],
    [9413,1537387963,53.3671,-110.4515,815.1,161.0,270.0,3.5,-1.5,9.32,44.07,1.9622,394.2288],
    [9414,1537387964,53.367,-110.4526,815.3,160.3,269.7,3.4,-1.5,9.74,44.74,1.9627,392.8519],
    [9415,1537387965,53.367,-110.4537,815.7,161.7,269.4,2.9,-1.1,10.06,44.53,1.963,393.8143],
    [9416,1537387966,53.367,-110.4548,815.9,164.2,269.0,2.4,-0.8,9.75,44.57,1.9639,393.4741],
    [9417,1537387967,53.367,-110.4559,815.5,167.1,269.7,3.2,-1.4,9.32,44.75,1.9629,394.1298],
    [9418,1537387968,53.367,-110.4571,815.9,172.9,269.6,3.4,-1.1,10.28,44.45,1.9647,394.4953],
    [9419,1537387969,53.367,-110.4582,816.2,179.6,269.7,3.5,-1.0,10.3,44.05,1.9638,393.6475],
    [9420,1537387970,53.3669,-110.4593,815.7,186.1,269.4,3.9,-0.3,9.87,44.39,1.9643,394.7141],
    [9421,1537387971,53.3669,-110.4604,815.9,192.2,269.5,3.5,-0.3,10.0,44.15,1.9641,393.6071],
    [9422,1537387972,53.3669,-110.4615,816.2,193.5,270.2,3.7,-1.0,9.83,44.83,1.9614,394.062],
    [9423,1537387973,53.3669,-110.4626,815.7,192.7,270.4,4.6,-0.8,9.16,45.08,1.9605,394.062],
    [9424,1537387974,53.3669,-110.4637,815.4,191.7,270.2,5.1,-0.6,9.78,44.92,1.9594,393.2395],
    [9425,1537387975,53.3669,-110.4648,815.2,191.5,270.8,4.5,-1.2,9.43,44.4,1.9593,394.3853],
    [9426,1537387976,53.3669,-110.4659,815.5,190.5,270.5,4.4,-1.0,9.37,44.11,1.9595,392.5246],
    [9427,1537387977,53.3669,-110.4671,815.8,188.8,270.7,4.5,-1.2,9.69,44.32,1.9615,393.1143],
    [9428,1537387978,53.3669,-110.4682,815.4,186.7,270.2,5.1,-0.6,9.01,43.63,1.9629,393.7817],
    [9429,1537387979,53.3669,-110.4692,815.0,185.3,270.4,4.7,-0.9,9.18,43.42,1.9636,394.428],
    [9430,1537387980,53.3669,-110.4703,815.4,185.6,270.4,3.8,-0.6,10.49,43.02,1.9645,394.8783],
    [9431,1537387981,53.3669,-110.4714,816.3,188.7,270.2,3.7,-0.4,9.7,43.64,1.963,393.6755],
    [9432,1537387982,53.3669,-110.4726,816.4,191.0,271.0,4.4,-1.5,10.51,43.02,1.963,394.8364],
    [9433,1537387983,53.3669,-110.4735,816.0,193.5,271.5,5.0,-1.9,9.46,43.35,1.9622,395.0057],
    [9434,1537387984,53.3669,-110.4748,815.8,196.5,270.6,4.5,-0.9,10.19,42.89,1.9613,394.2312],
    [9435,1537387985,53.3669,-110.4758,816.6,199.3,270.5,4.7,-0.8,9.83,43.54,1.9618,393.9198],
    [9436,1537387986,53.3669,-110.477,816.5,202.2,270.5,4.4,-0.8,9.48,43.32,1.9608,394.0448],
    [9437,1537387987,53.3669,-110.478,815.9,204.6,270.1,4.9,-0.5,9.88,43.36,1.9608,393.7183],
    [9438,1537387988,53.3669,-110.4792,815.4,206.6,270.0,4.6,-0.5,9.26,43.46,1.963,392.7122],
    [9439,1537387989,53.3669,-110.4802,815.5,209.9,270.0,4.2,-0.5,9.52,43.16,1.9633,393.4167],
    [9440,1537387990,53.3669,-110.4814,815.6,209.6,269.6,4.6,0.0,9.89,43.28,1.9626,395.6457],
    [9441,1537387991,53.3669,-110.4825,815.9,209.6,269.9,4.8,-0.7,9.5,42.83,1.9644,394.1108],
    [9442,1537387992,53.3669,-110.4836,816.0,208.9,270.1,4.5,-0.7,9.83,43.22,1.9642,393.3361],
    [9443,1537387993,53.3669,-110.4847,816.3,210.0,269.6,3.9,-0.3,9.69,43.74,1.9646,393.7602],
    [9444,1537387994,53.3669,-110.4858,816.2,209.2,270.1,4.3,-0.6,9.66,43.8,1.965,393.7764],
    [9445,1537387995,53.3669,-110.4869,815.2,207.2,270.4,4.8,-1.0,10.18,42.99,1.9655,394.3689],
    [9446,1537387996,53.3669,-110.4879,814.8,205.8,270.6,4.8,-1.2,9.41,43.55,1.9658,394.3637],
    [9447,1537387997,53.3669,-110.489,815.0,204.1,270.7,4.1,-1.3,10.56,43.27,1.9661,393.8601],
    [9448,1537387998,53.3669,-110.4902,815.1,204.2,270.5,4.6,-1.1,9.91,43.23,1.9665,393.8797],
    [9449,1537387999,53.3668,-110.4912,815.3,202.6,270.3,4.7,-1.1,10.3,43.54,1.9665,393.5508],
    [9450,1537388000,53.3668,-110.4923,815.3,200.6,269.6,4.5,-0.1,9.75,44.1,1.9667,393.4372],
    [9451,1537388001,53.3668,-110.4934,815.3,197.8,269.4,4.3,-0.1,10.09,43.39,1.9644,392.3832],
    [9452,1537388002,53.3668,-110.4945,815.1,195.5,270.1,4.1,-0.9,10.23,43.93,1.9648,392.7534],
    [9453,1537388003,53.3668,-110.4956,815.0,194.1,270.4,4.2,-1.1,10.33,43.97,1.9642,393.3941],
    [9454,1537388004,53.3668,-110.4967,814.8,192.8,270.6,4.1,-1.2,9.76,44.84,1.9639,393.7805],
    [9455,1537388005,53.3668,-110.4978,815.0,192.0,270.5,3.9,-1.0,9.71,44.24,1.963,393.7805],
    [9456,1537388006,53.3668,-110.4989,815.5,191.9,270.3,4.7,-0.7,9.79,43.85,1.9642,393.4995],
    [9457,1537388007,53.3668,-110.5,816.4,193.8,269.6,5.2,0.0,9.38,44.48,1.9644,393.1113],
    [9458,1537388008,53.3668,-110.5011,817.2,194.7,270.0,4.6,-0.7,9.71,44.15,1.9636,394.0786],
    [9459,1537388009,53.3668,-110.5022,817.3,194.0,270.2,5.0,-1.0,9.3,44.3,1.9618,394.0251],
    [9460,1537388010,53.3668,-110.5033,817.0,192.6,269.9,4.4,-0.4,9.76,45.03,1.9609,394.149],
    [9461,1537388011,53.3668,-110.5044,817.0,192.6,269.3,4.1,0.1,9.97,44.03,1.9606,393.9283],
    [9462,1537388012,53.3668,-110.5055,816.6,193.7,269.9,4.8,-0.5,10.57,44.02,1.9599,393.6817],
    [9463,1537388013,53.3668,-110.5066,816.1,195.0,269.7,5.6,-0.1,9.73,44.34,1.9607,393.9669],
    [9464,1537388014,53.3668,-110.5077,815.5,194.5,270.3,4.7,-0.8,10.49,43.77,1.9614,393.9925],
    [9465,1537388015,53.3668,-110.5088,815.4,193.4,270.4,4.9,-0.9,9.79,43.88,1.9606,393.4299],
    [9466,1537388016,53.3668,-110.5099,815.7,191.4,270.7,4.8,-1.1,9.36,43.97,1.9597,393.8219],
    [9467,1537388017,53.3668,-110.511,816.3,190.4,270.4,4.8,-0.5,9.76,44.35,1.9596,391.7329],
    [9468,1537388018,53.3668,-110.5121,816.2,189.2,270.7,4.8,-0.9,9.9,43.19,1.9595,392.168],
    [9469,1537388019,53.3668,-110.5132,815.3,187.3,271.1,5.0,-1.6,9.82,43.94,1.9601,393.3281],
    [9470,1537388020,53.3668,-110.5143,814.7,185.6,270.9,4.6,-1.5,10.09,43.01,1.959,393.6359],
    [9471,1537388021,53.3668,-110.5154,814.3,186.0,271.1,4.1,-1.9,9.72,43.3,1.9594,392.7037],
    [9472,1537388022,53.3668,-110.5165,814.2,186.1,271.0,3.8,-1.9,9.52,43.21,1.9599,393.6937],
    [9473,1537388023,53.3667,-110.5176,814.3,188.3,270.3,3.8,-1.3,10.17,42.4,1.9591,391.8246],
    [9474,1537388024,53.3667,-110.5187,814.5,190.1,269.7,4.3,-0.9,10.18,42.27,1.9599,389.0084],
    [9475,1537388025,53.3667,-110.5198,814.7,192.6,269.9,4.3,-1.2,9.61,42.79,1.9597,394.5228],
    [9476,1537388026,53.3667,-110.5208,815.0,194.7,269.9,4.3,-1.3,10.64,42.43,1.9589,393.6657],
    [9477,1537388027,53.3667,-110.522,815.8,194.4,270.0,4.4,-1.2,9.58,43.17,1.9605,392.8687],
    [9478,1537388028,53.3667,-110.523,816.9,194.5,269.8,4.5,-0.9,9.6,42.76,1.9601,393.3098],
    [9479,1537388029,53.3667,-110.5241,816.9,193.9,270.4,4.2,-1.5,9.91,43.18,1.9595,392.2539],
    [9480,1537388030,53.3667,-110.5252,816.3,193.3,270.1,5.0,-0.9,9.75,43.15,1.9607,393.0255],
    [9481,1537388031,53.3667,-110.5263,815.8,192.4,270.2,5.1,-0.9,10.2,42.88,1.9596,393.0255],
    [9482,1537388032,53.3667,-110.5274,815.6,188.7,270.1,4.2,-0.7,10.19,42.84,1.9598,392.0164],
    [9483,1537388033,53.3667,-110.5285,815.8,185.7,270.1,4.7,-0.4,9.24,43.26,1.9601,391.7919],
    [9484,1537388034,53.3667,-110.5296,815.2,182.6,270.7,4.4,-0.9,9.73,43.23,1.9587,393.8761],
    [9485,1537388035,53.3667,-110.5307,814.5,181.9,270.9,4.1,-1.0,9.68,43.02,1.9585,393.9721],
    [9486,1537388036,53.3667,-110.5317,814.5,183.6,270.8,4.2,-0.9,10.36,42.42,1.9587,394.6214],
    [9487,1537388037,53.3667,-110.5328,815.1,187.5,270.5,5.2,-0.6,10.01,43.0,1.9597,395.4504],
    [9488,1537388038,53.3667,-110.5339,815.7,193.4,270.7,4.7,-0.6,9.8,43.81,1.9592,392.639],
    [9489,1537388039,53.3667,-110.535,816.3,198.1,270.6,4.7,-0.5,9.77,43.3,1.9605,392.158],
    [9490,1537388040,53.3667,-110.5361,816.5,200.0,271.5,4.5,-1.7,9.83,43.35,1.9593,393.844],
    [9491,1537388041,53.3667,-110.5372,817.1,201.1,271.7,3.6,-1.7,9.63,44.02,1.9581,393.9571],
    [9492,1537388042,53.3667,-110.5382,817.7,202.4,271.5,4.3,-1.5,9.61,43.41,1.9573,393.9571],
    [9493,1537388043,53.3667,-110.5393,816.9,201.6,271.8,5.2,-2.0,9.78,44.1,1.9597,393.7312],
    [9494,1537388044,53.3667,-110.5403,815.5,199.5,271.7,5.1,-1.9,10.2,43.13,1.9603,393.7738],
    [9495,1537388045,53.3667,-110.5415,815.1,198.0,271.0,5.3,-1.5,9.24,43.34,1.9595,393.7738],
    [9496,1537388046,53.3667,-110.5426,815.3,197.5,271.0,5.6,-1.7,9.79,43.7,1.959,391.9561],
    [9497,1537388047,53.3667,-110.5437,815.6,197.4,270.7,5.3,-1.6,9.97,43.05,1.9599,393.0553],
    [9498,1537388048,53.3667,-110.5447,816.1,196.7,270.8,4.8,-1.8,9.59,43.87,1.9585,393.7177],
    [9499,1537388049,53.3667,-110.5458,816.0,195.6,270.5,5.6,-1.3,9.46,43.2,1.9575,393.1493],
    [9500,1537388050,53.3667,-110.5469,815.3,192.8,270.2,5.3,-1.1,9.74,43.24,1.9588,390.9141],
    [9501,1537388051,53.3667,-110.548,815.1,191.5,270.0,5.0,-0.8,9.97,43.08,1.9601,393.86],
    [9502,1537388052,53.3666,-110.5491,815.6,189.9,270.1,5.2,-0.8,9.8,43.47,1.9617,394.2856],
    [9503,1537388053,53.3666,-110.5502,816.0,188.3,270.2,5.3,-0.7,9.78,43.27,1.9597,393.316],
    [9504,1537388054,53.3666,-110.5513,816.2,186.5,269.9,5.2,-0.3,10.01,43.48,1.9599,394.133],
    [9505,1537388055,53.3666,-110.5524,816.0,186.0,270.1,4.7,-0.6,10.54,42.95,1.9608,392.4425],
    [9506,1537388056,53.3666,-110.5533,815.9,186.9,270.1,4.3,-0.5,9.85,43.18,1.9616,393.3533],
    [9507,1537388057,53.3666,-110.5545,815.8,189.8,270.2,3.9,-0.6,10.0,43.02,1.9616,393.0555],
    [9508,1537388058,53.3666,-110.5556,815.1,192.2,271.0,3.5,-1.4,9.54,43.8,1.9598,392.7915],
    [9509,1537388059,53.3666,-110.5566,814.9,194.0,270.8,3.8,-1.0,9.4,43.58,1.9592,393.0941],
    [9510,1537388060,53.3666,-110.5578,814.5,194.5,270.5,3.9,-0.8,9.41,43.61,1.9572,393.4316],
    [9511,1537388061,53.3666,-110.5588,814.5,194.2,270.5,2.9,-0.7,9.69,43.25,1.9558,394.5824],
    [9512,1537388062,53.3666,-110.5599,814.9,195.0,270.4,3.5,-0.8,9.8,43.33,1.9579,392.9667],
    [9513,1537388063,53.3666,-110.561,814.7,195.7,270.6,3.2,-0.9,9.78,43.05,1.9595,394.2611],
    [9514,1537388064,53.3666,-110.5621,814.2,195.2,269.9,3.2,-0.1,9.77,42.97,1.9574,394.0698],
    [9515,1537388065,53.3666,-110.5632,814.2,195.2,270.1,3.4,-0.3,9.73,42.88,1.9582,393.181],
    [9516,1537388066,53.3666,-110.5643,814.7,196.1,269.8,3.7,0.4,9.91,42.53,1.9588,394.1434],
    [9517,1537388067,53.3666,-110.5653,815.1,197.8,269.9,3.7,0.4,9.89,42.31,1.9605,393.5113],
    [9518,1537388068,53.3666,-110.5664,815.3,198.0,270.3,3.8,0.0,10.03,42.44,1.96,394.0972],
    [9519,1537388069,53.3666,-110.5675,815.8,198.5,270.5,2.9,-0.3,9.24,42.63,1.9606,394.6238],
    [9520,1537388070,53.3666,-110.5686,816.4,198.3,270.9,3.1,-0.9,9.54,42.64,1.9615,392.9651],
    [9521,1537388071,53.3666,-110.5697,816.3,198.3,271.4,2.7,-1.2,9.34,43.12,1.9612,393.0469],
    [9522,1537388072,53.3666,-110.5708,816.2,196.2,271.6,3.2,-1.6,9.77,42.84,1.9607,394.1934],
    [9523,1537388073,53.3666,-110.5718,816.0,193.4,272.2,3.3,-2.1,9.75,43.02,1.9606,394.1934],
    [9524,1537388074,53.3667,-110.5729,816.0,191.3,271.9,3.3,-1.7,9.4,43.27,1.9621,394.2823],
    [9525,1537388075,53.3667,-110.574,815.8,190.1,271.9,3.4,-1.7,10.21,42.97,1.96,393.5679],
    [9526,1537388076,53.3667,-110.5751,815.7,192.0,271.4,3.1,-1.3,9.6,43.17,1.9623,393.4261],
    [9527,1537388077,53.3667,-110.5762,815.7,191.3,271.5,3.2,-1.7,9.62,43.1,1.9611,393.23],
    [9528,1537388078,53.3667,-110.5772,815.2,190.6,270.9,3.1,-1.1,9.84,43.39,1.9601,393.5782],
    [9529,1537388079,53.3667,-110.5783,815.1,189.7,270.7,3.7,-1.2,10.01,43.73,1.961,393.9093],
    [9530,1537388080,53.3667,-110.5794,815.3,189.2,270.7,3.6,-1.3,9.71,43.45,1.9612,392.8664],
    [9531,1537388081,53.3667,-110.5805,815.4,185.8,270.4,4.3,-1.0,9.43,43.42,1.9592,393.9283],
    [9532,1537388082,53.3667,-110.5816,815.7,185.4,270.7,4.2,-1.7,9.8,43.73,1.9595,393.9351],
    [9533,1537388083,53.3667,-110.5827,815.4,185.1,271.0,2.9,-1.8,9.52,43.4,1.9606,393.1737],
    [9534,1537388084,53.3666,-110.5837,815.2,185.9,270.0,3.1,-0.6,9.85,43.38,1.9602,392.386],
    [9535,1537388085,53.3666,-110.5848,815.3,188.3,270.2,3.1,-0.5,9.96,43.04,1.9602,392.4966],
    [9536,1537388086,53.3666,-110.5859,815.5,189.0,269.7,2.9,0.2,9.67,44.16,1.9606,395.3908],
    [9537,1537388087,53.3666,-110.587,816.0,188.4,270.2,3.7,-0.2,9.52,44.02,1.9599,393.1033],
    [9538,1537388088,53.3666,-110.5881,816.0,186.5,270.1,4.3,0.1,9.55,44.35,1.9571,392.5335],
    [9539,1537388089,53.3666,-110.5891,815.4,184.7,270.5,4.5,-0.3,10.55,43.72,1.9593,394.573],
    [9540,1537388090,53.3666,-110.5902,814.9,183.3,270.6,4.9,-0.3,9.77,43.29,1.9571,394.5444],
    [9541,1537388091,53.3667,-110.5913,814.4,181.8,270.7,5.0,-0.3,10.02,43.89,1.9585,392.7807],
    [9542,1537388092,53.3667,-110.5924,814.1,179.1,271.0,4.4,-0.8,10.02,43.12,1.9559,393.9218],
    [9543,1537388093,53.3667,-110.5935,813.8,176.4,270.6,3.9,-0.3,10.12,42.87,1.9546,393.2495],
    [9544,1537388094,53.3667,-110.5945,813.8,177.2,271.0,4.7,-1.0,9.59,42.77,1.9566,394.2044],
    [9545,1537388095,53.3667,-110.5956,814.3,177.1,272.0,4.3,-2.2,9.66,42.96,1.9576,393.9342],
    [9546,1537388096,53.3667,-110.5966,815.3,180.0,271.6,3.5,-1.5,9.88,42.82,1.9565,394.6019],
    [9547,1537388097,53.3667,-110.5977,816.1,184.3,271.2,3.7,-1.1,10.51,41.93,1.9589,392.362],
    [9548,1537388098,53.3667,-110.5988,816.0,189.6,271.2,4.0,-1.0,10.0,42.12,1.9571,391.7786],
    [9549,1537388099,53.3667,-110.5998,815.7,194.7,269.8,3.5,0.3,9.41,42.12,1.9572,393.7021],
    [9550,1537388100,53.3667,-110.6009,816.0,199.4,269.9,4.2,-0.2,10.22,41.73,1.9597,393.1457],
    [9551,1537388101,53.3667,-110.602,816.8,203.4,270.9,3.8,-1.5,9.25,42.51,1.9582,393.3519],
    [9552,1537388102,53.3667,-110.603,817.0,205.7,270.3,3.2,-0.8,10.07,42.54,1.957,393.3927],
    [9553,1537388103,53.3667,-110.6041,817.1,206.8,270.3,3.5,-0.9,9.84,43.1,1.9567,393.3676],
    [9554,1537388104,53.3667,-110.6052,817.0,206.7,270.3,4.0,-1.1,9.88,42.65,1.9583,393.3676],
    [9555,1537388105,53.3667,-110.6062,816.8,205.2,271.2,3.9,-2.0,10.24,42.29,1.9604,393.1441],
    [9556,1537388106,53.3667,-110.6073,816.7,205.1,270.7,3.9,-1.3,9.43,43.14,1.9602,394.0748],
    [9557,1537388107,53.3667,-110.6084,816.7,205.0,271.4,4.3,-2.1,9.19,43.01,1.9612,394.5963],
    [9558,1537388108,53.3667,-110.6094,816.4,205.8,272.1,3.3,-2.7,10.12,43.01,1.9609,394.3743],
    [9559,1537388109,53.3667,-110.6105,815.7,206.1,272.0,3.5,-2.9,9.57,43.59,1.9592,394.2522],
    [9560,1537388110,53.3667,-110.6116,815.0,206.2,272.5,4.3,-3.6,9.72,43.53,1.9597,393.0145],
    [9561,1537388111,53.3667,-110.6127,815.1,206.4,271.7,4.5,-2.7,10.22,43.32,1.9596,392.5759],
    [9562,1537388112,53.3666,-110.6138,815.1,207.2,271.3,4.6,-2.5,10.47,43.07,1.9595,392.9687],
    [9563,1537388113,53.3666,-110.6149,815.5,207.4,271.4,4.0,-2.8,10.2,42.99,1.9594,394.4087],
    [9564,1537388114,53.3666,-110.616,816.2,208.1,270.8,3.6,-2.1,10.16,43.62,1.958,394.4087],
    [9565,1537388115,53.3666,-110.617,816.7,208.7,270.0,4.2,-1.2,9.91,43.62,1.9585,395.1963],
    [9566,1537388116,53.3666,-110.6181,816.5,208.5,270.2,4.4,-1.8,9.81,43.67,1.9586,394.6017],
    [9567,1537388117,53.3666,-110.6192,816.3,208.3,270.2,4.7,-1.6,10.33,42.95,1.9556,391.635],
    [9568,1537388118,53.3666,-110.6203,815.6,206.6,268.7,4.7,0.3,10.22,43.51,1.9538,391.635],
    [9569,1537388119,53.3666,-110.6214,815.2,206.2,268.9,3.8,0.3,10.03,44.05,1.9536,392.8857],
    [9570,1537388120,53.3666,-110.6225,815.5,206.5,269.7,3.3,-0.1,9.92,43.16,1.9536,392.8809],
    [9571,1537388121,53.3666,-110.6236,816.2,207.2,270.7,4.3,0.0,10.09,42.76,1.9581,393.5256],
    [9572,1537388122,53.3666,-110.6247,816.3,207.3,272.1,5.1,-0.4,10.63,42.18,1.9582,393.651],
    [9573,1537388123,53.3666,-110.6257,815.3,205.5,274.6,4.7,-1.8,10.04,42.37,1.9582,393.3494],
    [9574,1537388124,53.3667,-110.6268,814.5,204.5,276.5,4.5,-1.9,9.94,43.42,1.9577,393.6887],
    [9575,1537388125,53.3667,-110.6279,814.6,204.6,277.6,4.7,-1.6,9.97,42.62,1.9583,393.864],
    [9576,1537388126,53.3668,-110.629,814.8,204.8,279.3,4.3,-2.5,9.37,42.73,1.9576,393.233],
    [9577,1537388127,53.3669,-110.6301,814.7,205.4,280.1,3.8,-2.3,9.67,42.85,1.9601,392.9721],
    [9578,1537388128,53.367,-110.6312,814.9,205.9,280.2,3.6,-1.8,9.81,42.9,1.9589,393.6294],
    [9579,1537388129,53.3671,-110.6322,815.0,206.0,280.4,4.4,-1.8,10.09,43.0,1.9557,393.6355],
    [9580,1537388130,53.3672,-110.6333,814.7,205.7,280.7,4.2,-2.3,10.34,43.0,1.9548,393.6021],
    [9581,1537388131,53.3673,-110.6344,814.8,205.8,280.7,4.3,-2.3,9.54,42.52,1.955,393.8951],
    [9582,1537388132,53.3674,-110.6354,815.0,205.7,280.6,4.1,-2.1,9.98,42.84,1.9567,393.8951],
    [9583,1537388133,53.3676,-110.6365,815.3,206.3,280.3,3.7,-1.9,10.32,42.4,1.957,393.1704],
    [9584,1537388134,53.3677,-110.6376,815.4,206.3,281.2,3.5,-2.9,9.87,43.15,1.957,393.6042],
    [9585,1537388135,53.3678,-110.6386,815.3,207.3,281.2,3.7,-2.8,10.2,42.12,1.9579,393.9666],
    [9586,1537388136,53.3679,-110.6397,815.2,207.2,281.0,3.0,-2.4,9.61,42.67,1.9583,393.2551],
    [9587,1537388137,53.368,-110.6408,815.0,208.0,280.2,3.0,-2.1,10.26,42.02,1.9571,393.8423],
    [9588,1537388138,53.3681,-110.6418,815.0,206.2,280.1,2.4,-2.0,9.96,42.4,1.9581,393.8592],
    [9589,1537388139,53.3682,-110.6429,815.6,205.3,279.1,1.8,-1.1,9.85,42.83,1.9584,393.013],
    [9590,1537388140,53.3683,-110.644,816.1,204.8,279.8,1.8,-2.1,9.99,43.06,1.9587,392.6863],
    [9591,1537388141,53.3684,-110.645,816.2,205.0,279.7,2.2,-1.8,9.24,42.98,1.9577,394.4047],
    [9592,1537388142,53.3685,-110.6461,816.0,204.3,280.2,2.8,-2.6,9.95,43.34,1.9569,393.3375],
    [9593,1537388143,53.3686,-110.6472,815.7,205.0,281.8,3.3,-3.9,9.85,43.14,1.9567,393.1806],
    [9594,1537388144,53.3687,-110.6483,815.9,205.9,280.6,3.7,-2.1,9.9,43.44,1.958,393.9197],
    [9595,1537388145,53.3688,-110.6494,816.2,206.2,281.5,3.4,-3.0,9.83,43.29,1.9595,393.1683],
    [9596,1537388146,53.3689,-110.6504,815.5,205.5,281.4,3.9,-3.0,9.9,43.31,1.9592,394.187],
    [9597,1537388147,53.369,-110.6515,814.8,204.8,280.6,4.4,-2.5,9.72,43.08,1.9582,394.2199],
    [9598,1537388148,53.3691,-110.6526,815.3,204.6,280.6,4.4,-3.0,9.54,43.47,1.9591,392.7139],
    [9599,1537388149,53.3692,-110.6537,816.0,203.3,280.1,5.0,-2.7,9.7,43.46,1.9578,394.2865],
    [9600,1537388150,53.3693,-110.6548,815.5,200.2,279.8,5.1,-2.6,9.83,43.59,1.9587,392.9359],
    [9601,1537388151,53.3694,-110.6558,815.8,197.8,279.7,5.5,-2.6,9.91,43.61,1.9602,393.8199],
    [9602,1537388152,53.3695,-110.6569,817.1,197.4,280.1,6.5,-3.0,9.72,43.55,1.9573,393.2321],
    [9603,1537388153,53.3696,-110.658,818.0,198.0,280.2,5.9,-2.9,9.74,43.57,1.957,394.0498],
    [9604,1537388154,53.3697,-110.6591,817.5,198.5,280.1,5.7,-2.7,9.91,43.76,1.9561,394.5471],
    [9605,1537388155,53.3698,-110.6602,817.1,199.9,280.0,5.8,-2.5,10.09,43.04,1.9573,394.5564],
    [9606,1537388156,53.3699,-110.6612,817.2,202.2,279.6,6.1,-1.6,10.51,42.18,1.9555,394.0848],
    [9607,1537388157,53.37,-110.6623,817.5,204.6,279.4,6.4,-1.1,9.9,42.94,1.9559,393.5529],
    [9608,1537388158,53.3701,-110.6634,817.3,207.1,279.5,6.4,-1.1,9.72,42.69,1.9547,394.0745],
    [9609,1537388159,53.3702,-110.6644,816.9,207.8,279.3,5.7,-0.3,9.55,42.39,1.9561,392.3094],
    [9610,1537388160,53.3703,-110.6655,816.5,209.5,279.0,5.7,0.1,9.98,42.55,1.9559,395.0363],
    [9611,1537388161,53.3704,-110.6666,816.3,209.3,279.8,5.2,-0.6,9.27,42.07,1.9541,393.6247],
    [9612,1537388162,53.3706,-110.6676,815.7,208.7,280.5,4.6,-0.9,10.37,41.52,1.955,393.4083],
    [9613,1537388163,53.3707,-110.6687,814.9,207.6,280.4,4.3,-0.6,9.93,41.91,1.9553,394.2586],
    [9614,1537388164,53.3708,-110.6698,815.0,208.0,281.3,3.6,-1.4,9.6,42.11,1.9581,393.4186],
    [9615,1537388165,53.3709,-110.6709,815.5,208.5,281.2,3.7,-1.6,9.3,41.83,1.9583,393.6631],
    [9616,1537388166,53.371,-110.6719,815.8,209.8,281.4,3.4,-1.8,9.41,41.64,1.9577,392.4103],
    [9617,1537388167,53.3711,-110.673,815.6,209.6,280.9,4.1,-1.5,9.82,41.92,1.9579,393.5452],
    [9618,1537388168,53.3713,-110.6741,815.5,209.5,280.6,4.4,-1.2,9.64,42.65,1.96,394.043],
    [9619,1537388169,53.3714,-110.6751,815.5,209.5,281.4,4.5,-2.6,9.8,42.09,1.9591,394.2388],
    [9620,1537388170,53.3715,-110.6762,815.5,209.5,281.3,4.5,-2.1,9.8,42.72,1.9598,394.4325],
    [9621,1537388171,53.3716,-110.6773,815.6,209.6,280.4,4.9,-1.0,10.35,42.37,1.9577,393.3552],
    [9622,1537388172,53.3717,-110.6784,814.7,208.1,280.1,4.8,-0.6,9.55,43.22,1.9564,393.5226],
    [9623,1537388173,53.3718,-110.6794,813.9,206.2,279.9,4.6,-0.7,10.71,42.79,1.9562,394.3141],
    [9624,1537388174,53.372,-110.6805,813.7,205.7,280.0,4.1,-1.2,10.31,42.41,1.957,393.8501],
    [9625,1537388175,53.3721,-110.6816,813.6,204.3,279.2,3.7,-1.2,10.57,42.09,1.9583,394.7285],
    [9626,1537388176,53.3722,-110.6827,813.6,202.5,278.1,4.0,-1.5,9.48,42.55,1.9582,394.704],
    [9627,1537388177,53.3722,-110.6838,813.6,201.9,276.6,4.3,-1.7,10.03,42.39,1.9586,393.7666],
    [9628,1537388178,53.3723,-110.6848,813.6,199.3,275.2,4.5,-1.8,9.9,43.29,1.9585,394.0308],
    [9629,1537388179,53.3723,-110.6859,813.9,194.5,273.2,4.4,-1.2,9.8,42.79,1.959,393.9232],
    [9630,1537388180,53.3723,-110.687,814.4,189.8,272.1,4.0,-1.3,10.05,43.1,1.9587,394.577],
    [9631,1537388181,53.3723,-110.6881,815.1,185.2,271.6,3.6,-1.7,10.27,42.45,1.9582,393.9467],
    [9632,1537388182,53.3723,-110.6891,815.6,182.2,271.1,3.2,-1.6,9.6,42.79,1.9597,393.9633],
    [9633,1537388183,53.3723,-110.6903,816.0,179.9,270.8,4.4,-1.5,9.58,43.23,1.9594,394.1749],
    [9634,1537388184,53.3723,-110.6913,815.5,178.2,270.6,4.1,-1.4,9.81,43.55,1.9583,394.3819],
    [9635,1537388185,53.3723,-110.6924,814.9,176.5,270.4,4.0,-1.4,10.01,43.21,1.9608,392.7091],
    [9636,1537388186,53.3723,-110.6935,814.6,174.6,270.0,3.9,-1.7,10.09,43.29,1.9588,393.44],
    [9637,1537388187,53.3723,-110.6946,814.6,171.9,269.3,3.9,-2.1,9.68,43.59,1.958,393.44],
    [9638,1537388188,53.3723,-110.6957,814.5,168.7,268.0,4.1,-2.0,10.01,43.27,1.9577,394.5159],
    [9639,1537388189,53.3722,-110.6968,814.1,165.2,265.9,4.1,-1.4,9.83,43.46,1.9578,392.976],
    [9640,1537388190,53.3721,-110.6978,813.9,162.9,263.6,4.4,-0.7,9.87,43.58,1.9581,393.796],
    [9641,1537388191,53.372,-110.6989,814.3,163.3,262.0,4.5,-0.8,9.99,43.69,1.9585,393.6071],
    [9642,1537388192,53.3719,-110.6999,815.0,164.6,261.4,4.4,-1.2,10.16,43.61,1.9583,393.9053],
    [9643,1537388193,53.3718,-110.7011,815.3,166.1,260.1,4.2,-0.5,9.19,43.38,1.958,394.4021],
    [9644,1537388194,53.3717,-110.7021,815.4,167.4,259.9,4.2,-0.9,9.93,43.33,1.9585,393.6814],
    [9645,1537388195,53.3716,-110.7031,815.4,168.5,259.7,4.0,-0.9,9.76,43.56,1.9585,393.1158],
    [9646,1537388196,53.3714,-110.7042,815.3,170.2,259.7,4.3,-1.1,9.22,43.52,1.9594,393.7505],
    [9647,1537388197,53.3713,-110.7053,815.0,172.0,260.1,4.3,-1.6,9.34,43.58,1.9577,393.7701],
    [9648,1537388198,53.3712,-110.7064,814.9,172.9,259.9,4.1,-1.3,9.14,43.62,1.9576,393.7348],
    [9649,1537388199,53.371,-110.7074,815.0,176.2,259.8,4.4,-1.1,9.34,43.62,1.9579,393.1403],
    [9650,1537388200,53.3709,-110.7084,814.8,176.8,260.1,5.1,-1.4,9.9,43.96,1.9556,392.947],
    [9651,1537388201,53.3708,-110.7096,815.0,177.7,259.6,4.7,-1.0,10.21,43.26,1.9561,393.9451],
    [9652,1537388202,53.3706,-110.7106,816.1,180.3,259.5,5.1,-1.1,9.85,43.89,1.9563,392.8513],
    [9653,1537388203,53.3705,-110.7117,816.8,182.8,260.1,4.5,-1.9,9.91,43.68,1.9567,394.0405],
    [9654,1537388204,53.3704,-110.7127,816.6,184.2,260.1,4.1,-1.9,10.03,43.49,1.958,393.5508],
    [9655,1537388205,53.3702,-110.7138,816.0,185.0,259.1,3.2,-1.1,10.45,43.0,1.9593,393.5973],
    [9656,1537388206,53.3701,-110.7148,815.9,186.1,258.6,3.0,-0.6,9.84,43.46,1.9581,393.368],
    [9657,1537388207,53.37,-110.7159,815.9,187.6,258.5,3.2,-0.8,9.58,43.36,1.9603,392.2999],
    [9658,1537388208,53.3698,-110.717,814.9,186.9,258.7,2.9,-1.0,10.12,43.13,1.9595,393.8473],
    [9659,1537388209,53.3697,-110.718,814.3,186.3,258.6,2.9,-0.7,9.53,43.63,1.96,394.6783],
    [9660,1537388210,53.3695,-110.7191,814.2,187.2,259.0,2.9,-1.1,9.97,44.12,1.961,392.8763],
    [9661,1537388211,53.3694,-110.7201,814.5,187.5,259.1,2.8,-1.1,9.78,43.73,1.9603,392.4424],
    [9662,1537388212,53.3693,-110.7212,815.2,188.2,258.9,2.7,-0.8,9.77,44.32,1.96,393.8264],
    [9663,1537388213,53.3691,-110.7223,815.2,188.2,259.3,2.2,-1.4,9.68,44.38,1.9614,394.3158],
    [9664,1537388214,53.369,-110.7233,815.1,189.5,259.7,3.0,-1.7,10.08,44.34,1.9626,394.8294],
    [9665,1537388215,53.3689,-110.7244,815.2,191.2,259.3,2.6,-1.0,10.06,44.03,1.9621,394.8981],
    [9666,1537388216,53.3687,-110.7255,815.1,192.1,259.1,3.0,-0.9,9.61,44.56,1.9622,390.7972],
    [9667,1537388217,53.3686,-110.7265,815.2,192.2,259.4,2.9,-1.3,9.53,44.54,1.9623,390.7972],
    [9668,1537388218,53.3685,-110.7275,815.3,191.2,259.1,3.5,-0.9,9.92,43.98,1.9615,392.1907],
    [9669,1537388219,53.3683,-110.7287,815.7,192.4,259.2,3.3,-1.1,9.53,44.63,1.9609,394.8643],
    [9670,1537388220,53.3682,-110.7298,816.2,193.2,258.6,3.3,-0.3,9.66,44.02,1.9591,393.0174],
    [9671,1537388221,53.368,-110.7308,815.8,193.8,258.8,3.8,-0.7,9.33,43.76,1.9552,393.9438],
    [9672,1537388222,53.3679,-110.7319,815.5,194.2,259.0,4.5,-0.6,9.44,43.77,1.953,394.4448],
    [9673,1537388223,53.3677,-110.733,815.7,194.7,259.1,4.5,-0.5,9.81,44.25,1.9532,393.5342],
    [9674,1537388224,53.3676,-110.7341,816.2,196.2,259.4,4.8,-0.6,9.66,43.45,1.9515,393.7859],
    [9675,1537388225,53.3675,-110.7351,816.1,197.2,259.6,4.6,-0.8,9.75,42.75,1.9533,394.0488],
    [9676,1537388226,53.3673,-110.7362,815.5,196.5,260.2,4.5,-1.5,10.01,42.27,1.9529,394.0488],
    [9677,1537388227,53.3672,-110.7373,814.7,195.6,260.3,4.5,-1.7,9.89,42.69,1.9543,392.5131],
    [9678,1537388228,53.3671,-110.7384,814.0,196.0,259.7,4.7,-0.9,9.86,43.12,1.9537,392.9304],
    [9679,1537388229,53.367,-110.7394,814.2,196.2,258.6,4.6,0.7,9.53,42.45,1.954,393.8147],
    [9680,1537388230,53.3668,-110.7405,814.4,196.4,258.9,3.9,0.6,9.63,42.22,1.9563,395.8423],
    [9681,1537388231,53.3667,-110.7415,814.8,196.8,259.7,4.6,1.0,9.15,42.22,1.9561,393.9649],
    [9682,1537388232,53.3666,-110.7426,815.5,197.5,261.4,4.4,0.3,9.77,41.99,1.9551,393.5311],
    [9683,1537388233,53.3665,-110.7437,814.9,196.9,263.6,3.2,-0.4,9.73,42.2,1.9543,393.6387],
    [9684,1537388234,53.3664,-110.7448,814.0,197.0,266.1,3.0,-1.2,10.02,41.82,1.9545,391.6244],
    [9685,1537388235,53.3664,-110.7459,814.7,197.7,268.3,3.4,-1.9,9.77,43.14,1.9553,394.5837],
    [9686,1537388236,53.3664,-110.7469,816.2,199.2,269.1,3.5,-1.8,9.54,42.46,1.9545,393.5056],
    [9687,1537388237,53.3663,-110.748,816.9,199.8,269.9,2.2,-2.2,9.67,42.86,1.9547,392.2016],
    [9688,1537388238,53.3663,-110.7491,816.8,198.9,269.8,2.4,-1.7,9.67,42.45,1.9531,391.8108],
    [9689,1537388239,53.3663,-110.7502,816.4,198.4,268.3,2.1,-0.5,9.66,42.37,1.9528,394.2062],
    [9690,1537388240,53.3663,-110.7513,816.4,198.4,267.0,2.8,-0.3,9.5,42.31,1.9525,394.2062],
    [9691,1537388241,53.3662,-110.7524,816.8,198.8,266.7,1.6,-1.1,9.85,42.92,1.9553,393.8091],
    [9692,1537388242,53.3662,-110.7535,816.6,198.6,265.5,2.1,-0.6,9.71,43.03,1.9529,393.1562],
    [9693,1537388243,53.3661,-110.7546,815.7,197.8,265.4,2.8,-0.9,9.44,42.26,1.9536,394.0256],
    [9694,1537388244,53.366,-110.7557,815.2,198.2,265.3,3.3,-0.7,9.73,42.41,1.9531,392.8508],
    [9695,1537388245,53.366,-110.7568,816.1,199.6,265.9,3.7,-1.2,10.27,42.15,1.9517,393.826],
    [9696,1537388246,53.3659,-110.7579,816.9,200.9,266.6,4.1,-1.6,9.9,42.2,1.9508,394.324],
    [9697,1537388247,53.3659,-110.759,816.5,201.5,265.8,3.9,-0.5,9.6,41.99,1.9508,394.1631],
    [9698,1537388248,53.3658,-110.7601,815.5,200.5,265.7,3.6,-0.5,9.91,41.99,1.951,394.1631],
    [9699,1537388249,53.3658,-110.7612,814.2,200.2,266.0,3.4,-1.0,9.95,42.35,1.9526,393.1145],
    [9700,1537388250,53.3657,-110.7623,813.1,199.1,266.0,4.1,-0.9,10.03,41.22,1.9506,394.736],
    [9701,1537388251,53.3656,-110.7634,812.9,198.9,266.2,4.5,-1.1,9.72,41.57,1.9496,392.62],
    [9702,1537388252,53.3656,-110.7646,813.5,198.5,266.2,4.6,-1.2,9.89,41.46,1.9534,392.62],
    [9703,1537388253,53.3655,-110.7656,814.1,199.1,266.4,3.7,-1.6,9.96,41.81,1.9558,392.3428],
    [9704,1537388254,53.3655,-110.7667,814.5,199.5,266.3,2.7,-1.7,9.67,41.14,1.9546,392.3428],
    [9705,1537388255,53.3654,-110.7678,814.4,199.4,265.9,2.7,-0.8,9.53,40.95,1.9535,393.3218],
    [9706,1537388256,53.3654,-110.7689,814.5,199.5,264.4,3.1,0.9,10.42,40.55,1.9538,393.7713],
    [9707,1537388257,53.3653,-110.77,814.3,199.3,264.8,3.1,0.4,10.06,41.54,1.9548,393.504],
    [9708,1537388258,53.3652,-110.7711,814.6,199.6,265.2,2.8,-0.2,9.58,40.85,1.9551,393.7923],
    [9709,1537388259,53.3652,-110.7722,815.4,202.1,265.4,2.6,0.2,9.89,41.6,1.9561,392.4672],
    [9710,1537388260,53.3651,-110.7733,815.8,205.9,265.3,3.7,0.3,9.97,42.04,1.9547,393.9786],
    [9711,1537388261,53.3651,-110.7744,815.4,208.4,266.1,3.6,-0.2,10.58,41.29,1.9526,393.5263],
    [9712,1537388262,53.365,-110.7755,815.3,213.8,265.7,3.4,0.1,9.86,41.63,1.9534,393.8858],
    [9713,1537388263,53.365,-110.7766,815.4,218.4,266.9,3.0,-1.1,9.81,41.71,1.9543,393.8599],
    [9714,1537388264,53.3649,-110.7777,815.3,223.6,267.1,3.4,-1.2,10.25,41.05,1.9538,394.0409],
    [9715,1537388265,53.3649,-110.7788,815.0,227.7,267.0,3.1,-1.0,10.05,41.91,1.9527,393.806],
    [9716,1537388266,53.3648,-110.7799,814.6,232.4,267.5,3.4,-1.4,10.02,42.26,1.9494,393.3567],
    [9717,1537388267,53.3648,-110.781,813.5,235.0,267.5,3.9,-1.1,10.09,41.84,1.9447,393.0015],
    [9718,1537388268,53.3648,-110.7822,812.8,237.2,267.6,4.7,-0.9,9.63,41.27,1.9471,392.7269],
    [9719,1537388269,53.3647,-110.7833,812.6,238.8,267.6,5.0,-0.5,9.91,40.82,1.947,392.7269],
    [9720,1537388270,53.3647,-110.7844,812.7,238.7,267.5,3.7,-0.1,10.02,40.56,1.9474,394.2133],
    [9721,1537388271,53.3647,-110.7855,813.4,239.4,267.4,3.1,0.3,9.96,40.58,1.9498,394.1018],
    [9722,1537388272,53.3646,-110.7866,814.4,239.3,266.9,3.4,0.8,9.85,40.43,1.952,393.7483],
    [9723,1537388273,53.3646,-110.7877,815.5,238.8,267.5,4.3,0.2,10.58,40.02,1.9535,394.5046],
    [9724,1537388274,53.3646,-110.7888,815.2,238.2,267.9,4.7,-0.1,10.6,39.99,1.9506,394.1943],
    [9725,1537388275,53.3646,-110.7899,814.6,238.0,268.9,4.2,-1.3,10.02,40.23,1.9489,394.1966],
    [9726,1537388276,53.3645,-110.7909,813.9,239.9,269.4,3.9,-1.3,9.94,40.0,1.95,394.0703],
    [9727,1537388277,53.3645,-110.792,814.0,240.0,267.9,4.0,0.6,10.14,40.31,1.9532,392.5833],
    [9728,1537388278,53.3645,-110.7931,814.8,240.8,268.7,3.0,-0.4,10.01,40.8,1.9534,392.9689],
    [9729,1537388279,53.3645,-110.7942,815.0,241.0,268.6,2.5,-0.1,9.59,40.46,1.9561,395.1428],
    [9730,1537388280,53.3645,-110.7953,815.2,242.2,268.6,2.7,-0.2,9.22,40.89,1.9547,393.9908],
    [9731,1537388281,53.3644,-110.7964,815.4,242.4,269.2,2.4,-0.9,10.13,41.31,1.9525,393.6186],
    [9732,1537388282,53.3644,-110.7975,814.6,241.6,270.1,2.8,-1.7,10.09,41.62,1.9501,393.0867],
    [9733,1537388283,53.3644,-110.7985,813.9,240.9,270.2,3.4,-1.4,10.16,41.33,1.9492,393.4828],
    [9734,1537388284,53.3644,-110.7997,813.9,240.9,270.6,3.6,-1.7,9.96,41.25,1.9468,393.4662],
    [9735,1537388285,53.3644,-110.8008,814.7,241.7,271.2,2.9,-2.5,10.03,41.04,1.9461,393.4662],
    [9736,1537388286,53.3644,-110.8019,815.1,242.1,270.8,2.7,-1.8,9.97,40.83,1.9475,394.4001],
    [9737,1537388287,53.3644,-110.803,814.6,241.6,269.6,3.0,-0.8,9.93,40.7,1.947,390.8067],
    [9738,1537388288,53.3644,-110.8041,814.4,240.4,269.3,3.1,-0.8,9.95,40.41,1.9466,393.8818],
    [9739,1537388289,53.3643,-110.8051,814.9,240.9,269.0,3.2,-0.7,10.0,40.46,1.947,393.8818],
    [9740,1537388290,53.3643,-110.8063,815.1,241.1,269.3,3.3,-1.1,9.99,40.43,1.9483,393.3644],
    [9741,1537388291,53.3643,-110.8074,815.0,241.0,269.5,3.1,-1.3,9.73,39.72,1.9492,394.2575],
    [9742,1537388292,53.3643,-110.8085,814.6,240.6,269.3,2.9,-1.0,10.21,39.51,1.9488,393.8051],
    [9743,1537388293,53.3643,-110.8095,814.4,240.4,269.4,2.4,-0.8,9.99,39.52,1.9492,393.9436],
    [9744,1537388294,53.3643,-110.8107,814.6,240.6,269.0,1.9,-0.2,10.1,39.71,1.954,393.7112],
    [9745,1537388295,53.3642,-110.8118,815.0,241.0,269.1,2.0,-0.5,10.11,39.25,1.9544,394.592],
    [9746,1537388296,53.3642,-110.8129,814.8,240.8,269.4,1.9,-0.8,10.73,39.29,1.9552,393.417],
    [9747,1537388297,53.3642,-110.814,813.9,239.9,269.1,2.2,-0.5,9.39,40.18,1.9559,393.8344],
    [9748,1537388298,53.3642,-110.815,813.8,239.8,268.8,2.1,-0.2,9.98,40.31,1.955,394.4597],
    [9749,1537388299,53.3642,-110.8161,814.5,240.5,269.1,3.5,-0.7,9.57,40.65,1.9518,394.3502],
    [9750,1537388300,53.3642,-110.8171,814.7,240.7,269.7,4.1,-1.1,9.8,40.86,1.9515,395.245],
    [9751,1537388301,53.3642,-110.8183,814.7,240.7,269.3,3.8,-0.5,9.85,41.06,1.9494,395.2614],
    [9752,1537388302,53.3641,-110.8194,814.5,240.5,269.3,4.8,-0.5,9.84,40.94,1.9493,392.6623],
    [9753,1537388303,53.3641,-110.8205,814.4,240.4,270.0,4.2,-1.2,9.98,40.92,1.9529,394.7965],
    [9754,1537388304,53.3641,-110.8216,815.1,241.1,270.3,4.0,-1.7,10.56,40.55,1.9548,393.5182],
    [9755,1537388305,53.3641,-110.8227,816.0,242.0,270.5,4.4,-1.8,10.4,40.59,1.9583,393.5182],
    [9756,1537388306,53.3641,-110.8238,816.6,242.6,270.0,4.6,-1.3,9.58,41.14,1.97,394.3012],
    [9757,1537388307,53.3641,-110.8249,817.3,243.3,269.4,4.1,-0.5,9.74,41.33,1.986,395.6736],
    [9758,1537388308,53.3641,-110.8259,818.7,244.7,269.2,5.5,-0.5,9.7,42.18,1.9699,393.7642],
    [9759,1537388309,53.3641,-110.827,820.6,246.6,270.4,5.2,-2.2,9.59,41.58,1.9573,394.2245],
    [9760,1537388310,53.364,-110.8281,822.2,248.2,271.5,3.6,-3.7,10.81,41.73,1.9539,393.8411],
    [9761,1537388311,53.364,-110.8292,821.8,246.1,270.6,3.6,-2.4,10.18,42.42,1.9667,393.4801],
    [9762,1537388312,53.364,-110.8303,820.4,243.4,269.8,2.8,-1.7,10.0,42.38,1.9675,393.206],
    [9763,1537388313,53.364,-110.8314,818.7,241.7,270.0,3.3,-2.0,10.17,42.45,1.9576,394.5099],
    [9764,1537388314,53.364,-110.8325,818.1,241.1,270.2,3.2,-2.3,10.03,42.45,1.9535,392.476],
    [9765,1537388315,53.364,-110.8336,816.5,239.4,271.3,2.6,-3.4,10.19,42.06,1.9526,394.5132],
    [9766,1537388316,53.3639,-110.8347,814.7,238.7,271.8,2.6,-3.5,10.0,42.38,1.9565,393.8099],
    [9767,1537388317,53.3639,-110.8358,814.3,238.9,271.3,2.2,-2.5,10.4,41.94,1.9675,394.3693],
    [9768,1537388318,53.3639,-110.8369,813.3,238.3,270.2,2.6,-1.5,10.0,42.35,1.9762,393.3297],
    [9769,1537388319,53.3639,-110.8381,812.2,237.2,270.5,2.5,-2.5,10.11,42.17,1.9704,393.4118],
    [9770,1537388320,53.3639,-110.8392,811.4,236.4,269.9,3.3,-1.9,10.12,42.71,1.9505,394.2019],
    [9771,1537388321,53.3639,-110.8402,809.2,234.2,269.9,3.5,-2.4,10.19,43.0,1.9436,392.4703],
    [9772,1537388322,53.3639,-110.8414,805.8,230.8,270.2,4.1,-2.8,10.14,41.14,1.9468,392.0614],
    [9773,1537388323,53.3638,-110.8426,803.5,228.5,269.0,4.1,-1.6,10.48,40.3,1.9482,394.4029],
    [9774,1537388324,53.3638,-110.8437,801.7,225.7,269.7,4.3,-2.6,9.98,40.32,1.9502,394.4029],
    [9775,1537388325,53.3638,-110.8449,799.7,222.6,269.0,4.8,-1.6,9.58,40.39,1.9518,394.567],
    [9776,1537388326,53.3638,-110.846,798.1,219.4,269.4,4.7,-2.3,10.34,39.87,1.949,394.8462],
    [9777,1537388327,53.3637,-110.8471,796.7,215.7,269.5,4.2,-2.1,10.26,40.25,1.9466,394.8462],
    [9778,1537388328,53.3637,-110.8483,795.3,209.9,268.2,3.5,-0.3,9.59,39.96,1.9554,394.1027],
    [9779,1537388329,53.3637,-110.8494,794.6,204.0,268.6,3.2,-1.0,9.54,39.91,1.9599,394.1743],
    [9780,1537388330,53.3637,-110.8505,793.8,197.8,269.1,0.8,-1.0,10.25,40.06,1.9579,392.935],
    [9781,1537388331,53.3636,-110.8517,792.0,189.3,269.2,2.0,-0.5,10.35,40.28,1.9524,394.3483],
    [9782,1537388332,53.3636,-110.8528,789.0,183.0,272.7,3.0,-3.0,10.0,39.86,1.9487,393.1449],
    [9783,1537388333,53.3637,-110.854,786.5,178.4,274.9,3.6,-1.9,9.83,39.82,1.9491,394.5953],
    [9784,1537388334,53.3637,-110.8551,784.4,176.4,278.1,3.9,-2.5,10.2,39.8,1.9501,393.6238],
    [9785,1537388335,53.3638,-110.8563,782.1,172.1,282.6,3.8,-3.8,10.96,39.18,1.9492,392.8405],
    [9786,1537388336,53.364,-110.8574,779.9,166.3,285.2,4.3,-3.1,10.4,40.14,1.9505,393.4047],
    [9787,1537388337,53.3641,-110.8585,777.3,161.2,289.1,4.2,-3.9,11.03,39.12,1.9499,393.4047],
    [9788,1537388338,53.3644,-110.8596,775.0,158.0,292.4,4.1,-3.7,10.38,40.33,1.9509,393.2779],
    [9789,1537388339,53.3647,-110.8607,772.2,154.2,296.0,3.8,-4.3,11.04,39.5,1.95,393.2744],
    [9790,1537388340,53.365,-110.8618,769.3,152.3,299.3,3.8,-4.0,10.79,39.36,1.9492,393.3216],
    [9791,1537388341,53.3653,-110.8627,767.1,150.0,301.8,4.3,-2.8,10.45,40.31,1.9486,392.9887],
    [9792,1537388342,53.3657,-110.8637,764.5,149.4,303.7,5.4,-2.2,10.56,39.56,1.953,394.3834],
    [9793,1537388343,53.3661,-110.8647,762.2,149.5,307.5,4.5,-2.1,10.51,39.86,1.9509,394.3834],
    [9794,1537388344,53.3666,-110.8656,760.5,149.5,310.5,4.5,-2.3,10.45,40.36,1.9496,394.4486],
    [9795,1537388345,53.367,-110.8664,758.5,148.7,313.5,3.4,-1.6,10.49,40.75,1.9478,394.3263],
    [9796,1537388346,53.3675,-110.8672,756.8,148.3,317.3,2.5,-1.9,10.91,39.4,1.9465,393.5418],
    [9797,1537388347,53.3681,-110.868,756.0,147.7,320.2,3.5,-2.3,10.33,40.12,1.95,393.5418],
    [9798,1537388348,53.3686,-110.8687,755.5,148.5,324.0,3.0,-3.6,10.48,39.99,1.9517,393.4377],
    [9799,1537388349,53.3692,-110.8694,755.6,148.6,326.9,3.5,-2.9,9.9,40.1,1.9523,393.7879],
    [9800,1537388350,53.3698,-110.8699,756.2,149.8,329.5,4.1,-2.9,10.11,40.06,1.9521,393.7879],
    [9801,1537388351,53.3704,-110.8705,756.5,150.5,332.9,3.2,-2.3,10.37,40.11,1.9534,394.3582],
    [9802,1537388352,53.3711,-110.871,756.4,152.1,335.1,4.1,-2.3,10.82,40.06,1.9535,390.5825],
    [9803,1537388353,53.3717,-110.8714,755.9,153.5,338.8,3.5,-2.9,10.15,40.41,1.9536,394.3044],
    [9804,1537388354,53.3724,-110.8717,755.7,153.3,341.9,3.4,-2.4,10.38,40.73,1.953,393.7802],
    [9805,1537388355,53.3731,-110.872,755.7,150.4,344.8,3.4,-2.3,10.39,41.09,1.953,394.1697],
    [9806,1537388356,53.3737,-110.8723,756.2,148.2,348.4,2.2,-2.5,10.65,40.48,1.9536,394.3508],
    [9807,1537388357,53.3744,-110.8725,756.9,146.3,350.9,2.3,-1.9,10.51,40.96,1.9529,394.6575],
    [9808,1537388358,53.3751,-110.8726,758.5,142.9,352.1,3.3,-2.5,10.09,41.22,1.9533,394.4596],
    [9809,1537388359,53.3758,-110.8727,759.3,141.1,354.3,2.2,-2.2,10.38,41.44,1.9534,394.6395],
    [9810,1537388360,53.3765,-110.8728,759.2,139.4,355.9,1.6,-1.5,10.4,41.52,1.9543,394.4403],
    [9811,1537388361,53.3772,-110.8728,758.3,137.3,355.8,2.8,-1.8,10.74,41.06,1.9534,394.6832],
    [9812,1537388362,53.3779,-110.8728,758.2,136.2,356.6,2.5,-1.8,10.45,42.01,1.9516,394.3346],
    [9813,1537388363,53.3786,-110.8729,758.3,137.0,356.3,3.4,-1.6,10.2,41.85,1.9509,393.4406],
    [9814,1537388364,53.3793,-110.8729,757.9,139.5,355.4,4.6,-1.1,9.92,41.9,1.9497,392.9835],
    [9815,1537388365,53.38,-110.8729,757.0,142.7,356.1,4.0,-0.3,10.07,42.01,1.9494,394.1988],
    [9816,1537388366,53.3807,-110.8729,755.9,142.9,356.8,3.6,-0.3,10.54,42.13,1.9488,394.3127],
    [9817,1537388367,53.3814,-110.8729,754.5,140.5,357.1,3.9,-0.4,10.47,41.27,1.9486,394.4959],
    [9818,1537388368,53.3821,-110.8729,754.1,139.1,357.2,4.0,-0.5,11.3,40.75,1.9506,392.6357],
    [9819,1537388369,53.3828,-110.8729,754.2,138.2,357.4,3.8,-0.3,10.49,41.13,1.9491,392.995],
    [9820,1537388370,53.3835,-110.8729,753.8,138.9,357.4,3.5,-0.2,10.61,40.87,1.9491,393.8349],
    [9821,1537388371,53.3842,-110.8729,753.4,138.4,356.9,3.8,0.1,10.49,40.86,1.9492,392.7206],
    [9822,1537388372,53.3849,-110.873,753.5,138.2,356.2,4.2,-0.1,10.43,40.75,1.9504,392.7141],
    [9823,1537388373,53.3856,-110.873,754.4,138.5,356.2,3.7,-0.4,11.09,40.33,1.9518,393.7582],
    [9824,1537388374,53.3863,-110.873,754.8,137.8,356.4,3.4,-0.2,10.03,40.58,1.9524,393.9881],
    [9825,1537388375,53.387,-110.873,754.7,137.7,356.4,3.0,-0.5,10.98,40.12,1.9555,395.1859],
    [9826,1537388376,53.3877,-110.873,755.3,139.3,356.8,2.7,-0.4,10.46,40.89,1.9541,393.6595],
    [9827,1537388377,53.3884,-110.8731,754.8,138.8,355.4,4.0,-0.5,11.26,40.63,1.9505,395.5012],
    [9828,1537388378,53.3891,-110.8731,754.6,138.6,355.3,3.5,-0.6,9.93,41.19,1.9521,393.805],
    [9829,1537388379,53.3898,-110.8732,755.2,139.2,354.6,3.9,-0.9,11.17,40.9,1.953,393.8303],
    [9830,1537388380,53.3905,-110.8732,755.4,139.4,354.4,3.8,-1.3,10.37,41.21,1.9526,393.6634],
    [9831,1537388381,53.3912,-110.8733,755.6,139.6,354.0,3.9,-0.9,11.05,40.92,1.953,394.373],
    [9832,1537388382,53.3919,-110.8733,756.0,139.1,354.8,2.7,-0.4,10.45,41.59,1.9525,394.1138],
    [9833,1537388383,53.3926,-110.8734,756.0,139.0,354.6,2.8,-1.0,10.46,41.96,1.9526,393.7516],
    [9834,1537388384,53.3933,-110.8735,755.9,138.8,355.7,0.9,-0.4,10.6,42.31,1.9524,392.8762],
    [9835,1537388385,53.394,-110.8736,755.4,137.4,354.8,2.1,-0.1,10.93,41.53,1.9518,393.403],
    [9836,1537388386,53.3947,-110.8736,754.7,136.7,354.0,2.5,-0.8,11.16,41.23,1.9518,392.3452],
    [9837,1537388387,53.3953,-110.8737,754.2,136.2,353.9,2.8,-0.1,10.54,42.15,1.9513,393.4163],
    [9838,1537388388,53.3961,-110.8738,753.6,134.7,353.0,3.7,0.0,10.5,41.86,1.9506,394.5454],
    [9839,1537388389,53.3967,-110.8739,753.0,132.9,353.3,3.4,0.2,10.86,41.76,1.9518,394.1298],
    [9840,1537388390,53.3974,-110.874,752.9,132.0,352.8,3.9,-0.3,11.29,41.63,1.9505,393.0092],
    [9841,1537388391,53.3981,-110.8741,754.0,132.0,353.6,2.8,1.2,10.58,41.95,1.9505,393.5211],
    [9842,1537388392,53.3988,-110.8741,754.7,132.7,353.5,3.2,1.3,10.58,41.57,1.9515,392.9015],
    [9843,1537388393,53.3995,-110.8742,754.0,131.3,354.2,3.0,-0.5,10.94,41.45,1.9517,393.9013],
    [9844,1537388394,53.4002,-110.8743,753.3,131.4,355.1,2.7,-0.2,10.51,41.99,1.9513,393.9013],
    [9845,1537388395,53.4009,-110.8744,752.9,132.5,354.8,3.7,0.4,9.94,41.69,1.9507,394.44],
    [9846,1537388396,53.4016,-110.8744,752.6,135.0,354.7,3.9,0.1,10.63,41.4,1.9502,394.0446],
    [9847,1537388397,53.4023,-110.8745,753.1,140.5,354.8,3.8,0.3,9.75,41.56,1.953,393.0845],
    [9848,1537388398,53.403,-110.8745,753.4,142.4,355.0,3.5,0.3,10.71,41.45,1.9489,394.46],
    [9849,1537388399,53.4037,-110.8745,753.1,143.1,355.5,2.9,0.8,10.52,42.07,1.9497,392.7325],
    [9850,1537388400,53.4043,-110.8746,753.0,143.0,355.2,3.4,1.2,11.08,41.03,1.9497,393.0637],
    [9851,1537388401,53.4051,-110.8746,753.3,143.3,354.6,4.0,1.1,10.4,41.85,1.9513,392.7835],
    [9852,1537388402,53.4058,-110.8747,753.7,143.7,355.1,3.3,0.8,10.45,41.04,1.9515,394.5249],
    [9853,1537388403,53.4065,-110.8747,753.7,142.7,356.0,2.3,-0.2,10.08,41.09,1.9496,394.2814],
    [9854,1537388404,53.4071,-110.8748,753.7,142.7,356.1,2.4,0.1,11.15,40.55,1.9509,394.8807],
    [9855,1537388405,53.4078,-110.8748,754.1,142.1,355.3,3.0,0.0,10.41,41.44,1.9515,394.8807],
    [9856,1537388406,53.4085,-110.8749,754.6,141.7,355.6,2.5,-0.4,10.22,41.04,1.949,393.1789],
    [9857,1537388407,53.4092,-110.8749,755.6,141.1,355.9,2.1,-1.4,10.47,41.24,1.9486,392.8998],
    [9858,1537388408,53.4099,-110.875,756.4,141.2,355.6,2.6,-1.7,10.37,41.34,1.9472,393.4635],
    [9859,1537388409,53.4106,-110.875,756.2,139.9,355.2,2.9,-2.1,10.57,41.72,1.9452,393.2156],
    [9860,1537388410,53.4113,-110.8751,755.4,137.4,355.4,2.6,-1.2,10.73,40.71,1.9464,394.8772],
    [9861,1537388411,53.412,-110.8752,754.8,134.8,354.6,3.4,-1.6,10.56,40.55,1.9473,393.9317],
    [9862,1537388412,53.4127,-110.8752,755.4,133.7,354.7,3.0,-1.5,10.31,40.74,1.9476,394.0612],
    [9863,1537388413,53.4134,-110.8753,756.2,133.2,355.2,2.5,-1.6,10.46,40.35,1.9488,392.8213],
    [9864,1537388414,53.4141,-110.8753,756.2,132.1,355.4,2.3,-1.7,10.67,39.92,1.9481,392.8213],
    [9865,1537388415,53.4147,-110.8754,756.3,132.3,355.5,2.4,-2.2,9.94,40.39,1.9477,394.349],
    [9866,1537388416,53.4154,-110.8754,755.8,131.8,355.4,2.5,-2.8,10.17,40.47,1.9495,393.7658],
    [9867,1537388417,53.4161,-110.8755,755.5,129.5,355.5,2.4,-2.3,10.24,40.84,1.9482,394.2239],
    [9868,1537388418,53.4168,-110.8756,754.9,127.4,355.3,2.6,-1.8,10.33,40.48,1.9485,394.8022],
    [9869,1537388419,53.4175,-110.8756,754.4,123.6,355.2,2.8,-2.1,11.04,40.08,1.9469,393.1141],
    [9870,1537388420,53.4182,-110.8757,754.2,121.8,355.1,2.9,-2.2,10.37,40.3,1.9471,393.4676],
    [9871,1537388421,53.4189,-110.8757,754.1,120.9,355.5,2.4,-1.9,10.83,39.99,1.948,394.8328],
    [9872,1537388422,53.4196,-110.8758,754.0,118.9,355.6,2.4,-1.9,10.03,40.04,1.9472,394.4096],
    [9873,1537388423,53.4203,-110.8759,753.9,117.9,355.7,2.2,-1.5,10.8,39.47,1.9473,395.4442],
    [9874,1537388424,53.4209,-110.8759,753.9,115.8,355.5,2.4,-1.6,10.09,40.38,1.9473,394.6499],
    [9875,1537388425,53.4216,-110.876,753.7,116.0,354.9,3.1,-1.2,10.41,40.15,1.9478,394.6539],
    [9876,1537388426,53.4223,-110.876,753.5,117.2,355.0,2.9,-1.4,10.11,40.06,1.9494,392.9655],
    [9877,1537388427,53.423,-110.8761,753.2,116.2,355.4,2.5,-1.2,10.39,40.2,1.9491,393.121],
    [9878,1537388428,53.4237,-110.8761,753.3,114.3,355.6,2.3,-1.7,10.39,39.99,1.9478,393.5659],
    [9879,1537388429,53.4244,-110.8762,754.2,113.3,356.1,1.7,-1.2,10.1,40.5,1.9473,394.339],
    [9880,1537388430,53.425,-110.8762,754.9,111.2,356.0,1.8,-1.3,10.59,40.39,1.9468,393.7805],
    [9881,1537388431,53.4257,-110.8763,754.5,110.5,355.7,2.2,-1.6,11.22,39.41,1.949,394.6167],
    [9882,1537388432,53.4264,-110.8764,754.3,111.4,355.4,2.7,-2.2,10.71,40.04,1.9499,393.7166],
    [9883,1537388433,53.4271,-110.8764,754.8,112.8,355.9,2.2,-1.9,10.38,40.0,1.9522,394.6701],
    [9884,1537388434,53.4278,-110.8765,755.5,113.5,355.5,2.5,-0.7,9.96,39.95,1.9652,394.6701],
    [9885,1537388435,53.4284,-110.8765,755.7,113.7,355.5,2.3,-1.4,10.82,39.77,1.979,394.4413],
    [9886,1537388436,53.4291,-110.8766,755.1,114.5,355.1,2.5,-1.4,10.06,39.77,1.9562,392.8492],
    [9887,1537388437,53.4298,-110.8766,754.7,118.0,354.5,2.7,-1.5,11.31,39.52,1.9501,392.7063],
    [9888,1537388438,53.4305,-110.8767,755.0,120.1,354.3,2.8,-1.4,10.66,40.51,1.9494,393.434],
    [9889,1537388439,53.4312,-110.8768,756.2,124.2,354.0,3.0,-1.2,10.4,40.23,1.949,393.7041],
    [9890,1537388440,53.4318,-110.8769,757.5,128.3,354.0,3.0,-1.3,10.38,40.02,1.9492,394.4029],
    [9891,1537388441,53.4325,-110.8769,758.7,130.7,354.5,2.7,-1.2,10.06,40.16,1.9485,394.1071],
    [9892,1537388442,53.4332,-110.877,759.6,132.6,354.6,2.8,-1.1,10.37,40.14,1.9463,394.1741],
    [9893,1537388443,53.4339,-110.8771,760.6,133.6,355.0,2.6,-1.1,9.98,40.08,1.9469,394.1978],
    [9894,1537388444,53.4345,-110.8771,762.0,135.0,354.9,3.0,-1.1,10.18,40.14,1.9463,394.4793],
    [9895,1537388445,53.4352,-110.8772,763.7,137.6,354.8,3.2,-1.0,10.1,40.01,1.9476,393.1107],
    [9896,1537388446,53.4359,-110.8772,765.2,141.9,355.1,3.0,-0.8,10.91,39.51,1.9456,392.8777],
    [9897,1537388447,53.4365,-110.8773,766.5,143.8,354.9,3.2,-0.7,9.91,39.87,1.9469,393.7845],
    [9898,1537388448,53.4372,-110.8773,767.7,145.7,355.0,3.1,-0.7,10.39,40.03,1.9471,394.5785],
    [9899,1537388449,53.4378,-110.8774,768.7,146.7,355.0,3.2,-0.5,10.33,39.79,1.9456,394.8177],
    [9900,1537388450,53.4385,-110.8774,769.9,147.9,355.0,3.2,-0.4,10.63,39.73,1.9456,392.9653],
    [9901,1537388451,53.4392,-110.8775,771.1,149.1,354.9,3.4,-0.3,9.95,39.82,1.9475,393.0736],
    [9902,1537388452,53.4398,-110.8775,772.4,150.4,354.9,3.4,0.2,10.45,39.7,1.9507,393.0736],
    [9903,1537388453,53.4405,-110.8776,773.4,151.4,355.0,3.5,0.4,10.69,39.41,1.9665,393.1655],
    [9904,1537388454,53.4411,-110.8776,774.4,150.1,354.9,3.7,0.0,10.23,39.76,2.0006,394.5721],
    [9905,1537388455,53.4418,-110.8777,776.1,150.9,354.8,3.7,0.1,10.36,40.28,2.0173,395.1694],
    [9906,1537388456,53.4425,-110.8777,778.4,153.2,355.6,2.9,-0.4,10.42,39.89,2.004,393.2182],
    [9907,1537388457,53.4431,-110.8777,780.3,155.3,355.8,2.7,-0.6,9.9,40.17,2.0355,394.2739],
    [9908,1537388458,53.4438,-110.8778,781.5,155.5,355.2,3.2,0.3,10.73,39.84,2.0443,393.434],
    [9909,1537388459,53.4444,-110.8778,781.7,154.0,355.3,3.2,0.3,10.31,40.64,2.0335,393.0169],
    [9910,1537388460,53.4451,-110.8779,781.7,152.7,353.4,4.9,-0.1,10.48,40.22,1.9636,394.2344],
    [9911,1537388461,53.4457,-110.8779,782.1,154.2,353.5,4.3,0.3,11.11,39.84,1.9557,393.2561],
    [9912,1537388462,53.4464,-110.878,782.5,154.5,353.9,3.9,0.8,10.39,40.03,1.9545,393.2561],
    [9913,1537388463,53.447,-110.878,782.7,155.7,353.6,4.2,0.1,10.83,39.66,1.9423,393.2066],
    [9914,1537388464,53.4477,-110.8781,782.9,155.7,354.0,4.0,0.3,10.98,39.43,1.9389,391.4073],
    [9915,1537388465,53.4484,-110.8782,783.3,153.5,353.6,4.6,1.0,10.28,39.61,1.9388,393.7049],
    [9916,1537388466,53.449,-110.8782,783.3,151.9,353.7,4.4,1.0,10.08,39.12,1.9371,393.5552],
    [9917,1537388467,53.4497,-110.8783,782.8,149.8,353.9,4.8,0.4,10.21,38.68,1.9342,391.5707],
    [9918,1537388468,53.4503,-110.8783,782.5,147.2,353.9,5.1,0.4,9.57,37.64,1.9361,394.0914],
    [9919,1537388469,53.451,-110.8783,782.6,145.1,354.3,4.8,0.9,10.11,37.05,1.9365,392.8732],
    [9920,1537388470,53.4516,-110.8784,783.3,144.4,354.5,4.9,0.8,10.77,35.93,1.9384,392.3713],
    [9921,1537388471,53.4523,-110.8784,783.9,144.9,353.9,5.7,1.6,9.82,36.05,1.939,392.7473],
    [9922,1537388472,53.453,-110.8784,783.8,145.1,354.4,5.3,2.0,10.21,35.76,1.938,392.8585],
    [9923,1537388473,53.4536,-110.8785,783.7,147.0,354.3,5.7,2.3,10.37,36.07,1.9366,390.7062],
    [9924,1537388474,53.4543,-110.8785,783.7,148.5,355.0,4.8,2.1,10.27,35.59,1.9366,391.9223],
    [9925,1537388475,53.455,-110.8785,783.1,149.1,356.1,3.9,1.9,10.16,35.36,1.9368,393.6706],
    [9926,1537388476,53.4556,-110.8785,782.6,151.3,356.1,4.0,1.6,9.98,35.36,1.9365,393.6706],
    [9927,1537388477,53.4563,-110.8785,782.4,153.1,356.2,4.0,0.5,10.33,35.01,1.9397,393.7926],
    [9928,1537388478,53.457,-110.8785,783.0,154.7,355.9,4.2,0.9,10.35,35.17,1.9414,393.8368],
    [9929,1537388479,53.4576,-110.8786,783.4,154.4,356.1,3.8,0.8,10.88,34.64,1.944,395.8258],
    [9930,1537388480,53.4583,-110.8786,782.9,152.6,356.2,3.5,0.9,10.44,34.81,1.9476,393.3155],
    [9931,1537388481,53.459,-110.8786,782.8,149.4,356.1,3.7,0.6,10.39,35.2,1.9474,394.7338],
    [9932,1537388482,53.4596,-110.8786,783.4,148.4,355.5,4.0,0.7,9.99,35.47,1.9491,394.5283],
    [9933,1537388483,53.4603,-110.8787,784.5,147.5,355.9,3.3,0.7,10.39,35.48,1.9581,392.7185],
    [9934,1537388484,53.461,-110.8787,785.8,147.8,356.9,1.6,0.2,10.96,35.23,1.9568,392.5967],
    [9935,1537388485,53.4617,-110.8787,786.4,148.3,357.0,1.8,-0.2,9.89,36.2,1.9571,393.786],
    [9936,1537388486,53.4623,-110.8788,785.7,148.9,354.8,3.7,-2.0,10.46,36.33,1.9813,393.9275],
    [9937,1537388487,53.463,-110.8788,785.2,151.2,355.0,2.9,-2.4,10.94,36.53,2.0053,393.7104],
    [9938,1537388488,53.4637,-110.8789,785.4,156.4,353.7,4.0,-2.1,10.19,37.03,2.0057,393.4059],
    [9939,1537388489,53.4644,-110.8789,785.1,158.3,354.1,3.4,-2.8,10.36,37.91,1.9977,393.5376],
    [9940,1537388490,53.4651,-110.879,784.4,159.4,354.3,3.1,-2.7,10.83,36.5,1.9902,393.5376],
    [9941,1537388491,53.4657,-110.8791,784.1,159.1,354.5,3.2,-2.8,10.1,37.31,2.0056,394.4911],
    [9942,1537388492,53.4664,-110.8792,784.8,156.5,353.8,4.2,-2.6,9.81,37.55,2.0246,393.6274],
    [9943,1537388493,53.4671,-110.8792,786.3,155.3,354.0,4.1,-2.0,10.35,37.74,2.0165,393.696],
    [9944,1537388494,53.4678,-110.8793,786.4,152.7,354.5,3.9,-1.7,10.18,37.37,2.0171,393.2379],
    [9945,1537388495,53.4684,-110.8793,785.6,150.3,354.4,4.4,-2.0,10.35,37.85,2.0027,391.7318],
    [9946,1537388496,53.4691,-110.8794,785.7,150.3,355.2,3.7,-1.9,10.99,37.25,1.9825,394.201],
    [9947,1537388497,53.4698,-110.8794,785.4,148.8,355.8,3.4,-2.3,10.55,37.16,1.9727,394.3544],
    [9948,1537388498,53.4705,-110.8794,784.8,145.5,356.0,3.6,-2.4,10.31,37.46,1.9717,392.4669],
    [9949,1537388499,53.4711,-110.8795,784.6,140.6,355.7,3.8,-2.5,10.82,36.93,1.9594,391.7272],
    [9950,1537388500,53.4718,-110.8795,784.9,139.2,355.9,3.6,-2.4,9.73,37.31,1.9513,392.0482],
    [9951,1537388501,53.4725,-110.8795,785.1,137.1,355.6,4.0,-2.2,9.66,37.03,1.9556,393.3111],
    [9952,1537388502,53.4732,-110.8796,785.1,137.1,355.4,4.0,-2.2,9.82,36.48,1.9471,393.4988],
    [9953,1537388503,53.4739,-110.8796,784.8,137.8,355.5,3.9,-2.3,10.3,36.54,1.9415,392.862],
    [9954,1537388504,53.4745,-110.8796,784.4,140.4,355.6,3.8,-2.4,10.25,36.14,1.9401,393.4325],
    [9955,1537388505,53.4752,-110.8796,784.1,140.8,355.7,3.7,-2.3,10.34,36.27,1.9434,393.8185],
    [9956,1537388506,53.4759,-110.8797,784.6,142.6,355.2,4.3,-1.9,10.67,35.04,1.9537,393.0262],
    [9957,1537388507,53.4765,-110.8797,785.0,144.1,355.4,3.9,-2.3,10.36,35.68,1.9682,393.1546],
    [9958,1537388508,53.4772,-110.8798,784.8,143.7,355.9,3.0,-1.9,10.15,35.55,1.9723,392.7247],
    [9959,1537388509,53.4779,-110.8798,784.8,144.8,355.9,2.9,-1.3,10.36,36.08,1.9765,393.9859],
    [9960,1537388510,53.4786,-110.8798,785.3,145.3,355.8,3.1,-1.2,10.26,35.84,1.9767,393.9859],
    [9961,1537388511,53.4792,-110.8799,785.1,144.0,355.3,4.0,-1.7,10.17,36.7,1.9517,393.5285],
    [9962,1537388512,53.4799,-110.8799,784.6,142.4,355.0,4.2,-1.8,11.05,36.26,1.9487,393.7827],
    [9963,1537388513,53.4806,-110.8799,784.3,141.2,354.8,4.5,-1.8,10.77,36.92,1.9477,393.7109],
    [9964,1537388514,53.4813,-110.88,784.3,141.3,355.1,3.9,-1.9,10.33,36.81,1.9507,393.1614],
    [9965,1537388515,53.4819,-110.88,784.4,141.3,355.2,4.1,-1.6,10.03,36.57,1.9406,393.1648],
    [9966,1537388516,53.4826,-110.8801,784.4,142.2,354.9,4.5,-1.7,10.23,35.8,1.944,393.8294],
    [9967,1537388517,53.4833,-110.8801,784.3,143.0,355.1,4.3,-1.6,10.08,35.55,1.9446,393.5792],
    [9968,1537388518,53.484,-110.8801,784.2,142.9,354.8,4.6,-1.5,10.28,35.42,1.9447,392.6122],
    [9969,1537388519,53.4846,-110.8802,784.0,141.9,355.1,4.3,-1.5,10.15,35.09,1.9441,393.0311],
    [9970,1537388520,53.4853,-110.8802,783.7,142.7,354.9,4.6,-1.5,10.45,35.2,1.9419,393.3146],
    [9971,1537388521,53.486,-110.8802,783.6,143.6,355.1,4.4,-1.4,10.29,34.52,1.9365,392.7073],
    [9972,1537388522,53.4867,-110.8803,783.7,146.1,355.1,4.5,-1.4,10.03,34.33,1.9376,394.8535],
    [9973,1537388523,53.4874,-110.8803,784.0,149.4,355.0,4.5,-1.2,10.27,34.89,1.941,392.8033],
    [9974,1537388524,53.488,-110.8803,784.3,152.3,355.8,3.7,-1.4,9.97,34.32,1.939,393.6406],
    [9975,1537388525,53.4886,-110.8803,784.4,157.4,355.6,4.0,-1.4,10.46,34.51,1.9387,394.3669],
    [9976,1537388526,53.4894,-110.8804,784.4,161.1,355.2,4.2,-0.8,10.29,34.93,1.9431,393.6914],
    [9977,1537388527,53.4901,-110.8804,784.6,161.6,354.8,4.4,-0.6,10.09,34.56,1.9486,393.8146],
    [9978,1537388528,53.4907,-110.8804,784.9,160.8,354.7,4.1,0.0,10.27,35.42,1.9559,393.8405],
    [9979,1537388529,53.4914,-110.8805,785.1,160.3,355.2,3.3,-0.8,9.82,35.43,1.9592,395.0766],
    [9980,1537388530,53.4921,-110.8805,784.8,160.8,355.1,3.3,-0.4,10.39,35.25,1.9542,393.5134],
    [9981,1537388531,53.4927,-110.8806,784.1,160.1,354.2,4.3,-0.6,9.73,35.96,1.9401,393.065],
    [9982,1537388532,53.4934,-110.8806,783.8,159.0,353.8,4.6,-0.6,10.34,35.99,1.939,393.6446],
    [9983,1537388533,53.4941,-110.8807,783.8,158.9,353.3,5.1,-0.3,10.2,35.91,1.9401,393.6446],
    [9984,1537388534,53.4947,-110.8808,784.0,158.2,353.4,4.8,0.0,9.89,35.75,1.9393,394.0002],
    [9985,1537388535,53.4955,-110.8808,783.9,159.0,353.8,4.4,0.5,10.2,35.47,1.9397,393.4167],
    [9986,1537388536,53.4961,-110.8809,783.7,159.6,353.7,4.5,0.9,10.48,34.7,1.9401,394.6328],
    [9987,1537388537,53.4968,-110.8809,784.1,159.8,354.4,4.0,1.1,10.35,35.18,1.945,392.4401],
    [9988,1537388538,53.4975,-110.881,784.9,160.3,354.8,3.5,1.7,10.6,35.08,1.9491,394.0514],
    [9989,1537388539,53.4982,-110.881,784.8,158.8,355.0,3.5,0.5,10.09,35.69,1.9448,392.9862],
    [9990,1537388540,53.4988,-110.8811,784.3,157.7,355.2,3.5,-0.3,10.54,34.85,1.9398,393.3749],
    [9991,1537388541,53.4995,-110.8811,783.6,156.2,354.8,3.7,-0.1,10.46,35.38,1.9366,393.1266],
    [9992,1537388542,53.5002,-110.8812,782.9,155.5,355.5,2.6,0.0,9.6,35.75,1.9358,393.7021],
    [9993,1537388543,53.5009,-110.8812,782.8,155.7,355.2,2.9,0.9,10.26,35.25,1.9381,394.0619],
    [9994,1537388544,53.5016,-110.8813,782.7,156.1,353.4,4.9,1.0,10.14,35.79,1.9364,392.9383],
    [9995,1537388545,53.5023,-110.8813,782.4,155.3,353.2,4.9,0.9,9.76,34.98,1.9363,393.4018],
    [9996,1537388546,53.5029,-110.8814,782.5,154.1,354.4,3.6,0.4,9.86,34.98,1.9366,392.9427],
    [9997,1537388547,53.5036,-110.8814,783.1,151.6,355.0,3.0,-0.1,10.32,34.85,1.9389,393.9691],
    [9998,1537388548,53.5043,-110.8815,783.8,150.3,354.7,3.7,-0.6,10.25,34.93,1.9367,394.0547],
    [9999,1537388549,53.505,-110.8815,783.8,148.5,352.9,5.4,-0.5,10.0,35.32,1.9361,393.0815],
    [10000,1537388550,53.5057,-110.8816,783.7,147.9,352.8,5.0,-0.1,10.63,34.0,1.9351,391.8151],
    [10001,1537388551,53.5064,-110.8817,783.5,147.9,352.9,4.9,0.2,10.27,34.39,1.9348,392.4942],
    [10002,1537388552,53.507,-110.8817,783.5,149.8,352.9,4.8,0.4,10.22,34.07,1.9359,392.4899],
    [10003,1537388553,53.5077,-110.8818,783.5,150.4,353.2,4.6,0.6,10.26,34.3,1.9349,392.1163],
    [10004,1537388554,53.5084,-110.8819,783.6,151.6,353.3,4.5,0.7,10.32,33.37,1.9383,392.931],
    [10005,1537388555,53.5091,-110.8819,783.6,152.4,353.5,4.5,0.8,10.15,33.41,1.9373,392.931],
    [10006,1537388556,53.5098,-110.882,783.7,152.8,353.5,4.7,0.9,10.33,33.39,1.9359,393.575],
    [10007,1537388557,53.5104,-110.8821,783.8,151.8,353.4,4.9,1.2,9.6,33.16,1.9377,393.0779],
    [10008,1537388558,53.5111,-110.8821,783.7,149.7,353.2,5.2,1.1,10.65,32.94,1.9349,392.2746],
    [10009,1537388559,53.5118,-110.8822,783.3,147.6,353.9,4.2,1.0,10.54,32.59,1.9364,393.026],
    [10010,1537388560,53.5125,-110.8822,783.9,148.0,355.2,3.1,2.4,10.25,33.09,1.9371,393.063],
    [10011,1537388561,53.5132,-110.8823,784.5,148.6,354.2,4.1,2.8,9.99,33.03,1.939,393.063],
    [10012,1537388562,53.5139,-110.8823,784.1,148.4,354.4,3.9,2.4,9.89,32.85,1.9371,394.1165],
    [10013,1537388563,53.5146,-110.8824,783.8,148.9,353.4,4.9,1.8,10.58,32.65,1.9392,392.9451],
    [10014,1537388564,53.5152,-110.8824,783.8,149.0,353.4,4.7,1.1,10.14,33.26,1.938,394.0211],
    [10015,1537388565,53.5159,-110.8825,784.0,149.9,353.4,4.5,1.1,10.25,33.37,1.9376,392.7613],
    [10016,1537388566,53.5166,-110.8826,784.3,150.7,353.2,4.6,1.4,10.58,32.71,1.9388,393.697],
    [10017,1537388567,53.5173,-110.8826,784.0,151.0,352.9,5.2,1.3,10.83,32.57,1.9427,393.6602],
    [10018,1537388568,53.518,-110.8827,783.6,151.9,352.9,5.2,1.6,10.87,32.88,1.9454,394.0645],
    [10019,1537388569,53.5187,-110.8827,783.5,155.9,353.6,4.3,2.2,10.31,34.29,1.9477,394.0645],
    [10020,1537388570,53.5193,-110.8828,783.3,156.3,353.3,4.5,2.4,9.86,33.83,1.9485,393.2028],
    [10021,1537388571,53.52,-110.8829,783.1,157.0,353.3,5.0,2.1,9.8,34.05,1.9838,393.6249],
    [10022,1537388572,53.5207,-110.8829,783.3,158.3,352.9,5.4,2.3,10.09,34.1,1.9961,394.3451],
    [10023,1537388573,53.5214,-110.883,784.0,159.0,353.9,4.7,2.8,10.67,34.85,2.0117,394.3451],
    [10024,1537388574,53.522,-110.883,784.9,159.9,354.9,3.7,2.2,10.05,35.43,1.9643,393.7144],
    [10025,1537388575,53.5227,-110.8831,785.4,160.2,355.2,3.4,1.9,10.26,35.41,1.9521,393.7197],
    [10026,1537388576,53.5234,-110.8831,784.1,160.5,354.9,3.5,1.3,10.38,35.49,1.9491,393.6357],
    [10027,1537388577,53.5241,-110.8832,782.1,159.3,354.3,4.0,1.3,10.56,34.81,1.9459,393.4945],
    [10028,1537388578,53.5248,-110.8832,781.6,159.6,352.8,5.2,0.9,10.13,35.24,1.9464,394.4801],
    [10029,1537388579,53.5255,-110.8833,781.9,159.9,353.8,3.7,1.7,10.08,35.29,1.946,392.1735],
    [10030,1537388580,53.5262,-110.8833,782.0,159.0,353.4,4.4,1.7,10.44,35.35,1.9465,394.5883],
    [10031,1537388581,53.5268,-110.8834,781.4,157.6,352.8,5.0,1.7,11.09,35.2,1.9459,393.5759],
    [10032,1537388582,53.5275,-110.8835,781.8,155.1,352.7,5.1,1.6,10.78,35.73,1.9463,393.4738],
    [10033,1537388583,53.5282,-110.8835,783.5,155.2,352.6,5.3,1.3,9.94,35.83,1.9458,393.64],
    [10034,1537388584,53.5289,-110.8836,785.5,155.6,353.6,4.3,1.8,9.86,36.11,1.946,392.8039],
    [10035,1537388585,53.5296,-110.8837,785.9,154.9,353.0,5.1,1.0,10.36,36.5,1.9477,392.5024],
    [10036,1537388586,53.5303,-110.8837,784.6,154.6,353.3,4.5,1.8,10.1,36.32,1.9472,393.657],
    [10037,1537388587,53.531,-110.8838,783.5,154.5,352.8,4.8,1.8,10.22,35.97,1.9497,392.5459],
    [10038,1537388588,53.5317,-110.8839,783.6,155.7,353.8,3.7,-0.2,10.95,35.99,1.9471,393.6607],
    [10039,1537388589,53.5323,-110.8839,784.5,156.8,354.5,3.0,-1.9,10.45,36.06,1.942,393.7415],
    [10040,1537388590,53.533,-110.884,786.5,159.5,354.5,3.2,-2.9,10.22,36.38,1.9416,393.655],
    [10041,1537388591,53.5337,-110.8841,788.4,162.4,353.4,5.0,-2.9,10.22,36.3,1.9426,393.8254],
    [10042,1537388592,53.5344,-110.8841,788.4,163.3,352.0,6.2,-3.4,10.41,36.39,1.9422,393.5615],
    [10043,1537388593,53.5351,-110.8842,786.9,162.9,353.2,4.5,-3.2,10.42,35.68,1.9396,393.6495],
    [10044,1537388594,53.5358,-110.8843,787.1,163.1,352.1,5.6,-2.0,10.04,35.76,1.9393,392.8295],
    [10045,1537388595,53.5365,-110.8844,787.1,162.0,351.1,6.6,-1.8,11.11,35.2,1.9409,394.0541],
    [10046,1537388596,53.5372,-110.8845,785.8,158.8,352.2,5.1,-1.7,10.45,35.4,1.9402,393.8517],
    [10047,1537388597,53.5378,-110.8845,784.6,154.6,352.5,5.1,-1.8,9.89,35.37,1.9408,393.437],
    [10048,1537388598,53.5385,-110.8846,784.4,154.4,352.9,4.9,-1.7,10.85,34.22,1.9398,393.1151],
    [10049,1537388599,53.5392,-110.8847,784.2,154.8,353.1,5.1,-1.9,10.39,35.27,1.9421,393.0776],
    [10050,1537388600,53.5399,-110.8848,783.5,155.6,353.1,5.4,-2.2,9.97,35.17,1.9409,392.6661],
    [10051,1537388601,53.5406,-110.8848,783.0,156.0,353.4,5.3,-2.5,10.49,35.0,1.9404,392.0593],
    [10052,1537388602,53.5413,-110.8849,783.4,155.4,353.4,5.4,-2.4,10.37,34.74,1.94,392.5174],
    [10053,1537388603,53.542,-110.8849,784.3,155.3,353.6,5.4,-2.3,10.2,34.97,1.94,391.3286],
    [10054,1537388604,53.5426,-110.885,783.9,155.6,353.7,5.5,-2.3,10.58,34.94,1.9402,393.1235],
    [10055,1537388605,53.5433,-110.885,783.1,155.4,354.0,5.3,-1.9,10.84,33.79,1.9396,393.5068],
    [10056,1537388606,53.544,-110.8851,783.3,155.2,353.7,5.6,-1.5,10.51,34.71,1.939,390.9389],
    [10057,1537388607,53.5447,-110.8851,784.4,155.4,354.1,5.0,-1.0,10.58,35.01,1.9398,392.9975],
    [10058,1537388608,53.5454,-110.8852,784.7,153.7,354.0,5.1,-1.5,10.58,34.76,1.9397,393.1177],
    [10059,1537388609,53.5461,-110.8852,784.3,153.3,353.8,5.3,-1.5,10.55,34.38,1.9397,393.6749],
    [10060,1537388610,53.5467,-110.8852,783.8,152.7,353.9,5.0,-1.5,10.46,34.32,1.9387,391.93],
    [10061,1537388611,53.5474,-110.8853,784.1,153.1,353.8,5.0,-1.3,10.12,34.4,1.9395,393.1126],
    [10062,1537388612,53.5481,-110.8854,784.5,153.5,354.4,4.3,-1.1,9.85,34.23,1.9388,393.8713],
    [10063,1537388613,53.5488,-110.8854,784.1,154.1,354.0,4.9,-0.6,10.05,34.13,1.9392,393.3622],
    [10064,1537388614,53.5495,-110.8854,783.5,155.5,354.1,4.7,-0.8,10.43,34.14,1.9403,391.4591],
    [10065,1537388615,53.5501,-110.8855,783.1,156.1,353.7,5.1,-0.8,10.22,34.1,1.9403,393.0793],
    [10066,1537388616,53.5508,-110.8855,783.1,155.0,353.7,5.0,-1.3,10.41,34.19,1.9398,393.9281],
    [10067,1537388617,53.5515,-110.8856,783.8,152.4,353.6,5.4,-1.2,10.13,34.48,1.9396,393.4039],
    [10068,1537388618,53.5522,-110.8857,784.4,150.4,353.7,5.0,-1.0,10.89,33.49,1.9396,392.9013],
    [10069,1537388619,53.5529,-110.8857,784.4,148.4,354.3,4.3,-0.2,11.27,33.71,1.9394,390.6681],
    [10070,1537388620,53.5535,-110.8857,784.1,149.6,353.8,4.8,-1.1,10.5,34.61,1.9398,393.5633],
    [10071,1537388621,53.5542,-110.8858,784.4,153.1,355.1,3.1,-1.1,10.4,34.32,1.9403,393.7575],
    [10072,1537388622,53.5549,-110.8859,785.1,154.7,355.1,3.3,-0.4,10.16,34.31,1.9403,392.7383],
    [10073,1537388623,53.5556,-110.8859,784.9,154.8,353.8,4.9,-0.6,10.57,35.01,1.9396,392.3922],
    [10074,1537388624,53.5562,-110.886,783.8,152.8,353.8,4.6,-0.4,10.88,33.9,1.9394,393.3844],
    [10075,1537388625,53.5569,-110.886,783.1,152.0,353.7,4.7,0.1,10.5,34.78,1.9388,393.4768],
    [10076,1537388626,53.5576,-110.8861,783.3,153.2,353.5,4.7,-0.2,9.7,34.56,1.9415,393.6326],
    [10077,1537388627,53.5583,-110.8861,783.5,153.6,354.0,4.0,-0.4,10.45,34.3,1.9403,392.7975],
    [10078,1537388628,53.559,-110.8862,783.2,152.2,353.7,4.5,-0.6,10.41,34.57,1.9407,394.2738],
    [10079,1537388629,53.5596,-110.8862,782.8,150.8,353.9,4.2,-0.4,9.92,34.74,1.9414,393.2795],
    [10080,1537388630,53.5603,-110.8863,783.0,151.0,353.8,4.2,-0.2,10.01,34.68,1.9432,393.2795],
    [10081,1537388631,53.561,-110.8864,783.2,151.2,353.8,4.4,-0.5,10.49,35.0,1.9424,393.9799],
    [10082,1537388632,53.5617,-110.8864,783.2,152.2,353.7,4.6,-0.8,11.14,34.43,1.9451,393.7633],
    [10083,1537388633,53.5624,-110.8865,783.4,152.4,354.0,4.3,-0.6,10.83,34.26,1.944,390.8814],
    [10084,1537388634,53.563,-110.8865,783.6,152.6,353.9,4.6,-0.4,10.33,35.16,1.9445,392.2811],
    [10085,1537388635,53.5637,-110.8866,783.7,153.7,353.9,4.5,-0.3,10.39,36.26,1.9453,393.8622],
    [10086,1537388636,53.5644,-110.8866,783.4,153.4,353.8,4.6,-0.1,10.35,35.69,1.9443,393.4736],
    [10087,1537388637,53.5651,-110.8867,783.5,153.5,353.7,4.6,0.7,10.74,35.38,1.9426,393.3432],
    [10088,1537388638,53.5658,-110.8868,784.2,154.2,353.9,4.4,0.3,10.34,36.79,1.9422,393.083],
    [10089,1537388639,53.5664,-110.8868,784.2,153.2,353.8,4.5,0.1,10.35,36.21,1.9425,392.2427],
    [10090,1537388640,53.5671,-110.8869,784.3,153.3,353.8,4.8,-0.2,10.39,36.18,1.9435,393.9348],
    [10091,1537388641,53.5678,-110.8869,784.5,154.5,354.0,4.6,0.4,10.0,36.47,1.9423,393.9348],
    [10092,1537388642,53.5685,-110.887,784.7,158.3,354.5,4.0,0.3,10.37,36.87,1.9417,392.8004],
    [10093,1537388643,53.5692,-110.887,784.0,160.4,354.0,4.7,0.9,9.79,36.38,1.9426,393.3563],
    [10094,1537388644,53.5698,-110.8871,783.8,163.1,353.8,4.8,0.7,10.08,36.14,1.9419,393.0713],
    [10095,1537388645,53.5705,-110.8871,783.6,164.6,354.1,4.5,0.6,10.58,36.12,1.9427,392.0522],
    [10096,1537388646,53.5712,-110.8872,783.5,165.5,353.8,4.8,0.5,10.5,36.26,1.9431,392.2173],
    [10097,1537388647,53.5719,-110.8872,783.4,167.1,353.9,4.6,0.3,10.33,36.73,1.9429,392.9155],
    [10098,1537388648,53.5726,-110.8873,783.1,168.7,353.9,4.4,0.1,9.9,36.63,1.9434,394.0715],
    [10099,1537388649,53.5733,-110.8873,782.9,167.7,354.2,4.0,-0.1,10.73,36.14,1.9441,392.9335],
    [10100,1537388650,53.5739,-110.8874,783.1,167.1,354.0,4.2,0.3,9.86,36.54,1.9422,393.7354],
    [10101,1537388651,53.5746,-110.8874,784.5,168.5,353.8,4.2,-1.1,10.24,36.88,1.9414,392.444],
    [10102,1537388652,53.5753,-110.8875,785.5,171.6,355.0,2.8,-3.0,10.88,36.23,1.9385,392.3201],
    [10103,1537388653,53.576,-110.8876,786.5,173.5,354.6,2.9,-1.9,10.16,36.39,1.9386,392.3201],
    [10104,1537388654,53.5767,-110.8876,787.0,175.0,354.5,2.7,-1.9,10.36,36.72,1.9397,392.3226],
    [10105,1537388655,53.5774,-110.8877,787.0,175.0,354.5,2.8,-2.4,10.14,36.19,1.9408,393.807],
    [10106,1537388656,53.578,-110.8878,786.4,174.4,355.0,2.5,-2.2,10.38,35.76,1.9389,393.294],
    [10107,1537388657,53.5787,-110.8878,785.9,173.9,354.6,3.1,-1.7,10.56,35.38,1.9401,391.6667],
    [10108,1537388658,53.5794,-110.8879,785.3,172.3,354.1,3.8,-1.4,10.33,35.66,1.9392,394.5634],
    [10109,1537388659,53.5801,-110.888,784.9,171.9,353.9,3.9,-1.5,10.48,34.87,1.9403,393.4063],
    [10110,1537388660,53.5808,-110.888,784.6,171.6,354.1,3.5,-1.6,10.46,35.03,1.94,393.704],
    [10111,1537388661,53.5814,-110.8881,784.5,171.5,354.2,3.1,-1.5,9.67,35.16,1.9401,392.0427],
    [10112,1537388662,53.5821,-110.8882,785.2,173.2,354.9,2.1,-1.6,10.25,35.18,1.9408,392.1274],
    [10113,1537388663,53.5828,-110.8883,786.0,175.0,354.7,1.9,-1.8,10.14,35.07,1.9401,394.052],
    [10114,1537388664,53.5835,-110.8883,785.2,175.3,354.7,1.5,-1.8,9.88,35.37,1.9413,394.3363],
    [10115,1537388665,53.5842,-110.8884,783.6,173.6,353.7,2.6,-1.8,10.34,35.3,1.9402,392.4793],
    [10116,1537388666,53.5848,-110.8885,782.5,172.4,352.5,3.5,-1.5,11.14,34.2,1.9405,394.2037],
    [10117,1537388667,53.5855,-110.8886,782.1,173.1,352.2,3.6,-0.7,10.38,34.88,1.9402,392.2238],
    [10118,1537388668,53.5862,-110.8887,782.0,174.0,352.2,3.6,-1.1,10.32,34.97,1.9414,393.4756],
    [10119,1537388669,53.5869,-110.8888,781.6,174.3,352.9,2.3,-1.5,10.3,34.9,1.9394,394.395],
    [10120,1537388670,53.5875,-110.8889,781.7,175.7,353.8,1.4,-2.7,10.51,35.3,1.9428,392.8274],
    [10121,1537388671,53.5882,-110.889,783.3,175.2,354.0,1.6,-3.2,10.48,34.73,1.9399,390.7907],
    [10122,1537388672,53.5889,-110.8891,785.5,177.6,353.7,2.0,-2.9,10.32,34.93,1.9408,390.7907],
    [10123,1537388673,53.5896,-110.8892,786.2,177.1,353.9,1.8,-2.5,10.61,34.18,1.9419,392.7481],
    [10124,1537388674,53.5902,-110.8893,785.7,176.9,353.0,2.6,-2.2,10.28,35.65,1.9415,393.9293],
    [10125,1537388675,53.5909,-110.8895,785.3,174.6,352.9,2.5,-2.5,10.21,35.04,1.9411,393.6218],
    [10126,1537388676,53.5916,-110.8896,784.7,173.7,353.3,1.9,-2.3,10.61,34.78,1.9426,391.6869],
    [10127,1537388677,53.5922,-110.8897,784.6,173.6,353.4,2.0,-2.3,11.07,34.74,1.9415,391.7855],
    [10128,1537388678,53.5929,-110.8898,784.8,174.9,352.7,2.9,-2.2,10.18,35.28,1.9408,392.8134],
    [10129,1537388679,53.5936,-110.8899,784.9,174.9,353.2,2.2,-2.0,10.35,35.73,1.9408,390.8031],
    [10130,1537388680,53.5943,-110.89,784.8,175.0,353.5,2.1,-2.4,10.9,35.4,1.9422,394.1917],
    [10131,1537388681,53.5949,-110.8901,785.3,176.3,353.4,2.1,-3.2,9.76,35.9,1.9423,393.0561],
    [10132,1537388682,53.5956,-110.8902,785.6,176.6,353.6,1.9,-2.6,9.68,35.76,1.9418,393.505],
    [10133,1537388683,53.5962,-110.8903,784.6,174.6,353.4,2.0,-2.4,10.21,36.38,1.9416,392.3101],
    [10134,1537388684,53.5969,-110.8904,783.5,174.5,354.0,1.3,-2.1,10.95,35.62,1.9411,392.3101],
    [10135,1537388685,53.5976,-110.8905,783.4,176.4,353.0,2.4,-1.6,9.88,36.03,1.9425,393.8188],
    [10136,1537388686,53.5983,-110.8906,782.9,176.9,352.8,2.6,-1.6,10.79,35.93,1.9406,392.7258],
    [10137,1537388687,53.599,-110.8907,782.1,176.1,352.7,2.7,-1.3,9.82,36.1,1.9412,392.7053],
    [10138,1537388688,53.5996,-110.8908,781.9,175.9,353.1,2.2,-1.7,9.83,36.0,1.94,394.0262],
    [10139,1537388689,53.6003,-110.8909,782.4,176.4,353.5,2.2,-2.1,10.35,36.66,1.9409,395.2121],
    [10140,1537388690,53.601,-110.891,783.0,174.8,353.1,2.9,-1.9,10.12,36.34,1.9406,392.7272],
    [10141,1537388691,53.6016,-110.8911,783.2,173.9,352.9,3.3,-2.4,10.3,36.23,1.9407,391.4111],
    [10142,1537388692,53.6023,-110.8912,783.0,174.0,353.1,3.1,-1.8,10.05,36.16,1.9411,391.5976],
    [10143,1537388693,53.6029,-110.8913,783.8,174.8,353.5,2.7,-0.8,10.67,35.75,1.9402,393.7725],
    [10144,1537388694,53.6036,-110.8914,784.9,174.9,353.7,2.5,-0.3,11.19,35.65,1.941,393.5132],
    [10145,1537388695,53.6043,-110.8915,784.9,173.9,353.0,3.1,-0.3,10.45,36.11,1.94,393.5909],
    [10146,1537388696,53.605,-110.8916,784.7,173.7,353.1,3.0,-0.8,11.09,35.84,1.9405,392.0437],
    [10147,1537388697,53.6057,-110.8916,785.3,174.4,353.2,2.7,-1.0,9.7,36.24,1.9405,392.2652],
    [10148,1537388698,53.6063,-110.8917,785.5,173.5,353.6,2.4,-1.0,11.18,36.05,1.9423,392.2922],
    [10149,1537388699,53.607,-110.8918,784.5,170.5,354.0,1.8,-1.9,10.22,36.55,1.9401,393.3452],
    [10150,1537388700,53.6077,-110.8919,782.8,166.8,354.1,2.0,-1.4,9.84,36.39,1.9412,393.3452],
    [10151,1537388701,53.6084,-110.892,782.0,164.1,352.9,3.3,-1.4,10.8,35.85,1.9403,393.1343],
    [10152,1537388702,53.609,-110.8921,782.3,162.0,353.6,2.3,-2.1,10.28,35.72,1.9393,393.7453],
    [10153,1537388703,53.6097,-110.8922,782.5,159.5,353.3,2.4,-2.5,10.73,35.53,1.9388,393.4985],
    [10154,1537388704,53.6104,-110.8923,782.8,158.9,352.9,2.9,-2.8,10.64,35.85,1.9383,393.4203],
    [10155,1537388705,53.6111,-110.8924,783.2,160.0,351.7,4.4,-3.3,10.12,35.92,1.9387,391.5281],
    [10156,1537388706,53.6117,-110.8925,783.4,162.3,351.5,4.5,-2.4,10.32,36.26,1.94,393.1653],
    [10157,1537388707,53.6124,-110.8926,783.5,163.0,351.6,4.8,-1.6,11.06,35.47,1.9396,393.0764],
    [10158,1537388708,53.6131,-110.8927,784.2,161.9,352.3,4.4,-1.1,10.83,35.35,1.9406,394.8282],
    [10159,1537388709,53.6138,-110.8928,784.1,160.1,353.7,3.5,-1.0,10.35,35.73,1.9389,392.9298],
    [10160,1537388710,53.6144,-110.8929,784.5,159.6,354.7,2.6,-2.1,10.29,35.79,1.94,392.9298],
    [10161,1537388711,53.6151,-110.8929,783.1,157.0,355.3,2.3,-1.9,10.05,35.66,1.9396,393.2522],
    [10162,1537388712,53.6158,-110.893,781.0,156.0,353.7,3.7,-1.5,10.1,35.88,1.938,392.6531],
    [10163,1537388713,53.6165,-110.8931,779.8,154.7,352.6,4.0,-1.9,10.38,35.53,1.9388,392.6531],
    [10164,1537388714,53.6172,-110.8932,779.7,152.7,352.0,3.6,-0.7,11.04,35.19,1.9466,392.1928],
    [10165,1537388715,53.6178,-110.8933,779.8,149.8,351.6,3.7,-1.4,9.92,36.08,1.9404,393.0286],
    [10166,1537388716,53.6185,-110.8934,779.1,148.9,352.2,3.1,-1.6,10.11,35.49,1.9391,393.4783],
    [10167,1537388717,53.6192,-110.8935,778.4,151.8,351.9,4.1,-1.5,10.57,35.64,1.9387,393.4783],
    [10168,1537388718,53.6199,-110.8936,778.7,155.1,352.1,4.2,-1.7,10.36,35.26,1.9381,393.3606],
    [10169,1537388719,53.6205,-110.8937,779.8,157.8,352.6,3.9,-1.5,10.22,35.3,1.9379,393.7733],
    [10170,1537388720,53.6212,-110.8938,780.7,157.7,352.8,4.1,-1.6,10.3,35.38,1.9381,393.7445],
    [10171,1537388721,53.6219,-110.8939,781.5,157.7,353.0,4.0,-1.3,10.09,35.23,1.9387,393.7187],
    [10172,1537388722,53.6226,-110.894,782.3,157.4,353.4,3.5,-0.8,10.67,34.6,1.9389,392.5419],
    [10173,1537388723,53.6232,-110.894,783.0,158.3,353.2,3.8,-1.0,10.57,35.19,1.9389,393.198],
    [10174,1537388724,53.6239,-110.8941,783.1,161.2,353.3,3.7,-1.1,10.37,35.21,1.9394,393.5853],
    [10175,1537388725,53.6246,-110.8942,783.0,163.0,353.6,3.3,-1.0,10.01,35.06,1.9394,392.6153],
    [10176,1537388726,53.6252,-110.8943,782.9,164.7,353.6,3.5,-0.8,10.35,35.5,1.939,393.8849],
    [10177,1537388727,53.6259,-110.8944,782.9,167.3,352.9,4.4,-0.6,10.01,35.27,1.9393,392.5352],
    [10178,1537388728,53.6266,-110.8944,783.0,169.0,352.7,4.5,-0.2,10.3,35.94,1.9395,393.4792],
    [10179,1537388729,53.6272,-110.8945,783.4,171.5,353.5,3.5,0.2,10.0,35.23,1.9406,394.157],
    [10180,1537388730,53.6279,-110.8946,784.0,171.0,353.7,3.3,0.1,10.15,35.31,1.9404,393.1185],
    [10181,1537388731,53.6286,-110.8947,783.6,170.6,352.9,4.1,0.2,10.38,35.28,1.9393,392.8116],
    [10182,1537388732,53.6293,-110.8947,782.5,169.2,352.5,4.7,-0.1,10.14,35.63,1.9396,393.5943],
    [10183,1537388733,53.6299,-110.8948,782.0,170.1,352.7,4.5,-0.2,11.09,34.98,1.9404,393.2412],
    [10184,1537388734,53.6306,-110.8949,782.3,172.7,353.1,4.1,0.0,10.2,35.61,1.9397,394.0512],
    [10185,1537388735,53.6313,-110.895,782.7,174.4,353.3,3.9,0.2,10.5,34.96,1.94,394.0512],
    [10186,1537388736,53.632,-110.895,782.5,173.5,353.2,4.1,-0.1,9.86,35.98,1.9389,392.0614],
    [10187,1537388737,53.6326,-110.8951,782.2,172.6,352.7,4.8,0.3,9.98,35.76,1.9408,392.2221],
    [10188,1537388738,53.6333,-110.8952,782.5,172.1,352.6,4.9,0.4,10.29,36.16,1.9406,393.0253],
    [10189,1537388739,53.634,-110.8953,782.6,170.5,353.0,4.4,0.7,10.8,35.47,1.9402,393.2125],
    [10190,1537388740,53.6346,-110.8953,782.6,169.6,353.5,4.1,0.3,10.65,35.32,1.9418,393.8041],
    [10191,1537388741,53.6353,-110.8954,782.3,169.3,353.3,4.3,0.4,9.86,36.0,1.941,393.5468],
    [10192,1537388742,53.636,-110.8955,782.6,169.6,353.7,3.9,0.6,10.25,36.4,1.9421,394.8126],
    [10193,1537388743,53.6367,-110.8955,783.0,170.0,353.7,3.8,0.4,10.47,36.17,1.9414,393.9675],
    [10194,1537388744,53.6373,-110.8956,783.1,170.3,353.4,4.2,0.5,10.26,36.2,1.9408,394.3476],
    [10195,1537388745,53.638,-110.8957,783.1,170.1,353.3,4.3,0.9,9.86,36.4,1.9399,393.2034],
    [10196,1537388746,53.6387,-110.8957,783.4,168.4,353.4,4.1,1.2,10.23,37.01,1.9404,393.4755],
    [10197,1537388747,53.6394,-110.8958,783.4,167.6,353.0,4.5,1.2,10.5,36.23,1.9408,394.3105],
    [10198,1537388748,53.64,-110.8959,783.0,166.0,353.0,4.6,1.2,10.16,37.05,1.9395,394.0742],
    [10199,1537388749,53.6407,-110.8959,782.7,165.7,353.0,4.7,1.7,10.81,36.34,1.9403,393.3134],
    [10200,1537388750,53.6414,-110.896,782.8,165.6,353.4,4.2,1.1,9.73,36.54,1.942,392.8222],
    [10201,1537388751,53.6421,-110.8961,782.7,164.7,353.7,4.0,1.3,10.86,36.1,1.9431,392.8222],
    [10202,1537388752,53.6428,-110.8961,782.7,163.7,353.3,4.4,1.5,10.25,36.36,1.94,392.3732],
    [10203,1537388753,53.6434,-110.8962,782.4,163.4,353.2,4.6,1.2,10.99,36.16,1.9386,393.0756],
    [10204,1537388754,53.6441,-110.8963,782.1,163.1,352.6,5.2,1.2,10.37,36.36,1.938,393.431],
    [10205,1537388755,53.6448,-110.8963,782.0,162.7,352.6,5.2,1.1,10.04,36.66,1.9366,392.4884],
    [10206,1537388756,53.6455,-110.8964,782.2,161.2,352.3,5.5,1.0,10.15,36.32,1.937,393.3785],
    [10207,1537388757,53.6461,-110.8965,782.2,158.5,352.4,5.0,2.0,10.33,36.05,1.9369,393.358],
    [10208,1537388758,53.6468,-110.8965,782.2,155.5,352.4,5.0,2.1,10.1,35.76,1.9372,393.0725],
    [10209,1537388759,53.6475,-110.8966,782.4,152.2,353.0,4.4,1.7,10.15,35.9,1.9387,392.5277],
    [10210,1537388760,53.6482,-110.8967,783.1,147.6,353.7,3.6,2.0,10.0,35.45,1.9425,393.7548],
    [10211,1537388761,53.6488,-110.8967,784.1,147.1,353.6,3.5,3.6,9.97,35.78,1.9427,393.1293],
    [10212,1537388762,53.6495,-110.8968,783.7,145.7,353.2,4.0,3.3,10.06,35.54,1.9408,392.3448],
    [10213,1537388763,53.6502,-110.8969,782.4,146.1,352.7,4.4,2.2,10.25,35.85,1.9416,393.6167],
    [10214,1537388764,53.6509,-110.897,781.9,148.5,353.2,3.3,2.6,9.83,36.28,1.9424,393.7148],
    [10215,1537388765,53.6515,-110.897,782.4,151.5,353.0,3.3,3.4,10.16,36.58,1.9417,393.5217],
    [10216,1537388766,53.6522,-110.8971,781.6,151.6,352.7,4.0,3.0,10.54,36.67,1.938,391.9597],
    [10217,1537388767,53.6529,-110.8972,780.0,149.0,351.7,5.3,2.7,9.67,36.64,1.938,393.128],
    [10218,1537388768,53.6536,-110.8973,779.1,146.5,352.6,4.7,2.9,10.08,36.6,1.9386,393.128],
    [10219,1537388769,53.6543,-110.8974,779.2,145.7,352.9,4.6,3.5,10.43,36.04,1.937,391.2447],
    [10220,1537388770,53.655,-110.8974,779.8,145.0,353.3,4.3,3.3,10.01,35.99,1.9389,393.212],
    [10221,1537388771,53.6557,-110.8975,781.2,144.1,353.6,3.9,3.4,10.67,35.53,1.9403,391.7958],
    [10222,1537388772,53.6564,-110.8976,783.4,144.5,353.1,4.5,2.7,10.87,35.19,1.941,397.4641],
    [10223,1537388773,53.657,-110.8976,785.4,142.8,352.8,4.6,1.2,10.19,35.98,1.9377,392.2326],
    [10224,1537388774,53.6577,-110.8977,786.1,142.3,353.2,4.1,1.3,9.61,35.82,1.9372,392.6661],
    [10225,1537388775,53.6584,-110.8978,785.4,145.2,353.0,4.2,2.8,10.9,35.55,1.9365,393.2722],
    [10226,1537388776,53.6591,-110.8978,784.9,147.2,352.8,4.3,3.4,10.05,35.88,1.9358,392.8946],
    [10227,1537388777,53.6598,-110.8979,785.4,149.4,351.8,5.2,2.9,10.82,35.29,1.9361,393.2141],
    [10228,1537388778,53.6605,-110.898,787.8,150.8,351.6,4.8,2.6,10.12,35.15,1.9367,392.6495],
    [10229,1537388779,53.6612,-110.8981,790.1,150.5,352.6,3.9,2.6,10.28,35.39,1.9377,392.3904],
    [10230,1537388780,53.6618,-110.8982,791.0,149.6,352.2,4.5,1.6,9.92,34.8,1.9384,393.2429],
    [10231,1537388781,53.6625,-110.8983,790.9,148.3,352.4,4.6,1.1,10.11,35.57,1.9397,393.1032],
    [10232,1537388782,53.6632,-110.8984,792.3,149.9,351.9,5.2,-0.3,10.69,34.84,1.9404,393.8105],
    [10233,1537388783,53.6639,-110.8984,794.5,150.1,352.9,4.1,-0.7,10.25,34.79,1.9416,391.8922],
    [10234,1537388784,53.6646,-110.8985,796.3,150.0,352.1,5.2,-0.2,10.48,35.37,1.9446,391.8922],
    [10235,1537388785,53.6653,-110.8986,796.9,150.6,352.2,5.3,-0.1,10.48,35.62,1.9428,394.2021],
    [10236,1537388786,53.6659,-110.8987,797.7,154.4,352.9,5.0,-0.2,10.7,34.86,1.9432,393.7763],
    [10237,1537388787,53.6666,-110.8987,799.6,157.6,352.8,5.2,0.2,10.5,35.37,1.9448,393.453],
    [10238,1537388788,53.6673,-110.8988,800.7,160.8,353.8,4.1,0.1,10.12,36.44,1.9444,393.5964],
    [10239,1537388789,53.668,-110.8989,800.7,160.7,354.4,3.3,0.0,10.35,35.59,1.9441,392.1871],
    [10240,1537388790,53.6687,-110.8989,800.4,159.4,353.6,4.7,-0.3,10.29,36.27,1.9432,393.7911],
    [10241,1537388791,53.6693,-110.899,802.0,161.0,351.9,6.3,-1.1,10.54,35.99,1.9446,392.5072],
    [10242,1537388792,53.67,-110.8991,805.2,165.1,352.1,5.3,-1.1,10.23,36.85,1.9447,393.1937],
    [10243,1537388793,53.6707,-110.8991,807.8,168.0,351.1,5.7,0.1,10.1,36.67,1.9432,393.1937],
    [10244,1537388794,53.6713,-110.8992,809.3,170.3,350.9,5.1,0.2,9.82,36.61,1.9426,393.0284],
    [10245,1537388795,53.672,-110.8993,810.6,171.6,351.2,4.6,0.0,9.98,37.3,1.943,393.0284],
    [10246,1537388796,53.6727,-110.8995,812.2,172.3,350.2,5.7,-0.5,10.57,36.58,1.9454,392.8706],
    [10247,1537388797,53.6734,-110.8996,813.9,171.3,351.4,4.2,-0.7,10.58,36.51,1.9457,392.8862],
    [10248,1537388798,53.674,-110.8997,815.6,170.3,351.4,4.5,-0.7,10.26,37.24,1.9462,392.847],
    [10249,1537388799,53.6747,-110.8998,815.6,167.6,351.8,4.7,-1.1,10.34,37.61,1.9454,392.5322],
    [10250,1537388800,53.6754,-110.8999,814.4,163.1,351.8,5.0,-1.2,10.49,37.86,1.9449,393.6674],
    [10251,1537388801,53.676,-110.8999,813.5,160.7,352.1,4.8,-0.9,10.5,37.78,1.9435,392.4531],
    [10252,1537388802,53.6767,-110.9,813.7,159.7,352.2,4.9,-1.5,10.36,38.08,1.9434,393.5629],
    [10253,1537388803,53.6774,-110.9001,815.0,160.9,352.8,4.4,-1.7,9.67,37.92,1.9423,392.4444],
    [10254,1537388804,53.678,-110.9002,814.8,159.8,352.7,4.7,-1.4,10.23,38.64,1.9428,393.6024],
    [10255,1537388805,53.6787,-110.9003,813.5,156.5,352.6,5.4,-1.3,10.54,37.94,1.9418,393.1803],
    [10256,1537388806,53.6794,-110.9003,812.3,153.7,352.1,6.0,-1.2,10.79,37.29,1.9403,393.2229],
    [10257,1537388807,53.6801,-110.9004,811.6,149.9,352.2,5.9,-0.6,10.79,37.43,1.9401,393.4085],
    [10258,1537388808,53.6807,-110.9005,811.5,149.5,352.2,6.0,-0.4,10.33,37.8,1.9417,393.0902],
    [10259,1537388809,53.6814,-110.9005,812.2,151.2,352.4,6.0,-0.6,10.38,37.44,1.9404,393.37],
    [10260,1537388810,53.6821,-110.9006,812.2,152.3,352.7,5.8,-0.5,10.37,37.48,1.942,393.4625],
    [10261,1537388811,53.6828,-110.9006,811.6,152.7,353.2,5.3,-0.1,11.06,36.61,1.9398,393.6916],
    [10262,1537388812,53.6835,-110.9007,811.7,154.5,353.1,5.5,-0.1,10.63,36.71,1.9422,394.2503],
    [10263,1537388813,53.6841,-110.9008,812.2,157.7,352.8,6.0,-0.4,10.81,36.65,1.9436,393.9368],
    [10264,1537388814,53.6848,-110.9008,812.1,159.0,353.3,5.5,-0.2,10.27,36.53,1.9433,394.1551],
    [10265,1537388815,53.6855,-110.9009,811.9,158.6,354.2,4.7,-0.2,10.73,36.36,1.9438,394.2775],
    [10266,1537388816,53.6862,-110.9009,811.7,157.3,354.8,4.2,-0.3,10.84,36.86,1.9451,394.2066],
    [10267,1537388817,53.6868,-110.9009,811.7,159.2,354.9,4.0,-0.3,10.54,37.37,1.9452,392.7342],
    [10268,1537388818,53.6875,-110.901,812.2,164.1,354.7,4.2,0.5,10.32,38.21,1.9437,392.2926],
    [10269,1537388819,53.6882,-110.901,813.4,166.5,353.7,4.8,1.8,9.98,37.91,1.9434,393.6102],
    [10270,1537388820,53.6888,-110.9011,814.5,167.9,354.4,3.9,1.4,10.37,37.72,1.9423,392.7895],
    [10271,1537388821,53.6895,-110.9011,813.6,166.6,354.8,3.8,0.8,10.15,37.85,1.9417,391.1151],
    [10272,1537388822,53.6902,-110.9012,812.6,166.3,354.5,4.1,0.6,10.11,38.31,1.9417,393.515],
    [10273,1537388823,53.6909,-110.9012,811.9,166.9,355.0,3.6,0.6,10.08,38.37,1.9412,391.3654],
    [10274,1537388824,53.6915,-110.9013,812.4,167.4,354.4,3.8,1.3,10.28,38.08,1.941,393.1499],
    [10275,1537388825,53.6922,-110.9013,813.0,168.0,354.8,3.0,1.2,10.78,37.59,1.9439,393.1499],
    [10276,1537388826,53.6929,-110.9014,813.2,167.2,354.3,3.7,-1.3,9.79,37.93,1.9433,393.4784],
    [10277,1537388827,53.6936,-110.9014,814.2,168.3,354.3,3.4,-1.5,10.2,38.97,1.9446,394.1742],
    [10278,1537388828,53.6942,-110.9015,815.4,168.4,353.2,4.7,-1.0,9.66,38.21,1.9444,393.1544],
    [10279,1537388829,53.6949,-110.9016,815.6,167.5,352.3,5.2,-1.0,10.55,38.28,1.945,392.5476],
    [10280,1537388830,53.6956,-110.9016,815.4,166.1,353.8,3.8,-2.2,10.26,38.69,1.9451,393.3316],
    [10281,1537388831,53.6962,-110.9017,815.1,165.1,353.3,4.5,-2.3,10.28,38.4,1.9445,392.3108],
    [10282,1537388832,53.6969,-110.9018,814.7,164.7,353.6,4.5,-2.3,10.68,38.63,1.9433,393.645],
    [10283,1537388833,53.6976,-110.9018,814.8,165.9,353.5,4.7,-2.6,9.79,38.81,1.9454,392.7465],
    [10284,1537388834,53.6983,-110.9019,815.1,167.7,353.8,4.6,-2.8,10.03,38.91,1.9468,393.5141],
    [10285,1537388835,53.699,-110.902,815.2,168.5,353.5,4.9,-2.6,10.34,38.72,1.9441,393.5141],
    [10286,1537388836,53.6996,-110.902,814.9,168.9,353.4,4.9,-2.2,10.95,38.61,1.9436,393.3377],
    [10287,1537388837,53.7003,-110.9021,814.5,169.5,353.4,4.9,-2.3,9.66,39.07,1.9442,393.1094],
    [10288,1537388838,53.701,-110.9021,814.1,169.1,353.3,5.1,-2.6,10.14,39.25,1.9452,393.1094],
    [10289,1537388839,53.7016,-110.9022,814.1,168.8,353.1,5.2,-2.4,10.15,39.09,1.9437,393.4953],
    [10290,1537388840,53.7023,-110.9023,814.5,168.7,352.9,5.6,-2.2,10.52,38.55,1.9428,393.5843],
    [10291,1537388841,53.703,-110.9023,815.2,170.2,353.2,5.3,-1.9,10.27,38.77,1.9437,392.4972],
    [10292,1537388842,53.7037,-110.9024,815.0,172.0,352.9,5.8,-1.4,10.34,39.64,1.9457,392.4972],
    [10293,1537388843,53.7044,-110.9024,814.4,172.3,352.8,5.9,-1.1,9.96,39.57,1.9462,392.8986],
    [10294,1537388844,53.705,-110.9025,814.0,172.0,353.8,4.8,-1.5,10.31,38.63,1.9468,393.856],
    [10295,1537388845,53.7057,-110.9026,813.9,171.1,353.9,4.8,-1.6,10.47,39.08,1.9463,393.5051],
    [10296,1537388846,53.7064,-110.9026,814.5,171.6,354.3,4.0,-1.1,10.58,38.99,1.9476,393.4522],
    [10297,1537388847,53.707,-110.9027,814.8,170.1,354.8,3.5,-1.5,10.13,39.14,1.9466,392.7625],
    [10298,1537388848,53.7077,-110.9027,814.8,168.2,354.5,3.9,-1.4,10.13,39.68,1.948,392.1393],
    [10299,1537388849,53.7084,-110.9028,814.2,164.5,354.1,4.3,-1.6,10.65,40.12,1.9457,394.4947],
    [10300,1537388850,53.7091,-110.9028,813.7,162.6,353.9,4.3,-1.8,10.46,39.9,1.9459,392.2761],
    [10301,1537388851,53.7097,-110.9029,813.9,162.9,353.8,4.3,-1.5,10.81,39.58,1.9481,393.3212],
    [10302,1537388852,53.7104,-110.9029,814.1,163.1,353.8,4.2,-0.9,9.84,40.2,1.9474,393.3212],
    [10303,1537388853,53.7111,-110.903,813.6,162.6,353.8,4.1,-1.2,10.38,39.93,1.9456,387.7424],
    [10304,1537388854,53.7118,-110.9031,813.6,162.5,353.0,5.2,-1.2,10.26,40.43,1.9448,392.954],
    [10305,1537388855,53.7125,-110.9031,813.7,164.0,352.6,5.5,-1.2,10.09,40.79,1.9464,393.0314],
    [10306,1537388856,53.7131,-110.9032,813.6,168.0,354.4,3.5,-1.4,10.03,40.66,1.9475,393.0944],
    [10307,1537388857,53.7138,-110.9033,813.9,170.9,355.0,3.2,-0.9,9.39,40.58,1.9471,391.7457],
    [10308,1537388858,53.7145,-110.9033,814.1,175.2,354.5,4.0,-1.0,9.88,40.69,1.9468,393.531],
    [10309,1537388859,53.7152,-110.9034,814.4,177.2,354.1,4.5,-1.1,9.97,41.02,1.9441,393.3794],
    [10310,1537388860,53.7158,-110.9034,813.7,179.5,353.8,4.7,-1.1,10.36,40.41,1.9447,392.5993],
    [10311,1537388861,53.7165,-110.9035,813.1,181.5,353.5,4.9,-0.8,10.15,40.88,1.9439,392.918],
    [10312,1537388862,53.7172,-110.9035,813.4,184.4,352.7,5.6,-0.4,10.09,41.3,1.943,393.0745],
    [10313,1537388863,53.7179,-110.9036,813.7,187.7,353.0,5.2,0.1,9.85,40.99,1.9447,393.3789],
    [10314,1537388864,53.7185,-110.9037,813.7,188.7,353.0,5.1,0.4,10.64,39.81,1.9434,393.2231],
    [10315,1537388865,53.7192,-110.9037,813.5,189.5,353.2,4.9,0.2,9.93,40.27,1.9441,393.7736],
    [10316,1537388866,53.7198,-110.9038,813.2,189.2,353.6,4.7,-0.1,10.05,40.04,1.9454,392.9263],
    [10317,1537388867,53.7206,-110.9038,813.4,189.7,353.7,4.7,-0.3,10.22,39.81,1.9445,392.4381],
    [10318,1537388868,53.7212,-110.9039,813.9,190.9,354.1,4.4,-1.3,10.48,39.85,1.9475,392.4381],
    [10319,1537388869,53.7219,-110.9039,815.1,193.2,354.0,4.2,-1.4,10.05,39.88,1.9514,393.4723],
    [10320,1537388870,53.7226,-110.904,815.6,194.8,354.6,3.0,-0.7,9.96,40.09,1.9521,393.6416],
    [10321,1537388871,53.7233,-110.9041,815.6,195.6,354.0,3.6,-0.9,10.25,39.59,1.9495,392.8341],
    [10322,1537388872,53.7239,-110.9041,814.8,195.8,353.1,4.7,-2.0,9.83,40.39,1.9493,392.8341],
    [10323,1537388873,53.7246,-110.9042,814.4,195.4,352.8,4.9,-2.9,10.07,40.1,1.9483,393.3138],
    [10324,1537388874,53.7253,-110.9043,815.8,197.8,353.3,4.0,-2.7,9.77,39.93,1.9463,393.3138],
    [10325,1537388875,53.726,-110.9044,817.7,199.7,354.5,2.5,-2.3,10.07,39.56,1.948,393.2764],
    [10326,1537388876,53.7267,-110.9044,818.1,200.1,354.0,3.5,-1.9,9.93,39.91,1.9484,394.1124],
    [10327,1537388877,53.7273,-110.9045,817.6,199.6,352.4,5.7,-2.8,9.96,39.7,1.9445,394.3762],
    [10328,1537388878,53.728,-110.9046,816.5,198.5,353.4,4.4,-2.5,9.96,39.45,1.9434,395.0518],
    [10329,1537388879,53.7287,-110.9046,815.0,197.0,353.3,4.5,-2.1,9.74,39.62,1.9445,393.5042],
    [10330,1537388880,53.7294,-110.9047,814.2,196.2,353.3,4.0,-2.5,9.99,39.01,1.9445,392.962],
    [10331,1537388881,53.7301,-110.9048,813.9,195.9,353.4,3.8,-1.9,9.94,38.93,1.9442,393.0178],
    [10332,1537388882,53.7307,-110.9049,814.9,196.9,352.2,5.1,-1.8,10.75,38.4,1.9428,392.1153],
    [10333,1537388883,53.7314,-110.905,815.3,197.3,352.5,4.9,-1.6,10.26,38.08,1.9423,393.8031],
    [10334,1537388884,53.7321,-110.905,814.9,196.9,352.5,5.2,-1.3,9.69,38.52,1.9424,393.8031],
    [10335,1537388885,53.7327,-110.9051,814.3,195.3,352.4,5.5,-1.1,9.98,38.75,1.9428,393.7361],
    [10336,1537388886,53.7334,-110.9052,814.1,194.2,352.7,5.4,-0.9,9.98,38.38,1.9436,393.2278],
    [10337,1537388887,53.7341,-110.9052,814.1,192.8,353.1,5.2,-0.9,10.01,38.86,1.9434,394.6224],
    [10338,1537388888,53.7348,-110.9053,814.1,190.8,353.5,5.0,-1.1,10.07,38.85,1.9423,393.3833],
    [10339,1537388889,53.7355,-110.9053,814.1,189.1,353.9,4.9,-1.3,10.09,38.73,1.9439,393.5844],
    [10340,1537388890,53.7361,-110.9054,814.2,189.2,353.8,5.2,-1.9,9.97,38.32,1.9461,392.9512],
    [10341,1537388891,53.7368,-110.9054,814.1,189.1,354.3,4.5,-1.9,9.3,38.14,1.9458,392.438],
    [10342,1537388892,53.7375,-110.9055,813.4,188.4,354.5,4.7,-1.6,9.89,38.56,1.946,393.3873],
    [10343,1537388893,53.7382,-110.9055,813.3,188.3,353.2,6.0,-1.8,10.11,38.03,1.9449,393.9734],
    [10344,1537388894,53.7388,-110.9056,813.9,188.9,353.5,5.6,-1.2,10.18,38.78,1.9464,394.2475],
    [10345,1537388895,53.7395,-110.9056,813.9,188.9,353.7,5.2,0.0,10.13,37.99,1.9446,394.0326],
    [10346,1537388896,53.7402,-110.9057,814.2,189.2,354.5,4.2,0.5,9.72,38.46,1.946,393.2834],
    [10347,1537388897,53.7408,-110.9057,814.7,189.7,353.9,5.0,0.2,9.48,38.34,1.9456,393.0962],
    [10348,1537388898,53.7415,-110.9058,815.1,190.1,353.0,5.5,0.5,9.75,38.83,1.9469,393.7178],
    [10349,1537388899,53.7421,-110.9058,814.7,189.7,353.0,5.2,1.1,10.11,39.07,1.9455,393.2941],
    [10350,1537388900,53.7428,-110.9059,813.2,188.9,352.8,5.4,0.6,9.48,38.75,1.9448,395.0048],
    [10351,1537388901,53.7435,-110.9059,812.7,188.7,353.7,4.5,-0.2,10.74,38.67,1.9455,395.0048],
    [10352,1537388902,53.7442,-110.906,812.4,189.3,355.1,3.5,-0.9,9.63,38.89,1.9461,393.1373],
    [10353,1537388903,53.7449,-110.906,812.7,190.6,355.6,3.3,-1.6,9.56,38.95,1.9471,393.1373],
    [10354,1537388904,53.7455,-110.9061,812.8,191.7,354.9,4.5,-1.3,10.54,38.71,1.9458,395.2567],
    [10355,1537388905,53.7462,-110.9061,812.5,192.1,354.2,5.1,-1.0,10.22,38.8,1.9459,395.2567],
    [10356,1537388906,53.7469,-110.9061,812.8,192.7,354.6,4.4,-0.4,10.05,39.14,1.9462,392.7879],
    [10357,1537388907,53.7475,-110.9062,812.9,191.7,354.0,5.0,0.6,10.0,38.85,1.9451,393.8734],
    [10358,1537388908,53.7482,-110.9062,812.4,191.1,353.1,6.0,1.1,9.57,38.99,1.9442,393.466],
    [10359,1537388909,53.7488,-110.9063,811.8,189.6,352.9,6.2,1.3,10.04,38.63,1.9444,393.466],
    [10360,1537388910,53.7495,-110.9063,811.7,188.6,353.6,5.2,1.1,9.87,38.98,1.9454,393.6626],
    [10361,1537388911,53.7502,-110.9064,812.2,188.9,354.8,4.1,0.5,10.47,38.73,1.9455,394.2254],
    [10362,1537388912,53.7509,-110.9064,813.1,191.0,354.3,4.6,1.6,9.89,39.22,1.946,391.9134],
    [10363,1537388913,53.7515,-110.9064,813.8,192.9,354.2,4.5,1.2,9.92,39.82,1.9473,393.4942],
    [10364,1537388914,53.7522,-110.9065,814.1,194.6,354.2,4.5,0.1,9.46,39.41,1.9456,394.0417],
    [10365,1537388915,53.7529,-110.9065,814.8,198.0,354.6,3.9,-1.3,9.9,39.46,1.9458,394.2575],
    [10366,1537388916,53.7535,-110.9066,815.7,200.7,353.4,5.7,0.0,9.68,39.36,1.9447,394.3284],
    [10367,1537388917,53.7542,-110.9066,816.6,204.1,353.9,4.8,-0.8,9.39,39.53,1.9451,393.3857],
    [10368,1537388918,53.7549,-110.9067,816.0,203.8,356.8,2.2,-0.8,9.79,39.7,1.9448,393.8093],
    [10369,1537388919,53.7555,-110.9067,815.6,203.6,356.0,3.8,0.4,9.86,39.66,1.9462,394.2737],
    [10370,1537388920,53.7562,-110.9067,815.0,203.0,355.5,4.5,-0.2,9.36,40.01,1.947,394.0275],
    [10371,1537388921,53.7569,-110.9067,814.6,202.6,355.6,4.6,-0.4,9.43,39.88,1.9478,392.5449],
    [10372,1537388922,53.7576,-110.9068,814.3,202.3,354.0,6.3,0.1,10.15,39.35,1.9486,394.2965],
    [10373,1537388923,53.7583,-110.9068,813.0,200.0,354.1,5.6,0.4,9.65,40.3,1.9482,393.9579],
    [10374,1537388924,53.7589,-110.9068,812.1,198.9,354.3,5.3,-0.2,9.71,40.08,1.9469,393.7934],
    [10375,1537388925,53.7596,-110.9069,812.5,197.5,353.9,6.0,-1.5,9.9,40.74,1.9469,392.7109],
    [10376,1537388926,53.7603,-110.9069,812.8,193.2,353.6,6.1,-1.4,9.7,40.04,1.9476,394.4379],
    [10377,1537388927,53.761,-110.9069,811.7,186.1,354.9,4.4,-0.8,10.03,39.78,1.9483,394.0725],
    [10378,1537388928,53.7617,-110.907,810.9,173.7,354.4,4.9,-0.9,9.73,40.08,1.948,394.0503],
    [10379,1537388929,53.7624,-110.907,811.4,168.0,353.8,5.3,-1.0,9.88,40.02,1.9467,393.1252],
    [10380,1537388930,53.763,-110.9071,811.4,164.4,353.4,5.4,-0.8,10.15,39.45,1.9469,394.3838],
    [10381,1537388931,53.7637,-110.9071,811.3,163.3,353.1,5.3,-0.3,10.0,39.77,1.9489,392.7236],
    [10382,1537388932,53.7644,-110.9072,812.4,165.4,353.5,4.3,-0.6,9.93,39.98,1.9478,392.668],
    [10383,1537388933,53.7651,-110.9072,813.4,166.7,354.5,3.0,-0.3,9.56,39.97,1.9465,393.2498],
    [10384,1537388934,53.7657,-110.9073,813.7,167.6,354.9,2.4,-0.3,9.9,39.71,1.9471,393.5336],
    [10385,1537388935,53.7664,-110.9074,814.3,171.1,354.1,3.6,-1.1,10.08,39.75,1.9471,393.6833],
    [10386,1537388936,53.7671,-110.9074,814.6,174.2,352.3,5.5,-0.3,9.29,40.26,1.948,393.6884],
    [10387,1537388937,53.7678,-110.9075,813.9,178.2,352.5,4.9,0.0,9.14,40.14,1.9466,392.9613],
    [10388,1537388938,53.7685,-110.9076,813.1,181.0,353.1,4.3,0.6,10.59,39.88,1.9471,392.8964],
    [10389,1537388939,53.7691,-110.9077,813.1,184.5,353.1,4.3,0.4,9.68,40.06,1.9468,394.0602],
    [10390,1537388940,53.7698,-110.9077,813.1,188.8,353.2,4.1,0.2,10.02,40.12,1.946,393.1146],
    [10391,1537388941,53.7705,-110.9078,812.8,190.8,352.7,4.7,0.1,9.36,39.87,1.9466,392.991],
    [10392,1537388942,53.7712,-110.9079,812.2,195.2,352.7,4.7,-0.1,10.24,39.83,1.9483,393.3961],
    [10393,1537388943,53.7718,-110.9079,811.8,196.8,352.4,5.4,-0.4,9.88,40.19,1.9481,394.3167],
    [10394,1537388944,53.7725,-110.908,812.4,198.4,352.5,5.2,-0.1,9.85,39.99,1.9478,395.122],
    [10395,1537388945,53.7732,-110.9081,813.5,199.2,353.6,4.2,-0.5,9.45,39.96,1.9473,393.209],
    [10396,1537388946,53.7739,-110.9082,814.4,198.5,354.1,3.3,-0.2,9.91,39.54,1.9479,394.6636],
    [10397,1537388947,53.7745,-110.9082,814.3,194.6,355.5,1.8,0.7,9.85,39.73,1.947,394.6636],
    [10398,1537388948,53.7752,-110.9083,815.3,194.3,354.3,2.9,-0.2,9.61,39.91,1.9487,393.6256],
    [10399,1537388949,53.7759,-110.9084,815.7,193.6,355.6,1.1,-0.4,9.78,39.85,1.9493,391.6561],
    [10400,1537388950,53.7766,-110.9084,814.7,193.7,354.6,2.3,-0.3,9.8,40.75,1.9481,393.7397],
    [10401,1537388951,53.7772,-110.9085,813.5,192.6,353.5,3.3,-1.0,9.57,40.03,1.9472,393.2892],
    [10402,1537388952,53.7779,-110.9086,813.4,191.4,353.3,3.2,-0.1,9.66,39.97,1.9464,393.958],
    [10403,1537388953,53.7785,-110.9087,813.6,190.9,352.5,3.7,0.3,9.94,39.9,1.9488,393.958],
    [10404,1537388954,53.7793,-110.9088,813.2,191.2,353.0,3.1,-0.3,9.68,40.01,1.9477,394.3279],
    [10405,1537388955,53.78,-110.9089,812.6,190.9,353.0,3.4,-1.3,9.27,39.74,1.9486,394.0265],
    [10406,1537388956,53.7806,-110.909,812.8,193.1,353.2,3.2,-1.2,9.76,39.91,1.9482,393.8931],
    [10407,1537388957,53.7813,-110.909,813.0,194.0,352.9,3.7,-0.7,9.74,40.15,1.9454,393.4816],
    [10408,1537388958,53.782,-110.9091,813.0,195.0,352.9,3.8,-0.7,9.64,39.57,1.9466,393.8712],
    [10409,1537388959,53.7827,-110.9092,812.6,195.6,352.9,4.0,-0.7,10.51,39.18,1.9476,393.0051],
    [10410,1537388960,53.7833,-110.9093,812.6,200.1,353.0,4.0,-0.6,10.47,39.05,1.9467,393.9108],
    [10411,1537388961,53.784,-110.9094,812.8,204.8,352.9,4.5,-1.2,9.9,39.57,1.9466,393.9108],
    [10412,1537388962,53.7847,-110.9095,813.5,208.5,353.3,4.3,-1.4,9.57,39.68,1.9446,393.6355],
    [10413,1537388963,53.7854,-110.9095,814.2,213.2,353.4,4.3,-0.5,10.04,39.22,1.9459,393.5783],
    [10414,1537388964,53.786,-110.9096,813.5,214.2,353.1,4.8,-0.4,9.87,38.79,1.9461,393.3168],
    [10415,1537388965,53.7867,-110.9097,812.7,213.8,353.3,4.8,-1.1,9.7,38.52,1.945,393.805],
    [10416,1537388966,53.7874,-110.9097,812.9,212.6,353.6,4.6,-1.1,9.55,38.73,1.9454,393.805],
    [10417,1537388967,53.7881,-110.9098,813.7,210.7,354.1,4.1,-0.9,9.89,38.63,1.9453,394.3864],
    [10418,1537388968,53.7887,-110.9098,813.4,207.0,354.0,4.0,-0.6,9.96,38.8,1.945,394.2589],
    [10419,1537388969,53.7894,-110.9099,813.5,203.5,354.9,3.4,-0.3,9.35,38.46,1.9456,395.1397],
    [10420,1537388970,53.7901,-110.9099,813.5,198.3,353.3,5.5,-0.3,9.83,38.67,1.946,392.7555],
    [10421,1537388971,53.7908,-110.91,813.2,194.2,353.7,5.1,-0.8,9.86,38.24,1.9461,393.3298],
    [10422,1537388972,53.7914,-110.91,813.4,190.9,354.6,4.0,-1.3,10.12,37.91,1.9462,392.7346],
    [10423,1537388973,53.7921,-110.9101,813.6,189.3,356.0,2.9,-1.0,9.88,38.78,1.9483,392.253],
    [10424,1537388974,53.7928,-110.9101,813.6,187.3,355.3,4.2,-0.5,10.13,37.92,1.9468,394.2816],
    [10425,1537388975,53.7935,-110.9101,813.0,187.8,354.9,4.5,-0.5,9.78,38.03,1.9443,393.7573],
    [10426,1537388976,53.7941,-110.9102,812.4,189.8,354.8,4.4,-0.5,9.54,37.94,1.9443,394.5235],
    [10427,1537388977,53.7948,-110.9102,812.1,193.5,354.2,4.9,-0.4,9.64,37.98,1.9453,394.0077],
    [10428,1537388978,53.7955,-110.9103,812.0,194.3,353.8,4.9,-0.3,10.02,37.49,1.9446,394.2679],
    [10429,1537388979,53.7962,-110.9103,812.0,195.0,353.6,5.1,-0.1,10.3,37.15,1.9424,393.6452],
    [10430,1537388980,53.7968,-110.9104,812.2,196.1,353.4,5.2,0.2,10.39,36.87,1.9438,394.1256],
    [10431,1537388981,53.7975,-110.9104,812.4,198.1,353.4,5.3,0.2,9.79,37.53,1.9447,393.6916],
    [10432,1537388982,53.7982,-110.9105,812.5,198.5,353.3,5.6,-0.2,9.17,36.96,1.9438,394.8734],
    [10433,1537388983,53.7989,-110.9105,812.5,197.5,353.2,5.8,-0.4,10.12,37.0,1.9437,393.9927],
    [10434,1537388984,53.7996,-110.9106,812.7,195.1,353.3,5.8,-0.3,9.15,36.74,1.9449,394.0016],
    [10435,1537388985,53.8002,-110.9106,813.0,193.2,353.4,5.8,-0.4,9.4,37.1,1.9456,394.0888],
    [10436,1537388986,53.8009,-110.9107,813.4,191.5,354.1,5.0,-0.5,9.37,37.11,1.9482,394.9198],
    [10437,1537388987,53.8016,-110.9107,813.8,189.4,353.9,5.4,-0.4,9.79,36.83,1.9483,395.5351],
    [10438,1537388988,53.8022,-110.9107,814.0,186.1,353.9,5.4,-0.4,9.57,36.82,1.9459,395.5351],
    [10439,1537388989,53.8029,-110.9108,813.5,183.6,353.6,5.8,-0.1,9.86,37.51,1.9439,393.8722],
    [10440,1537388990,53.8036,-110.9108,812.8,180.4,353.4,6.1,-0.1,10.18,36.75,1.9437,393.4931],
    [10441,1537388991,53.8043,-110.9109,812.8,179.5,353.7,5.6,0.0,9.34,36.81,1.9451,393.7446],
    [10442,1537388992,53.8049,-110.9109,813.2,180.0,353.5,5.9,-0.1,9.74,36.78,1.945,394.5649],
    [10443,1537388993,53.8056,-110.9109,813.4,180.1,353.9,5.6,-0.2,9.83,37.31,1.9448,394.5649],
    [10444,1537388994,53.8063,-110.911,813.2,178.9,354.1,5.8,0.2,9.66,36.9,1.9457,388.5919],
    [10445,1537388995,53.807,-110.911,813.2,174.8,354.3,5.7,0.2,9.63,36.58,1.9484,395.5469],
    [10446,1537388996,53.8076,-110.911,813.0,172.1,355.0,5.0,0.2,10.6,36.5,1.9542,393.5754],
    [10447,1537388997,53.8083,-110.911,812.7,167.8,354.7,5.5,0.3,9.72,37.16,1.9523,392.9202],
    [10448,1537388998,53.809,-110.9111,813.1,161.6,354.7,5.2,0.2,9.23,37.5,1.9509,392.2319],
    [10449,1537388999,53.8097,-110.9111,813.9,158.8,356.5,3.1,0.9,9.61,37.9,1.9506,394.1826],
    [10450,1537389000,53.8104,-110.9111,814.4,155.4,357.0,2.7,1.5,9.71,38.21,1.9535,392.121],
    [10451,1537389001,53.811,-110.9111,814.2,153.2,355.8,4.2,1.5,10.13,38.94,1.959,391.9382],
    [10452,1537389002,53.8117,-110.9112,812.9,149.2,354.8,5.2,1.4,10.21,38.49,1.9792,394.2323],
    [10453,1537389003,53.8124,-110.9112,811.8,147.7,354.6,4.7,1.7,9.6,39.27,1.9898,393.7881],
    [10454,1537389004,53.8131,-110.9112,812.1,149.4,355.8,3.0,0.9,9.35,39.53,1.9959,392.2479],
    [10455,1537389005,53.8138,-110.9113,813.2,152.2,355.3,3.8,0.2,10.28,39.43,1.9659,394.3463],
    [10456,1537389006,53.8145,-110.9113,812.9,153.9,354.0,5.1,0.2,10.2,39.18,1.9548,394.8707],
    [10457,1537389007,53.8152,-110.9113,812.4,155.1,355.2,3.5,0.2,10.44,39.8,1.9581,393.1006],
    [10458,1537389008,53.8159,-110.9114,812.8,156.7,355.4,3.3,0.2,9.97,39.83,1.9568,393.9407],
    [10459,1537389009,53.8165,-110.9114,812.8,158.1,355.1,3.5,0.1,9.56,40.01,1.9538,395.2037],
    [10460,1537389010,53.8172,-110.9115,812.5,157.8,355.0,3.3,0.1,9.86,40.37,1.9526,394.6736],
    [10461,1537389011,53.8179,-110.9115,812.2,158.5,354.4,3.7,0.3,10.21,39.85,1.9517,394.0032],
    [10462,1537389012,53.8186,-110.9116,812.3,160.0,353.8,4.2,0.2,9.68,40.11,1.9527,394.3416],
    [10463,1537389013,53.8193,-110.9117,813.1,163.0,353.6,4.1,0.4,9.79,40.28,1.9526,394.7005],
    [10464,1537389014,53.8199,-110.9117,813.9,166.2,353.5,3.9,0.8,9.85,40.28,1.9521,395.0801],
    [10465,1537389015,53.8206,-110.9118,815.2,170.5,353.2,3.8,0.7,9.86,40.66,1.9502,394.421],
    [10466,1537389016,53.8213,-110.9119,817.4,175.4,353.6,3.1,1.4,9.85,40.08,1.9528,394.8657],
    [10467,1537389017,53.822,-110.912,818.0,178.0,353.2,3.5,1.6,9.62,40.34,1.9513,394.8657],
    [10468,1537389018,53.8227,-110.912,817.7,179.4,353.5,3.4,1.4,9.82,40.64,1.9514,393.7451],
    [10469,1537389019,53.8233,-110.9121,817.3,180.4,353.7,3.5,1.3,9.86,40.23,1.9515,393.7887],
    [10470,1537389020,53.824,-110.9122,817.6,181.5,353.7,3.6,1.5,9.38,40.22,1.9512,394.4297],
    [10471,1537389021,53.8247,-110.9122,818.8,183.8,353.7,3.9,2.3,9.36,40.29,1.9499,394.8185],
    [10472,1537389022,53.8254,-110.9123,819.9,186.9,353.4,4.6,2.0,9.73,40.23,1.951,394.7951],
    [10473,1537389023,53.826,-110.9124,821.4,190.1,354.3,3.4,1.0,9.56,40.38,1.9518,394.2627],
    [10474,1537389024,53.8267,-110.9124,822.7,193.5,356.2,1.7,0.9,9.67,40.34,1.951,394.2608],
    [10475,1537389025,53.8274,-110.9125,824.3,196.3,354.8,3.2,0.9,9.93,40.29,1.9518,393.5975],
    [10476,1537389026,53.8281,-110.9125,825.7,199.7,354.7,3.2,0.6,9.84,40.71,1.9516,394.2463],
    [10477,1537389027,53.8287,-110.9126,826.2,200.6,353.9,4.1,0.4,9.85,40.24,1.9509,393.6656],
    [10478,1537389028,53.8294,-110.9126,826.6,201.5,352.3,5.7,0.2,9.63,40.71,1.9499,392.9417],
    [10479,1537389029,53.8301,-110.9127,827.2,204.2,352.2,5.3,0.8,9.49,40.71,1.9493,393.1388],
    [10480,1537389030,53.8308,-110.9128,829.2,207.5,353.5,3.6,0.9,9.97,40.12,1.95,393.1022],
    [10481,1537389031,53.8314,-110.9129,831.1,212.4,353.4,3.8,1.4,10.27,40.32,1.9508,393.0702],
    [10482,1537389032,53.8321,-110.9129,832.1,216.1,352.5,4.6,1.6,9.71,40.65,1.9515,393.849],
    [10483,1537389033,53.8328,-110.913,833.0,221.0,353.0,4.1,1.3,9.89,40.26,1.9507,391.8955],
    [10484,1537389034,53.8335,-110.9131,834.5,225.2,353.2,4.1,0.8,9.51,40.78,1.9491,392.4272],
    [10485,1537389035,53.8341,-110.9132,837.1,229.9,354.0,3.1,0.5,9.7,41.18,1.9505,392.5271],
    [10486,1537389036,53.8348,-110.9132,839.6,234.5,354.7,2.7,-0.1,9.74,40.26,1.9472,393.4188],
    [10487,1537389037,53.8355,-110.9133,840.5,236.5,353.8,4.1,-0.9,9.19,40.53,1.9475,392.199],
    [10488,1537389038,53.8362,-110.9134,840.6,237.6,353.7,4.3,-1.3,9.8,40.54,1.9504,393.3397],
    [10489,1537389039,53.8369,-110.9134,840.9,237.8,354.0,4.0,-0.9,9.71,39.77,1.9488,393.3397],
    [10490,1537389040,53.8376,-110.9135,841.8,239.8,354.2,3.7,-0.9,9.71,39.98,1.9473,393.6893],
    [10491,1537389041,53.8382,-110.9135,842.1,239.9,354.5,3.4,-0.1,9.86,40.29,1.947,393.5956],
    [10492,1537389042,53.8389,-110.9136,841.5,237.4,354.0,4.0,0.1,9.63,39.49,1.949,394.0449],
    [10493,1537389043,53.8396,-110.9137,841.6,236.6,353.6,4.3,0.5,10.41,39.0,1.9491,393.5025],
    [10494,1537389044,53.8403,-110.9137,842.0,236.0,353.8,4.0,0.5,10.01,38.87,1.9488,394.3595],
    [10495,1537389045,53.8409,-110.9138,842.0,234.3,353.7,4.1,0.1,9.33,39.34,1.9488,394.3595],
    [10496,1537389046,53.8416,-110.9138,841.7,233.7,353.4,4.6,-0.1,9.67,39.35,1.949,393.7973],
    [10497,1537389047,53.8423,-110.9139,841.9,233.9,353.1,4.9,-0.4,10.36,38.97,1.9483,394.6891],
    [10498,1537389048,53.8429,-110.914,842.5,234.5,353.3,4.8,-0.2,10.11,39.36,1.9489,394.6563],
    [10499,1537389049,53.8436,-110.914,842.8,234.8,353.5,4.5,-0.3,9.84,39.67,1.9496,394.8804],
    [10500,1537389050,53.8443,-110.9141,842.7,234.7,354.4,3.6,-0.4,9.8,39.6,1.9488,392.5751],
    [10501,1537389051,53.845,-110.9141,842.7,235.8,354.3,3.8,-0.5,9.87,39.94,1.9471,394.4887],
    [10502,1537389052,53.8456,-110.9142,843.1,236.1,354.3,3.9,-0.6,9.16,39.38,1.9426,394.6649],
    [10503,1537389053,53.8463,-110.9143,843.4,236.4,354.3,3.9,-0.4,9.61,39.62,1.9406,393.5359],
    [10504,1537389054,53.847,-110.9143,843.4,237.4,354.0,4.3,-0.2,9.85,38.93,1.9393,393.6649],
    [10505,1537389055,53.8476,-110.9144,843.0,238.5,354.0,4.2,-0.2,9.42,38.15,1.9402,394.2147],
    [10506,1537389056,53.8483,-110.9144,842.3,239.7,353.9,4.3,-0.4,9.3,37.42,1.9394,392.8148],
    [10507,1537389057,53.849,-110.9145,841.5,241.6,354.0,4.2,-0.2,9.74,36.55,1.9406,393.7814],
    [10508,1537389058,53.8497,-110.9145,840.4,241.4,353.8,4.4,-0.2,9.57,36.49,1.9395,394.6738],
    [10509,1537389059,53.8503,-110.9146,839.2,243.2,353.8,4.4,0.1,9.75,36.03,1.9432,394.6738],
    [10510,1537389060,53.851,-110.9146,838.2,243.2,354.0,4.1,0.3,9.79,35.58,1.9436,394.6815],
    [10511,1537389061,53.8517,-110.9147,837.0,242.1,354.2,3.9,0.5,9.54,35.12,1.9427,394.8208],
    [10512,1537389062,53.8524,-110.9148,835.5,239.5,354.1,4.1,0.7,9.12,35.43,1.9423,394.3577],
    [10513,1537389063,53.853,-110.9148,833.5,237.4,353.9,4.4,0.7,9.5,35.61,1.9433,395.1123],
    [10514,1537389064,53.8537,-110.9149,831.5,237.5,353.8,4.5,0.8,10.24,35.17,1.9411,395.2561],
    [10515,1537389065,53.8544,-110.9149,830.3,237.9,353.8,4.4,0.9,9.5,35.91,1.942,392.3331],
    [10516,1537389066,53.8551,-110.915,828.8,241.4,353.9,4.3,0.5,9.23,35.57,1.9407,394.6355],
    [10517,1537389067,53.8558,-110.915,827.0,244.7,353.7,4.5,0.6,9.09,35.44,1.939,395.6627],
    [10518,1537389068,53.8565,-110.9151,825.7,251.4,353.6,4.7,0.6,9.65,35.97,1.9393,393.9957],
    [10519,1537389069,53.8572,-110.9152,824.6,255.6,353.9,4.2,0.7,9.34,35.04,1.9384,392.7356],
    [10520,1537389070,53.8579,-110.9152,823.2,263.1,353.9,4.4,0.9,9.33,34.55,1.9403,394.117],
    [10521,1537389071,53.8586,-110.9153,821.4,268.4,353.9,4.4,0.9,9.18,34.15,1.9391,394.3402],
    [10522,1537389072,53.8593,-110.9153,819.9,277.8,354.0,4.3,0.8,10.21,33.55,1.9401,393.7096],
    [10523,1537389073,53.86,-110.9154,818.7,284.8,354.4,3.8,0.9,9.65,33.6,1.9409,394.2076],
    [10524,1537389074,53.8606,-110.9155,817.5,290.9,354.3,4.0,0.9,9.59,34.74,1.9468,394.5565],
    [10525,1537389075,53.8613,-110.9155,816.2,290.2,354.6,3.7,0.3,9.52,34.22,1.9505,395.2893],
    [10526,1537389076,53.862,-110.9156,814.5,287.5,354.4,3.9,0.3,9.52,34.54,1.9537,395.1546],
    [10527,1537389077,53.8628,-110.9156,812.6,284.7,354.5,3.6,0.6,9.73,35.56,1.9512,394.2016],
    [10528,1537389078,53.8635,-110.9157,811.2,281.0,354.9,3.2,0.8,9.51,35.73,1.9502,394.6082],
    [10529,1537389079,53.8642,-110.9157,810.2,277.5,354.4,3.6,0.6,9.59,36.64,1.9505,394.1902],
    [10530,1537389080,53.8649,-110.9158,808.8,271.2,354.4,3.3,0.7,9.58,36.79,1.9502,394.8857],
    [10531,1537389081,53.8656,-110.9159,806.8,260.6,354.8,2.8,0.7,10.02,36.65,1.9492,392.579],
    [10532,1537389082,53.8663,-110.9159,804.7,252.4,354.6,2.8,0.7,9.58,37.63,1.9477,393.5132],
    [10533,1537389083,53.867,-110.916,803.0,242.5,354.5,2.9,1.0,10.11,36.94,1.9488,394.2904],
    [10534,1537389084,53.8677,-110.9161,801.8,241.5,354.0,3.4,1.2,9.52,37.63,1.9486,394.3097],
    [10535,1537389085,53.8684,-110.9162,800.7,248.7,353.8,3.4,1.1,10.1,37.57,1.9469,395.0182],
    [10536,1537389086,53.8691,-110.9162,799.2,251.6,354.1,3.1,0.9,9.66,38.28,1.9481,394.5554],
    [10537,1537389087,53.8698,-110.9163,797.7,243.6,354.0,3.3,1.1,9.71,38.15,1.9496,394.8669],
    [10538,1537389088,53.8705,-110.9164,796.3,234.3,353.9,3.3,1.3,8.92,37.67,1.9494,392.8754],
    [10539,1537389089,53.8712,-110.9165,794.7,221.8,353.9,3.4,1.3,9.83,37.77,1.9492,395.1945],
    [10540,1537389090,53.872,-110.9165,793.0,212.0,354.1,3.2,1.2,9.54,37.93,1.9492,394.8634],
    [10541,1537389091,53.8727,-110.9166,791.3,207.8,354.0,3.4,1.3,9.38,38.02,1.9486,393.9894],
    [10542,1537389092,53.8734,-110.9167,789.7,204.5,354.0,3.5,1.5,9.41,38.18,1.9495,394.7675],
    [10543,1537389093,53.8741,-110.9167,788.4,203.3,354.0,3.5,1.7,9.12,38.15,1.9492,393.3362],
    [10544,1537389094,53.8748,-110.9168,787.2,204.2,354.1,3.4,2.0,9.61,38.12,1.9491,394.0355],
    [10545,1537389095,53.8756,-110.9169,786.1,207.1,354.2,3.3,2.0,9.69,38.23,1.9484,394.6016],
    [10546,1537389096,53.8763,-110.917,784.8,209.8,354.6,2.8,2.1,9.76,38.54,1.9482,393.079],
    [10547,1537389097,53.877,-110.917,783.9,214.9,354.5,3.1,2.0,9.74,39.19,1.9483,393.9052],
    [10548,1537389098,53.8777,-110.9171,783.3,217.1,353.9,3.8,2.1,9.58,38.42,1.9507,392.9588],
    [10549,1537389099,53.8784,-110.9172,783.1,217.2,353.7,3.8,1.8,10.41,37.99,1.9494,394.4748],
    [10550,1537389100,53.8792,-110.9172,782.8,212.9,354.3,3.2,1.4,10.16,37.88,1.9487,393.5748],
    [10551,1537389101,53.8799,-110.9173,782.3,203.1,354.3,3.3,1.6,9.75,38.88,1.9495,393.1427],
    [10552,1537389102,53.8806,-110.9174,782.1,195.4,354.3,3.3,1.6,9.57,38.57,1.9489,393.5683],
    [10553,1537389103,53.8813,-110.9174,782.1,193.1,353.9,3.9,1.7,10.21,37.99,1.9506,394.6742],
    [10554,1537389104,53.882,-110.9175,782.0,192.0,354.2,3.5,2.0,9.82,38.55,1.9486,394.6742],
    [10555,1537389105,53.8828,-110.9176,782.1,192.1,354.3,3.6,2.0,10.18,38.14,1.9491,394.2933],
    [10556,1537389106,53.8835,-110.9176,782.1,192.1,353.9,4.2,2.2,9.72,39.34,1.9489,394.4846],
    [10557,1537389107,53.8842,-110.9177,781.9,191.2,353.9,4.2,2.3,9.45,38.93,1.9504,395.058],
    [10558,1537389108,53.8849,-110.9178,781.8,191.9,353.9,4.3,1.9,10.36,38.37,1.9505,393.3788],
    [10559,1537389109,53.8856,-110.9178,781.6,191.9,354.2,4.1,1.8,9.76,39.29,1.9502,394.5423],
    [10560,1537389110,53.8864,-110.9179,781.7,193.7,354.1,4.3,2.1,9.49,39.21,1.9523,394.5743],
    [10561,1537389111,53.8871,-110.9179,781.9,198.9,353.9,4.6,2.2,9.76,38.78,1.9513,392.4583],
    [10562,1537389112,53.8878,-110.918,781.9,199.9,354.3,4.2,1.7,9.31,38.89,1.9492,393.9104],
    [10563,1537389113,53.8885,-110.9181,782.1,197.5,354.2,4.4,0.8,9.66,38.94,1.9481,394.7687],
    [10564,1537389114,53.8892,-110.9181,782.2,191.9,354.6,4.0,0.5,10.12,39.01,1.9498,394.3427],
    [10565,1537389115,53.8899,-110.9182,782.2,188.0,354.8,3.7,0.9,9.83,38.8,1.9492,394.3427],
    [10566,1537389116,53.8906,-110.9182,782.0,184.9,354.9,3.6,1.4,9.81,38.81,1.9498,393.1305],
    [10567,1537389117,53.8914,-110.9183,781.7,184.4,354.6,3.7,2.0,10.36,38.95,1.9495,392.9893],
    [10568,1537389118,53.8921,-110.9183,781.3,182.3,354.6,3.6,2.5,10.04,38.78,1.951,393.5862],
    [10569,1537389119,53.8928,-110.9184,781.1,180.0,354.3,4.2,2.8,9.85,38.97,1.9503,394.1938],
    [10570,1537389120,53.8935,-110.9184,781.5,179.6,353.7,5.2,3.3,9.84,39.04,1.9516,395.5722],
    [10571,1537389121,53.8942,-110.9185,782.5,179.1,354.3,4.6,2.0,9.63,39.97,1.9527,395.5722],
    [10572,1537389122,53.8949,-110.9185,783.7,178.8,355.8,3.1,0.9,10.57,39.16,1.9492,394.3398],
    [10573,1537389123,53.8957,-110.9186,784.5,178.2,355.8,3.2,0.9,9.51,40.1,1.9471,393.1502],
    [10574,1537389124,53.8964,-110.9186,784.5,177.6,355.2,4.2,0.5,9.54,40.05,1.9447,392.8986],
    [10575,1537389125,53.8971,-110.9186,783.7,174.7,354.3,4.7,-0.9,9.71,40.11,1.9436,392.6766],
    [10576,1537389126,53.8978,-110.9187,783.8,172.8,354.3,4.5,-1.6,10.02,39.44,1.9422,392.5694],
    [10577,1537389127,53.8985,-110.9188,784.8,172.8,353.9,4.8,-1.8,9.87,39.11,1.9409,394.2987],
    [10578,1537389128,53.8993,-110.9188,784.6,169.9,354.4,4.3,-2.1,9.91,38.46,1.9409,393.5135],
    [10579,1537389129,53.9,-110.9189,783.4,167.1,355.0,3.7,-1.9,9.43,37.91,1.9412,391.4604],
    [10580,1537389130,53.9007,-110.9189,782.7,163.3,355.4,3.4,-1.6,10.31,36.85,1.9389,394.0019],
    [10581,1537389131,53.9014,-110.919,782.7,161.7,355.5,3.3,-1.9,10.2,36.15,1.9397,393.4111],
    [10582,1537389132,53.9021,-110.919,782.7,160.4,355.3,3.5,-2.2,10.14,35.91,1.9411,392.9116],
    [10583,1537389133,53.9028,-110.9191,782.7,158.7,355.4,3.3,-2.1,9.89,35.37,1.94,393.596],
    [10584,1537389134,53.9036,-110.9191,782.4,157.7,355.3,3.3,-1.6,9.96,34.83,1.9399,393.822],
    [10585,1537389135,53.9043,-110.9192,781.6,155.9,355.5,2.9,-1.0,10.01,34.16,1.94,393.6306],
    [10586,1537389136,53.905,-110.9192,780.8,154.6,355.2,3.0,-0.6,10.05,33.86,1.9415,394.9456],
    [10587,1537389137,53.9057,-110.9193,780.7,152.6,354.8,3.5,-0.5,10.17,33.86,1.9423,393.4631],
    [10588,1537389138,53.9064,-110.9193,781.2,152.2,354.2,4.3,-0.9,10.35,34.07,1.9425,391.549],
    [10589,1537389139,53.9071,-110.9194,781.9,151.9,354.2,4.2,-0.7,10.37,33.91,1.9416,391.4551],
    [10590,1537389140,53.9078,-110.9194,781.7,150.7,354.6,3.8,-0.2,10.21,33.19,1.9411,396.0631],
    [10591,1537389141,53.9085,-110.9195,781.2,151.2,354.7,3.7,-0.2,10.79,32.29,1.9409,393.154],
    [10592,1537389142,53.9092,-110.9196,781.3,151.3,354.5,4.0,0.1,10.23,33.29,1.9416,394.1083],
    [10593,1537389143,53.9099,-110.9196,781.6,150.5,354.2,4.2,0.6,10.44,32.3,1.9453,394.3255],
    [10594,1537389144,53.9106,-110.9197,781.3,149.2,354.0,4.5,0.8,10.17,33.13,1.9423,394.886],
    [10595,1537389145,53.9113,-110.9197,780.9,147.9,353.9,4.7,0.7,9.46,32.56,1.9447,395.8543],
    [10596,1537389146,53.912,-110.9198,780.8,147.8,354.1,4.5,0.7,10.21,32.65,1.9448,394.2717],
    [10597,1537389147,53.9127,-110.9198,780.8,146.1,354.2,4.5,0.7,10.64,32.28,1.9461,393.8035],
    [10598,1537389148,53.9134,-110.9199,781.1,144.2,354.3,4.6,0.3,10.4,32.49,1.9434,394.0348],
    [10599,1537389149,53.9141,-110.9199,781.6,142.2,354.3,4.8,0.3,10.29,33.88,1.9447,394.0662],
    [10600,1537389150,53.9148,-110.92,782.3,141.0,354.3,4.9,0.6,9.61,33.21,1.9446,394.9272],
    [10601,1537389151,53.9155,-110.92,782.3,139.3,354.8,4.3,1.0,10.04,33.75,1.9436,394.2275],
    [10602,1537389152,53.9162,-110.92,781.6,137.6,354.6,4.7,1.1,10.24,34.09,1.9431,392.8121],
    [10603,1537389153,53.9169,-110.9201,781.0,136.0,354.4,5.0,0.8,10.09,33.87,1.9432,394.5684],
    [10604,1537389154,53.9176,-110.9201,780.8,134.1,354.5,5.0,0.2,10.95,33.53,1.9445,393.7187],
    [10605,1537389155,53.9183,-110.9202,781.9,134.6,354.6,5.0,-0.2,10.12,34.08,1.9454,393.7368],
    [10606,1537389156,53.919,-110.9202,783.3,134.2,354.7,5.0,0.4,9.97,34.31,1.9469,392.9805],
    [10607,1537389157,53.9197,-110.9202,783.2,133.2,355.0,4.5,0.6,10.24,35.13,1.9451,393.6133],
    [10608,1537389158,53.9204,-110.9203,783.0,132.0,354.3,5.3,0.6,10.34,34.2,1.9439,393.2134],
    [10609,1537389159,53.9211,-110.9203,782.7,130.8,354.1,5.2,0.6,9.97,34.86,1.9428,395.3416],
    [10610,1537389160,53.9218,-110.9203,782.2,128.3,354.4,4.8,0.6,10.07,34.57,1.9432,394.0893],
    [10611,1537389161,53.9225,-110.9204,781.9,126.6,354.3,4.9,-0.1,10.16,34.75,1.9438,393.968],
    [10612,1537389162,53.9232,-110.9204,781.8,124.8,354.3,4.8,-0.1,10.17,34.86,1.9426,392.8705],
    [10613,1537389163,53.9239,-110.9205,781.8,123.8,354.9,4.2,0.3,10.56,34.23,1.9463,394.448],
    [10614,1537389164,53.9246,-110.9205,781.9,121.9,354.6,4.3,0.7,10.37,34.96,1.9449,392.4994],
    [10615,1537389165,53.9253,-110.9206,781.9,121.0,354.4,4.7,0.9,10.42,34.52,1.9442,393.6093],
    [10616,1537389166,53.9259,-110.9206,782.1,121.1,354.3,4.8,1.2,9.88,34.67,1.945,393.8805],
    [10617,1537389167,53.9266,-110.9206,782.8,121.8,353.7,5.4,1.6,10.35,34.91,1.9436,394.2166],
    [10618,1537389168,53.9273,-110.9207,784.1,123.1,353.4,5.5,1.2,10.8,34.59,1.9462,392.1786],
    [10619,1537389169,53.928,-110.9207,785.3,123.3,353.1,6.1,0.7,10.26,34.55,1.9464,394.2806],
    [10620,1537389170,53.9287,-110.9208,786.8,123.8,353.4,5.8,0.9,10.11,35.16,1.948,394.6996],
    [10621,1537389171,53.9294,-110.9208,788.3,124.6,354.3,4.8,0.7,10.42,34.46,1.9473,393.1985],
    [10622,1537389172,53.93,-110.9209,789.5,124.8,354.7,4.6,0.4,10.27,35.58,1.9468,392.677],
    [10623,1537389173,53.9307,-110.9209,790.7,125.7,354.5,5.0,0.7,10.24,36.1,1.9462,394.3637],
    [10624,1537389174,53.9314,-110.9209,792.7,127.7,353.9,5.6,1.4,10.09,35.93,1.949,394.0082],
    [10625,1537389175,53.9321,-110.921,795.1,129.1,354.5,4.8,0.9,9.76,36.53,1.9466,392.1479],
    [10626,1537389176,53.9328,-110.921,796.7,130.7,353.8,5.9,0.8,10.01,36.37,1.9483,394.1768],
    [10627,1537389177,53.9335,-110.921,797.0,131.0,353.6,6.0,0.9,10.18,36.93,1.9471,393.3575],
    [10628,1537389178,53.9342,-110.9211,797.7,131.7,353.8,5.8,0.8,9.96,36.66,1.946,394.7063],
    [10629,1537389179,53.9348,-110.9211,798.8,132.7,354.2,5.3,1.0,10.26,37.35,1.947,394.7063],
    [10630,1537389180,53.9355,-110.9211,800.6,134.6,354.7,4.5,1.8,10.11,36.65,1.9478,394.0634],
    [10631,1537389181,53.9362,-110.9212,802.3,137.3,356.9,2.1,0.2,10.05,37.08,1.9471,393.7929],
    [10632,1537389182,53.9369,-110.9212,802.8,137.8,357.1,1.7,-1.0,10.18,37.09,1.9477,393.2105],
    [10633,1537389183,53.9375,-110.9212,803.6,139.5,356.8,1.7,-0.7,10.34,37.38,1.9473,394.3985],
    [10634,1537389184,53.9382,-110.9213,804.9,141.8,355.7,2.3,-0.7,9.85,37.11,1.9468,393.6001],
    [10635,1537389185,53.9389,-110.9213,806.1,145.2,355.4,2.3,-1.2,10.34,37.27,1.9475,394.2839],
    [10636,1537389186,53.9396,-110.9214,806.6,145.6,355.1,2.3,-1.3,10.61,36.48,1.9473,394.1327],
    [10637,1537389187,53.9402,-110.9215,806.8,146.7,355.2,2.0,-0.8,10.14,37.3,1.9471,393.4352],
    [10638,1537389188,53.9409,-110.9215,807.4,147.5,353.4,3.7,-0.8,10.54,36.74,1.9476,392.8184],
    [10639,1537389189,53.9416,-110.9216,808.9,147.8,351.9,4.3,0.2,10.18,37.06,1.9462,392.542],
    [10640,1537389190,53.9422,-110.9217,810.3,149.3,352.4,3.1,0.9,10.53,37.0,1.9469,393.3592],
    [10641,1537389191,53.9429,-110.9218,811.5,149.5,352.1,3.5,1.0,9.65,37.4,1.9482,392.204],
    [10642,1537389192,53.9435,-110.9219,811.2,149.3,351.3,4.7,0.4,10.64,37.13,1.9465,393.6948],
    [10643,1537389193,53.9442,-110.922,810.5,147.6,352.1,4.0,-0.3,10.75,36.77,1.9463,393.4566],
    [10644,1537389194,53.9449,-110.9221,810.4,146.4,353.8,2.6,-0.5,10.38,37.33,1.9461,392.0975],
    [10645,1537389195,53.9455,-110.9222,811.0,146.0,353.9,2.9,0.2,9.95,37.56,1.9471,393.4313],
    [10646,1537389196,53.9462,-110.9223,810.4,144.7,354.2,2.7,0.7,10.15,37.87,1.9456,393.5299],
    [10647,1537389197,53.9468,-110.9223,808.8,142.4,354.4,2.5,0.5,10.15,37.64,1.946,393.1331],
    [10648,1537389198,53.9475,-110.9224,808.0,140.3,353.9,2.9,0.6,10.08,37.6,1.9466,393.8882],
    [10649,1537389199,53.9482,-110.9225,808.3,140.0,353.3,3.4,0.8,10.0,37.79,1.9463,392.6783],
    [10650,1537389200,53.9489,-110.9226,808.5,139.5,352.4,4.1,0.4,10.14,38.47,1.9469,394.1141],
    [10651,1537389201,53.9495,-110.9227,809.3,139.3,354.0,2.0,-0.8,10.23,37.69,1.9468,392.7749],
    [10652,1537389202,53.9502,-110.9228,809.8,139.8,355.4,0.7,-0.6,10.74,37.44,1.9464,393.3877],
    [10653,1537389203,53.9509,-110.9228,809.7,139.7,356.1,0.5,-0.8,9.98,37.91,1.9473,393.054],
    [10654,1537389204,53.9515,-110.9229,809.5,138.5,355.2,2.0,-0.7,10.53,36.99,1.9459,393.4615],
    [10655,1537389205,53.9522,-110.923,809.6,138.6,354.9,1.8,-0.7,10.12,37.98,1.946,393.8468],
    [10656,1537389206,53.9529,-110.923,810.2,137.2,356.2,0.1,-1.5,10.47,37.14,1.9453,393.913],
    [10657,1537389207,53.9535,-110.9231,811.4,138.4,354.3,2.2,-1.4,10.34,36.92,1.9462,393.5],
    [10658,1537389208,53.9542,-110.9232,812.1,138.1,353.6,2.4,-1.0,9.93,37.22,1.9468,393.6255],
    [10659,1537389209,53.9549,-110.9233,812.1,138.1,354.1,2.2,-0.8,9.65,37.4,1.9459,393.3676],
    [10660,1537389210,53.9555,-110.9234,812.4,138.4,352.9,3.6,-1.0,10.32,36.89,1.9455,394.0487],
    [10661,1537389211,53.9562,-110.9235,812.8,139.8,353.3,3.7,-0.8,9.83,37.45,1.9455,394.3068],
    [10662,1537389212,53.9569,-110.9235,813.1,140.1,352.6,4.9,-0.2,10.05,37.1,1.947,393.3088],
    [10663,1537389213,53.9576,-110.9236,812.5,139.4,353.1,4.4,-0.6,10.2,37.46,1.9479,394.2601],
    [10664,1537389214,53.9583,-110.9237,810.9,138.9,354.3,3.1,-0.6,10.41,36.84,1.946,394.0558],
    [10665,1537389215,53.9589,-110.9238,810.5,138.5,354.5,2.7,-1.0,10.62,36.7,1.9469,394.0403],
    [10666,1537389216,53.9596,-110.9238,810.9,138.9,354.0,3.0,-0.8,10.18,37.08,1.9468,394.1007],
    [10667,1537389217,53.9603,-110.9239,811.2,138.2,354.8,1.8,-0.6,10.64,36.89,1.948,393.9226],
    [10668,1537389218,53.961,-110.924,809.9,136.9,354.4,2.2,-0.9,9.76,36.9,1.9477,393.5259],
    [10669,1537389219,53.9617,-110.9241,808.5,134.5,354.0,2.6,-1.2,9.96,37.21,1.9484,393.6176],
    [10670,1537389220,53.9623,-110.9242,808.1,133.1,353.4,3.3,-0.6,10.39,37.38,1.9482,392.7803],
    [10671,1537389221,53.963,-110.9242,808.2,133.2,353.0,3.4,0.0,10.53,36.83,1.9489,393.8517],
    [10672,1537389222,53.9637,-110.9243,808.3,132.3,353.9,2.4,0.2,10.12,37.49,1.9485,392.7697],
    [10673,1537389223,53.9644,-110.9244,808.4,132.4,353.5,3.3,0.3,10.55,37.27,1.9491,393.0191],
    [10674,1537389224,53.9651,-110.9245,808.9,132.9,352.8,4.0,1.0,10.22,37.65,1.9491,394.0044],
    [10675,1537389225,53.9657,-110.9246,809.5,133.5,354.0,2.9,0.6,9.59,37.76,1.9491,391.9746],
    [10676,1537389226,53.9664,-110.9246,810.9,135.9,356.2,1.0,1.1,10.48,37.46,1.9508,391.9746],
    [10677,1537389227,53.9671,-110.9247,811.4,136.4,355.2,3.8,0.2,10.32,37.83,1.9512,392.8307],
    [10678,1537389228,53.9678,-110.9247,810.7,135.7,353.9,5.9,-0.9,9.67,38.33,1.9512,393.9362],
    [10679,1537389229,53.9685,-110.9248,811.6,136.6,355.2,4.1,-1.6,10.4,38.29,1.9509,393.8731],
    [10680,1537389230,53.9691,-110.9248,813.6,138.6,357.0,1.8,-2.3,10.05,38.79,1.9505,394.4526],
    [10681,1537389231,53.9698,-110.9248,814.8,139.8,355.3,3.5,-1.3,10.12,39.04,1.9515,393.408],
    [10682,1537389232,53.9705,-110.9249,815.0,140.7,354.1,4.3,-1.2,10.2,39.5,1.9513,393.408],
    [10683,1537389233,53.9712,-110.9249,815.3,141.3,353.9,4.2,-1.3,10.01,38.93,1.95,393.2786],
    [10684,1537389234,53.9719,-110.925,815.6,141.6,353.1,4.9,-1.0,9.8,38.94,1.9489,393.5675],
    [10685,1537389235,53.9726,-110.9251,815.7,141.7,353.3,4.8,-0.8,10.06,39.39,1.9502,394.1222],
    [10686,1537389236,53.9732,-110.9251,815.1,141.1,353.4,4.9,-0.7,10.49,38.73,1.9502,393.1987],
    [10687,1537389237,53.9739,-110.9252,813.5,140.3,353.6,4.9,-0.8,10.32,39.93,1.9502,393.6947],
    [10688,1537389238,53.9746,-110.9253,812.3,139.3,353.5,5.3,-1.0,10.16,39.1,1.9494,393.5752],
    [10689,1537389239,53.9753,-110.9253,811.8,138.8,353.7,5.2,-0.9,10.16,39.14,1.9484,393.6938],
    [10690,1537389240,53.976,-110.9254,811.5,139.5,353.7,5.3,-0.6,10.2,39.92,1.9487,393.4301],
    [10691,1537389241,53.9767,-110.9254,811.5,139.5,353.6,5.5,-0.4,9.76,39.01,1.9508,393.9942],
    [10692,1537389242,53.9773,-110.9254,811.4,139.7,353.7,5.6,-0.9,11.01,38.55,1.9497,393.4459],
    [10693,1537389243,53.978,-110.9255,812.3,141.3,353.9,5.4,-2.0,10.9,38.5,1.9514,393.2592],
    [10694,1537389244,53.9787,-110.9255,813.9,142.9,354.5,4.7,-0.5,10.19,39.47,1.9516,392.904],
    [10695,1537389245,53.9794,-110.9256,814.2,144.2,353.9,5.2,1.2,9.97,39.82,1.9513,393.5325],
    [10696,1537389246,53.9801,-110.9256,813.0,143.0,352.9,6.2,1.0,10.19,40.16,1.9511,391.5573],
    [10697,1537389247,53.9807,-110.9257,811.6,141.6,352.5,6.3,-0.1,10.27,39.44,1.9512,393.2223],
    [10698,1537389248,53.9814,-110.9257,810.8,140.8,353.3,5.4,-0.7,10.28,40.22,1.9505,392.9686],
    [10699,1537389249,53.9821,-110.9258,810.6,139.6,353.2,5.8,-0.1,10.26,39.85,1.9503,393.8874],
    [10700,1537389250,53.9828,-110.9258,811.2,139.1,353.7,5.1,0.1,10.13,39.73,1.9511,393.5373],
    [10701,1537389251,53.9835,-110.9259,811.1,138.6,354.6,4.5,0.2,10.22,39.88,1.9503,392.9487],
    [10702,1537389252,53.9842,-110.9259,810.8,137.8,354.0,5.1,0.3,10.21,39.66,1.9503,392.7479],
    [10703,1537389253,53.9848,-110.926,810.6,137.6,354.7,4.4,0.2,10.22,39.92,1.9503,392.9955],
    [10704,1537389254,53.9855,-110.926,811.0,137.0,354.1,5.0,0.0,10.06,39.34,1.9513,392.8521],
    [10705,1537389255,53.9862,-110.926,810.8,135.8,354.0,5.3,-0.3,9.48,39.48,1.9507,392.0732],
    [10706,1537389256,53.9869,-110.9261,810.9,135.9,353.9,5.2,-0.6,10.54,38.95,1.95,393.9298],
    [10707,1537389257,53.9876,-110.9261,811.9,135.9,355.0,3.6,-0.7,10.52,39.02,1.9487,391.9424],
    [10708,1537389258,53.9883,-110.9262,812.8,136.8,355.3,3.2,-1.9,10.16,39.58,1.9472,393.2259],
    [10709,1537389259,53.989,-110.9262,813.4,137.4,355.5,2.7,-2.6,10.38,39.34,1.9459,392.665],
    [10710,1537389260,53.9896,-110.9263,813.4,137.4,355.7,2.3,-2.4,9.98,39.08,1.9474,392.7442],
    [10711,1537389261,53.9903,-110.9263,812.8,137.8,355.6,2.3,-2.3,9.87,38.79,1.9472,393.215],
    [10712,1537389262,53.991,-110.9264,812.1,137.0,354.8,3.3,-2.2,10.26,39.03,1.9457,392.8461],
    [10713,1537389263,53.9917,-110.9265,811.8,137.9,355.7,1.8,-2.0,10.12,38.23,1.9454,393.633],
    [10714,1537389264,53.9924,-110.9265,813.4,140.3,356.3,1.2,-1.8,9.65,37.67,1.946,392.8231],
    [10715,1537389265,53.9931,-110.9266,813.9,141.0,354.7,3.0,-2.0,10.32,37.3,1.946,392.8231],
    [10716,1537389266,53.9937,-110.9267,813.2,141.2,354.6,2.7,-2.0,9.66,37.62,1.9485,393.6519],
    [10717,1537389267,53.9944,-110.9267,813.2,141.4,354.4,2.6,-2.2,10.19,37.21,1.9479,391.8441],
    [10718,1537389268,53.9951,-110.9268,813.3,143.0,353.8,3.5,-2.6,10.3,37.12,1.9448,391.4598],
    [10719,1537389269,53.9958,-110.9269,812.8,143.1,353.7,3.8,-2.4,10.25,36.88,1.9443,393.0855],
    [10720,1537389270,53.9965,-110.927,812.3,143.6,353.5,4.1,-2.1,9.67,36.51,1.9442,392.8135],
    [10721,1537389271,53.9972,-110.927,812.2,144.1,354.1,3.2,-1.8,10.44,35.81,1.9443,393.1767],
    [10722,1537389272,53.9979,-110.9271,812.1,145.0,354.1,3.5,-1.5,10.45,35.32,1.9445,391.4777],
    [10723,1537389273,53.9985,-110.9272,812.1,145.9,353.6,3.9,-1.5,9.98,35.67,1.9442,392.949],
    [10724,1537389274,53.9992,-110.9272,811.8,145.7,353.7,3.9,-1.4,10.15,36.26,1.9443,393.5279],
    [10725,1537389275,53.9999,-110.9273,811.5,145.2,353.3,4.3,-1.3,10.09,35.35,1.9442,393.4409],
    [10726,1537389276,54.0006,-110.9274,811.5,146.2,353.9,3.6,-1.1,10.99,34.95,1.9448,393.282],
    [10727,1537389277,54.0013,-110.9275,811.5,146.7,353.6,4.1,-0.9,10.49,34.63,1.9438,393.282],
    [10728,1537389278,54.0019,-110.9275,811.4,148.2,353.9,3.8,-0.8,10.52,34.82,1.948,393.8594],
    [10729,1537389279,54.0026,-110.9276,810.9,149.2,353.9,3.9,-0.3,9.75,35.41,1.9487,393.713],
    [10730,1537389280,54.0033,-110.9276,810.5,151.3,354.1,3.8,-0.4,10.16,35.01,1.9463,393.6759],
    [10731,1537389281,54.004,-110.9277,810.5,157.1,354.4,3.5,-0.7,10.13,35.0,1.9464,393.3582],
    [10732,1537389282,54.0046,-110.9278,810.6,160.7,354.5,3.4,-0.7,9.76,35.0,1.9456,394.2486],
    [10733,1537389283,54.0053,-110.9278,810.7,162.6,354.5,3.5,-0.6,10.09,35.22,1.9454,393.248],
    [10734,1537389284,54.006,-110.9279,810.8,164.4,354.4,3.7,-0.8,9.92,35.23,1.9457,393.4135],
    [10735,1537389285,54.0067,-110.9279,810.9,164.9,354.6,3.3,-0.9,10.05,35.7,1.946,393.4135],
    [10736,1537389286,54.0074,-110.928,811.0,165.1,354.5,3.3,-0.7,9.9,35.09,1.9452,393.7787],
    [10737,1537389287,54.008,-110.9281,811.0,163.6,354.2,3.6,-0.6,10.25,35.23,1.9479,393.4458],
    [10738,1537389288,54.0087,-110.9281,811.1,166.0,354.4,3.2,-0.8,10.03,35.0,1.9465,392.9803],
    [10739,1537389289,54.0094,-110.9282,810.8,168.2,354.3,3.4,-0.7,10.48,34.59,1.9473,392.7439],
    [10740,1537389290,54.01,-110.9283,810.4,169.8,354.1,3.7,-0.6,9.8,35.16,1.9464,393.563],
    [10741,1537389291,54.0107,-110.9283,810.1,170.9,353.9,4.1,-0.5,10.3,35.44,1.948,392.9447],
    [10742,1537389292,54.0114,-110.9284,810.1,171.4,353.7,4.2,-0.4,10.05,35.62,1.9474,393.7182],
    [10743,1537389293,54.012,-110.9284,810.1,173.1,354.7,3.7,0.0,10.35,35.39,1.9476,394.0943],
    [10744,1537389294,54.0127,-110.9285,810.0,173.7,355.4,4.1,0.1,10.41,36.24,1.9487,393.6851],
    [10745,1537389295,54.0134,-110.9285,809.6,174.9,357.4,3.6,1.0,10.27,35.79,1.9504,393.1938],
    [10746,1537389296,54.014,-110.9285,809.6,175.8,359.2,3.9,1.6,10.2,36.0,1.9498,393.3387],
    [10747,1537389297,54.0147,-110.9284,809.7,175.9,362.1,3.7,1.7,9.97,37.05,1.9491,393.4136],
    [10748,1537389298,54.0154,-110.9282,809.1,177.0,6.1,2.4,0.7,9.58,36.63,1.9495,393.4001],
    [10749,1537389299,54.0161,-110.9281,807.5,176.4,10.6,1.7,0.3,10.57,36.45,1.9491,393.4171],
    [10750,1537389300,54.0167,-110.9278,806.6,177.8,13.6,2.8,0.1,9.4,37.07,1.947,392.6039],
    [10751,1537389301,54.0174,-110.9274,806.2,179.3,17.5,2.9,0.3,10.1,37.09,1.9495,393.4416],
    [10752,1537389302,54.018,-110.927,806.5,183.5,20.7,3.4,0.6,10.1,37.03,1.9466,393.5217],
    [10753,1537389303,54.0187,-110.9265,807.4,191.1,24.1,3.5,0.8,10.24,37.52,1.9468,393.0702],
    [10754,1537389304,54.0193,-110.926,808.4,190.3,27.1,3.7,0.9,10.03,37.15,1.9482,393.1342],
    [10755,1537389305,54.0198,-110.9254,809.0,188.6,30.3,3.5,1.1,9.68,37.1,1.9483,393.1249],
    [10756,1537389306,54.0204,-110.9247,809.4,187.4,33.7,3.7,1.6,10.14,36.94,1.9483,393.8164],
    [10757,1537389307,54.021,-110.924,810.3,188.5,37.0,3.9,2.0,9.74,36.81,1.9485,391.1792],
    [10758,1537389308,54.0215,-110.9233,811.3,191.1,40.2,3.9,2.3,10.04,37.06,1.9491,389.4533],
    [10759,1537389309,54.022,-110.9225,811.8,194.2,43.4,3.6,2.6,10.07,37.74,1.9519,393.3235],
    [10760,1537389310,54.0225,-110.9217,812.2,197.8,46.8,3.6,3.0,10.09,37.7,1.9489,393.4403],
    [10761,1537389311,54.0229,-110.9208,812.3,202.9,48.8,3.7,1.8,10.53,36.49,1.9499,392.6431],
    [10762,1537389312,54.0234,-110.9199,811.9,206.5,52.1,3.7,1.6,10.06,37.7,1.9494,392.2387],
    [10763,1537389313,54.0238,-110.9189,811.5,210.2,53.7,4.6,-0.8,10.45,37.09,1.949,392.2387],
    [10764,1537389314,54.0241,-110.9179,811.1,215.1,58.4,3.6,0.7,10.05,37.99,1.9508,392.1882],
    [10765,1537389315,54.0245,-110.9169,811.1,222.9,62.2,4.3,1.0,9.89,38.04,1.9507,393.4892],
    [10766,1537389316,54.0248,-110.9158,811.5,232.7,64.4,4.8,0.8,10.02,38.74,1.9482,393.2724],
    [10767,1537389317,54.025,-110.9147,810.9,240.8,67.6,4.9,1.3,10.04,38.45,1.9492,394.2517],
    [10768,1537389318,54.0253,-110.9136,810.1,254.8,69.8,5.2,0.5,10.58,37.58,1.9494,393.1834],
    [10769,1537389319,54.0255,-110.9125,810.0,265.0,72.6,4.8,0.7,10.62,37.71,1.9491,393.199],
    [10770,1537389320,54.0257,-110.9113,810.1,271.1,74.9,4.8,1.1,10.34,38.12,1.9476,393.199],
    [10771,1537389321,54.0259,-110.9102,811.4,272.4,76.1,5.4,0.6,10.01,38.26,1.9478,391.9965],
    [10772,1537389322,54.026,-110.909,812.4,273.4,77.4,5.5,0.9,9.97,38.6,1.9483,393.0901],
    [10773,1537389323,54.0262,-110.9079,812.5,273.5,78.9,4.7,1.3,10.77,37.52,1.9474,393.5053],
    [10774,1537389324,54.0263,-110.9067,812.3,273.3,80.3,4.7,1.6,10.7,37.77,1.9505,392.1437],
    [10775,1537389325,54.0264,-110.9055,812.5,273.5,81.2,4.5,1.8,9.5,38.14,1.949,392.8524],
    [10776,1537389326,54.0265,-110.9044,812.7,270.9,82.3,4.0,2.1,10.08,37.96,1.948,393.7815],
    [10777,1537389327,54.0266,-110.9032,813.5,263.9,82.4,3.9,1.8,9.9,38.09,1.9476,392.462],
    [10778,1537389328,54.0267,-110.902,814.2,255.2,82.5,4.2,1.9,10.03,38.81,1.947,392.5112],
    [10779,1537389329,54.0268,-110.9008,814.2,246.8,82.1,3.9,1.2,10.03,38.34,1.9458,392.5554],
    [10780,1537389330,54.0269,-110.8996,813.3,234.3,82.3,3.9,1.0,10.24,37.69,1.9459,391.9261],
    [10781,1537389331,54.027,-110.8984,812.5,222.8,82.7,4.3,1.1,9.98,38.18,1.9468,393.8382],
    [10782,1537389332,54.0271,-110.8973,812.6,213.2,82.9,3.7,0.6,10.16,37.2,1.9481,392.5179],
    [10783,1537389333,54.0272,-110.8961,812.5,206.5,83.4,3.7,0.2,9.87,37.62,1.9505,392.6175],
    [10784,1537389334,54.0273,-110.8949,812.0,203.4,84.5,3.7,0.5,9.94,37.3,1.9473,393.6581],
    [10785,1537389335,54.0273,-110.8937,811.7,200.7,85.5,3.6,0.6,9.67,38.01,1.9469,392.7884],
    [10786,1537389336,54.0274,-110.8925,811.8,198.7,86.4,3.8,0.8,10.19,37.11,1.949,393.6885],
    [10787,1537389337,54.0274,-110.8914,812.1,196.9,86.4,3.9,0.4,9.89,37.18,1.9481,393.851],
    [10788,1537389338,54.0275,-110.8901,811.9,192.2,87.1,4.0,0.9,10.43,36.89,1.948,393.3147],
    [10789,1537389339,54.0275,-110.8889,812.7,189.2,87.2,3.3,1.2,10.57,37.12,1.9481,393.3147],
    [10790,1537389340,54.0276,-110.8877,813.9,187.6,88.4,4.1,2.5,9.73,37.37,1.9474,393.833],
    [10791,1537389341,54.0276,-110.8865,814.2,186.3,86.8,4.8,0.7,9.99,37.6,1.9469,392.7394],
    [10792,1537389342,54.0277,-110.8853,814.3,184.0,86.2,4.1,0.5,9.4,37.34,1.9476,393.6963],
    [10793,1537389343,54.0277,-110.8841,813.8,180.0,85.4,3.1,-0.2,9.82,38.21,1.9484,393.6023],
    [10794,1537389344,54.0278,-110.8829,813.3,177.2,84.5,3.4,-0.3,10.45,37.47,1.9493,393.2409],
    [10795,1537389345,54.0278,-110.8817,812.6,174.5,85.3,3.3,1.0,9.99,38.13,1.949,392.7916],
    [10796,1537389346,54.0279,-110.8804,811.8,171.8,84.9,2.8,0.2,10.51,37.54,1.9493,393.0753],
    [10797,1537389347,54.028,-110.8792,812.3,170.0,84.5,2.6,-0.5,9.82,37.78,1.9486,392.1108],
    [10798,1537389348,54.028,-110.8781,813.5,169.4,85.0,2.6,-0.4,9.71,37.28,1.9485,394.2874],
    [10799,1537389349,54.0281,-110.8768,815.5,172.5,85.2,2.9,-0.8,9.85,37.53,1.9496,392.4481],
    [10800,1537389350,54.0281,-110.8756,817.7,175.1,86.0,3.0,-0.3,10.09,37.59,1.9473,392.0138],
    [10801,1537389351,54.0282,-110.8744,819.5,177.9,86.7,3.2,-0.3,9.81,37.21,1.9488,393.294],
    [10802,1537389352,54.0282,-110.8732,821.3,180.1,87.4,3.2,0.0,9.95,37.46,1.9473,393.0939],
    [10803,1537389353,54.0282,-110.872,823.3,182.4,88.2,3.5,0.3,9.69,37.45,1.9474,391.5505],
    [10804,1537389354,54.0282,-110.8708,825.7,184.8,88.4,3.6,0.1,10.15,36.77,1.9466,393.5568],
    [10805,1537389355,54.0283,-110.8696,828.2,186.5,88.6,3.7,0.0,10.0,37.34,1.9463,393.6003],
    [10806,1537389356,54.0283,-110.8684,830.8,189.2,88.7,3.8,-0.1,10.03,37.03,1.9491,392.4869],
    [10807,1537389357,54.0283,-110.8673,833.4,191.6,88.9,3.6,-0.1,10.64,36.59,1.9477,393.3404],
    [10808,1537389358,54.0283,-110.8661,835.7,193.1,89.2,3.5,0.2,10.15,36.49,1.948,393.6209],
    [10809,1537389359,54.0283,-110.8649,837.8,193.5,89.1,3.5,0.0,10.46,35.66,1.9499,394.3071],
    [10810,1537389360,54.0283,-110.8637,840.0,193.3,88.9,3.7,-0.1,9.92,36.19,1.9532,394.1541],
    [10811,1537389361,54.0283,-110.8626,842.3,192.0,88.8,3.8,-0.1,9.4,36.53,1.9503,394.2175],
    [10812,1537389362,54.0283,-110.8614,844.6,189.2,88.5,3.8,-0.4,9.91,37.31,1.9508,394.8965],
    [10813,1537389363,54.0284,-110.8602,846.7,186.8,88.6,3.8,-0.4,10.54,36.62,1.9509,395.3125],
    [10814,1537389364,54.0284,-110.8591,849.2,184.8,88.5,4.0,-0.5,9.81,37.39,1.9495,393.9192],
    [10815,1537389365,54.0284,-110.8579,851.9,185.0,88.2,4.1,-0.8,9.87,36.89,1.9494,394.247],
    [10816,1537389366,54.0284,-110.8568,854.2,184.0,88.7,4.3,-0.3,10.08,37.01,1.9486,394.247],
    [10817,1537389367,54.0284,-110.8556,856.3,182.2,89.1,4.5,0.0,9.63,37.81,1.9489,394.5244],
    [10818,1537389368,54.0284,-110.8545,858.6,180.6,89.4,4.8,0.2,10.23,37.47,1.9517,393.6443],
    [10819,1537389369,54.0284,-110.8533,861.4,179.9,88.4,4.9,-1.0,9.45,37.72,1.9496,393.7332],
    [10820,1537389370,54.0284,-110.8522,863.9,178.0,87.7,4.7,-1.6,10.42,37.42,1.9499,393.8754],
    [10821,1537389371,54.0284,-110.8511,865.5,175.2,87.9,4.6,-1.4,9.2,37.91,1.9506,391.681],
    [10822,1537389372,54.0285,-110.8499,866.3,170.8,87.4,4.8,-2.2,9.99,37.87,1.9515,391.9671],
    [10823,1537389373,54.0285,-110.8488,866.8,164.1,88.2,4.4,-1.4,10.06,37.94,1.9518,394.4161],
    [10824,1537389374,54.0285,-110.8476,867.7,158.2,88.7,3.7,-1.3,9.92,38.96,1.9501,392.6208],
    [10825,1537389375,54.0285,-110.8465,868.7,153.2,88.5,3.3,-1.6,9.8,39.17,1.9514,392.1778],
    [10826,1537389376,54.0285,-110.8453,869.5,148.8,88.9,3.3,-1.4,9.97,38.21,1.9519,393.5606],
    [10827,1537389377,54.0285,-110.8442,870.0,145.0,88.9,3.2,-1.5,9.15,38.51,1.9498,393.2321],
    [10828,1537389378,54.0285,-110.843,870.4,139.7,89.1,3.1,-1.2,9.86,38.18,1.9521,394.1726],
    [10829,1537389379,54.0285,-110.8419,870.4,135.4,89.5,3.6,-0.7,9.58,39.02,1.9523,393.6094],
    [10830,1537389380,54.0285,-110.8407,870.1,132.7,90.0,4.1,-0.1,9.53,38.85,1.9505,393.7832],
    [10831,1537389381,54.0285,-110.8396,869.9,132.5,90.0,4.2,-0.1,10.05,38.41,1.9526,394.676],
    [10832,1537389382,54.0285,-110.8384,870.1,133.6,89.3,4.4,-0.7,9.74,38.91,1.9508,394.8486],
    [10833,1537389383,54.0285,-110.8373,870.5,133.3,88.8,4.1,-1.0,9.51,39.23,1.9514,394.4776],
    [10834,1537389384,54.0285,-110.8361,870.7,132.5,88.7,3.7,-1.1,9.98,38.84,1.9506,395.3765],
    [10835,1537389385,54.0285,-110.835,870.5,133.4,88.6,3.5,-1.1,9.63,39.61,1.9506,394.0076],
    [10836,1537389386,54.0285,-110.8338,870.3,140.0,88.7,3.7,-1.0,9.49,39.16,1.9526,394.203],
    [10837,1537389387,54.0285,-110.8326,870.3,147.2,88.8,3.8,-0.8,9.66,39.04,1.9519,394.2413],
    [10838,1537389388,54.0285,-110.8315,870.0,150.4,89.2,4.0,-0.4,9.31,39.11,1.9513,393.5058],
    [10839,1537389389,54.0285,-110.8303,869.9,149.9,89.0,3.7,-0.6,9.57,39.19,1.9528,393.5058],
    [10840,1537389390,54.0285,-110.8291,870.5,147.2,89.3,3.3,-0.3,9.96,39.22,1.9545,394.5023],
    [10841,1537389391,54.0285,-110.8279,871.3,143.7,89.0,3.2,-0.8,9.41,39.62,1.9556,395.804],
    [10842,1537389392,54.0285,-110.8268,871.4,138.9,88.9,3.1,-0.8,8.79,39.7,1.9556,395.7897],
    [10843,1537389393,54.0285,-110.8256,871.1,134.4,89.2,3.0,-0.4,9.93,39.82,1.9563,394.3897],
    [10844,1537389394,54.0285,-110.8244,871.5,133.8,89.0,2.9,-0.8,9.55,40.97,1.9565,394.7479],
    [10845,1537389395,54.0285,-110.8234,871.9,134.3,88.4,2.9,-1.4,10.0,40.43,1.9545,394.7479],
    [10846,1537389396,54.0285,-110.8221,871.4,132.2,89.0,2.9,-0.7,9.03,40.87,1.9525,394.673],
    [10847,1537389397,54.0285,-110.8209,870.9,126.5,88.7,3.1,-1.0,9.91,40.04,1.955,395.2499],
    [10848,1537389398,54.0286,-110.8197,870.9,121.9,89.0,3.1,-0.6,9.23,40.47,1.9533,393.9429],
    [10849,1537389399,54.0286,-110.8185,870.8,118.6,89.6,3.4,-0.1,9.34,40.57,1.9511,394.956],
    [10850,1537389400,54.0286,-110.8174,870.7,119.7,89.6,3.6,-0.2,9.73,40.27,1.9523,394.4485],
    [10851,1537389401,54.0286,-110.8162,870.6,120.6,89.4,3.5,-0.4,9.48,40.9,1.9543,394.8402],
    [10852,1537389402,54.0286,-110.815,870.9,121.0,88.7,3.5,-1.0,9.35,40.74,1.9547,393.7047],
    [10853,1537389403,54.0286,-110.8138,870.9,115.8,89.0,3.7,-0.7,9.4,40.31,1.9508,394.8203],
    [10854,1537389404,54.0286,-110.8126,870.5,108.6,89.1,4.0,-0.6,9.45,40.29,1.9517,394.7335],
    [10855,1537389405,54.0286,-110.8115,870.4,100.3,89.0,4.1,-0.7,9.53,40.51,1.9512,394.1822],
    [10856,1537389406,54.0286,-110.8103,870.7,94.2,89.1,4.1,-0.7,9.82,39.81,1.9512,393.7496],
    [10857,1537389407,54.0286,-110.8091,871.0,92.5,88.8,4.2,-1.0,9.3,40.43,1.9517,393.7496],
    [10858,1537389408,54.0286,-110.8079,871.1,94.7,89.0,4.4,-0.9,9.41,40.37,1.9514,393.3637],
    [10859,1537389409,54.0286,-110.8067,870.7,98.6,89.3,4.4,-0.6,9.9,39.88,1.9507,394.2739],
    [10860,1537389410,54.0286,-110.8055,870.4,102.4,89.4,4.2,-0.6,8.93,40.25,1.9488,394.185],
    [10861,1537389411,54.0286,-110.8043,870.3,104.6,89.2,4.0,-0.9,8.79,40.25,1.9498,394.7339],
    [10862,1537389412,54.0286,-110.8031,870.7,106.1,89.1,4.3,-1.1,9.29,39.79,1.9508,393.7],
    [10863,1537389413,54.0286,-110.8019,871.0,108.7,88.8,4.4,-1.2,9.41,40.36,1.9511,394.0468],
    [10864,1537389414,54.0286,-110.8007,870.6,111.5,89.2,4.3,-0.6,8.93,39.65,1.9499,393.2095],
    [10865,1537389415,54.0286,-110.7995,870.2,114.2,89.0,4.4,-1.0,10.19,38.79,1.9502,393.6003],
    [10866,1537389416,54.0286,-110.7983,870.1,116.4,88.7,4.5,-1.3,9.42,39.13,1.9509,394.7122],
    [10867,1537389417,54.0286,-110.7971,870.2,119.2,89.2,4.0,-0.8,9.21,39.28,1.9519,395.3803],
    [10868,1537389418,54.0286,-110.7959,870.7,121.7,88.7,4.3,-1.3,9.49,38.98,1.9522,393.9048],
    [10869,1537389419,54.0286,-110.7947,870.6,122.5,89.5,4.5,-0.2,9.25,39.08,1.9466,394.1291],
    [10870,1537389420,54.0286,-110.7935,870.2,123.2,89.3,4.5,-0.4,9.46,39.41,1.9448,394.2392],
    [10871,1537389421,54.0286,-110.7923,870.2,124.2,88.8,4.6,-0.6,8.97,38.94,1.9462,393.7847],
    [10872,1537389422,54.0286,-110.7911,870.6,125.6,88.7,4.5,-0.5,9.26,38.07,1.9455,394.0111],
    [10873,1537389423,54.0287,-110.7899,871.0,127.7,88.9,4.5,-0.2,10.02,37.68,1.947,391.4416],
    [10874,1537389424,54.0287,-110.7887,870.8,128.8,89.0,4.1,-0.4,9.26,37.92,1.9491,391.4416],
    [10875,1537389425,54.0287,-110.7876,871.1,129.1,88.3,3.9,-1.2,9.3,37.38,1.9514,394.783],
    [10876,1537389426,54.0287,-110.7863,871.9,128.9,88.9,3.9,-0.6,9.46,37.23,1.9552,394.1301],
    [10877,1537389427,54.0287,-110.7851,872.0,128.9,89.1,3.9,-0.5,9.18,37.23,1.953,394.1301],
    [10878,1537389428,54.0287,-110.7839,871.7,129.7,89.0,3.9,-0.6,9.36,37.86,1.9556,394.3629],
    [10879,1537389429,54.0287,-110.7827,871.4,131.5,90.5,4.1,1.0,9.19,38.02,1.9523,394.3201],
    [10880,1537389430,54.0287,-110.7815,871.3,132.0,90.3,4.2,0.8,9.35,37.96,1.953,394.9708],
    [10881,1537389431,54.0287,-110.7803,871.4,132.4,89.8,4.5,0.1,9.14,38.03,1.9531,395.9751],
    [10882,1537389432,54.0287,-110.7791,871.2,132.2,88.6,5.1,-1.1,9.38,38.57,1.9549,395.8729],
    [10883,1537389433,54.0287,-110.7779,870.7,131.7,89.3,4.5,-0.1,9.35,38.34,1.9553,394.355],
    [10884,1537389434,54.0287,-110.7767,870.9,131.9,89.9,3.8,0.4,8.93,38.68,1.9576,394.1759],
    [10885,1537389435,54.0287,-110.7755,871.9,131.9,89.6,4.2,-0.1,9.32,39.01,1.9574,396.5172],
    [10886,1537389436,54.0287,-110.7743,872.1,131.1,89.8,3.8,0.3,9.02,39.29,1.956,396.5172],
    [10887,1537389437,54.0287,-110.7731,871.6,130.6,90.7,4.2,1.5,9.36,39.55,1.9568,394.9164],
    [10888,1537389438,54.0287,-110.7719,871.0,130.0,90.2,4.2,1.0,9.23,40.07,1.9564,393.9622],
    [10889,1537389439,54.0288,-110.7706,871.0,130.0,89.0,3.8,-0.3,9.18,40.28,1.9571,395.144],
    [10890,1537389440,54.0288,-110.7694,871.4,130.4,88.3,3.7,-0.8,9.53,40.05,1.9567,395.0153],
    [10891,1537389441,54.0288,-110.7682,871.7,130.7,88.5,3.9,-0.4,9.14,41.25,1.956,394.9514],
    [10892,1537389442,54.0288,-110.767,871.1,130.1,89.2,3.5,0.4,8.65,41.02,1.9564,395.1137],
    [10893,1537389443,54.0288,-110.7658,870.3,129.4,90.3,2.8,1.6,8.75,41.19,1.9569,395.6359],
    [10894,1537389444,54.0288,-110.7646,870.5,128.5,90.7,2.3,1.8,9.35,40.83,1.9554,395.559],
    [10895,1537389445,54.0288,-110.7634,871.5,128.5,90.8,2.3,2.0,9.27,41.28,1.9544,394.5192],
    [10896,1537389446,54.0288,-110.7622,871.0,128.0,90.5,3.0,1.6,9.48,41.29,1.9538,394.8932],
    [10897,1537389447,54.0288,-110.761,869.7,127.7,90.0,4.1,0.9,9.37,41.42,1.9541,395.4448],
    [10898,1537389448,54.0288,-110.7597,869.3,128.3,89.7,3.7,0.7,8.93,41.21,1.9544,395.2502],
    [10899,1537389449,54.0289,-110.7585,869.0,130.3,89.5,3.0,0.5,9.78,40.67,1.954,394.6021],
    [10900,1537389450,54.0289,-110.7573,869.2,133.8,88.9,3.0,-0.1,9.21,41.3,1.9548,394.0709],
    [10901,1537389451,54.0289,-110.7561,869.8,138.8,89.1,3.4,0.2,9.38,41.68,1.956,395.5078],
    [10902,1537389452,54.0289,-110.7549,870.0,143.2,89.1,3.3,0.3,8.72,41.11,1.9589,395.2509],
    [10903,1537389453,54.0289,-110.7537,869.9,146.4,88.9,3.3,0.0,9.45,40.8,1.9575,395.379],
    [10904,1537389454,54.0289,-110.7525,870.0,149.6,89.0,3.3,0.0,9.95,40.45,1.9603,395.0026],
    [10905,1537389455,54.0289,-110.7513,870.3,150.5,89.1,3.4,0.2,9.83,41.03,1.9581,394.1168],
    [10906,1537389456,54.0289,-110.7501,870.7,153.2,88.9,3.6,-0.1,9.03,41.85,1.9576,395.3251],
    [10907,1537389457,54.029,-110.7489,870.8,156.5,89.2,3.9,0.3,9.41,41.77,1.9577,395.3251],
    [10908,1537389458,54.029,-110.7476,871.0,159.0,89.6,3.9,0.6,9.09,42.18,1.9576,394.8551],
    [10909,1537389459,54.029,-110.7465,871.2,162.1,90.0,4.3,1.0,9.46,41.84,1.9585,395.4048],
    [10910,1537389460,54.029,-110.7454,871.0,163.7,89.9,4.4,1.1,9.44,42.76,1.958,395.4824],
    [10911,1537389461,54.029,-110.7441,870.1,164.7,89.4,4.6,0.7,9.82,42.0,1.9582,393.4612],
    [10912,1537389462,54.029,-110.7428,869.7,166.2,89.0,5.7,0.3,9.94,41.85,1.9571,393.4612],
    [10913,1537389463,54.029,-110.7416,869.5,169.1,88.5,5.4,-0.2,9.78,41.71,1.9565,394.0424],
    [10914,1537389464,54.029,-110.7405,869.8,173.5,87.4,4.6,-1.3,8.71,42.27,1.959,395.2482],
    [10915,1537389465,54.0291,-110.7392,869.9,177.9,87.3,4.4,-1.3,9.7,42.01,1.9574,394.6718],
    [10916,1537389466,54.0291,-110.738,870.4,183.1,87.1,4.1,-1.6,9.25,42.49,1.9571,394.7359],
    [10917,1537389467,54.0291,-110.7368,870.8,184.6,87.4,4.0,-1.6,9.21,42.89,1.9563,394.7359],
    [10918,1537389468,54.0291,-110.7357,871.0,184.7,87.4,4.2,-2.3,9.3,42.69,1.9569,394.7063],
    [10919,1537389469,54.0291,-110.7344,872.4,186.1,88.8,4.5,-2.0,8.85,42.72,1.955,395.9675],
    [10920,1537389470,54.0291,-110.7332,873.1,187.8,91.9,4.2,0.0,9.21,43.48,1.9554,395.9675],
    [10921,1537389471,54.0291,-110.732,872.8,189.5,93.1,4.3,0.2,9.38,42.91,1.9573,394.0054],
    [10922,1537389472,54.029,-110.7307,871.7,189.4,94.1,5.0,0.4,9.38,42.64,1.958,394.0054],
    [10923,1537389473,54.029,-110.7295,871.5,189.1,94.1,5.2,0.3,9.85,42.23,1.9548,394.0125],
    [10924,1537389474,54.0289,-110.7283,871.5,190.8,94.0,5.5,1.1,9.51,42.51,1.9561,394.945],
    [10925,1537389475,54.0289,-110.7271,871.9,192.8,92.5,5.7,0.8,9.83,42.1,1.9565,394.7502],
    [10926,1537389476,54.0289,-110.7259,871.6,194.3,91.3,5.9,0.7,9.29,42.93,1.9558,395.3153],
    [10927,1537389477,54.0289,-110.7247,870.7,195.4,90.7,5.0,1.2,9.64,42.4,1.956,394.1824],
    [10928,1537389478,54.0289,-110.7234,869.9,195.6,89.0,4.4,0.3,9.38,42.84,1.9558,394.3529],
    [10929,1537389479,54.0289,-110.7222,870.1,195.7,88.1,4.8,0.3,9.06,42.65,1.956,394.9015],
    [10930,1537389480,54.029,-110.721,870.5,196.2,88.1,5.1,1.0,8.75,42.66,1.9574,395.8314],
    [10931,1537389481,54.029,-110.7198,870.4,197.2,88.6,4.8,1.4,9.63,42.28,1.9567,395.688],
    [10932,1537389482,54.029,-110.7186,870.1,197.7,88.8,4.7,1.5,9.38,42.72,1.9716,393.8789],
    [10933,1537389483,54.029,-110.7173,870.3,199.8,89.3,4.7,1.9,9.34,42.66,2.0115,394.2599],
    [10934,1537389484,54.0291,-110.7161,870.6,201.3,89.2,5.0,1.6,9.4,42.3,1.9759,394.5712],
    [10935,1537389485,54.0291,-110.7149,870.8,202.5,89.2,5.1,1.5,9.37,41.89,2.0261,394.704],
    [10936,1537389486,54.0291,-110.7137,871.1,202.7,89.1,4.3,1.5,9.05,42.02,1.9989,395.594],
    [10937,1537389487,54.0291,-110.7125,871.6,203.3,89.5,4.5,2.1,9.3,41.33,2.0121,393.5136],
    [10938,1537389488,54.0292,-110.7112,871.9,203.6,89.2,5.4,1.5,9.55,41.38,2.0628,395.5679],
    [10939,1537389489,54.0292,-110.71,872.4,202.0,88.2,5.3,0.4,9.34,41.84,2.0814,394.3101],
    [10940,1537389490,54.0292,-110.7088,872.4,200.7,88.6,4.9,0.9,9.39,41.28,2.0373,394.7],
    [10941,1537389491,54.0292,-110.7075,871.4,198.6,88.1,4.8,0.3,9.69,41.29,1.9892,396.1884],
    [10942,1537389492,54.0293,-110.7063,870.8,197.2,88.2,3.7,0.5,8.84,41.32,1.9643,395.7061],
    [10943,1537389493,54.0293,-110.705,870.2,197.6,89.0,4.4,1.0,9.48,41.7,1.9643,394.1901],
    [10944,1537389494,54.0293,-110.7038,869.3,197.6,88.7,5.1,0.6,9.92,41.05,1.9585,395.2873],
    [10945,1537389495,54.0293,-110.7026,868.9,198.3,89.2,5.4,0.8,9.92,41.0,1.9688,395.9152],
    [10946,1537389496,54.0293,-110.7013,870.0,200.4,88.7,6.2,0.1,9.7,41.22,1.9759,394.6883],
    [10947,1537389497,54.0294,-110.7002,870.2,202.2,88.9,6.8,0.4,9.43,41.13,1.9724,394.5674],
    [10948,1537389498,54.0294,-110.6989,869.2,200.5,89.6,6.4,1.1,10.15,40.55,1.9856,394.9924],
    [10949,1537389499,54.0294,-110.6976,868.8,199.1,89.6,6.1,1.0,9.21,41.18,2.0069,395.0453],
    [10950,1537389500,54.0294,-110.6964,868.8,198.2,89.3,5.3,0.6,9.41,41.61,2.0021,395.4133],
    [10951,1537389501,54.0294,-110.6952,868.8,197.2,88.7,4.8,0.0,9.86,40.63,1.9845,396.3254],
    [10952,1537389502,54.0294,-110.6939,869.5,196.9,88.2,4.9,-0.2,9.52,41.86,1.9787,390.8895],
    [10953,1537389503,54.0295,-110.6927,870.5,197.5,89.4,4.8,1.5,9.78,41.02,1.9696,396.3731],
    [10954,1537389504,54.0295,-110.6916,870.8,197.8,90.5,4.8,2.7,9.61,42.0,1.9606,393.8819],
    [10955,1537389505,54.0295,-110.6902,870.9,198.2,90.0,5.1,2.0,9.37,41.55,1.9587,393.8819],
    [10956,1537389506,54.0295,-110.689,871.2,199.2,90.1,5.1,2.4,10.19,41.08,1.9552,394.7199],
    [10957,1537389507,54.0295,-110.6877,871.3,199.3,90.0,5.3,2.3,9.3,41.79,1.9545,394.7199],
    [10958,1537389508,54.0296,-110.6865,871.4,198.4,89.5,5.0,2.1,9.32,41.36,1.9542,394.6264],
    [10959,1537389509,54.0296,-110.6853,871.3,198.3,89.5,4.5,2.4,9.74,40.63,1.9538,394.6264],
    [10960,1537389510,54.0296,-110.684,871.4,199.3,89.2,4.1,2.3,9.6,41.13,1.9568,396.2574],
    [10961,1537389511,54.0296,-110.6828,871.7,201.7,89.2,4.1,2.4,8.79,40.77,1.9553,395.3911],
    [10962,1537389512,54.0297,-110.6815,871.8,202.8,88.9,3.9,2.1,9.46,40.71,1.9546,394.571],
    [10963,1537389513,54.0297,-110.6803,871.5,202.5,89.0,3.9,2.2,9.39,41.6,1.9548,394.2675],
    [10964,1537389514,54.0297,-110.6791,871.3,202.3,88.7,4.1,1.9,9.36,41.36,1.9556,395.0016],
    [10965,1537389515,54.0298,-110.6778,871.4,203.1,88.7,4.0,1.9,9.83,40.14,1.9566,395.0553],
    [10966,1537389516,54.0298,-110.6766,871.5,203.4,89.0,4.1,2.1,8.94,40.89,1.9557,396.2399],
    [10967,1537389517,54.0298,-110.6754,871.8,204.5,88.4,3.8,1.4,9.86,40.84,1.9556,394.1646],
    [10968,1537389518,54.0299,-110.6741,871.9,204.8,88.4,3.6,1.4,10.23,40.23,1.9555,394.57],
    [10969,1537389519,54.0299,-110.6729,870.8,204.9,88.8,3.9,1.9,9.89,40.8,1.9557,393.9541],
    [10970,1537389520,54.0299,-110.6717,869.5,203.4,88.6,4.3,1.4,9.55,41.1,1.9576,395.1768],
    [10971,1537389521,54.03,-110.6704,868.2,202.9,88.4,4.3,1.2,9.42,40.6,1.9575,394.922],
    [10972,1537389522,54.03,-110.6693,867.3,202.4,88.5,4.2,1.2,9.51,40.21,1.9537,394.829],
    [10973,1537389523,54.03,-110.6679,866.9,201.9,88.6,4.7,1.5,9.67,39.71,1.9523,394.829],
    [10974,1537389524,54.03,-110.6667,866.5,201.6,88.8,5.3,1.4,9.55,39.91,1.9545,395.4761],
    [10975,1537389525,54.0301,-110.6654,865.8,201.8,88.8,5.4,1.1,9.63,39.48,1.9573,394.2211],
    [10976,1537389526,54.0301,-110.6642,865.3,201.3,88.7,5.3,0.9,9.76,38.46,1.9591,395.3982],
    [10977,1537389527,54.0301,-110.6629,864.7,200.7,89.1,3.9,1.1,9.64,38.97,1.9576,393.981],
    [10978,1537389528,54.0301,-110.6616,864.6,200.6,89.2,2.8,1.1,9.35,38.64,1.9582,395.4148],
    [10979,1537389529,54.0302,-110.6604,864.9,200.9,88.8,3.6,0.0,9.34,38.87,1.9577,395.5227],
    [10980,1537389530,54.0302,-110.6591,864.5,200.5,87.8,4.2,-1.3,9.74,38.76,1.957,394.1485],
    [10981,1537389531,54.0302,-110.6578,863.4,199.4,89.1,4.5,0.1,9.54,39.1,1.9573,394.6448],
    [10982,1537389532,54.0302,-110.6565,862.2,198.2,90.0,5.0,0.9,9.6,39.67,1.956,394.3641],
    [10983,1537389533,54.0302,-110.6553,860.4,196.4,89.3,5.7,-0.3,8.9,39.18,1.9554,395.0443],
    [10984,1537389534,54.0302,-110.654,858.6,194.6,89.9,4.8,0.7,9.29,39.04,1.9575,396.5323],
    [10985,1537389535,54.0302,-110.6527,857.2,193.5,91.2,4.1,2.1,9.33,39.02,1.9571,394.8977],
    [10986,1537389536,54.0302,-110.6514,856.3,193.3,90.7,4.6,1.8,9.45,39.12,1.9561,392.5297],
    [10987,1537389537,54.0302,-110.6501,855.5,192.5,90.8,4.9,2.2,9.78,39.08,1.9567,393.3123],
    [10988,1537389538,54.0302,-110.6488,854.8,192.1,89.9,5.8,0.8,10.07,38.34,1.9577,394.5169],
    [10989,1537389539,54.0302,-110.6475,854.6,191.9,89.3,4.6,-0.1,9.52,38.86,1.9584,394.5169],
    [10990,1537389540,54.0303,-110.6462,854.3,191.2,89.1,3.0,-0.6,9.41,39.3,1.9598,394.8721],
    [10991,1537389541,54.0303,-110.6449,853.5,191.5,89.2,2.9,-0.6,10.12,38.35,1.9583,395.5562],
    [10992,1537389542,54.0303,-110.6436,851.9,189.9,88.9,2.6,-1.2,9.78,39.62,1.9571,395.0285],
    [10993,1537389543,54.0303,-110.6423,851.1,189.1,89.0,2.1,-1.2,9.75,39.38,1.9586,394.94],
    [10994,1537389544,54.0303,-110.641,850.4,188.4,88.8,2.3,-1.5,10.05,39.72,1.9572,394.94],
    [10995,1537389545,54.0303,-110.6397,849.3,187.3,89.4,0.2,-0.5,9.78,39.62,1.9566,395.2508],
    [10996,1537389546,54.0303,-110.6384,849.2,186.2,88.8,-0.5,-1.3,9.64,39.42,1.9584,395.9731],
    [10997,1537389547,54.0303,-110.6371,849.1,185.1,89.4,0.3,-0.2,9.31,39.64,1.9609,395.9731],
    [10998,1537389548,54.0303,-110.6358,848.2,183.2,90.2,1.2,0.5,10.44,39.33,1.9611,394.1198],
    [10999,1537389549,54.0303,-110.6345,846.4,181.4,89.0,1.5,-1.1,9.78,39.45,1.9625,394.2547],
    [11000,1537389550,54.0303,-110.6332,845.7,181.7,90.1,1.7,0.9,9.69,39.58,1.9649,394.6888],
    [11001,1537389551,54.0303,-110.6319,845.6,182.6,89.6,2.0,0.0,9.36,39.38,1.9656,392.7893],
    [11002,1537389552,54.0303,-110.6306,844.8,181.8,88.4,1.1,-0.6,10.18,38.92,1.9648,393.5437],
    [11003,1537389553,54.0303,-110.6292,843.3,180.3,89.9,0.3,1.1,10.03,39.49,1.961,394.0401],
    [11004,1537389554,54.0303,-110.6279,842.3,178.3,88.6,0.3,-0.4,9.68,38.96,1.9597,394.74],
    [11005,1537389555,54.0304,-110.6266,841.6,176.9,88.7,0.2,-0.4,10.15,38.63,1.9599,395.5158],
    [11006,1537389556,54.0304,-110.6253,841.1,176.1,88.8,1.4,0.4,9.81,38.9,1.9616,394.537],
    [11007,1537389557,54.0304,-110.624,840.6,174.7,89.6,2.1,1.6,9.51,38.41,1.9612,394.1051],
    [11008,1537389558,54.0304,-110.6227,839.9,172.0,89.5,1.8,1.6,10.08,38.87,1.9607,395.5933],
    [11009,1537389559,54.0304,-110.6213,840.2,170.2,88.8,2.1,0.5,9.41,38.05,1.9609,394.3468],
    [11010,1537389560,54.0304,-110.62,840.9,168.8,89.0,3.1,1.0,10.24,37.53,1.9588,395.3794],
    [11011,1537389561,54.0305,-110.6187,841.4,167.4,89.2,2.5,1.3,9.95,37.98,1.9588,394.4942],
    [11012,1537389562,54.0305,-110.6174,841.3,165.4,89.6,1.4,2.0,10.13,37.43,1.9577,394.4942],
    [11013,1537389563,54.0305,-110.6161,839.7,161.4,90.5,2.7,3.1,9.89,37.49,1.9572,392.2051],
    [11014,1537389564,54.0305,-110.6148,839.1,159.1,88.8,4.1,1.1,9.79,37.07,1.9568,395.3899],
    [11015,1537389565,54.0306,-110.6135,838.5,155.4,88.6,5.4,1.2,10.78,36.69,1.9569,393.7548],
    [11016,1537389566,54.0306,-110.6121,837.2,153.9,87.9,6.3,0.4,10.16,36.76,1.9583,395.651],
    [11017,1537389567,54.0306,-110.6108,836.1,153.5,87.0,4.5,-1.1,9.57,36.84,1.9549,393.7448],
    [11018,1537389568,54.0307,-110.6095,835.2,154.3,86.6,3.3,-1.6,9.94,36.81,1.951,393.9671],
    [11019,1537389569,54.0307,-110.6082,835.9,157.0,87.5,3.1,-1.0,10.75,36.48,1.9512,393.984],
    [11020,1537389570,54.0307,-110.6069,837.2,161.5,87.8,3.6,-1.1,10.61,36.25,1.9523,393.9119],
    [11021,1537389571,54.0307,-110.6055,838.1,169.1,87.9,3.5,-1.5,9.5,36.34,1.9511,394.1815],
    [11022,1537389572,54.0307,-110.6043,840.6,178.1,89.3,4.2,0.1,10.06,36.26,1.9512,394.9783],
    [11023,1537389573,54.0307,-110.6029,842.6,193.8,89.2,4.2,-0.4,10.18,35.85,1.9513,394.0789],
    [11024,1537389574,54.0307,-110.6016,842.5,212.8,89.0,4.0,-1.3,9.99,36.9,1.9504,393.8655],
    [11025,1537389575,54.0307,-110.6003,843.0,225.0,88.4,4.2,-1.9,10.21,36.07,1.9504,393.6027],
    [11026,1537389576,54.0307,-110.599,843.7,230.7,89.3,3.7,-0.8,10.15,36.17,1.9507,394.9653],
    [11027,1537389577,54.0307,-110.5977,843.4,232.4,89.1,3.3,-1.4,10.22,36.58,1.951,395.2044],
    [11028,1537389578,54.0307,-110.5965,842.8,233.5,88.9,3.3,-1.4,9.59,35.92,1.9516,395.3361],
    [11029,1537389579,54.0307,-110.5952,843.0,237.1,88.5,3.3,-2.1,9.94,35.87,1.9519,394.8739],
    [11030,1537389580,54.0307,-110.5939,843.6,240.8,87.0,3.5,-3.7,9.7,35.94,1.95,394.5527],
    [11031,1537389581,54.0308,-110.5925,843.2,244.5,88.7,2.8,-1.4,10.33,35.79,1.9523,394.1475],
    [11032,1537389582,54.0308,-110.5913,842.4,246.4,89.9,2.5,-0.2,10.88,35.32,1.9574,395.5818],
    [11033,1537389583,54.0307,-110.59,841.7,245.7,91.2,3.3,1.0,10.18,35.56,1.9567,393.5901],
    [11034,1537389584,54.0307,-110.5887,842.0,247.0,90.6,3.6,0.1,10.9,35.14,1.9507,395.3883],
    [11035,1537389585,54.0307,-110.5874,842.2,248.2,89.4,3.3,-1.5,9.95,35.58,1.9512,393.7923],
    [11036,1537389586,54.0307,-110.5861,841.5,247.5,89.0,3.4,-1.5,9.61,35.57,1.9531,395.2009],
    [11037,1537389587,54.0307,-110.5848,840.5,246.5,89.0,3.3,-1.4,10.33,35.3,1.9529,394.913],
    [11038,1537389588,54.0307,-110.5835,840.2,246.2,88.7,3.1,-1.1,10.15,35.59,1.9521,394.0765],
    [11039,1537389589,54.0307,-110.5822,840.4,246.4,89.0,3.2,-0.5,10.24,35.37,1.9518,393.1782],
    [11040,1537389590,54.0308,-110.5809,841.2,247.2,88.3,3.2,-1.0,9.9,35.52,1.9517,395.1181],
    [11041,1537389591,54.0308,-110.5796,841.6,247.6,88.4,2.9,-0.6,10.16,36.02,1.9553,394.7522],
    [11042,1537389592,54.0308,-110.5784,841.6,235.5,89.0,2.9,0.3,10.03,35.19,1.9563,394.4885],
    [11043,1537389593,54.0308,-110.5771,841.2,217.9,88.9,3.3,0.2,10.07,35.22,1.9523,396.1664],
    [11044,1537389594,54.0308,-110.5758,841.3,202.0,88.4,3.6,-0.6,10.23,34.97,1.9507,394.6666],
    [11045,1537389595,54.0308,-110.5745,842.1,194.8,88.5,3.2,-0.2,10.21,35.08,1.9544,394.6212],
    [11046,1537389596,54.0308,-110.5732,842.1,192.7,89.1,3.4,0.4,10.23,35.14,1.9539,395.2007],
    [11047,1537389597,54.0309,-110.572,840.7,196.7,89.0,3.8,0.3,9.51,35.16,1.9555,396.0429],
    [11048,1537389598,54.0309,-110.5707,839.3,197.0,89.2,4.3,0.6,10.13,35.85,1.9539,395.0087],
    [11049,1537389599,54.0309,-110.5694,838.4,186.3,89.1,4.5,0.6,9.98,35.5,1.9541,395.2102],
    [11050,1537389600,54.0309,-110.5681,838.6,179.6,88.9,4.4,0.6,10.31,35.1,1.9541,394.176],
    [11051,1537389601,54.0309,-110.5668,838.5,175.4,88.7,4.7,0.4,10.03,35.67,1.9531,395.6521],
    [11052,1537389602,54.031,-110.5656,838.4,177.1,88.1,5.0,-0.1,9.4,35.95,1.9532,394.7297],
    [11053,1537389603,54.031,-110.5643,838.4,175.0,88.2,5.1,0.0,9.78,35.61,1.9544,394.3899],
    [11054,1537389604,54.031,-110.563,838.4,175.0,88.0,5.1,-0.1,10.51,35.72,1.9545,395.0183],
    [11055,1537389605,54.031,-110.5618,838.5,177.5,88.1,5.7,-0.1,10.06,36.17,1.9532,395.4087],
    [11056,1537389606,54.031,-110.5605,838.8,181.0,88.1,5.6,-0.2,10.03,36.21,1.9538,395.0582],
    [11057,1537389607,54.0311,-110.5592,838.9,183.5,88.2,5.3,-0.2,9.72,35.95,1.951,393.9058],
    [11058,1537389608,54.0311,-110.5579,839.2,187.3,88.5,5.5,0.0,9.8,36.56,1.9504,393.9058],
    [11059,1537389609,54.0311,-110.5567,839.5,188.5,88.4,5.3,-0.3,9.99,36.15,1.9506,394.8942],
    [11060,1537389610,54.0311,-110.5554,839.8,188.8,88.6,5.2,-0.1,9.36,35.6,1.9471,393.2721],
    [11061,1537389611,54.0311,-110.5542,840.3,189.3,88.7,5.1,-0.1,9.85,35.76,1.9429,394.8773],
    [11062,1537389612,54.0311,-110.5529,840.6,189.6,88.5,5.1,-0.4,10.21,35.19,1.9466,394.775],
    [11063,1537389613,54.0312,-110.5516,840.6,189.6,88.4,5.3,-0.5,9.68,34.75,1.947,394.3559],
    [11064,1537389614,54.0312,-110.5504,840.6,189.6,88.3,5.4,-0.5,10.06,34.34,1.9481,395.6417],
    [11065,1537389615,54.0312,-110.5491,840.4,189.4,88.4,5.6,-0.4,10.24,34.22,1.9501,393.7329],
    [11066,1537389616,54.0312,-110.5479,840.5,189.5,88.5,5.4,-0.3,9.94,34.28,1.952,394.1137],
    [11067,1537389617,54.0312,-110.5466,840.2,189.2,88.9,5.5,0.3,10.12,33.96,1.9529,393.8351],
    [11068,1537389618,54.0312,-110.5454,839.7,188.7,88.7,5.6,0.0,10.2,34.0,1.9537,394.485],
    [11069,1537389619,54.0313,-110.5441,839.6,188.6,88.3,5.7,-0.3,9.93,34.58,1.9542,394.3775],
    [11070,1537389620,54.0313,-110.5428,839.6,188.6,88.4,5.9,-0.2,9.54,34.53,1.9523,394.1502],
    [11071,1537389621,54.0313,-110.5416,839.6,188.6,88.2,5.8,-0.6,10.29,34.61,1.9471,395.8741],
    [11072,1537389622,54.0313,-110.5403,839.7,188.7,87.9,5.7,-1.0,10.22,34.9,1.9471,395.8741],
    [11073,1537389623,54.0313,-110.5391,839.7,188.7,88.0,5.8,-1.0,10.05,34.81,1.946,393.5489],
    [11074,1537389624,54.0313,-110.5378,839.9,187.9,88.3,5.6,-0.7,9.55,34.41,1.9491,394.4585],
    [11075,1537389625,54.0313,-110.5366,840.0,187.0,88.9,5.2,-0.3,9.96,34.33,1.9543,395.488],
    [11076,1537389626,54.0314,-110.5353,840.3,186.3,88.6,5.1,-1.0,9.85,33.86,1.9558,398.8197],
    [11077,1537389627,54.0314,-110.5341,841.1,185.4,89.3,5.9,-0.1,10.22,33.77,1.9548,398.4355],
    [11078,1537389628,54.0314,-110.5328,841.0,185.0,89.7,5.9,0.3,10.26,33.69,1.9533,397.9439],
    [11079,1537389629,54.0314,-110.5316,840.5,185.2,89.2,5.0,-0.3,10.25,34.18,1.9522,397.4823],
    [11080,1537389630,54.0314,-110.5303,841.0,187.0,88.2,4.1,-1.6,10.2,34.39,1.9484,395.1559],
    [11081,1537389631,54.0314,-110.529,841.5,188.5,87.7,4.0,-2.1,9.54,34.59,1.9469,395.9232],
    [11082,1537389632,54.0314,-110.5278,841.3,188.7,88.0,4.7,-1.8,9.56,35.1,1.9459,395.4402],
    [11083,1537389633,54.0314,-110.5265,840.7,186.8,88.0,4.7,-1.9,9.93,35.27,1.9464,395.5957],
    [11084,1537389634,54.0314,-110.5253,840.3,185.3,88.7,4.0,-1.3,10.34,34.43,1.9457,395.1975],
    [11085,1537389635,54.0314,-110.524,839.7,183.7,89.0,4.1,-1.5,9.63,34.64,1.9458,395.1975],
    [11086,1537389636,54.0314,-110.5228,839.4,183.5,89.0,4.4,-1.8,10.35,34.58,1.9478,395.5527],
    [11087,1537389637,54.0314,-110.5215,839.2,184.1,89.0,4.7,-2.2,9.9,34.89,1.9477,395.7508],
    [11088,1537389638,54.0314,-110.5202,839.1,186.2,88.5,4.9,-2.8,9.59,34.64,1.9459,395.0253],
    [11089,1537389639,54.0314,-110.519,839.2,187.3,88.7,5.3,-2.4,10.04,34.68,1.9473,395.7674],
    [11090,1537389640,54.0314,-110.5177,839.2,186.2,89.1,5.6,-2.1,10.17,34.21,1.9481,396.0494],
    [11091,1537389641,54.0314,-110.5165,839.8,186.2,89.1,5.4,-2.4,9.76,35.5,1.9484,395.243],
    [11092,1537389642,54.0314,-110.5152,840.2,186.2,88.4,4.1,-3.1,9.79,34.81,1.9471,394.4108],
    [11093,1537389643,54.0314,-110.514,840.2,185.2,90.4,3.8,-0.7,9.65,34.72,1.946,395.5966],
    [11094,1537389644,54.0313,-110.5128,839.7,184.7,90.1,4.3,-1.2,9.32,35.0,1.9457,395.878],
    [11095,1537389645,54.0313,-110.5115,839.0,184.0,89.9,4.5,-1.6,10.05,35.02,1.947,395.2829],
    [11096,1537389646,54.0313,-110.5103,838.9,183.9,89.6,4.6,-1.9,9.28,35.02,1.945,394.7533],
    [11097,1537389647,54.0313,-110.509,839.1,183.1,89.4,5.0,-2.1,10.33,34.81,1.9451,395.0202],
    [11098,1537389648,54.0313,-110.5078,839.3,183.0,89.2,5.0,-2.4,10.15,34.43,1.9476,394.1697],
    [11099,1537389649,54.0313,-110.5065,839.2,182.2,88.9,5.1,-2.6,9.98,35.02,1.9455,394.3361],
    [11100,1537389650,54.0313,-110.5053,839.3,181.3,88.8,5.1,-2.7,9.96,35.04,1.9465,394.7941],
    [11101,1537389651,54.0313,-110.5041,839.9,181.9,88.2,5.1,-3.3,10.07,35.19,1.9468,394.6745],
    [11102,1537389652,54.0313,-110.5028,840.2,181.2,88.6,5.5,-2.6,9.74,35.32,1.9459,395.0955],
    [11103,1537389653,54.0313,-110.5016,839.9,181.7,88.0,5.4,-3.2,9.8,35.23,1.9455,395.438],
    [11104,1537389654,54.0312,-110.5003,839.7,182.8,88.4,4.5,-2.5,9.56,35.42,1.9475,395.0135],
    [11105,1537389655,54.0312,-110.4991,839.4,184.1,89.4,4.3,-1.5,9.32,35.29,1.9463,394.8189],
    [11106,1537389656,54.0312,-110.4978,839.2,184.2,89.4,4.7,-1.6,9.54,35.68,1.9459,393.781],
    [11107,1537389657,54.0312,-110.4966,838.9,185.0,89.4,4.7,-1.7,9.44,35.4,1.946,395.6085],
    [11108,1537389658,54.0312,-110.4954,838.7,186.8,89.2,4.8,-2.0,10.5,35.24,1.9457,395.5336],
    [11109,1537389659,54.0312,-110.4941,839.1,190.8,88.2,5.4,-3.2,9.79,35.69,1.947,394.397],
    [11110,1537389660,54.0312,-110.4929,839.5,194.5,88.3,5.8,-2.9,10.12,34.87,1.9498,394.397],
    [11111,1537389661,54.0312,-110.4917,838.9,194.9,88.9,5.8,-2.3,9.9,35.08,1.9484,395.6927],
    [11112,1537389662,54.0312,-110.4904,838.2,193.2,88.9,5.9,-2.3,9.98,35.46,1.9458,394.2205],
    [11113,1537389663,54.0312,-110.4892,838.1,191.0,89.4,5.4,-1.9,9.8,35.47,1.9455,394.1623],
    [11114,1537389664,54.0312,-110.488,838.8,189.8,88.7,5.4,-3.0,9.83,35.43,1.945,393.8733],
    [11115,1537389665,54.0312,-110.4867,839.4,189.4,88.5,5.6,-3.2,9.99,35.35,1.9464,395.4087],
    [11116,1537389666,54.0311,-110.4855,839.4,190.4,88.9,5.6,-2.9,9.62,35.33,1.9451,395.1409],
    [11117,1537389667,54.0311,-110.4842,839.3,191.6,88.9,5.5,-2.9,9.71,35.41,1.946,394.9103],
    [11118,1537389668,54.0311,-110.483,839.3,193.3,89.2,5.8,-2.5,9.7,35.68,1.9456,396.1456],
    [11119,1537389669,54.0311,-110.4818,839.1,195.0,89.4,6.0,-2.3,9.91,35.68,1.9463,394.6331],
    [11120,1537389670,54.0311,-110.4806,839.0,196.0,88.6,5.8,-3.3,10.41,35.26,1.9468,394.6863],
    [11121,1537389671,54.0311,-110.4794,839.1,196.1,88.6,5.6,-3.2,9.64,35.61,1.9466,395.1177],
    [11122,1537389672,54.0311,-110.4781,839.2,195.3,88.9,5.2,-3.0,10.25,35.12,1.9448,395.624],
    [11123,1537389673,54.0311,-110.4769,839.7,194.9,89.3,4.6,-2.5,9.96,35.2,1.9433,395.624],
    [11124,1537389674,54.031,-110.4756,840.2,195.2,89.4,4.5,-2.4,10.25,35.31,1.9431,394.6529],
    [11125,1537389675,54.031,-110.4744,839.9,195.9,90.0,5.0,-1.8,9.81,35.62,1.9444,396.0356],
    [11126,1537389676,54.031,-110.4733,839.6,195.6,89.8,5.0,-2.0,9.32,35.07,1.944,397.143],
    [11127,1537389677,54.031,-110.4719,839.5,195.5,89.6,4.8,-1.9,10.21,34.57,1.9467,394.9012],
    [11128,1537389678,54.031,-110.4707,839.0,195.0,89.9,4.8,-1.6,9.95,34.81,1.9483,394.9012],
    [11129,1537389679,54.031,-110.4695,839.0,195.0,89.3,5.2,-2.3,9.88,34.94,1.9495,394.9052],
    [11130,1537389680,54.031,-110.4682,840.0,196.0,89.1,5.0,-2.2,10.36,34.34,1.9466,393.8068],
    [11131,1537389681,54.0309,-110.467,840.7,196.7,89.5,4.7,-1.7,10.7,34.78,1.9456,395.0366],
    [11132,1537389682,54.0309,-110.4658,840.2,196.2,89.8,5.3,-1.3,10.17,34.93,1.9471,394.78],
    [11133,1537389683,54.0309,-110.4646,839.1,194.4,88.9,6.3,-2.6,9.66,35.24,1.9456,394.7016],
    [11134,1537389684,54.0309,-110.4633,837.9,192.9,88.4,5.9,-3.1,9.3,35.35,1.9457,394.1489],
    [11135,1537389685,54.0309,-110.4621,836.0,190.3,89.5,5.9,-1.8,9.56,35.15,1.9453,395.8039],
    [11136,1537389686,54.0309,-110.4608,834.4,188.4,89.8,6.3,-1.7,10.7,34.55,1.9438,393.8323],
    [11137,1537389687,54.0309,-110.4596,833.0,187.1,89.0,6.2,-2.7,9.54,35.2,1.9454,395.0173],
    [11138,1537389688,54.0309,-110.4583,831.3,184.6,89.0,5.4,-2.6,9.81,35.73,1.9475,395.0231],
    [11139,1537389689,54.0309,-110.457,829.4,182.4,89.7,5.6,-1.8,10.05,34.53,1.9491,394.3168],
    [11140,1537389690,54.0308,-110.4558,828.2,181.2,89.6,5.3,-2.3,9.88,35.1,1.9493,394.2779],
    [11141,1537389691,54.0308,-110.4545,827.1,179.0,89.3,5.0,-2.5,9.74,34.8,1.9495,395.2931],
    [11142,1537389692,54.0308,-110.4533,826.5,178.6,89.0,4.7,-2.9,9.28,34.98,1.9472,395.1695],
    [11143,1537389693,54.0308,-110.452,825.7,176.6,88.1,3.8,-3.6,10.01,35.07,1.9475,394.527],
    [11144,1537389694,54.0308,-110.4507,824.4,177.3,88.9,3.7,-2.5,9.88,35.7,1.9467,396.0142],
    [11145,1537389695,54.0308,-110.4495,822.7,177.4,88.4,4.0,-3.3,9.98,35.06,1.9484,394.1139],
    [11146,1537389696,54.0308,-110.4482,821.0,174.2,88.7,3.9,-2.7,9.73,34.98,1.9462,394.7635],
    [11147,1537389697,54.0308,-110.447,819.6,170.6,89.7,4.1,-1.4,9.92,35.49,1.9463,393.5915],
    [11148,1537389698,54.0308,-110.4457,818.0,168.0,89.2,4.1,-2.1,9.62,35.06,1.9455,394.419],
    [11149,1537389699,54.0308,-110.4444,816.7,166.7,88.4,4.0,-2.9,9.73,35.19,1.9457,395.0198],
    [11150,1537389700,54.0307,-110.4431,814.9,165.7,88.2,4.4,-3.0,9.79,35.19,1.9448,394.8316],
    [11151,1537389701,54.0307,-110.4418,812.9,163.9,88.3,5.0,-2.6,10.73,34.54,1.9453,394.1427],
    [11152,1537389702,54.0307,-110.4406,810.6,161.6,88.5,5.1,-2.4,10.1,34.78,1.9442,395.0473],
    [11153,1537389703,54.0307,-110.4393,808.5,159.5,87.8,4.9,-3.2,9.9,34.62,1.9443,394.9888],
    [11154,1537389704,54.0307,-110.438,806.5,157.5,88.2,4.9,-2.7,9.31,34.45,1.9455,394.267],
    [11155,1537389705,54.0307,-110.4367,804.9,154.9,88.1,4.8,-2.8,9.64,34.32,1.948,394.267],
    [11156,1537389706,54.0307,-110.4354,803.5,152.5,88.5,5.0,-2.4,9.96,34.05,1.9481,395.9611],
    [11157,1537389707,54.0307,-110.4341,802.4,151.4,88.5,5.1,-2.4,9.52,34.34,1.9479,396.9339],
    [11158,1537389708,54.0307,-110.4328,801.4,150.4,89.1,5.1,-1.6,10.76,33.93,1.9484,394.4332],
    [11159,1537389709,54.0307,-110.4315,799.5,148.5,88.8,4.9,-2.2,10.19,34.75,1.9486,395.2647],
    [11160,1537389710,54.0307,-110.4302,797.4,145.4,88.6,5.0,-2.4,9.81,35.43,1.9493,394.5142],
    [11161,1537389711,54.0307,-110.4289,795.5,142.0,88.5,4.9,-2.7,9.93,35.94,1.9493,394.0841],
    [11162,1537389712,54.0307,-110.4276,794.2,139.1,88.3,4.6,-2.9,9.72,35.3,1.9484,394.482],
    [11163,1537389713,54.0307,-110.4263,793.6,139.6,88.9,4.4,-2.0,9.98,35.37,1.9483,394.3141],
    [11164,1537389714,54.0307,-110.425,793.2,141.2,88.4,3.7,-2.6,10.03,35.16,1.9497,395.2446],
    [11165,1537389715,54.0307,-110.4237,793.0,142.0,87.5,3.7,-3.5,10.59,35.0,1.9491,395.2446],
    [11166,1537389716,54.0307,-110.4224,791.9,140.2,87.2,4.0,-3.7,10.15,35.96,1.9488,393.3951],
    [11167,1537389717,54.0307,-110.4211,790.4,137.7,87.7,4.0,-3.5,10.2,36.04,1.9495,395.0123],
    [11168,1537389718,54.0307,-110.4198,789.3,136.6,87.0,4.0,-4.3,9.67,35.86,1.9488,395.7921],
    [11169,1537389719,54.0307,-110.4185,788.2,137.3,88.3,4.2,-2.4,10.77,35.72,1.9482,395.7921],
    [11170,1537389720,54.0307,-110.4172,787.0,138.0,88.7,3.7,-2.0,10.42,36.05,1.949,394.385],
    [11171,1537389721,54.0307,-110.4159,785.1,137.1,87.5,3.4,-3.2,10.18,36.15,1.9487,394.3806],
    [11172,1537389722,54.0307,-110.4146,783.2,136.2,88.0,3.5,-2.7,10.47,35.53,1.9482,394.3504],
    [11173,1537389723,54.0307,-110.4133,782.4,136.4,87.3,4.0,-3.3,10.42,35.94,1.9487,393.9939],
    [11174,1537389724,54.0307,-110.412,783.8,137.8,87.4,4.7,-3.3,10.06,36.09,1.9497,393.7803],
    [11175,1537389725,54.0307,-110.4107,784.8,138.8,87.8,4.0,-2.9,10.72,35.89,1.9505,394.3251],
    [11176,1537389726,54.0307,-110.4094,785.4,140.4,89.4,3.7,-1.5,10.22,35.98,1.9508,393.7631],
    [11177,1537389727,54.0307,-110.4081,785.7,140.7,89.6,4.4,-1.5,10.4,36.6,1.9509,394.2564],
    [11178,1537389728,54.0307,-110.4068,786.3,141.3,89.2,4.7,-1.9,10.4,36.7,1.9482,393.9551],
    [11179,1537389729,54.0307,-110.4055,787.3,142.3,88.0,3.8,-2.9,10.51,36.77,1.9495,394.0338],
    [11180,1537389730,54.0307,-110.4042,788.2,143.2,87.9,3.5,-2.4,10.39,36.37,1.9491,395.1375],
    [11181,1537389731,54.0307,-110.4029,788.7,144.7,87.7,4.3,-2.5,10.42,36.87,1.9495,393.2421],
    [11182,1537389732,54.0307,-110.4017,789.4,146.4,87.3,4.4,-2.9,10.35,36.3,1.95,392.5235],
    [11183,1537389733,54.0307,-110.4004,790.4,147.4,88.0,4.6,-1.9,10.62,35.88,1.9485,394.0219],
    [11184,1537389734,54.0307,-110.3992,790.9,147.9,88.2,4.7,-1.9,10.32,36.14,1.949,395.148],
    [11185,1537389735,54.0307,-110.3979,792.1,149.1,87.6,4.4,-2.7,11.03,35.7,1.9499,394.2896],
    [11186,1537389736,54.0307,-110.3966,793.4,151.4,87.9,4.7,-2.4,10.26,36.75,1.9511,394.2542],
    [11187,1537389737,54.0307,-110.3953,795.1,155.4,87.9,4.4,-2.2,11.16,35.78,1.9492,393.2416],
    [11188,1537389738,54.0307,-110.3941,796.6,160.8,87.9,4.2,-2.5,10.57,35.92,1.9499,392.3753],
    [11189,1537389739,54.0307,-110.3929,797.4,163.4,87.0,4.2,-3.4,10.16,36.33,1.948,392.5741],
    [11190,1537389740,54.0308,-110.3916,797.7,164.9,87.0,4.2,-3.3,9.7,36.26,1.9476,394.4076],
    [11191,1537389741,54.0308,-110.3903,798.4,166.5,86.8,4.2,-3.5,10.44,35.79,1.9484,394.7117],
    [11192,1537389742,54.0308,-110.3891,799.4,165.4,87.3,4.5,-3.1,10.3,36.17,1.9479,393.5089],
    [11193,1537389743,54.0308,-110.3878,800.5,164.5,87.1,4.7,-3.4,10.33,36.02,1.9465,394.5737],
    [11194,1537389744,54.0308,-110.3866,801.3,160.5,87.2,4.8,-3.2,11.02,35.5,1.9488,391.9905],
    [11195,1537389745,54.0308,-110.3853,801.4,157.4,87.7,4.8,-2.6,10.38,36.25,1.9505,394.8447],
    [11196,1537389746,54.0308,-110.3841,800.9,154.2,87.9,4.5,-2.1,10.67,35.89,1.9504,395.2057],
    [11197,1537389747,54.0308,-110.3829,800.0,152.0,88.0,4.4,-2.4,10.21,36.19,1.9497,394.5935],
    [11198,1537389748,54.0308,-110.3816,799.4,150.3,87.1,3.9,-3.3,10.16,36.26,1.9502,394.6526],
    [11199,1537389749,54.0308,-110.3804,799.1,149.7,87.6,2.9,-2.8,9.66,36.27,1.9511,394.9663],
    [11200,1537389750,54.0308,-110.3791,798.8,148.6,87.8,2.2,-2.5,10.59,35.84,1.9517,395.1676],
    [11201,1537389751,54.0308,-110.3779,799.5,147.5,88.3,2.4,-1.9,10.43,37.24,1.9493,393.6748],
    [11202,1537389752,54.0308,-110.3766,799.4,146.5,88.3,4.1,-2.1,10.6,36.33,1.9494,393.9557],
    [11203,1537389753,54.0308,-110.3755,798.5,143.5,87.5,4.2,-3.0,11.09,35.96,1.949,394.3939],
    [11204,1537389754,54.0308,-110.3741,797.8,141.8,88.5,3.9,-2.1,10.03,36.45,1.9485,393.7213],
    [11205,1537389755,54.0308,-110.3729,797.3,143.4,89.1,4.1,-1.9,10.33,36.65,1.9492,393.0367],
    [11206,1537389756,54.0308,-110.3717,797.2,147.5,89.1,4.0,-2.0,10.37,37.33,1.9487,394.222],
    [11207,1537389757,54.0308,-110.3704,797.6,152.2,89.0,4.3,-2.0,10.47,36.59,1.95,393.9426],
    [11208,1537389758,54.0308,-110.3692,798.4,155.1,88.5,4.3,-2.4,10.42,37.16,1.9497,393.8673],
    [11209,1537389759,54.0308,-110.3679,798.9,155.5,88.0,4.2,-2.7,10.21,36.62,1.9506,393.8673],
    [11210,1537389760,54.0308,-110.3667,799.7,156.4,87.3,4.4,-3.0,10.89,36.27,1.9498,393.992],
    [11211,1537389761,54.0308,-110.3655,800.2,155.9,87.0,4.0,-3.1,10.76,36.23,1.9498,393.992],
    [11212,1537389762,54.0308,-110.3643,800.7,155.7,87.2,3.6,-2.9,11.26,36.04,1.9485,394.5893],
    [11213,1537389763,54.0308,-110.363,801.5,153.8,88.1,3.3,-1.7,10.26,36.49,1.9487,394.2733],
    [11214,1537389764,54.0308,-110.3618,802.5,151.7,88.2,3.4,-1.9,11.12,36.14,1.9487,392.968],
    [11215,1537389765,54.0308,-110.3606,804.1,151.1,87.9,3.5,-2.1,10.58,36.3,1.9487,394.0578],
    [11216,1537389766,54.0308,-110.3594,804.2,150.2,87.7,3.0,-2.4,10.24,36.8,1.9499,393.9583],
    [11217,1537389767,54.0308,-110.3581,804.6,150.6,86.9,2.1,-3.0,10.31,37.5,1.9494,393.6546],
    [11218,1537389768,54.0309,-110.3569,806.9,151.8,86.7,2.0,-2.1,10.16,36.64,1.9489,393.2065],
    [11219,1537389769,54.0309,-110.3557,810.1,152.9,86.2,2.3,-2.2,10.73,36.42,1.9483,393.2081],
    [11220,1537389770,54.0309,-110.3545,812.2,151.1,86.1,3.2,-1.5,10.37,37.02,1.9483,393.3081],
    [11221,1537389771,54.0309,-110.3533,813.5,149.1,86.6,2.6,-0.5,10.76,36.36,1.949,394.3339],
    [11222,1537389772,54.031,-110.3521,813.9,150.5,84.4,2.0,-3.0,10.27,36.51,1.9466,393.221],
    [11223,1537389773,54.031,-110.3509,813.9,153.7,84.5,2.1,-2.1,9.86,36.24,1.9462,393.221],
    [11224,1537389774,54.0311,-110.3497,813.0,153.6,85.6,2.6,-1.5,10.46,37.19,1.947,393.2313],
    [11225,1537389775,54.0311,-110.3484,811.6,153.6,84.5,2.7,-3.1,10.58,35.91,1.9471,394.0444],
    [11226,1537389776,54.0311,-110.3473,810.1,153.0,86.0,2.7,-2.0,10.39,36.44,1.949,393.9836],
    [11227,1537389777,54.0312,-110.346,809.7,154.7,87.0,2.9,-1.7,9.95,36.18,1.9498,393.3688],
    [11228,1537389778,54.0312,-110.3448,809.8,155.8,87.8,3.4,-1.4,10.81,35.45,1.9481,392.6638],
    [11229,1537389779,54.0312,-110.3435,809.6,154.6,88.4,3.1,-1.3,11.04,35.64,1.9479,392.976],
    [11230,1537389780,54.0312,-110.3423,809.3,154.2,89.0,2.3,-1.2,10.35,36.54,1.9491,393.5766],
    [11231,1537389781,54.0312,-110.3411,809.4,155.4,88.4,2.8,-1.9,10.43,36.66,1.9487,392.1092],
    [11232,1537389782,54.0312,-110.3399,809.5,156.5,89.6,4.2,0.0,10.3,35.97,1.9477,393.6258],
    [11233,1537389783,54.0312,-110.3386,809.6,157.6,89.1,4.4,-0.1,10.39,35.92,1.9484,392.9556],
    [11234,1537389784,54.0312,-110.3374,809.7,158.4,88.9,4.2,0.4,9.99,35.92,1.9486,393.0764],
    [11235,1537389785,54.0313,-110.3361,809.2,158.2,88.5,3.0,0.6,10.43,36.41,1.9485,393.0764],
    [11236,1537389786,54.0313,-110.3349,810.2,158.2,87.4,2.0,0.2,10.9,35.25,1.9501,392.8324],
    [11237,1537389787,54.0313,-110.3337,811.7,158.7,87.3,3.3,0.5,11.2,35.64,1.9502,393.2649],
    [11238,1537389788,54.0314,-110.3325,812.5,157.5,86.3,5.1,0.0,10.41,35.99,1.9484,393.5724],
    [11239,1537389789,54.0314,-110.3312,812.4,155.5,86.8,3.6,1.0,10.32,35.84,1.9493,393.5724],
    [11240,1537389790,54.0315,-110.33,812.3,152.4,87.4,2.6,2.3,9.74,35.73,1.9473,394.2254],
    [11241,1537389791,54.0315,-110.3288,812.9,150.9,89.0,3.3,4.3,11.23,35.3,1.9463,392.4447],
    [11242,1537389792,54.0316,-110.3275,812.4,149.5,87.7,3.6,2.5,10.97,35.36,1.9461,392.9354],
    [11243,1537389793,54.0316,-110.3263,811.5,147.6,86.7,3.6,2.0,10.54,36.34,1.9464,392.6351],
    [11244,1537389794,54.0317,-110.325,811.0,145.7,87.3,3.7,3.3,10.5,35.42,1.9473,392.9995],
    [11245,1537389795,54.0317,-110.3238,810.3,144.3,87.0,3.9,3.2,10.28,35.44,1.9472,393.2552],
    [11246,1537389796,54.0318,-110.3225,809.1,145.3,86.7,3.3,2.8,10.6,35.52,1.946,393.1409],
    [11247,1537389797,54.0319,-110.3212,808.2,147.2,86.6,2.8,2.6,10.52,35.2,1.9466,392.427],
    [11248,1537389798,54.0319,-110.32,807.7,147.7,87.2,2.8,3.4,10.52,36.08,1.9467,392.539],
    [11249,1537389799,54.032,-110.3187,807.5,148.5,87.0,3.4,3.0,10.61,35.39,1.9466,392.1947],
    [11250,1537389800,54.0321,-110.3175,808.3,149.3,86.8,3.1,2.8,11.28,34.48,1.9471,392.9668],
    [11251,1537389801,54.0321,-110.3162,808.9,150.9,87.0,2.5,3.1,10.85,34.68,1.9463,393.2085],
    [11252,1537389802,54.0322,-110.315,808.5,151.5,87.2,0.6,3.4,11.28,34.37,1.947,392.9798],
    [11253,1537389803,54.0323,-110.3137,809.1,153.2,86.6,1.0,2.8,10.18,34.81,1.948,393.0565],
    [11254,1537389804,54.0323,-110.3125,810.2,155.2,85.1,2.0,1.9,10.46,35.03,1.9481,393.6833],
    [11255,1537389805,54.0324,-110.3112,810.4,155.4,85.9,2.3,3.5,10.52,34.81,1.9476,392.9963],
    [11256,1537389806,54.0325,-110.31,809.5,154.5,86.3,3.0,3.8,10.33,34.96,1.9475,393.4984],
    [11257,1537389807,54.0326,-110.3087,808.6,153.9,85.8,3.6,3.1,10.12,35.31,1.9497,393.855],
    [11258,1537389808,54.0327,-110.3075,808.2,153.5,86.1,3.9,3.1,10.05,35.21,1.9474,391.3212],
    [11259,1537389809,54.0327,-110.3062,807.9,153.0,86.4,3.6,3.0,10.38,35.05,1.9479,392.447],
    [11260,1537389810,54.0328,-110.305,807.5,151.5,87.0,3.4,3.1,10.56,34.77,1.9492,391.8848],
    [11261,1537389811,54.0329,-110.3038,807.4,151.4,87.6,2.9,3.4,10.31,34.87,1.9481,392.9886],
    [11262,1537389812,54.0329,-110.3025,807.2,151.2,87.5,2.9,3.1,10.45,35.65,1.9472,392.744],
    [11263,1537389813,54.033,-110.3013,807.0,149.0,87.5,2.9,3.1,10.58,34.97,1.9475,393.0867],
    [11264,1537389814,54.033,-110.3,807.0,148.0,87.7,3.0,3.7,10.86,34.31,1.9461,392.7349],
    [11265,1537389815,54.0331,-110.2988,807.3,148.3,87.3,3.3,3.1,11.22,34.44,1.9467,392.7349],
    [11266,1537389816,54.0332,-110.2975,807.9,149.9,86.6,3.3,2.5,10.46,34.91,1.9477,393.6731],
    [11267,1537389817,54.0332,-110.2963,808.9,150.9,87.2,3.9,3.1,11.42,34.14,1.9467,392.1585],
    [11268,1537389818,54.0333,-110.2951,809.5,150.5,87.3,4.1,3.1,10.54,35.01,1.947,393.1953],
    [11269,1537389819,54.0333,-110.2939,809.9,149.8,86.8,3.0,2.5,10.52,35.35,1.9475,392.7602],
    [11270,1537389820,54.0334,-110.2927,810.1,149.0,86.4,2.4,2.1,10.06,34.94,1.9479,392.4768],
    [11271,1537389821,54.0335,-110.2914,811.1,148.3,86.3,3.0,2.7,10.59,35.15,1.9458,392.9001],
    [11272,1537389822,54.0335,-110.2902,812.1,148.8,86.5,2.7,3.3,10.82,33.92,1.9462,392.9001],
    [11273,1537389823,54.0336,-110.2889,813.5,150.5,85.8,2.8,2.4,11.01,34.22,1.9476,392.0873],
    [11274,1537389824,54.0337,-110.2878,813.8,150.8,86.5,2.9,2.5,10.57,34.45,1.9472,392.13],
    [11275,1537389825,54.0337,-110.2865,812.7,148.7,88.2,3.2,3.6,10.92,34.76,1.9465,390.9762],
    [11276,1537389826,54.0338,-110.2853,812.7,148.7,88.2,3.7,2.6,10.3,34.79,1.9459,391.9244],
    [11277,1537389827,54.0338,-110.284,812.7,148.7,88.4,3.6,2.9,10.32,34.89,1.948,392.2443],
    [11278,1537389828,54.0339,-110.2827,811.3,147.0,89.8,3.8,4.5,10.16,34.85,1.9465,391.7915],
    [11279,1537389829,54.0339,-110.2814,809.6,143.7,89.4,4.1,4.5,10.35,34.93,1.9469,393.0618],
    [11280,1537389830,54.034,-110.2802,808.6,141.5,89.0,3.1,4.5,10.73,34.5,1.9478,392.6372],
    [11281,1537389831,54.034,-110.2789,808.3,138.6,88.4,2.8,4.6,10.5,35.49,1.9496,392.6372],
    [11282,1537389832,54.0341,-110.2777,807.9,137.0,87.4,3.4,3.6,10.81,34.31,1.9465,393.0056],
    [11283,1537389833,54.0342,-110.2764,806.9,136.0,86.0,3.1,2.7,10.43,34.76,1.9471,392.9256],
    [11284,1537389834,54.0342,-110.2752,806.8,137.9,86.3,3.2,3.4,11.33,34.37,1.946,392.9256],
    [11285,1537389835,54.0343,-110.2739,807.5,138.4,85.9,3.5,2.7,10.74,34.87,1.9465,392.9096],
    [11286,1537389836,54.0344,-110.2727,807.3,138.0,85.1,3.8,1.9,10.53,34.9,1.9466,392.9005],
    [11287,1537389837,54.0345,-110.2714,807.5,139.5,85.8,3.8,2.6,10.32,34.35,1.9453,393.5303],
    [11288,1537389838,54.0345,-110.2702,808.3,140.3,85.6,3.3,2.1,10.16,34.99,1.9463,391.924],
    [11289,1537389839,54.0346,-110.2689,808.9,139.9,86.7,3.8,3.1,10.63,34.82,1.946,392.7346],
    [11290,1537389840,54.0347,-110.2677,809.2,139.0,86.8,3.8,2.7,10.46,34.47,1.9462,392.1863],
    [11291,1537389841,54.0347,-110.2665,809.9,140.8,86.8,3.5,2.8,10.51,34.98,1.9471,392.5042],
    [11292,1537389842,54.0348,-110.2652,810.9,141.9,87.0,2.9,2.5,10.54,34.18,1.946,392.5042],
    [11293,1537389843,54.0349,-110.264,811.9,142.3,84.6,2.2,-0.1,10.69,34.12,1.9473,392.6661],
    [11294,1537389844,54.0349,-110.2627,811.5,140.6,85.9,2.2,2.1,10.41,34.57,1.9475,392.9681],
    [11295,1537389845,54.035,-110.2615,810.6,139.6,86.4,2.9,3.5,10.5,34.72,1.9486,391.8543],
    [11296,1537389846,54.0351,-110.2602,810.6,138.5,86.5,2.3,3.4,10.61,35.29,1.9489,391.8543],
    [11297,1537389847,54.0352,-110.259,811.2,137.2,86.1,1.5,3.0,10.25,34.55,1.9489,394.1047],
    [11298,1537389848,54.0352,-110.2577,812.3,135.7,86.6,1.9,3.3,10.27,34.76,1.9484,393.0615],
    [11299,1537389849,54.0353,-110.2565,812.2,136.2,87.1,2.1,3.7,10.09,34.77,1.9502,392.6515],
    [11300,1537389850,54.0354,-110.2553,811.4,136.3,87.4,2.7,3.7,10.48,34.77,1.9486,392.4827],
    [11301,1537389851,54.0354,-110.254,810.7,136.7,86.5,3.1,2.8,10.68,34.58,1.9483,396.1093],
    [11302,1537389852,54.0355,-110.2528,809.6,135.6,88.0,2.7,4.6,10.18,34.62,1.9486,396.1093],
    [11303,1537389853,54.0356,-110.2515,808.6,134.6,87.6,3.4,3.7,10.34,34.34,1.9473,393.6586],
    [11304,1537389854,54.0356,-110.2503,808.1,135.4,86.7,4.8,3.1,10.49,34.27,1.9481,391.1771],
    [11305,1537389855,54.0357,-110.249,807.4,135.3,87.3,4.9,3.5,10.54,34.56,1.949,393.1815],
    [11306,1537389856,54.0358,-110.2478,806.5,134.3,85.6,4.9,1.4,10.03,34.46,1.9492,394.6119],
    [11307,1537389857,54.0358,-110.2465,805.9,132.9,86.4,4.7,2.2,10.06,33.97,1.9481,393.6191],
    [11308,1537389858,54.0359,-110.2452,806.1,132.1,86.5,4.6,2.2,9.98,34.16,1.9494,393.2224],
    [11309,1537389859,54.0359,-110.244,807.3,133.1,85.8,5.1,1.5,10.47,34.35,1.9503,393.2224],
    [11310,1537389860,54.036,-110.2428,808.4,134.4,86.9,5.1,3.0,9.97,34.53,1.9482,392.0382],
    [11311,1537389861,54.0361,-110.2415,808.5,136.5,88.8,5.0,4.5,10.5,34.9,1.9479,393.0401],
    [11312,1537389862,54.0361,-110.2403,809.7,138.7,88.2,4.6,3.0,10.54,34.62,1.9488,394.4492],
    [11313,1537389863,54.0362,-110.2391,810.5,139.5,89.2,4.7,3.6,10.07,34.69,1.9486,393.0942],
    [11314,1537389864,54.0362,-110.2378,811.4,140.4,89.1,6.0,2.7,10.39,34.62,1.9487,393.5093],
    [11315,1537389865,54.0362,-110.2365,812.3,140.6,89.2,5.6,2.9,10.88,34.95,1.9489,393.1265],
    [11316,1537389866,54.0363,-110.2352,812.0,139.0,89.9,5.4,3.9,10.34,34.86,1.9487,393.2462],
    [11317,1537389867,54.0363,-110.234,811.9,137.0,89.2,5.0,4.2,10.18,35.33,1.9489,393.149],
    [11318,1537389868,54.0364,-110.2327,812.5,134.2,88.1,4.7,3.6,11.15,34.12,1.9479,391.8966],
    [11319,1537389869,54.0364,-110.2315,811.6,130.3,86.2,4.9,2.6,11.04,34.09,1.948,391.9294],
    [11320,1537389870,54.0365,-110.2302,810.1,129.1,86.3,5.5,4.1,10.49,34.79,1.9479,391.9294],
    [11321,1537389871,54.0366,-110.2289,809.3,128.9,85.3,5.3,3.8,11.26,34.32,1.9493,392.4047],
    [11322,1537389872,54.0367,-110.2276,808.8,127.8,85.0,4.1,4.0,10.6,35.53,1.9506,393.5203],
    [11323,1537389873,54.0368,-110.2264,808.1,127.1,84.5,2.9,2.6,10.5,35.53,1.9517,390.8155],
    [11324,1537389874,54.0369,-110.2251,809.8,129.9,83.6,1.6,0.5,10.28,34.95,1.9544,393.0131],
    [11325,1537389875,54.037,-110.2238,811.9,132.9,87.9,2.1,4.5,10.54,35.83,1.9544,393.2503],
    [11326,1537389876,54.037,-110.2226,813.3,134.3,90.1,2.8,5.5,10.45,35.69,1.954,394.0115],
    [11327,1537389877,54.0371,-110.2213,813.0,133.0,91.4,3.2,6.0,10.14,35.72,1.954,393.7696],
    [11328,1537389878,54.0371,-110.22,812.4,131.3,91.8,3.1,5.8,10.46,35.78,1.9533,392.4401],
    [11329,1537389879,54.0371,-110.2188,812.6,130.6,91.8,2.8,6.1,10.51,36.03,1.952,393.5643],
    [11330,1537389880,54.0371,-110.2175,812.7,132.8,91.2,3.4,5.6,10.64,35.97,1.9537,393.1116],
    [11331,1537389881,54.0372,-110.2162,812.6,132.6,89.1,3.9,4.2,10.17,36.02,1.9552,393.4865],
    [11332,1537389882,54.0372,-110.215,811.8,131.8,89.1,3.6,5.8,11.25,35.32,1.9556,392.3591],
    [11333,1537389883,54.0373,-110.2137,810.6,129.3,87.5,3.8,5.4,10.57,35.81,1.9538,394.1385],
    [11334,1537389884,54.0374,-110.2125,809.7,127.7,85.6,4.0,4.9,10.25,36.33,1.9536,393.0929],
    [11335,1537389885,54.0375,-110.2112,810.2,127.9,83.4,3.3,3.8,10.46,36.34,1.9527,392.8089],
    [11336,1537389886,54.0376,-110.2099,810.7,125.8,83.5,3.6,4.7,10.22,36.51,1.9545,392.8089],
    [11337,1537389887,54.0378,-110.2087,811.1,127.8,83.0,3.8,4.2,10.4,37.16,1.9523,393.4127],
    [11338,1537389888,54.0379,-110.2074,811.6,128.6,83.4,3.6,4.0,10.71,36.2,1.9523,393.0778],
    [11339,1537389889,54.038,-110.2062,812.5,130.5,84.1,4.0,4.0,10.28,36.55,1.9512,392.6476],
    [11340,1537389890,54.0381,-110.2049,813.7,134.6,85.0,4.6,4.4,10.47,36.35,1.9511,392.8581],
    [11341,1537389891,54.0382,-110.2036,814.5,136.8,85.9,4.8,4.9,10.05,36.55,1.9516,392.4692],
    [11342,1537389892,54.0383,-110.2025,815.2,138.4,86.6,4.4,5.1,10.18,36.56,1.9524,392.0909],
    [11343,1537389893,54.0384,-110.2012,816.2,142.2,87.3,4.2,5.4,10.34,36.43,1.9528,393.0158],
    [11344,1537389894,54.0385,-110.1999,817.1,144.1,87.8,4.2,5.4,10.32,36.65,1.951,393.4743],
    [11345,1537389895,54.0385,-110.1987,817.9,146.0,87.5,4.3,4.7,10.33,36.78,1.9518,393.134],
    [11346,1537389896,54.0386,-110.1974,818.7,147.4,86.8,4.4,3.9,9.6,36.59,1.9531,392.4094],
    [11347,1537389897,54.0387,-110.1962,819.4,149.4,86.7,3.9,4.2,10.12,36.78,1.9533,393.62],
    [11348,1537389898,54.0388,-110.195,820.5,150.6,86.0,2.4,4.0,10.44,36.42,1.9516,392.6575],
    [11349,1537389899,54.0388,-110.1937,823.3,151.3,84.4,1.2,2.3,10.99,36.34,1.9511,392.6575],
    [11350,1537389900,54.0389,-110.1925,826.3,154.1,84.2,1.9,2.7,10.31,36.96,1.9523,393.2477],
    [11351,1537389901,54.039,-110.1913,828.4,156.0,84.5,2.9,3.4,10.32,37.33,1.9517,393.9569],
    [11352,1537389902,54.0391,-110.1901,830.4,160.1,83.7,3.1,2.2,10.37,37.77,1.9516,393.9569],
    [11353,1537389903,54.0392,-110.1888,831.9,159.6,83.0,3.7,0.8,9.78,37.48,1.9499,392.3433],
    [11354,1537389904,54.0393,-110.1876,832.8,160.5,83.9,4.1,1.0,10.74,37.0,1.9491,392.9515],
    [11355,1537389905,54.0394,-110.1864,833.4,161.0,84.5,4.0,0.6,10.01,37.95,1.9481,389.7289],
    [11356,1537389906,54.0394,-110.1852,833.9,159.0,86.1,3.3,1.1,10.29,37.46,1.9469,393.1495],
    [11357,1537389907,54.0395,-110.184,834.7,161.7,87.1,3.5,1.4,10.14,37.43,1.9456,392.6361],
    [11358,1537389908,54.0395,-110.1827,835.6,161.6,87.9,3.6,1.7,10.21,36.9,1.9476,391.6462],
    [11359,1537389909,54.0396,-110.1815,836.3,165.1,88.4,3.5,2.1,10.24,36.84,1.9473,391.669],
    [11360,1537389910,54.0396,-110.1803,837.1,168.1,88.2,3.0,1.6,10.08,36.51,1.9472,391.7173],
    [11361,1537389911,54.0397,-110.1791,838.3,171.3,87.7,2.3,1.4,10.75,35.63,1.9504,393.1528],
    [11362,1537389912,54.0397,-110.1779,839.8,172.8,88.2,2.6,2.4,10.34,36.41,1.9496,393.7212],
    [11363,1537389913,54.0397,-110.1767,839.8,171.6,88.6,3.0,3.1,10.33,36.14,1.9487,392.6156],
    [11364,1537389914,54.0398,-110.1755,839.5,167.9,88.0,3.6,2.9,10.23,36.1,1.9496,392.8462],
    [11365,1537389915,54.0398,-110.1743,839.3,166.3,88.0,3.6,3.3,10.56,35.56,1.9505,392.8832],
    [11366,1537389916,54.0399,-110.1731,839.3,163.9,87.3,3.7,2.8,10.94,35.72,1.951,393.1961],
    [11367,1537389917,54.04,-110.1719,838.9,156.8,86.7,3.9,2.6,10.77,35.44,1.9514,391.9369],
    [11368,1537389918,54.04,-110.1707,839.2,154.5,85.5,4.0,1.6,10.83,35.94,1.9519,392.9322],
    [11369,1537389919,54.0401,-110.1695,839.5,153.5,84.8,3.9,0.8,9.51,36.37,1.9485,393.9621],
    [11370,1537389920,54.0402,-110.1683,839.4,152.4,84.7,3.4,0.9,10.62,36.1,1.9493,393.7323],
    [11371,1537389921,54.0402,-110.1671,839.6,152.6,84.5,2.9,0.1,9.45,36.59,1.9509,392.5751],
    [11372,1537389922,54.0403,-110.166,840.1,153.1,84.3,2.8,-0.2,10.19,36.07,1.9498,393.8617],
    [11373,1537389923,54.0404,-110.1647,840.2,153.2,86.6,3.3,1.9,10.87,36.26,1.9486,394.3317],
    [11374,1537389924,54.0404,-110.1635,840.0,152.7,86.8,3.7,1.4,10.0,36.81,1.9498,392.4285],
    [11375,1537389925,54.0405,-110.1623,839.9,151.9,88.0,2.7,2.2,10.18,36.84,1.9505,394.0036],
    [11376,1537389926,54.0405,-110.1611,840.4,152.4,87.9,1.8,1.3,10.05,36.99,1.9508,392.4297],
    [11377,1537389927,54.0405,-110.1598,840.6,152.6,88.2,2.4,2.0,9.79,37.1,1.9516,394.7372],
    [11378,1537389928,54.0406,-110.1587,840.6,152.6,88.1,2.3,1.9,9.62,37.35,1.949,393.4415],
    [11379,1537389929,54.0406,-110.1575,840.4,152.4,87.0,1.9,0.8,10.22,37.21,1.9488,391.1172],
    [11380,1537389930,54.0407,-110.1563,840.9,152.9,87.5,2.4,1.3,10.18,37.47,1.9466,391.8485],
    [11381,1537389931,54.0407,-110.155,841.3,154.3,87.6,3.1,1.0,9.62,37.49,1.9456,393.3631],
    [11382,1537389932,54.0407,-110.1538,841.0,153.0,86.7,3.2,-0.2,10.21,37.25,1.9453,392.0274],
    [11383,1537389933,54.0408,-110.1526,840.5,152.5,86.9,2.9,0.1,10.4,37.49,1.9471,392.7235],
    [11384,1537389934,54.0408,-110.1514,840.9,152.9,87.5,2.3,1.1,10.69,36.66,1.9507,392.7235],
    [11385,1537389935,54.0408,-110.1502,840.7,153.7,88.4,2.6,1.7,10.02,37.18,1.9498,394.4576],
    [11386,1537389936,54.0409,-110.1491,840.1,154.1,87.3,2.5,0.2,9.92,36.82,1.9484,392.22],
    [11387,1537389937,54.0409,-110.1478,839.8,154.8,87.6,1.9,0.6,9.88,36.96,1.9477,393.9569],
    [11388,1537389938,54.0409,-110.1466,840.0,154.3,88.3,2.3,1.4,9.96,37.45,1.947,392.2909],
    [11389,1537389939,54.041,-110.1454,839.9,153.9,88.3,2.6,1.3,10.49,36.17,1.9434,392.6723],
    [11390,1537389940,54.041,-110.1442,839.9,153.9,87.6,2.1,0.6,9.67,36.63,1.9498,393.2253],
    [11391,1537389941,54.041,-110.143,840.0,153.0,87.7,2.1,1.0,9.97,36.35,1.9495,393.2253],
    [11392,1537389942,54.0411,-110.1418,840.1,152.1,87.4,2.5,0.4,10.75,36.05,1.9478,393.3053],
    [11393,1537389943,54.0411,-110.1405,840.0,153.0,86.3,2.9,-0.8,10.46,35.46,1.9449,392.3805],
    [11394,1537389944,54.0412,-110.1393,839.7,153.7,86.5,3.0,-0.5,10.77,35.5,1.945,394.0935],
    [11395,1537389945,54.0412,-110.1381,839.1,153.1,87.3,2.7,0.2,9.89,35.7,1.9457,391.5945],
    [11396,1537389946,54.0412,-110.1369,839.1,153.1,87.8,2.1,0.7,9.34,35.45,1.9562,392.9087],
    [11397,1537389947,54.0413,-110.1357,839.8,153.8,88.0,2.0,0.9,9.75,35.35,1.9581,393.4633],
    [11398,1537389948,54.0413,-110.1345,840.5,155.5,88.1,1.9,1.1,10.42,35.24,1.9581,395.1352],
    [11399,1537389949,54.0413,-110.1333,840.9,157.0,88.3,1.8,1.4,10.54,36.02,1.9578,393.7972],
    [11400,1537389950,54.0414,-110.1321,841.0,157.0,88.5,1.9,1.7,10.03,36.5,1.9556,393.2007],
    [11401,1537389951,54.0414,-110.1309,840.3,157.1,87.9,2.0,1.0,9.68,36.87,1.9557,392.71],
    [11402,1537389952,54.0414,-110.1297,839.9,157.6,87.4,2.2,0.7,9.92,37.39,1.9541,393.8681],
    [11403,1537389953,54.0415,-110.1285,840.0,157.9,87.3,2.3,0.8,9.45,36.93,1.9529,394.55],
    [11404,1537389954,54.0415,-110.1273,840.2,158.9,87.2,2.3,0.9,9.42,37.25,1.9552,394.7361],
    [11405,1537389955,54.0415,-110.1261,840.3,159.3,87.5,2.0,1.2,10.42,36.6,1.958,392.7639],
    [11406,1537389956,54.0416,-110.1249,840.1,158.1,87.6,2.0,1.4,10.15,37.88,1.959,393.8973],
    [11407,1537389957,54.0416,-110.1236,839.7,155.6,87.7,2.0,1.5,9.91,38.16,1.9583,392.8458],
    [11408,1537389958,54.0417,-110.1224,839.7,153.2,87.6,2.1,1.3,10.71,37.2,1.9595,394.2523],
    [11409,1537389959,54.0417,-110.1212,839.8,151.8,87.3,2.4,1.2,10.26,38.1,1.9596,393.5428],
    [11410,1537389960,54.0418,-110.12,839.8,151.6,87.6,2.7,1.4,9.85,38.78,1.9595,394.1983],
    [11411,1537389961,54.0418,-110.1188,839.5,150.6,87.1,2.8,0.7,9.71,39.06,1.9584,391.9122],
    [11412,1537389962,54.0418,-110.1176,839.4,149.5,87.1,2.8,0.5,9.84,39.39,1.9581,393.8955],
    [11413,1537389963,54.0419,-110.1164,839.3,148.2,87.9,3.0,1.1,9.82,39.42,1.9588,393.7437],
    [11414,1537389964,54.0419,-110.1153,839.4,148.4,88.3,2.7,1.2,9.41,39.34,1.9587,392.2891],
    [11415,1537389965,54.0419,-110.114,839.6,150.6,88.8,2.4,1.4,9.68,39.34,1.9576,392.8023],
    [11416,1537389966,54.042,-110.1128,839.8,150.8,89.2,2.3,1.5,9.8,39.98,1.9593,392.7263],
    [11417,1537389967,54.042,-110.1116,840.1,150.1,89.2,2.5,1.3,9.22,39.78,1.9581,394.5094],
    [11418,1537389968,54.042,-110.1104,840.4,149.4,89.3,2.7,1.4,9.81,40.38,1.959,394.5094],
    [11419,1537389969,54.042,-110.1092,840.6,149.6,89.3,2.8,1.3,9.64,39.84,1.9603,394.6307],
    [11420,1537389970,54.042,-110.1081,840.7,148.0,89.3,2.8,1.3,9.57,39.99,1.9603,393.3132],
    [11421,1537389971,54.0421,-110.1068,840.7,146.4,89.3,2.9,1.4,9.41,39.93,1.9591,391.3408],
    [11422,1537389972,54.0421,-110.1056,840.5,145.5,89.2,2.9,1.4,9.34,40.4,1.9559,393.6144],
    [11423,1537389973,54.0421,-110.1044,840.7,146.7,88.8,2.9,0.9,9.81,40.69,1.9536,393.6144],
    [11424,1537389974,54.0421,-110.1033,840.4,147.4,88.5,2.9,0.7,9.8,40.1,1.9558,393.1747],
    [11425,1537389975,54.0422,-110.102,839.8,147.8,88.9,2.9,1.2,9.41,40.25,1.9553,391.4484],
    [11426,1537389976,54.0422,-110.1008,839.5,149.5,89.1,2.8,1.3,9.48,39.92,1.9565,391.4484],
    [11427,1537389977,54.0422,-110.0996,839.2,150.2,88.9,2.6,1.2,9.16,39.74,1.9544,393.7317],
    [11428,1537389978,54.0422,-110.0984,839.2,151.1,89.2,2.9,1.5,9.24,39.67,1.954,393.1477],
    [11429,1537389979,54.0422,-110.0972,839.4,152.4,88.8,2.9,1.0,9.69,39.51,1.9543,393.2964],
    [11430,1537389980,54.0423,-110.096,839.7,153.7,89.0,2.9,1.3,10.09,39.33,1.9532,391.8361],
    [11431,1537389981,54.0423,-110.0948,839.9,155.6,89.1,2.9,1.4,9.54,39.4,1.953,394.3519],
    [11432,1537389982,54.0423,-110.0936,839.9,155.9,89.2,3.0,1.5,9.92,38.86,1.9508,393.6766],
    [11433,1537389983,54.0423,-110.0924,839.8,154.4,89.2,3.0,1.4,9.26,38.66,1.9513,391.3659],
    [11434,1537389984,54.0424,-110.0912,839.6,152.7,89.1,3.2,1.3,9.6,38.43,1.9514,394.4371],
    [11435,1537389985,54.0424,-110.0899,839.4,151.5,89.2,3.4,1.3,9.6,38.12,1.9507,393.1636],
    [11436,1537389986,54.0424,-110.0887,839.2,150.9,89.4,3.6,1.4,10.42,37.39,1.9514,393.1103],
    [11437,1537389987,54.0424,-110.0875,839.1,151.5,89.5,3.7,1.5,9.9,37.56,1.952,393.8005],
    [11438,1537389988,54.0424,-110.0863,839.0,153.0,89.6,3.5,1.5,9.71,38.14,1.9503,393.0597],
    [11439,1537389989,54.0425,-110.0851,839.2,154.7,89.7,3.4,1.6,9.17,37.24,1.9507,393.9821],
    [11440,1537389990,54.0425,-110.0839,839.4,158.7,89.9,3.5,1.7,9.31,37.3,1.9506,393.8497],
    [11441,1537389991,54.0425,-110.0827,839.3,161.9,89.8,3.8,1.5,9.52,37.64,1.9467,392.9997],
    [11442,1537389992,54.0425,-110.0814,839.2,164.6,89.8,3.9,1.5,10.53,36.71,1.9478,393.1093],
    [11443,1537389993,54.0425,-110.0803,839.3,165.3,89.7,3.7,1.2,9.51,36.97,1.9483,394.4191],
    [11444,1537389994,54.0425,-110.079,839.3,164.4,90.0,3.8,1.5,9.76,36.55,1.9475,392.9363],
    [11445,1537389995,54.0425,-110.0778,839.3,161.3,90.0,3.6,1.5,9.64,36.51,1.9516,393.5258],
    [11446,1537389996,54.0426,-110.0766,839.5,157.6,90.1,3.6,1.4,9.21,36.31,1.9514,391.5042],
    [11447,1537389997,54.0426,-110.0754,839.6,155.6,89.9,3.8,1.2,9.86,36.22,1.9513,393.115],
    [11448,1537389998,54.0426,-110.0742,839.6,153.5,90.1,3.9,1.2,8.9,36.15,1.9476,393.2943],
    [11449,1537389999,54.0426,-110.073,839.9,149.9,89.9,3.7,1.1,9.57,36.3,1.947,394.0996],
    [11450,1537390000,54.0426,-110.0718,840.0,149.3,90.1,3.1,1.4,9.61,36.27,1.9526,393.3193],
    [11451,1537390001,54.0426,-110.0706,840.3,153.9,90.4,3.2,1.9,9.41,36.27,1.9557,393.1134],
    [11452,1537390002,54.0426,-110.0693,840.2,160.4,90.1,3.7,1.5,9.56,36.34,1.9536,393.5928],
    [11453,1537390003,54.0426,-110.0681,840.0,161.1,89.4,3.8,0.9,9.42,36.88,1.952,392.4003],
    [11454,1537390004,54.0427,-110.0669,839.7,160.8,89.5,3.9,1.0,9.63,36.6,1.9524,394.329],
    [11455,1537390005,54.0427,-110.0657,839.3,160.6,89.9,4.2,1.4,9.05,36.81,1.9531,393.7854],
    [11456,1537390006,54.0427,-110.0645,839.1,161.0,90.0,4.4,1.1,9.16,36.91,1.9528,393.8885],
    [11457,1537390007,54.0427,-110.0633,839.2,162.4,89.7,4.5,0.7,9.45,37.05,1.9527,394.2046],
    [11458,1537390008,54.0427,-110.0621,838.9,162.9,89.7,4.6,0.7,9.72,37.11,1.9526,393.6675],
    [11459,1537390009,54.0427,-110.0609,838.6,161.7,90.1,4.6,1.1,9.67,37.85,1.9518,394.4578],
    [11460,1537390010,54.0427,-110.0597,838.5,160.6,90.3,4.6,1.1,9.58,37.21,1.9525,392.2097],
    [11461,1537390011,54.0427,-110.0584,839.0,159.0,90.2,4.4,0.9,9.4,37.22,1.9507,393.1777],
    [11462,1537390012,54.0427,-110.0572,839.6,157.6,90.6,4.3,1.3,9.0,37.22,1.9519,393.328],
    [11463,1537390013,54.0427,-110.056,839.9,155.7,90.5,4.2,1.1,9.84,36.81,1.9529,393.807],
    [11464,1537390014,54.0427,-110.0548,840.0,154.0,90.0,4.2,0.7,9.59,37.24,1.9516,394.8764],
    [11465,1537390015,54.0427,-110.0536,839.9,153.2,90.1,4.3,0.8,9.69,36.72,1.9491,393.4818],
    [11466,1537390016,54.0428,-110.0524,839.6,153.6,89.6,4.4,0.4,9.76,37.85,1.9495,393.4839],
    [11467,1537390017,54.0428,-110.0512,839.6,153.6,90.1,4.3,1.0,10.48,36.8,1.9514,394.3851],
    [11468,1537390018,54.0428,-110.05,839.7,156.4,90.1,4.5,0.9,9.72,36.82,1.9525,392.435],
    [11469,1537390019,54.0428,-110.0487,839.5,158.6,89.9,4.6,0.7,9.61,37.55,1.9514,393.9349],
    [11470,1537390020,54.0428,-110.0475,839.3,159.6,89.9,4.7,0.6,9.48,36.9,1.9507,391.9976],
    [11471,1537390021,54.0428,-110.0463,839.3,161.3,89.5,4.6,0.1,9.76,36.42,1.954,394.1572],
    [11472,1537390022,54.0428,-110.0451,839.4,161.4,89.8,4.3,0.5,9.38,36.73,1.9547,393.6981],
    [11473,1537390023,54.0428,-110.0439,839.4,162.4,90.0,4.2,0.6,9.48,36.61,1.9577,394.2253],
    [11474,1537390024,54.0428,-110.0427,839.3,163.2,90.0,4.5,0.6,9.64,37.14,1.9551,394.2253],
    [11475,1537390025,54.0428,-110.0414,839.0,165.1,90.0,4.5,0.4,10.02,37.13,1.9542,392.7456],
    [11476,1537390026,54.0428,-110.0402,839.2,165.8,90.1,4.7,0.5,10.08,37.19,1.9486,394.4438],
    [11477,1537390027,54.0428,-110.039,839.3,164.6,90.0,4.9,0.3,9.49,37.87,1.9554,393.6036],
    [11478,1537390028,54.0428,-110.0378,839.4,162.4,90.0,4.8,0.3,9.65,37.42,1.9557,392.5946],
    [11479,1537390029,54.0428,-110.0365,839.4,161.4,91.0,5.0,1.4,9.92,37.04,1.9587,394.9082],
    [11480,1537390030,54.0428,-110.0353,839.5,160.5,90.8,5.0,1.1,9.79,37.75,1.9632,394.2126],
    [11481,1537390031,54.0428,-110.0341,839.7,160.7,90.5,4.8,0.8,9.96,37.59,1.9637,393.5189],
    [11482,1537390032,54.0428,-110.0329,839.8,160.8,90.4,5.0,1.0,9.87,38.08,1.9625,393.334],
    [11483,1537390033,54.0428,-110.0317,839.8,161.8,90.1,4.9,0.7,9.23,38.48,1.9629,393.9118],
    [11484,1537390034,54.0428,-110.0304,839.5,161.5,90.2,4.8,0.8,9.68,39.59,1.9627,391.3747],
    [11485,1537390035,54.0428,-110.0292,839.2,162.2,90.1,4.9,0.7,9.63,39.54,1.9628,394.2295],
    [11486,1537390036,54.0428,-110.0281,838.9,161.9,90.2,4.8,0.8,9.41,40.18,1.9616,393.4809],
    [11487,1537390037,54.0429,-110.0267,838.8,162.8,90.2,4.5,0.7,9.12,39.8,1.9625,393.7781],
    [11488,1537390038,54.0429,-110.0255,839.3,164.3,90.4,3.6,0.9,9.62,39.89,1.9619,393.7781],
    [11489,1537390039,54.0429,-110.0243,840.0,167.0,90.3,2.8,0.7,9.74,40.35,1.9623,394.9023],
    [11490,1537390040,54.0429,-110.0231,840.8,169.7,89.8,2.6,0.0,9.81,40.75,1.9622,392.9994],
    [11491,1537390041,54.0429,-110.0219,841.3,173.6,89.9,2.9,0.0,9.22,40.59,1.9607,392.9994],
    [11492,1537390042,54.0429,-110.0206,840.7,175.8,90.3,3.3,0.4,9.05,41.01,1.9615,393.7969],
    [11493,1537390043,54.0429,-110.0194,840.1,176.1,90.1,3.5,0.1,9.39,41.09,1.9606,395.0556],
    [11494,1537390044,54.0429,-110.0182,840.3,176.3,89.8,3.5,-0.4,10.4,40.82,1.9609,394.8156],
    [11495,1537390045,54.0429,-110.017,840.6,175.6,89.6,3.1,-0.6,9.32,41.53,1.9617,394.2319],
    [11496,1537390046,54.0429,-110.0157,840.4,176.4,90.2,3.0,0.2,9.61,41.6,1.9635,394.607],
    [11497,1537390047,54.0429,-110.0145,839.7,176.7,90.4,3.2,0.2,9.32,41.55,1.9636,393.3959],
    [11498,1537390048,54.0429,-110.0133,839.6,177.6,90.2,3.2,0.0,9.6,41.61,1.9639,393.8771],
    [11499,1537390049,54.0429,-110.012,840.1,179.1,90.6,3.2,0.4,9.03,41.68,1.9649,394.1192],
    [11500,1537390050,54.0428,-110.0108,839.7,178.7,90.5,3.4,0.4,10.44,41.21,1.9633,393.2868],
    [11501,1537390051,54.0428,-110.0096,838.8,178.8,90.5,3.6,0.6,9.58,41.84,1.9592,392.8013],
    [11502,1537390052,54.0428,-110.0084,838.3,178.3,89.7,3.7,-0.5,10.04,42.01,1.9623,394.8187],
    [11503,1537390053,54.0428,-110.0071,838.6,178.6,89.4,3.9,-0.6,9.57,42.41,1.9605,393.2354],
    [11504,1537390054,54.0428,-110.0059,838.5,177.4,90.3,4.3,0.1,10.11,41.45,1.9601,393.5829],
    [11505,1537390055,54.0428,-110.0046,838.2,175.4,89.6,4.4,-0.9,9.73,41.17,1.9592,393.0167],
    [11506,1537390056,54.0428,-110.0034,837.4,174.4,90.1,4.7,-0.4,10.26,41.15,1.9583,393.794],
    [11507,1537390057,54.0428,-110.0022,836.9,174.8,90.4,4.6,0.0,9.68,41.12,1.9602,393.7999],
    [11508,1537390058,54.0428,-110.001,837.8,176.8,91.0,4.1,0.8,9.39,41.43,1.9645,393.7058],
    [11509,1537390059,54.0428,-109.9997,838.8,180.0,90.9,4.2,0.5,9.25,41.24,1.9637,393.8949],
    [11510,1537390060,54.0428,-109.9985,838.8,183.8,90.3,4.6,-0.1,9.42,41.98,1.9648,395.5698],
    [11511,1537390061,54.0428,-109.9972,838.5,187.5,90.1,4.7,-0.1,9.61,40.88,1.9653,394.3525],
    [11512,1537390062,54.0428,-109.996,838.6,191.7,90.1,4.7,0.1,9.68,41.9,1.9642,393.3913],
    [11513,1537390063,54.0428,-109.9948,838.8,194.7,90.8,5.1,1.1,9.69,41.68,1.9638,394.3979],
    [11514,1537390064,54.0428,-109.9935,839.1,197.1,91.0,5.0,1.2,9.78,41.5,1.9655,395.0589],
    [11515,1537390065,54.0428,-109.9923,839.9,197.9,90.6,4.6,0.8,9.48,41.58,1.9652,394.341],
    [11516,1537390066,54.0428,-109.9911,840.7,200.7,90.5,4.8,0.8,9.61,42.15,1.9637,394.4594],
    [11517,1537390067,54.0428,-109.9899,841.2,203.2,90.4,4.7,0.6,9.51,41.73,1.9653,394.2137],
    [11518,1537390068,54.0428,-109.9886,841.1,203.1,91.1,4.8,1.1,9.9,41.53,1.9645,393.4443],
    [11519,1537390069,54.0428,-109.9874,841.0,204.6,92.4,4.7,1.4,9.32,42.55,1.965,392.9868],
    [11520,1537390070,54.0428,-109.9862,841.5,208.5,94.0,4.5,1.3,9.45,41.92,1.965,394.3111],
    [11521,1537390071,54.0427,-109.985,842.1,209.7,96.1,4.5,1.8,9.31,41.94,1.9648,394.5388],
    [11522,1537390072,54.0427,-109.9838,841.7,205.0,99.2,4.9,2.3,9.63,41.84,1.9657,394.781],
    [11523,1537390073,54.0426,-109.9825,841.5,203.8,102.1,5.0,2.0,10.16,41.6,1.9669,393.0676],
    [11524,1537390074,54.0424,-109.9814,841.3,204.0,105.5,5.2,2.1,10.4,41.69,1.9666,394.3927],
    [11525,1537390075,54.0422,-109.9802,841.5,203.6,108.7,5.2,2.0,9.72,41.72,1.9654,394.1499],
    [11526,1537390076,54.042,-109.979,842.2,202.2,111.9,5.2,1.5,9.6,42.66,1.9651,394.7907],
    [11527,1537390077,54.0418,-109.9779,843.1,203.1,115.1,5.8,1.3,9.11,42.05,1.9648,393.9083],
    [11528,1537390078,54.0415,-109.9768,843.6,203.6,117.7,6.0,1.1,9.53,42.24,1.9636,393.1044],
    [11529,1537390079,54.0412,-109.9758,843.8,203.8,120.5,6.3,0.7,9.75,41.53,1.9644,393.2424],
    [11530,1537390080,54.0408,-109.9747,844.1,205.1,123.3,6.3,0.4,9.79,41.89,1.9624,393.9802],
    [11531,1537390081,54.0404,-109.9737,844.9,205.9,126.5,6.2,0.4,9.7,42.74,1.9637,393.9802],
    [11532,1537390082,54.04,-109.9727,846.6,208.1,129.8,5.9,0.5,9.67,41.79,1.9633,394.4349],
    [11533,1537390083,54.0396,-109.9718,849.4,211.4,132.8,5.3,0.4,9.48,42.44,1.9616,393.6812],
    [11534,1537390084,54.0392,-109.9709,852.9,215.2,135.8,5.1,0.3,9.73,41.48,1.9616,393.7475],
    [11535,1537390085,54.0387,-109.9701,856.4,219.4,139.3,5.9,0.5,10.29,41.25,1.9626,393.3637],
    [11536,1537390086,54.0382,-109.9693,860.0,223.4,142.5,5.8,0.2,9.28,41.37,1.9626,394.1471],
    [11537,1537390087,54.0377,-109.9686,863.4,227.5,144.9,5.2,0.1,9.41,41.29,1.9615,393.1285],
    [11538,1537390088,54.0372,-109.9679,866.7,230.7,148.2,5.2,0.2,9.7,42.11,1.9593,394.2598],
    [11539,1537390089,54.0366,-109.9673,869.7,234.8,151.5,5.3,0.1,9.88,41.49,1.9629,393.4301],
    [11540,1537390090,54.036,-109.9667,872.7,237.9,154.8,5.5,0.2,9.42,41.16,1.9653,394.5442],
    [11541,1537390091,54.0355,-109.9662,876.0,242.0,158.2,5.5,0.2,9.28,41.14,1.9629,393.1864],
    [11542,1537390092,54.0349,-109.9658,880.0,246.7,160.4,4.2,-0.3,8.95,41.3,1.966,394.9165],
    [11543,1537390093,54.0343,-109.9654,883.3,251.4,162.8,3.8,0.0,9.59,40.97,1.9668,394.2889],
    [11544,1537390094,54.0337,-109.9651,886.3,254.3,166.0,3.8,-0.1,9.37,41.61,1.9672,392.4417],
    [11545,1537390095,54.0331,-109.9648,889.4,257.3,168.5,3.4,-0.7,10.15,41.17,1.9658,395.7037],
    [11546,1537390096,54.0325,-109.9645,893.2,258.6,171.3,4.0,-0.3,9.15,42.1,1.9659,393.5346],
    [11547,1537390097,54.0319,-109.9643,896.7,260.4,173.6,4.2,-0.2,9.06,42.26,1.9675,394.7942],
    [11548,1537390098,54.0313,-109.9642,900.2,262.2,175.3,4.3,-0.6,9.0,42.44,1.9676,394.5847],
    [11549,1537390099,54.0307,-109.964,903.3,263.6,177.5,5.1,-0.5,9.83,41.85,1.9676,392.827],
    [11550,1537390100,54.03,-109.9639,906.9,266.9,178.5,4.6,-0.3,9.2,42.68,1.9666,393.4999],
    [11551,1537390101,54.0294,-109.9638,910.8,269.8,178.6,3.7,0.2,9.6,42.73,1.9694,394.4876],
    [11552,1537390102,54.0288,-109.9638,914.1,273.1,179.7,4.0,0.8,10.3,42.63,1.9688,394.6369],
    [11553,1537390103,54.0282,-109.9637,916.7,274.7,181.9,5.0,1.0,9.73,43.11,1.9692,395.162],
    [11554,1537390104,54.0276,-109.9637,919.8,277.8,183.5,5.3,1.1,10.11,43.0,1.9688,394.1564],
    [11555,1537390105,54.027,-109.9637,923.2,280.2,185.2,5.8,1.0,9.77,43.36,1.9679,393.4255],
    [11556,1537390106,54.0265,-109.9637,926.6,283.7,186.1,5.7,1.4,9.32,43.76,1.9681,393.6413],
    [11557,1537390107,54.0259,-109.9637,930.4,286.4,186.6,5.5,1.3,9.32,43.99,1.9708,394.4497],
    [11558,1537390108,54.0253,-109.9638,933.2,289.2,186.5,5.0,0.8,9.51,44.4,1.9686,393.9121],
    [11559,1537390109,54.0247,-109.9638,936.5,292.5,186.7,5.2,1.1,8.74,44.65,1.9683,394.4988],
    [11560,1537390110,54.0241,-109.9638,940.7,295.7,185.5,3.8,1.2,9.12,44.51,1.9684,393.5635],
    [11561,1537390111,54.0236,-109.9639,944.6,299.6,184.4,3.1,0.7,9.34,45.3,1.9672,394.9391],
    [11562,1537390112,54.023,-109.9639,947.4,301.4,185.3,4.4,0.2,9.11,44.63,1.972,394.4747],
    [11563,1537390113,54.0224,-109.9639,950.0,304.1,185.6,4.7,0.4,9.26,45.01,1.968,393.3893],
    [11564,1537390114,54.0218,-109.9639,952.4,305.9,185.8,4.8,0.8,9.24,44.68,1.9678,393.9365],
    [11565,1537390115,54.0213,-109.964,953.9,306.8,186.6,5.4,1.1,9.11,45.13,1.967,393.9114],
    [11566,1537390116,54.0207,-109.964,954.8,308.8,186.9,5.3,1.2,9.9,44.57,1.968,393.8521],
    [11567,1537390117,54.0201,-109.9641,955.6,309.6,186.4,4.9,1.1,8.66,45.21,1.9686,395.5786],
    [11568,1537390118,54.0195,-109.9641,956.5,310.5,187.1,5.5,0.5,8.89,45.49,1.9695,394.3052],
    [11569,1537390119,54.0189,-109.9641,957.5,311.5,186.9,5.4,0.7,8.85,45.73,1.9707,394.493],
    [11570,1537390120,54.0184,-109.9642,958.5,312.5,186.3,4.9,1.1,8.82,45.45,1.9681,394.6904],
    [11571,1537390121,54.0178,-109.9642,959.3,313.3,185.5,4.0,1.2,8.99,45.91,1.9681,392.2419],
    [11572,1537390122,54.0172,-109.9642,959.8,313.8,185.2,3.8,1.0,8.93,46.02,1.9684,393.6428],
    [11573,1537390123,54.0166,-109.9643,960.0,314.2,185.4,3.9,0.6,8.36,45.62,1.9685,395.8071],
    [11574,1537390124,54.016,-109.9643,959.9,314.9,185.2,3.5,0.3,8.62,45.71,1.9683,394.2735],
    [11575,1537390125,54.0154,-109.9643,959.9,314.9,185.3,3.6,0.4,9.21,45.42,1.9674,394.0385],
    [11576,1537390126,54.0149,-109.9644,960.5,315.7,185.6,3.5,0.6,9.06,45.33,1.9672,394.8862],
    [11577,1537390127,54.0143,-109.9644,961.1,317.3,185.3,3.0,1.0,8.6,46.3,1.9668,394.8862],
    [11578,1537390128,54.0137,-109.9645,961.3,316.3,185.5,3.6,1.5,8.92,45.85,1.9693,395.3102],
    [11579,1537390129,54.0131,-109.9645,961.1,316.1,186.9,5.2,1.4,8.86,45.93,1.967,395.0907],
    [11580,1537390130,54.0125,-109.9646,960.9,314.9,187.3,5.6,1.0,8.22,45.97,1.9668,395.0907],
    [11581,1537390131,54.0119,-109.9646,960.6,314.6,186.6,5.1,1.1,8.42,46.06,1.9663,393.9633],
    [11582,1537390132,54.0113,-109.9647,960.2,314.2,185.6,4.5,1.3,8.4,46.07,1.967,394.552],
    [11583,1537390133,54.0107,-109.9647,959.8,312.8,184.9,4.0,1.1,8.64,46.06,1.9682,394.4727],
    [11584,1537390134,54.01,-109.9647,959.9,311.9,183.9,3.3,1.0,8.97,45.75,1.9678,394.9379],
    [11585,1537390135,54.0094,-109.9647,959.9,310.6,184.7,4.5,1.0,9.05,45.55,1.9668,394.9527],
    [11586,1537390136,54.0088,-109.9648,959.6,309.6,184.7,4.2,0.7,8.39,46.11,1.9683,393.6959],
    [11587,1537390137,54.0082,-109.9648,959.7,310.7,184.3,3.9,0.5,8.27,46.15,1.9699,393.6959],
    [11588,1537390138,54.0076,-109.9648,959.8,311.8,184.2,3.9,0.5,8.53,45.87,1.9689,394.358],
    [11589,1537390139,54.007,-109.9648,960.0,312.0,184.1,3.8,0.6,8.53,45.91,1.9689,394.6908],
    [11590,1537390140,54.0064,-109.9648,960.1,312.1,184.5,4.2,0.6,9.12,45.78,1.9683,394.6908],
    [11591,1537390141,54.0057,-109.9649,960.4,309.4,185.0,4.6,0.3,8.26,45.98,1.9666,394.1872],
    [11592,1537390142,54.0051,-109.9649,960.8,309.6,184.9,4.4,0.6,8.65,46.47,1.9667,394.1872],
    [11593,1537390143,54.0045,-109.9649,961.5,309.5,184.8,4.2,1.3,8.59,45.97,1.9674,392.1401],
    [11594,1537390144,54.0039,-109.9649,962.2,309.5,184.8,4.2,1.8,8.69,45.85,1.9673,392.1401],
    [11595,1537390145,54.0033,-109.965,962.2,308.1,184.9,4.4,2.1,8.66,46.69,1.9673,394.7652],
    [11596,1537390146,54.0026,-109.965,961.8,307.7,185.1,4.6,2.1,8.98,45.57,1.9673,393.913],
    [11597,1537390147,54.002,-109.965,961.5,306.5,185.1,4.8,2.2,9.13,45.63,1.9675,393.9215],
    [11598,1537390148,54.0014,-109.965,961.2,305.3,185.4,5.4,1.8,8.77,45.42,1.9674,393.3384],
    [11599,1537390149,54.0008,-109.9651,961.2,304.0,185.1,5.2,1.0,8.78,45.74,1.9666,394.3248],
    [11600,1537390150,54.0001,-109.9651,961.6,303.9,183.7,3.6,0.3,8.47,46.16,1.9675,394.9223],
    [11601,1537390151,53.9995,-109.9651,961.4,303.3,183.9,4.3,-0.2,8.28,45.82,1.967,394.0974],
    [11602,1537390152,53.9989,-109.9651,960.4,301.5,184.5,4.7,-0.6,8.59,46.26,1.9663,393.5011],
    [11603,1537390153,53.9982,-109.9651,959.7,299.7,183.2,3.6,-0.8,8.06,46.04,1.9671,394.836],
    [11604,1537390154,53.9976,-109.9651,960.0,298.9,183.2,3.8,-0.5,8.33,45.77,1.9671,395.0523],
    [11605,1537390155,53.997,-109.9651,960.9,299.2,182.7,3.4,0.1,8.59,46.47,1.966,393.1703],
    [11606,1537390156,53.9963,-109.9651,961.4,298.7,184.0,4.5,0.1,8.57,46.24,1.9669,393.1703],
    [11607,1537390157,53.9957,-109.9651,961.2,298.3,183.8,3.6,0.2,8.19,45.74,1.9638,394.2135],
    [11608,1537390158,53.9951,-109.9651,960.9,296.8,184.5,4.2,0.3,8.82,45.65,1.9654,394.0889],
    [11609,1537390159,53.9944,-109.9652,961.0,296.1,185.7,4.9,0.9,8.15,45.44,1.9643,394.2015],
    [11610,1537390160,53.9938,-109.9652,961.7,296.7,186.0,5.0,1.3,7.99,45.27,1.9651,394.8034],
    [11611,1537390161,53.9931,-109.9652,962.7,296.7,186.6,5.8,1.4,8.76,44.73,1.9654,394.3548],
    [11612,1537390162,53.9925,-109.9653,963.0,296.0,187.1,6.3,1.0,8.31,45.7,1.9646,392.6108],
    [11613,1537390163,53.9919,-109.9653,962.3,294.3,186.4,5.6,0.6,8.77,44.54,1.9647,390.3524],
    [11614,1537390164,53.9912,-109.9654,961.0,293.0,184.9,4.1,0.6,8.53,45.18,1.9635,394.6551],
    [11615,1537390165,53.9906,-109.9654,960.1,292.1,184.7,4.2,0.8,7.91,45.12,1.9649,394.3016],
    [11616,1537390166,53.9899,-109.9654,960.0,292.1,185.6,5.1,0.9,8.6,44.83,1.9661,394.9797],
    [11617,1537390167,53.9893,-109.9654,960.4,291.5,186.1,5.5,1.1,7.92,45.2,1.966,395.0443],
    [11618,1537390168,53.9886,-109.9655,961.3,291.3,185.4,4.8,1.1,8.64,44.64,1.9659,394.5288],
    [11619,1537390169,53.988,-109.9655,962.0,292.0,184.9,4.4,1.0,8.58,45.5,1.9646,393.8723],
    [11620,1537390170,53.9873,-109.9655,962.3,292.3,184.8,4.6,1.1,8.73,45.17,1.9652,393.5556],
    [11621,1537390171,53.9867,-109.9656,962.5,292.5,184.7,4.7,0.6,8.6,45.14,1.9645,394.0467],
    [11622,1537390172,53.986,-109.9656,962.1,292.1,184.8,5.0,-0.8,8.52,44.7,1.9645,394.8892],
    [11623,1537390173,53.9854,-109.9656,961.8,291.8,184.3,4.3,-0.9,8.39,44.96,1.965,393.7876],
    [11624,1537390174,53.9847,-109.9656,961.5,291.5,184.1,4.6,-0.2,8.22,44.61,1.9666,393.2952],
    [11625,1537390175,53.984,-109.9656,960.9,290.9,185.1,6.0,-0.4,8.47,44.61,1.9635,393.2062],
    [11626,1537390176,53.9834,-109.9656,959.6,289.6,184.7,5.6,-0.6,8.7,44.26,1.965,393.3167],
    [11627,1537390177,53.9827,-109.9656,958.9,289.7,184.2,5.2,-0.7,8.55,44.79,1.9641,394.7853],
    [11628,1537390178,53.982,-109.9656,958.7,289.7,184.5,5.7,-1.0,8.42,44.59,1.9652,394.7853],
    [11629,1537390179,53.9814,-109.9656,959.1,291.1,184.3,5.6,-1.3,8.55,44.52,1.9659,394.479],
    [11630,1537390180,53.9807,-109.9656,959.7,291.7,183.9,5.3,-1.6,8.68,44.34,1.9643,394.774],
    [11631,1537390181,53.9801,-109.9656,960.0,292.8,183.4,4.8,-1.3,8.55,44.63,1.963,393.9291],
    [11632,1537390182,53.9794,-109.9656,959.9,293.1,182.3,3.5,-0.8,8.37,44.39,1.9641,393.958],
    [11633,1537390183,53.9787,-109.9656,959.8,293.8,182.3,3.6,-0.7,8.59,44.94,1.9627,394.1703],
    [11634,1537390184,53.9781,-109.9656,960.1,294.5,182.6,3.8,-1.1,8.56,45.06,1.9633,392.5339],
    [11635,1537390185,53.9774,-109.9656,960.6,295.6,183.2,4.2,-1.3,8.25,44.31,1.9636,393.5861],
    [11636,1537390186,53.9768,-109.9656,961.5,297.5,183.4,4.0,-1.6,8.32,44.14,1.9649,393.8076],
    [11637,1537390187,53.9761,-109.9656,962.5,299.6,183.2,3.5,-0.9,8.43,44.14,1.9668,393.9788],
    [11638,1537390188,53.9754,-109.9656,963.1,300.1,182.7,2.6,-0.5,8.96,43.43,1.9664,392.908],
    [11639,1537390189,53.9748,-109.9656,963.2,301.2,182.7,2.7,-1.4,8.66,43.86,1.9653,393.6709],
    [11640,1537390190,53.9741,-109.9656,962.8,301.7,183.8,3.7,-1.3,8.98,44.14,1.9648,394.642],
    [11641,1537390191,53.9734,-109.9656,962.6,301.6,183.4,3.0,-0.8,8.5,44.24,1.9625,393.839],
    [11642,1537390192,53.9727,-109.9657,961.8,301.8,183.2,2.9,-0.4,9.27,43.7,1.961,393.7201],
    [11643,1537390193,53.9721,-109.9657,961.6,302.2,182.8,2.3,0.0,8.44,44.14,1.9619,393.7273],
    [11644,1537390194,53.9714,-109.9657,961.5,303.5,183.5,3.2,-0.2,9.29,43.59,1.9631,394.3506],
    [11645,1537390195,53.9707,-109.9657,960.5,301.8,184.1,3.8,-1.2,8.54,44.57,1.9625,393.7004],
    [11646,1537390196,53.97,-109.9658,959.4,301.0,183.6,3.6,-1.7,8.26,43.75,1.9616,391.8448],
    [11647,1537390197,53.9693,-109.9658,958.9,300.9,183.7,3.9,-1.6,8.67,43.19,1.9607,393.4771],
    [11648,1537390198,53.9687,-109.9658,958.6,300.9,183.3,3.5,-1.5,8.91,43.35,1.9627,393.6437],
    [11649,1537390199,53.968,-109.9658,958.6,301.5,183.4,3.5,-1.1,8.44,44.1,1.9623,393.5972],
    [11650,1537390200,53.9673,-109.9658,959.3,303.4,183.7,3.8,-0.2,8.57,43.49,1.9613,393.5972],
    [11651,1537390201,53.9666,-109.9658,960.1,304.3,184.1,4.3,0.3,8.53,43.98,1.9613,392.1061],
    [11652,1537390202,53.966,-109.9658,960.7,305.7,184.3,4.6,0.0,7.96,43.3,1.9619,393.0625],
    [11653,1537390203,53.9653,-109.9659,961.2,306.2,184.3,4.5,-0.2,8.76,43.72,1.9638,394.0658],
    [11654,1537390204,53.9646,-109.9659,962.1,307.8,184.1,4.5,-0.2,8.42,43.42,1.9624,394.1967],
    [11655,1537390205,53.9639,-109.9659,962.8,307.8,184.5,5.0,-0.9,8.27,43.53,1.9644,394.6824],
    [11656,1537390206,53.9632,-109.9659,962.8,306.8,184.8,5.4,-1.3,8.91,43.23,1.9634,393.7379],
    [11657,1537390207,53.9626,-109.9659,962.3,305.3,183.9,4.3,-1.2,8.78,43.31,1.9629,393.7379],
    [11658,1537390208,53.9619,-109.9659,961.7,302.6,183.9,4.7,-1.3,8.75,43.31,1.9638,394.2246],
    [11659,1537390209,53.9612,-109.9659,961.8,301.1,183.8,4.6,-1.1,8.33,43.55,1.961,393.3944],
    [11660,1537390210,53.9605,-109.9659,962.1,299.1,182.9,3.7,-0.6,8.54,43.58,1.9615,393.3552],
    [11661,1537390211,53.9598,-109.9659,961.5,297.7,182.7,3.4,-0.6,8.03,43.32,1.9605,395.058],
    [11662,1537390212,53.9592,-109.9659,961.0,295.1,182.7,3.2,-0.3,8.18,43.33,1.9601,393.1361],
    [11663,1537390213,53.9585,-109.9659,960.3,293.5,182.9,3.5,0.0,8.58,42.8,1.96,394.1431],
    [11664,1537390214,53.9578,-109.966,960.1,293.1,183.8,4.1,0.1,8.48,43.02,1.9598,394.1431],
    [11665,1537390215,53.9572,-109.966,960.7,295.0,183.7,3.6,0.2,8.32,42.72,1.9624,395.6726],
    [11666,1537390216,53.9564,-109.966,961.2,296.0,183.6,3.3,-0.3,8.66,42.83,1.9624,394.6342],
    [11667,1537390217,53.9558,-109.966,960.9,297.0,183.3,2.8,-0.5,8.52,42.16,1.9607,394.3202],
    [11668,1537390218,53.9551,-109.966,960.7,299.0,183.3,2.9,-0.2,8.57,42.93,1.9619,393.6425],
    [11669,1537390219,53.9544,-109.9661,960.9,298.5,183.7,3.5,0.0,8.3,41.99,1.9629,392.6276],
    [11670,1537390220,53.9537,-109.9661,960.9,298.9,184.7,4.6,0.0,8.89,41.52,1.9643,394.3293],
    [11671,1537390221,53.953,-109.9661,960.8,300.8,183.7,3.3,0.7,8.96,41.46,1.9648,393.8006],
    [11672,1537390222,53.9524,-109.9661,962.6,303.3,182.7,2.6,1.3,8.92,41.81,1.9644,393.2221],
    [11673,1537390223,53.9517,-109.9661,966.2,307.5,184.0,4.3,1.0,8.31,42.05,1.963,393.908],
    [11674,1537390224,53.951,-109.9662,969.2,311.5,183.8,3.9,1.0,8.79,41.97,1.964,394.1183],
    [11675,1537390225,53.9503,-109.9662,970.4,313.4,185.0,5.4,2.0,8.99,41.61,1.9643,393.826],
    [11676,1537390226,53.9497,-109.9662,970.6,314.6,185.8,6.1,2.8,8.75,41.65,1.9612,393.826],
    [11677,1537390227,53.949,-109.9662,970.5,315.5,185.8,6.4,2.7,8.28,41.71,1.9592,394.5428],
    [11678,1537390228,53.9483,-109.9662,969.0,314.7,187.0,8.0,2.2,8.46,41.45,1.9608,393.899],
    [11679,1537390229,53.9476,-109.9663,967.5,314.6,186.5,7.8,2.0,8.47,41.11,1.9625,393.8453],
    [11680,1537390230,53.9469,-109.9663,966.3,314.3,185.7,7.4,3.0,8.42,40.93,1.962,394.7405],
    [11681,1537390231,53.9462,-109.9663,964.1,315.1,184.5,6.5,3.8,8.54,40.9,1.9639,393.4105],
    [11682,1537390232,53.9455,-109.9663,961.2,315.2,183.7,6.0,2.9,9.0,40.17,1.9636,393.6764],
    [11683,1537390233,53.9449,-109.9663,959.3,314.9,182.4,5.0,2.0,8.62,40.61,1.9628,394.4312],
    [11684,1537390234,53.9442,-109.9662,958.6,317.3,181.9,4.7,2.0,8.58,40.86,1.9624,394.4478],
    [11685,1537390235,53.9435,-109.9662,957.9,318.0,182.8,5.4,2.6,8.6,40.88,1.9623,391.9747],
    [11686,1537390236,53.9428,-109.9662,957.2,318.2,183.3,5.8,3.1,8.33,40.68,1.9637,394.8909],
    [11687,1537390237,53.9421,-109.9662,957.2,319.2,184.1,6.0,3.1,8.53,41.38,1.9616,393.8741],
    [11688,1537390238,53.9414,-109.9662,957.8,319.8,183.6,5.4,2.7,8.74,40.16,1.9636,394.6901],
    [11689,1537390239,53.9407,-109.9662,959.0,322.0,183.5,5.2,1.8,9.23,40.01,1.9637,393.0041],
    [11690,1537390240,53.94,-109.9661,960.9,323.9,181.9,3.4,2.0,9.25,40.02,1.9631,392.8426],
    [11691,1537390241,53.9394,-109.9661,961.6,325.6,182.0,3.9,2.1,9.51,39.82,1.9637,395.2618],
    [11692,1537390242,53.9387,-109.9661,961.7,328.7,183.5,5.8,0.7,9.27,39.89,1.9653,394.8799],
    [11693,1537390243,53.938,-109.9661,962.2,329.2,183.3,5.2,1.7,8.29,40.05,1.9658,394.4206],
    [11694,1537390244,53.9373,-109.9661,963.4,330.4,182.8,4.0,2.6,8.65,40.87,1.9661,395.0087],
    [11695,1537390245,53.9366,-109.9661,964.3,331.3,181.6,2.4,1.8,8.97,39.94,1.9635,395.181],
    [11696,1537390246,53.936,-109.9661,965.5,332.5,182.4,3.1,1.8,9.11,39.58,1.9651,393.5691],
    [11697,1537390247,53.9353,-109.9661,966.6,333.6,182.7,3.2,1.6,8.53,40.63,1.9675,394.2572],
    [11698,1537390248,53.9346,-109.9661,966.3,333.3,183.8,4.2,2.1,8.54,39.99,1.966,393.4942],
    [11699,1537390249,53.9339,-109.9661,964.0,331.0,184.0,3.8,2.4,8.98,40.02,1.9646,393.3732],
    [11700,1537390250,53.9332,-109.9662,961.7,328.7,183.6,3.1,2.4,8.22,40.07,1.9643,394.3695],
    [11701,1537390251,53.9325,-109.9662,960.6,327.6,183.9,3.4,2.9,9.37,39.39,1.9645,394.3695],
    [11702,1537390252,53.9319,-109.9662,959.5,325.1,183.9,3.6,2.6,8.39,39.98,1.9617,394.0234],
    [11703,1537390253,53.9312,-109.9662,958.9,325.9,184.3,4.1,2.7,8.63,40.73,1.9624,393.575],
    [11704,1537390254,53.9305,-109.9663,958.4,323.4,184.1,4.1,3.0,8.67,40.02,1.9598,392.7682],
    [11705,1537390255,53.9298,-109.9663,958.4,323.4,183.9,4.3,2.7,8.83,39.47,1.9668,393.3651],
    [11706,1537390256,53.9291,-109.9663,960.3,325.3,183.2,3.5,2.6,9.37,38.95,1.9625,394.9468],
    [11707,1537390257,53.9284,-109.9663,961.4,326.4,183.2,4.2,2.7,8.91,39.26,1.9602,393.932],
    [11708,1537390258,53.9277,-109.9663,961.5,326.5,185.0,6.1,2.4,9.0,38.75,1.9564,394.1238],
    [11709,1537390259,53.9271,-109.9663,961.8,326.8,184.6,5.2,2.2,8.21,39.39,1.9548,394.7123],
    [11710,1537390260,53.9264,-109.9664,961.8,326.8,185.1,5.4,1.9,8.61,39.14,1.9546,394.1976],
    [11711,1537390261,53.9257,-109.9664,961.5,326.5,185.1,5.3,1.6,8.71,39.1,1.9559,394.9027],
    [11712,1537390262,53.925,-109.9664,961.2,326.2,185.1,5.3,1.3,8.64,38.53,1.9542,392.9692],
    [11713,1537390263,53.9243,-109.9664,960.9,325.9,184.8,5.4,1.0,8.64,38.29,1.9552,394.5196],
    [11714,1537390264,53.9236,-109.9664,961.0,326.0,185.2,6.2,0.6,9.1,37.58,1.9587,394.1714],
    [11715,1537390265,53.923,-109.9664,961.0,325.0,184.1,5.0,0.6,9.56,37.73,1.9568,393.5415],
    [11716,1537390266,53.9223,-109.9664,961.0,325.0,183.7,5.1,1.0,8.55,38.38,1.9559,393.3258],
    [11717,1537390267,53.9216,-109.9664,961.0,325.0,184.1,5.3,1.3,9.49,37.51,1.9537,393.6044],
    [11718,1537390268,53.9209,-109.9665,961.0,325.0,183.7,4.5,1.4,8.44,38.16,1.954,393.6044],
    [11719,1537390269,53.9203,-109.9665,960.9,324.9,183.9,4.4,1.1,8.26,37.46,1.9592,393.1835],
    [11720,1537390270,53.9196,-109.9665,961.2,325.2,183.5,3.4,1.4,8.55,37.4,1.9724,393.2971],
    [11721,1537390271,53.9189,-109.9665,962.2,326.2,182.6,2.3,1.2,8.46,37.54,1.9767,394.1913],
    [11722,1537390272,53.9182,-109.9665,963.0,327.0,183.0,2.4,0.3,8.73,37.79,1.9785,394.0368],
    [11723,1537390273,53.9175,-109.9665,962.6,325.6,183.5,3.1,1.0,8.49,38.09,1.9771,393.7659],
    [11724,1537390274,53.9169,-109.9666,961.6,324.6,184.6,4.4,1.5,8.54,38.97,1.9705,392.8772],
    [11725,1537390275,53.9162,-109.9666,961.6,324.6,184.8,4.7,2.0,8.66,39.08,1.9725,391.7233],
    [11726,1537390276,53.9155,-109.9666,962.8,325.8,184.8,4.6,1.9,8.58,39.52,1.9775,393.4218],
    [11727,1537390277,53.9148,-109.9667,963.0,326.0,185.1,4.8,1.0,8.77,39.82,1.9716,393.4218],
    [11728,1537390278,53.9142,-109.9667,962.3,325.3,184.7,4.6,0.8,8.47,40.58,1.9637,394.7289],
    [11729,1537390279,53.9135,-109.9667,961.5,324.5,184.7,4.7,0.9,8.4,40.04,1.9663,394.7289],
    [11730,1537390280,53.9128,-109.9667,961.6,323.9,184.1,4.2,1.2,8.72,39.92,1.9683,394.421],
    [11731,1537390281,53.9121,-109.9667,961.7,323.7,184.3,4.6,1.0,8.64,40.11,1.9683,394.3542],
    [11732,1537390282,53.9115,-109.9668,961.1,323.1,184.5,4.9,0.7,8.89,39.77,1.9677,394.3542],
    [11733,1537390283,53.9109,-109.9668,960.7,322.7,184.3,4.7,0.5,8.6,39.99,1.968,393.6366],
    [11734,1537390284,53.9101,-109.9668,960.4,322.4,183.9,4.4,0.4,8.81,39.98,1.9675,394.2549],
    [11735,1537390285,53.9095,-109.9668,960.5,322.5,183.8,4.2,0.5,8.59,40.2,1.9691,392.8292],
    [11736,1537390286,53.9088,-109.9668,960.8,322.8,183.5,3.9,0.5,8.64,40.29,1.9693,393.7402],
    [11737,1537390287,53.9081,-109.9668,960.8,322.8,183.6,4.2,0.6,9.17,39.56,1.9678,393.7402],
    [11738,1537390288,53.9074,-109.9668,960.8,322.8,184.4,5.0,0.5,8.37,40.06,1.9679,393.1533],
    [11739,1537390289,53.9067,-109.9668,961.4,332.4,184.1,4.7,0.5,8.49,40.3,1.968,391.8649],
    [11740,1537390290,53.9061,-109.9668,961.9,332.9,184.5,5.2,0.3,8.45,40.34,1.9673,393.6742],
    [11741,1537390291,53.9054,-109.9669,961.8,332.8,184.2,4.8,0.1,8.4,40.44,1.9682,394.4416],
    [11742,1537390292,53.9047,-109.9669,961.6,332.6,183.7,4.3,-0.1,8.54,40.45,1.9702,393.9318],
    [11743,1537390293,53.9041,-109.9669,961.5,326.0,183.6,4.3,-0.3,8.94,39.95,1.9701,395.1007],
    [11744,1537390294,53.9034,-109.9669,961.3,324.3,183.3,4.0,-0.3,8.04,40.69,1.9687,394.7637],
    [11745,1537390295,53.9027,-109.9669,961.2,323.9,183.4,4.0,-0.3,8.59,40.85,1.9703,391.6235],
    [11746,1537390296,53.902,-109.9669,961.2,323.2,183.4,3.9,-0.4,8.57,40.68,1.9718,393.9038],
    [11747,1537390297,53.9014,-109.9669,961.3,323.3,183.5,4.0,-0.3,8.57,41.53,1.9705,393.4061],
    [11748,1537390298,53.9007,-109.9669,961.2,322.1,183.6,4.0,0.0,8.33,41.06,1.9711,393.8664],
    [11749,1537390299,53.9,-109.9669,961.0,322.0,184.4,4.8,-0.4,9.43,40.45,1.9705,393.6107],
    [11750,1537390300,53.8994,-109.9669,961.4,322.4,184.3,4.6,-0.5,8.7,41.32,1.9722,391.9579],
    [11751,1537390301,53.8987,-109.967,961.9,321.9,184.1,4.4,-0.4,9.29,40.76,1.9723,393.9704],
    [11752,1537390302,53.898,-109.967,962.2,322.2,184.1,4.6,-0.6,8.27,40.99,1.9724,393.0009],
    [11753,1537390303,53.8973,-109.967,962.3,321.3,184.2,4.8,-0.5,8.68,41.39,1.9722,393.9908],
    [11754,1537390304,53.8967,-109.967,962.2,320.2,184.4,5.1,-0.6,8.45,41.16,1.9686,393.033],
    [11755,1537390305,53.896,-109.967,962.0,319.0,184.7,5.3,-1.0,8.51,41.12,1.9673,393.4903],
    [11756,1537390306,53.8953,-109.967,962.2,318.2,184.4,4.9,-1.3,9.1,41.13,1.9676,393.304],
    [11757,1537390307,53.8946,-109.967,962.2,317.2,184.1,4.5,-1.4,8.36,41.78,1.9692,393.5491],
    [11758,1537390308,53.894,-109.967,962.3,316.6,183.5,3.9,-1.4,8.59,41.51,1.9698,393.4853],
    [11759,1537390309,53.8933,-109.967,961.9,315.3,183.3,3.8,-1.1,8.13,41.44,1.9715,392.2947],
    [11760,1537390310,53.8926,-109.9671,961.4,314.4,183.3,3.7,-0.9,8.54,41.44,1.9703,392.2947],
    [11761,1537390311,53.8919,-109.9671,960.5,312.2,183.7,4.3,-1.3,8.4,42.07,1.9717,393.2121],
    [11762,1537390312,53.8912,-109.9671,959.9,310.9,183.8,4.2,-1.8,8.38,41.32,1.971,392.8034],
    [11763,1537390313,53.8905,-109.9671,960.3,310.3,183.5,3.7,-1.7,8.9,40.83,1.9714,394.5892],
    [11764,1537390314,53.8898,-109.9671,960.7,309.7,183.6,3.7,-1.6,8.65,41.42,1.971,394.0589],
    [11765,1537390315,53.8891,-109.9671,960.6,308.6,183.9,4.0,-1.5,8.87,40.69,1.9693,392.7098],
    [11766,1537390316,53.8885,-109.9671,960.7,307.6,183.8,3.8,-1.6,8.66,41.29,1.969,392.6673],
    [11767,1537390317,53.8878,-109.9671,960.6,306.5,183.8,3.8,-1.3,8.58,42.21,1.9696,393.7414],
    [11768,1537390318,53.8871,-109.9672,960.4,306.4,183.5,3.4,-0.9,8.83,41.44,1.9707,393.5431],
    [11769,1537390319,53.8864,-109.9672,960.8,305.8,183.8,3.6,-1.2,8.48,41.47,1.9727,394.0345],
    [11770,1537390320,53.8857,-109.9672,961.5,306.5,183.7,3.5,-1.3,8.37,41.47,1.9705,391.5637],
    [11771,1537390321,53.885,-109.9672,961.6,306.5,184.0,3.7,-1.2,8.4,41.97,1.9695,393.4025],
    [11772,1537390322,53.8844,-109.9672,961.5,307.5,183.9,3.4,-1.1,8.37,41.74,1.9701,394.1906],
    [11773,1537390323,53.8837,-109.9673,961.9,307.9,183.9,3.4,-1.2,8.58,42.3,1.9712,393.2949],
    [11774,1537390324,53.883,-109.9673,962.4,308.4,184.1,3.6,-1.0,8.61,41.57,1.9717,394.7433],
    [11775,1537390325,53.8823,-109.9673,962.6,308.6,184.0,3.4,-0.5,8.46,41.95,1.9735,394.7433],
    [11776,1537390326,53.8816,-109.9674,962.9,309.6,184.0,3.5,0.4,8.68,41.18,1.9726,393.7874],
    [11777,1537390327,53.8809,-109.9674,963.7,310.5,184.0,3.5,2.0,8.28,41.66,1.966,392.5394],
    [11778,1537390328,53.8802,-109.9674,966.0,313.1,183.9,3.5,3.2,8.65,41.42,1.9648,392.1831],
    [11779,1537390329,53.8796,-109.9674,968.8,315.8,184.1,3.7,2.8,8.38,41.82,1.9649,392.1831],
    [11780,1537390330,53.8789,-109.9675,969.8,316.8,184.7,4.5,2.2,8.19,41.3,1.964,394.5222],
    [11781,1537390331,53.8782,-109.9675,969.8,316.1,185.2,5.1,2.4,8.44,41.3,1.9616,394.4497],
    [11782,1537390332,53.8775,-109.9675,969.3,315.5,185.5,5.9,1.9,8.86,40.95,1.9664,392.9387],
    [11783,1537390333,53.8768,-109.9676,967.7,314.7,185.9,6.6,1.1,8.44,41.6,1.9627,393.2479],
    [11784,1537390334,53.8761,-109.9676,966.1,313.1,185.0,5.9,1.5,8.65,40.68,1.9605,393.279],
    [11785,1537390335,53.8754,-109.9676,964.8,311.8,184.9,6.2,2.0,8.09,40.68,1.9589,394.1143],
    [11786,1537390336,53.8747,-109.9676,963.7,309.7,184.9,6.4,1.9,8.42,40.12,1.9592,394.6614],
    [11787,1537390337,53.874,-109.9676,962.8,308.1,184.8,6.2,1.7,8.49,40.59,1.9607,394.6693],
    [11788,1537390338,53.8733,-109.9676,962.0,307.0,184.0,5.3,1.9,8.47,40.1,1.9619,394.5741],
    [11789,1537390339,53.8726,-109.9676,961.2,305.2,184.1,5.6,2.1,8.64,39.35,1.9626,393.9584],
    [11790,1537390340,53.8719,-109.9676,961.1,304.1,183.7,5.1,1.6,8.19,39.18,1.963,393.7398],
    [11791,1537390341,53.8712,-109.9676,961.5,303.5,183.5,4.6,1.2,8.5,39.28,1.9707,393.9718],
    [11792,1537390342,53.8705,-109.9676,962.2,303.2,183.4,4.4,1.8,8.79,39.5,1.9688,393.6394],
    [11793,1537390343,53.8698,-109.9676,962.7,302.7,184.2,4.9,2.0,8.89,39.48,1.9664,394.1531],
    [11794,1537390344,53.8692,-109.9677,962.9,302.0,185.0,5.7,1.8,8.91,39.11,1.965,394.611],
    [11795,1537390345,53.8685,-109.9677,961.7,299.8,185.9,6.6,1.7,8.13,39.52,1.9638,393.7563],
    [11796,1537390346,53.8678,-109.9677,961.1,297.8,185.6,6.1,1.8,8.68,39.1,1.9608,394.5647],
    [11797,1537390347,53.8671,-109.9677,960.9,295.9,185.2,5.9,2.3,8.68,39.03,1.9613,393.7998],
    [11798,1537390348,53.8664,-109.9677,961.0,294.9,185.1,5.8,2.5,8.96,38.37,1.9633,393.7345],
    [11799,1537390349,53.8657,-109.9678,961.9,295.9,184.0,4.5,2.7,9.36,38.89,1.9617,393.9857],
    [11800,1537390350,53.865,-109.9678,962.1,296.1,184.6,5.3,2.6,8.69,38.62,1.9594,392.5612],
    [11801,1537390351,53.8643,-109.9678,961.5,295.5,184.8,5.5,2.1,8.4,39.66,1.9603,392.9984],
    [11802,1537390352,53.8636,-109.9678,961.1,294.1,185.0,5.7,2.0,8.0,39.1,1.9611,392.9984],
    [11803,1537390353,53.8629,-109.9678,961.3,294.3,185.2,6.0,2.3,8.3,38.99,1.961,392.8914],
    [11804,1537390354,53.8623,-109.9678,962.5,294.6,184.5,5.2,2.9,8.58,39.04,1.9631,392.984],
    [11805,1537390355,53.8616,-109.9679,964.0,294.0,185.2,5.8,2.3,8.15,39.01,1.9599,393.4466],
    [11806,1537390356,53.8609,-109.9679,964.0,292.9,185.1,5.5,1.1,8.21,39.05,1.9613,393.5896],
    [11807,1537390357,53.8602,-109.9679,963.0,290.7,184.7,5.4,1.0,8.57,39.45,1.962,394.1369],
    [11808,1537390358,53.8595,-109.9679,961.7,287.7,184.9,5.8,1.1,8.81,39.33,1.9605,394.316],
    [11809,1537390359,53.8588,-109.9679,960.9,285.9,184.5,5.6,1.3,8.93,38.37,1.9586,392.6812],
    [11810,1537390360,53.8581,-109.9679,960.8,284.8,184.3,5.5,1.6,8.45,39.45,1.9603,394.6526],
    [11811,1537390361,53.8575,-109.9679,961.1,284.1,184.3,5.6,1.5,7.91,38.97,1.9588,391.9608],
    [11812,1537390362,53.8568,-109.9679,960.9,282.9,184.1,5.3,1.2,8.68,38.68,1.959,391.8733],
    [11813,1537390363,53.8561,-109.9679,960.6,281.6,184.0,5.2,1.5,8.09,38.62,1.9593,393.8291],
    [11814,1537390364,53.8554,-109.9679,960.7,281.7,184.6,5.8,1.5,8.6,38.59,1.9603,393.4425],
    [11815,1537390365,53.8547,-109.968,962.2,282.2,184.3,5.2,1.1,8.22,38.71,1.9582,393.6321],
    [11816,1537390366,53.854,-109.968,963.8,283.8,184.3,5.2,1.2,8.85,37.96,1.958,394.8899],
    [11817,1537390367,53.8534,-109.968,964.7,284.4,184.1,4.9,1.4,8.8,38.7,1.959,391.4169],
    [11818,1537390368,53.8527,-109.968,964.4,283.4,184.3,5.0,0.8,8.64,39.23,1.9585,394.0301],
    [11819,1537390369,53.852,-109.968,963.0,282.0,185.0,5.9,0.2,8.53,38.46,1.9576,393.1611],
    [11820,1537390370,53.8513,-109.968,962.3,281.3,185.2,6.0,0.4,8.62,38.23,1.9563,392.5509],
    [11821,1537390371,53.8506,-109.968,962.0,281.0,185.2,6.0,0.5,9.03,37.85,1.9546,394.3141],
    [11822,1537390372,53.8499,-109.968,961.9,280.9,184.9,5.7,0.4,8.5,37.97,1.9542,392.6737],
    [11823,1537390373,53.8493,-109.968,961.8,280.8,184.7,5.8,0.3,8.41,37.68,1.9545,394.2581],
    [11824,1537390374,53.8486,-109.9681,962.0,281.3,184.6,5.7,1.1,8.77,37.32,1.9551,394.1939],
    [11825,1537390375,53.8479,-109.9681,962.3,282.3,185.3,6.6,1.7,8.66,38.05,1.9604,394.1594],
    [11826,1537390376,53.8472,-109.9681,962.1,283.1,185.4,6.5,1.2,8.74,37.12,1.963,393.3208],
    [11827,1537390377,53.8465,-109.9681,962.0,283.8,185.0,6.1,1.0,8.78,36.82,1.9786,392.1388],
    [11828,1537390378,53.8458,-109.9681,962.4,284.4,184.8,5.9,0.8,8.61,37.22,1.9744,392.1388],
    [11829,1537390379,53.8451,-109.9681,962.8,285.8,185.2,6.3,0.6,9.26,37.14,1.9728,393.1067],
    [11830,1537390380,53.8445,-109.9681,962.7,285.7,185.1,6.2,0.4,8.69,37.3,1.9812,392.9943],
    [11831,1537390381,53.8438,-109.9681,962.8,286.8,183.9,5.1,0.3,9.16,37.58,1.9817,393.0858],
    [11832,1537390382,53.8431,-109.9681,962.9,286.9,183.1,4.8,0.5,8.67,38.78,1.979,395.0061],
    [11833,1537390383,53.8424,-109.9681,962.9,288.0,182.6,4.8,0.5,8.33,38.09,1.9749,394.0337],
    [11834,1537390384,53.8417,-109.9681,962.2,287.2,182.6,5.2,0.2,8.65,38.4,1.9696,393.2473],
    [11835,1537390385,53.841,-109.968,961.2,286.2,183.0,5.9,0.2,9.1,37.66,1.9671,389.5261],
    [11836,1537390386,53.8404,-109.968,961.1,286.1,183.1,6.0,0.3,8.6,38.18,1.9628,393.7058],
    [11837,1537390387,53.8396,-109.968,961.4,287.4,183.2,5.8,0.2,8.86,38.88,1.9604,393.3749],
    [11838,1537390388,53.8389,-109.968,961.7,287.7,183.1,5.3,0.1,8.58,38.39,1.9597,393.8463],
    [11839,1537390389,53.8383,-109.968,961.4,288.4,183.8,6.0,-0.2,9.39,37.9,1.9616,393.1452],
    [11840,1537390390,53.8376,-109.9679,960.7,288.0,183.9,5.7,-0.4,9.11,37.72,1.9603,393.773],
    [11841,1537390391,53.8369,-109.9679,960.6,288.6,183.3,5.0,0.0,8.12,38.29,1.9597,393.7687],
    [11842,1537390392,53.8363,-109.9679,960.8,289.8,183.4,5.1,0.3,8.63,38.77,1.9592,393.9645],
    [11843,1537390393,53.8355,-109.9679,961.4,290.4,183.5,5.1,0.3,8.46,38.65,1.9592,393.6291],
    [11844,1537390394,53.8348,-109.9679,961.9,291.6,184.5,6.2,-0.3,8.58,38.59,1.9587,394.186],
    [11845,1537390395,53.8341,-109.9679,962.0,292.0,184.3,5.8,-0.5,8.45,38.31,1.9596,393.43],
    [11846,1537390396,53.8335,-109.9679,962.0,293.0,183.0,4.3,-0.3,7.93,38.4,1.9617,392.4828],
    [11847,1537390397,53.8328,-109.9679,961.7,297.7,183.2,4.5,-0.2,8.38,38.44,1.962,393.9018],
    [11848,1537390398,53.8321,-109.9679,961.7,297.7,183.4,4.6,-0.4,8.22,38.47,1.9621,393.8194],
    [11849,1537390399,53.8314,-109.9679,961.8,297.8,183.8,4.8,-0.6,8.08,38.58,1.9616,392.9692],
    [11850,1537390400,53.8307,-109.9679,961.5,297.5,183.6,4.3,-0.6,8.72,38.58,1.9622,391.6063],
    [11851,1537390401,53.83,-109.9679,961.7,297.7,183.9,4.2,-0.9,9.17,38.31,1.9606,393.5615],
    [11852,1537390402,53.8294,-109.9679,962.5,298.5,184.0,4.1,-1.2,8.73,38.33,1.9604,393.7525],
    [11853,1537390403,53.8287,-109.968,962.9,298.9,184.6,4.6,-1.2,8.64,39.42,1.9617,393.8414],
    [11854,1537390404,53.828,-109.968,962.4,298.4,184.6,4.4,-0.9,8.63,38.84,1.9621,392.3939],
    [11855,1537390405,53.8273,-109.968,961.9,297.9,184.3,4.1,-0.5,7.89,38.81,1.9633,394.5196],
    [11856,1537390406,53.8266,-109.968,962.0,298.0,184.2,4.1,-0.4,8.56,39.07,1.9626,394.6348],
    [11857,1537390407,53.8259,-109.968,962.3,298.3,184.0,3.9,-0.2,8.44,38.81,1.965,392.8271],
    [11858,1537390408,53.8253,-109.9681,962.3,293.6,183.8,3.8,-0.3,8.89,38.44,1.9655,392.8271],
    [11859,1537390409,53.8246,-109.9681,962.0,293.0,184.2,4.2,-0.4,8.59,39.46,1.9649,394.3794],
    [11860,1537390410,53.8239,-109.9681,961.8,292.8,183.9,3.7,-0.4,8.03,39.48,1.9654,394.0108],
    [11861,1537390411,53.8232,-109.9681,962.0,291.9,183.7,3.4,-0.3,8.81,38.95,1.965,393.0538],
    [11862,1537390412,53.8225,-109.9682,962.4,292.4,183.9,3.7,-0.2,8.59,39.43,1.9631,393.4262],
    [11863,1537390413,53.8218,-109.9682,962.6,292.6,184.2,3.9,-0.5,9.14,39.0,1.9642,393.6806],
    [11864,1537390414,53.8212,-109.9682,962.7,292.7,184.2,3.9,-0.6,8.07,39.41,1.9632,393.6806],
    [11865,1537390415,53.8205,-109.9682,962.5,292.5,184.4,4.2,-0.9,8.52,40.23,1.9646,392.8754],
    [11866,1537390416,53.8198,-109.9683,962.1,292.1,184.7,4.5,-1.2,8.61,39.42,1.9658,393.1569],
    [11867,1537390417,53.8191,-109.9683,961.9,290.9,184.6,4.4,-1.4,8.62,39.75,1.9654,392.8561],
    [11868,1537390418,53.8184,-109.9683,962.1,291.1,184.3,4.1,-1.5,8.52,39.42,1.9664,393.3324],
    [11869,1537390419,53.8177,-109.9683,962.0,290.7,184.5,4.5,-1.6,8.61,39.93,1.967,392.7824],
    [11870,1537390420,53.817,-109.9683,961.4,288.4,185.1,5.3,-1.9,8.27,39.25,1.9668,391.7738],
    [11871,1537390421,53.8164,-109.9684,961.2,284.6,185.1,5.5,-2.1,8.61,39.74,1.9672,393.5859],
    [11872,1537390422,53.8156,-109.9684,961.4,281.9,185.2,5.7,-2.5,8.58,39.76,1.9663,393.5859],
    [11873,1537390423,53.815,-109.9684,961.2,283.3,185.1,5.7,-2.5,8.84,39.07,1.9645,393.9237],
    [11874,1537390424,53.8143,-109.9684,960.7,284.4,184.6,5.4,-2.2,8.38,39.7,1.9646,393.9237],
    [11875,1537390425,53.8136,-109.9684,960.5,284.7,184.5,5.6,-1.9,8.04,39.94,1.968,394.3373],
    [11876,1537390426,53.8129,-109.9684,960.5,284.8,184.6,6.0,-1.5,8.54,39.97,1.9697,394.3373],
    [11877,1537390427,53.8122,-109.9684,961.6,285.9,184.5,5.9,-1.3,8.51,40.65,1.9668,398.2666],
    [11878,1537390428,53.8115,-109.9684,962.4,286.7,184.2,5.6,-1.5,8.54,40.48,1.9696,401.2709],
    [11879,1537390429,53.8108,-109.9684,963.0,286.5,183.2,4.4,-1.5,8.72,39.39,1.9836,399.0949],
    [11880,1537390430,53.8101,-109.9684,963.6,286.7,183.0,4.3,-0.4,8.71,40.35,2.0042,399.1052],
    [11881,1537390431,53.8094,-109.9684,964.2,286.2,183.3,4.8,0.2,8.48,40.13,2.0004,398.319],
    [11882,1537390432,53.8087,-109.9684,964.2,286.2,184.3,6.5,-0.4,8.54,40.19,1.9916,394.8763],
    [11883,1537390433,53.8081,-109.9684,964.5,286.8,184.8,7.0,-0.6,8.67,39.77,1.9784,393.0957],
    [11884,1537390434,53.8073,-109.9684,964.8,287.8,184.3,6.4,-1.1,8.62,39.8,1.9758,393.0957],
    [11885,1537390435,53.8067,-109.9684,964.4,288.6,184.5,6.4,-1.5,8.55,40.82,1.9817,393.4565],
    [11886,1537390436,53.806,-109.9684,964.1,289.0,184.3,6.2,-2.2,8.24,40.3,1.9997,392.7309],
    [11887,1537390437,53.8053,-109.9684,965.1,291.2,182.7,4.5,-1.7,8.96,39.77,2.0019,393.5581],
    [11888,1537390438,53.8046,-109.9683,966.4,293.4,182.2,4.9,0.4,8.24,40.14,2.0134,390.941],
    [11889,1537390439,53.8039,-109.9683,967.7,296.7,182.8,5.7,1.0,8.1,40.21,2.0491,389.92],
    [11890,1537390440,53.8031,-109.9683,967.8,297.8,182.8,6.0,0.8,8.5,40.36,2.0796,393.4125],
    [11891,1537390441,53.8024,-109.9683,967.4,299.1,183.0,5.8,0.2,8.23,40.19,2.129,392.1805],
    [11892,1537390442,53.8017,-109.9682,967.0,300.1,181.8,4.2,0.2,8.67,40.62,2.1178,392.2023],
    [11893,1537390443,53.801,-109.9682,966.5,301.4,182.6,5.7,1.1,8.86,40.13,2.0506,393.7683],
    [11894,1537390444,53.8003,-109.9682,964.7,300.8,183.5,6.7,1.4,8.45,40.36,2.0123,394.3085],
    [11895,1537390445,53.7996,-109.9681,962.7,300.8,182.8,5.6,1.6,8.57,40.15,1.99,393.4807],
    [11896,1537390446,53.7989,-109.9681,961.4,301.5,183.0,5.7,1.7,8.64,39.93,1.9744,393.4039],
    [11897,1537390447,53.7981,-109.9681,960.9,303.9,183.3,5.7,1.7,8.07,39.77,1.9706,392.8391],
    [11898,1537390448,53.7974,-109.9681,961.1,304.1,183.7,5.9,2.0,9.19,38.83,1.9705,394.1427],
    [11899,1537390449,53.7967,-109.9681,961.2,305.3,184.4,6.6,2.2,8.53,39.31,1.9743,392.5697],
    [11900,1537390450,53.796,-109.9681,961.4,307.1,184.6,6.4,2.2,8.97,38.68,1.9746,392.5697],
    [11901,1537390451,53.7953,-109.9681,962.0,309.0,184.4,6.0,1.6,9.24,38.32,1.9717,393.3198],
    [11902,1537390452,53.7946,-109.9681,962.8,322.8,184.6,6.2,1.4,8.41,38.63,1.9743,393.4811],
    [11903,1537390453,53.7939,-109.9681,963.1,323.1,184.2,6.0,1.5,8.97,38.33,1.9814,393.3893],
    [11904,1537390454,53.7931,-109.9681,963.4,323.4,184.3,6.2,1.7,8.19,38.79,1.974,393.7388],
    [11905,1537390455,53.7924,-109.9681,963.3,323.3,184.0,6.0,1.8,8.41,39.12,1.9712,392.7147],
    [11906,1537390456,53.7917,-109.9681,963.1,323.1,184.0,6.1,1.8,8.11,38.92,1.971,395.4862],
    [11907,1537390457,53.791,-109.9681,963.4,323.4,183.8,6.0,1.6,8.2,38.73,1.9712,393.8675],
    [11908,1537390458,53.7903,-109.9681,963.6,323.6,184.2,6.3,1.3,8.5,38.65,1.9728,392.6444],
    [11909,1537390459,53.7896,-109.9681,963.5,316.5,183.8,5.6,1.7,8.51,38.7,1.9723,393.2273],
    [11910,1537390460,53.7889,-109.9681,963.1,323.1,183.9,5.5,2.4,8.85,38.89,1.9717,393.2273],
    [11911,1537390461,53.7882,-109.9681,963.0,321.6,184.1,5.5,2.8,8.69,38.96,1.9721,393.5342],
    [11912,1537390462,53.7875,-109.9681,963.0,322.4,184.2,5.5,2.7,8.24,38.49,1.9713,392.9963],
    [11913,1537390463,53.7868,-109.9681,963.3,323.3,184.4,5.5,2.4,8.91,38.29,1.9713,392.9963],
    [11914,1537390464,53.7861,-109.9681,963.4,312.8,184.5,5.5,1.4,8.49,38.44,1.9715,394.1637],
    [11915,1537390465,53.7854,-109.9681,963.2,308.2,185.1,6.1,1.2,8.88,37.96,1.973,393.6359],
    [11916,1537390466,53.7847,-109.9681,963.2,308.2,184.2,5.3,1.6,8.03,38.38,1.9701,392.3901],
    [11917,1537390467,53.784,-109.9681,963.2,307.2,184.4,5.6,1.7,8.72,38.51,1.9682,392.6903],
    [11918,1537390468,53.7833,-109.9681,963.0,307.0,184.2,5.4,1.7,8.63,38.5,1.9689,392.6903],
    [11919,1537390469,53.7826,-109.9681,962.9,306.9,184.3,5.3,1.8,9.09,37.56,1.9644,393.7536],
    [11920,1537390470,53.7819,-109.9681,963.0,307.0,185.0,6.2,2.0,8.76,37.83,1.963,394.7545],
    [11921,1537390471,53.7812,-109.9682,963.1,307.2,185.3,6.6,2.0,8.73,38.05,1.9602,392.7923],
    [11922,1537390472,53.7805,-109.9682,963.5,306.5,185.0,6.3,2.0,9.33,37.31,1.9589,393.4198],
    [11923,1537390473,53.7798,-109.9682,963.7,306.7,185.2,6.7,1.9,8.61,38.07,1.9622,392.8073],
    [11924,1537390474,53.7791,-109.9682,963.7,305.6,184.9,6.5,1.9,8.39,37.76,1.961,392.6243],
    [11925,1537390475,53.7784,-109.9682,963.7,306.7,185.0,6.9,1.9,8.97,37.57,1.9583,393.3671],
    [11926,1537390476,53.7777,-109.9682,963.6,304.6,184.9,6.9,1.9,9.34,37.31,1.9579,391.8872],
    [11927,1537390477,53.777,-109.9682,963.4,304.3,184.6,6.7,1.9,9.34,37.29,1.9595,393.8974],
    [11928,1537390478,53.7763,-109.9682,962.9,303.8,184.7,7.0,1.9,8.16,37.56,1.961,392.7342],
    [11929,1537390479,53.7756,-109.9682,962.7,305.0,184.3,6.7,2.2,7.99,37.46,1.9649,392.4915],
    [11930,1537390480,53.7749,-109.9682,962.8,301.7,184.2,6.6,2.5,8.72,37.33,1.9642,394.0856],
    [11931,1537390481,53.7742,-109.9682,963.2,302.3,184.2,6.7,2.8,8.89,37.28,1.9682,393.7054],
    [11932,1537390482,53.7735,-109.9681,964.1,302.1,184.3,6.6,2.2,8.65,37.49,1.9731,391.3394],
    [11933,1537390483,53.7728,-109.9681,964.6,302.7,183.8,6.1,1.6,7.9,37.43,1.9755,393.9497],
    [11934,1537390484,53.7721,-109.9681,963.7,300.7,184.7,7.4,1.6,8.51,37.79,1.9772,393.3517],
    [11935,1537390485,53.7714,-109.9681,962.9,299.0,183.3,5.9,1.9,8.57,37.82,1.9785,393.3351],
    [11936,1537390486,53.7707,-109.9681,962.4,297.7,183.1,6.1,2.2,8.59,38.59,1.9794,393.2523],
    [11937,1537390487,53.77,-109.968,962.3,297.3,183.1,6.1,2.3,8.41,38.61,1.9803,393.3594],
    [11938,1537390488,53.7694,-109.968,962.5,296.5,183.1,6.1,2.5,8.62,38.37,1.9793,392.9638],
    [11939,1537390489,53.7687,-109.968,962.6,296.6,183.7,6.6,2.4,8.56,38.47,1.9782,391.056],
    [11940,1537390490,53.768,-109.968,962.8,296.8,183.7,6.4,2.4,8.57,38.62,1.9816,393.1992],
    [11941,1537390491,53.7673,-109.968,963.1,297.1,183.8,6.3,2.3,8.87,38.75,1.9776,393.4229],
    [11942,1537390492,53.7666,-109.9679,963.3,297.3,183.8,6.2,2.2,8.19,38.64,1.9792,394.0916],
    [11943,1537390493,53.7659,-109.9679,963.3,296.3,184.3,6.6,2.3,8.32,38.57,1.9779,393.1146],
    [11944,1537390494,53.7652,-109.9679,963.3,296.3,183.8,5.7,2.1,8.45,39.73,1.983,392.5658],
    [11945,1537390495,53.7645,-109.9679,963.3,296.3,184.0,6.0,1.9,8.71,39.44,1.9816,393.981],
    [11946,1537390496,53.7638,-109.9679,963.0,296.0,184.6,6.6,2.0,9.14,38.75,1.9725,392.4358],
    [11947,1537390497,53.7632,-109.9679,962.7,295.7,184.3,6.4,2.1,8.43,39.16,1.9715,393.3845],
    [11948,1537390498,53.7625,-109.9679,962.5,295.5,184.6,6.8,2.1,8.51,39.27,1.97,392.8047],
    [11949,1537390499,53.7618,-109.9679,962.6,295.6,184.1,6.0,1.9,8.53,38.94,1.9807,392.4063],
    [11950,1537390500,53.7611,-109.9679,963.1,297.1,183.7,5.6,1.6,8.5,38.78,1.9806,393.5815],
    [11951,1537390501,53.7604,-109.9679,963.1,297.1,184.3,6.2,1.6,8.22,39.15,1.9756,393.6883],
    [11952,1537390502,53.7597,-109.9679,963.1,297.1,183.3,4.9,1.6,8.49,39.65,1.9774,393.6996],
    [11953,1537390503,53.759,-109.9679,963.2,298.2,183.6,5.5,1.4,8.47,39.41,1.9744,392.2458],
    [11954,1537390504,53.7584,-109.9678,963.1,298.1,184.2,6.1,1.0,8.73,39.11,1.9776,391.9802],
    [11955,1537390505,53.7577,-109.9678,963.1,299.1,183.8,5.6,1.0,8.09,39.1,1.977,392.7095],
    [11956,1537390506,53.757,-109.9678,963.2,299.2,183.9,5.8,0.9,8.51,38.91,1.9757,392.7095],
    [11957,1537390507,53.7563,-109.9678,963.1,300.1,184.2,5.9,1.1,7.91,39.38,1.9734,393.1109],
    [11958,1537390508,53.7556,-109.9678,963.1,300.0,183.4,5.0,1.6,8.33,39.38,1.9719,391.7417],
    [11959,1537390509,53.755,-109.9678,963.1,300.0,183.5,5.0,1.8,8.08,39.36,1.9733,393.5642],
    [11960,1537390510,53.7543,-109.9678,963.3,300.6,183.2,4.5,2.0,8.27,39.55,1.9803,392.8391],
    [11961,1537390511,53.7536,-109.9678,963.3,301.7,183.4,4.6,1.5,8.53,39.78,1.9762,394.0733],
    [11962,1537390512,53.7529,-109.9678,963.3,303.3,183.9,5.0,0.9,9.18,38.88,1.9738,393.4983],
    [11963,1537390513,53.7522,-109.9678,963.3,304.3,184.0,5.0,0.6,7.84,39.61,1.9724,391.1397],
    [11964,1537390514,53.7516,-109.9678,963.1,305.1,183.9,4.9,0.1,8.96,39.01,1.9721,393.4132],
    [11965,1537390515,53.7509,-109.9678,962.8,305.8,184.0,5.1,0.2,7.88,39.48,1.9711,392.8755],
    [11966,1537390516,53.7502,-109.9678,962.6,307.1,183.8,5.2,0.4,8.55,39.47,1.9723,392.6521],
    [11967,1537390517,53.7495,-109.9678,962.3,307.2,184.5,6.1,0.4,8.41,39.55,1.9723,393.0669],
    [11968,1537390518,53.7488,-109.9678,962.1,308.0,184.6,6.3,0.6,8.34,39.4,1.9706,392.3483],
    [11969,1537390519,53.7481,-109.9678,962.2,308.3,184.5,6.1,0.5,8.09,39.41,1.9709,392.4004],
    [11970,1537390520,53.7474,-109.9678,962.4,309.3,184.7,6.5,0.4,8.6,39.58,1.9706,393.3116],
    [11971,1537390521,53.7468,-109.9678,962.6,309.8,184.6,6.5,0.2,8.62,39.29,1.9678,394.7203],
    [11972,1537390522,53.7461,-109.9678,962.9,310.9,184.4,6.4,0.4,8.45,38.63,1.9693,394.7203],
    [11973,1537390523,53.7454,-109.9678,963.0,311.1,184.3,6.6,0.6,8.41,39.5,1.9608,393.7225],
    [11974,1537390524,53.7447,-109.9678,963.4,311.4,184.2,6.6,0.6,8.76,38.63,1.9579,392.0665],
    [11975,1537390525,53.744,-109.9678,963.7,312.7,184.2,6.5,0.5,8.04,38.45,1.9574,393.6889],
    [11976,1537390526,53.7434,-109.9678,964.0,313.0,183.9,6.3,0.3,8.46,38.85,1.9591,392.6209],
    [11977,1537390527,53.7427,-109.9677,964.2,314.2,184.0,6.4,-0.1,7.8,38.01,1.9602,393.7776],
    [11978,1537390528,53.742,-109.9677,964.0,314.0,183.7,6.0,-0.1,8.92,37.32,1.9606,393.0185],
    [11979,1537390529,53.7413,-109.9677,963.6,313.6,183.9,6.2,0.2,7.87,37.52,1.9598,393.4987],
    [11980,1537390530,53.7406,-109.9677,963.3,313.3,183.7,5.8,-0.2,8.25,37.98,1.961,394.023],
    [11981,1537390531,53.7399,-109.9677,963.1,312.1,183.6,5.7,-0.5,8.36,37.51,1.9616,393.4332],
    [11982,1537390532,53.7393,-109.9677,962.8,311.8,184.0,6.0,-0.8,8.87,36.84,1.9647,392.9099],
    [11983,1537390533,53.7386,-109.9677,963.2,312.2,183.2,5.0,-0.4,7.97,37.53,1.9723,392.9099],
    [11984,1537390534,53.7379,-109.9676,963.7,311.6,183.5,5.5,-0.4,7.99,37.5,1.9739,392.2096],
    [11985,1537390535,53.7372,-109.9676,963.4,311.1,184.2,6.2,-0.9,8.84,37.53,1.9725,393.4204],
    [11986,1537390536,53.7365,-109.9676,962.7,309.7,184.7,6.7,-1.1,8.26,37.95,1.9623,393.4204],
    [11987,1537390537,53.7358,-109.9676,962.4,308.4,184.5,6.6,-0.6,8.34,38.5,1.9595,393.1078],
    [11988,1537390538,53.7351,-109.9676,962.6,308.6,184.3,6.5,-0.3,8.67,37.69,1.978,394.0608],
    [11989,1537390539,53.7345,-109.9676,963.1,309.1,183.8,5.9,-0.6,8.45,38.43,1.9918,393.071],
    [11990,1537390540,53.7338,-109.9676,963.5,311.4,183.5,5.6,-0.4,8.59,38.08,1.9972,393.0316],
    [11991,1537390541,53.7331,-109.9676,963.4,314.2,183.0,4.8,-0.3,8.67,38.04,1.9969,392.5527],
    [11992,1537390542,53.7324,-109.9676,963.8,320.5,182.9,4.5,-1.0,8.23,39.74,1.9983,391.6515],
    [11993,1537390543,53.7317,-109.9676,964.4,323.8,182.6,3.7,-0.9,8.77,39.58,1.9987,392.7769],
    [11994,1537390544,53.731,-109.9675,964.4,325.8,183.2,4.3,-0.6,7.95,40.53,1.9974,392.0555],
    [11995,1537390545,53.7303,-109.9676,963.5,326.4,184.1,5.1,-0.4,8.36,41.12,1.9994,393.3677],
    [11996,1537390546,53.7296,-109.9676,963.7,324.4,183.7,4.4,0.3,8.15,41.5,2.0018,392.7908],
    [11997,1537390547,53.7289,-109.9676,964.5,321.7,184.1,4.8,0.5,8.38,41.96,2.0005,391.7734],
    [11998,1537390548,53.7282,-109.9676,964.9,319.5,184.0,4.4,0.4,8.7,41.6,1.9974,393.2628],
    [11999,1537390549,53.7276,-109.9676,965.2,313.2,184.2,4.6,-0.3,8.58,42.62,1.9988,392.3339],
    [12000,1537390550,53.7269,-109.9676,965.5,309.9,184.0,4.1,-0.5,8.61,42.65,1.9971,394.1135],
    [12001,1537390551,53.7262,-109.9676,965.1,308.6,184.3,4.5,-0.5,8.25,42.97,1.9951,392.7248],
    [12002,1537390552,53.7255,-109.9677,964.3,306.9,185.2,5.4,-0.8,8.9,43.11,1.9944,393.2953],
    [12003,1537390553,53.7248,-109.9677,964.1,306.8,184.8,5.1,-1.2,7.88,43.2,1.9902,392.1396],
    [12004,1537390554,53.7241,-109.9677,964.0,307.5,184.9,5.5,-0.9,8.28,43.59,1.9901,393.0132],
    [12005,1537390555,53.7234,-109.9677,963.5,307.0,184.8,5.5,-0.7,8.27,43.96,1.9894,393.0318],
    [12006,1537390556,53.7227,-109.9677,963.0,310.1,184.8,5.8,-1.1,8.02,43.52,1.9876,392.7263],
    [12007,1537390557,53.722,-109.9677,962.7,317.3,184.5,5.3,-1.5,8.21,43.16,1.9888,392.1413],
    [12008,1537390558,53.7213,-109.9677,962.8,324.0,184.0,4.9,-1.9,8.34,42.34,1.9902,392.3966],
    [12009,1537390559,53.7206,-109.9678,963.3,322.9,184.0,4.9,-1.8,8.74,42.66,1.992,393.1523],
    [12010,1537390560,53.7199,-109.9678,963.5,323.5,183.3,4.2,-0.4,8.33,43.39,1.9912,392.5985],
    [12011,1537390561,53.7192,-109.9678,962.8,331.4,184.2,5.4,0.2,7.94,43.02,1.9916,393.2264],
    [12012,1537390562,53.7185,-109.9678,962.9,343.3,184.4,5.4,-0.2,8.31,43.39,1.993,393.3948],
    [12013,1537390563,53.7178,-109.9678,964.1,350.0,184.2,5.2,-0.2,8.39,43.02,1.9949,392.8539],
    [12014,1537390564,53.7171,-109.9678,965.2,357.2,183.6,4.5,0.0,8.01,42.84,1.9966,392.2152],
    [12015,1537390565,53.7164,-109.9678,965.0,356.3,183.3,4.4,0.3,8.59,42.44,1.9959,392.6056],
    [12016,1537390566,53.7157,-109.9678,964.9,355.9,183.1,4.1,0.0,8.31,43.08,1.9947,392.2033],
    [12017,1537390567,53.715,-109.9678,964.9,356.9,183.5,4.4,-0.9,8.44,43.96,1.9942,393.042],
    [12018,1537390568,53.7143,-109.9678,964.5,358.9,183.6,4.2,-1.2,8.23,43.36,1.9925,391.4913],
    [12019,1537390569,53.7136,-109.9678,964.4,360.3,183.4,3.9,-1.4,8.32,43.83,1.9922,392.8219],
    [12020,1537390570,53.7129,-109.9678,964.2,361.2,183.6,4.1,-1.6,8.6,43.3,1.9918,392.6477],
    [12021,1537390571,53.7122,-109.9678,963.9,361.9,183.7,4.0,-1.5,8.18,44.22,1.992,392.4724],
    [12022,1537390572,53.7115,-109.9678,963.5,361.5,183.2,3.4,-1.2,8.37,44.39,1.9925,392.2498],
    [12023,1537390573,53.7108,-109.9679,963.5,362.5,183.3,3.2,-1.3,8.26,43.76,1.9916,394.1099],
    [12024,1537390574,53.7101,-109.9679,963.4,362.7,182.9,2.7,-1.4,8.25,44.04,1.9927,392.8866],
    [12025,1537390575,53.7094,-109.9679,963.2,363.5,183.7,3.5,-1.7,8.4,43.62,1.9934,391.9113],
    [12026,1537390576,53.7087,-109.9679,963.1,364.1,184.2,3.9,-2.3,7.99,44.06,1.9918,392.6301],
    [12027,1537390577,53.708,-109.9679,963.2,365.2,184.6,4.5,-2.4,8.27,44.27,1.9911,392.6707],
    [12028,1537390578,53.7073,-109.968,963.5,366.5,184.5,4.3,-2.1,8.37,44.53,1.9922,392.4155],
    [12029,1537390579,53.7066,-109.968,963.8,366.8,184.2,3.9,-1.9,8.41,43.64,1.9919,392.2849],
    [12030,1537390580,53.7059,-109.968,963.2,366.2,184.5,4.3,-2.1,8.24,44.64,1.99,391.877],
    [12031,1537390581,53.7052,-109.9681,962.3,364.3,184.1,3.6,-2.0,9.2,43.5,1.9891,393.035],
    [12032,1537390582,53.7045,-109.9681,961.8,362.8,183.9,3.5,-1.0,8.83,43.36,1.9876,392.5068],
    [12033,1537390583,53.7038,-109.9681,961.9,361.9,184.1,3.4,-1.2,8.07,44.14,1.9855,392.5707],
    [12034,1537390584,53.7031,-109.9681,962.7,361.7,183.4,2.3,-1.4,7.79,44.02,1.9847,393.4327],
    [12035,1537390585,53.7024,-109.9682,963.5,361.3,184.8,3.6,-0.9,8.08,44.15,1.9848,393.29],
    [12036,1537390586,53.7017,-109.9682,964.4,361.4,184.5,2.7,-0.8,8.14,44.01,1.9845,392.1824],
    [12037,1537390587,53.701,-109.9683,965.8,361.5,184.6,3.0,-1.2,8.32,44.58,1.9844,389.9143],
    [12038,1537390588,53.7003,-109.9683,967.1,362.1,184.7,3.1,-1.8,8.74,43.99,1.9865,392.6721],
    [12039,1537390589,53.6996,-109.9684,967.0,364.4,185.6,4.3,-2.6,8.16,44.48,1.9866,390.7038],
    [12040,1537390590,53.6989,-109.9684,967.1,359.1,184.8,3.0,-3.1,8.42,44.31,1.9848,392.185],
    [12041,1537390591,53.6982,-109.9685,968.3,359.6,183.6,1.8,-1.2,8.09,44.14,1.9723,393.1363],
    [12042,1537390592,53.6975,-109.9685,967.6,357.2,184.2,3.1,1.3,8.42,44.54,1.959,391.5491],
    [12043,1537390593,53.6967,-109.9686,966.2,354.0,184.4,3.6,1.6,8.32,44.01,1.9564,394.2252],
    [12044,1537390594,53.6961,-109.9686,964.4,348.7,184.7,4.4,1.5,9.18,43.35,1.9538,393.5365],
    [12045,1537390595,53.6953,-109.9686,963.0,345.0,184.7,4.7,1.3,8.39,43.16,1.9526,392.9864],
    [12046,1537390596,53.6946,-109.9687,962.5,341.5,184.8,4.9,1.4,8.43,42.37,1.9514,391.9414],
    [12047,1537390597,53.6939,-109.9687,962.6,338.6,184.4,4.5,1.4,8.17,41.88,1.951,393.4447],
    [12048,1537390598,53.6932,-109.9687,962.7,338.7,184.3,4.5,1.4,8.23,41.93,1.9515,392.4127],
    [12049,1537390599,53.6925,-109.9687,962.8,339.7,184.3,4.5,1.3,7.74,40.98,1.9513,392.365],
    [12050,1537390600,53.6918,-109.9687,962.9,341.3,184.4,4.6,1.1,8.94,40.25,1.953,392.3582],
    [12051,1537390601,53.691,-109.9688,963.2,343.3,184.5,4.6,1.1,8.06,40.63,1.9538,392.1842],
    [12052,1537390602,53.6903,-109.9688,963.4,344.4,184.6,4.9,1.2,8.35,41.18,1.957,393.1711],
    [12053,1537390603,53.6896,-109.9688,963.7,345.7,184.7,4.9,1.2,8.27,40.82,1.9586,393.3134],
    [12054,1537390604,53.6889,-109.9688,964.1,347.1,184.9,5.1,1.1,8.32,40.36,1.9586,393.2024],
    [12055,1537390605,53.6882,-109.9689,964.5,348.5,184.7,5.0,1.2,9.0,39.67,1.9586,393.4352],
    [12056,1537390606,53.6875,-109.9689,964.9,349.9,184.7,5.1,1.3,8.4,40.12,1.9582,393.4059],
    [12057,1537390607,53.6868,-109.9689,965.3,350.3,184.8,5.1,1.3,8.23,40.08,1.9598,393.0655],
    [12058,1537390608,53.6861,-109.9689,965.5,351.5,184.8,5.1,1.2,9.13,39.71,1.9567,394.1618],
    [12059,1537390609,53.6854,-109.969,965.6,351.6,184.8,5.3,1.1,8.8,39.44,1.9577,391.6252],
    [12060,1537390610,53.6847,-109.969,965.5,351.5,184.9,5.4,0.9,8.03,40.22,1.9578,392.2723],
    [12061,1537390611,53.684,-109.969,965.2,351.2,184.7,5.3,0.9,9.18,40.01,1.957,392.7054],
    [12062,1537390612,53.6833,-109.969,964.8,351.8,184.7,5.2,0.9,8.59,40.24,1.9562,393.9991],
    [12063,1537390613,53.6826,-109.969,964.8,351.8,184.2,4.8,0.8,7.68,40.06,1.9552,391.4232],
    [12064,1537390614,53.6819,-109.969,964.9,352.9,184.3,5.2,1.0,8.21,40.45,1.9568,393.3725],
    [12065,1537390615,53.6812,-109.9691,965.0,353.3,184.5,5.4,1.0,8.55,40.67,1.9557,392.8699],
    [12066,1537390616,53.6805,-109.9691,965.1,354.1,184.7,5.6,1.0,8.5,40.82,1.955,392.8699],
    [12067,1537390617,53.6798,-109.9691,965.1,355.1,184.7,5.5,0.9,8.35,40.05,1.9534,394.194],
    [12068,1537390618,53.6792,-109.9691,965.1,355.9,184.5,5.3,1.1,8.09,40.79,1.9531,394.194],
    [12069,1537390619,53.6784,-109.9691,965.1,356.1,184.7,5.6,1.2,8.6,40.07,1.953,393.8265],
    [12070,1537390620,53.6777,-109.9691,965.1,357.1,184.9,5.8,1.1,8.5,40.65,1.9514,392.9317],
    [12071,1537390621,53.677,-109.9691,965.1,357.1,184.7,5.7,1.1,7.93,40.4,1.9528,392.5218],
    [12072,1537390622,53.6763,-109.9692,965.1,358.1,184.6,5.6,1.1,7.95,40.1,1.9556,395.7035],
    [12073,1537390623,53.6757,-109.9692,965.1,359.0,184.6,5.8,1.0,8.53,40.58,1.9538,391.596],
    [12074,1537390624,53.6749,-109.9692,965.0,360.7,184.7,5.8,0.8,8.9,39.77,1.9529,392.9918],
    [12075,1537390625,53.6743,-109.9692,964.9,361.1,184.8,6.1,0.9,8.36,39.97,1.9539,393.7175],
    [12076,1537390626,53.6736,-109.9692,964.7,362.8,184.8,6.0,0.9,8.09,40.18,1.9548,392.7093],
    [12077,1537390627,53.6729,-109.9692,964.6,363.6,184.6,5.7,0.7,8.18,39.76,1.9529,392.99],
    [12078,1537390628,53.6722,-109.9692,964.6,364.6,184.6,5.8,0.6,8.55,39.81,1.9564,392.664],
    [12079,1537390629,53.6715,-109.9692,964.2,364.2,184.7,6.1,0.6,8.35,39.26,1.9529,392.9639],
    [12080,1537390630,53.6708,-109.9692,963.9,364.9,185.1,6.5,0.8,8.26,39.56,1.9529,393.4164],
    [12081,1537390631,53.6701,-109.9692,964.0,365.0,184.9,6.4,0.9,8.11,39.47,1.9525,393.4164],
    [12082,1537390632,53.6694,-109.9692,964.5,366.6,184.6,6.3,1.2,9.07,39.23,1.9523,392.7881],
    [12083,1537390633,53.6687,-109.9692,965.2,367.2,184.3,6.1,1.1,8.29,39.59,1.9525,392.7881],
    [12084,1537390634,53.668,-109.9692,965.7,368.7,184.1,6.0,0.8,9.1,38.95,1.952,392.9789],
    [12085,1537390635,53.6674,-109.9692,965.6,369.6,184.1,5.9,0.6,8.27,39.63,1.9535,393.4162],
    [12086,1537390636,53.6667,-109.9692,965.1,370.1,184.2,6.0,0.5,8.61,39.38,1.9515,392.3058],
    [12087,1537390637,53.666,-109.9692,964.9,369.9,184.5,6.3,0.5,8.45,39.52,1.9502,393.0405],
    [12088,1537390638,53.6653,-109.9692,964.7,370.8,184.5,6.2,0.4,8.06,39.46,1.9517,393.8911],
    [12089,1537390639,53.6646,-109.9692,964.7,372.7,184.4,6.0,0.3,8.2,39.75,1.9529,393.0521],
    [12090,1537390640,53.6639,-109.9692,964.6,373.4,184.5,6.1,0.4,8.82,39.13,1.9517,392.676],
    [12091,1537390641,53.6632,-109.9692,964.8,372.9,184.5,6.0,0.2,8.55,39.58,1.9531,393.7565],
    [12092,1537390642,53.6625,-109.9692,965.0,371.1,184.6,6.1,0.2,8.54,39.63,1.9552,391.6285],
    [12093,1537390643,53.6618,-109.9692,965.3,370.3,184.7,6.1,0.4,8.81,39.44,1.9537,393.5651],
    [12094,1537390644,53.6611,-109.9692,965.5,371.5,184.5,5.9,0.2,8.41,40.5,1.9535,394.0361],
    [12095,1537390645,53.6604,-109.9692,965.6,372.6,184.7,6.0,0.0,8.37,40.55,1.9538,394.0361],
    [12096,1537390646,53.6598,-109.9692,965.6,373.1,184.4,5.8,0.1,8.26,40.64,1.9524,393.1429],
    [12097,1537390647,53.659,-109.9692,965.4,374.1,184.7,6.0,0.0,8.32,40.72,1.9533,392.2602],
    [12098,1537390648,53.6583,-109.9692,965.2,374.4,184.4,5.6,-0.2,8.01,40.6,1.9525,392.8308],
    [12099,1537390649,53.6577,-109.9692,964.9,375.0,184.5,5.6,-0.1,8.32,40.77,1.9524,393.4264],
    [12100,1537390650,53.657,-109.9692,964.6,375.6,184.3,5.3,-0.2,8.13,41.11,1.9499,392.3613],
    [12101,1537390651,53.6563,-109.9692,964.6,376.6,184.4,5.4,-0.3,8.87,40.3,1.9544,394.1997],
    [12102,1537390652,53.6556,-109.9692,964.6,376.5,184.4,5.4,-0.3,8.6,40.84,1.955,392.3844],
    [12103,1537390653,53.6549,-109.9693,964.7,377.7,184.4,5.3,-0.3,7.96,40.83,1.9543,393.388],
    [12104,1537390654,53.6542,-109.9693,964.6,377.5,184.6,5.5,-0.4,7.86,41.04,1.953,392.6454],
    [12105,1537390655,53.6535,-109.9693,964.4,378.4,184.8,5.6,-0.7,8.39,41.44,1.9522,392.4631],
    [12106,1537390656,53.6528,-109.9693,964.3,378.3,185.1,5.9,-0.8,7.82,41.32,1.9542,392.4926],
    [12107,1537390657,53.6521,-109.9693,964.5,379.5,184.9,5.4,-0.8,8.19,41.91,1.9534,393.3782],
    [12108,1537390658,53.6514,-109.9693,964.3,379.5,184.8,5.3,-0.9,8.5,41.29,1.9546,390.5789],
    [12109,1537390659,53.6507,-109.9693,964.2,380.2,184.7,5.2,-0.7,9.12,41.53,1.9559,392.7478],
    [12110,1537390660,53.6501,-109.9693,964.1,380.7,184.6,5.1,-0.4,8.74,41.31,1.9557,392.5235],
    [12111,1537390661,53.6494,-109.9694,964.0,381.0,184.7,5.2,-0.6,8.51,41.55,1.9535,392.5866],
    [12112,1537390662,53.6487,-109.9694,964.0,382.0,184.8,5.2,-0.8,8.62,42.11,1.9541,394.0501],
    [12113,1537390663,53.648,-109.9694,964.1,383.1,184.8,5.3,-0.5,8.41,42.55,1.9545,393.4291],
    [12114,1537390664,53.6473,-109.9694,964.5,383.5,184.7,5.1,0.1,8.69,41.69,1.9545,393.7187],
    [12115,1537390665,53.6466,-109.9694,965.0,384.0,184.5,4.9,0.3,7.82,42.26,1.9538,391.7769],
    [12116,1537390666,53.6459,-109.9695,965.5,384.8,183.9,4.1,-0.1,8.35,42.85,1.9538,393.5682],
    [12117,1537390667,53.6452,-109.9695,965.8,385.5,184.3,4.8,-0.6,8.64,41.71,1.9557,393.4161],
    [12118,1537390668,53.6445,-109.9695,965.0,384.0,185.3,5.8,-1.1,7.93,42.03,1.9542,392.5752],
    [12119,1537390669,53.6438,-109.9695,964.5,383.5,184.6,4.7,-0.9,8.36,41.8,1.9536,394.1511],
    [12120,1537390670,53.6431,-109.9695,965.0,385.6,183.9,4.0,-0.1,8.72,41.31,1.9518,392.4203],
    [12121,1537390671,53.6424,-109.9695,965.2,392.4,184.2,4.3,0.4,7.98,42.06,1.9497,393.3519],
    [12122,1537390672,53.6417,-109.9696,964.6,398.3,184.6,4.7,0.6,8.42,42.31,1.9495,392.6783],
    [12123,1537390673,53.641,-109.9696,964.3,403.2,185.4,5.4,0.1,8.47,41.82,1.9488,392.6783],
    [12124,1537390674,53.6403,-109.9696,964.6,408.6,185.2,4.9,-0.2,8.66,42.14,1.9482,394.0605],
    [12125,1537390675,53.6397,-109.9697,964.8,408.8,184.9,4.7,-0.2,8.63,41.31,1.9496,393.3336],
    [12126,1537390676,53.639,-109.9697,964.1,408.1,185.5,5.5,-0.4,8.07,41.17,1.9505,392.284],
    [12127,1537390677,53.6383,-109.9697,963.8,407.8,184.6,4.4,-0.4,8.48,41.97,1.9492,392.1036],
    [12128,1537390678,53.6376,-109.9697,964.0,408.0,184.1,4.4,0.0,8.36,41.05,1.9498,392.0874],
    [12129,1537390679,53.6369,-109.9698,963.7,407.7,185.0,5.4,0.2,8.81,40.39,1.951,393.5046],
    [12130,1537390680,53.6362,-109.9698,963.4,407.4,184.1,4.1,0.1,9.33,40.6,1.9491,392.5691],
    [12131,1537390681,53.6355,-109.9698,963.4,407.4,183.6,3.5,-0.3,8.34,40.91,1.9502,392.9209],
    [12132,1537390682,53.6348,-109.9698,963.1,403.1,184.2,4.2,0.0,8.23,41.58,1.9525,393.3124],
    [12133,1537390683,53.6341,-109.9698,963.5,400.1,184.6,4.5,0.0,8.42,41.37,1.9533,393.2658],
    [12134,1537390684,53.6334,-109.9699,963.9,399.8,184.9,4.7,-0.5,8.25,40.93,1.9515,392.4464],
    [12135,1537390685,53.6327,-109.9699,963.5,396.4,185.7,6.0,-1.3,8.45,40.76,1.9498,392.8814],
    [12136,1537390686,53.6321,-109.9699,962.8,393.8,185.7,5.8,-2.3,8.62,40.69,1.9522,393.1115],
    [12137,1537390687,53.6314,-109.9699,963.0,392.0,184.9,5.1,-2.4,9.01,40.25,1.9515,392.8483],
    [12138,1537390688,53.6307,-109.97,963.5,391.6,184.9,5.0,-2.0,8.52,40.81,1.951,392.9821],
    [12139,1537390689,53.63,-109.97,963.9,391.3,184.6,4.5,-1.8,8.48,41.34,1.9543,392.1397],
    [12140,1537390690,53.6293,-109.97,964.2,392.9,184.8,4.7,-2.3,8.07,41.22,1.9528,393.7341],
    [12141,1537390691,53.6286,-109.97,964.2,392.9,184.8,4.8,-2.4,8.47,41.27,1.9554,393.5454],
    [12142,1537390692,53.6279,-109.9701,964.3,393.0,184.7,4.9,-1.3,8.05,41.44,1.9548,392.8953],
    [12143,1537390693,53.6272,-109.9701,964.5,394.2,184.1,4.4,0.3,8.16,41.41,1.9549,393.073],
    [12144,1537390694,53.6265,-109.9701,964.8,393.3,185.0,5.6,0.0,8.83,41.16,1.9542,393.471],
    [12145,1537390695,53.6259,-109.9701,965.2,391.1,184.4,4.5,-0.4,8.04,41.88,1.9487,392.1154],
    [12146,1537390696,53.6252,-109.9701,965.2,386.9,184.7,5.2,0.1,8.28,41.66,1.9498,392.9662],
    [12147,1537390697,53.6245,-109.9701,963.8,384.1,185.8,6.4,0.2,8.57,41.26,1.9478,392.1011],
    [12148,1537390698,53.6238,-109.9702,963.4,383.4,185.7,6.3,-0.1,8.47,42.12,1.9489,391.2002],
    [12149,1537390699,53.6231,-109.9702,963.4,383.4,185.7,6.0,-0.7,8.53,41.57,1.9488,391.0796],
    [12150,1537390700,53.6224,-109.9702,963.2,384.1,185.0,5.2,-1.2,7.85,41.18,1.9485,391.7637],
    [12151,1537390701,53.6217,-109.9702,962.6,384.6,184.8,5.2,-1.1,8.37,41.23,1.9486,392.9637],
    [12152,1537390702,53.621,-109.9702,962.3,385.5,184.4,4.8,-1.0,7.99,40.79,1.9499,393.5287],
    [12153,1537390703,53.6203,-109.9703,962.8,386.8,184.3,4.5,-1.1,8.31,40.84,1.9515,392.0199],
    [12154,1537390704,53.6197,-109.9703,964.3,390.3,183.9,3.8,-0.9,8.75,40.7,1.9502,392.7054],
    [12155,1537390705,53.619,-109.9703,965.8,391.7,183.4,3.4,-0.4,8.25,40.75,1.9503,392.0933],
    [12156,1537390706,53.6183,-109.9703,966.8,394.5,184.8,4.9,-0.2,8.29,40.86,1.9491,392.7757],
    [12157,1537390707,53.6176,-109.9703,967.6,395.9,183.8,3.4,-0.1,8.47,41.45,1.9484,392.7857],
    [12158,1537390708,53.6169,-109.9704,968.5,398.8,183.5,2.9,0.0,8.34,41.71,1.9467,393.6556],
    [12159,1537390709,53.6162,-109.9704,968.1,399.1,184.0,3.3,0.4,8.97,40.65,1.9458,393.9751],
    [12160,1537390710,53.6155,-109.9704,966.9,399.9,184.6,4.0,0.9,8.56,41.16,1.9452,393.4002],
    [12161,1537390711,53.6148,-109.9705,966.2,400.9,184.5,3.8,1.4,8.35,41.24,1.9447,392.8254],
    [12162,1537390712,53.6142,-109.9705,965.9,402.6,185.0,4.4,1.6,8.53,41.46,1.9436,392.3008],
    [12163,1537390713,53.6134,-109.9705,965.3,403.3,185.6,4.9,1.5,8.91,40.28,1.9429,392.6201],
    [12164,1537390714,53.6127,-109.9706,964.7,405.1,185.2,4.3,1.5,8.68,39.86,1.9433,392.7868],
    [12165,1537390715,53.612,-109.9706,964.2,406.2,185.1,4.2,1.5,8.6,39.82,1.9449,392.1738],
    [12166,1537390716,53.6114,-109.9707,963.8,407.8,185.0,4.1,1.3,9.15,39.37,1.9452,393.5323],
    [12167,1537390717,53.6107,-109.9707,963.7,409.3,184.6,3.6,1.2,8.62,39.27,1.9458,393.2071],
    [12168,1537390718,53.61,-109.9708,963.4,411.3,184.5,3.4,0.9,8.75,39.16,1.9464,392.7191],
    [12169,1537390719,53.6093,-109.9708,963.0,413.1,184.5,3.1,1.0,8.06,39.37,1.9483,392.5191],
    [12170,1537390720,53.6086,-109.9708,963.1,415.1,184.3,3.0,0.7,8.93,39.28,1.9489,392.6361],
    [12171,1537390721,53.6079,-109.9709,963.9,416.9,185.2,3.8,0.4,9.17,38.94,1.9496,393.5371],
    [12172,1537390722,53.6072,-109.9709,964.1,419.1,185.6,4.2,0.3,8.39,39.37,1.9476,393.1243],
    [12173,1537390723,53.6065,-109.971,963.5,419.5,186.2,4.8,0.1,9.14,39.06,1.9448,393.5207],
    [12174,1537390724,53.6058,-109.9711,963.8,420.8,185.9,4.5,0.2,8.42,39.69,1.9451,393.2706],
    [12175,1537390725,53.6051,-109.9711,964.3,422.4,185.6,4.3,0.2,8.6,39.48,1.9454,392.2287],
    [12176,1537390726,53.6044,-109.9712,964.5,423.6,185.4,4.2,0.1,8.43,39.57,1.9454,393.0527],
    [12177,1537390727,53.6037,-109.9712,964.3,424.3,185.3,4.1,0.0,8.63,39.49,1.945,393.7107],
    [12178,1537390728,53.603,-109.9712,963.9,424.9,185.3,4.2,-0.2,8.83,39.76,1.9454,393.7107],
    [12179,1537390729,53.6023,-109.9713,963.8,424.8,185.2,4.2,-0.1,8.58,39.59,1.9455,393.4302],
    [12180,1537390730,53.6016,-109.9713,963.7,425.7,185.4,4.6,0.3,8.45,39.05,1.945,392.9518],
    [12181,1537390731,53.6009,-109.9714,963.8,426.9,185.8,4.9,0.2,8.53,39.35,1.9433,391.9958],
    [12182,1537390732,53.6002,-109.9714,964.3,428.3,185.1,4.2,0.1,8.99,38.66,1.9428,392.8804],
    [12183,1537390733,53.5996,-109.9715,964.6,429.3,185.0,4.2,0.1,8.04,39.22,1.944,393.6528],
    [12184,1537390734,53.5989,-109.9715,964.9,429.9,184.8,3.9,0.4,8.88,38.74,1.9498,393.3916],
    [12185,1537390735,53.5982,-109.9715,964.9,429.9,184.7,3.7,0.5,7.96,39.11,1.955,393.4541],
    [12186,1537390736,53.5975,-109.9716,964.8,433.3,184.6,3.5,0.1,9.0,38.75,1.9585,393.6108],
    [12187,1537390737,53.5968,-109.9716,964.7,443.3,184.9,3.6,-0.1,8.62,39.02,1.9579,393.1554],
    [12188,1537390738,53.5961,-109.9717,964.5,457.0,184.9,3.7,-0.2,8.55,39.89,1.9539,393.4251],
    [12189,1537390739,53.5954,-109.9717,964.3,468.3,185.7,4.5,-0.5,8.28,39.85,1.9549,392.4928],
    [12190,1537390740,53.5947,-109.9717,964.2,468.2,185.2,4.0,-0.6,9.04,39.67,1.9554,393.3845],
    [12191,1537390741,53.5941,-109.9718,964.0,463.6,185.2,4.3,-0.7,8.3,40.29,1.9514,394.1172],
    [12192,1537390742,53.5934,-109.9718,963.5,461.5,185.1,4.4,-0.4,8.72,39.72,1.9504,394.1172],
    [12193,1537390743,53.5927,-109.9719,963.7,462.0,185.0,4.4,-0.1,8.53,40.22,1.9555,392.4079],
    [12194,1537390744,53.592,-109.9719,964.2,468.2,185.0,4.5,0.2,8.67,39.86,1.9626,392.4079],
    [12195,1537390745,53.5913,-109.9719,964.3,468.3,185.2,4.9,0.7,8.54,40.44,1.9733,393.1494],
    [12196,1537390746,53.5906,-109.972,964.2,468.2,185.5,5.3,0.5,8.2,40.39,1.9724,394.0841],
    [12197,1537390747,53.5899,-109.972,964.1,466.8,185.6,5.6,0.7,8.38,40.22,1.9716,394.0841],
    [12198,1537390748,53.5893,-109.972,964.3,462.6,185.6,5.7,0.7,9.0,40.05,1.9587,393.4255],
    [12199,1537390749,53.5886,-109.972,964.5,448.4,185.5,5.6,0.2,8.71,40.46,1.9633,393.4338],
    [12200,1537390750,53.5879,-109.9721,964.7,441.7,185.0,4.9,-0.2,8.56,40.79,1.9714,392.451],
    [12201,1537390751,53.5872,-109.9721,965.0,433.0,184.6,4.7,-0.5,8.39,40.62,1.972,394.2321],
    [12202,1537390752,53.5865,-109.9721,965.2,429.6,183.9,4.1,-0.9,7.72,40.98,1.9709,393.3285],
    [12203,1537390753,53.5858,-109.9721,964.9,425.5,183.8,4.1,-1.0,8.86,40.86,1.9705,393.165],
    [12204,1537390754,53.5852,-109.9721,964.6,420.2,184.0,4.4,-0.8,9.19,40.75,1.9728,393.1397],
    [12205,1537390755,53.5845,-109.9722,964.8,416.8,184.0,4.3,-0.3,8.85,40.8,1.9684,393.2417],
    [12206,1537390756,53.5838,-109.9722,965.0,409.0,183.8,4.2,0.0,8.48,41.78,1.9673,391.1333],
    [12207,1537390757,53.5831,-109.9722,964.8,403.1,183.8,4.2,-0.3,8.54,42.24,1.9653,393.4513],
    [12208,1537390758,53.5824,-109.9722,964.5,402.6,183.8,3.9,-0.5,8.24,41.82,1.9635,393.4513],
    [12209,1537390759,53.5817,-109.9722,964.4,398.4,183.6,3.5,-0.8,8.57,42.05,1.9617,392.1909],
    [12210,1537390760,53.5811,-109.9722,964.4,387.1,183.7,3.5,-0.5,8.49,42.43,1.9649,392.1909],
    [12211,1537390761,53.5804,-109.9723,964.2,383.3,183.8,3.7,-0.2,8.71,41.61,1.9698,393.5655],
    [12212,1537390762,53.5797,-109.9723,963.8,375.8,184.3,4.2,-0.6,8.16,42.73,1.9704,393.2906],
    [12213,1537390763,53.5791,-109.9723,963.6,371.1,184.1,3.7,-1.0,8.14,42.95,1.9709,392.9897],
    [12214,1537390764,53.5783,-109.9723,963.5,363.3,183.5,3.2,-1.0,8.5,42.87,1.9705,394.6081],
    [12215,1537390765,53.5776,-109.9723,964.1,358.5,183.8,3.5,-1.2,8.46,43.35,1.969,391.6372],
    [12216,1537390766,53.577,-109.9724,964.9,355.0,183.5,3.2,-1.2,8.45,43.43,1.9682,392.9512],
    [12217,1537390767,53.5763,-109.9724,965.4,347.4,183.8,3.5,-1.1,8.64,43.17,1.9674,392.9512],
    [12218,1537390768,53.5756,-109.9724,965.5,343.2,183.8,3.5,-1.3,7.95,43.48,1.9722,393.6537],
    [12219,1537390769,53.5749,-109.9724,965.4,338.6,184.3,4.1,-1.1,8.49,44.0,1.9711,392.7132],
    [12220,1537390770,53.5742,-109.9725,964.8,336.2,184.5,4.4,-0.8,8.59,43.63,1.9684,393.4194],
    [12221,1537390771,53.5735,-109.9725,964.5,332.2,184.7,4.6,-0.4,8.58,43.91,1.9546,392.8391],
    [12222,1537390772,53.5728,-109.9725,964.6,329.9,184.9,5.1,-0.1,8.66,43.85,1.9517,392.8391],
    [12223,1537390773,53.5722,-109.9725,964.9,328.6,185.3,5.6,-0.3,8.62,43.06,1.9516,392.6829],
    [12224,1537390774,53.5715,-109.9725,965.1,327.3,184.8,5.0,-0.5,8.81,42.4,1.9517,393.0961],
    [12225,1537390775,53.5708,-109.9726,965.2,325.9,184.4,4.8,-0.7,8.02,42.32,1.9509,392.0573],
    [12226,1537390776,53.5701,-109.9726,964.8,324.6,184.6,5.2,-0.7,8.67,41.7,1.9513,393.7682],
    [12227,1537390777,53.5694,-109.9726,964.3,324.3,184.5,5.3,-0.4,8.22,41.41,1.9519,393.7682],
    [12228,1537390778,53.5687,-109.9726,964.6,325.6,184.4,5.5,-0.2,8.08,41.08,1.9565,393.3504],
    [12229,1537390779,53.568,-109.9726,964.9,327.9,184.6,5.7,-0.4,8.72,41.22,1.955,392.4596],
    [12230,1537390780,53.5674,-109.9726,964.7,330.2,184.5,5.8,-0.6,8.65,40.09,1.9533,394.0849],
    [12231,1537390781,53.5667,-109.9726,964.4,331.8,184.3,5.6,-0.7,8.37,40.74,1.9519,392.3221],
    [12232,1537390782,53.566,-109.9726,964.4,335.4,184.0,5.5,-0.9,8.34,41.19,1.9528,392.3221],
    [12233,1537390783,53.5653,-109.9726,964.6,337.5,184.0,5.5,-1.0,8.47,41.06,1.9514,392.5852],
    [12234,1537390784,53.5646,-109.9726,964.5,341.3,184.0,5.5,-1.0,7.93,40.3,1.9567,392.5671],
    [12235,1537390785,53.5639,-109.9726,964.1,347.2,184.3,5.9,-1.3,7.89,40.2,1.9534,394.3852],
    [12236,1537390786,53.5632,-109.9726,963.9,353.3,184.0,5.4,-1.4,8.58,39.92,1.9523,394.3852],
    [12237,1537390787,53.5626,-109.9726,964.2,358.9,183.7,5.1,-1.2,8.45,39.91,1.9518,394.0332],
    [12238,1537390788,53.5619,-109.9726,964.4,368.3,183.7,5.2,-1.3,8.17,40.58,1.9536,393.1626],
    [12239,1537390789,53.5612,-109.9726,964.4,371.8,184.0,5.5,-1.3,8.46,40.02,1.9549,393.0719],
    [12240,1537390790,53.5605,-109.9726,964.2,378.3,184.3,5.9,-1.4,8.49,40.08,1.9567,393.0719],
    [12241,1537390791,53.5599,-109.9726,964.3,381.9,184.2,5.8,-1.6,9.19,39.51,1.9606,393.4008],
    [12242,1537390792,53.5591,-109.9726,964.2,385.9,184.2,5.7,-1.5,7.89,40.1,1.9652,392.6972],
    [12243,1537390793,53.5585,-109.9726,964.2,386.2,184.3,5.9,-1.6,8.72,40.44,1.9635,393.7302],
    [12244,1537390794,53.5578,-109.9726,964.9,386.0,184.2,5.8,-1.8,8.55,40.23,1.963,394.9953],
    [12245,1537390795,53.5571,-109.9725,965.4,385.7,184.1,5.8,-2.2,8.42,40.37,1.9654,393.1749],
    [12246,1537390796,53.5565,-109.9725,965.2,385.5,184.0,5.6,-2.1,8.21,40.67,1.9575,392.9212],
    [12247,1537390797,53.5557,-109.9725,965.0,386.2,183.7,5.4,-1.9,9.05,40.44,1.9526,392.8359],
    [12248,1537390798,53.555,-109.9725,965.1,387.1,183.8,5.4,-2.0,8.49,40.39,1.9551,393.2673],
    [12249,1537390799,53.5543,-109.9725,965.1,388.1,183.5,5.2,-2.2,8.42,40.81,1.9592,393.073],
    [12250,1537390800,53.5536,-109.9725,965.2,388.2,183.5,5.0,-2.2,8.63,41.38,1.9682,392.8095],
    [12251,1537390801,53.553,-109.9725,965.0,389.0,183.2,4.7,-1.9,7.89,40.75,1.9621,392.0961],
    [12252,1537390802,53.5523,-109.9725,964.7,388.7,183.2,4.5,-1.8,8.47,41.3,1.9545,392.7838],
    [12253,1537390803,53.5516,-109.9725,964.8,388.8,183.3,4.6,-1.8,7.86,40.79,1.9545,392.8579],
    [12254,1537390804,53.5509,-109.9725,965.0,389.1,183.6,4.8,-2.0,7.94,40.69,1.9504,394.1854],
    [12255,1537390805,53.5502,-109.9725,965.1,386.8,183.8,4.9,-2.1,8.82,40.48,1.9497,392.5731],
    [12256,1537390806,53.5495,-109.9725,965.3,385.3,183.9,4.9,-2.0,8.46,40.95,1.9506,392.6697],
    [12257,1537390807,53.5488,-109.9725,965.4,380.4,184.0,4.9,-2.1,8.29,40.69,1.9526,392.8923],
    [12258,1537390808,53.5481,-109.9725,965.3,377.8,184.0,4.9,-2.0,8.03,40.52,1.9528,394.2176],
    [12259,1537390809,53.5475,-109.9725,965.2,374.1,183.8,4.8,-1.9,8.18,40.57,1.9558,393.9698],
    [12260,1537390810,53.5467,-109.9725,965.1,371.7,183.9,5.0,-2.1,8.6,40.43,1.9546,394.2757],
    [12261,1537390811,53.5461,-109.9725,964.8,368.4,184.0,5.2,-2.0,8.34,40.64,1.9502,393.5544],
    [12262,1537390812,53.5454,-109.9725,964.6,366.3,184.2,5.5,-2.0,8.37,41.04,1.9512,393.4963],
    [12263,1537390813,53.5447,-109.9725,964.6,363.6,184.4,5.7,-1.9,8.92,39.92,1.9513,393.526],
    [12264,1537390814,53.544,-109.9725,964.7,361.8,184.3,5.6,-1.9,8.74,40.44,1.9544,393.0094],
    [12265,1537390815,53.5433,-109.9725,965.0,359.0,183.0,4.0,-1.7,8.15,40.51,1.9573,393.8302],
    [12266,1537390816,53.5426,-109.9725,964.9,357.3,183.0,4.1,-1.5,8.72,40.13,1.9554,392.3074],
    [12267,1537390817,53.5419,-109.9725,964.8,357.6,183.2,4.2,-1.7,8.72,40.35,1.9561,392.6215],
    [12268,1537390818,53.5412,-109.9725,965.0,359.6,182.9,3.9,-1.6,8.88,40.19,1.9572,392.8474],
    [12269,1537390819,53.5405,-109.9725,965.7,362.7,182.9,3.9,-1.6,8.71,40.94,1.9562,393.202],
    [12270,1537390820,53.5398,-109.9725,966.5,363.7,182.5,3.6,-1.9,8.36,41.56,1.9566,393.0867],
    [12271,1537390821,53.5391,-109.9725,966.6,365.2,182.7,3.7,-2.3,8.37,41.61,1.9575,393.9911],
    [12272,1537390822,53.5384,-109.9725,966.2,366.5,183.2,4.0,-2.6,8.38,41.66,1.956,394.1778],
    [12273,1537390823,53.5377,-109.9725,965.8,369.0,183.1,3.7,-3.0,8.24,41.93,1.9565,392.4064],
    [12274,1537390824,53.537,-109.9725,965.3,370.3,183.3,4.0,-2.9,8.02,42.08,1.9549,394.3099],
    [12275,1537390825,53.5363,-109.9725,964.6,370.5,184.5,5.0,-2.7,8.25,42.12,1.9522,392.5853],
    [12276,1537390826,53.5356,-109.9725,964.3,370.8,183.8,4.0,-2.6,8.35,42.01,1.9542,392.5961],
    [12277,1537390827,53.5349,-109.9725,964.4,370.4,184.3,4.3,-2.8,8.81,41.48,1.953,392.8154],
    [12278,1537390828,53.5342,-109.9726,964.4,370.4,184.5,4.4,-2.8,8.41,42.65,1.9518,391.596],
    [12279,1537390829,53.5335,-109.9726,964.6,372.0,184.4,4.4,-2.1,8.42,41.9,1.9548,394.264],
    [12280,1537390830,53.5328,-109.9726,965.2,374.9,184.3,4.4,-2.2,8.2,41.86,1.9527,393.0488],
    [12281,1537390831,53.5321,-109.9726,965.6,379.7,184.3,4.4,-2.9,8.85,42.08,1.9553,393.0297],
    [12282,1537390832,53.5314,-109.9727,965.1,381.3,184.3,4.5,-3.0,8.44,42.17,1.9536,393.8219],
    [12283,1537390833,53.5307,-109.9727,964.9,384.0,184.3,4.4,-2.9,8.24,41.8,1.9534,393.2343],
    [12284,1537390834,53.53,-109.9727,965.5,386.5,184.3,4.6,-2.3,7.88,42.04,1.9509,393.3803],
    [12285,1537390835,53.5293,-109.9727,965.6,386.6,185.1,5.5,-1.9,9.1,41.57,1.9496,394.1157],
    [12286,1537390836,53.5286,-109.9727,965.3,387.3,184.2,4.6,-2.2,8.21,41.92,1.9502,394.4855],
    [12287,1537390837,53.5279,-109.9727,965.5,386.5,184.8,5.2,-2.3,9.33,40.78,1.9503,393.4891],
    [12288,1537390838,53.5272,-109.9728,966.9,386.9,183.6,3.6,-2.2,8.34,41.08,1.9504,393.9178],
    [12289,1537390839,53.5265,-109.9728,967.8,387.3,183.4,3.5,-2.0,8.44,40.74,1.9479,393.4896],
    [12290,1537390840,53.5258,-109.9728,967.1,387.1,183.8,4.2,-1.4,8.36,40.6,1.9466,393.4896],
    [12291,1537390841,53.5251,-109.9728,966.1,387.2,185.2,6.1,-1.0,9.01,39.91,1.9448,393.1073],
    [12292,1537390842,53.5244,-109.9728,965.3,387.4,186.0,6.7,-1.4,9.0,39.82,1.945,392.1697],
    [12293,1537390843,53.5237,-109.9728,965.4,390.4,185.4,6.1,-1.7,8.76,39.47,1.9468,393.6885],
    [12294,1537390844,53.523,-109.9729,965.5,390.5,184.7,5.5,-1.5,8.49,39.51,1.9473,393.9535],
    [12295,1537390845,53.5223,-109.9729,965.1,390.1,184.5,5.4,-1.4,8.53,38.74,1.9481,393.8629],
    [12296,1537390846,53.5216,-109.9729,964.2,389.2,184.3,5.4,-1.2,7.66,39.03,1.9479,393.5898],
    [12297,1537390847,53.5208,-109.9729,964.4,386.2,184.4,5.3,-1.2,8.54,39.16,1.947,392.4],
    [12298,1537390848,53.5201,-109.9729,965.5,388.4,183.3,4.0,-0.5,8.35,38.92,1.9479,393.211],
    [12299,1537390849,53.5194,-109.9729,965.4,390.4,183.7,4.5,-0.6,8.38,38.73,1.9477,393.9749],
    [12300,1537390850,53.5187,-109.9729,964.4,389.4,184.2,5.0,-1.1,8.29,38.8,1.9478,393.2988],
    [12301,1537390851,53.518,-109.9729,963.9,385.9,184.0,4.8,-0.9,8.06,39.15,1.9469,393.7101],
    [12302,1537390852,53.5173,-109.9729,964.2,386.3,184.6,5.5,-0.7,8.56,38.35,1.9456,392.1793],
    [12303,1537390853,53.5166,-109.9729,964.9,386.6,185.0,5.8,-1.4,7.8,38.48,1.946,393.714],
    [12304,1537390854,53.5159,-109.973,965.6,388.6,185.1,5.9,-1.8,8.68,38.62,1.9452,393.6228],
    [12305,1537390855,53.5152,-109.973,965.3,388.3,185.0,5.9,-1.8,8.58,38.12,1.9493,393.0357],
    [12306,1537390856,53.5145,-109.973,965.2,386.2,184.5,5.4,-1.7,8.63,38.06,1.9461,393.0357],
    [12307,1537390857,53.5138,-109.973,965.7,385.7,184.1,5.2,-1.9,8.04,37.92,1.9459,392.6141],
    [12308,1537390858,53.5131,-109.973,965.5,384.8,184.7,6.0,-2.0,8.56,38.62,1.9399,391.3829],
    [12309,1537390859,53.5124,-109.973,964.6,382.0,184.7,6.1,-2.2,8.46,37.93,1.9567,391.4376],
    [12310,1537390860,53.5117,-109.973,964.3,379.0,184.7,6.1,-2.0,8.35,37.59,1.9573,393.6094],
    [12311,1537390861,53.511,-109.973,964.7,375.6,184.7,6.2,-1.7,8.08,37.57,1.9537,393.7489],
    [12312,1537390862,53.5103,-109.973,964.7,373.7,184.7,6.5,-0.8,8.57,38.22,1.955,394.2935],
    [12313,1537390863,53.5095,-109.973,964.6,372.6,184.2,5.9,-0.8,8.74,37.66,1.9593,394.6335],
    [12314,1537390864,53.5089,-109.973,964.7,370.7,184.4,6.1,-1.7,8.67,38.6,1.9606,394.8947],
    [12315,1537390865,53.5081,-109.973,964.5,370.5,185.1,7.0,-2.0,7.82,38.87,1.9605,394.1534],
    [12316,1537390866,53.5074,-109.973,963.9,369.9,185.0,6.9,-1.9,8.1,39.23,1.9619,395.0809],
    [12317,1537390867,53.5067,-109.973,963.8,369.8,184.0,5.9,-1.8,9.0,39.19,1.9637,395.0997],
    [12318,1537390868,53.506,-109.973,964.6,370.7,184.0,6.2,-1.7,8.48,39.98,1.9651,394.9172],
    [12319,1537390869,53.5053,-109.973,965.1,371.1,184.5,6.4,-1.6,8.32,40.48,1.9603,394.3451],
    [12320,1537390870,53.5046,-109.973,964.9,370.8,183.6,5.3,-2.0,8.43,40.83,1.9621,393.5823],
    [12321,1537390871,53.5039,-109.973,965.4,371.3,183.9,5.4,-2.9,8.88,40.81,1.9627,393.9448],
    [12322,1537390872,53.5032,-109.973,965.6,371.5,183.6,4.9,-2.7,9.25,40.96,1.9569,394.9711],
    [12323,1537390873,53.5025,-109.973,965.6,372.4,183.0,4.1,-2.2,8.2,41.7,1.9551,393.1373],
    [12324,1537390874,53.5018,-109.973,965.5,372.6,182.6,3.4,-2.4,8.61,42.35,1.9545,393.6267],
    [12325,1537390875,53.5011,-109.973,965.0,373.1,182.9,3.6,-2.7,9.27,41.37,1.9567,393.5323],
    [12326,1537390876,53.5004,-109.973,964.8,374.1,183.0,3.5,-2.8,8.49,42.0,1.9581,392.1762],
    [12327,1537390877,53.4997,-109.973,964.5,378.9,183.3,3.7,-2.6,8.83,41.04,1.9592,395.0164],
    [12328,1537390878,53.4989,-109.973,964.5,378.9,183.6,3.9,-2.3,8.57,41.58,1.9585,393.3329],
    [12329,1537390879,53.4982,-109.973,964.8,379.5,183.9,4.0,-2.0,8.36,41.66,1.9572,393.1963],
    [12330,1537390880,53.4975,-109.973,965.2,380.2,183.9,3.9,-2.2,8.14,41.94,1.9583,393.3978],
    [12331,1537390881,53.4969,-109.973,965.7,379.4,184.2,4.1,-1.3,8.62,42.17,1.9585,392.9299],
    [12332,1537390882,53.4961,-109.9731,966.8,381.0,184.2,4.2,0.7,9.5,41.61,1.9595,393.748],
    [12333,1537390883,53.4954,-109.9731,968.4,383.6,184.2,4.2,1.4,8.54,42.0,1.96,393.3351],
    [12334,1537390884,53.4947,-109.9731,970.0,385.2,183.9,3.8,1.2,8.72,42.19,1.9638,394.6394],
    [12335,1537390885,53.494,-109.9731,970.4,387.8,183.7,3.6,1.3,8.14,42.06,1.96,392.6461],
    [12336,1537390886,53.4933,-109.9732,970.0,385.9,184.4,4.9,1.9,8.81,41.98,1.96,393.7142],
    [12337,1537390887,53.4926,-109.9732,968.9,385.9,184.2,4.5,1.2,8.53,42.06,1.9604,393.7972],
    [12338,1537390888,53.4919,-109.9732,967.8,384.8,183.7,4.3,0.2,8.69,41.93,1.9599,393.8101],
    [12339,1537390889,53.4912,-109.9732,967.7,385.7,183.0,3.7,0.2,8.83,42.23,1.9623,394.7019],
    [12340,1537390890,53.4905,-109.9732,968.9,386.9,182.2,3.0,1.1,8.78,41.86,1.9628,392.9824],
    [12341,1537390891,53.4898,-109.9732,968.8,386.9,183.0,4.2,1.4,8.53,41.96,1.9596,394.5421],
    [12342,1537390892,53.489,-109.9732,967.2,386.8,184.1,5.3,1.1,8.6,42.23,1.96,393.2603],
    [12343,1537390893,53.4883,-109.9732,965.5,385.5,183.5,4.4,1.0,9.14,41.61,1.9594,393.8305],
    [12344,1537390894,53.4876,-109.9732,964.5,384.5,183.8,4.8,0.8,8.89,41.18,1.9584,393.7371],
    [12345,1537390895,53.4869,-109.9732,963.9,383.9,184.5,5.6,0.5,8.6,41.19,1.9574,393.4962],
    [12346,1537390896,53.4862,-109.9733,963.3,383.3,184.3,5.3,0.7,8.58,42.0,1.9603,393.77],
    [12347,1537390897,53.4855,-109.9733,961.8,382.1,184.3,5.4,1.0,8.45,40.71,1.9587,391.111],
    [12348,1537390898,53.4848,-109.9733,959.8,375.8,184.5,5.7,1.0,8.24,40.87,1.9592,394.05],
    [12349,1537390899,53.4841,-109.9733,957.2,372.8,184.5,5.7,0.8,9.02,40.06,1.9575,395.7698],
    [12350,1537390900,53.4833,-109.9733,954.7,369.7,184.3,5.5,0.8,9.04,40.75,1.9591,393.0968],
    [12351,1537390901,53.4826,-109.9733,952.4,366.3,184.4,5.8,1.0,8.51,40.9,1.9615,393.6813],
    [12352,1537390902,53.4819,-109.9733,950.4,364.4,184.1,5.6,0.4,8.52,41.05,1.9616,394.3386],
    [12353,1537390903,53.4812,-109.9733,948.6,363.6,183.9,5.5,0.0,8.5,40.74,1.9609,394.6402],
    [12354,1537390904,53.4805,-109.9733,946.1,362.1,183.8,5.7,0.5,8.68,40.74,1.9604,393.0714],
    [12355,1537390905,53.4797,-109.9733,943.0,359.3,183.7,5.7,0.7,8.68,40.88,1.9595,393.7873],
    [12356,1537390906,53.479,-109.9733,940.1,356.3,183.6,5.6,0.4,8.59,40.9,1.9584,392.813],
    [12357,1537390907,53.4783,-109.9733,937.6,350.3,183.8,5.7,-0.1,8.37,40.8,1.9577,395.1226],
    [12358,1537390908,53.4776,-109.9733,935.3,346.9,183.7,5.4,-0.4,8.56,40.52,1.9577,394.9542],
    [12359,1537390909,53.4769,-109.9733,933.3,349.9,183.8,5.4,-0.2,8.43,41.06,1.9584,394.484],
    [12360,1537390910,53.4761,-109.9733,931.0,349.0,183.2,4.7,-0.1,8.86,40.17,1.9609,394.484],
    [12361,1537390911,53.4754,-109.9733,928.4,345.4,183.8,5.4,-0.2,9.27,40.36,1.9609,394.7232],
    [12362,1537390912,53.4747,-109.9733,926.0,343.1,183.4,4.6,0.0,8.48,40.56,1.9625,394.0352],
    [12363,1537390913,53.4739,-109.9733,924.0,339.9,183.3,4.6,0.5,8.5,40.35,1.9629,395.168],
    [12364,1537390914,53.4732,-109.9733,922.0,334.4,183.7,4.8,0.6,8.46,40.51,1.9647,394.3906],
    [12365,1537390915,53.4725,-109.9733,919.9,327.9,183.7,4.7,0.4,9.42,40.39,1.9638,393.7708],
    [12366,1537390916,53.4717,-109.9733,917.6,324.2,183.8,4.7,0.7,8.91,40.4,1.9641,394.7153],
    [12367,1537390917,53.471,-109.9733,915.3,322.5,183.3,4.2,1.2,9.4,40.54,1.9657,393.5462],
    [12368,1537390918,53.4703,-109.9733,913.6,325.3,183.8,4.9,1.1,8.83,40.77,1.9643,393.3228],
    [12369,1537390919,53.4695,-109.9733,912.3,328.3,183.8,5.0,0.7,8.77,40.91,1.9632,394.6769],
    [12370,1537390920,53.4688,-109.9733,910.6,330.5,184.3,5.6,0.5,8.92,40.87,1.9619,394.7281],
    [12371,1537390921,53.468,-109.9733,908.9,336.9,184.2,5.5,0.6,8.44,41.04,1.9615,393.0152],
    [12372,1537390922,53.4673,-109.9734,907.7,331.2,183.9,5.1,1.0,8.95,40.96,1.9607,392.564],
    [12373,1537390923,53.4665,-109.9734,907.0,329.1,183.8,5.0,0.9,9.32,40.92,1.9622,393.2393],
    [12374,1537390924,53.4658,-109.9734,906.7,328.4,183.6,4.9,0.6,9.15,40.55,1.9616,394.6798],
    [12375,1537390925,53.4651,-109.9734,906.6,329.7,183.5,4.7,0.5,8.41,40.81,1.9623,395.3013],
    [12376,1537390926,53.4643,-109.9734,906.3,329.3,183.3,4.7,0.6,8.99,40.53,1.9625,393.7812],
    [12377,1537390927,53.4636,-109.9734,905.9,328.9,183.3,4.6,0.5,9.33,40.35,1.963,394.7032],
    [12378,1537390928,53.4629,-109.9734,905.6,333.6,183.1,4.2,0.3,9.46,40.7,1.9615,394.1272],
    [12379,1537390929,53.4621,-109.9734,905.1,333.1,183.3,4.4,0.2,8.46,40.88,1.962,393.6108],
    [12380,1537390930,53.4614,-109.9734,904.4,332.4,183.5,4.5,0.0,9.05,40.83,1.9643,392.9635],
    [12381,1537390931,53.4607,-109.9734,904.1,332.1,183.4,4.3,0.0,9.25,40.62,1.9634,394.4681],
    [12382,1537390932,53.4599,-109.9734,903.9,331.9,183.8,4.6,-0.1,9.19,40.5,1.9628,392.8839],
    [12383,1537390933,53.4592,-109.9734,904.1,332.1,183.5,4.2,-0.2,9.22,40.2,1.965,393.4238],
    [12384,1537390934,53.4585,-109.9734,904.4,332.4,183.8,4.6,0.0,9.1,40.43,1.9663,392.7944],
    [12385,1537390935,53.4578,-109.9734,904.3,332.3,184.3,5.4,0.1,9.23,40.35,1.9656,393.9057],
    [12386,1537390936,53.4571,-109.9735,904.6,332.6,184.3,5.3,0.2,8.51,40.76,1.9646,394.9354],
    [12387,1537390937,53.4564,-109.9735,905.2,333.2,184.1,5.1,0.3,9.09,40.72,1.9655,394.7995],
    [12388,1537390938,53.4556,-109.9735,906.7,334.7,183.5,4.3,-0.2,8.9,40.74,1.9647,392.926],
    [12389,1537390939,53.4549,-109.9735,907.4,335.4,183.4,4.4,-0.8,8.52,40.92,1.966,394.6669],
    [12390,1537390940,53.4542,-109.9735,906.5,334.5,183.8,5.3,-0.7,9.38,41.1,1.9656,392.3061],
    [12391,1537390941,53.4535,-109.9735,905.2,333.2,183.6,5.1,-0.8,9.53,40.66,1.9632,394.3395],
    [12392,1537390942,53.4527,-109.9735,904.5,332.5,182.8,4.0,-0.9,9.2,41.04,1.9638,394.3395],
    [12393,1537390943,53.452,-109.9735,904.1,332.1,182.5,3.7,-0.9,9.43,40.84,1.9647,394.0222],
    [12394,1537390944,53.4513,-109.9735,904.4,332.4,182.8,4.0,-1.1,9.17,41.36,1.964,394.1109],
    [12395,1537390945,53.4506,-109.9735,904.6,332.6,182.9,4.2,-1.4,9.16,41.51,1.9636,393.4225],
    [12396,1537390946,53.4499,-109.9735,904.4,332.4,183.3,4.5,-1.4,9.05,41.99,1.9657,393.7631],
    [12397,1537390947,53.4492,-109.9735,904.0,332.0,183.6,4.7,-1.6,9.54,40.62,1.9671,393.7339],
    [12398,1537390948,53.4485,-109.9735,903.9,331.9,183.8,4.9,-1.5,9.49,40.44,1.9708,393.5424],
    [12399,1537390949,53.4477,-109.9735,903.9,331.9,183.5,4.3,-1.4,8.96,41.47,1.9723,393.0555],
    [12400,1537390950,53.447,-109.9735,904.1,332.1,183.3,4.0,-1.1,8.7,41.24,1.9721,394.1093],
    [12401,1537390951,53.4463,-109.9735,904.9,332.9,182.7,3.0,-0.9,8.9,41.08,1.9674,393.2129],
    [12402,1537390952,53.4456,-109.9735,906.0,334.0,182.7,2.9,-1.5,9.02,41.32,1.9604,393.5105],
    [12403,1537390953,53.4449,-109.9735,906.0,326.9,183.4,3.7,-2.2,9.32,41.83,1.9585,393.9454],
    [12404,1537390954,53.4442,-109.9735,905.5,325.5,182.9,3.5,-1.4,9.96,40.92,1.9578,393.9138],
    [12405,1537390955,53.4435,-109.9735,905.3,324.4,183.7,4.6,-0.9,9.1,41.41,1.9592,392.9424],
    [12406,1537390956,53.4427,-109.9735,905.7,323.8,183.3,4.0,-1.3,8.8,41.39,1.9567,392.9921],
    [12407,1537390957,53.442,-109.9736,905.8,323.1,183.1,3.7,-0.7,9.25,41.49,1.9556,392.5436],
    [12408,1537390958,53.4413,-109.9736,905.0,323.0,183.0,3.6,-0.3,9.57,40.81,1.9563,393.8041],
    [12409,1537390959,53.4406,-109.9736,903.9,322.7,184.2,5.0,-0.6,9.36,41.36,1.9566,393.0115],
    [12410,1537390960,53.4399,-109.9736,903.5,323.5,184.3,4.8,-0.9,9.38,41.76,1.9573,393.5368],
    [12411,1537390961,53.4391,-109.9736,903.1,324.0,183.8,4.2,-0.9,8.88,40.93,1.9585,393.5341],
    [12412,1537390962,53.4385,-109.9736,902.3,325.4,184.6,5.0,-0.9,9.07,41.13,1.9575,393.7599],
    [12413,1537390963,53.4377,-109.9736,901.9,324.9,184.6,5.0,-1.0,8.95,40.99,1.9595,393.3678],
    [12414,1537390964,53.437,-109.9737,902.0,324.0,184.6,5.0,-1.0,10.05,40.42,1.9604,393.2534],
    [12415,1537390965,53.4363,-109.9737,902.5,324.5,184.2,4.7,-1.1,9.4,40.57,1.9594,393.2797],
    [12416,1537390966,53.4356,-109.9737,903.3,325.0,184.3,5.2,-1.2,8.91,40.54,1.9575,393.6091],
    [12417,1537390967,53.4349,-109.9737,903.9,325.9,184.5,5.5,-1.4,8.99,40.76,1.9557,393.7098],
    [12418,1537390968,53.4342,-109.9737,904.2,325.1,183.8,5.3,-1.4,9.12,40.58,1.9532,394.4319],
    [12419,1537390969,53.4335,-109.9737,904.2,324.0,184.2,6.0,-1.4,9.09,40.23,1.948,394.3749],
    [12420,1537390970,53.4328,-109.9737,904.6,320.3,184.3,6.1,-1.6,9.35,40.51,1.9526,393.0397],
    [12421,1537390971,53.4321,-109.9737,905.0,318.0,184.2,6.0,-1.6,9.53,39.97,1.9524,393.3819],
    [12422,1537390972,53.4313,-109.9737,905.4,313.4,183.6,5.3,-1.8,10.13,38.94,1.9554,393.8083],
    [12423,1537390973,53.4306,-109.9737,905.4,312.8,183.6,5.4,-1.8,9.57,39.17,1.9571,394.3207],
    [12424,1537390974,53.4299,-109.9737,904.7,306.1,183.7,5.6,-1.5,9.37,39.73,1.953,392.3647],
    [12425,1537390975,53.4292,-109.9737,904.3,301.9,183.3,5.3,-0.9,9.1,39.36,1.9517,392.6572],
    [12426,1537390976,53.4285,-109.9736,904.5,296.1,183.1,5.0,-0.8,9.3,38.93,1.9499,393.0051],
    [12427,1537390977,53.4278,-109.9736,905.0,296.0,183.1,5.0,-0.9,8.79,38.67,1.9497,393.8597],
    [12428,1537390978,53.4271,-109.9736,904.8,296.8,183.7,5.6,-0.9,9.39,38.41,1.9525,393.3403],
    [12429,1537390979,53.4264,-109.9736,905.0,296.0,183.6,5.4,-0.7,9.22,38.78,1.9549,394.2772],
    [12430,1537390980,53.4257,-109.9736,905.9,295.8,183.6,5.1,-0.9,8.97,39.12,1.9586,394.1623],
    [12431,1537390981,53.425,-109.9736,906.2,294.6,183.2,4.8,-1.0,9.39,38.29,1.9579,392.89],
    [12432,1537390982,53.4243,-109.9736,906.1,292.8,182.8,4.3,-1.3,8.71,39.0,1.9594,394.3023],
    [12433,1537390983,53.4236,-109.9736,906.1,290.8,182.2,3.5,-1.7,9.78,38.98,1.9577,393.0571],
    [12434,1537390984,53.4228,-109.9736,905.8,288.8,182.6,3.9,-1.8,9.65,39.38,1.9568,393.0571],
    [12435,1537390985,53.4221,-109.9736,905.3,287.3,183.9,5.5,-2.1,9.38,39.46,1.9526,393.9836],
    [12436,1537390986,53.4214,-109.9736,904.8,286.8,184.6,5.9,-2.3,9.88,39.03,1.9534,392.1584],
    [12437,1537390987,53.4207,-109.9736,904.5,288.8,184.0,5.3,-2.2,9.07,39.75,1.9512,392.1584],
    [12438,1537390988,53.42,-109.9736,904.5,295.0,184.0,5.3,-1.8,8.69,39.78,1.9504,392.369],
    [12439,1537390989,53.4193,-109.9736,904.2,300.0,183.4,4.7,-2.0,9.4,39.26,1.9491,392.4771],
    [12440,1537390990,53.4186,-109.9736,904.4,304.6,183.4,4.9,-2.6,9.38,39.43,1.9515,391.7031],
    [12441,1537390991,53.4178,-109.9736,905.2,305.2,183.4,5.0,-2.9,9.99,39.24,1.9513,393.3177],
    [12442,1537390992,53.4171,-109.9736,905.1,298.9,182.8,4.3,-2.8,9.13,39.46,1.9516,393.3177],
    [12443,1537390993,53.4164,-109.9736,904.5,293.7,182.7,4.6,-2.5,10.06,38.81,1.95,393.9765],
    [12444,1537390994,53.4157,-109.9736,904.2,289.6,183.5,5.3,-2.8,9.27,39.64,1.9489,394.4812],
    [12445,1537390995,53.415,-109.9735,904.4,287.3,183.1,4.5,-2.9,9.27,39.54,1.9485,393.2954],
    [12446,1537390996,53.4142,-109.9735,904.3,287.4,183.1,4.4,-2.4,9.25,39.29,1.9488,393.7604],
    [12447,1537390997,53.4135,-109.9735,904.1,286.1,183.4,4.7,-2.7,9.02,39.34,1.9492,393.3964],
    [12448,1537390998,53.4128,-109.9735,904.5,286.5,183.9,5.2,-2.8,8.78,39.11,1.9537,393.8353],
    [12449,1537390999,53.4121,-109.9735,905.3,288.3,182.8,3.5,-2.4,9.07,39.26,1.9722,393.8353],
    [12450,1537391000,53.4113,-109.9736,906.3,289.3,182.3,3.0,-2.4,9.22,39.05,2.03,392.0781],
    [12451,1537391001,53.4106,-109.9736,906.7,290.7,182.6,3.6,-2.3,9.37,39.59,2.0071,393.1019],
    [12452,1537391002,53.4099,-109.9736,905.7,289.7,183.4,4.6,-2.2,10.18,39.11,1.9652,393.8094],
    [12453,1537391003,53.4092,-109.9736,904.2,289.2,183.3,4.5,-1.7,9.34,39.83,1.9568,393.0993],
    [12454,1537391004,53.4084,-109.9736,904.5,289.7,183.3,4.4,-1.5,9.37,40.62,1.9581,393.8464],
    [12455,1537391005,53.4077,-109.9736,906.4,292.4,184.1,4.7,-1.8,9.22,39.76,1.9609,392.6727],
    [12456,1537391006,53.407,-109.9736,908.7,295.7,182.9,2.8,-1.7,10.1,39.83,2.5037,393.7739],
    [12457,1537391007,53.4062,-109.9736,909.9,296.8,181.9,1.3,-1.7,9.41,40.33,2.362,391.4863],
    [12458,1537391008,53.4055,-109.9736,910.1,297.1,182.2,2.0,-2.0,8.77,40.69,2.0781,394.5644],
    [12459,1537391009,53.4048,-109.9736,909.5,297.5,182.4,2.4,-1.9,9.56,40.69,1.9758,392.9716],
    [12460,1537391010,53.404,-109.9736,907.8,295.8,182.9,3.1,-1.7,9.49,41.34,1.9716,393.1069],
    [12461,1537391011,53.4033,-109.9737,906.0,294.0,183.8,4.1,-2.2,9.39,40.82,1.968,393.1944],
    [12462,1537391012,53.4027,-109.9737,905.1,292.1,183.9,4.0,-3.1,9.41,41.21,1.9637,392.4887],
    [12463,1537391013,53.4018,-109.9737,904.3,291.3,185.1,5.3,-3.3,9.42,40.97,1.9593,393.3503],
    [12464,1537391014,53.4011,-109.9737,903.8,289.8,184.7,4.8,-2.2,9.34,40.95,1.9592,392.421],
    [12465,1537391015,53.4004,-109.9738,903.8,289.8,184.2,4.0,-0.9,9.94,40.79,1.9581,392.4752],
    [12466,1537391016,53.3996,-109.9738,903.8,289.8,183.3,3.1,-0.6,9.34,41.09,1.9582,393.7084],
    [12467,1537391017,53.3989,-109.9738,904.3,289.3,183.9,3.8,-0.7,9.48,41.13,1.9596,393.1988],
    [12468,1537391018,53.3981,-109.9738,905.4,290.4,182.9,2.7,-0.1,9.3,41.2,1.9623,393.1734],
    [12469,1537391019,53.3974,-109.9739,907.3,291.3,183.9,4.4,0.4,9.53,41.28,1.9646,393.6105],
    [12470,1537391020,53.3967,-109.9739,907.9,291.9,185.0,5.5,0.1,8.96,41.44,1.9635,393.9998],
    [12471,1537391021,53.396,-109.9739,907.5,290.5,185.4,6.0,0.2,9.27,41.41,1.9635,392.5797],
    [12472,1537391022,53.3952,-109.9739,907.3,289.3,185.2,5.9,0.3,9.79,40.83,1.9598,393.6944],
    [12473,1537391023,53.3945,-109.9739,907.5,289.5,185.0,5.9,0.7,9.76,41.28,1.9577,391.8201],
    [12474,1537391024,53.3938,-109.974,907.5,289.4,184.6,5.7,0.9,9.7,41.34,1.9551,392.4339],
    [12475,1537391025,53.393,-109.974,907.3,289.3,184.2,5.6,0.8,9.21,40.79,1.9531,393.5364],
    [12476,1537391026,53.3923,-109.974,907.1,288.8,184.1,5.7,0.6,9.51,40.72,1.9554,393.5706],
    [12477,1537391027,53.3916,-109.974,906.7,287.7,184.0,5.6,0.5,9.53,40.61,1.9536,394.0516],
    [12478,1537391028,53.3909,-109.974,906.3,287.3,183.9,5.6,0.4,9.5,39.7,1.9517,394.1566],
    [12479,1537391029,53.3901,-109.974,905.8,286.8,183.9,5.6,0.3,9.4,39.34,1.9517,392.8956],
    [12480,1537391030,53.3894,-109.974,905.6,286.7,184.1,5.9,0.4,9.46,39.46,1.9498,393.1549],
    [12481,1537391031,53.3887,-109.974,905.7,286.4,184.5,6.4,0.1,9.04,39.34,1.9498,392.0842],
    [12482,1537391032,53.388,-109.974,905.6,285.6,184.5,6.4,-0.1,9.73,39.04,1.9507,393.9172],
    [12483,1537391033,53.3872,-109.974,905.4,284.4,184.8,6.9,-0.3,9.39,39.06,1.9691,393.4664],
    [12484,1537391034,53.3865,-109.974,904.9,282.9,184.2,6.4,0.1,10.06,38.49,1.9748,391.7924],
    [12485,1537391035,53.3858,-109.974,904.6,282.4,184.0,6.3,0.0,9.46,39.16,1.9679,393.2431],
    [12486,1537391036,53.3851,-109.9739,904.6,281.6,183.9,6.3,-0.1,9.84,38.49,1.9591,395.2936],
    [12487,1537391037,53.3844,-109.9739,905.1,282.1,183.9,6.5,0.0,9.4,39.04,1.9617,392.9066],
    [12488,1537391038,53.3836,-109.9739,905.4,282.4,183.9,6.6,0.1,9.44,39.98,1.9701,393.0422],
    [12489,1537391039,53.3829,-109.9739,905.8,282.8,183.0,5.2,0.2,10.07,39.39,1.977,393.3784],
    [12490,1537391040,53.3822,-109.9739,906.3,283.3,182.0,4.4,0.1,9.53,40.14,1.9838,391.8346],
    [12491,1537391041,53.3815,-109.9739,905.7,282.7,183.5,6.4,-0.3,9.38,39.65,1.9813,394.2137],
    [12492,1537391042,53.3808,-109.9738,904.9,281.9,184.0,6.6,-0.2,10.07,39.72,1.9772,393.7661],
    [12493,1537391043,53.3801,-109.9738,904.6,281.6,183.7,6.1,-0.2,9.45,40.52,1.9606,393.3666],
    [12494,1537391044,53.3793,-109.9738,904.2,282.4,184.3,6.1,0.0,9.34,40.01,1.9573,392.053],
    [12495,1537391045,53.3786,-109.9738,904.0,281.0,185.1,6.1,0.3,9.27,40.76,1.9611,394.8025],
    [12496,1537391046,53.3779,-109.9739,903.9,279.9,186.5,6.1,0.4,9.52,40.59,1.9614,393.3316],
    [12497,1537391047,53.3772,-109.9739,904.0,280.0,188.4,6.0,0.5,9.51,40.9,1.962,394.3593],
    [12498,1537391048,53.3765,-109.974,904.1,280.1,190.9,6.0,0.1,9.46,40.46,1.9581,392.3112],
    [12499,1537391049,53.3758,-109.9742,903.7,278.7,194.0,6.3,-0.4,8.77,40.42,1.9553,392.7767],
    [12500,1537391050,53.3751,-109.9744,903.2,278.2,197.4,6.5,-0.6,9.34,40.56,1.9539,393.968],
    [12501,1537391051,53.3744,-109.9747,903.2,278.2,200.6,6.4,-0.6,9.45,40.56,1.9527,391.7905],
    [12502,1537391052,53.3738,-109.9751,903.4,278.4,204.0,6.6,-0.7,9.47,40.53,1.9514,394.1738],
    [12503,1537391053,53.3731,-109.9755,903.7,277.7,207.3,6.5,-0.6,9.69,39.57,1.9509,393.9289],
    [12504,1537391054,53.3725,-109.976,904.2,278.2,210.6,6.4,-0.7,9.42,40.08,1.9524,392.5052],
    [12505,1537391055,53.3719,-109.9765,904.8,278.8,213.9,6.6,-0.9,9.44,40.37,1.9526,392.5232],
    [12506,1537391056,53.3713,-109.9771,905.2,278.2,216.8,6.3,-0.8,9.89,39.44,1.9535,392.5232],
    [12507,1537391057,53.3707,-109.9777,905.5,278.5,219.9,6.3,-0.7,9.07,39.77,1.9542,393.7276],
    [12508,1537391058,53.3702,-109.9784,905.5,278.5,223.1,6.3,-0.8,9.64,39.32,1.9538,393.6049],
    [12509,1537391059,53.3697,-109.9791,905.3,279.3,226.0,6.3,-0.8,10.32,39.23,1.9536,393.6049],
    [12510,1537391060,53.3692,-109.9799,905.2,279.2,229.4,6.3,-1.0,9.85,39.55,1.9531,393.4175],
    [12511,1537391061,53.3688,-109.9807,905.1,279.1,232.6,6.3,-1.1,8.99,39.98,1.9535,393.2086],
    [12512,1537391062,53.3684,-109.9815,905.0,279.0,235.8,6.4,-1.3,9.41,39.9,1.9543,393.2901],
    [12513,1537391063,53.368,-109.9825,904.8,278.8,239.1,6.2,-1.3,9.49,40.28,1.9601,393.2901],
    [12514,1537391064,53.3676,-109.9834,905.0,278.2,242.2,6.2,-1.2,9.99,39.43,1.9774,393.8104],
    [12515,1537391065,53.3673,-109.9843,905.7,280.4,245.5,6.0,-1.2,9.33,39.83,1.9817,391.1766],
    [12516,1537391066,53.367,-109.9853,906.5,282.5,248.6,6.2,-1.4,9.96,39.56,1.9751,392.5502],
    [12517,1537391067,53.3668,-109.9863,906.6,284.6,251.6,6.1,-1.6,9.58,40.1,1.9723,392.4748],
    [12518,1537391068,53.3666,-109.9873,906.5,281.5,254.4,6.2,-1.1,8.97,40.24,1.9741,392.4748],
    [12519,1537391069,53.3664,-109.9884,906.6,279.6,257.7,6.1,-1.5,9.89,40.27,1.9612,393.663],
    [12520,1537391070,53.3662,-109.9894,906.5,280.5,260.4,5.9,-1.3,9.41,40.82,1.9551,393.0992],
    [12521,1537391071,53.3661,-109.9905,906.4,282.4,263.2,6.2,-1.4,9.1,40.41,1.9543,394.2328],
    [12522,1537391072,53.3661,-109.9915,906.0,282.0,266.0,6.3,-1.7,10.08,40.38,1.954,394.2328],
    [12523,1537391073,53.366,-109.9926,905.9,281.9,268.4,6.1,-1.7,9.87,40.42,1.9538,392.7594],
    [12524,1537391074,53.366,-109.9937,906.2,282.2,270.1,5.9,-1.6,9.1,40.51,1.9553,392.7594],
    [12525,1537391075,53.366,-109.9947,906.5,282.6,271.8,6.0,-1.8,9.31,40.41,1.9538,392.7487],
    [12526,1537391076,53.366,-109.9958,906.6,282.6,272.8,6.6,-1.6,9.39,40.04,1.9538,391.423],
    [12527,1537391077,53.366,-109.9968,906.8,282.4,274.3,6.5,-2.2,9.23,40.29,1.9561,393.8465],
    [12528,1537391078,53.3661,-109.9978,907.2,281.5,274.7,5.9,-1.7,9.9,39.87,1.9574,392.4813],
    [12529,1537391079,53.3661,-109.999,906.9,279.9,274.3,5.9,-0.8,9.37,40.84,1.9545,392.1684],
    [12530,1537391080,53.3662,-110.0,905.5,277.6,274.8,5.9,-1.0,8.83,40.34,1.9565,392.1684],
    [12531,1537391081,53.3662,-110.0011,905.2,277.1,274.8,5.3,-0.5,9.23,40.73,1.9587,393.8045],
    [12532,1537391082,53.3663,-110.0021,906.7,276.6,274.8,4.8,-0.5,9.05,40.15,1.9593,393.1014],
    [12533,1537391083,53.3663,-110.0032,907.5,276.1,275.1,5.5,-1.1,9.56,40.26,1.9566,393.5971],
    [12534,1537391084,53.3664,-110.0043,907.5,274.7,274.8,5.3,-1.1,10.08,40.32,1.9592,393.5971],
    [12535,1537391085,53.3664,-110.0053,907.2,274.2,273.9,5.4,-0.7,9.18,40.5,1.956,392.7821],
    [12536,1537391086,53.3664,-110.0064,906.5,272.5,273.5,6.0,-0.9,9.26,41.5,1.956,392.3504],
    [12537,1537391087,53.3665,-110.0074,906.0,272.0,272.7,5.3,-0.6,9.34,40.89,1.9566,393.0442],
    [12538,1537391088,53.3665,-110.0085,906.8,272.8,272.2,4.6,-0.2,9.31,40.81,1.9581,391.9864],
    [12539,1537391089,53.3665,-110.0096,907.8,273.8,271.8,4.7,0.0,10.13,40.28,1.9596,393.3785],
    [12540,1537391090,53.3665,-110.0106,908.2,274.2,272.1,5.3,-0.2,9.5,41.03,1.9606,393.4349],
    [12541,1537391091,53.3666,-110.0117,909.0,274.7,272.2,4.4,-0.2,9.48,40.84,1.9582,388.6664],
    [12542,1537391092,53.3666,-110.0128,909.5,274.7,272.8,4.5,-1.1,9.13,41.33,1.9574,392.1147],
    [12543,1537391093,53.3666,-110.0138,907.8,272.8,273.2,4.5,-1.6,9.56,41.61,1.9555,393.2445],
    [12544,1537391094,53.3666,-110.0149,905.6,271.6,272.2,5.4,-1.0,9.59,42.03,1.9601,393.6159],
    [12545,1537391095,53.3666,-110.016,904.5,270.5,271.4,6.3,-0.7,10.16,41.28,1.9567,394.9499],
    [12546,1537391096,53.3667,-110.0171,903.6,269.6,271.5,6.3,-1.4,9.87,41.46,1.9558,392.4706],
    [12547,1537391097,53.3667,-110.0182,902.9,268.9,271.1,6.3,-1.3,9.09,41.48,1.9617,393.1006],
    [12548,1537391098,53.3667,-110.0193,903.6,269.6,270.5,6.0,-0.8,9.23,41.53,1.9597,388.8039],
    [12549,1537391099,53.3667,-110.0203,904.0,270.0,270.8,5.7,-1.3,9.46,41.24,1.956,392.7183],
    [12550,1537391100,53.3667,-110.0214,903.2,268.1,271.1,5.9,-1.5,9.48,41.79,1.9543,389.972],
    [12551,1537391101,53.3667,-110.0225,903.1,268.1,271.4,6.3,-1.7,9.44,42.01,1.9551,392.6061],
    [12552,1537391102,53.3667,-110.0236,903.7,268.7,271.1,5.5,-0.9,9.37,41.61,1.9543,393.6977],
    [12553,1537391103,53.3667,-110.0246,904.2,269.2,271.2,4.7,-1.2,9.33,41.35,1.9533,391.7332],
    [12554,1537391104,53.3667,-110.0257,904.4,268.7,271.3,3.9,-1.4,9.45,41.28,1.9547,392.4214],
    [12555,1537391105,53.3667,-110.0268,904.7,269.0,271.1,4.4,-1.3,8.71,41.29,1.987,391.9899],
    [12556,1537391106,53.3667,-110.0279,904.7,269.0,269.8,4.4,-0.1,9.65,40.79,2.0326,391.7232],
    [12557,1537391107,53.3667,-110.0289,905.1,269.8,268.8,3.7,0.3,8.84,41.18,2.0087,393.6445],
    [12558,1537391108,53.3667,-110.03,905.8,269.7,269.7,4.2,-0.9,9.21,41.87,2.0133,392.4158],
    [12559,1537391109,53.3666,-110.0311,905.4,268.4,270.1,4.6,-1.2,9.16,41.26,2.0655,392.3981],
    [12560,1537391110,53.3666,-110.0322,904.4,267.4,270.1,4.7,-1.1,9.46,41.14,1.99,392.9321],
    [12561,1537391111,53.3666,-110.0333,903.2,265.2,270.5,4.8,-1.5,9.59,40.92,1.9639,392.928],
    [12562,1537391112,53.3666,-110.0344,903.7,264.7,270.3,4.4,-1.1,8.85,41.39,1.9837,393.59],
    [12563,1537391113,53.3666,-110.0355,904.2,265.2,270.7,5.2,-1.6,9.48,41.32,1.9628,392.9375],
    [12564,1537391114,53.3666,-110.0366,904.2,264.2,270.2,5.5,-0.8,10.3,40.95,1.9665,392.2927],
    [12565,1537391115,53.3666,-110.0377,904.3,264.3,269.8,5.5,-0.5,9.65,41.23,1.9921,393.8408],
    [12566,1537391116,53.3666,-110.0388,905.5,265.5,269.5,5.3,-0.2,9.16,41.41,1.9979,393.8768],
    [12567,1537391117,53.3666,-110.0398,906.6,266.6,269.8,5.1,-0.5,9.39,41.48,1.9608,393.033],
    [12568,1537391118,53.3666,-110.0409,907.5,267.5,270.5,4.9,-1.4,9.25,41.61,1.958,393.3423],
    [12569,1537391119,53.3666,-110.042,908.5,267.8,270.7,5.0,-1.5,10.08,41.36,1.9574,394.073],
    [12570,1537391120,53.3666,-110.0431,909.8,268.8,270.5,5.2,-1.4,9.31,41.97,1.9569,392.8168],
    [12571,1537391121,53.3666,-110.0441,911.5,269.5,270.5,5.5,-1.7,9.32,41.49,1.9565,394.2644],
    [12572,1537391122,53.3666,-110.0452,913.2,270.2,270.2,5.6,-1.4,8.82,41.66,1.9562,392.3456],
    [12573,1537391123,53.3665,-110.0463,914.8,271.9,269.7,5.9,-1.1,9.44,42.21,1.9565,393.2066],
    [12574,1537391124,53.3665,-110.0473,916.4,272.4,270.0,5.9,-1.4,9.45,42.1,1.957,391.964],
    [12575,1537391125,53.3665,-110.0484,917.8,273.8,269.8,6.0,-1.2,9.66,42.02,1.9561,393.0768],
    [12576,1537391126,53.3665,-110.0494,919.2,275.2,269.8,6.6,-1.0,8.87,41.89,1.9568,392.938],
    [12577,1537391127,53.3665,-110.0505,920.6,276.6,269.7,6.7,-1.0,9.82,41.43,1.9574,393.031],
    [12578,1537391128,53.3665,-110.0515,922.1,277.1,269.9,6.4,-1.1,9.71,41.85,1.956,393.1794],
    [12579,1537391129,53.3665,-110.0526,923.3,277.3,269.8,6.2,-1.0,9.94,41.73,1.9568,394.4484],
    [12580,1537391130,53.3665,-110.0536,924.3,277.3,269.9,6.7,-1.1,9.65,41.62,1.9577,393.2474],
    [12581,1537391131,53.3664,-110.0547,925.3,277.3,269.7,6.9,-0.8,9.38,42.49,1.9588,393.2602],
    [12582,1537391132,53.3664,-110.0557,927.1,279.1,269.4,6.7,-0.4,9.26,42.78,1.957,391.8429],
    [12583,1537391133,53.3664,-110.0567,929.3,280.3,269.3,6.4,-0.3,9.33,42.27,1.9592,393.6941],
    [12584,1537391134,53.3664,-110.0578,930.9,280.9,270.1,6.3,-1.3,9.36,42.5,1.9596,393.5064],
    [12585,1537391135,53.3664,-110.0588,931.6,280.6,270.0,5.9,-1.1,8.69,42.51,1.9592,393.4946],
    [12586,1537391136,53.3664,-110.0598,931.6,279.5,269.8,5.9,-0.8,9.27,43.35,1.9599,392.8521],
    [12587,1537391137,53.3664,-110.0608,931.9,277.9,269.6,5.8,-0.6,9.91,42.06,1.9574,393.1512],
    [12588,1537391138,53.3664,-110.0619,932.7,278.7,269.4,5.8,-0.3,9.54,42.02,1.9565,393.7436],
    [12589,1537391139,53.3664,-110.0629,933.4,279.4,269.1,5.8,0.1,9.72,42.75,1.9563,392.114],
    [12590,1537391140,53.3664,-110.0639,933.4,278.4,269.1,5.8,0.1,9.37,43.05,1.956,392.114],
    [12591,1537391141,53.3663,-110.0649,933.1,277.1,269.6,5.6,-0.5,9.12,42.88,1.9561,393.1634],
    [12592,1537391142,53.3663,-110.066,933.0,275.9,269.5,5.4,-0.2,9.28,42.89,1.9575,393.7539],
    [12593,1537391143,53.3663,-110.067,933.1,276.1,269.7,5.4,-0.3,9.74,42.4,1.9581,393.8675],
    [12594,1537391144,53.3663,-110.068,933.6,277.6,269.8,5.6,-0.3,9.28,43.94,1.9563,393.3224],
    [12595,1537391145,53.3663,-110.069,934.0,278.0,269.6,5.8,0.0,9.98,42.9,1.9578,393.3448],
    [12596,1537391146,53.3663,-110.0701,933.7,277.7,269.8,5.8,-0.4,9.53,43.35,1.9605,394.1289],
    [12597,1537391147,53.3663,-110.0711,933.9,278.9,270.0,5.8,-0.4,9.0,43.33,1.9621,392.2248],
    [12598,1537391148,53.3663,-110.0721,934.6,279.6,269.8,5.4,-0.3,9.26,43.06,1.9614,393.7308],
    [12599,1537391149,53.3663,-110.0732,934.6,280.7,269.7,5.4,-0.3,9.36,42.86,1.9638,392.6968],
    [12600,1537391150,53.3663,-110.0742,934.3,279.3,269.5,5.8,-0.2,8.98,43.52,1.9634,392.899],
    [12601,1537391151,53.3663,-110.0752,934.0,279.0,269.7,5.8,-0.3,9.03,43.63,1.9623,393.8477],
    [12602,1537391152,53.3663,-110.0763,934.2,279.2,269.6,6.0,-0.1,9.14,44.17,1.9647,392.9632],
    [12603,1537391153,53.3663,-110.0773,934.7,279.7,269.8,6.1,-0.3,9.4,43.4,1.9625,392.9632],
    [12604,1537391154,53.3663,-110.0783,934.7,280.7,269.6,6.0,-0.1,8.75,44.03,1.9611,393.3785],
    [12605,1537391155,53.3663,-110.0794,934.4,280.4,270.0,6.0,-0.6,9.04,44.85,1.9612,393.4491],
    [12606,1537391156,53.3663,-110.0804,934.0,281.0,270.1,5.9,-0.7,9.44,44.4,1.9604,393.3881],
    [12607,1537391157,53.3663,-110.0815,933.9,280.9,269.8,6.0,-0.4,9.6,43.82,1.9594,394.9177],
    [12608,1537391158,53.3662,-110.0825,934.2,282.2,270.0,5.9,-0.5,9.22,44.16,1.9581,392.4815],
    [12609,1537391159,53.3662,-110.0835,934.5,282.5,269.8,5.8,-0.3,9.4,43.8,1.9588,392.7123],
    [12610,1537391160,53.3662,-110.0846,934.6,281.6,269.9,6.0,-0.6,9.01,44.47,1.9598,392.5029],
    [12611,1537391161,53.3662,-110.0856,934.6,281.6,269.9,6.1,-0.6,9.71,43.92,1.9579,392.9928],
    [12612,1537391162,53.3662,-110.0866,934.4,282.4,270.1,6.0,-0.9,9.31,43.86,1.9586,393.3405],
    [12613,1537391163,53.3662,-110.0877,934.4,282.4,269.9,6.0,-0.8,9.07,43.68,1.9611,392.9829],
    [12614,1537391164,53.3662,-110.0887,934.5,283.5,269.6,6.3,-0.4,9.1,44.07,1.9569,392.7472],
    [12615,1537391165,53.3662,-110.0898,934.7,283.7,269.6,6.3,-0.4,9.21,43.75,1.956,392.0189],
    [12616,1537391166,53.3662,-110.0908,934.8,283.8,269.8,6.2,-0.7,9.58,43.96,1.9573,393.4183],
    [12617,1537391167,53.3662,-110.0918,935.2,285.2,269.6,6.2,-0.4,9.15,44.17,1.957,392.7552],
    [12618,1537391168,53.3662,-110.0929,935.0,285.0,269.8,6.6,-0.9,9.17,43.9,1.9554,393.9619],
    [12619,1537391169,53.3662,-110.0939,934.7,284.7,270.0,7.0,-0.9,9.14,43.79,1.9543,393.2784],
    [12620,1537391170,53.3662,-110.095,934.5,284.5,270.0,6.9,-0.9,8.9,43.65,1.9516,393.0126],
    [12621,1537391171,53.3661,-110.096,934.7,284.7,269.9,6.7,-0.6,8.41,43.54,1.9554,393.6611],
    [12622,1537391172,53.3661,-110.097,935.2,286.2,269.8,6.7,-0.6,8.97,42.89,1.953,392.8045],
    [12623,1537391173,53.3661,-110.0981,934.9,285.9,269.9,6.5,-0.7,8.74,43.13,1.9541,392.9248],
    [12624,1537391174,53.3661,-110.0992,934.4,285.4,270.0,6.5,-1.0,8.81,42.89,1.9504,390.8261],
    [12625,1537391175,53.3661,-110.1002,933.9,284.9,269.8,6.6,-0.7,8.91,42.6,1.9502,392.8769],
    [12626,1537391176,53.3661,-110.1012,933.9,284.9,269.7,6.6,-0.8,9.45,41.68,1.9499,393.0647],
    [12627,1537391177,53.3661,-110.1023,934.2,285.2,270.6,6.5,-1.8,8.89,42.26,1.9507,392.9763],
    [12628,1537391178,53.3661,-110.1033,934.5,285.5,270.4,6.3,-1.6,8.91,41.91,1.9551,393.3561],
    [12629,1537391179,53.3661,-110.1044,934.8,285.8,269.9,6.0,-1.1,9.5,41.08,1.9563,393.0103],
    [12630,1537391180,53.3661,-110.1054,935.0,287.0,269.9,5.7,-1.5,9.14,41.49,1.9558,392.1355],
    [12631,1537391181,53.366,-110.1065,934.7,286.7,270.1,5.7,-1.7,9.91,41.4,1.9562,392.8638],
    [12632,1537391182,53.366,-110.1075,934.5,286.5,269.6,6.3,-1.2,8.9,42.0,1.9553,393.5445],
    [12633,1537391183,53.366,-110.1085,934.3,285.6,269.8,6.4,-1.3,8.95,42.75,1.9533,393.9442],
    [12634,1537391184,53.366,-110.1096,934.3,285.3,269.7,6.4,-1.0,8.92,42.47,1.9534,393.2796],
    [12635,1537391185,53.366,-110.1107,934.3,285.3,270.0,6.3,-1.3,8.71,42.23,1.9541,393.2332],
    [12636,1537391186,53.366,-110.1117,934.6,285.6,270.2,6.2,-1.5,9.42,41.52,1.9528,393.7277],
    [12637,1537391187,53.366,-110.1128,934.8,285.8,270.1,6.4,-1.3,8.9,42.15,1.9539,393.7647],
    [12638,1537391188,53.366,-110.1138,935.2,286.2,269.9,6.4,-1.2,8.82,42.23,1.9531,395.3093],
    [12639,1537391189,53.3659,-110.1149,935.3,286.3,269.9,6.1,-1.3,8.89,42.13,1.9541,392.8514],
    [12640,1537391190,53.3659,-110.1159,934.9,285.9,270.0,6.4,-1.5,9.08,41.88,1.9525,392.3905],
    [12641,1537391191,53.3659,-110.117,934.7,285.7,269.4,6.1,-0.8,9.12,41.8,1.9574,393.6918],
    [12642,1537391192,53.3659,-110.118,935.0,286.0,269.3,5.9,-0.7,9.13,41.73,1.9559,393.6918],
    [12643,1537391193,53.3659,-110.1191,935.1,286.1,269.7,6.0,-1.1,9.33,41.81,1.9529,394.3119],
    [12644,1537391194,53.3659,-110.1201,934.9,286.7,270.3,5.9,-1.8,9.32,41.81,1.9515,393.1027],
    [12645,1537391195,53.3659,-110.1212,934.9,286.9,270.3,5.9,-1.7,8.77,41.69,1.9527,394.3729],
    [12646,1537391196,53.3659,-110.1222,934.7,286.7,270.0,5.7,-1.4,9.25,41.82,1.9497,393.4477],
    [12647,1537391197,53.3658,-110.1233,934.4,286.1,270.1,5.9,-1.5,8.99,42.23,1.95,394.1855],
    [12648,1537391198,53.3658,-110.1243,934.2,285.2,269.5,6.0,-0.8,9.2,41.52,1.9508,392.7149],
    [12649,1537391199,53.3658,-110.1254,934.2,284.5,269.1,6.0,-0.4,8.84,41.57,1.951,393.8459],
    [12650,1537391200,53.3658,-110.1263,934.4,284.4,269.1,5.8,-0.4,8.99,41.56,1.9506,391.4225],
    [12651,1537391201,53.3658,-110.1275,934.6,283.8,269.1,6.0,-0.3,8.73,41.44,1.9519,394.6974],
    [12652,1537391202,53.3658,-110.1285,935.0,284.0,269.4,6.1,-0.7,8.99,41.51,1.9527,392.4914],
    [12653,1537391203,53.3658,-110.1296,935.3,283.6,269.8,6.4,-1.0,9.19,40.83,1.9533,393.1576],
    [12654,1537391204,53.3657,-110.1306,935.5,283.4,269.9,6.5,-1.0,9.3,40.99,1.9517,393.6093],
    [12655,1537391205,53.3657,-110.1316,935.6,283.5,269.9,6.6,-1.0,8.77,41.29,1.9491,393.2441],
    [12656,1537391206,53.3657,-110.1327,935.9,281.9,269.9,6.5,-0.9,8.9,41.18,1.9497,393.1825],
    [12657,1537391207,53.3657,-110.1338,935.8,280.8,269.8,6.4,-0.9,9.46,40.59,1.9517,392.7778],
    [12658,1537391208,53.3657,-110.1348,935.6,279.6,269.8,6.3,-0.8,8.72,41.02,1.9498,393.2303],
    [12659,1537391209,53.3657,-110.1358,935.4,279.5,269.6,6.5,-0.5,8.78,40.69,1.949,393.3746],
    [12660,1537391210,53.3657,-110.1369,935.1,278.4,269.7,6.2,-0.5,8.95,41.71,1.9501,392.2415],
    [12661,1537391211,53.3657,-110.1379,934.8,278.1,269.5,5.8,-0.4,8.75,40.8,1.9487,393.4289],
    [12662,1537391212,53.3657,-110.139,934.4,278.5,269.7,5.9,-0.5,8.72,40.72,1.9481,393.4569],
    [12663,1537391213,53.3657,-110.14,934.1,278.1,269.6,5.8,-0.5,9.05,40.96,1.9479,392.7712],
    [12664,1537391214,53.3657,-110.1411,934.0,278.0,269.7,5.8,-0.5,8.95,40.11,1.949,394.2142],
    [12665,1537391215,53.3656,-110.1422,934.2,278.2,269.9,6.1,-0.8,8.99,40.33,1.9523,392.6762],
    [12666,1537391216,53.3656,-110.1432,934.6,278.5,270.4,6.1,-1.3,8.96,39.98,1.954,393.0075],
    [12667,1537391217,53.3656,-110.1442,935.2,278.2,270.4,6.5,-1.3,9.36,39.71,1.9516,391.7358],
    [12668,1537391218,53.3656,-110.1453,935.3,278.3,270.1,7.0,-1.0,9.0,40.4,1.9514,391.356],
    [12669,1537391219,53.3656,-110.1464,935.1,278.1,269.8,6.9,-0.8,9.45,40.11,1.9511,393.0067],
    [12670,1537391220,53.3656,-110.1474,934.7,277.7,270.1,6.8,-1.4,9.0,40.41,1.9508,394.3679],
    [12671,1537391221,53.3656,-110.1484,934.4,277.4,269.8,6.6,-0.8,8.88,40.71,1.9514,393.9002],
    [12672,1537391222,53.3656,-110.1495,934.4,277.4,269.6,6.8,-0.7,8.37,40.71,1.9541,393.6823],
    [12673,1537391223,53.3656,-110.1506,934.7,277.0,269.6,6.4,-0.7,8.9,40.98,1.9527,393.6155],
    [12674,1537391224,53.3656,-110.1515,935.1,277.1,269.7,5.7,-0.7,8.28,40.64,1.9535,394.6453],
    [12675,1537391225,53.3656,-110.1527,935.5,277.5,269.9,5.7,-1.0,9.19,40.77,1.9538,394.4133],
    [12676,1537391226,53.3655,-110.1537,935.0,276.0,270.1,5.7,-1.0,9.58,40.82,1.9538,393.7733],
    [12677,1537391227,53.3655,-110.1547,934.2,275.2,269.6,5.8,-0.4,8.94,41.65,1.9546,393.0738],
    [12678,1537391228,53.3655,-110.1558,934.3,275.3,269.5,5.9,-0.4,9.55,40.75,1.9537,391.1491],
    [12679,1537391229,53.3655,-110.1569,934.4,274.3,269.8,6.1,-0.7,9.49,40.73,1.9523,393.0119],
    [12680,1537391230,53.3655,-110.1578,934.3,274.3,270.0,6.1,-1.0,9.64,41.04,1.9512,392.7563],
    [12681,1537391231,53.3655,-110.159,934.5,273.5,270.4,6.4,-1.3,8.85,41.67,1.952,393.8797],
    [12682,1537391232,53.3655,-110.16,934.7,273.7,270.3,6.2,-1.3,8.7,41.47,1.9509,393.4795],
    [12683,1537391233,53.3655,-110.161,934.6,272.6,270.2,5.9,-1.0,9.4,41.38,1.9522,393.3308],
    [12684,1537391234,53.3655,-110.1621,934.3,272.3,270.1,5.8,-1.1,8.87,41.65,1.9528,393.8543],
    [12685,1537391235,53.3655,-110.1631,934.0,271.0,270.1,5.7,-1.1,8.96,41.6,1.9525,393.3028],
    [12686,1537391236,53.3655,-110.1642,934.1,271.1,269.8,5.8,-0.8,9.45,41.15,1.9542,392.3407],
    [12687,1537391237,53.3654,-110.1652,934.6,271.6,269.2,6.1,-0.3,9.57,41.38,1.9531,393.0973],
    [12688,1537391238,53.3654,-110.1663,935.0,271.0,269.5,6.3,-0.5,8.87,41.64,1.955,393.0973],
    [12689,1537391239,53.3654,-110.1673,935.2,271.2,269.9,6.3,-0.8,8.57,41.62,1.9536,393.7424],
    [12690,1537391240,53.3654,-110.1684,935.3,272.3,270.5,6.2,-1.3,8.92,41.81,1.9539,393.721],
    [12691,1537391241,53.3654,-110.1694,935.4,272.4,270.8,5.7,-1.5,9.76,41.36,1.9544,392.8398],
    [12692,1537391242,53.3654,-110.1704,935.6,272.6,270.8,5.7,-1.7,9.03,42.22,1.9545,394.3312],
    [12693,1537391243,53.3654,-110.1715,935.4,272.1,270.8,5.7,-1.6,9.02,41.93,1.9551,396.0445],
    [12694,1537391244,53.3654,-110.1726,935.2,271.2,270.3,5.4,-1.2,8.75,42.45,1.9565,396.0445],
    [12695,1537391245,53.3654,-110.1736,934.6,270.6,270.1,5.7,-1.2,9.72,41.97,1.9502,394.9241],
    [12696,1537391246,53.3654,-110.1746,934.4,270.4,270.0,6.2,-1.1,8.92,42.93,1.9466,394.9623],
    [12697,1537391247,53.3654,-110.1757,934.5,269.5,269.8,6.2,-0.9,9.07,42.42,1.9483,392.3082],
    [12698,1537391248,53.3654,-110.1768,934.8,269.8,269.7,6.0,-0.8,9.04,42.19,1.9482,388.8293],
    [12699,1537391249,53.3654,-110.1778,934.8,269.8,270.1,5.8,-1.1,9.09,41.74,1.9491,388.8293],
    [12700,1537391250,53.3653,-110.1788,934.9,269.9,270.2,5.7,-1.2,8.66,41.68,1.949,394.0637],
    [12701,1537391251,53.3653,-110.1799,934.9,269.6,270.6,5.6,-1.6,8.99,41.56,1.9498,393.103],
    [12702,1537391252,53.3653,-110.1809,934.5,268.5,270.6,5.7,-1.4,8.75,40.98,1.9506,390.7454],
    [12703,1537391253,53.3653,-110.182,934.2,268.2,270.6,6.1,-1.4,9.04,40.91,1.9496,390.7454],
    [12704,1537391254,53.3653,-110.1831,933.9,268.9,270.5,5.9,-1.3,8.63,41.1,1.948,393.8683],
    [12705,1537391255,53.3653,-110.1841,933.9,268.6,270.1,6.0,-0.8,8.62,40.86,1.9486,392.7535],
    [12706,1537391256,53.3653,-110.1852,934.3,268.3,270.0,6.4,-0.5,9.01,41.27,1.9485,393.4732],
    [12707,1537391257,53.3653,-110.1862,934.7,267.7,269.8,6.1,-0.4,8.98,40.17,1.9473,393.5685],
    [12708,1537391258,53.3653,-110.1873,935.0,268.0,270.3,5.7,-0.9,9.54,40.06,1.9483,393.5897],
    [12709,1537391259,53.3653,-110.1883,934.9,268.9,270.2,5.8,-0.8,8.99,39.75,1.9493,394.5407],
    [12710,1537391260,53.3653,-110.1894,934.3,271.0,270.7,6.2,-1.4,9.44,39.6,1.9491,392.8164],
    [12711,1537391261,53.3653,-110.1904,934.3,272.3,270.5,6.1,-1.0,8.84,39.9,1.9504,393.34],
    [12712,1537391262,53.3653,-110.1915,934.9,272.9,270.8,6.1,-1.3,9.7,39.63,1.9503,395.0419],
    [12713,1537391263,53.3653,-110.1925,935.2,272.5,271.0,6.4,-1.5,9.4,39.46,1.9515,392.3152],
    [12714,1537391264,53.3653,-110.1936,935.0,272.0,270.9,6.4,-1.2,8.99,39.89,1.9482,393.9118],
    [12715,1537391265,53.3653,-110.1946,934.7,271.7,270.2,6.7,-0.3,8.92,40.13,1.9471,392.6583],
    [12716,1537391266,53.3653,-110.1957,934.4,270.9,270.4,6.9,-0.5,8.7,39.68,1.9518,392.6262],
    [12717,1537391267,53.3653,-110.1967,934.9,271.6,270.3,6.6,-0.2,9.07,39.86,1.954,393.8708],
    [12718,1537391268,53.3653,-110.1978,935.7,272.7,270.6,6.3,-0.4,8.98,40.09,1.9559,394.0319],
    [12719,1537391269,53.3653,-110.1988,935.8,272.8,271.1,5.5,-0.8,8.97,39.98,1.9566,394.0319],
    [12720,1537391270,53.3653,-110.1999,935.3,271.3,270.6,6.4,-0.2,9.04,40.83,1.9551,393.1684],
    [12721,1537391271,53.3653,-110.2009,935.1,271.1,271.2,7.4,-1.1,9.37,40.21,1.952,393.8163],
    [12722,1537391272,53.3653,-110.2019,935.1,271.1,271.3,7.5,-1.0,9.23,39.72,1.9452,393.8674],
    [12723,1537391273,53.3653,-110.203,935.3,272.3,270.9,7.4,-0.7,8.79,40.46,1.9437,393.0064],
    [12724,1537391274,53.3653,-110.2041,935.4,273.5,271.2,7.5,-1.0,8.96,40.22,1.9453,393.0064],
    [12725,1537391275,53.3653,-110.2051,935.7,274.4,271.1,7.5,-0.9,8.96,39.79,1.9459,394.0298],
    [12726,1537391276,53.3653,-110.2061,935.7,274.7,270.9,6.8,-0.6,8.84,39.63,1.9484,393.0727],
    [12727,1537391277,53.3653,-110.2072,935.4,274.4,271.1,6.7,-1.0,8.45,39.35,1.9486,393.4379],
    [12728,1537391278,53.3653,-110.2083,934.8,273.8,271.3,6.7,-1.0,8.45,39.18,1.9501,392.6124],
    [12729,1537391279,53.3653,-110.2093,934.3,272.3,271.1,7.0,-0.9,8.73,38.75,1.9571,393.6477],
    [12730,1537391280,53.3653,-110.2103,934.4,273.4,271.1,6.9,-0.9,9.17,39.13,1.9559,393.9212],
    [12731,1537391281,53.3653,-110.2114,934.5,273.5,270.9,6.7,-0.6,9.0,39.82,1.9474,394.6487],
    [12732,1537391282,53.3654,-110.2124,933.9,273.9,270.6,6.5,-0.1,9.43,38.47,1.9493,393.0988],
    [12733,1537391283,53.3654,-110.2135,933.3,273.3,270.7,6.1,-0.3,9.45,38.11,1.9555,393.0965],
    [12734,1537391284,53.3654,-110.2145,933.0,273.0,271.2,5.7,-0.9,8.93,38.69,1.9592,394.1718],
    [12735,1537391285,53.3654,-110.2156,933.1,272.1,271.1,5.7,-0.7,9.54,38.24,1.9607,394.0565],
    [12736,1537391286,53.3654,-110.2166,933.5,272.5,271.4,5.6,-0.9,8.59,38.94,1.9627,393.2832],
    [12737,1537391287,53.3654,-110.2176,934.3,273.3,271.5,5.1,-1.2,9.31,39.42,1.9569,394.5717],
    [12738,1537391288,53.3654,-110.2187,934.6,273.6,272.0,4.4,-1.7,8.54,40.23,1.9557,393.903],
    [12739,1537391289,53.3654,-110.2197,934.3,273.3,271.9,4.6,-1.5,9.33,39.86,1.9593,393.9113],
    [12740,1537391290,53.3654,-110.2208,934.1,273.1,270.9,4.9,-0.3,8.98,40.78,1.9589,393.8297],
    [12741,1537391291,53.3654,-110.2218,934.4,274.4,270.2,4.5,0.3,9.03,40.99,1.9621,394.701],
    [12742,1537391292,53.3654,-110.2228,934.5,274.5,270.0,4.9,0.2,9.7,40.19,1.9633,392.3538],
    [12743,1537391293,53.3654,-110.2239,934.2,274.2,270.6,5.0,-0.4,9.04,41.39,1.9631,394.7738],
    [12744,1537391294,53.3654,-110.225,934.1,273.8,270.2,5.1,0.5,8.99,40.82,1.9623,393.1835],
    [12745,1537391295,53.3654,-110.226,934.8,272.8,269.9,5.7,1.5,9.02,41.4,1.9612,394.0206],
    [12746,1537391296,53.3655,-110.227,935.7,273.7,270.1,5.7,1.6,8.84,42.28,1.9624,393.2868],
    [12747,1537391297,53.3655,-110.2281,935.8,273.8,271.2,5.9,0.6,9.1,42.46,1.9634,393.6983],
    [12748,1537391298,53.3655,-110.2292,935.0,272.0,271.7,4.9,0.2,8.73,42.35,1.9615,392.7588],
    [12749,1537391299,53.3655,-110.2302,933.8,270.8,271.9,5.1,0.1,9.01,42.79,1.9594,393.685],
    [12750,1537391300,53.3655,-110.2313,933.1,269.1,271.7,5.3,0.5,8.98,42.21,1.9575,393.3133],
    [12751,1537391301,53.3656,-110.2323,933.1,269.4,271.4,5.5,0.8,8.78,42.26,1.9521,393.6137],
    [12752,1537391302,53.3656,-110.2334,933.7,269.8,271.9,5.6,0.2,8.49,42.56,1.9514,392.2032],
    [12753,1537391303,53.3656,-110.2345,934.3,267.3,272.3,5.6,0.1,8.67,41.99,1.9534,393.215],
    [12754,1537391304,53.3656,-110.2355,934.4,266.4,272.3,6.0,-0.1,8.85,41.73,1.9557,393.5911],
    [12755,1537391305,53.3657,-110.2366,933.6,264.6,271.9,5.6,0.3,9.04,41.9,1.9537,393.7337],
    [12756,1537391306,53.3657,-110.2377,933.2,263.0,271.4,6.4,0.4,9.29,41.75,1.956,393.2628],
    [12757,1537391307,53.3657,-110.2387,933.4,262.4,272.7,6.8,-1.4,8.75,41.23,1.9563,393.2646],
    [12758,1537391308,53.3657,-110.2397,933.3,262.8,272.7,6.2,-1.4,9.23,41.42,1.9551,393.2849],
    [12759,1537391309,53.3657,-110.2409,933.4,264.2,272.7,5.7,-1.4,9.01,41.64,1.9558,393.1631],
    [12760,1537391310,53.3658,-110.2419,933.7,264.8,272.3,6.6,-0.8,9.05,41.51,1.9558,392.6832],
    [12761,1537391311,53.3658,-110.243,933.9,263.9,272.5,6.5,-1.3,8.75,41.75,1.9481,393.2008],
    [12762,1537391312,53.3658,-110.244,934.0,264.0,272.7,6.4,-1.5,9.21,42.23,1.9472,393.6107],
    [12763,1537391313,53.3658,-110.2451,934.4,264.9,272.4,5.9,-1.2,8.95,41.74,1.9489,393.7047],
    [12764,1537391314,53.3658,-110.2462,935.1,265.7,272.2,4.8,-1.3,8.45,41.49,1.9522,391.2387],
    [12765,1537391315,53.3659,-110.2472,935.4,265.3,272.2,5.2,-1.5,8.72,41.58,1.9501,393.4179],
    [12766,1537391316,53.3659,-110.2483,934.7,265.1,272.1,5.7,-1.5,9.58,41.1,1.9504,393.9616],
    [12767,1537391317,53.3659,-110.2493,934.3,265.3,271.7,5.6,-1.1,8.59,41.37,1.9495,393.9616],
    [12768,1537391318,53.3659,-110.2504,934.4,265.9,272.0,6.1,-1.6,9.09,41.93,1.9492,393.7758],
    [12769,1537391319,53.3659,-110.2515,934.7,265.6,271.7,6.6,-1.2,8.88,41.47,1.9507,393.9393],
    [12770,1537391320,53.3659,-110.2526,934.9,265.0,271.7,6.9,-1.2,9.01,41.36,1.9525,394.0207],
    [12771,1537391321,53.3659,-110.2536,934.8,263.5,271.5,7.2,-1.0,9.03,41.74,1.9499,394.389],
    [12772,1537391322,53.3659,-110.2547,935.1,263.1,271.3,7.1,-0.6,8.52,41.11,1.9503,393.6517],
    [12773,1537391323,53.3659,-110.2557,935.6,262.5,271.4,7.2,-0.8,8.64,41.47,1.9513,393.1889],
    [12774,1537391324,53.366,-110.2568,936.1,262.0,271.6,7.5,-1.1,9.75,40.49,1.9509,393.3117],
    [12775,1537391325,53.366,-110.2579,936.6,262.3,271.7,7.2,-1.2,8.95,41.03,1.9491,393.9176],
    [12776,1537391326,53.366,-110.259,936.7,262.4,272.0,6.7,-1.7,9.18,40.48,1.9493,393.8811],
    [12777,1537391327,53.366,-110.26,936.2,262.2,272.1,6.7,-1.6,9.02,40.77,1.9483,393.2924],
    [12778,1537391328,53.366,-110.261,935.5,261.5,271.9,6.6,-1.4,8.48,40.83,1.9501,393.2731],
    [12779,1537391329,53.366,-110.2622,935.1,260.8,271.8,6.6,-1.4,9.05,40.3,1.9509,393.9015],
    [12780,1537391330,53.366,-110.2632,934.8,259.8,271.5,6.9,-1.1,8.34,40.72,1.9493,393.6912],
    [12781,1537391331,53.366,-110.2643,934.8,258.9,271.3,6.6,-1.0,8.77,40.96,1.9503,393.856],
    [12782,1537391332,53.366,-110.2654,934.7,257.7,271.5,6.5,-1.3,9.69,40.45,1.9508,393.856],
    [12783,1537391333,53.366,-110.2664,934.5,256.4,271.6,6.6,-1.5,9.16,40.74,1.9492,393.6537],
    [12784,1537391334,53.366,-110.2675,934.8,256.2,271.7,6.1,-1.5,8.83,40.29,1.9451,393.302],
    [12785,1537391335,53.366,-110.2686,934.8,255.0,271.8,6.0,-1.7,9.18,40.86,1.9432,393.0466],
    [12786,1537391336,53.3661,-110.2696,934.9,254.6,271.7,6.1,-1.6,9.33,40.16,1.9447,393.5945],
    [12787,1537391337,53.3661,-110.2707,934.8,252.6,271.6,5.9,-1.5,8.27,39.9,1.9446,393.1153],
    [12788,1537391338,53.3661,-110.2718,934.7,250.9,271.5,5.5,-1.5,9.14,39.87,1.9457,393.9828],
    [12789,1537391339,53.3661,-110.2728,934.3,249.0,271.4,5.4,-1.3,9.09,40.31,1.9447,393.0782],
    [12790,1537391340,53.3661,-110.2739,934.0,247.0,271.0,5.4,-0.8,8.9,39.51,1.9442,394.5126],
    [12791,1537391341,53.3661,-110.275,934.0,245.5,270.5,5.1,-0.2,9.06,39.8,1.9471,394.4224],
    [12792,1537391342,53.3661,-110.276,933.5,243.3,271.1,4.7,-0.8,9.38,38.91,1.948,393.964],
    [12793,1537391343,53.3661,-110.2771,933.1,241.8,270.8,4.1,-0.3,8.89,39.04,1.9485,393.701],
    [12794,1537391344,53.3661,-110.2782,934.1,241.0,270.3,4.0,0.2,8.62,38.98,1.9516,393.701],
    [12795,1537391345,53.3661,-110.2792,935.2,241.1,270.1,3.9,0.5,9.21,38.69,1.9564,392.8835],
    [12796,1537391346,53.3661,-110.2803,935.5,239.5,269.7,4.3,1.1,9.38,39.02,1.958,394.0715],
    [12797,1537391347,53.3661,-110.2814,935.4,239.4,270.0,4.8,0.9,9.1,40.3,1.9542,393.2731],
    [12798,1537391348,53.3661,-110.2824,935.0,238.0,270.8,4.9,0.0,8.96,40.28,1.9534,392.758],
    [12799,1537391349,53.3661,-110.2835,934.8,236.8,271.0,4.3,-0.2,8.78,40.66,1.9547,394.4655],
    [12800,1537391350,53.3661,-110.2846,935.5,237.5,270.6,4.1,0.0,9.15,40.65,1.9551,394.0537],
    [12801,1537391351,53.3661,-110.2856,936.0,237.0,270.9,3.9,-0.7,8.83,41.14,1.954,394.8345],
    [12802,1537391352,53.3662,-110.2867,935.0,236.0,272.5,3.4,-2.7,9.26,41.59,1.9548,394.4057],
    [12803,1537391353,53.3662,-110.2878,933.6,235.6,272.4,2.8,-2.4,9.09,41.94,1.9549,394.03],
    [12804,1537391354,53.3662,-110.2889,933.2,235.2,270.4,2.9,-0.1,9.5,41.06,1.9535,393.9235],
    [12805,1537391355,53.3662,-110.2899,932.9,234.9,269.2,4.2,1.3,9.02,41.51,1.9554,394.4539],
    [12806,1537391356,53.3662,-110.291,933.3,235.3,269.0,4.3,1.8,9.06,41.79,1.9565,393.1318],
    [12807,1537391357,53.3662,-110.2921,933.0,236.0,269.6,4.9,0.9,8.94,41.85,1.9565,393.8591],
    [12808,1537391358,53.3662,-110.2931,932.5,235.5,271.5,5.0,-1.1,9.1,42.35,1.9563,394.104],
    [12809,1537391359,53.3662,-110.2942,931.8,234.8,272.4,4.4,-1.9,8.61,42.67,1.9572,394.0568],
    [12810,1537391360,53.3662,-110.2953,931.3,235.3,272.2,4.2,-1.3,9.75,42.18,1.9565,394.1045],
    [12811,1537391361,53.3662,-110.2964,931.5,235.5,272.4,4.7,-1.5,9.28,42.59,1.957,392.7176],
    [12812,1537391362,53.3662,-110.2974,932.6,237.6,272.5,4.2,-1.3,9.21,43.31,1.9573,392.9526],
    [12813,1537391363,53.3662,-110.2985,934.0,239.0,271.7,3.7,-0.5,8.97,43.24,1.9577,393.6073],
    [12814,1537391364,53.3663,-110.2996,934.3,239.3,272.1,3.6,-1.0,9.66,42.81,1.9583,394.432],
    [12815,1537391365,53.3663,-110.3006,934.0,238.0,270.5,3.7,0.9,8.81,43.34,1.9585,394.4534],
    [12816,1537391366,53.3663,-110.3017,934.0,239.0,270.2,4.1,0.8,9.37,43.31,1.9569,393.7069],
    [12817,1537391367,53.3663,-110.3028,934.2,239.2,270.5,3.9,0.7,9.03,44.09,1.9579,393.5204],
    [12818,1537391368,53.3663,-110.3038,935.0,241.0,269.8,3.8,1.6,9.11,43.99,1.9584,393.0044],
    [12819,1537391369,53.3663,-110.3049,935.3,241.3,270.4,3.8,0.9,9.48,43.52,1.9585,395.9738],
    [12820,1537391370,53.3663,-110.306,934.8,240.8,270.9,3.7,0.6,9.36,43.87,1.9589,393.9358],
    [12821,1537391371,53.3664,-110.307,934.7,240.7,271.5,3.4,0.0,9.22,43.83,1.9562,393.485],
    [12822,1537391372,53.3664,-110.3081,935.5,242.5,271.4,4.3,-0.1,9.27,44.27,1.9561,393.0981],
    [12823,1537391373,53.3664,-110.3092,936.7,243.7,271.7,4.7,-0.8,9.08,43.81,1.9571,392.7124],
    [12824,1537391374,53.3664,-110.3102,936.6,243.6,272.7,4.9,-2.7,9.38,43.84,1.9513,392.1348],
    [12825,1537391375,53.3664,-110.3114,934.9,240.9,273.2,4.2,-3.1,8.81,44.39,1.9483,392.3004],
    [12826,1537391376,53.3664,-110.3124,933.9,239.9,272.0,3.7,-1.7,8.81,43.69,1.9497,392.3851],
    [12827,1537391377,53.3664,-110.3135,934.0,240.0,272.8,3.5,-2.5,9.38,43.02,1.952,392.1456],
    [12828,1537391378,53.3664,-110.3146,935.4,242.4,271.5,4.7,-1.0,9.13,43.59,1.9525,392.3457],
    [12829,1537391379,53.3664,-110.3157,936.4,243.4,270.9,5.4,-0.8,8.72,42.96,1.9539,392.3457],
    [12830,1537391380,53.3664,-110.3168,936.8,244.8,271.9,4.1,-2.1,8.4,42.69,1.952,393.6893],
    [12831,1537391381,53.3665,-110.3179,935.9,243.8,271.5,3.6,-1.7,8.96,42.69,1.951,394.1078],
    [12832,1537391382,53.3665,-110.319,934.9,243.8,270.9,4.3,-1.1,9.06,43.25,1.9524,393.7841],
    [12833,1537391383,53.3665,-110.3201,934.2,244.9,270.8,4.3,-1.1,9.08,43.13,1.9509,393.7892],
    [12834,1537391384,53.3665,-110.3212,933.5,246.2,270.6,4.6,-0.9,9.25,42.43,1.9565,393.4324],
    [12835,1537391385,53.3665,-110.3223,933.2,248.0,270.7,4.6,-1.1,8.4,42.51,1.9555,393.4906],
    [12836,1537391386,53.3665,-110.3234,933.4,250.4,270.8,4.8,-1.3,9.54,42.66,1.9526,393.2924],
    [12837,1537391387,53.3665,-110.3245,933.8,251.7,271.4,5.3,-2.0,9.02,42.59,1.9494,394.9659],
    [12838,1537391388,53.3665,-110.3256,934.0,253.7,271.4,5.2,-2.0,8.81,43.05,1.9497,394.9659],
    [12839,1537391389,53.3665,-110.3267,934.1,256.0,271.4,5.0,-1.9,9.22,42.46,1.9501,392.7552],
    [12840,1537391390,53.3665,-110.3278,934.5,258.8,271.0,4.4,-1.4,9.8,42.1,1.9519,393.2882],
    [12841,1537391391,53.3664,-110.3289,934.2,263.1,270.8,4.6,-1.3,9.37,42.33,1.953,393.2882],
    [12842,1537391392,53.3664,-110.33,933.7,264.5,271.2,4.8,-2.0,9.27,41.99,1.9543,393.4159],
    [12843,1537391393,53.3664,-110.3311,933.8,266.5,271.0,4.2,-2.2,9.16,41.95,1.9535,393.0022],
    [12844,1537391394,53.3664,-110.3321,934.1,266.7,270.4,4.3,-1.8,9.02,42.31,1.9545,393.6975],
    [12845,1537391395,53.3664,-110.3332,935.1,270.3,270.5,4.6,-2.1,9.14,42.54,1.9541,393.9556],
    [12846,1537391396,53.3664,-110.3343,936.9,275.6,271.1,4.0,-2.9,9.73,41.76,1.9523,392.881],
    [12847,1537391397,53.3664,-110.3354,937.2,278.2,270.8,2.9,-2.6,9.34,42.25,1.9529,393.0833],
    [12848,1537391398,53.3664,-110.3362,937.4,277.4,270.1,3.1,-2.0,9.18,42.54,1.9531,393.9898],
    [12849,1537391399,53.3664,-110.3376,937.7,277.7,269.9,3.5,-1.8,9.19,43.21,1.9547,391.5298],
    [12850,1537391400,53.3663,-110.3387,937.3,278.3,269.8,3.7,-1.6,9.59,42.28,1.9546,390.7416],
    [12851,1537391401,53.3663,-110.3398,936.4,278.4,269.5,4.2,-0.9,9.17,43.06,1.9527,394.2549],
    [12852,1537391402,53.3663,-110.3409,936.5,278.5,270.2,4.6,-1.7,9.19,43.18,1.9531,393.829],
    [12853,1537391403,53.3663,-110.342,936.6,278.6,271.3,3.9,-2.3,8.89,42.66,1.953,395.6678],
    [12854,1537391404,53.3663,-110.3431,937.0,280.0,270.9,3.9,-1.3,8.93,42.88,1.9515,390.5621],
    [12855,1537391405,53.3663,-110.3442,936.4,280.1,271.6,5.0,-1.6,9.72,42.43,1.9526,392.5509],
    [12856,1537391406,53.3663,-110.3454,935.4,280.4,270.8,5.2,-0.3,9.13,43.24,1.9519,392.491],
    [12857,1537391407,53.3663,-110.3465,935.5,281.5,269.2,5.3,1.8,9.13,43.69,1.9464,392.292],
    [12858,1537391408,53.3663,-110.3476,934.5,279.8,269.9,4.8,1.2,8.69,42.82,1.944,392.7331],
    [12859,1537391409,53.3663,-110.3487,932.9,277.9,270.4,4.1,1.1,9.59,41.94,1.9449,394.6384],
    [12860,1537391410,53.3664,-110.3499,932.1,276.1,270.7,3.6,1.1,9.65,41.77,1.9497,392.8911],
    [12861,1537391411,53.3664,-110.351,932.5,275.8,270.7,4.1,1.0,8.58,41.27,1.9521,393.7692],
    [12862,1537391412,53.3664,-110.3521,934.2,277.2,272.6,5.3,-1.4,9.24,40.58,1.953,392.1973],
    [12863,1537391413,53.3664,-110.3532,936.0,277.7,273.2,5.3,-2.3,9.39,40.5,1.9542,392.642],
    [12864,1537391414,53.3664,-110.3543,937.0,278.7,273.3,6.2,-2.5,9.29,40.88,1.9491,393.3561],
    [12865,1537391415,53.3664,-110.3555,936.5,278.2,272.8,6.9,-1.9,9.32,41.12,1.9446,392.2129],
    [12866,1537391416,53.3665,-110.3566,935.6,277.6,271.2,7.1,-0.4,9.23,41.76,1.9409,392.9645],
    [12867,1537391417,53.3665,-110.3577,935.5,277.5,270.4,7.1,0.1,10.02,40.52,1.9421,394.1348],
    [12868,1537391418,53.3665,-110.3588,935.4,277.3,270.0,6.7,0.3,9.19,40.66,1.9422,393.2562],
    [12869,1537391419,53.3665,-110.3599,935.1,277.9,270.1,6.8,-0.2,8.86,39.8,1.9402,393.8133],
    [12870,1537391420,53.3665,-110.3611,934.6,277.3,270.2,6.6,-0.2,9.1,39.4,1.9418,391.7039],
    [12871,1537391421,53.3665,-110.3622,934.0,276.7,270.2,6.5,-0.2,8.91,38.51,1.9431,391.7039],
    [12872,1537391422,53.3665,-110.3633,934.0,276.7,269.9,6.1,0.5,9.04,38.67,1.9483,392.7441],
    [12873,1537391423,53.3665,-110.3644,934.4,277.1,268.8,5.7,1.8,8.76,38.27,1.9486,393.8873],
    [12874,1537391424,53.3665,-110.3655,934.8,276.9,269.0,5.4,1.7,8.61,38.55,1.9484,392.6496],
    [12875,1537391425,53.3665,-110.3666,934.9,277.2,269.4,5.3,1.7,9.29,38.79,1.9451,392.619],
    [12876,1537391426,53.3665,-110.3677,934.6,277.6,270.1,5.7,1.3,9.0,38.62,1.9445,391.5235],
    [12877,1537391427,53.3665,-110.3688,934.7,277.7,270.3,5.7,1.5,9.02,38.56,1.9418,391.4802],
    [12878,1537391428,53.3665,-110.3699,934.9,276.9,271.3,5.5,0.6,8.61,38.58,1.9432,392.4231],
    [12879,1537391429,53.3666,-110.371,934.9,275.9,271.6,5.5,0.3,9.08,38.17,1.9441,393.1921],
    [12880,1537391430,53.3666,-110.3721,934.5,274.5,271.7,5.6,0.3,9.07,38.98,1.9464,393.1799],
    [12881,1537391431,53.3666,-110.3732,934.2,273.2,271.1,5.5,1.0,8.76,38.33,1.9459,393.7621],
    [12882,1537391432,53.3666,-110.3743,934.4,272.4,271.1,5.0,0.8,9.36,38.01,1.9454,393.309],
    [12883,1537391433,53.3666,-110.3754,934.9,272.2,271.3,5.1,0.5,9.3,37.94,1.9446,393.5156],
    [12884,1537391434,53.3667,-110.3765,935.4,272.4,270.5,5.2,1.4,9.53,37.86,1.9451,393.1293],
    [12885,1537391435,53.3667,-110.3776,935.8,272.7,270.5,5.1,1.3,9.42,38.58,1.9445,393.7036],
    [12886,1537391436,53.3667,-110.3787,935.7,271.7,270.9,5.6,0.9,9.88,37.84,1.9447,392.377],
    [12887,1537391437,53.3667,-110.3797,935.4,272.4,270.8,6.1,0.9,9.87,38.34,1.9438,393.2109],
    [12888,1537391438,53.3667,-110.3808,934.8,271.8,271.9,6.3,-0.3,9.84,38.01,1.9428,391.6085],
    [12889,1537391439,53.3668,-110.3819,934.2,271.2,271.0,6.8,1.0,8.98,38.39,1.9428,393.6328],
    [12890,1537391440,53.3668,-110.3829,933.9,270.9,271.1,6.8,0.8,9.19,38.29,1.9433,393.7008],
    [12891,1537391441,53.3668,-110.3841,934.4,270.4,270.9,6.1,1.1,9.29,38.6,1.9488,393.8817],
    [12892,1537391442,53.3668,-110.3852,935.1,271.1,271.0,5.7,1.1,8.98,38.97,1.9497,393.6749],
    [12893,1537391443,53.3668,-110.3863,935.6,271.6,271.2,5.2,1.1,9.31,38.42,1.9512,394.3848],
    [12894,1537391444,53.3669,-110.3874,935.8,272.8,271.3,5.1,1.1,8.97,38.58,1.9475,393.3572],
    [12895,1537391445,53.3669,-110.3884,935.7,273.7,271.7,5.6,0.7,9.78,38.72,1.9459,393.8611],
    [12896,1537391446,53.3669,-110.3895,935.3,275.3,271.4,5.6,1.1,9.56,38.67,1.9437,393.3099],
    [12897,1537391447,53.367,-110.3906,935.2,275.2,271.5,6.1,0.9,9.43,38.77,1.9459,392.7072],
    [12898,1537391448,53.367,-110.3917,935.1,276.1,271.5,6.5,0.7,9.51,38.59,1.9452,394.2552],
    [12899,1537391449,53.367,-110.3928,935.0,275.0,271.8,6.4,0.0,8.88,38.9,1.9448,393.6817],
    [12900,1537391450,53.367,-110.3939,934.6,274.6,271.6,6.0,0.1,9.11,39.15,1.9416,393.2845],
    [12901,1537391451,53.367,-110.395,933.8,272.8,271.1,6.5,0.4,9.52,38.74,1.9419,393.5588],
    [12902,1537391452,53.3671,-110.3961,933.3,271.3,270.0,6.6,1.3,8.76,38.75,1.9429,393.5853],
    [12903,1537391453,53.3671,-110.397,933.2,270.2,269.3,6.4,1.2,9.21,38.77,1.9446,393.8364],
    [12904,1537391454,53.3671,-110.3982,934.0,271.0,269.3,6.0,1.0,9.38,39.21,1.9443,393.213],
    [12905,1537391455,53.3671,-110.3993,934.3,272.0,269.2,6.5,1.1,9.07,38.63,1.9456,391.1807],
    [12906,1537391456,53.3671,-110.4004,933.7,271.7,270.0,7.0,0.4,9.81,38.35,1.9463,391.1807],
    [12907,1537391457,53.3671,-110.4015,933.7,270.7,270.5,6.8,0.4,9.0,38.75,1.9479,393.4885],
    [12908,1537391458,53.3671,-110.4025,934.9,271.9,270.8,6.6,0.3,9.11,38.68,1.948,394.3176],
    [12909,1537391459,53.3671,-110.4036,935.7,272.7,271.6,6.3,-0.5,9.43,38.48,1.9498,393.1939],
    [12910,1537391460,53.3671,-110.4047,935.2,271.2,271.8,5.9,-0.8,9.5,38.71,1.9479,393.1023],
    [12911,1537391461,53.3671,-110.4058,934.5,270.5,271.4,6.3,-0.5,9.37,39.53,1.9444,393.1266],
    [12912,1537391462,53.3671,-110.4068,934.8,271.8,271.1,6.8,-0.3,9.85,39.01,1.9426,393.208],
    [12913,1537391463,53.3671,-110.4079,935.6,272.6,271.4,6.1,-0.7,9.41,38.93,1.9394,392.4322],
    [12914,1537391464,53.3672,-110.409,935.4,271.1,271.6,6.0,-0.7,9.19,39.19,1.9416,393.2957],
    [12915,1537391465,53.3672,-110.41,934.7,268.7,271.6,5.7,-0.6,9.88,38.69,1.9406,392.409],
    [12916,1537391466,53.3672,-110.411,934.9,267.9,272.2,4.9,-0.8,9.21,39.08,1.942,393.67],
    [12917,1537391467,53.3672,-110.4122,935.9,268.9,272.1,5.1,-0.4,9.31,39.12,1.9437,393.5799],
    [12918,1537391468,53.3672,-110.4132,937.3,271.3,271.5,4.8,0.1,9.28,38.29,1.9432,393.5799],
    [12919,1537391469,53.3673,-110.4143,937.7,271.6,271.9,4.6,-0.6,9.52,37.75,1.9432,392.8323],
    [12920,1537391470,53.3673,-110.4154,936.8,271.8,271.0,5.2,-0.1,9.12,38.67,1.9441,394.4543],
    [12921,1537391471,53.3673,-110.4165,936.3,273.4,271.7,5.2,-1.4,9.04,38.57,1.9445,393.2881],
    [12922,1537391472,53.3673,-110.4175,936.5,273.5,271.8,5.0,-1.6,8.94,38.63,1.9426,391.6534],
    [12923,1537391473,53.3673,-110.4186,936.5,273.5,271.9,5.0,-1.5,9.55,38.48,1.9411,393.1967],
    [12924,1537391474,53.3673,-110.4197,935.7,272.7,271.1,6.0,-0.4,9.26,38.89,1.9415,393.5584],
    [12925,1537391475,53.3673,-110.4208,934.7,272.8,271.1,6.5,-0.2,9.71,38.44,1.9413,393.6252],
    [12926,1537391476,53.3673,-110.4219,934.2,272.2,270.7,6.2,0.2,10.06,37.93,1.9417,392.8164],
    [12927,1537391477,53.3673,-110.4229,935.0,273.7,270.9,5.0,-0.3,9.29,38.28,1.9413,393.3735],
    [12928,1537391478,53.3673,-110.424,937.0,275.9,270.6,4.9,0.0,9.93,37.52,1.9408,393.0468],
    [12929,1537391479,53.3673,-110.4251,937.1,278.1,270.9,5.5,-0.5,9.45,38.7,1.9396,393.3469],
    [12930,1537391480,53.3674,-110.4262,936.6,278.6,270.2,5.5,0.0,9.68,37.61,1.9399,394.5466],
    [12931,1537391481,53.3674,-110.4273,935.7,277.7,270.3,6.0,-0.3,9.18,37.81,1.9391,394.0235],
    [12932,1537391482,53.3674,-110.4284,935.1,278.0,270.2,6.3,-0.3,9.2,37.66,1.9378,392.7707],
    [12933,1537391483,53.3674,-110.4294,934.9,278.1,270.2,6.4,-0.3,9.36,37.96,1.939,395.082],
    [12934,1537391484,53.3674,-110.4305,934.9,276.9,270.3,6.4,-0.3,9.33,37.42,1.939,393.7767],
    [12935,1537391485,53.3674,-110.4316,934.7,276.7,270.2,6.3,-0.2,9.38,36.83,1.9392,393.295],
    [12936,1537391486,53.3674,-110.4327,934.8,275.7,270.7,6.2,-0.7,8.92,36.8,1.9422,394.0032],
    [12937,1537391487,53.3674,-110.4338,935.5,277.5,270.6,5.9,-0.3,8.87,36.73,1.9448,393.2912],
    [12938,1537391488,53.3674,-110.4348,936.3,280.3,270.7,6.2,-0.1,10.18,36.46,1.9452,393.8821],
    [12939,1537391489,53.3674,-110.4359,936.2,284.9,270.6,6.4,-0.2,9.09,37.19,1.9445,393.7607],
    [12940,1537391490,53.3674,-110.437,935.4,287.4,271.3,6.4,-0.9,9.39,37.26,1.9469,393.3042],
    [12941,1537391491,53.3674,-110.4381,935.1,286.2,271.5,6.0,-1.2,9.2,38.26,1.9446,393.9981],
    [12942,1537391492,53.3674,-110.4391,935.0,282.2,270.8,6.3,-0.3,9.47,37.46,1.944,394.5343],
    [12943,1537391493,53.3674,-110.4402,935.4,280.3,268.8,6.0,1.5,9.12,37.91,1.9443,393.9121],
    [12944,1537391494,53.3674,-110.4413,935.2,280.2,269.3,6.9,0.3,9.22,38.46,1.945,394.3447],
    [12945,1537391495,53.3674,-110.4424,935.2,280.3,268.1,5.5,1.3,9.84,37.6,1.9452,393.8378],
    [12946,1537391496,53.3674,-110.4435,935.5,282.4,267.5,5.6,1.2,9.61,38.09,1.9457,394.4029],
    [12947,1537391497,53.3673,-110.4446,935.6,284.6,267.7,5.5,0.7,9.12,38.71,1.9461,393.815],
    [12948,1537391498,53.3673,-110.4456,935.3,286.5,267.3,5.9,1.0,9.72,37.77,1.9454,395.3255],
    [12949,1537391499,53.3673,-110.4467,933.6,286.5,268.1,6.3,0.3,9.31,39.27,1.9474,395.3419],
    [12950,1537391500,53.3673,-110.4478,932.0,285.9,268.6,6.2,-0.1,10.1,38.46,1.9485,393.1176],
    [12951,1537391501,53.3673,-110.4489,931.1,284.0,269.2,5.7,-0.5,9.15,39.37,1.949,394.4822],
    [12952,1537391502,53.3673,-110.45,930.8,280.8,269.7,5.5,-0.7,9.2,39.21,1.9494,394.4822],
    [12953,1537391503,53.3672,-110.4511,930.9,278.1,270.1,5.7,-0.9,8.78,39.19,1.9498,394.7845],
    [12954,1537391504,53.3672,-110.4522,930.9,275.9,270.5,6.2,-1.2,9.17,39.51,1.9503,393.3755],
    [12955,1537391505,53.3672,-110.4533,931.0,275.7,270.0,6.5,-0.9,9.53,39.69,1.9488,393.4993],
    [12956,1537391506,53.3672,-110.4544,931.5,277.0,270.4,6.5,-1.5,8.98,39.75,1.9476,393.4993],
    [12957,1537391507,53.3672,-110.4554,931.7,281.7,270.3,6.1,-1.5,9.01,39.98,1.9506,394.3338],
    [12958,1537391508,53.3672,-110.4565,931.9,286.3,269.8,5.9,-0.9,9.46,39.94,1.9495,393.347],
    [12959,1537391509,53.3672,-110.4576,932.3,291.9,269.3,5.6,0.0,9.4,40.71,1.9472,393.9198],
    [12960,1537391510,53.3672,-110.4587,933.6,300.6,269.0,5.5,0.6,9.83,39.55,1.9457,393.4511],
    [12961,1537391511,53.3672,-110.4597,935.1,308.5,269.6,5.3,0.1,9.25,39.98,1.9457,394.9093],
    [12962,1537391512,53.3672,-110.4608,935.5,311.6,270.1,4.8,-0.4,9.37,40.29,1.9457,392.368],
    [12963,1537391513,53.3672,-110.4619,934.3,311.3,271.4,4.9,-1.8,9.49,40.22,1.9484,393.3007],
    [12964,1537391514,53.3672,-110.4629,933.7,310.7,271.1,5.4,-1.2,8.76,40.33,1.9487,394.4987],
    [12965,1537391515,53.3672,-110.464,934.9,310.9,271.0,4.6,-1.0,9.19,40.35,1.9481,393.1365],
    [12966,1537391516,53.3672,-110.4651,936.2,312.3,270.1,3.8,0.0,9.4,39.9,1.9482,393.1365],
    [12967,1537391517,53.3672,-110.4662,936.4,310.4,269.6,4.4,0.5,9.87,39.55,1.9488,394.9371],
    [12968,1537391518,53.3672,-110.4673,936.0,307.7,269.1,5.0,0.5,9.46,40.82,1.9479,394.8932],
    [12969,1537391519,53.3672,-110.4683,936.2,306.2,268.6,5.9,0.8,9.59,40.95,1.9477,394.1748],
    [12970,1537391520,53.3672,-110.4694,936.2,305.2,269.1,6.7,-0.4,9.33,40.6,1.9492,394.5352],
    [12971,1537391521,53.3672,-110.4705,936.2,306.2,269.6,7.1,-0.8,9.28,41.24,1.9504,394.2419],
    [12972,1537391522,53.3671,-110.4716,936.7,307.7,269.3,7.6,-0.6,9.15,40.3,1.9516,394.6849],
    [12973,1537391523,53.3671,-110.4727,936.8,311.5,270.5,6.9,-1.8,9.5,40.96,1.9527,393.1579],
    [12974,1537391524,53.3671,-110.4737,936.0,315.0,270.6,6.9,-1.8,9.19,40.76,1.9526,394.0228],
    [12975,1537391525,53.3671,-110.4748,935.4,317.5,271.3,6.6,-2.4,8.96,41.18,1.954,394.4543],
    [12976,1537391526,53.3671,-110.4759,935.4,320.1,271.3,6.5,-2.3,10.15,41.18,1.9529,393.644],
    [12977,1537391527,53.3671,-110.477,935.2,322.2,271.2,5.9,-2.2,9.25,41.54,1.9532,394.2452],
    [12978,1537391528,53.3671,-110.478,935.2,325.2,270.0,5.5,-0.9,9.38,42.49,1.952,393.964],
    [12979,1537391529,53.3671,-110.4791,934.8,327.1,270.3,4.8,-1.6,9.28,41.81,1.9519,392.38],
    [12980,1537391530,53.3671,-110.4802,934.3,329.3,270.2,4.8,-1.5,9.32,42.03,1.9525,394.4674],
    [12981,1537391531,53.3671,-110.4813,934.0,329.0,269.7,5.3,-1.0,8.81,41.9,1.9517,392.9676],
    [12982,1537391532,53.367,-110.4824,933.9,327.9,269.6,4.9,-0.9,9.18,41.93,1.9499,394.0226],
    [12983,1537391533,53.367,-110.4834,934.2,328.2,269.6,4.9,-0.9,9.32,42.05,1.9507,393.9159],
    [12984,1537391534,53.367,-110.4845,934.3,328.3,270.0,4.8,-1.4,9.96,41.62,1.9507,393.7857],
    [12985,1537391535,53.367,-110.4856,934.6,327.5,268.9,4.8,-0.1,9.26,42.13,1.9491,392.3076],
    [12986,1537391536,53.367,-110.4866,935.3,328.0,268.1,5.3,0.7,9.39,42.49,1.9485,392.7275],
    [12987,1537391537,53.367,-110.4877,935.5,326.4,268.1,5.2,0.6,8.79,41.97,1.9471,393.8907],
    [12988,1537391538,53.367,-110.4888,935.4,324.4,269.1,5.4,-0.4,9.32,42.3,1.9471,393.1718],
    [12989,1537391539,53.3669,-110.4899,935.4,323.4,269.1,5.5,-0.2,8.98,41.88,1.9484,392.6089],
    [12990,1537391540,53.3669,-110.4909,935.3,322.8,269.4,6.3,-0.1,9.71,41.22,1.9497,393.4252],
    [12991,1537391541,53.3669,-110.492,935.5,320.8,269.6,6.0,0.1,9.51,41.22,1.9492,392.3845],
    [12992,1537391542,53.3669,-110.4931,935.4,318.6,269.9,5.0,-0.1,8.68,41.71,1.9491,392.3342],
    [12993,1537391543,53.3669,-110.4942,935.0,316.1,269.7,4.8,0.0,9.93,41.41,1.9471,393.4433],
    [12994,1537391544,53.3669,-110.4953,934.0,313.4,270.5,5.0,-1.0,9.39,42.37,1.9482,393.5253],
    [12995,1537391545,53.3669,-110.4963,933.6,311.9,270.9,5.1,-1.7,9.4,42.17,1.9484,393.7944],
    [12996,1537391546,53.3669,-110.4974,933.4,311.5,271.6,4.9,-2.6,9.75,41.31,1.9489,394.0371],
    [12997,1537391547,53.3669,-110.4985,933.0,310.3,271.4,5.4,-2.5,9.17,41.5,1.9479,394.7651],
    [12998,1537391548,53.3669,-110.4996,933.3,310.0,270.6,6.1,-1.4,9.05,41.57,1.9463,393.7259],
    [12999,1537391549,53.3669,-110.5006,934.7,312.2,269.7,5.6,-0.4,10.09,41.14,1.9455,393.7463],
    [13000,1537391550,53.3669,-110.5017,935.9,312.6,268.9,5.8,0.5,9.84,41.2,1.9473,393.3676],
    [13001,1537391551,53.3669,-110.5028,935.9,311.9,268.8,5.6,0.6,9.53,41.88,1.946,393.2798],
    [13002,1537391552,53.3669,-110.5038,936.0,311.2,268.6,4.9,0.9,8.96,40.99,1.9457,392.1455],
    [13003,1537391553,53.3669,-110.5049,935.7,311.6,269.0,4.2,0.3,8.98,40.83,1.9477,394.4254],
    [13004,1537391554,53.3669,-110.5059,934.7,312.7,269.4,4.0,-0.1,9.33,40.81,1.9466,392.9583],
    [13005,1537391555,53.3668,-110.507,933.4,312.3,269.6,4.8,-0.3,9.49,40.59,1.9463,391.9717],
    [13006,1537391556,53.3668,-110.5081,933.3,312.2,269.5,5.5,0.0,8.94,40.69,1.9464,394.4528],
    [13007,1537391557,53.3668,-110.5092,934.0,311.1,269.5,5.6,0.0,9.1,40.66,1.9468,393.9064],
    [13008,1537391558,53.3668,-110.5103,934.3,309.3,269.4,6.3,0.1,9.37,40.29,1.9464,393.7755],
    [13009,1537391559,53.3668,-110.5113,934.3,307.6,269.5,6.5,0.0,9.23,41.37,1.9472,393.7873],
    [13010,1537391560,53.3668,-110.5124,934.7,306.8,269.7,6.6,-0.1,9.45,40.62,1.9469,393.2986],
    [13011,1537391561,53.3668,-110.5135,935.3,307.3,269.7,6.5,-0.1,9.46,40.71,1.9471,393.2986],
    [13012,1537391562,53.3668,-110.5145,935.2,306.1,269.9,6.2,-0.3,9.94,40.14,1.9483,392.9827],
    [13013,1537391563,53.3668,-110.5156,934.5,306.1,270.1,5.9,-0.7,8.92,40.45,1.9495,394.2221],
    [13014,1537391564,53.3668,-110.5167,934.3,306.9,270.6,6.0,-1.4,9.13,40.72,1.9496,394.2221],
    [13015,1537391565,53.3668,-110.5177,934.7,308.8,269.8,5.8,-0.5,9.25,40.86,1.9484,394.21],
    [13016,1537391566,53.3668,-110.5188,934.7,310.3,269.4,5.0,-0.3,8.82,41.02,1.9483,392.814],
    [13017,1537391567,53.3668,-110.5198,934.1,312.0,269.3,4.9,-0.3,9.69,40.51,1.9486,395.0057],
    [13018,1537391568,53.3668,-110.5209,933.2,312.8,269.3,4.7,-0.3,9.31,41.75,1.9492,394.9453],
    [13019,1537391569,53.3668,-110.522,933.3,311.9,268.9,4.8,0.2,9.79,40.57,1.9508,393.475],
    [13020,1537391570,53.3667,-110.5231,933.7,311.3,269.1,5.2,0.2,9.22,41.2,1.9486,393.6007],
    [13021,1537391571,53.3667,-110.5241,933.5,310.5,270.0,5.6,-0.8,9.07,41.27,1.9481,393.5437],
    [13022,1537391572,53.3667,-110.5252,932.8,309.8,270.4,5.0,-1.1,9.06,41.22,1.9465,392.1218],
    [13023,1537391573,53.3667,-110.5263,932.9,309.5,270.1,4.2,-0.6,9.13,41.58,1.9482,392.0896],
    [13024,1537391574,53.3667,-110.5273,935.9,310.5,268.2,3.6,1.4,9.55,41.4,1.9485,392.0896],
    [13025,1537391575,53.3667,-110.5284,938.7,310.6,268.7,4.2,0.8,9.8,41.03,1.9472,393.8757],
    [13026,1537391576,53.3667,-110.5294,940.0,309.8,268.9,4.6,0.2,9.61,40.7,1.9476,392.3015],
    [13027,1537391577,53.3667,-110.5305,939.1,308.4,270.2,4.6,-1.0,8.68,41.25,1.9469,392.3015],
    [13028,1537391578,53.3667,-110.5315,938.7,308.5,268.4,4.2,1.4,9.92,40.7,1.9495,394.8366],
    [13029,1537391579,53.3667,-110.5326,938.9,311.1,268.8,4.4,0.9,8.72,41.25,1.949,393.8569],
    [13030,1537391580,53.3667,-110.5337,938.9,316.6,268.9,4.7,0.9,9.61,40.95,1.9482,394.6705],
    [13031,1537391581,53.3667,-110.5348,938.6,319.3,269.0,6.1,0.9,9.49,41.69,1.9463,391.1561],
    [13032,1537391582,53.3667,-110.5358,937.3,319.5,269.5,6.5,0.4,9.27,41.35,1.9439,390.8711],
    [13033,1537391583,53.3667,-110.5369,935.9,318.9,269.5,6.5,0.6,9.29,40.98,1.9451,392.9179],
    [13034,1537391584,53.3667,-110.538,935.3,319.3,270.1,6.4,0.2,9.34,41.12,1.9463,393.8203],
    [13035,1537391585,53.3667,-110.5391,935.1,319.2,270.6,5.9,-0.2,9.32,40.65,1.9446,393.5747],
    [13036,1537391586,53.3667,-110.5401,935.0,319.2,271.3,5.7,-1.0,9.28,40.55,1.9419,393.5747],
    [13037,1537391587,53.3667,-110.5412,934.9,318.6,271.2,6.2,-0.7,9.4,40.12,1.9441,393.8922],
    [13038,1537391588,53.3667,-110.5423,934.7,317.4,270.9,6.2,-0.4,9.49,40.15,1.9445,393.9407],
    [13039,1537391589,53.3667,-110.5434,934.6,316.2,271.1,6.0,-0.8,8.77,40.45,1.9453,395.3099],
    [13040,1537391590,53.3667,-110.5445,934.3,314.9,271.5,6.2,-1.6,9.84,39.77,1.9466,393.6495],
    [13041,1537391591,53.3667,-110.5455,933.8,314.5,271.1,6.5,-1.2,9.34,40.16,1.9477,393.8561],
    [13042,1537391592,53.3667,-110.5466,933.1,311.9,270.5,8.0,-0.9,9.35,40.07,1.9457,393.0771],
    [13043,1537391593,53.3667,-110.5477,933.2,311.0,270.8,7.0,-1.4,9.36,39.96,1.9471,393.3038],
    [13044,1537391594,53.3667,-110.5487,934.1,309.7,271.3,6.6,-2.0,8.98,39.88,1.9467,393.1051],
    [13045,1537391595,53.3667,-110.5498,934.8,308.3,271.3,5.7,-1.8,9.62,39.73,1.9449,393.5287],
    [13046,1537391596,53.3667,-110.5509,934.5,306.4,271.1,5.3,-1.4,9.31,40.0,1.9445,394.3046],
    [13047,1537391597,53.3667,-110.552,934.2,304.2,270.9,5.4,-1.1,9.06,39.93,1.9447,393.7237],
    [13048,1537391598,53.3667,-110.553,933.9,303.8,271.3,5.2,-1.6,9.75,39.32,1.9457,393.6875],
    [13049,1537391599,53.3667,-110.5541,933.4,305.6,272.1,5.5,-2.5,9.31,39.83,1.9456,394.0375],
    [13050,1537391600,53.3667,-110.5552,933.1,308.8,271.8,4.8,-2.0,9.12,39.92,1.9463,393.8352],
    [13051,1537391601,53.3667,-110.5562,933.7,311.7,270.1,4.9,-0.2,9.29,39.98,1.9464,393.6907],
    [13052,1537391602,53.3667,-110.5573,934.4,313.5,270.1,5.2,-0.8,9.61,39.58,1.9456,393.7534],
    [13053,1537391603,53.3667,-110.5584,934.1,313.2,269.9,4.7,-0.7,9.33,40.78,1.9447,393.6632],
    [13054,1537391604,53.3667,-110.5594,932.9,311.9,270.3,5.3,-1.8,9.41,39.79,1.9468,393.6632],
    [13055,1537391605,53.3667,-110.5605,932.7,312.7,269.7,5.2,-1.1,9.75,39.45,1.9457,393.7607],
    [13056,1537391606,53.3667,-110.5615,933.5,314.5,269.0,5.2,-0.6,9.35,40.07,1.9461,391.7267],
    [13057,1537391607,53.3666,-110.5626,934.0,315.0,269.7,5.1,-1.4,9.14,39.76,1.9455,393.2542],
    [13058,1537391608,53.3666,-110.5636,933.9,314.9,269.3,5.0,-1.0,8.63,39.91,1.9451,393.3263],
    [13059,1537391609,53.3666,-110.5647,934.0,315.7,269.6,5.2,-1.0,9.28,40.12,1.9458,393.1042],
    [13060,1537391610,53.3666,-110.5658,934.3,316.9,269.2,5.2,-0.5,9.38,40.19,1.9452,392.5674],
    [13061,1537391611,53.3666,-110.5668,934.5,317.2,270.2,5.3,-1.5,8.93,39.97,1.9452,393.0448],
    [13062,1537391612,53.3666,-110.5679,934.4,317.1,270.6,5.2,-1.5,9.02,39.69,1.9452,394.1009],
    [13063,1537391613,53.3666,-110.5689,934.6,316.6,269.9,5.0,-0.7,9.51,39.71,1.9454,394.1009],
    [13064,1537391614,53.3666,-110.5699,934.7,316.6,270.0,4.7,-0.7,9.2,39.91,1.9468,393.2201],
    [13065,1537391615,53.3666,-110.571,934.9,314.2,269.4,4.3,0.0,9.55,39.97,1.9459,393.2925],
    [13066,1537391616,53.3666,-110.5721,934.6,312.1,269.3,3.9,0.1,9.4,40.86,1.9472,393.5694],
    [13067,1537391617,53.3665,-110.5731,934.1,309.5,269.6,4.6,-0.1,9.36,40.04,1.946,393.6044],
    [13068,1537391618,53.3665,-110.5741,934.2,308.5,269.4,5.2,0.2,9.68,39.72,1.9458,393.9057],
    [13069,1537391619,53.3665,-110.5752,934.1,308.6,270.6,5.1,-1.2,9.24,40.12,1.9449,393.9057],
    [13070,1537391620,53.3665,-110.5763,933.6,307.3,270.7,4.8,-1.1,9.61,40.05,1.946,394.0629],
    [13071,1537391621,53.3665,-110.5774,933.6,307.1,270.7,5.3,-1.2,9.39,40.05,1.9441,393.079],
    [13072,1537391622,53.3665,-110.5784,933.9,306.7,271.1,4.8,-1.7,9.29,40.05,1.9431,393.8573],
    [13073,1537391623,53.3665,-110.5795,934.1,305.5,271.1,5.0,-1.6,9.13,40.2,1.9456,394.6345],
    [13074,1537391624,53.3665,-110.5805,934.9,305.3,270.3,5.7,-0.6,9.08,40.38,1.9442,392.7923],
    [13075,1537391625,53.3665,-110.5816,935.9,305.7,270.2,6.3,-0.7,9.33,40.61,1.9436,393.3721],
    [13076,1537391626,53.3665,-110.5827,935.9,305.6,270.7,6.1,-1.7,9.35,40.51,1.9458,392.8448],
    [13077,1537391627,53.3665,-110.5837,934.9,305.7,271.0,5.2,-2.1,9.66,40.31,1.9459,393.7909],
    [13078,1537391628,53.3665,-110.5848,934.7,307.8,269.5,4.9,0.0,9.72,40.02,1.945,392.5746],
    [13079,1537391629,53.3665,-110.5858,934.1,307.6,269.7,5.9,-0.3,8.96,40.08,1.9466,393.272],
    [13080,1537391630,53.3665,-110.5869,933.7,306.3,269.9,6.4,-0.1,9.5,40.49,1.947,393.4054],
    [13081,1537391631,53.3665,-110.5879,934.2,305.7,269.5,7.4,0.4,9.25,40.09,1.9468,393.4471],
    [13082,1537391632,53.3665,-110.589,935.3,304.5,270.0,6.2,-0.3,9.92,39.31,1.9446,393.9901],
    [13083,1537391633,53.3665,-110.5901,935.3,303.6,270.5,5.4,-1.0,9.4,39.64,1.9447,393.9659],
    [13084,1537391634,53.3665,-110.5911,934.5,302.0,269.9,5.0,-0.1,9.17,40.06,1.9446,394.342],
    [13085,1537391635,53.3665,-110.5922,933.5,298.9,270.2,5.5,-0.6,9.26,39.94,1.945,392.8235],
    [13086,1537391636,53.3665,-110.5932,932.6,295.9,271.5,5.0,-1.6,9.29,40.11,1.9451,392.869],
    [13087,1537391637,53.3665,-110.5943,932.5,293.9,271.3,4.9,-1.3,8.61,40.01,1.9463,393.1548],
    [13088,1537391638,53.3665,-110.5953,933.2,294.6,271.2,5.7,-1.0,10.08,39.46,1.9459,392.7087],
    [13089,1537391639,53.3665,-110.5964,934.0,296.8,270.7,5.4,-0.5,9.41,39.83,1.9449,392.7087],
    [13090,1537391640,53.3665,-110.5974,933.9,299.6,271.0,5.3,-0.9,9.33,39.84,1.946,393.1426],
    [13091,1537391641,53.3665,-110.5985,933.7,303.8,270.7,4.9,-0.7,9.26,39.81,1.9438,393.1055],
    [13092,1537391642,53.3665,-110.5996,934.2,310.5,271.0,5.1,-1.0,9.44,39.88,1.9456,394.0463],
    [13093,1537391643,53.3665,-110.6006,934.7,316.5,270.6,5.7,-0.4,9.28,39.72,1.9447,393.8384],
    [13094,1537391644,53.3665,-110.6017,935.1,320.3,270.2,6.2,0.0,9.16,40.17,1.9468,392.2808],
    [13095,1537391645,53.3665,-110.6027,935.0,322.3,270.8,6.6,-0.9,9.39,40.18,1.9454,393.2325],
    [13096,1537391646,53.3665,-110.6038,935.0,323.4,270.4,6.4,-0.2,9.25,40.49,1.9447,394.0351],
    [13097,1537391647,53.3665,-110.6049,935.3,324.5,270.2,6.8,-0.4,9.1,39.96,1.944,393.6905],
    [13098,1537391648,53.3665,-110.6059,935.1,323.5,270.6,6.9,-1.0,8.64,39.97,1.9441,394.4855],
    [13099,1537391649,53.3665,-110.607,934.6,323.0,270.7,6.8,-1.1,9.35,39.57,1.9427,393.3347],
    [13100,1537391650,53.3665,-110.608,934.0,322.4,270.4,6.5,-0.8,8.69,39.98,1.9437,392.7282],
    [13101,1537391651,53.3665,-110.6091,933.4,322.8,270.2,6.4,-0.5,9.19,39.32,1.9446,393.8337],
    [13102,1537391652,53.3665,-110.6102,933.4,323.8,270.2,6.0,-0.6,9.85,39.07,1.9437,394.2051],
    [13103,1537391653,53.3665,-110.6112,933.5,324.6,270.4,6.0,-1.0,9.68,38.86,1.9428,394.0558],
    [13104,1537391654,53.3665,-110.6123,933.7,325.1,270.1,5.3,-0.6,9.57,38.6,1.9426,393.0472],
    [13105,1537391655,53.3665,-110.6133,933.7,325.9,270.1,5.7,-0.6,9.05,39.12,1.9434,393.1947],
    [13106,1537391656,53.3665,-110.6144,933.4,325.4,269.7,6.1,0.2,9.62,38.78,1.9458,393.1947],
    [13107,1537391657,53.3665,-110.6154,933.1,325.0,269.8,5.8,0.0,9.26,38.7,1.9413,394.3763],
    [13108,1537391658,53.3665,-110.6165,933.2,325.2,270.1,5.4,-0.3,9.47,38.8,1.9416,392.4779],
    [13109,1537391659,53.3665,-110.6175,933.5,325.5,270.3,5.3,-0.3,9.14,38.71,1.9425,394.0706],
    [13110,1537391660,53.3665,-110.6186,933.6,325.6,270.3,5.5,-0.1,9.99,38.11,1.9427,392.0206],
    [13111,1537391661,53.3665,-110.6197,933.4,325.4,270.4,5.0,-0.1,9.28,39.02,1.9445,394.1307],
    [13112,1537391662,53.3665,-110.6207,933.5,324.5,269.8,5.1,0.5,9.08,38.27,1.9446,393.6969],
    [13113,1537391663,53.3665,-110.6218,933.6,324.6,270.2,5.0,0.0,9.17,38.13,1.9445,392.06],
    [13114,1537391664,53.3665,-110.6228,933.2,324.2,270.2,5.0,0.3,9.72,37.88,1.9431,392.494],
    [13115,1537391665,53.3665,-110.6238,932.3,323.3,269.8,5.5,0.6,9.28,38.23,1.9432,394.4534],
    [13116,1537391666,53.3665,-110.6249,931.9,322.9,269.9,5.1,0.5,9.19,38.34,1.9463,392.7888],
    [13117,1537391667,53.3665,-110.6259,932.1,322.1,270.1,5.2,0.5,9.19,38.18,1.9433,392.7786],
    [13118,1537391668,53.3665,-110.627,932.3,322.3,270.4,4.4,0.1,9.37,38.17,1.9419,392.7228],
    [13119,1537391669,53.3665,-110.628,932.2,322.3,270.1,3.7,0.1,9.94,38.05,1.9409,393.1197],
    [13120,1537391670,53.3665,-110.629,932.1,322.1,269.5,3.3,0.4,9.37,38.19,1.9428,394.0323],
    [13121,1537391671,53.3665,-110.6301,932.4,322.4,268.6,3.4,0.7,9.09,38.43,1.9429,394.0323],
    [13122,1537391672,53.3665,-110.6311,933.6,323.8,268.4,3.7,0.6,9.37,37.97,1.9446,392.7679],
    [13123,1537391673,53.3665,-110.6321,934.0,325.0,269.0,2.4,0.1,9.43,38.6,1.9458,393.4933],
    [13124,1537391674,53.3665,-110.6332,933.2,324.2,268.9,2.6,0.6,9.55,38.51,1.9443,392.7198],
    [13125,1537391675,53.3665,-110.6342,932.2,323.2,269.7,3.9,0.1,9.58,38.79,1.9445,393.8635],
    [13126,1537391676,53.3665,-110.6353,932.0,323.0,269.9,4.1,0.1,9.39,38.85,1.9447,393.7538],
    [13127,1537391677,53.3665,-110.6363,932.5,323.5,270.1,4.4,0.0,9.32,39.22,1.9464,393.1595],
    [13128,1537391678,53.3665,-110.6373,933.3,325.4,270.0,5.1,0.0,9.58,38.41,1.9455,394.0243],
    [13129,1537391679,53.3665,-110.6382,933.6,325.6,270.9,5.1,-1.0,9.36,39.12,1.9453,394.7778],
    [13130,1537391680,53.3665,-110.6393,933.8,326.8,270.3,4.6,-0.4,9.86,38.69,1.946,392.8791],
    [13131,1537391681,53.3665,-110.6404,933.9,326.9,270.6,4.6,-1.4,9.25,40.02,1.9449,394.1053],
    [13132,1537391682,53.3665,-110.6415,934.3,327.3,270.6,3.6,-1.9,9.09,39.69,1.9451,394.1053],
    [13133,1537391683,53.3665,-110.6425,934.9,327.9,270.6,4.4,-2.3,9.49,39.39,1.9464,393.1656],
    [13134,1537391684,53.3664,-110.6435,935.8,327.8,269.6,5.1,-1.4,9.16,40.16,1.9475,392.9978],
    [13135,1537391685,53.3664,-110.6446,936.1,328.1,270.2,4.5,-2.4,9.34,40.72,1.945,392.9978],
    [13136,1537391686,53.3664,-110.6456,936.0,328.0,270.2,4.3,-2.4,8.79,40.12,1.9454,393.781],
    [13137,1537391687,53.3664,-110.6466,935.7,328.7,269.6,4.0,-1.8,9.2,40.34,1.9459,393.6156],
    [13138,1537391688,53.3664,-110.6477,934.7,327.7,268.9,4.0,-1.2,9.28,40.38,1.946,393.2872],
    [13139,1537391689,53.3663,-110.6488,934.1,328.1,269.1,4.6,-1.9,9.31,40.73,1.9462,394.3961],
    [13140,1537391690,53.3663,-110.6498,934.5,328.5,268.7,4.1,-1.0,9.68,39.88,1.9466,395.6668],
    [13141,1537391691,53.3663,-110.6509,935.1,329.1,268.1,4.2,-0.5,9.38,40.32,1.9457,393.6614],
    [13142,1537391692,53.3663,-110.6519,935.5,328.8,268.6,4.0,-0.9,9.29,40.7,1.9455,393.3612],
    [13143,1537391693,53.3662,-110.653,935.7,327.7,269.0,4.1,-1.2,9.7,40.53,1.947,393.2888],
    [13144,1537391694,53.3662,-110.6541,935.3,326.4,269.3,4.6,-1.4,8.71,40.7,1.9473,394.2689],
    [13145,1537391695,53.3662,-110.6551,935.6,324.6,268.7,3.9,-0.8,9.01,41.0,1.9462,392.0067],
    [13146,1537391696,53.3662,-110.6562,935.5,323.5,267.9,3.8,0.2,9.36,40.64,1.9488,393.7306],
    [13147,1537391697,53.3661,-110.6573,934.9,323.9,268.0,2.9,-0.3,9.42,40.83,1.9458,394.0174],
    [13148,1537391698,53.3661,-110.6584,933.7,323.7,268.3,3.3,-0.2,9.24,40.85,1.9457,394.0174],
    [13149,1537391699,53.3661,-110.6595,932.7,323.8,268.0,3.7,0.4,9.59,40.94,1.9444,394.5956],
    [13150,1537391700,53.3661,-110.6605,932.4,324.4,269.0,3.5,-0.4,9.02,41.23,1.9463,393.8266],
    [13151,1537391701,53.3661,-110.6616,932.2,324.2,269.6,3.3,-1.1,8.74,41.14,1.9469,394.2684],
    [13152,1537391702,53.3661,-110.6627,931.9,323.9,270.1,3.1,-1.5,9.71,40.37,1.945,393.041],
    [13153,1537391703,53.366,-110.6638,932.0,325.0,269.8,3.8,-1.6,9.29,40.76,1.9454,394.0908],
    [13154,1537391704,53.366,-110.6649,932.7,326.6,270.3,3.2,-2.3,9.38,41.77,1.9452,394.0278],
    [13155,1537391705,53.366,-110.666,933.5,327.5,269.6,3.5,-1.4,9.33,40.96,1.9462,396.1531],
    [13156,1537391706,53.366,-110.6671,934.5,328.5,268.7,4.2,-0.3,9.4,40.94,1.9466,393.5527],
    [13157,1537391707,53.366,-110.6682,935.1,329.1,267.9,4.3,0.7,9.41,41.35,1.9452,394.1258],
    [13158,1537391708,53.366,-110.6693,935.5,330.2,268.7,4.8,-0.2,8.99,40.91,1.9436,393.559],
    [13159,1537391709,53.3659,-110.6703,935.2,329.9,269.2,4.8,-0.5,9.4,41.15,1.943,393.2109],
    [13160,1537391710,53.3659,-110.6714,935.4,330.4,269.1,4.6,-0.3,8.89,40.91,1.9442,393.0019],
    [13161,1537391711,53.3659,-110.6725,936.5,331.6,269.6,5.1,-0.8,9.27,41.41,1.9463,392.5093],
    [13162,1537391712,53.3659,-110.6736,937.1,331.1,269.7,4.7,-0.8,9.62,40.61,1.9425,392.9017],
    [13163,1537391713,53.3659,-110.6747,937.1,331.1,268.8,4.7,0.0,9.45,40.36,1.9422,392.9017],
    [13164,1537391714,53.3659,-110.6758,936.8,329.8,268.8,4.7,-0.1,8.84,40.22,1.9422,393.1675],
    [13165,1537391715,53.3659,-110.6769,936.6,328.6,268.5,4.5,0.3,9.55,40.75,1.9418,393.1675],
    [13166,1537391716,53.3658,-110.678,936.4,328.4,268.8,3.5,-0.2,9.29,40.19,1.9429,391.7767],
    [13167,1537391717,53.3658,-110.6791,935.0,327.0,269.8,2.9,-1.5,9.4,40.38,1.944,392.7107],
    [13168,1537391718,53.3658,-110.6802,933.4,323.8,269.7,3.2,-1.4,9.3,39.96,1.9442,392.9349],
    [13169,1537391719,53.3658,-110.6813,931.9,318.3,268.9,3.5,-0.5,9.23,40.09,1.9437,392.718],
    [13170,1537391720,53.3658,-110.6824,931.2,312.0,268.2,3.1,0.1,9.21,40.0,1.9447,392.0244],
    [13171,1537391721,53.3657,-110.6835,931.0,302.3,269.3,3.5,-1.4,9.34,39.83,1.9438,393.1838],
    [13172,1537391722,53.3657,-110.6846,931.3,292.7,269.7,3.2,-1.6,9.59,39.6,1.9422,394.257],
    [13173,1537391723,53.3657,-110.6856,931.5,283.3,269.3,3.2,-0.9,9.49,39.18,1.9428,394.3599],
    [13174,1537391724,53.3657,-110.6867,931.7,276.5,269.1,3.8,-0.9,9.89,39.67,1.9428,393.9259],
    [13175,1537391725,53.3657,-110.6878,931.5,270.9,269.6,4.9,-1.4,9.23,39.51,1.9417,393.9259],
    [13176,1537391726,53.3657,-110.6889,931.6,267.7,269.2,4.5,-0.9,9.3,40.08,1.941,392.9037],
    [13177,1537391727,53.3656,-110.69,932.9,267.3,269.0,4.4,-0.6,8.84,39.36,1.9425,394.3085],
    [13178,1537391728,53.3656,-110.6911,934.0,267.3,269.1,4.8,-0.6,9.33,39.95,1.9434,393.8346],
    [13179,1537391729,53.3656,-110.6922,934.2,267.5,268.8,5.0,-0.2,9.68,38.71,1.9429,393.5169],
    [13180,1537391730,53.3656,-110.6933,934.6,267.7,268.9,3.8,-0.1,8.84,38.91,1.9418,393.2833],
    [13181,1537391731,53.3656,-110.6943,935.3,268.3,268.5,3.4,0.5,8.88,38.9,1.9432,393.6336],
    [13182,1537391732,53.3656,-110.6954,935.7,269.7,268.5,2.9,0.4,9.03,38.69,1.9422,392.3185],
    [13183,1537391733,53.3655,-110.6965,935.3,271.3,268.7,2.6,0.1,9.14,38.71,1.9433,394.7703],
    [13184,1537391734,53.3655,-110.6976,935.0,273.7,268.5,2.6,0.3,9.61,38.35,1.9433,393.1275],
    [13185,1537391735,53.3655,-110.6987,935.1,277.1,268.5,2.5,0.4,9.56,39.29,1.9432,392.4558],
    [13186,1537391736,53.3655,-110.6998,935.2,281.5,268.5,2.9,0.6,9.24,38.98,1.9441,392.6949],
    [13187,1537391737,53.3655,-110.7009,934.9,285.6,269.2,3.1,-0.3,9.45,38.62,1.944,393.5002],
    [13188,1537391738,53.3655,-110.702,934.1,287.1,269.5,2.6,-0.4,9.72,38.33,1.9428,393.2264],
    [13189,1537391739,53.3655,-110.7031,933.6,289.9,268.1,2.3,1.4,9.26,38.59,1.9436,393.5269],
    [13190,1537391740,53.3655,-110.7042,933.4,293.1,267.9,2.7,1.4,9.35,38.57,1.9427,393.8019],
    [13191,1537391741,53.3655,-110.7053,933.0,294.0,268.9,3.2,0.6,9.24,39.04,1.9429,393.9327],
    [13192,1537391742,53.3654,-110.7064,932.3,294.3,268.9,2.8,0.6,9.27,38.78,1.9428,392.5114],
    [13193,1537391743,53.3654,-110.7075,931.7,292.6,269.6,3.4,0.0,9.19,39.01,1.9433,392.2511],
    [13194,1537391744,53.3654,-110.7086,931.8,292.8,269.8,3.5,-0.2,9.08,38.75,1.9437,392.2511],
    [13195,1537391745,53.3654,-110.7097,932.5,293.5,269.9,3.1,-0.3,9.65,38.15,1.9442,392.5147],
    [13196,1537391746,53.3654,-110.7108,932.8,295.8,269.8,2.9,-0.3,9.45,39.26,1.9438,393.6555],
    [13197,1537391747,53.3654,-110.7119,932.8,297.8,269.8,2.7,-0.3,8.96,38.84,1.9422,393.7763],
    [13198,1537391748,53.3654,-110.713,932.8,299.8,269.3,2.6,0.2,9.43,38.79,1.9433,393.3183],
    [13199,1537391749,53.3654,-110.714,933.1,302.4,269.3,2.8,0.1,10.22,38.41,1.9446,394.3225],
    [13200,1537391750,53.3654,-110.7152,933.4,305.3,269.4,3.0,-0.2,9.7,38.65,1.9462,393.1186],
    [13201,1537391751,53.3654,-110.7163,933.3,307.3,269.4,2.9,-0.1,9.88,38.33,1.9471,393.7333],
    [13202,1537391752,53.3654,-110.7174,933.3,308.6,269.2,2.5,0.0,8.95,39.0,1.9466,393.8049],
    [13203,1537391753,53.3654,-110.7185,933.5,310.2,269.4,2.9,-0.1,9.37,39.06,1.9474,394.0326],
    [13204,1537391754,53.3654,-110.7195,933.6,311.6,269.3,2.9,0.1,9.62,39.26,1.9471,394.4382],
    [13205,1537391755,53.3654,-110.7207,934.0,313.0,269.2,3.2,0.0,9.4,39.62,1.9466,394.4382],
    [13206,1537391756,53.3654,-110.7217,934.4,312.4,269.2,3.3,0.1,10.07,39.02,1.9453,393.1727],
    [13207,1537391757,53.3653,-110.7228,934.6,311.6,269.1,3.0,0.1,9.33,40.12,1.9472,394.0513],
    [13208,1537391758,53.3653,-110.7239,934.3,311.0,269.6,3.4,-0.5,9.44,39.96,1.9471,394.0632],
    [13209,1537391759,53.3653,-110.725,934.2,310.2,269.0,3.1,0.1,9.55,39.58,1.945,393.3938],
    [13210,1537391760,53.3653,-110.7261,934.5,309.5,269.1,3.1,-0.1,9.0,39.68,1.9453,393.7161],
    [13211,1537391761,53.3653,-110.7272,934.8,310.8,268.9,3.0,0.1,9.23,40.09,1.9459,393.5932],
    [13212,1537391762,53.3653,-110.7283,934.4,311.7,268.9,3.0,0.0,8.84,39.92,1.9469,393.6596],
    [13213,1537391763,53.3653,-110.7294,934.2,313.1,269.0,4.4,-0.2,9.33,39.97,1.9467,391.1819],
    [13214,1537391764,53.3653,-110.7305,934.1,314.1,269.7,3.6,-0.8,9.25,40.13,1.9471,393.7614],
    [13215,1537391765,53.3653,-110.7316,933.8,313.9,269.5,3.9,-0.3,8.93,40.14,1.9469,393.7263],
    [13216,1537391766,53.3652,-110.7327,934.3,312.2,269.6,3.5,-0.4,9.29,40.15,1.9454,392.8134],
    [13217,1537391767,53.3652,-110.7338,935.0,312.0,269.1,3.4,0.2,9.32,40.17,1.9463,392.9172],
    [13218,1537391768,53.3652,-110.7349,934.9,311.9,268.2,3.4,1.0,9.08,40.26,1.9452,394.9268],
    [13219,1537391769,53.3652,-110.736,934.3,311.2,268.9,3.8,-0.2,9.42,40.64,1.9473,393.1021],
    [13220,1537391770,53.3652,-110.7371,934.2,312.2,269.4,4.2,-0.8,9.41,40.43,1.9462,394.2498],
    [13221,1537391771,53.3652,-110.7382,934.5,313.7,269.4,4.6,-0.7,9.44,40.82,1.9477,392.7936],
    [13222,1537391772,53.3652,-110.7393,934.3,314.3,269.5,4.6,-0.7,9.9,39.96,1.9467,392.9865],
    [13223,1537391773,53.3652,-110.7403,933.9,313.9,269.3,4.1,-0.2,9.32,41.02,1.9469,394.561],
    [13224,1537391774,53.3651,-110.7414,933.8,313.7,269.0,3.4,0.2,9.78,39.92,1.9475,392.3702],
    [13225,1537391775,53.3651,-110.7425,934.4,315.4,268.2,3.1,1.2,9.11,40.94,1.9585,391.9957],
    [13226,1537391776,53.3651,-110.7436,935.4,318.4,267.5,3.5,2.0,9.09,40.48,1.9674,393.8576],
    [13227,1537391777,53.3651,-110.7447,936.1,319.1,267.7,4.3,1.6,9.18,40.71,1.9621,392.4477],
    [13228,1537391778,53.3651,-110.7458,937.1,320.1,268.5,4.1,0.6,9.61,40.13,1.9562,393.7305],
    [13229,1537391779,53.3651,-110.7469,937.0,320.0,269.3,3.9,-0.2,9.42,41.3,1.9535,392.4595],
    [13230,1537391780,53.3651,-110.748,935.8,318.7,269.2,3.9,0.2,9.12,40.67,1.9468,393.3212],
    [13231,1537391781,53.3651,-110.7491,934.3,316.4,270.0,3.5,-0.8,9.19,40.73,1.9453,393.5883],
    [13232,1537391782,53.3651,-110.7503,933.5,315.5,270.1,3.4,-0.6,9.54,40.94,1.9447,393.1455],
    [13233,1537391783,53.3651,-110.7514,933.5,315.5,269.9,3.8,-0.2,9.44,40.37,1.9424,392.5394],
    [13234,1537391784,53.3651,-110.7524,933.4,315.4,270.2,4.2,-0.4,8.77,40.44,1.9429,394.1241],
    [13235,1537391785,53.3651,-110.7535,933.3,315.4,269.7,3.8,0.3,9.07,40.39,1.9433,391.767],
    [13236,1537391786,53.3651,-110.7546,933.3,315.3,269.8,3.9,0.2,9.75,40.12,1.9447,394.931],
    [13237,1537391787,53.3651,-110.7558,933.4,315.4,269.9,3.3,-0.2,9.06,40.08,1.9487,393.5702],
    [13238,1537391788,53.3651,-110.7569,933.7,316.1,270.8,2.9,-1.6,9.37,39.88,1.9494,393.3843],
    [13239,1537391789,53.365,-110.758,934.5,317.5,270.6,2.7,-1.7,9.19,40.2,1.9501,393.6155],
    [13240,1537391790,53.365,-110.7591,934.8,318.9,270.8,2.1,-2.1,9.59,39.73,1.9465,394.1794],
    [13241,1537391791,53.365,-110.7602,934.2,318.7,270.2,2.3,-1.7,9.51,40.21,1.9444,393.2857],
    [13242,1537391792,53.365,-110.7614,933.9,318.9,269.5,3.2,-1.2,9.07,40.21,1.946,392.4228],
    [13243,1537391793,53.365,-110.7625,934.1,319.1,269.7,3.3,-2.0,9.18,40.36,1.9468,394.2763],
    [13244,1537391794,53.365,-110.7636,934.5,319.5,270.4,3.1,-2.9,9.66,40.34,1.9462,393.5121],
    [13245,1537391795,53.365,-110.7647,934.8,319.8,269.4,3.1,-1.8,9.21,40.59,1.946,393.3095],
    [13246,1537391796,53.3649,-110.7658,935.0,320.0,269.4,3.9,-2.1,9.22,40.86,1.9472,393.3774],
    [13247,1537391797,53.3649,-110.767,935.1,320.1,269.9,3.5,-2.9,8.87,40.6,1.9472,390.8231],
    [13248,1537391798,53.3649,-110.7681,935.4,320.4,269.9,4.1,-2.9,9.37,40.87,1.947,393.3242],
    [13249,1537391799,53.3648,-110.7692,935.6,320.6,269.3,3.6,-1.8,9.33,40.64,1.9472,393.293],
    [13250,1537391800,53.3648,-110.7703,935.5,320.5,269.5,3.5,-2.2,9.38,40.82,1.9455,393.2696],
    [13251,1537391801,53.3648,-110.7714,935.1,320.4,269.2,3.0,-1.9,9.71,40.64,1.9457,394.4466],
    [13252,1537391802,53.3648,-110.7726,935.0,321.3,268.3,2.3,-0.8,9.38,40.89,1.9449,393.6909],
    [13253,1537391803,53.3647,-110.7737,934.8,324.2,268.5,3.1,-1.0,9.53,40.65,1.9444,392.8291],
    [13254,1537391804,53.3647,-110.7748,934.3,326.6,269.1,3.5,-1.5,9.22,41.22,1.9441,393.4919],
    [13255,1537391805,53.3647,-110.7759,933.4,332.1,269.7,3.8,-2.0,9.29,41.41,1.9434,394.143],
    [13256,1537391806,53.3647,-110.7771,933.4,337.4,270.2,5.2,-2.5,9.42,40.66,1.9432,393.6804],
    [13257,1537391807,53.3646,-110.7782,935.6,343.9,269.7,4.5,-1.9,9.43,41.0,1.9432,393.6804],
    [13258,1537391808,53.3646,-110.7793,936.9,349.6,270.4,3.4,-2.8,9.84,40.24,1.944,392.709],
    [13259,1537391809,53.3646,-110.7804,937.2,354.2,270.0,3.0,-2.0,9.39,40.95,1.9446,392.0342],
    [13260,1537391810,53.3646,-110.7815,937.9,359.3,269.4,1.9,-1.4,9.2,40.45,1.9442,392.3993],
    [13261,1537391811,53.3646,-110.7827,937.8,361.8,269.6,3.1,-1.9,10.08,40.2,1.9445,392.2467],
    [13262,1537391812,53.3645,-110.7838,936.7,361.7,270.1,3.4,-2.6,9.11,40.8,1.9439,393.6592],
    [13263,1537391813,53.3645,-110.7849,935.7,361.7,270.1,5.1,-3.0,9.28,40.09,1.9434,392.5315],
    [13264,1537391814,53.3645,-110.786,935.8,361.8,270.3,4.0,-3.6,8.85,40.36,1.9439,392.8587],
    [13265,1537391815,53.3645,-110.7872,936.4,360.4,270.5,4.6,-4.1,9.57,40.15,1.9437,391.0081],
    [13266,1537391816,53.3644,-110.7883,937.3,358.6,270.3,3.2,-3.8,9.2,40.45,1.944,393.8489],
    [13267,1537391817,53.3644,-110.7894,937.2,357.8,268.2,3.2,-1.1,9.58,40.79,1.9447,393.7407],
    [13268,1537391818,53.3644,-110.7905,935.9,359.3,267.6,4.0,-0.8,9.46,40.46,1.947,393.8385],
    [13269,1537391819,53.3643,-110.7917,935.1,359.8,268.2,3.7,-1.2,9.52,40.22,1.9473,393.4998],
    [13270,1537391820,53.3643,-110.7928,935.8,360.5,269.3,4.6,-2.0,9.67,39.96,1.9441,392.3571],
    [13271,1537391821,53.3643,-110.7939,936.2,361.9,270.6,3.9,-2.6,9.42,40.18,1.9453,393.0493],
    [13272,1537391822,53.3643,-110.7951,935.6,361.5,271.2,4.0,-2.7,10.19,39.98,1.9453,394.3175],
    [13273,1537391823,53.3643,-110.7962,934.5,361.5,271.8,5.2,-3.1,9.47,40.5,1.9432,392.7792],
    [13274,1537391824,53.3643,-110.7973,934.0,361.0,271.3,4.5,-3.0,9.5,40.37,1.943,393.2266],
    [13275,1537391825,53.3642,-110.7985,934.4,361.4,271.3,4.3,-3.3,10.09,39.96,1.9441,392.1636],
    [13276,1537391826,53.3642,-110.7996,934.8,361.8,270.2,4.3,-2.4,9.43,40.18,1.944,391.0991],
    [13277,1537391827,53.3642,-110.8007,935.2,362.2,269.6,3.3,-2.1,9.94,39.58,1.9443,392.788],
    [13278,1537391828,53.3642,-110.8019,935.0,362.0,269.2,4.0,-1.7,9.53,40.16,1.9435,391.3396],
    [13279,1537391829,53.3641,-110.803,934.7,361.8,269.0,4.9,-1.6,9.66,39.86,1.9435,394.2111],
    [13280,1537391830,53.3641,-110.8041,935.6,361.6,269.3,4.5,-1.8,9.36,40.16,1.9434,393.3551],
    [13281,1537391831,53.3641,-110.8053,936.1,362.1,268.9,3.9,-1.3,9.25,40.16,1.9417,393.0826],
    [13282,1537391832,53.3641,-110.8064,935.1,361.1,269.7,4.5,-2.1,9.38,40.75,1.9409,393.2085],
    [13283,1537391833,53.3641,-110.8075,934.0,360.0,269.6,4.4,-2.0,9.29,40.09,1.9415,393.4923],
    [13284,1537391834,53.364,-110.8086,933.5,359.5,269.6,4.8,-1.9,9.96,39.27,1.9416,393.7421],
    [13285,1537391835,53.364,-110.8098,933.6,359.6,269.3,5.2,-1.3,9.85,39.13,1.9416,393.3273],
    [13286,1537391836,53.364,-110.8109,934.7,360.7,268.8,4.8,-0.7,9.56,39.31,1.9417,393.1704],
    [13287,1537391837,53.364,-110.812,935.2,361.2,269.6,5.6,-2.0,9.54,39.35,1.9407,393.5644],
    [13288,1537391838,53.3639,-110.8132,934.6,360.6,270.6,5.3,-3.1,9.53,39.05,1.9397,393.4348],
    [13289,1537391839,53.3639,-110.8143,933.8,359.8,269.8,5.3,-2.2,9.47,39.58,1.9412,391.6526],
    [13290,1537391840,53.3639,-110.8154,933.6,359.6,269.7,5.5,-2.2,9.87,38.47,1.9401,393.5942],
    [13291,1537391841,53.3639,-110.8165,933.7,359.7,269.4,5.3,-1.7,9.62,38.73,1.9419,393.6326],
    [13292,1537391842,53.3639,-110.8176,933.0,359.0,269.9,5.1,-2.3,9.1,38.58,1.9412,392.0794],
    [13293,1537391843,53.3638,-110.8188,932.3,358.3,270.0,4.7,-2.4,9.24,38.32,1.9405,393.065],
    [13294,1537391844,53.3638,-110.8199,932.5,358.5,270.9,5.3,-3.5,10.17,38.0,1.9407,393.4571],
    [13295,1537391845,53.3638,-110.821,933.6,359.6,270.5,4.9,-3.0,8.85,38.42,1.9411,393.8028],
    [13296,1537391846,53.3638,-110.8221,934.5,360.5,270.6,4.0,-2.9,9.3,38.34,1.9417,394.6925],
    [13297,1537391847,53.3638,-110.8232,934.5,360.5,271.4,3.8,-3.8,9.49,38.55,1.9415,394.5535],
    [13298,1537391848,53.3637,-110.8243,934.8,360.8,271.9,4.2,-4.7,9.24,38.79,1.9415,395.0169],
    [13299,1537391849,53.3637,-110.8254,936.1,362.1,272.4,3.7,-5.3,9.36,38.92,1.9417,392.5315],
    [13300,1537391850,53.3637,-110.8265,936.8,362.8,271.7,3.5,-4.3,8.76,38.2,1.942,394.0543],
    [13301,1537391851,53.3637,-110.8276,936.6,362.6,270.3,3.7,-2.7,9.48,38.49,1.9399,392.6156],
    [13302,1537391852,53.3637,-110.8287,936.4,361.4,269.3,3.6,-1.9,9.68,38.24,1.9404,392.6156],
    [13303,1537391853,53.3636,-110.8298,936.0,359.7,269.1,3.5,-2.0,9.21,38.49,1.9412,392.7046],
    [13304,1537391854,53.3636,-110.8309,936.1,359.1,269.9,3.4,-3.3,9.5,38.41,1.9409,391.6862],
    [13305,1537391855,53.3636,-110.832,936.2,359.2,269.8,3.5,-3.1,9.51,39.06,1.9422,393.0694],
    [13306,1537391856,53.3635,-110.8331,936.2,359.2,270.0,3.8,-3.4,10.1,38.11,1.9419,393.503],
    [13307,1537391857,53.3635,-110.8342,936.0,360.1,269.8,4.4,-2.8,9.04,38.59,1.9426,392.7541],
    [13308,1537391858,53.3635,-110.8353,936.2,360.2,268.6,6.2,-1.1,9.73,38.71,1.9413,393.0443],
    [13309,1537391859,53.3634,-110.8365,937.1,362.1,268.1,5.6,-0.1,9.56,38.69,1.9417,393.9726],
    [13310,1537391860,53.3634,-110.8376,937.4,362.4,268.0,5.7,0.2,10.0,38.11,1.9413,393.4493],
    [13311,1537391861,53.3634,-110.8387,936.2,361.2,269.1,5.4,-0.6,9.63,38.54,1.9411,393.4175],
    [13312,1537391862,53.3634,-110.8398,934.5,359.5,269.6,5.8,-0.8,9.85,37.73,1.9402,392.3887],
    [13313,1537391863,53.3634,-110.8409,934.2,359.2,270.3,5.9,-1.3,9.44,38.06,1.9402,394.118],
    [13314,1537391864,53.3634,-110.842,934.6,359.6,270.3,6.6,-0.9,9.46,38.06,1.9393,393.0127],
    [13315,1537391865,53.3634,-110.8432,935.2,360.2,270.2,6.9,-0.9,9.26,37.79,1.9396,393.492],
    [13316,1537391866,53.3634,-110.8443,935.6,359.5,270.4,7.2,-1.5,9.1,37.38,1.9408,393.5419],
    [13317,1537391867,53.3634,-110.8454,935.9,359.2,270.1,7.1,-1.2,9.68,36.83,1.9411,392.2428],
    [13318,1537391868,53.3633,-110.8465,935.8,357.6,269.9,7.3,-0.9,8.75,37.62,1.9392,394.0857],
    [13319,1537391869,53.3633,-110.8476,935.3,354.0,269.7,7.0,-0.3,9.43,37.36,1.9407,394.0857],
    [13320,1537391870,53.3633,-110.8487,934.7,349.1,270.9,6.8,-1.1,9.71,37.1,1.9405,394.3278],
    [13321,1537391871,53.3633,-110.8498,934.5,343.9,271.9,7.3,-0.8,9.18,36.89,1.9408,392.803],
    [13322,1537391872,53.3634,-110.851,934.4,338.8,273.1,7.4,-0.2,10.26,36.5,1.94,393.6456],
    [13323,1537391873,53.3634,-110.8521,933.9,333.7,275.2,7.4,0.1,9.58,36.65,1.9407,392.3182],
    [13324,1537391874,53.3635,-110.8532,933.0,328.6,277.7,6.6,0.2,9.46,36.79,1.9403,392.3603],
    [13325,1537391875,53.3636,-110.8543,932.5,324.5,281.0,6.9,-0.1,10.16,36.31,1.9396,394.425],
    [13326,1537391876,53.3638,-110.8553,932.9,324.9,284.4,6.7,-0.6,9.67,36.62,1.9398,392.6613],
    [13327,1537391877,53.364,-110.8564,933.3,322.1,287.0,6.4,0.0,9.34,36.72,1.9399,393.9931],
    [13328,1537391878,53.3642,-110.8574,933.5,319.4,290.0,6.2,-0.5,9.64,37.26,1.9416,393.9931],
    [13329,1537391879,53.3645,-110.8585,933.4,317.4,293.2,5.8,-0.3,9.38,36.38,1.9413,393.2797],
    [13330,1537391880,53.3648,-110.8595,933.7,316.6,296.0,5.8,0.0,9.92,35.91,1.9409,393.5343],
    [13331,1537391881,53.3651,-110.8605,933.4,316.3,299.3,5.9,-0.3,8.99,36.55,1.9423,392.7686],
    [13332,1537391882,53.3655,-110.8614,933.0,316.0,302.3,5.8,0.2,9.83,36.87,1.9412,393.635],
    [13333,1537391883,53.3659,-110.8623,932.9,316.8,306.7,5.2,-1.2,9.52,37.04,1.9419,393.8277],
    [13334,1537391884,53.3663,-110.8632,933.2,317.2,310.2,5.3,-1.2,9.79,36.45,1.941,394.0821],
    [13335,1537391885,53.3668,-110.864,933.6,319.3,313.6,4.9,-1.6,10.32,36.35,1.9401,394.2136],
    [13336,1537391886,53.3673,-110.8647,933.4,320.9,316.9,4.8,-1.8,9.67,36.97,1.94,392.8263],
    [13337,1537391887,53.3678,-110.8655,934.4,324.1,320.6,5.0,-1.7,9.72,36.47,1.9402,392.4402],
    [13338,1537391888,53.3683,-110.8661,935.7,327.0,323.3,4.9,-1.6,8.88,36.99,1.9406,393.8691],
    [13339,1537391889,53.3689,-110.8667,935.7,328.0,327.4,3.6,-2.2,9.14,37.12,1.9406,393.5199],
    [13340,1537391890,53.3695,-110.8673,935.4,328.4,330.7,3.8,-2.6,9.51,37.89,1.9422,394.4114],
    [13341,1537391891,53.3701,-110.8678,936.1,329.9,334.1,4.0,-2.7,9.52,37.07,1.9425,393.4713],
    [13342,1537391892,53.3707,-110.8682,936.5,330.5,336.9,4.2,-3.0,10.1,36.97,1.942,392.9172],
    [13343,1537391893,53.3714,-110.8686,936.3,330.3,340.1,3.5,-2.4,9.54,37.59,1.942,394.4485],
    [13344,1537391894,53.372,-110.8689,936.3,331.6,343.0,4.2,-2.7,9.52,37.52,1.9417,394.1787],
    [13345,1537391895,53.3727,-110.8692,936.7,332.7,345.9,3.9,-2.9,10.34,37.24,1.9402,394.1684],
    [13346,1537391896,53.3733,-110.8694,937.2,332.3,349.0,3.7,-3.3,9.66,37.68,1.9406,391.0752],
    [13347,1537391897,53.374,-110.8695,938.1,330.7,351.3,3.7,-2.6,9.52,38.73,1.942,392.9265],
    [13348,1537391898,53.3747,-110.8696,938.5,329.5,353.0,3.6,-2.3,9.36,38.47,1.9407,394.3493],
    [13349,1537391899,53.3754,-110.8697,938.3,326.3,353.9,4.1,-2.0,9.87,37.91,1.9416,392.2415],
    [13350,1537391900,53.3761,-110.8697,937.8,323.6,354.9,4.2,-1.7,9.65,38.27,1.9413,393.0256],
    [13351,1537391901,53.3768,-110.8698,937.5,323.2,355.6,4.5,-2.4,9.1,38.08,1.9401,392.4825],
    [13352,1537391902,53.3775,-110.8698,937.0,323.1,355.8,5.2,-2.1,9.91,37.56,1.9396,392.3427],
    [13353,1537391903,53.3781,-110.8698,936.5,322.5,356.4,5.1,-1.9,9.45,38.01,1.9381,392.3001],
    [13354,1537391904,53.3789,-110.8698,935.8,321.8,356.8,5.4,-2.0,9.49,38.27,1.9375,391.7166],
    [13355,1537391905,53.3795,-110.8698,935.7,322.7,357.1,5.4,-2.0,9.41,37.85,1.94,393.9227],
    [13356,1537391906,53.3802,-110.8697,936.2,323.2,358.5,4.4,0.1,9.51,38.07,1.9403,394.1165],
    [13357,1537391907,53.3809,-110.8697,936.3,323.3,359.7,3.8,0.0,9.23,37.64,1.9399,392.2528],
    [13358,1537391908,53.3816,-110.8696,935.0,322.0,360.8,3.2,-1.6,9.64,37.48,1.9387,392.4984],
    [13359,1537391909,53.3823,-110.8696,933.7,321.7,358.9,5.5,-2.5,9.36,37.98,1.9392,393.3713],
    [13360,1537391910,53.383,-110.8695,934.0,322.0,358.8,4.5,-2.5,9.59,37.62,1.9385,393.3836],
    [13361,1537391911,53.3837,-110.8695,934.9,321.9,358.6,3.2,-2.2,9.83,37.27,1.9386,392.8382],
    [13362,1537391912,53.3844,-110.8695,935.0,322.0,356.1,4.8,-2.1,9.35,38.06,1.9389,392.9119],
    [13363,1537391913,53.3851,-110.8695,934.7,321.8,353.9,5.3,-2.0,10.32,37.6,1.9392,393.0323],
    [13364,1537391914,53.3858,-110.8696,934.7,320.4,352.2,5.1,-2.0,9.21,37.99,1.939,392.4835],
    [13365,1537391915,53.3865,-110.8697,934.9,318.9,350.6,5.3,-1.9,9.37,37.9,1.9382,392.8083],
    [13366,1537391916,53.3872,-110.8698,934.9,318.9,348.9,5.7,-1.9,9.48,37.86,1.9383,393.3329],
    [13367,1537391917,53.3879,-110.87,934.9,319.9,348.3,5.1,-1.9,9.6,38.09,1.9393,394.0267],
    [13368,1537391918,53.3886,-110.8701,934.8,319.8,347.5,5.2,-1.7,9.42,37.33,1.9394,393.1966],
    [13369,1537391919,53.3892,-110.8703,934.5,319.5,347.3,4.9,-1.8,9.16,37.33,1.939,392.7937],
    [13370,1537391920,53.3899,-110.8705,934.3,319.3,347.1,5.0,-1.9,9.29,37.75,1.9394,393.1322],
    [13371,1537391921,53.3906,-110.8707,934.6,320.1,346.9,5.3,-2.3,9.46,37.09,1.9369,393.9478],
    [13372,1537391922,53.3913,-110.8709,934.9,319.9,346.9,5.5,-2.2,9.27,37.4,1.9369,394.0181],
    [13373,1537391923,53.392,-110.8711,935.2,319.3,347.0,5.5,-2.2,8.9,37.16,1.9389,392.9305],
    [13374,1537391924,53.3926,-110.8713,935.2,318.2,347.6,4.8,-1.8,9.32,36.89,1.9394,392.9305],
    [13375,1537391925,53.3933,-110.8715,935.0,317.1,347.8,4.9,-1.9,10.12,36.33,1.938,393.369],
    [13376,1537391926,53.394,-110.8716,934.8,316.8,347.6,5.4,-2.1,9.44,36.73,1.9374,393.369],
    [13377,1537391927,53.3947,-110.8718,934.6,316.6,347.5,5.6,-2.1,9.4,37.46,1.9378,392.3419],
    [13378,1537391928,53.3954,-110.872,934.5,316.5,347.5,5.6,-1.8,10.15,35.81,1.937,393.753],
    [13379,1537391929,53.396,-110.8722,934.4,316.4,347.5,5.3,-1.6,9.74,36.39,1.9379,393.0254],
    [13380,1537391930,53.3967,-110.8723,934.2,315.1,347.9,4.9,-1.1,9.58,36.19,1.9389,392.0594],
    [13381,1537391931,53.3974,-110.8725,933.2,314.3,347.8,5.3,-0.8,9.41,36.38,1.9381,391.1032],
    [13382,1537391932,53.3981,-110.8727,932.3,312.3,347.8,5.5,-1.3,9.41,36.25,1.9396,394.675],
    [13383,1537391933,53.3987,-110.8728,932.5,311.5,348.2,4.9,-1.3,8.86,36.11,1.9396,394.069],
    [13384,1537391934,53.3994,-110.873,933.1,312.1,349.1,4.0,-1.6,9.23,36.36,1.9381,394.6785],
    [13385,1537391935,53.4001,-110.8732,933.4,312.1,348.7,4.7,-1.1,9.33,36.33,1.9398,393.8595],
    [13386,1537391936,53.4007,-110.8733,933.5,312.5,348.6,5.1,-0.9,9.83,35.84,1.94,394.0571],
    [13387,1537391937,53.4014,-110.8734,933.6,313.6,349.3,5.1,-0.2,9.49,36.65,1.9401,393.1199],
    [13388,1537391938,53.4021,-110.8736,933.2,317.2,350.5,4.9,-0.5,9.32,36.87,1.9399,390.4799],
    [13389,1537391939,53.4028,-110.8737,933.5,320.1,352.2,4.6,-0.3,9.45,36.41,1.9393,392.5759],
    [13390,1537391940,53.4034,-110.8738,935.1,324.1,354.6,3.1,-0.5,9.31,36.62,1.9405,394.2225],
    [13391,1537391941,53.4041,-110.8738,937.1,327.1,355.7,3.2,1.2,9.46,36.96,1.9418,393.4245],
    [13392,1537391942,53.4048,-110.8738,938.2,328.2,355.4,3.8,1.2,9.57,36.87,1.9409,391.8612],
    [13393,1537391943,53.4055,-110.8739,936.5,326.5,356.1,3.2,0.0,9.21,37.82,1.9405,394.2629],
    [13394,1537391944,53.4062,-110.8739,934.6,324.6,355.5,3.5,-0.6,9.01,37.74,1.9394,393.9433],
    [13395,1537391945,53.4069,-110.8739,933.4,322.4,355.6,3.0,-1.6,9.45,37.55,1.9407,393.5894],
    [13396,1537391946,53.4076,-110.874,933.0,320.9,355.3,3.1,-1.5,9.5,37.46,1.9428,392.8563],
    [13397,1537391947,53.4082,-110.874,932.5,319.4,354.9,3.4,-1.3,9.25,37.41,1.9462,392.4972],
    [13398,1537391948,53.4089,-110.8741,932.5,318.5,354.6,3.7,-1.5,8.97,37.44,1.952,393.0223],
    [13399,1537391949,53.4096,-110.8741,932.9,317.9,354.5,3.9,-1.7,9.62,37.6,1.9556,394.0254],
    [13400,1537391950,53.4103,-110.8742,933.7,316.6,354.1,4.3,-1.9,9.07,37.42,1.9521,393.3823],
    [13401,1537391951,53.411,-110.8743,933.9,316.1,354.6,3.6,-1.3,9.14,38.02,1.9513,393.9008],
    [13402,1537391952,53.4117,-110.8743,933.4,314.0,355.4,2.7,-1.2,9.13,38.02,1.948,393.1101],
    [13403,1537391953,53.4124,-110.8744,933.6,313.4,355.7,2.2,-0.6,10.05,37.21,1.9482,393.1486],
    [13404,1537391954,53.413,-110.8744,934.2,313.2,355.5,2.4,-0.3,9.8,37.4,1.9438,393.1751],
    [13405,1537391955,53.4137,-110.8745,934.0,311.0,355.7,2.1,-0.4,8.97,37.6,1.943,393.623],
    [13406,1537391956,53.4144,-110.8745,934.3,311.3,355.5,2.6,-0.6,9.49,37.68,1.9431,394.1839],
    [13407,1537391957,53.4151,-110.8746,935.9,312.9,354.9,3.3,-0.6,10.06,37.42,1.9434,394.1857],
    [13408,1537391958,53.4158,-110.8746,937.4,313.4,355.1,2.9,-1.1,9.89,37.05,1.9417,392.8164],
    [13409,1537391959,53.4165,-110.8747,938.2,310.8,355.5,2.4,-1.6,9.44,37.62,1.9417,393.321],
    [13410,1537391960,53.4172,-110.8748,936.4,306.4,355.0,3.1,-0.1,9.65,37.52,1.9413,389.4853],
    [13411,1537391961,53.4178,-110.8748,934.0,302.0,353.7,4.3,-1.2,9.19,37.73,1.9382,393.2811],
    [13412,1537391962,53.4185,-110.8749,931.8,298.8,354.7,2.8,-1.4,9.28,37.8,1.9386,392.7948],
    [13413,1537391963,53.4192,-110.8749,930.4,295.7,354.8,2.8,-0.9,10.08,37.43,1.9392,393.8166],
    [13414,1537391964,53.4199,-110.875,929.5,294.0,354.6,2.9,-1.1,9.16,37.56,1.9393,393.6461],
    [13415,1537391965,53.4206,-110.8751,928.8,291.5,354.3,3.1,-0.1,9.63,37.66,1.9404,393.3235],
    [13416,1537391966,53.4213,-110.8751,929.1,291.1,353.9,3.4,0.2,10.09,37.3,1.9406,393.3012],
    [13417,1537391967,53.422,-110.8752,930.7,293.4,353.8,3.2,0.4,9.05,37.6,1.9396,394.2007],
    [13418,1537391968,53.4226,-110.8753,932.7,295.8,353.5,3.5,0.8,10.16,37.44,1.9393,390.9176],
    [13419,1537391969,53.4233,-110.8754,935.1,297.1,352.9,4.3,-0.7,9.41,37.67,1.9391,394.6582],
    [13420,1537391970,53.424,-110.8754,936.8,295.5,354.6,2.3,-1.5,9.47,37.58,1.9393,394.6582],
    [13421,1537391971,53.4247,-110.8755,937.3,293.3,355.3,1.7,-0.9,9.47,38.6,1.9395,393.6479],
    [13422,1537391972,53.4254,-110.8756,936.9,291.2,355.1,2.1,-1.6,9.44,38.22,1.9403,393.4072],
    [13423,1537391973,53.426,-110.8757,936.2,290.6,354.2,3.3,-1.1,8.81,37.77,1.9402,394.1117],
    [13424,1537391974,53.4267,-110.8757,935.8,291.1,353.3,3.9,-1.1,10.27,37.33,1.9394,392.5427],
    [13425,1537391975,53.4274,-110.8758,935.5,292.6,353.8,3.1,-0.9,8.84,38.02,1.9391,389.2033],
    [13426,1537391976,53.4281,-110.8759,934.3,292.3,353.9,3.1,-1.1,9.46,38.17,1.9403,392.5914],
    [13427,1537391977,53.4288,-110.876,932.9,292.2,354.4,2.5,-1.4,9.55,38.21,1.941,393.136],
    [13428,1537391978,53.4295,-110.876,933.0,296.1,354.3,2.9,-2.0,8.93,37.96,1.9449,392.7607],
    [13429,1537391979,53.4301,-110.8761,935.5,300.1,353.9,3.1,-2.2,9.68,37.99,1.9652,392.3607],
    [13430,1537391980,53.4308,-110.8762,938.2,304.5,354.5,2.2,-1.6,9.12,38.06,1.978,392.9761],
    [13431,1537391981,53.4315,-110.8763,939.5,308.8,353.9,2.7,-1.2,9.2,38.87,1.9886,393.8889],
    [13432,1537391982,53.4322,-110.8764,939.6,311.6,354.0,2.6,-0.7,9.16,38.41,1.9802,393.3524],
    [13433,1537391983,53.4328,-110.8764,939.6,311.5,353.3,3.3,-1.1,9.42,38.72,1.9705,393.3552],
    [13434,1537391984,53.4336,-110.8765,939.6,311.6,352.9,4.0,-1.2,9.92,37.79,1.9505,393.4358],
    [13435,1537391985,53.4342,-110.8766,938.3,310.2,352.7,4.5,-1.5,9.44,38.27,1.9482,393.6492],
    [13436,1537391986,53.4349,-110.8767,936.6,309.6,352.7,4.8,-1.5,9.95,37.59,1.9467,391.7464],
    [13437,1537391987,53.4356,-110.8768,935.7,311.1,353.2,4.6,-1.6,9.52,38.23,1.9518,393.9151],
    [13438,1537391988,53.4363,-110.8768,935.9,312.9,353.2,4.7,-1.2,8.85,38.3,1.9642,393.82],
    [13439,1537391989,53.437,-110.8769,935.2,313.2,353.9,3.9,-1.1,9.66,38.03,1.9597,393.9147],
    [13440,1537391990,53.4376,-110.877,934.4,312.4,354.1,3.9,-1.0,9.51,37.9,1.9453,392.7194],
    [13441,1537391991,53.4383,-110.877,934.6,312.6,353.8,4.2,-1.5,8.95,38.36,1.9391,392.174],
    [13442,1537391992,53.439,-110.8771,934.5,312.5,355.1,2.7,-1.6,9.55,38.08,1.9402,392.3372],
    [13443,1537391993,53.4397,-110.8772,933.7,311.7,354.8,3.2,-1.6,9.79,38.44,1.9394,392.3372],
    [13444,1537391994,53.4404,-110.8772,933.6,311.6,354.6,3.1,-1.3,9.82,37.21,1.9401,392.1577],
    [13445,1537391995,53.4411,-110.8773,933.3,308.8,354.7,2.8,-0.9,9.49,38.58,1.9401,392.7026],
    [13446,1537391996,53.4418,-110.8773,932.6,306.7,354.1,3.6,-1.2,9.78,37.64,1.9398,393.6507],
    [13447,1537391997,53.4424,-110.8774,932.4,306.5,353.9,3.6,-0.9,9.46,38.65,1.9391,392.2822],
    [13448,1537391998,53.4431,-110.8775,933.8,308.8,353.5,4.2,-0.6,9.48,38.53,1.9407,394.13],
    [13449,1537391999,53.4438,-110.8775,934.8,308.8,353.6,3.9,-0.3,9.72,37.82,1.9409,394.2655],
    [13450,1537392000,53.4445,-110.8776,934.7,306.7,354.1,3.6,-0.5,9.22,37.93,1.9406,394.2655],
    [13451,1537392001,53.4451,-110.8777,934.4,305.4,353.6,4.2,-0.2,10.08,37.29,1.9392,393.4477],
    [13452,1537392002,53.4458,-110.8777,933.8,305.0,353.9,3.9,-0.4,9.2,37.88,1.94,392.0432],
    [13453,1537392003,53.4465,-110.8778,934.0,307.0,353.8,4.0,-0.9,9.34,38.3,1.9378,392.7859],
    [13454,1537392004,53.4472,-110.8779,934.9,307.9,353.5,4.3,-0.8,8.86,38.08,1.937,392.7859],
    [13455,1537392005,53.4478,-110.8779,935.5,307.5,354.0,3.6,-1.0,9.64,37.76,1.9371,391.6874],
    [13456,1537392006,53.4485,-110.878,935.3,306.4,353.6,4.1,-0.4,9.56,38.02,1.936,393.2901],
    [13457,1537392007,53.4492,-110.8781,934.9,302.9,353.5,4.3,-0.7,9.21,37.67,1.936,393.2901],
    [13458,1537392008,53.4499,-110.8781,934.4,300.9,353.8,4.1,-0.3,9.58,37.41,1.937,393.1211],
    [13459,1537392009,53.4505,-110.8782,934.3,299.0,353.6,4.3,0.2,9.52,37.81,1.9371,392.2356],
    [13460,1537392010,53.4512,-110.8782,934.8,296.7,353.7,4.1,0.6,9.83,36.84,1.9379,393.0898],
    [13461,1537392011,53.4519,-110.8783,935.5,296.6,353.6,4.2,0.3,9.52,37.82,1.938,392.7572],
    [13462,1537392012,53.4526,-110.8784,935.1,296.1,353.9,4.0,-0.5,9.67,36.7,1.9371,393.9145],
    [13463,1537392013,53.4532,-110.8784,934.6,296.6,354.1,4.0,-0.7,9.39,37.33,1.9375,393.3455],
    [13464,1537392014,53.4539,-110.8785,934.7,298.9,354.2,4.0,-1.0,9.3,37.26,1.938,393.4475],
    [13465,1537392015,53.4546,-110.8785,935.0,300.0,354.5,3.8,-1.2,9.57,36.5,1.9378,393.7718],
    [13466,1537392016,53.4553,-110.8786,935.1,301.7,354.4,4.1,-1.0,8.9,36.91,1.9372,393.7718],
    [13467,1537392017,53.4559,-110.8787,935.1,305.0,354.8,3.4,-1.6,9.8,36.82,1.9388,393.1844],
    [13468,1537392018,53.4566,-110.8787,934.6,305.9,355.1,3.1,-1.2,9.85,36.22,1.9377,393.7918],
    [13469,1537392019,53.4573,-110.8788,933.9,305.6,354.9,3.1,-1.0,9.62,37.04,1.9382,393.1349],
    [13470,1537392020,53.458,-110.8788,934.0,305.0,354.6,3.1,-0.3,9.02,36.9,1.9385,393.1349],
    [13471,1537392021,53.4586,-110.8789,935.1,303.1,354.4,3.3,0.0,9.45,36.76,1.9367,392.5755],
    [13472,1537392022,53.4593,-110.8789,935.4,301.2,354.3,3.6,0.4,10.07,36.45,1.9386,394.7695],
    [13473,1537392023,53.46,-110.879,935.1,299.0,355.0,3.4,0.2,9.16,36.9,1.9387,392.9773],
    [13474,1537392024,53.4607,-110.879,934.5,297.3,355.4,3.5,-0.6,9.36,37.34,1.9399,393.1397],
    [13475,1537392025,53.4613,-110.8791,934.4,296.4,355.5,3.5,-0.9,9.51,37.06,1.9402,393.0627],
    [13476,1537392026,53.462,-110.8791,934.5,297.5,355.8,3.2,-0.2,9.72,36.6,1.9396,394.0817],
    [13477,1537392027,53.4627,-110.8791,934.4,299.0,355.2,3.6,0.3,9.21,36.7,1.9397,393.3076],
    [13478,1537392028,53.4633,-110.8792,934.9,303.1,355.6,2.8,0.2,9.23,36.62,1.9422,393.8493],
    [13479,1537392029,53.4641,-110.8792,936.2,309.3,355.8,2.2,-1.0,9.39,37.01,1.9396,393.3733],
    [13480,1537392030,53.4647,-110.8793,936.5,311.7,355.0,3.3,-1.4,8.75,36.84,1.9387,393.6517],
    [13481,1537392031,53.4654,-110.8793,935.9,311.6,354.3,3.9,-1.2,9.08,36.67,1.9383,392.8397],
    [13482,1537392032,53.4661,-110.8794,934.4,308.7,354.4,3.9,-0.9,9.3,37.55,1.9377,392.7443],
    [13483,1537392033,53.4668,-110.8795,933.7,304.3,354.6,3.5,-1.7,9.76,36.43,1.9383,394.0207],
    [13484,1537392034,53.4674,-110.8795,934.2,301.8,354.3,3.8,-1.4,9.37,36.53,1.938,393.8344],
    [13485,1537392035,53.4681,-110.8796,935.0,301.0,354.3,3.5,-1.1,9.28,36.08,1.9365,393.2995],
    [13486,1537392036,53.4688,-110.8796,934.9,300.9,355.0,2.8,-1.1,9.35,36.51,1.9365,393.3073],
    [13487,1537392037,53.4695,-110.8797,934.4,299.4,354.5,3.2,-1.0,9.66,35.98,1.9381,393.8095],
    [13488,1537392038,53.4702,-110.8798,932.8,296.3,353.5,4.6,-1.4,9.25,36.14,1.9365,394.2326],
    [13489,1537392039,53.4709,-110.8798,931.3,289.7,352.5,5.6,-1.6,9.41,36.29,1.9402,393.5061],
    [13490,1537392040,53.4715,-110.8799,931.2,286.9,352.7,5.5,-1.4,9.81,35.97,1.9405,392.0231],
    [13491,1537392041,53.4722,-110.8799,930.9,283.9,353.9,4.7,-1.0,10.12,35.55,1.9387,392.2934],
    [13492,1537392042,53.4729,-110.88,930.6,282.6,353.4,5.8,-0.2,9.82,35.92,1.9421,391.5846],
    [13493,1537392043,53.4736,-110.88,931.0,282.9,354.1,4.9,-0.2,9.24,36.03,1.9431,391.5846],
    [13494,1537392044,53.4742,-110.8801,931.7,285.6,354.3,4.4,-0.4,9.45,36.75,1.944,391.6698],
    [13495,1537392045,53.4749,-110.8801,932.8,288.1,354.5,3.8,-0.8,9.4,36.05,1.9422,391.6698],
    [13496,1537392046,53.4756,-110.8802,934.9,292.0,354.8,3.1,-0.6,8.77,36.07,1.9445,393.0762],
    [13497,1537392047,53.4763,-110.8802,937.2,295.3,354.1,3.8,-1.3,9.64,35.81,1.9444,393.3988],
    [13498,1537392048,53.4769,-110.8803,938.1,296.0,354.3,3.4,-1.7,9.36,36.91,1.9434,393.339],
    [13499,1537392049,53.4776,-110.8804,938.0,297.7,354.5,3.3,-1.9,9.43,36.23,1.9444,393.4101],
    [13500,1537392050,53.4783,-110.8804,938.0,298.0,353.9,3.9,-2.1,9.86,35.64,1.9462,391.718],
    [13501,1537392051,53.4789,-110.8805,937.8,296.7,354.5,3.0,-2.2,9.13,36.44,1.9462,393.23],
    [13502,1537392052,53.4796,-110.8806,937.5,295.4,354.1,3.8,-2.3,9.19,36.58,1.9468,392.0122],
    [13503,1537392053,53.4803,-110.8806,937.4,294.4,353.9,3.9,-3.0,9.3,36.59,1.9514,393.7502],
    [13504,1537392054,53.481,-110.8807,938.1,295.1,354.4,3.4,-3.1,9.15,36.5,1.9638,392.6247],
    [13505,1537392055,53.4816,-110.8808,938.1,295.0,354.0,4.0,-2.6,9.88,35.94,1.9669,392.2705],
    [13506,1537392056,53.4823,-110.8808,936.9,295.0,353.8,4.1,-2.8,9.34,36.85,1.952,392.5303],
    [13507,1537392057,53.483,-110.8809,936.1,295.8,354.0,3.9,-2.6,9.45,37.05,1.9538,393.1405],
    [13508,1537392058,53.4837,-110.881,935.6,295.7,353.7,4.3,-2.7,9.2,36.91,1.9538,392.0221],
    [13509,1537392059,53.4844,-110.881,934.5,294.3,353.7,4.3,-2.4,9.6,37.09,1.9559,393.9021],
    [13510,1537392060,53.485,-110.8811,933.1,292.6,353.6,4.4,-2.1,9.66,37.04,1.9558,392.8871],
    [13511,1537392061,53.4857,-110.8812,932.5,292.8,353.7,4.5,-1.7,9.24,36.7,1.9479,392.8871],
    [13512,1537392062,53.4864,-110.8812,932.9,296.3,353.7,4.4,-1.4,9.59,36.63,1.9416,392.5689],
    [13513,1537392063,53.4871,-110.8813,933.0,298.0,354.3,3.7,-1.3,9.71,36.79,1.9409,392.5689],
    [13514,1537392064,53.4878,-110.8813,932.8,300.3,354.4,3.8,-1.1,9.99,36.39,1.9401,397.4709],
    [13515,1537392065,53.4885,-110.8814,932.8,305.4,354.3,3.9,-1.7,9.16,36.87,1.9399,392.3166],
    [13516,1537392066,53.4891,-110.8815,933.5,308.8,353.8,4.4,-2.0,9.15,36.98,1.9411,394.3002],
    [13517,1537392067,53.4898,-110.8815,934.0,312.1,354.0,4.1,-1.5,9.29,36.49,1.9392,392.8109],
    [13518,1537392068,53.4905,-110.8816,934.0,311.0,354.1,3.9,-1.7,9.46,36.81,1.9397,393.3849],
    [13519,1537392069,53.4912,-110.8816,933.6,309.6,354.3,3.6,-1.6,8.97,37.06,1.9386,393.3849],
    [13520,1537392070,53.4919,-110.8817,933.5,309.5,354.0,3.9,-1.3,9.12,36.99,1.9386,392.6059],
    [13521,1537392071,53.4925,-110.8818,933.6,309.6,354.1,3.9,-1.3,9.1,36.83,1.9413,393.3557],
    [13522,1537392072,53.4932,-110.8818,933.6,309.3,354.2,4.0,-1.3,9.15,36.69,1.94,392.7375],
    [13523,1537392073,53.4939,-110.8819,933.6,307.6,354.0,4.1,-1.3,9.52,36.33,1.94,392.9508],
    [13524,1537392074,53.4946,-110.8819,933.7,307.9,354.6,3.4,-1.5,9.39,37.52,1.939,393.0101],
    [13525,1537392075,53.4953,-110.882,933.7,308.5,353.8,4.1,-1.8,9.82,36.18,1.9389,390.4691],
    [13526,1537392076,53.4959,-110.8821,933.8,309.4,353.8,3.9,-1.7,9.02,36.83,1.9392,393.0441],
    [13527,1537392077,53.4966,-110.8821,933.9,309.7,353.3,4.7,-1.7,9.98,36.28,1.9384,392.3071],
    [13528,1537392078,53.4973,-110.8822,934.3,309.9,352.6,5.5,-1.5,9.54,36.14,1.9379,393.0825],
    [13529,1537392079,53.498,-110.8823,934.6,309.5,353.4,4.8,-1.7,9.18,36.68,1.9376,393.0825],
    [13530,1537392080,53.4986,-110.8823,934.6,308.9,353.7,4.7,-1.5,9.74,36.29,1.939,393.6473],
    [13531,1537392081,53.4993,-110.8824,934.8,308.2,353.9,4.6,-1.4,8.98,36.23,1.9377,394.2008],
    [13532,1537392082,53.5,-110.8824,934.8,308.5,353.6,5.1,-1.5,8.81,36.4,1.9379,393.4323],
    [13533,1537392083,53.5006,-110.8825,934.8,309.2,353.7,5.0,-1.5,8.95,36.58,1.9385,393.2766],
    [13534,1537392084,53.5013,-110.8825,934.7,309.3,353.6,5.2,-1.3,9.02,36.52,1.9385,392.8932],
    [13535,1537392085,53.502,-110.8826,934.5,308.5,353.9,4.9,-1.0,9.27,36.15,1.9405,392.4067],
    [13536,1537392086,53.5027,-110.8826,934.4,307.6,354.3,4.6,-0.5,9.33,36.55,1.9382,393.6698],
    [13537,1537392087,53.5033,-110.8827,934.5,305.8,354.2,4.9,-1.0,9.28,36.43,1.939,393.3564],
    [13538,1537392088,53.504,-110.8827,934.4,302.3,354.0,5.3,-1.2,9.24,36.34,1.9386,393.3564],
    [13539,1537392089,53.5047,-110.8828,934.3,299.7,353.8,5.4,-1.1,8.66,36.12,1.9384,392.5721],
    [13540,1537392090,53.5054,-110.8828,934.0,296.3,354.3,4.9,-0.9,9.25,36.21,1.9374,392.8141],
    [13541,1537392091,53.506,-110.8828,933.9,295.9,354.1,5.1,-0.9,9.92,35.95,1.9378,392.8141],
    [13542,1537392092,53.5067,-110.8829,933.9,297.8,354.1,5.1,-0.7,9.29,36.24,1.9382,393.5801],
    [13543,1537392093,53.5074,-110.8829,933.8,299.9,354.2,4.9,-0.6,9.09,35.98,1.9379,393.3238],
    [13544,1537392094,53.5081,-110.883,934.2,302.3,354.0,5.2,-0.3,9.98,35.64,1.9381,393.079],
    [13545,1537392095,53.5087,-110.883,934.5,303.5,354.0,5.0,-0.4,9.45,36.37,1.9384,391.227],
    [13546,1537392096,53.5094,-110.883,934.3,303.3,354.1,5.2,-0.5,9.85,35.49,1.9393,393.8548],
    [13547,1537392097,53.5101,-110.8831,934.1,303.2,354.1,5.0,-0.7,9.64,35.74,1.9418,392.6607],
    [13548,1537392098,53.5108,-110.8831,934.1,302.1,354.7,4.4,-1.1,8.97,36.54,1.9432,392.9939],
    [13549,1537392099,53.5114,-110.8832,934.2,301.5,354.7,4.3,-1.1,9.21,36.32,1.9442,392.44],
    [13550,1537392100,53.5121,-110.8832,934.2,301.6,354.9,4.0,-1.3,9.21,35.81,1.9442,392.44],
    [13551,1537392101,53.5128,-110.8833,934.4,301.8,355.0,3.8,-1.4,10.05,35.67,1.9446,393.7903],
    [13552,1537392102,53.5135,-110.8833,934.4,302.8,354.6,4.1,-0.9,9.58,36.53,1.943,393.068],
    [13553,1537392103,53.5141,-110.8833,934.5,303.4,354.6,4.1,-1.0,9.66,35.35,1.943,393.6291],
    [13554,1537392104,53.5148,-110.8834,934.4,303.0,354.5,4.1,-1.1,8.98,36.42,1.9419,394.0731],
    [13555,1537392105,53.5155,-110.8834,934.3,303.2,354.5,4.0,-0.9,9.23,36.15,1.9414,393.4038],
    [13556,1537392106,53.5161,-110.8835,934.2,302.2,354.2,4.2,-0.8,9.26,36.51,1.9408,393.3622],
    [13557,1537392107,53.5169,-110.8835,934.1,301.3,354.4,3.9,-0.5,9.54,36.04,1.9397,393.9309],
    [13558,1537392108,53.5175,-110.8836,934.1,301.1,354.2,4.2,-0.7,10.17,35.59,1.9398,392.8193],
    [13559,1537392109,53.5182,-110.8837,934.0,301.3,354.4,4.0,-1.0,9.57,35.78,1.9405,393.099],
    [13560,1537392110,53.5189,-110.8837,934.1,303.1,354.0,4.4,-0.8,9.26,36.3,1.9395,392.7338],
    [13561,1537392111,53.5196,-110.8838,934.2,305.2,354.1,4.2,-0.5,9.22,36.19,1.9401,392.7338],
    [13562,1537392112,53.5203,-110.8838,934.3,306.3,354.1,4.1,-0.6,9.27,36.7,1.9409,393.7547],
    [13563,1537392113,53.5209,-110.8839,934.3,307.2,354.3,4.0,-0.3,9.74,35.51,1.9403,393.8764],
    [13564,1537392114,53.5216,-110.8839,934.6,307.5,354.0,4.3,-0.2,8.94,36.27,1.94,393.4169],
    [13565,1537392115,53.5223,-110.884,934.6,307.6,353.3,5.0,0.3,9.92,35.68,1.9412,393.2936],
    [13566,1537392116,53.523,-110.884,934.0,308.0,353.2,5.2,-0.2,8.62,36.28,1.9413,392.2137],
    [13567,1537392117,53.5237,-110.8841,933.5,309.5,353.6,4.9,-0.2,9.02,36.39,1.9424,392.2393],
    [13568,1537392118,53.5244,-110.8842,933.7,311.4,353.4,5.3,-0.5,9.77,35.7,1.9436,392.6456],
    [13569,1537392119,53.525,-110.8842,934.3,312.3,353.7,5.3,-0.9,8.93,36.44,1.9446,393.499],
    [13570,1537392120,53.5257,-110.8843,934.1,311.0,354.0,5.1,-0.9,9.42,36.96,1.9439,392.0637],
    [13571,1537392121,53.5264,-110.8843,933.4,309.2,354.8,4.7,-0.2,9.26,36.79,1.9435,393.4521],
    [13572,1537392122,53.5271,-110.8843,933.4,307.4,354.2,5.3,-0.5,9.17,36.25,1.9427,391.9027],
    [13573,1537392123,53.5278,-110.8844,933.4,305.4,354.2,5.3,-0.3,9.36,36.91,1.9403,393.1712],
    [13574,1537392124,53.5285,-110.8844,933.3,304.3,354.1,5.3,0.2,9.2,36.34,1.9392,392.9921],
    [13575,1537392125,53.5292,-110.8844,932.9,302.8,353.8,5.7,0.2,8.9,36.71,1.9389,394.0198],
    [13576,1537392126,53.5299,-110.8845,932.7,302.7,353.8,5.6,0.2,8.71,36.35,1.9381,394.0198],
    [13577,1537392127,53.5305,-110.8845,932.7,302.7,354.1,5.4,0.2,9.38,36.56,1.9375,392.9163],
    [13578,1537392128,53.5312,-110.8846,932.8,303.8,354.1,5.4,0.1,8.82,36.63,1.9368,393.9546],
    [13579,1537392129,53.5319,-110.8846,933.1,305.1,354.7,4.6,0.3,9.19,36.05,1.9357,393.2057],
    [13580,1537392130,53.5326,-110.8846,933.1,305.8,355.0,4.3,0.5,9.27,36.05,1.9363,393.2057],
    [13581,1537392131,53.5333,-110.8847,933.0,306.4,354.8,4.6,0.4,9.29,36.45,1.9389,393.1726],
    [13582,1537392132,53.534,-110.8847,933.3,307.3,354.5,4.8,0.2,10.04,35.75,1.9373,393.5116],
    [13583,1537392133,53.5347,-110.8848,934.3,309.3,354.2,4.9,0.3,9.27,36.26,1.9381,393.2991],
    [13584,1537392134,53.5353,-110.8848,935.0,309.9,354.1,4.7,0.2,8.69,36.06,1.9393,393.2991],
    [13585,1537392135,53.536,-110.8848,935.1,310.2,354.5,4.1,1.1,9.47,35.68,1.9396,392.6098],
    [13586,1537392136,53.5367,-110.8849,934.7,308.0,354.7,3.6,1.8,8.68,36.06,1.9394,392.6098],
    [13587,1537392137,53.5374,-110.8849,934.1,305.6,355.7,2.5,1.4,9.32,36.12,1.9395,392.2774],
    [13588,1537392138,53.5381,-110.885,934.2,303.9,354.8,3.5,1.0,9.33,36.32,1.9401,392.0354],
    [13589,1537392139,53.5388,-110.885,934.8,304.0,353.7,4.8,0.4,9.83,36.03,1.9395,391.9448],
    [13590,1537392140,53.5395,-110.8851,935.4,306.4,352.7,5.8,0.1,9.18,37.01,1.9376,393.9681],
    [13591,1537392141,53.5402,-110.8852,935.2,307.9,353.1,5.1,0.1,9.05,36.57,1.9376,393.5173],
    [13592,1537392142,53.5408,-110.8852,933.7,306.8,353.4,4.9,0.8,9.31,36.67,1.9378,394.6807],
    [13593,1537392143,53.5416,-110.8853,932.0,303.7,352.6,5.8,0.9,8.68,36.78,1.9385,393.8863],
    [13594,1537392144,53.5423,-110.8854,931.1,302.0,353.8,4.3,0.3,9.2,36.72,1.9367,393.7172],
    [13595,1537392145,53.543,-110.8854,930.1,302.1,354.1,4.3,0.4,9.05,36.62,1.9372,393.9574],
    [13596,1537392146,53.5437,-110.8855,929.6,302.6,354.6,3.9,-0.5,9.1,36.73,1.938,392.4956],
    [13597,1537392147,53.5444,-110.8855,930.8,302.9,355.1,3.6,-0.2,9.48,36.41,1.9388,392.746],
    [13598,1537392148,53.5451,-110.8856,933.2,303.8,355.3,3.3,-0.1,9.33,37.22,1.938,392.2433],
    [13599,1537392149,53.5458,-110.8856,935.2,305.3,356.1,2.5,-0.1,9.56,36.1,1.9389,393.5164],
    [13600,1537392150,53.5465,-110.8857,935.5,304.7,356.6,1.9,0.1,8.85,36.51,1.9392,391.7977],
    [13601,1537392151,53.5472,-110.8857,935.3,304.3,356.2,2.1,0.6,9.37,36.3,1.9389,392.79],
    [13602,1537392152,53.5479,-110.8857,935.1,304.1,355.5,2.8,-0.4,9.07,36.38,1.938,392.9222],
    [13603,1537392153,53.5486,-110.8858,934.5,304.1,354.4,3.5,0.3,9.33,36.56,1.9378,394.6598],
    [13604,1537392154,53.5493,-110.8859,933.6,304.5,354.1,3.5,1.0,10.13,35.92,1.9371,393.75],
    [13605,1537392155,53.5499,-110.8859,932.6,304.6,353.8,3.8,0.7,9.88,35.75,1.9381,392.4885],
    [13606,1537392156,53.5506,-110.886,932.0,304.0,354.5,2.6,1.0,9.27,36.37,1.937,392.2824],
    [13607,1537392157,53.5513,-110.8861,932.2,302.2,354.7,2.4,1.3,9.69,35.68,1.9372,392.7604],
    [13608,1537392158,53.552,-110.8861,933.0,299.0,353.4,3.8,2.0,9.73,36.14,1.9379,393.5815],
    [13609,1537392159,53.5527,-110.8862,933.5,298.6,353.6,3.3,1.9,9.13,36.45,1.938,392.7283],
    [13610,1537392160,53.5534,-110.8863,932.8,297.8,354.4,2.5,1.8,9.33,36.72,1.9363,391.9881],
    [13611,1537392161,53.5541,-110.8864,932.5,298.7,353.2,4.0,1.4,9.32,36.2,1.9368,391.9935],
    [13612,1537392162,53.5548,-110.8865,932.7,301.8,353.0,3.9,1.7,8.67,36.18,1.9375,393.1301],
    [13613,1537392163,53.5555,-110.8865,933.0,303.0,354.0,2.5,1.4,9.63,36.23,1.9375,394.0837],
    [13614,1537392164,53.5562,-110.8866,933.6,303.6,354.1,2.6,1.1,8.81,36.33,1.9355,393.2996],
    [13615,1537392165,53.5569,-110.8867,934.1,304.1,353.0,4.0,0.6,9.28,36.45,1.9387,393.2996],
    [13616,1537392166,53.5576,-110.8868,934.6,304.6,353.2,3.6,-0.1,9.41,36.52,1.9396,392.0683],
    [13617,1537392167,53.5583,-110.8869,935.1,304.9,353.3,3.6,-0.4,10.25,36.17,1.9382,392.5842],
    [13618,1537392168,53.559,-110.887,935.4,304.1,352.9,4.1,-0.4,9.41,37.14,1.9371,389.2839],
    [13619,1537392169,53.5597,-110.887,936.2,304.2,352.7,4.2,0.9,9.52,36.25,1.9365,392.7488],
    [13620,1537392170,53.5604,-110.8871,936.6,304.6,353.8,3.2,1.4,9.45,36.87,1.938,392.2414],
    [13621,1537392171,53.5611,-110.8872,936.7,305.7,354.7,2.5,0.4,9.46,37.02,1.9383,392.9939],
    [13622,1537392172,53.5618,-110.8873,937.1,306.1,354.8,2.4,0.9,9.57,36.09,1.9365,393.4502],
    [13623,1537392173,53.5625,-110.8873,937.7,306.7,353.7,4.0,0.4,10.01,35.77,1.9369,392.5015],
    [13624,1537392174,53.5633,-110.8874,936.5,305.5,353.1,4.3,-1.2,9.03,36.31,1.938,393.8546],
    [13625,1537392175,53.564,-110.8875,933.9,302.9,353.7,3.5,-0.7,9.2,36.55,1.937,393.8546],
    [13626,1537392176,53.5647,-110.8876,931.8,300.8,352.3,4.9,-0.2,9.99,35.76,1.9362,393.0318],
    [13627,1537392177,53.5654,-110.8877,930.9,299.9,351.5,5.9,-0.5,9.38,36.13,1.9373,391.8702],
    [13628,1537392178,53.5661,-110.8878,930.7,299.7,351.2,6.6,-1.7,9.7,35.93,1.9371,393.3135],
    [13629,1537392179,53.5668,-110.8878,930.9,299.9,351.0,7.3,-1.2,9.17,36.05,1.9373,394.0368],
    [13630,1537392180,53.5675,-110.8879,930.4,301.0,351.4,7.0,-0.7,9.97,35.51,1.9373,393.1898],
    [13631,1537392181,53.5682,-110.888,929.9,303.6,352.4,6.6,-1.0,9.37,36.4,1.9374,393.2196],
    [13632,1537392182,53.5689,-110.888,930.8,310.1,353.2,6.1,-1.1,9.29,35.42,1.9363,392.0493],
    [13633,1537392183,53.5696,-110.8881,931.8,315.1,353.6,6.0,-0.6,10.05,35.42,1.9358,391.9678],
    [13634,1537392184,53.5703,-110.8881,932.0,318.4,353.6,6.2,-0.8,9.74,35.76,1.936,393.1312],
    [13635,1537392185,53.571,-110.8882,931.7,319.8,353.9,6.2,-0.6,10.05,35.08,1.9359,391.7422],
    [13636,1537392186,53.5717,-110.8882,932.2,321.5,353.9,6.1,-0.2,9.54,35.51,1.9367,392.4719],
    [13637,1537392187,53.5724,-110.8882,933.1,322.9,354.6,5.4,-0.7,10.22,35.21,1.9362,392.7967],
    [13638,1537392188,53.5731,-110.8883,933.5,320.7,354.8,5.3,-1.1,9.46,36.23,1.9371,392.1604],
    [13639,1537392189,53.5738,-110.8883,933.7,318.7,354.8,5.1,-0.6,9.11,35.93,1.9378,393.3397],
    [13640,1537392190,53.5745,-110.8883,934.0,318.0,354.7,4.8,-0.5,10.27,35.34,1.938,392.0038],
    [13641,1537392191,53.5752,-110.8884,934.2,318.1,354.9,4.2,0.2,9.24,35.56,1.9376,393.8741],
    [13642,1537392192,53.5759,-110.8884,934.1,320.1,355.1,3.7,0.3,9.02,35.63,1.9363,393.109],
    [13643,1537392193,53.5766,-110.8885,933.1,320.1,354.3,4.6,0.7,9.48,35.78,1.9343,393.0379],
    [13644,1537392194,53.5773,-110.8885,932.2,320.2,353.1,5.4,0.5,9.22,35.55,1.9338,392.4438],
    [13645,1537392195,53.578,-110.8886,932.6,320.6,353.0,5.5,0.0,9.1,35.43,1.9346,392.3478],
    [13646,1537392196,53.5787,-110.8886,933.9,320.9,353.1,5.3,-0.4,9.51,35.24,1.9353,392.5596],
    [13647,1537392197,53.5794,-110.8887,934.4,321.5,353.6,4.8,0.0,9.72,34.87,1.9341,393.7365],
    [13648,1537392198,53.5801,-110.8887,934.1,320.1,353.9,4.7,-0.1,9.22,34.97,1.9337,394.1047],
    [13649,1537392199,53.5808,-110.8888,934.2,320.2,353.9,5.0,0.3,9.6,35.36,1.9347,392.5086],
    [13650,1537392200,53.5815,-110.8888,934.6,321.7,354.2,4.9,-0.1,9.26,34.8,1.9362,393.7985],
    [13651,1537392201,53.5822,-110.8889,934.7,322.7,354.3,4.9,0.4,9.46,34.55,1.9352,393.7985],
    [13652,1537392202,53.5828,-110.8889,934.4,324.5,354.0,5.3,0.5,9.02,34.47,1.9339,389.3138],
    [13653,1537392203,53.5836,-110.889,933.3,323.3,354.8,4.1,0.3,9.1,34.53,1.9337,393.018],
    [13654,1537392204,53.5842,-110.889,932.2,322.5,355.1,3.7,0.4,10.41,34.0,1.9337,391.785],
    [13655,1537392205,53.5849,-110.8891,932.2,323.4,354.4,4.3,0.4,9.77,33.55,1.9345,392.1221],
    [13656,1537392206,53.5856,-110.8891,934.0,324.9,354.8,3.7,-0.3,9.77,33.86,1.9342,393.3282],
    [13657,1537392207,53.5863,-110.8892,935.4,327.4,354.6,3.8,0.2,9.4,33.9,1.9329,394.0211],
    [13658,1537392208,53.587,-110.8892,935.5,329.2,354.9,3.6,-0.8,9.12,33.88,1.9337,392.6433],
    [13659,1537392209,53.5877,-110.8893,934.7,327.8,354.7,4.0,-1.4,9.57,33.54,1.9351,392.8095],
    [13660,1537392210,53.5884,-110.8893,935.4,326.9,355.0,3.7,-1.4,9.53,33.96,1.9343,393.0553],
    [13661,1537392211,53.5891,-110.8894,936.1,327.4,354.8,3.6,-0.6,9.53,34.05,1.9338,392.3868],
    [13662,1537392212,53.5898,-110.8894,936.0,327.1,355.2,3.3,-0.3,9.5,33.19,1.9341,392.3868],
    [13663,1537392213,53.5904,-110.8895,935.8,325.8,354.1,4.6,-0.9,9.54,33.56,1.9329,392.8908],
    [13664,1537392214,53.5911,-110.8895,935.2,324.2,353.7,4.9,-0.7,9.48,33.44,1.9343,392.8908],
    [13665,1537392215,53.5918,-110.8896,934.4,323.4,353.5,4.9,-0.5,9.28,33.64,1.9336,392.5721],
    [13666,1537392216,53.5925,-110.8896,934.0,324.0,353.4,4.9,-0.5,9.33,33.62,1.9346,393.8868],
    [13667,1537392217,53.5932,-110.8897,933.9,323.9,353.6,4.7,-0.5,9.06,33.39,1.934,393.0671],
    [13668,1537392218,53.5939,-110.8898,934.0,324.0,353.7,4.6,-0.3,8.92,33.26,1.9335,393.979],
    [13669,1537392219,53.5946,-110.8898,934.5,325.6,353.9,4.2,-0.2,9.64,33.16,1.9347,393.6521],
    [13670,1537392220,53.5953,-110.8899,935.3,326.4,354.0,4.1,-0.3,8.92,33.3,1.9377,392.6145],
    [13671,1537392221,53.596,-110.8899,935.6,325.5,353.9,4.1,-1.8,9.86,33.19,1.942,392.661],
    [13672,1537392222,53.5967,-110.89,935.4,326.0,354.4,3.5,-2.0,9.37,34.2,1.9409,393.9451],
    [13673,1537392223,53.5974,-110.8901,935.0,327.4,353.9,3.9,-1.8,8.87,33.69,1.941,392.5338],
    [13674,1537392224,53.5981,-110.8901,935.2,329.2,353.9,4.1,-2.6,9.69,33.91,1.9386,392.6725],
    [13675,1537392225,53.5987,-110.8902,935.7,329.7,353.5,4.7,-2.5,9.68,34.5,1.9403,394.1861],
    [13676,1537392226,53.5995,-110.8903,935.7,329.7,354.5,3.4,-3.1,9.86,34.57,1.9386,394.1861],
    [13677,1537392227,53.6002,-110.8903,934.9,328.9,355.0,2.9,-2.9,9.66,35.14,1.9394,393.0147],
    [13678,1537392228,53.6009,-110.8904,934.3,324.6,354.6,3.4,-2.9,9.71,35.01,1.9397,393.06],
    [13679,1537392229,53.6016,-110.8905,934.5,324.2,354.6,3.3,-3.1,10.01,35.07,1.9391,392.3484],
    [13680,1537392230,53.6023,-110.8905,935.1,324.1,354.5,3.3,-3.2,9.32,36.3,1.9408,391.7511],
    [13681,1537392231,53.603,-110.8906,935.5,325.4,354.4,3.4,-3.4,9.15,35.9,1.9409,392.741],
    [13682,1537392232,53.6037,-110.8907,935.3,324.6,354.2,3.6,-3.4,9.39,36.28,1.9395,393.0962],
    [13683,1537392233,53.6044,-110.8907,934.8,323.8,353.7,4.2,-3.6,9.28,36.83,1.939,394.34],
    [13684,1537392234,53.6051,-110.8908,934.5,323.6,353.2,4.8,-3.3,9.39,36.67,1.9402,391.8832],
    [13685,1537392235,53.6058,-110.8909,934.4,322.8,353.3,4.5,-3.5,9.04,37.19,1.9389,393.015],
    [13686,1537392236,53.6064,-110.891,934.3,320.8,353.4,4.4,-3.6,9.29,37.61,1.9385,393.0691],
    [13687,1537392237,53.6071,-110.891,934.4,319.1,353.8,4.1,-3.9,10.06,36.33,1.938,393.0691],
    [13688,1537392238,53.6078,-110.8911,934.4,316.3,354.0,4.0,-3.9,9.35,37.6,1.9402,393.0129],
    [13689,1537392239,53.6085,-110.8912,934.5,315.6,354.1,3.8,-3.7,9.1,37.08,1.9383,393.6119],
    [13690,1537392240,53.6092,-110.8912,934.5,311.9,354.1,3.9,-3.7,8.88,37.4,1.9397,393.7344],
    [13691,1537392241,53.6099,-110.8913,934.5,309.1,354.1,3.8,-3.8,8.82,37.24,1.9391,393.6757],
    [13692,1537392242,53.6106,-110.8914,934.6,308.5,354.1,3.8,-3.8,8.82,37.32,1.9393,392.4553],
    [13693,1537392243,53.6112,-110.8914,934.7,310.6,354.2,3.6,-3.8,10.07,37.27,1.9403,392.9736],
    [13694,1537392244,53.6119,-110.8915,934.6,312.4,354.2,3.6,-3.6,9.01,38.0,1.939,392.7808],
    [13695,1537392245,53.6126,-110.8916,934.5,311.8,354.2,3.5,-3.8,8.64,37.69,1.9409,392.1197],
    [13696,1537392246,53.6133,-110.8917,934.2,310.0,354.0,3.6,-3.7,9.26,38.09,1.9416,392.64],
    [13697,1537392247,53.614,-110.8917,934.0,306.9,353.9,3.5,-3.8,9.5,37.86,1.9414,393.8072],
    [13698,1537392248,53.6147,-110.8918,933.6,305.3,354.0,3.5,-3.8,9.85,37.92,1.9387,392.161],
    [13699,1537392249,53.6153,-110.8919,933.2,305.2,353.4,4.2,-3.0,9.55,37.93,1.9398,393.5707],
    [13700,1537392250,53.616,-110.8919,933.0,306.7,353.9,3.6,-3.7,9.05,38.9,1.937,393.5919],
    [13701,1537392251,53.6167,-110.892,932.7,305.0,353.9,3.8,-3.2,8.76,38.13,1.9386,392.7162],
    [13702,1537392252,53.6174,-110.8921,932.3,303.3,353.6,4.2,-3.6,8.89,38.15,1.9376,392.9664],
    [13703,1537392253,53.6181,-110.8922,932.4,303.5,353.7,3.9,-3.1,9.24,38.41,1.9398,393.5011],
    [13704,1537392254,53.6188,-110.8922,933.2,305.2,354.5,2.8,-3.2,9.23,38.43,1.9405,392.3938],
    [13705,1537392255,53.6195,-110.8923,934.1,309.1,355.4,1.8,-3.1,9.08,38.14,1.94,393.0596],
    [13706,1537392256,53.6201,-110.8924,935.0,310.3,355.0,2.2,-2.9,10.09,37.98,1.9403,392.8713],
    [13707,1537392257,53.6208,-110.8924,935.4,310.1,354.2,3.0,-2.5,9.07,38.87,1.9403,393.3981],
    [13708,1537392258,53.6215,-110.8925,934.4,306.7,353.8,3.3,-2.5,9.26,38.93,1.9408,393.0234],
    [13709,1537392259,53.6222,-110.8926,933.0,304.6,353.3,3.8,-2.5,9.01,38.94,1.94,392.0389],
    [13710,1537392260,53.6228,-110.8927,932.0,303.9,353.1,4.0,-2.2,9.25,39.57,1.9388,392.8334],
    [13711,1537392261,53.6235,-110.8928,931.7,305.4,353.2,4.1,-2.5,9.27,39.63,1.9389,393.0292],
    [13712,1537392262,53.6242,-110.8928,931.6,309.3,353.7,3.9,-2.5,9.07,39.08,1.9401,392.9798],
    [13713,1537392263,53.6249,-110.8929,931.8,311.2,354.0,3.6,-2.0,9.0,38.99,1.9385,391.5385],
    [13714,1537392264,53.6255,-110.893,931.6,312.6,354.1,3.8,-2.3,9.84,38.59,1.9382,393.0544],
    [13715,1537392265,53.6262,-110.893,932.0,315.0,353.7,4.2,-2.2,9.51,39.25,1.9378,393.3443],
    [13716,1537392266,53.6269,-110.8931,932.5,317.7,353.6,4.4,-2.1,9.26,38.53,1.9388,391.9392],
    [13717,1537392267,53.6276,-110.8932,933.0,319.4,353.9,4.0,-1.8,9.15,38.53,1.9382,392.8018],
    [13718,1537392268,53.6283,-110.8932,933.2,319.7,354.0,3.8,-1.9,8.75,38.82,1.94,393.3454],
    [13719,1537392269,53.6289,-110.8933,933.6,320.8,354.0,3.8,-2.0,9.66,38.43,1.9393,391.5487],
    [13720,1537392270,53.6296,-110.8934,933.7,321.7,354.0,3.8,-2.0,9.18,39.18,1.9385,393.1823],
    [13721,1537392271,53.6303,-110.8934,933.7,323.7,353.9,3.8,-2.3,9.12,38.6,1.9404,393.5276],
    [13722,1537392272,53.631,-110.8935,933.7,324.6,353.8,4.0,-2.1,9.43,38.39,1.9391,393.0744],
    [13723,1537392273,53.6316,-110.8936,933.7,324.8,353.8,4.0,-2.0,9.23,39.32,1.9382,393.3757],
    [13724,1537392274,53.6323,-110.8936,933.6,324.3,353.6,4.1,-2.1,9.05,38.59,1.9388,390.8761],
    [13725,1537392275,53.633,-110.8937,933.2,323.2,353.8,3.8,-1.8,9.33,38.51,1.938,393.3977],
    [13726,1537392276,53.6337,-110.8938,932.9,321.9,354.2,3.4,-1.1,8.81,38.29,1.9367,391.7196],
    [13727,1537392277,53.6343,-110.8938,932.4,320.4,353.9,3.7,-0.9,9.1,38.29,1.9376,393.396],
    [13728,1537392278,53.635,-110.8939,932.1,319.2,353.8,3.9,-1.4,8.42,38.12,1.9377,393.396],
    [13729,1537392279,53.6357,-110.894,932.1,319.1,353.7,4.1,-2.2,9.17,38.12,1.9374,392.8891],
    [13730,1537392280,53.6364,-110.894,932.3,319.3,353.4,4.6,-2.1,9.15,38.1,1.9419,391.8474],
    [13731,1537392281,53.637,-110.8941,932.6,319.6,353.3,4.4,-1.5,8.54,37.99,1.9414,391.8474],
    [13732,1537392282,53.6377,-110.8942,932.7,319.7,353.6,4.0,-1.3,9.04,38.08,1.9388,392.9975],
    [13733,1537392283,53.6384,-110.8942,932.9,319.0,353.7,3.7,-0.9,9.16,38.29,1.9392,393.4284],
    [13734,1537392284,53.6391,-110.8943,932.9,317.9,353.6,3.8,-0.6,9.46,37.33,1.9414,392.2619],
    [13735,1537392285,53.6398,-110.8944,932.6,316.2,353.8,3.7,-1.5,8.63,38.02,1.9423,392.4011],
    [13736,1537392286,53.6404,-110.8945,932.6,315.6,353.8,3.5,-0.8,8.8,38.01,1.9428,392.9707],
    [13737,1537392287,53.6411,-110.8945,933.3,316.3,354.0,3.2,-0.3,9.29,37.85,1.944,392.9707],
    [13738,1537392288,53.6418,-110.8946,933.3,315.6,354.1,3.1,-0.8,8.96,38.08,1.9448,393.1484],
    [13739,1537392289,53.6425,-110.8947,932.9,313.8,353.9,3.3,-1.4,9.02,38.73,1.9486,393.1621],
    [13740,1537392290,53.6431,-110.8948,933.0,313.2,354.4,2.6,-1.3,9.82,37.75,1.9489,393.8096],
    [13741,1537392291,53.6438,-110.8948,933.0,314.0,354.2,2.9,-1.5,9.44,39.02,1.9478,393.7213],
    [13742,1537392292,53.6445,-110.8949,933.2,314.2,353.6,3.4,-1.3,8.6,38.79,1.945,393.6599],
    [13743,1537392293,53.6452,-110.895,933.2,313.1,353.4,3.5,-0.6,9.24,39.07,1.9432,392.3856],
    [13744,1537392294,53.6458,-110.8951,933.1,311.1,352.7,4.3,-1.0,9.27,38.64,1.9416,393.0029],
    [13745,1537392295,53.6465,-110.8951,933.2,307.8,352.8,4.3,-1.0,9.21,38.87,1.94,393.1586],
    [13746,1537392296,53.6472,-110.8952,933.0,304.0,353.1,4.0,-0.2,9.37,39.31,1.9386,393.0169],
    [13747,1537392297,53.6479,-110.8953,932.5,298.5,352.7,4.5,-1.0,9.16,38.91,1.9381,393.0636],
    [13748,1537392298,53.6485,-110.8954,932.4,294.6,352.5,4.8,-1.0,9.37,38.56,1.9361,391.1651],
    [13749,1537392299,53.6492,-110.8955,932.4,293.4,352.3,5.1,-1.2,9.62,38.06,1.9364,392.121],
    [13750,1537392300,53.6499,-110.8955,932.6,293.6,352.5,5.0,-1.2,9.37,37.93,1.9374,391.9501],
    [13751,1537392301,53.6506,-110.8956,932.9,296.1,353.1,4.5,-1.2,8.91,38.32,1.9372,390.4059],
    [13752,1537392302,53.6512,-110.8957,933.1,297.4,353.1,4.5,-1.4,9.12,38.2,1.9377,391.8596],
    [13753,1537392303,53.6519,-110.8958,933.3,298.6,353.4,4.2,-1.0,8.8,37.69,1.9379,392.2802],
    [13754,1537392304,53.6526,-110.8958,933.3,297.9,353.8,3.8,-0.7,9.11,37.88,1.9377,391.3155],
    [13755,1537392305,53.6533,-110.8959,933.0,297.4,353.9,3.9,-0.8,9.08,37.74,1.9374,393.0885],
    [13756,1537392306,53.6539,-110.896,932.6,295.5,353.7,4.0,-1.1,9.7,37.21,1.9383,392.604],
    [13757,1537392307,53.6546,-110.896,932.8,295.4,353.8,4.0,-1.1,9.03,37.49,1.9379,392.6135],
    [13758,1537392308,53.6553,-110.8961,932.8,294.5,353.6,4.3,-1.4,9.37,37.13,1.9378,392.6652],
    [13759,1537392309,53.656,-110.8962,932.9,295.0,353.5,4.3,-1.6,9.1,37.49,1.9399,392.1822],
    [13760,1537392310,53.6567,-110.8962,933.2,294.2,353.6,4.1,-1.4,9.12,37.46,1.9374,392.2518],
    [13761,1537392311,53.6573,-110.8963,933.5,293.5,353.6,4.3,-1.7,8.81,37.49,1.9379,393.5145],
    [13762,1537392312,53.658,-110.8964,933.7,293.7,353.7,4.1,-1.8,9.04,37.6,1.9388,392.0014],
    [13763,1537392313,53.6587,-110.8964,933.7,296.4,353.5,4.4,-1.5,8.8,37.58,1.9399,394.4904],
    [13764,1537392314,53.6594,-110.8965,933.3,296.4,353.2,4.6,-1.6,9.54,37.21,1.9381,393.2397],
    [13765,1537392315,53.66,-110.8966,933.0,292.1,353.1,4.8,-1.3,9.07,37.65,1.9393,392.8042],
    [13766,1537392316,53.6607,-110.8966,932.6,287.6,353.1,4.8,-1.2,9.17,38.17,1.9385,391.4313],
    [13767,1537392317,53.6614,-110.8967,932.2,284.8,353.4,4.8,-1.1,9.57,37.36,1.9382,392.8099],
    [13768,1537392318,53.6621,-110.8967,931.9,283.5,353.2,5.1,-1.2,9.1,38.05,1.9387,393.3439],
    [13769,1537392319,53.6627,-110.8968,931.9,283.8,353.3,5.1,-1.0,8.82,37.75,1.9402,391.9233],
    [13770,1537392320,53.6634,-110.8969,931.9,284.6,353.4,4.9,-1.2,8.92,37.88,1.9388,394.401],
    [13771,1537392321,53.6641,-110.8969,932.2,284.0,354.0,4.3,-1.1,8.74,37.76,1.9387,392.7996],
    [13772,1537392322,53.6648,-110.897,932.3,281.2,353.6,4.7,-0.7,8.84,37.85,1.938,394.0176],
    [13773,1537392323,53.6655,-110.897,932.5,280.5,353.3,5.1,-0.5,9.03,38.67,1.9398,392.8773],
    [13774,1537392324,53.6661,-110.8971,932.8,282.8,353.4,4.7,-0.3,8.84,37.93,1.9404,393.077],
    [13775,1537392325,53.6668,-110.8972,932.6,283.3,354.5,3.5,-0.9,9.65,37.35,1.9389,392.0642],
    [13776,1537392326,53.6675,-110.8972,932.4,284.8,354.4,3.7,-0.8,9.44,37.95,1.9412,392.2701],
    [13777,1537392327,53.6682,-110.8973,932.4,289.1,354.1,4.0,-0.6,8.61,38.31,1.9407,392.58],
    [13778,1537392328,53.6688,-110.8973,932.4,290.4,353.2,5.1,-0.1,9.19,37.95,1.9383,392.7525],
    [13779,1537392329,53.6695,-110.8974,932.4,292.3,353.0,5.3,-0.4,8.9,38.76,1.9388,392.4521],
    [13780,1537392330,53.6702,-110.8975,932.4,293.2,353.4,4.9,-0.1,9.07,38.25,1.9386,392.871],
    [13781,1537392331,53.6709,-110.8975,932.3,294.3,353.3,5.0,-0.2,8.96,37.95,1.9394,392.637],
    [13782,1537392332,53.6715,-110.8976,932.4,294.3,353.4,4.9,-0.3,8.92,38.37,1.939,393.1564],
    [13783,1537392333,53.6722,-110.8976,932.5,292.9,353.2,5.1,0.1,8.88,38.37,1.9411,392.6463],
    [13784,1537392334,53.6729,-110.8977,932.2,290.1,352.9,5.6,-0.3,8.72,38.73,1.9395,392.4014],
    [13785,1537392335,53.6736,-110.8977,932.1,287.4,353.2,5.3,-0.3,9.11,39.09,1.938,391.5245],
    [13786,1537392336,53.6743,-110.8978,932.1,283.4,353.1,5.5,0.0,9.12,38.53,1.9382,392.5115],
    [13787,1537392337,53.6749,-110.8979,932.1,281.8,353.3,5.3,0.0,9.78,37.87,1.9395,392.7755],
    [13788,1537392338,53.6756,-110.8979,932.0,278.7,353.5,5.2,0.3,9.38,38.36,1.9409,392.1215],
    [13789,1537392339,53.6763,-110.898,932.0,278.0,353.0,5.8,0.8,8.69,38.47,1.9397,392.3851],
    [13790,1537392340,53.677,-110.898,932.3,276.3,353.1,5.7,1.0,8.88,38.52,1.9398,392.6952],
    [13791,1537392341,53.6777,-110.8981,932.5,276.5,353.5,5.3,1.3,9.61,38.06,1.9395,392.7299],
    [13792,1537392342,53.6783,-110.8981,932.1,275.0,353.5,5.3,1.1,9.21,38.19,1.9399,392.1959],
    [13793,1537392343,53.679,-110.8981,931.6,271.2,354.0,4.8,1.0,9.25,38.35,1.9384,393.0279],
    [13794,1537392344,53.6797,-110.8982,931.4,268.4,354.1,4.8,0.7,9.07,39.42,1.9381,393.7594],
    [13795,1537392345,53.6804,-110.8982,931.4,264.4,353.8,5.1,0.2,8.95,39.03,1.9393,393.8318],
    [13796,1537392346,53.6811,-110.8983,931.6,263.7,353.9,4.9,0.0,9.15,38.55,1.9388,394.2229],
    [13797,1537392347,53.6817,-110.8983,931.6,262.4,354.5,4.0,0.0,9.45,38.07,1.9384,392.1149],
    [13798,1537392348,53.6824,-110.8984,931.9,261.5,354.5,3.9,0.4,9.17,38.52,1.9388,392.1924],
    [13799,1537392349,53.6831,-110.8984,932.8,261.6,353.9,4.6,1.2,9.12,39.24,1.9397,391.5897],
    [13800,1537392350,53.6838,-110.8985,933.5,263.8,353.6,4.8,1.3,9.23,38.12,1.9387,392.2743],
    [13801,1537392351,53.6844,-110.8985,933.3,264.8,353.7,4.7,1.4,8.43,38.52,1.9395,392.2743],
    [13802,1537392352,53.6851,-110.8986,932.8,265.3,353.5,4.9,1.4,9.36,38.49,1.9387,391.5578],
    [13803,1537392353,53.6858,-110.8987,932.7,267.0,353.7,4.6,1.5,8.41,38.62,1.9391,393.816],
    [13804,1537392354,53.6865,-110.8987,932.8,274.6,353.9,4.5,1.5,9.25,38.52,1.9393,393.816],
    [13805,1537392355,53.6872,-110.8988,932.9,280.9,353.8,4.4,0.8,9.47,38.48,1.9403,393.4408],
    [13806,1537392356,53.6879,-110.8988,933.2,287.2,354.1,4.3,-0.2,8.91,38.69,1.9389,393.8839],
    [13807,1537392357,53.6885,-110.8989,933.8,287.9,353.6,5.0,-0.5,8.56,38.67,1.9396,394.1064],
    [13808,1537392358,53.6892,-110.8989,934.0,286.2,352.3,6.4,0.6,9.02,38.6,1.9388,392.2311],
    [13809,1537392359,53.6899,-110.899,933.4,283.2,352.4,6.3,0.3,9.13,38.78,1.9395,390.3067],
    [13810,1537392360,53.6906,-110.899,933.1,283.2,352.2,6.6,0.7,9.38,37.98,1.9388,394.4239],
    [13811,1537392361,53.6913,-110.8991,933.3,285.0,352.5,6.4,0.7,9.13,38.39,1.9394,393.2355],
    [13812,1537392362,53.692,-110.8992,933.5,286.8,353.0,6.1,0.4,8.97,38.29,1.94,391.9511],
    [13813,1537392363,53.6927,-110.8992,933.2,286.3,353.6,5.8,0.3,8.39,38.36,1.9406,392.8819],
    [13814,1537392364,53.6934,-110.8992,932.9,285.9,353.5,6.2,0.1,9.03,38.87,1.9404,392.0632],
    [13815,1537392365,53.694,-110.8993,933.3,286.3,353.2,6.6,0.7,8.83,38.28,1.9377,391.4808],
    [13816,1537392366,53.6947,-110.8993,933.9,286.8,353.0,6.6,0.9,8.99,38.89,1.9385,391.4808],
    [13817,1537392367,53.6954,-110.8994,933.7,285.3,353.5,6.3,0.5,8.42,38.06,1.9405,392.3437],
    [13818,1537392368,53.6961,-110.8994,932.9,283.9,353.4,6.4,0.8,8.67,37.91,1.9399,392.3437],
    [13819,1537392369,53.6968,-110.8994,932.7,284.6,353.4,6.2,0.9,9.14,37.82,1.9398,392.0082],
    [13820,1537392370,53.6975,-110.8995,932.7,285.8,354.4,5.0,0.9,8.66,38.04,1.9407,394.2948],
    [13821,1537392371,53.6982,-110.8995,932.7,286.7,353.9,5.6,1.2,8.75,37.69,1.9423,393.5534],
    [13822,1537392372,53.6989,-110.8995,932.3,286.3,353.8,5.5,1.0,9.24,37.54,1.9391,388.8001],
    [13823,1537392373,53.6996,-110.8996,932.0,287.0,354.0,5.4,0.2,9.26,38.07,1.9391,391.6656],
    [13824,1537392374,53.7003,-110.8996,932.6,287.6,354.1,5.2,0.5,9.09,37.86,1.9401,392.5001],
    [13825,1537392375,53.7009,-110.8997,933.2,287.5,353.9,5.6,1.0,8.86,38.35,1.9399,392.2105],
    [13826,1537392376,53.7016,-110.8997,932.7,286.7,354.4,5.0,0.9,9.19,37.44,1.9385,393.5939],
    [13827,1537392377,53.7023,-110.8997,932.1,287.2,354.7,4.6,1.1,9.29,37.12,1.9384,391.6061],
    [13828,1537392378,53.703,-110.8998,931.9,287.9,354.4,4.7,1.8,8.89,37.35,1.9383,393.0948],
    [13829,1537392379,53.7037,-110.8998,932.4,290.3,354.2,4.6,2.0,9.09,38.15,1.9378,393.0948],
    [13830,1537392380,53.7044,-110.8999,933.5,292.5,354.8,3.7,3.3,8.97,37.56,1.9372,393.5411],
    [13831,1537392381,53.7051,-110.8999,933.9,292.9,355.2,3.5,3.8,8.89,37.25,1.9375,393.5411],
    [13832,1537392382,53.7058,-110.8999,933.3,291.9,353.8,5.6,2.6,9.91,37.25,1.9388,391.9839],
    [13833,1537392383,53.7065,-110.9,932.3,291.2,354.0,5.1,1.1,9.17,37.5,1.9383,393.4778],
    [13834,1537392384,53.7072,-110.9,931.5,289.9,355.8,2.8,1.6,8.92,37.52,1.9389,392.8141],
    [13835,1537392385,53.7079,-110.9001,931.5,285.5,355.8,2.5,1.8,9.1,37.18,1.9391,393.2906],
    [13836,1537392386,53.7086,-110.9001,931.6,282.9,355.6,2.6,1.1,8.61,37.52,1.9426,393.0023],
    [13837,1537392387,53.7092,-110.9002,931.5,279.8,354.6,4.0,0.4,8.99,37.6,1.943,392.1139],
    [13838,1537392388,53.71,-110.9002,932.7,280.7,354.5,3.4,-2.5,9.4,38.01,1.9428,393.6004],
    [13839,1537392389,53.7107,-110.9003,933.2,281.2,355.3,1.9,-2.3,8.59,37.72,1.9438,392.3955],
    [13840,1537392390,53.7114,-110.9004,934.0,282.0,355.0,1.9,-3.3,9.32,38.08,1.9439,393.32],
    [13841,1537392391,53.7121,-110.9005,934.3,283.3,354.7,2.0,-4.2,9.07,38.16,1.9429,393.3748],
    [13842,1537392392,53.7128,-110.9006,934.4,287.4,354.2,2.2,-3.8,9.31,37.78,1.9429,392.6799],
    [13843,1537392393,53.7135,-110.9007,934.5,289.0,354.0,2.2,-3.2,8.64,38.08,1.9427,393.4661],
    [13844,1537392394,53.7142,-110.9007,934.0,292.6,353.2,2.7,-2.0,9.29,38.64,1.9434,393.4661],
    [13845,1537392395,53.7149,-110.9009,933.0,294.4,353.0,2.6,-1.4,9.92,37.93,1.9442,392.6848],
    [13846,1537392396,53.7156,-110.901,932.7,299.2,352.5,2.8,-0.7,9.29,38.72,1.9434,393.9514],
    [13847,1537392397,53.7163,-110.9011,932.0,300.0,351.3,4.5,-0.9,9.05,38.46,1.9432,392.7875],
    [13848,1537392398,53.717,-110.9012,932.0,302.0,351.8,4.1,-1.8,10.09,38.02,1.9427,393.1264],
    [13849,1537392399,53.7177,-110.9013,932.2,303.2,352.7,4.0,-2.0,9.5,38.24,1.943,391.821],
    [13850,1537392400,53.7184,-110.9014,931.8,304.0,352.0,5.0,-1.2,9.35,38.75,1.9436,392.4266],
    [13851,1537392401,53.7191,-110.9015,931.8,305.4,353.1,4.1,-1.7,8.99,38.62,1.943,393.2803],
    [13852,1537392402,53.7198,-110.9016,932.1,306.2,353.6,3.7,-1.4,9.48,38.58,1.9435,393.5598],
    [13853,1537392403,53.7205,-110.9016,932.1,307.1,354.1,3.5,-1.2,9.25,39.78,1.9455,394.4549],
    [13854,1537392404,53.7212,-110.9017,931.7,307.7,353.8,4.0,-1.3,9.37,39.12,1.9427,394.4549],
    [13855,1537392405,53.7219,-110.9018,931.3,308.5,353.7,4.3,-1.9,9.27,38.89,1.9417,393.6703],
    [13856,1537392406,53.7226,-110.9018,931.1,310.8,353.6,4.5,-1.8,9.41,38.85,1.9408,392.5252],
    [13857,1537392407,53.7233,-110.9019,930.8,311.0,353.6,4.6,-1.6,8.7,39.09,1.9418,392.865],
    [13858,1537392408,53.724,-110.902,930.9,311.9,353.4,4.9,-1.8,8.75,38.83,1.9445,392.2018],
    [13859,1537392409,53.7247,-110.902,931.4,312.4,353.5,4.8,-1.7,9.2,38.73,1.9437,392.9293],
    [13860,1537392410,53.7254,-110.9021,931.2,312.2,354.1,4.3,-1.2,8.63,38.82,1.9432,393.2182],
    [13861,1537392411,53.7261,-110.9021,930.9,311.2,354.2,4.4,-0.8,9.16,38.74,1.9429,393.0276],
    [13862,1537392412,53.7268,-110.9022,931.5,311.5,353.9,4.7,-0.5,9.03,38.72,1.9424,392.5397],
    [13863,1537392413,53.7275,-110.9023,932.0,312.0,354.2,4.6,-0.8,8.82,38.76,1.9428,392.529],
    [13864,1537392414,53.7281,-110.9023,931.7,313.0,353.7,5.1,-1.5,8.82,38.73,1.9441,392.7181],
    [13865,1537392415,53.7288,-110.9024,931.1,313.1,354.5,4.3,-1.3,9.42,38.49,1.9445,392.9602],
    [13866,1537392416,53.7295,-110.9024,931.6,313.6,354.4,4.5,-2.2,8.98,38.72,1.9456,393.352],
    [13867,1537392417,53.7302,-110.9025,933.0,315.0,354.9,3.8,-0.1,8.66,38.64,1.9475,392.5789],
    [13868,1537392418,53.7309,-110.9025,933.4,315.4,355.4,3.6,-0.4,9.31,38.9,1.9485,392.21],
    [13869,1537392419,53.7316,-110.9025,933.3,315.3,354.4,4.7,-1.5,8.86,38.59,1.9472,392.21],
    [13870,1537392420,53.7323,-110.9026,934.0,314.6,354.7,4.5,-3.0,9.15,39.01,1.9431,393.1755],
    [13871,1537392421,53.7329,-110.9026,934.0,313.7,353.7,5.5,-2.5,9.36,39.06,1.9429,393.1123],
    [13872,1537392422,53.7336,-110.9027,933.7,312.0,353.8,5.0,-2.0,9.64,38.08,1.9411,392.5119],
    [13873,1537392423,53.7343,-110.9027,933.2,310.3,353.7,5.0,-1.5,9.31,38.65,1.9416,392.3084],
    [13874,1537392424,53.735,-110.9028,933.0,309.0,353.8,4.8,-1.3,9.29,38.85,1.944,392.4368],
    [13875,1537392425,53.7357,-110.9028,932.6,307.6,353.8,4.9,-1.3,9.43,38.16,1.9405,394.429],
    [13876,1537392426,53.7363,-110.9029,932.0,307.0,353.9,4.8,-1.2,9.6,38.06,1.9413,394.3027],
    [13877,1537392427,53.737,-110.9029,931.4,306.4,353.9,4.7,-0.8,9.15,38.08,1.9414,394.4215],
    [13878,1537392428,53.7377,-110.903,931.0,306.0,353.6,5.0,-0.6,9.23,37.89,1.941,392.4333],
    [13879,1537392429,53.7384,-110.903,930.8,305.8,353.4,5.2,-0.1,8.97,37.9,1.9436,393.1541],
    [13880,1537392430,53.7391,-110.9031,930.9,305.9,353.5,5.2,-0.9,9.42,37.87,1.9421,390.9777],
    [13881,1537392431,53.7397,-110.9031,931.1,305.0,353.2,5.6,-1.4,8.75,38.11,1.9416,392.9571],
    [13882,1537392432,53.7404,-110.9032,931.9,305.9,353.8,5.2,-2.2,9.12,37.6,1.9411,393.4091],
    [13883,1537392433,53.7411,-110.9032,933.2,307.2,354.2,4.7,-2.3,9.8,37.27,1.9422,392.5397],
    [13884,1537392434,53.7417,-110.9033,933.9,307.9,354.8,4.3,-2.2,9.29,38.54,1.9423,393.9863],
    [13885,1537392435,53.7424,-110.9033,934.2,308.2,354.8,4.2,-2.2,9.14,37.65,1.9414,394.0997],
    [13886,1537392436,53.7431,-110.9034,934.2,309.0,355.2,3.7,-1.7,8.96,37.53,1.9423,392.9639],
    [13887,1537392437,53.7438,-110.9034,934.0,308.7,355.1,3.8,-1.6,9.12,37.37,1.9427,393.7612],
    [13888,1537392438,53.7444,-110.9035,934.0,308.7,355.1,3.7,-1.5,9.12,37.36,1.943,393.3055],
    [13889,1537392439,53.7451,-110.9035,933.4,308.5,354.5,4.4,-2.0,9.15,37.26,1.9433,394.9956],
    [13890,1537392440,53.7458,-110.9035,932.3,308.2,354.0,4.6,-2.0,8.87,37.27,1.9435,393.4967],
    [13891,1537392441,53.7464,-110.9036,932.1,309.3,354.2,4.1,-2.0,9.25,37.67,1.9435,393.8315],
    [13892,1537392442,53.7471,-110.9037,932.4,311.1,353.9,4.3,-1.3,9.1,37.25,1.9439,393.8169],
    [13893,1537392443,53.7478,-110.9037,933.1,311.4,354.2,3.7,-1.8,8.93,37.38,1.9453,393.7153],
    [13894,1537392444,53.7485,-110.9038,933.5,311.0,354.8,2.8,-2.1,8.54,37.33,1.9448,393.1194],
    [13895,1537392445,53.7491,-110.9038,932.1,308.3,354.6,3.3,-1.5,9.86,36.69,1.9447,393.2767],
    [13896,1537392446,53.7498,-110.9039,930.2,305.1,353.9,3.8,-1.5,9.39,37.36,1.9443,393.2749],
    [13897,1537392447,53.7505,-110.904,929.1,303.2,354.1,3.4,-1.8,9.36,38.0,1.9469,393.2749],
    [13898,1537392448,53.7512,-110.904,929.1,302.8,353.8,3.7,-2.1,9.93,36.95,1.9452,394.268],
    [13899,1537392449,53.7518,-110.9041,929.9,304.4,353.1,4.6,-0.5,9.29,37.05,1.9465,393.5584],
    [13900,1537392450,53.7525,-110.9042,929.7,307.1,353.7,4.1,-1.2,9.08,37.43,1.9457,393.5436],
    [13901,1537392451,53.7532,-110.9042,928.6,308.6,354.4,3.6,-1.3,9.54,36.97,1.9427,392.2795],
    [13902,1537392452,53.7539,-110.9043,927.7,309.5,355.6,2.5,-1.2,8.74,37.56,1.9433,393.5049],
    [13903,1537392453,53.7545,-110.9043,927.7,312.6,355.8,2.3,-1.0,9.32,37.47,1.9436,395.0113],
    [13904,1537392454,53.7552,-110.9044,927.8,314.6,355.6,2.5,-0.4,8.82,38.04,1.9448,393.4333],
    [13905,1537392455,53.7559,-110.9044,928.2,316.2,354.3,3.6,-0.6,8.89,37.61,1.9448,392.0107],
    [13906,1537392456,53.7565,-110.9045,928.6,316.6,353.8,3.9,-0.5,9.2,38.22,1.9421,392.8002],
    [13907,1537392457,53.7572,-110.9046,928.3,316.3,353.7,4.0,-1.0,9.16,37.75,1.942,393.2638],
    [13908,1537392458,53.7578,-110.9046,928.7,315.7,353.9,3.9,-2.9,9.49,37.04,1.9432,393.4773],
    [13909,1537392459,53.7585,-110.9047,931.0,318.0,353.9,4.1,-1.9,8.84,37.41,1.9444,393.668],
    [13910,1537392460,53.7592,-110.9048,932.6,319.6,354.7,3.3,-2.3,9.5,37.14,1.9445,392.5432],
    [13911,1537392461,53.7598,-110.9048,933.1,320.1,354.8,3.5,-1.9,9.38,36.94,1.9446,392.2315],
    [13912,1537392462,53.7605,-110.9049,934.9,321.6,354.4,3.5,-2.3,9.09,37.93,1.9449,392.9639],
    [13913,1537392463,53.7611,-110.9049,937.2,319.8,355.9,2.0,-4.1,9.13,37.32,1.945,392.9403],
    [13914,1537392464,53.7617,-110.905,939.2,318.9,355.0,3.4,-3.8,9.06,37.85,1.9466,393.7418],
    [13915,1537392465,53.7624,-110.905,941.0,315.4,354.5,3.7,-2.5,9.37,37.39,1.9472,393.9931],
    [13916,1537392466,53.7631,-110.9051,940.9,311.3,354.6,3.9,-2.3,8.96,37.78,1.9443,393.9931],
    [13917,1537392467,53.7637,-110.9051,939.0,307.8,353.7,4.9,-2.4,9.32,37.56,1.9451,393.8755],
    [13918,1537392468,53.7644,-110.9052,937.0,303.9,354.5,3.8,-1.7,8.72,37.66,1.9463,392.7463],
    [13919,1537392469,53.7651,-110.9052,935.6,301.0,355.0,3.4,0.3,9.02,37.89,1.9457,392.7463],
    [13920,1537392470,53.7657,-110.9053,933.8,298.1,354.6,4.0,-0.4,8.88,37.52,1.9432,393.5431],
    [13921,1537392471,53.7664,-110.9053,931.7,299.1,355.0,3.5,-0.1,9.07,38.54,1.9443,393.8563],
    [13922,1537392472,53.767,-110.9054,930.9,300.9,354.0,4.4,0.4,9.28,37.48,1.9462,393.5715],
    [13923,1537392473,53.7677,-110.9054,930.9,303.5,354.7,3.4,-0.6,8.88,37.72,1.945,393.5715],
    [13924,1537392474,53.7684,-110.9055,930.4,308.0,354.0,4.5,-1.3,9.17,37.81,1.9457,393.0303],
    [13925,1537392475,53.7691,-110.9055,929.6,310.0,353.9,4.3,-2.5,9.09,38.11,1.9449,394.5168],
    [13926,1537392476,53.7697,-110.9056,929.1,313.2,354.3,3.7,-1.9,9.26,38.22,1.9451,393.0957],
    [13927,1537392477,53.7704,-110.9057,929.4,315.3,353.9,4.0,-2.3,9.13,38.18,1.9426,393.0957],
    [13928,1537392478,53.7711,-110.9057,929.8,316.7,354.2,3.6,-2.7,9.08,37.94,1.9419,393.1433],
    [13929,1537392479,53.7717,-110.9058,930.0,316.9,353.9,4.1,-2.6,9.08,38.19,1.9419,393.4028],
    [13930,1537392480,53.7724,-110.9058,930.1,316.0,353.2,4.7,-2.3,9.01,37.31,1.9419,393.9226],
    [13931,1537392481,53.7731,-110.9059,930.0,312.5,353.6,4.3,-1.8,9.2,36.98,1.9423,392.4242],
    [13932,1537392482,53.7737,-110.906,929.8,310.8,353.4,4.2,-0.8,9.78,36.53,1.9421,393.2032],
    [13933,1537392483,53.7744,-110.906,930.3,309.5,354.7,2.9,-1.1,8.58,36.87,1.9433,394.4744],
    [13934,1537392484,53.7751,-110.9061,931.7,309.7,355.2,2.3,-0.8,9.01,37.19,1.9432,394.2274],
    [13935,1537392485,53.7757,-110.9062,932.8,310.8,354.9,2.7,0.0,9.15,36.75,1.9436,392.799],
    [13936,1537392486,53.7764,-110.9062,932.3,310.3,353.9,3.5,-0.2,9.2,37.23,1.9444,393.5867],
    [13937,1537392487,53.7771,-110.9063,931.6,311.6,354.2,2.9,-0.6,9.13,37.69,1.9447,394.3156],
    [13938,1537392488,53.7777,-110.9064,931.2,311.2,354.1,3.1,-0.1,9.2,37.12,1.9446,392.8043],
    [13939,1537392489,53.7784,-110.9064,930.2,309.2,353.7,3.5,-1.2,9.29,37.35,1.9447,394.855],
    [13940,1537392490,53.7791,-110.9065,929.8,307.7,353.7,3.8,-1.1,9.33,36.71,1.9455,394.855],
    [13941,1537392491,53.7797,-110.9066,930.1,307.1,353.5,4.1,-0.7,9.04,37.0,1.9459,394.5184],
    [13942,1537392492,53.7804,-110.9066,930.4,308.4,354.1,3.6,-1.3,8.55,37.2,1.9428,394.0616],
    [13943,1537392493,53.7811,-110.9067,930.4,310.0,354.9,2.9,-1.7,8.76,37.16,1.9425,393.0576],
    [13944,1537392494,53.7817,-110.9068,930.2,313.9,355.3,2.6,-1.5,9.28,36.97,1.9414,393.0576],
    [13945,1537392495,53.7824,-110.9068,930.4,317.9,354.7,3.2,-1.2,8.78,37.47,1.9411,393.1119],
    [13946,1537392496,53.7831,-110.9069,930.9,325.4,354.5,3.1,-1.1,8.82,37.0,1.9415,394.3818],
    [13947,1537392497,53.7837,-110.9069,931.0,329.0,354.3,3.2,-0.9,8.8,36.89,1.9412,393.3539],
    [13948,1537392498,53.7844,-110.907,930.9,331.6,353.9,3.6,-0.9,9.14,37.04,1.941,394.5179],
    [13949,1537392499,53.7851,-110.9071,930.4,331.7,353.6,3.9,-1.4,9.18,36.77,1.9417,393.1873],
    [13950,1537392500,53.7857,-110.9071,930.1,329.7,353.8,3.7,-1.5,9.14,36.68,1.9428,394.0762],
    [13951,1537392501,53.7864,-110.9072,929.9,326.9,353.9,3.7,-1.2,9.14,36.63,1.9435,393.1031],
    [13952,1537392502,53.787,-110.9073,930.2,321.6,354.0,3.5,-0.5,9.31,36.05,1.9432,394.0586],
    [13953,1537392503,53.7877,-110.9073,931.6,318.7,353.7,3.9,-0.6,8.98,36.39,1.9443,394.4562],
    [13954,1537392504,53.7884,-110.9074,933.1,316.3,353.3,4.4,-1.0,8.88,36.4,1.9455,392.3559],
    [13955,1537392505,53.789,-110.9075,933.3,315.2,353.8,3.7,0.1,9.34,36.95,1.9467,391.6326],
    [13956,1537392506,53.7897,-110.9075,932.9,312.8,354.6,2.8,1.1,9.1,36.73,1.946,393.4537],
    [13957,1537392507,53.7904,-110.9076,932.0,306.7,354.5,3.0,0.7,9.92,36.54,1.9453,394.0543],
    [13958,1537392508,53.791,-110.9077,931.5,303.6,354.4,3.5,-1.2,9.07,37.33,1.9454,394.4315],
    [13959,1537392509,53.7917,-110.9077,932.1,301.2,354.2,3.4,-1.0,8.69,36.94,1.9464,394.0432],
    [13960,1537392510,53.7924,-110.9078,933.1,303.1,354.2,3.6,-0.7,9.12,37.13,1.9456,393.4125],
    [13961,1537392511,53.793,-110.9078,934.0,306.0,353.0,4.8,-0.3,9.15,37.79,1.9447,393.126],
    [13962,1537392512,53.7937,-110.9079,934.2,311.2,353.2,4.6,-0.7,8.74,37.27,1.9446,393.284],
    [13963,1537392513,53.7944,-110.908,933.7,314.3,352.7,5.1,0.6,8.97,37.39,1.945,394.0771],
    [13964,1537392514,53.7951,-110.908,933.4,317.1,353.3,4.6,0.6,8.81,37.32,1.9455,394.0339],
    [13965,1537392515,53.7957,-110.9081,932.1,316.1,353.7,4.3,-1.4,9.69,36.65,1.9449,393.4305],
    [13966,1537392516,53.7964,-110.9082,930.6,314.7,354.7,3.2,-0.7,9.43,36.65,1.9448,393.9452],
    [13967,1537392517,53.7971,-110.9082,930.1,314.1,354.6,3.2,-0.1,9.13,37.03,1.9455,393.0369],
    [13968,1537392518,53.7978,-110.9083,929.5,310.9,355.7,2.1,-0.5,9.18,36.72,1.9565,394.0169],
    [13969,1537392519,53.7984,-110.9083,929.5,309.5,354.7,3.5,-1.0,9.77,36.34,1.9559,394.0169],
    [13970,1537392520,53.7992,-110.9084,930.8,308.7,354.9,2.3,-1.0,8.92,36.54,1.9665,392.9988],
    [13971,1537392521,53.7998,-110.9085,932.6,307.5,355.2,1.9,-1.9,9.56,35.79,1.9743,394.3403],
    [13972,1537392522,53.8005,-110.9086,933.4,307.1,353.6,3.9,-2.4,9.66,35.8,1.9723,393.1144],
    [13973,1537392523,53.8012,-110.9086,932.6,305.6,352.7,4.9,-1.5,9.12,37.0,1.9746,392.2744],
    [13974,1537392524,53.8019,-110.9087,930.9,302.3,353.1,4.4,-1.9,9.12,36.63,1.9589,392.521],
    [13975,1537392525,53.8026,-110.9088,929.7,295.3,353.6,3.6,-0.8,8.97,36.15,1.9499,393.9435],
    [13976,1537392526,53.8033,-110.9089,929.2,290.8,353.9,3.0,-0.7,8.94,36.31,1.9484,394.9757],
    [13977,1537392527,53.804,-110.9089,929.8,289.8,354.0,3.0,-0.4,9.15,36.41,1.9473,396.4443],
    [13978,1537392528,53.8047,-110.909,930.2,289.5,353.9,3.0,-1.4,9.17,37.02,1.9494,394.475],
    [13979,1537392529,53.8053,-110.9091,930.1,289.4,353.6,3.3,0.3,9.15,36.67,1.9485,393.1399],
    [13980,1537392530,53.806,-110.9092,930.3,289.2,353.5,3.5,-0.2,9.5,36.59,1.9492,394.694],
    [13981,1537392531,53.8067,-110.9093,930.0,284.8,354.1,2.5,0.0,9.88,36.42,1.9488,394.7638],
    [13982,1537392532,53.8074,-110.9094,929.8,281.1,354.2,2.2,0.6,9.15,37.04,1.9472,394.7638],
    [13983,1537392533,53.8081,-110.9094,928.9,276.2,353.2,3.2,0.7,9.24,36.92,1.9493,394.5926],
    [13984,1537392534,53.8088,-110.9095,927.8,273.8,353.4,2.9,0.0,9.72,36.98,1.9497,394.4514],
    [13985,1537392535,53.8095,-110.9096,927.7,268.7,353.3,3.1,-0.3,9.66,37.12,1.9503,394.4514],
    [13986,1537392536,53.8102,-110.9097,928.3,267.4,353.5,2.9,-0.2,9.4,37.97,1.9503,396.4727],
    [13987,1537392537,53.8109,-110.9098,928.8,265.8,353.4,3.0,-0.2,8.86,37.68,1.9515,393.4554],
    [13988,1537392538,53.8116,-110.9099,929.2,265.1,353.8,2.7,0.1,9.15,37.97,1.9504,394.8322],
    [13989,1537392539,53.8122,-110.91,929.3,266.3,353.3,3.6,0.0,8.92,37.96,1.949,393.9046],
    [13990,1537392540,53.8129,-110.9101,929.5,267.5,353.7,3.0,0.2,9.19,38.52,1.9483,394.927],
    [13991,1537392541,53.8136,-110.9101,929.9,269.0,354.1,2.7,1.4,9.04,38.32,1.9478,393.0944],
    [13992,1537392542,53.8143,-110.9102,931.1,270.6,354.2,2.3,1.6,9.47,38.06,1.9477,394.564],
    [13993,1537392543,53.815,-110.9103,931.8,272.1,354.6,1.9,1.0,9.2,38.45,1.9476,394.934],
    [13994,1537392544,53.8157,-110.9104,932.1,274.2,354.0,2.4,0.0,9.32,38.4,1.9476,394.5406],
    [13995,1537392545,53.8164,-110.9105,932.3,275.3,353.5,3.0,0.3,9.36,38.41,1.9474,393.9935],
    [13996,1537392546,53.8171,-110.9106,932.0,276.0,353.0,3.2,0.7,9.04,38.6,1.9476,393.8203],
    [13997,1537392547,53.8177,-110.9106,931.6,276.8,353.7,2.3,1.1,9.05,38.48,1.9472,393.1096],
    [13998,1537392548,53.8184,-110.9107,931.9,279.5,353.7,2.8,0.4,9.3,39.1,1.9477,393.207],
    [13999,1537392549,53.8191,-110.9108,933.0,282.2,352.9,4.2,-1.7,9.15,38.62,1.9486,394.1209],
    [14000,1537392550,53.8198,-110.9109,934.4,287.0,353.7,3.2,-2.9,8.94,39.04,1.9469,394.1243],
    [14001,1537392551,53.8205,-110.911,935.5,290.5,355.4,1.4,-1.9,8.79,38.69,1.9439,394.6146],
    [14002,1537392552,53.8212,-110.9111,935.0,294.1,354.3,3.4,-1.6,9.27,38.94,1.9432,393.443],
    [14003,1537392553,53.8219,-110.9111,934.1,294.0,354.7,3.1,-1.8,9.3,39.02,1.9431,393.1889],
    [14004,1537392554,53.8226,-110.9112,934.3,296.2,355.2,2.9,-1.7,9.65,37.82,1.9437,392.6572],
    [14005,1537392555,53.8233,-110.9112,934.4,297.4,355.0,3.3,-1.8,9.76,37.16,1.9432,392.9506],
    [14006,1537392556,53.824,-110.9113,933.3,297.3,355.0,3.1,-0.8,8.83,37.31,1.9434,393.2322],
    [14007,1537392557,53.8247,-110.9114,931.8,296.8,355.1,2.7,-1.6,9.65,36.99,1.9432,393.8952],
    [14008,1537392558,53.8255,-110.9114,930.8,297.1,355.2,2.2,-2.4,9.28,36.85,1.9438,393.3507],
    [14009,1537392559,53.8262,-110.9115,930.5,298.8,354.7,2.5,-2.9,9.4,36.58,1.9445,393.9483],
    [14010,1537392560,53.8269,-110.9116,930.9,300.8,354.4,2.6,-3.2,9.14,36.62,1.9461,393.7793],
    [14011,1537392561,53.8276,-110.9117,931.4,304.2,353.2,4.0,-2.6,10.01,36.31,1.9459,394.545],
    [14012,1537392562,53.8283,-110.9117,931.1,305.2,353.0,4.2,-2.4,9.94,36.46,1.9452,393.5495],
    [14013,1537392563,53.829,-110.9118,930.7,305.8,353.8,3.1,-2.9,9.27,36.87,1.9441,394.3823],
    [14014,1537392564,53.8297,-110.9119,930.3,306.6,354.4,2.5,-2.3,9.35,36.43,1.9438,393.471],
    [14015,1537392565,53.8304,-110.912,930.4,309.4,354.4,2.7,-2.4,9.46,36.29,1.9462,394.328],
    [14016,1537392566,53.8311,-110.9121,930.9,312.6,354.5,2.6,-2.8,8.88,36.88,1.9468,394.4858],
    [14017,1537392567,53.8318,-110.9122,931.4,316.1,354.8,2.3,-2.0,9.2,36.66,1.9482,393.6444],
    [14018,1537392568,53.8325,-110.9122,931.1,317.4,354.4,2.9,-2.0,9.8,36.86,1.9477,393.4805],
    [14019,1537392569,53.8331,-110.9123,930.6,320.9,354.6,2.5,-2.1,9.33,36.9,1.9466,394.8829],
    [14020,1537392570,53.8338,-110.9124,930.7,323.7,355.1,2.0,-1.7,9.34,36.64,1.9466,394.3138],
    [14021,1537392571,53.8345,-110.9124,930.7,325.7,354.3,2.9,-1.3,8.84,36.97,1.9487,393.1525],
    [14022,1537392572,53.8352,-110.9125,930.5,326.5,354.2,3.1,-1.4,8.73,36.89,1.9468,394.1367],
    [14023,1537392573,53.8359,-110.9126,930.6,327.3,354.0,3.4,-1.9,9.56,36.61,1.9461,393.3202],
    [14024,1537392574,53.8366,-110.9127,931.0,328.6,354.2,3.3,-2.0,9.95,36.61,1.9474,394.7161],
    [14025,1537392575,53.8373,-110.9127,931.7,330.9,354.0,3.3,-1.5,8.95,37.29,1.9437,393.595],
    [14026,1537392576,53.838,-110.9128,932.1,331.1,354.2,3.0,-1.1,10.0,36.7,1.9467,393.595],
    [14027,1537392577,53.8387,-110.9129,931.4,329.4,353.8,3.3,-1.4,9.76,36.53,1.9468,394.2697],
    [14028,1537392578,53.8394,-110.913,930.9,326.9,353.7,3.2,-1.9,9.22,37.41,1.9473,394.1922],
    [14029,1537392579,53.84,-110.9131,930.4,324.5,353.7,3.3,-1.5,9.42,37.23,1.9463,393.502],
    [14030,1537392580,53.8407,-110.9131,930.5,323.2,353.2,3.9,-1.0,9.15,37.43,1.9465,394.8417],
    [14031,1537392581,53.8414,-110.9132,930.9,322.7,354.0,3.2,-1.8,9.53,36.73,1.9472,393.9373],
    [14032,1537392582,53.8421,-110.9133,931.3,322.2,354.3,3.1,-1.7,9.31,37.49,1.9469,393.8317],
    [14033,1537392583,53.8428,-110.9134,932.0,323.7,354.7,2.9,-1.6,9.85,37.12,1.9465,394.0087],
    [14034,1537392584,53.8435,-110.9134,932.2,324.2,354.5,3.4,-1.7,9.26,37.64,1.9419,393.8255],
    [14035,1537392585,53.8442,-110.9135,931.7,323.7,354.1,3.8,-1.7,9.25,37.16,1.9427,394.3248],
    [14036,1537392586,53.8449,-110.9135,931.6,323.6,354.4,3.5,-1.6,9.24,37.42,1.9416,394.0945],
    [14037,1537392587,53.8455,-110.9136,931.9,324.6,354.5,3.6,-1.4,9.63,36.43,1.942,393.5658],
    [14038,1537392588,53.8462,-110.9137,932.1,325.1,354.4,3.6,-1.5,9.33,36.52,1.9417,394.1204],
    [14039,1537392589,53.8469,-110.9137,931.8,324.7,354.6,3.5,-1.1,8.88,35.84,1.9419,394.357],
    [14040,1537392590,53.8476,-110.9138,931.6,326.2,354.5,3.6,-1.3,8.82,35.74,1.9378,393.1099],
    [14041,1537392591,53.8483,-110.9138,931.4,328.5,354.8,3.2,-1.6,9.85,34.53,1.9356,393.0319],
    [14042,1537392592,53.8489,-110.9139,931.3,331.4,354.7,3.4,-1.5,9.39,34.97,1.9359,392.8245],
    [14043,1537392593,53.8496,-110.914,931.5,333.5,355.0,3.0,-1.7,9.76,33.62,1.9387,394.6005],
    [14044,1537392594,53.8503,-110.914,931.6,336.6,354.9,3.3,-2.3,9.55,33.87,1.9403,394.2691],
    [14045,1537392595,53.851,-110.9141,931.9,337.9,354.7,3.4,-2.3,9.16,33.83,1.9406,394.8055],
    [14046,1537392596,53.8517,-110.9141,931.8,337.6,354.9,3.1,-1.8,8.91,33.77,1.9407,394.6377],
    [14047,1537392597,53.8524,-110.9142,931.6,336.7,354.5,3.5,-1.6,9.13,33.2,1.9421,393.1278],
    [14048,1537392598,53.853,-110.9143,931.7,336.7,354.2,3.8,-1.7,9.11,33.28,1.9419,392.7454],
    [14049,1537392599,53.8537,-110.9143,932.1,338.1,354.1,3.6,-1.6,9.38,32.8,1.9413,394.7535],
    [14050,1537392600,53.8544,-110.9144,932.2,339.9,354.9,2.7,-2.7,9.27,33.75,1.9395,393.3903],
    [14051,1537392601,53.8551,-110.9144,932.3,344.5,354.9,2.8,-1.8,9.8,32.53,1.944,393.0477],
    [14052,1537392602,53.8558,-110.9145,932.7,349.3,354.9,2.8,-2.5,9.01,33.34,1.9436,393.131],
    [14053,1537392603,53.8564,-110.9146,933.4,358.4,355.5,2.2,-2.8,9.31,33.5,1.9402,393.5069],
    [14054,1537392604,53.8571,-110.9146,933.9,364.9,354.5,3.4,-2.1,9.17,33.4,1.9375,392.4402],
    [14055,1537392605,53.8578,-110.9147,933.1,372.1,354.5,3.1,-2.1,9.46,32.67,1.9347,393.5316],
    [14056,1537392606,53.8585,-110.9148,931.7,377.8,354.7,2.8,-1.7,8.65,32.86,1.9334,393.5316],
    [14057,1537392607,53.8592,-110.9148,931.0,388.1,354.2,3.1,-2.2,8.67,32.28,1.9392,392.9393],
    [14058,1537392608,53.8598,-110.9149,930.9,396.8,354.2,2.9,-1.6,9.39,31.96,1.9391,393.8802],
    [14059,1537392609,53.8605,-110.915,930.2,402.3,354.4,2.8,-1.5,9.18,31.55,1.9366,393.6926],
    [14060,1537392610,53.8612,-110.9151,929.9,405.0,354.6,2.7,-1.4,8.98,32.03,1.9366,393.4964],
    [14061,1537392611,53.8619,-110.9151,930.5,404.6,354.9,2.6,-2.0,8.96,31.4,1.9455,394.8284],
    [14062,1537392612,53.8626,-110.9152,932.1,404.1,354.9,2.8,-2.4,9.28,31.47,1.9441,393.4021],
    [14063,1537392613,53.8632,-110.9152,932.9,403.9,355.4,2.0,-2.1,8.85,31.77,1.9444,394.2985],
    [14064,1537392614,53.8639,-110.9153,932.9,400.6,355.2,2.4,-1.5,9.13,31.83,1.9425,393.7152],
    [14065,1537392615,53.8646,-110.9154,932.7,397.7,354.1,3.4,-0.6,9.21,32.21,1.9403,393.9603],
    [14066,1537392616,53.8653,-110.9154,931.5,392.9,354.1,3.2,-0.5,9.24,32.48,1.9374,393.7541],
    [14067,1537392617,53.866,-110.9155,930.1,383.8,354.0,3.3,-1.0,9.51,31.96,1.9355,393.7541],
    [14068,1537392618,53.8666,-110.9156,929.6,375.5,354.4,2.6,-1.8,9.7,31.3,1.9401,393.6588],
    [14069,1537392619,53.8673,-110.9157,929.9,370.4,354.6,2.3,-2.2,8.67,31.49,1.9402,394.3721],
    [14070,1537392620,53.868,-110.9157,930.4,375.0,354.3,2.3,-2.0,8.98,31.25,1.9403,392.4639],
    [14071,1537392621,53.8687,-110.9158,932.2,384.6,354.8,1.2,-2.8,9.44,30.96,1.9403,393.5449],
    [14072,1537392622,53.8693,-110.9159,933.7,386.0,354.6,1.1,-1.7,9.05,31.43,1.9417,392.9545],
    [14073,1537392623,53.87,-110.916,933.6,379.2,353.9,1.4,-1.4,9.3,31.24,1.9396,394.566],
    [14074,1537392624,53.8707,-110.9161,931.5,365.5,353.7,2.2,-1.2,9.29,31.3,1.9387,392.9613],
    [14075,1537392625,53.8714,-110.9162,929.9,355.9,352.9,3.2,-1.1,9.23,31.58,1.939,394.0195],
    [14076,1537392626,53.8721,-110.9163,928.9,347.9,354.3,1.9,-1.0,8.98,31.24,1.9386,392.4973],
    [14077,1537392627,53.8727,-110.9164,928.8,345.3,354.6,2.1,-0.6,9.16,31.02,1.9404,394.1125],
    [14078,1537392628,53.8734,-110.9165,928.6,343.7,354.3,2.7,-1.1,9.07,31.19,1.9391,393.6568],
    [14079,1537392629,53.8741,-110.9165,928.3,343.4,354.3,2.7,-1.2,9.51,30.63,1.9368,393.6568],
    [14080,1537392630,53.8748,-110.9166,928.3,344.5,354.5,2.1,-0.5,9.2,30.98,1.9373,393.2674],
    [14081,1537392631,53.8754,-110.9167,928.6,347.2,356.0,0.6,-0.6,9.53,30.9,1.9355,390.5912],
    [14082,1537392632,53.8761,-110.9168,928.4,350.6,354.9,1.9,0.0,9.02,31.09,1.9365,394.9402],
    [14083,1537392633,53.8768,-110.9168,928.3,355.7,354.2,2.5,0.3,9.2,30.66,1.9408,393.7131],
    [14084,1537392634,53.8774,-110.9169,929.1,360.2,353.5,3.0,0.7,9.71,30.18,1.9402,394.3514],
    [14085,1537392635,53.8781,-110.917,929.9,364.6,353.7,2.8,0.3,9.2,30.51,1.9407,393.3914],
    [14086,1537392636,53.8788,-110.9171,930.2,363.2,353.7,2.9,0.4,8.94,30.96,1.9417,393.6046],
    [14087,1537392637,53.8794,-110.9172,930.5,358.3,353.5,3.6,0.1,9.38,30.25,1.9426,394.6131],
    [14088,1537392638,53.8801,-110.9172,931.1,348.8,353.8,3.4,-0.7,8.8,31.25,1.9417,394.2738],
    [14089,1537392639,53.8808,-110.9173,932.1,345.4,354.4,2.9,-1.7,9.86,30.8,1.9418,392.6793],
    [14090,1537392640,53.8815,-110.9174,933.1,343.9,354.3,3.0,-0.1,9.41,31.72,1.9415,394.5907],
    [14091,1537392641,53.8821,-110.9174,932.6,342.6,354.4,3.1,0.5,9.15,32.16,1.9404,393.9063],
    [14092,1537392642,53.8828,-110.9175,931.9,341.9,354.7,3.4,-0.1,9.05,31.76,1.9394,394.7684],
    [14093,1537392643,53.8835,-110.9175,932.5,342.5,355.0,3.5,-1.6,8.93,31.67,1.9378,394.3106],
    [14094,1537392644,53.8841,-110.9176,933.9,343.1,355.1,3.2,-2.1,9.72,31.16,1.938,393.4219],
    [14095,1537392645,53.8848,-110.9177,934.7,344.8,355.4,2.5,-0.9,9.76,31.46,1.9387,393.9794],
    [14096,1537392646,53.8855,-110.9177,934.1,344.3,354.9,3.0,-0.6,9.19,31.93,1.9392,393.3109],
    [14097,1537392647,53.8862,-110.9178,932.2,345.8,354.4,3.0,-1.5,9.19,31.65,1.9404,394.6637],
    [14098,1537392648,53.8869,-110.9178,929.1,344.4,355.7,1.3,-0.4,9.96,30.91,1.9372,394.5194],
    [14099,1537392649,53.8875,-110.9179,927.0,345.1,355.3,2.2,0.1,9.19,31.34,1.9373,393.8125],
    [14100,1537392650,53.8882,-110.918,926.0,342.6,354.9,2.8,-0.2,9.2,31.45,1.9386,392.9054],
    [14101,1537392651,53.8889,-110.918,925.6,336.8,355.2,2.5,-0.9,8.78,31.06,1.9401,393.6453],
    [14102,1537392652,53.8896,-110.9181,926.1,334.2,354.7,3.0,-1.2,8.94,30.82,1.9406,394.2801],
    [14103,1537392653,53.8903,-110.9182,928.5,332.5,354.5,3.0,-0.9,9.52,30.27,1.9406,392.3474],
    [14104,1537392654,53.891,-110.9182,929.5,332.5,354.3,2.6,0.3,9.25,31.34,1.9451,393.7551],
    [14105,1537392655,53.8916,-110.9183,929.8,331.7,353.4,3.0,0.6,9.42,31.08,1.9439,394.566],
    [14106,1537392656,53.8923,-110.9184,930.5,331.3,352.9,3.0,0.5,9.22,31.74,1.944,393.6601],
    [14107,1537392657,53.893,-110.9185,931.2,330.1,352.7,3.1,0.5,9.13,31.77,1.9434,393.8571],
    [14108,1537392658,53.8937,-110.9186,931.4,328.7,352.6,3.2,0.7,9.47,31.72,1.943,392.3305],
    [14109,1537392659,53.8944,-110.9187,931.2,327.3,352.4,3.6,1.0,9.41,32.02,1.9428,393.43],
    [14110,1537392660,53.895,-110.9188,931.0,325.3,353.0,3.2,0.7,9.47,32.34,1.944,393.43],
    [14111,1537392661,53.8957,-110.9189,930.6,324.3,353.8,2.7,-0.1,9.38,32.9,1.9436,393.534],
    [14112,1537392662,53.8964,-110.919,930.3,321.7,353.4,3.6,0.1,9.55,33.12,1.944,393.534],
    [14113,1537392663,53.897,-110.919,930.2,320.1,353.3,3.8,0.2,9.27,33.62,1.9441,394.2888],
    [14114,1537392664,53.8978,-110.9191,930.1,319.0,353.9,3.2,0.5,9.2,33.72,1.9439,393.7662],
    [14115,1537392665,53.8984,-110.9192,930.0,316.6,353.8,3.3,1.0,9.21,33.64,1.9438,393.3537],
    [14116,1537392666,53.8991,-110.9193,929.7,314.9,354.0,3.0,1.6,9.07,34.03,1.9435,392.4505],
    [14117,1537392667,53.8998,-110.9193,929.2,311.9,353.8,3.1,1.9,9.01,34.38,1.9443,393.9134],
    [14118,1537392668,53.9005,-110.9194,928.8,309.8,354.2,2.8,2.2,9.08,34.54,1.9452,391.6568],
    [14119,1537392669,53.9012,-110.9195,928.6,307.6,354.9,2.1,2.1,9.18,34.36,1.9445,391.6568],
    [14120,1537392670,53.9018,-110.9195,929.0,307.0,355.4,1.6,1.5,8.82,34.83,1.9431,393.0402],
    [14121,1537392671,53.9025,-110.9196,929.7,306.0,355.7,1.3,0.7,9.62,34.7,1.9413,393.9285],
    [14122,1537392672,53.9032,-110.9197,930.5,306.2,355.3,1.8,-0.4,9.68,34.98,1.9409,393.0734],
    [14123,1537392673,53.9039,-110.9198,930.9,305.9,355.0,1.7,0.1,9.19,34.97,1.9427,393.92],
    [14124,1537392674,53.9046,-110.9198,930.6,304.6,355.0,1.5,0.1,9.39,34.63,1.9437,393.7941],
    [14125,1537392675,53.9052,-110.9199,930.1,303.1,354.4,2.0,0.2,9.28,34.75,1.9432,393.9902],
    [14126,1537392676,53.906,-110.92,930.1,301.3,353.4,3.3,0.2,9.34,34.91,1.9427,393.9902],
    [14127,1537392677,53.9066,-110.9201,930.3,301.0,352.2,4.5,0.0,9.94,34.59,1.9438,389.672],
    [14128,1537392678,53.9073,-110.9202,930.4,299.6,353.4,3.0,-0.2,8.81,34.84,1.9433,393.1931],
    [14129,1537392679,53.908,-110.9203,929.9,298.9,353.7,2.6,0.5,8.86,35.1,1.942,393.3836],
    [14130,1537392680,53.9087,-110.9203,929.8,297.8,354.0,2.7,0.4,8.95,35.21,1.9421,393.9526],
    [14131,1537392681,53.9094,-110.9204,930.5,298.5,354.0,2.9,0.7,8.97,35.11,1.9425,393.1433],
    [14132,1537392682,53.91,-110.9205,930.7,298.7,353.8,3.2,1.1,9.2,36.13,1.9439,393.1433],
    [14133,1537392683,53.9107,-110.9206,930.4,297.2,353.7,3.3,0.9,9.25,35.87,1.9443,393.2335],
    [14134,1537392684,53.9114,-110.9206,930.1,297.1,353.6,3.5,1.4,9.15,35.29,1.9438,393.7639],
    [14135,1537392685,53.9121,-110.9207,929.7,296.7,352.5,4.9,1.9,9.19,35.54,1.9433,392.8962],
    [14136,1537392686,53.9128,-110.9208,929.3,295.4,352.1,5.4,0.8,8.8,35.38,1.9446,392.8962],
    [14137,1537392687,53.9135,-110.9209,928.8,292.0,352.7,4.8,0.9,10.08,35.26,1.9439,394.3435],
    [14138,1537392688,53.9141,-110.9209,928.4,290.0,353.4,4.4,0.9,9.34,35.51,1.9453,393.4319],
    [14139,1537392689,53.9148,-110.921,928.5,287.4,353.8,4.0,1.6,9.5,35.41,1.9449,393.4319],
    [14140,1537392690,53.9155,-110.9211,928.7,286.7,354.7,3.2,1.5,9.21,36.09,1.9445,393.7136],
    [14141,1537392691,53.9162,-110.9211,929.1,285.1,354.8,3.1,1.7,9.04,36.06,1.9465,393.5491],
    [14142,1537392692,53.9169,-110.9212,930.2,285.5,354.0,4.1,0.5,9.08,36.09,1.9433,393.5221],
    [14143,1537392693,53.9176,-110.9212,931.9,285.9,354.3,3.8,-0.2,9.26,36.62,1.9431,394.0587],
    [14144,1537392694,53.9183,-110.9213,932.8,285.7,354.6,3.5,-0.4,9.23,36.11,1.9426,394.0587],
    [14145,1537392695,53.9189,-110.9214,932.8,284.8,354.7,3.5,-0.8,9.31,36.87,1.9439,393.067],
    [14146,1537392696,53.9196,-110.9214,933.6,284.6,354.9,3.0,-2.3,9.45,36.03,1.9435,392.8011],
    [14147,1537392697,53.9203,-110.9215,934.5,283.8,355.2,2.4,-2.7,8.89,36.23,1.9429,392.4795],
    [14148,1537392698,53.921,-110.9215,935.3,283.7,354.3,2.8,-1.0,9.49,36.36,1.9425,392.8454],
    [14149,1537392699,53.9217,-110.9216,934.3,280.6,353.3,3.7,-2.4,9.49,35.64,1.9419,393.7372],
    [14150,1537392700,53.9224,-110.9217,933.1,278.8,351.5,4.9,-2.4,9.13,35.93,1.9409,392.9968],
    [14151,1537392701,53.9231,-110.9218,931.7,275.4,351.3,4.5,-2.5,9.36,35.68,1.939,393.4571],
    [14152,1537392702,53.9238,-110.922,930.3,273.3,350.8,4.9,-2.0,9.07,35.35,1.9395,393.7803],
    [14153,1537392703,53.9245,-110.9221,929.5,270.5,351.4,4.3,-2.1,9.49,35.56,1.9394,393.8419],
    [14154,1537392704,53.9251,-110.9222,929.4,270.4,352.0,4.3,-2.0,8.65,34.66,1.938,392.3171],
    [14155,1537392705,53.9258,-110.9223,929.7,269.7,352.5,4.3,-2.0,9.75,34.04,1.9382,392.1548],
    [14156,1537392706,53.9265,-110.9224,929.5,269.2,353.1,4.0,-2.2,8.83,34.07,1.936,393.3482],
    [14157,1537392707,53.9272,-110.9224,929.3,268.3,353.9,3.5,-2.2,9.52,33.42,1.9372,392.5733],
    [14158,1537392708,53.9279,-110.9225,929.0,266.0,353.8,4.0,-2.2,9.59,33.3,1.9365,394.0356],
    [14159,1537392709,53.9286,-110.9226,929.1,265.2,354.1,3.8,-2.4,10.2,32.7,1.9352,393.1116],
    [14160,1537392710,53.9293,-110.9226,929.5,264.4,354.2,3.8,-2.0,9.37,32.6,1.9348,393.7575],
    [14161,1537392711,53.93,-110.9227,929.7,264.7,354.2,3.7,-2.3,9.82,31.54,1.9361,393.4174],
    [14162,1537392712,53.9307,-110.9228,929.8,263.8,354.3,3.7,-2.1,9.32,31.72,1.9361,392.3246],
    [14163,1537392713,53.9313,-110.9228,929.4,263.4,354.1,4.0,-1.7,9.55,31.25,1.937,393.378],
    [14164,1537392714,53.932,-110.9229,929.3,262.3,354.0,4.1,-1.6,9.19,30.99,1.9354,392.8522],
    [14165,1537392715,53.9327,-110.923,929.5,262.5,353.9,4.0,-1.3,8.89,30.61,1.936,392.8522],
    [14166,1537392716,53.9334,-110.923,929.9,262.9,354.0,4.1,-1.6,9.33,30.17,1.9363,393.8958],
    [14167,1537392717,53.9341,-110.9231,930.3,263.3,353.9,4.3,-1.4,9.35,30.62,1.9375,392.9819],
    [14168,1537392718,53.9348,-110.9232,930.3,262.3,354.1,4.1,-1.5,9.25,29.56,1.9377,393.13],
    [14169,1537392719,53.9354,-110.9232,930.1,262.1,354.0,4.2,-1.4,9.2,29.96,1.9371,393.1465],
    [14170,1537392720,53.9361,-110.9233,929.9,261.8,354.1,4.2,-1.2,9.36,30.3,1.9402,393.5486],
    [14171,1537392721,53.9368,-110.9233,929.7,262.8,354.0,4.4,-1.2,8.95,29.87,1.9391,393.065],
    [14172,1537392722,53.9375,-110.9234,929.6,262.7,354.1,4.3,-1.1,9.29,29.99,1.9392,393.065],
    [14173,1537392723,53.9382,-110.9234,929.7,264.2,354.2,4.2,-1.3,9.48,29.98,1.9412,395.139],
    [14174,1537392724,53.9388,-110.9235,929.8,264.8,354.2,4.2,-1.3,9.35,30.77,1.9414,395.139],
    [14175,1537392725,53.9395,-110.9235,930.0,266.3,354.2,4.3,-1.1,9.75,30.4,1.9387,393.2792],
    [14176,1537392726,53.9402,-110.9236,930.0,267.0,354.2,4.3,-1.1,10.1,30.04,1.9405,392.798],
    [14177,1537392727,53.9409,-110.9237,929.9,266.9,354.2,4.4,-1.0,8.98,30.75,1.9379,394.2956],
    [14178,1537392728,53.9416,-110.9237,929.7,266.7,354.2,4.4,-1.0,8.89,30.88,1.9392,395.0775],
    [14179,1537392729,53.9422,-110.9238,929.6,266.6,354.4,4.2,-0.6,9.39,30.58,1.9393,393.6518],
    [14180,1537392730,53.9429,-110.9238,929.7,267.7,354.0,4.7,-0.6,9.35,31.35,1.9388,392.7867],
    [14181,1537392731,53.9436,-110.9239,929.9,267.9,354.3,4.4,-0.6,9.42,31.68,1.9398,394.597],
    [14182,1537392732,53.9443,-110.9239,930.0,268.0,354.8,3.9,-0.6,9.4,31.92,1.9411,394.1751],
    [14183,1537392733,53.9449,-110.9239,930.1,267.9,354.8,3.8,-0.4,9.1,31.09,1.9405,394.6333],
    [14184,1537392734,53.9456,-110.924,930.2,267.0,354.7,4.1,-0.4,9.28,31.02,1.9401,393.4315],
    [14185,1537392735,53.9462,-110.924,930.2,266.2,354.4,4.4,-0.4,9.04,30.96,1.9401,393.4247],
    [14186,1537392736,53.9468,-110.9241,930.0,265.0,354.2,4.5,-0.1,9.51,31.57,1.9392,393.9486],
    [14187,1537392737,53.9474,-110.9241,929.8,263.9,354.3,4.3,-0.7,9.34,32.19,1.9394,394.7589],
    [14188,1537392738,53.9483,-110.9242,929.7,262.7,354.4,4.3,-0.6,9.39,31.17,1.9391,393.1878],
    [14189,1537392739,53.949,-110.9242,930.0,261.9,354.7,4.1,-0.1,9.32,31.85,1.9387,393.1878],
    [14190,1537392740,53.9497,-110.9243,930.2,261.2,354.2,4.5,-0.3,9.84,31.11,1.9391,392.3335],
    [14191,1537392741,53.9504,-110.9243,930.1,260.1,354.6,4.0,-0.4,8.9,31.14,1.942,393.019],
    [14192,1537392742,53.9511,-110.9244,929.7,259.1,354.7,3.8,-0.1,9.74,30.5,1.9438,392.2366],
    [14193,1537392743,53.9517,-110.9244,929.6,258.6,355.1,3.2,0.1,9.67,31.53,1.943,391.1923],
    [14194,1537392744,53.9524,-110.9245,928.9,256.9,355.5,2.7,0.5,9.75,31.71,1.9418,394.182],
    [14195,1537392745,53.9531,-110.9245,928.5,255.1,355.4,2.7,0.7,9.83,31.9,1.9433,394.2083],
    [14196,1537392746,53.9538,-110.9246,928.7,254.7,355.0,2.9,1.6,9.24,32.28,1.9448,394.005],
    [14197,1537392747,53.9544,-110.9246,929.4,255.4,354.6,3.4,1.9,9.57,31.89,1.9444,392.9745],
    [14198,1537392748,53.9551,-110.9247,929.8,255.8,354.0,3.9,1.9,10.17,32.51,1.9444,394.8709],
    [14199,1537392749,53.9558,-110.9247,929.6,255.6,353.4,4.9,1.4,9.12,32.96,1.9436,393.2632],
    [14200,1537392750,53.9565,-110.9248,929.5,255.7,352.8,5.5,0.6,9.46,32.63,1.9421,393.2023],
    [14201,1537392751,53.9572,-110.9249,930.1,257.1,353.7,4.8,-0.4,8.92,33.3,1.9415,394.1645],
    [14202,1537392752,53.9578,-110.9249,931.2,258.2,354.7,4.0,-1.5,9.32,34.33,1.9405,393.6029],
    [14203,1537392753,53.9585,-110.925,931.8,259.7,355.1,3.8,-0.8,9.07,33.88,1.9425,393.9041],
    [14204,1537392754,53.9592,-110.925,932.8,260.8,355.2,3.7,-1.3,9.37,33.62,1.9448,393.9632],
    [14205,1537392755,53.9599,-110.925,932.7,260.7,355.7,3.5,-1.6,9.59,33.55,1.9432,394.2098],
    [14206,1537392756,53.9606,-110.9251,932.0,259.0,355.5,3.9,-1.5,9.02,34.09,1.9443,392.6257],
    [14207,1537392757,53.9613,-110.9251,929.9,255.9,356.7,2.7,-1.0,9.3,34.03,1.9431,393.5506],
    [14208,1537392758,53.962,-110.9251,927.9,252.9,356.6,3.2,-1.2,9.77,33.76,1.9438,393.5506],
    [14209,1537392759,53.9626,-110.9251,926.4,250.9,356.4,3.4,-0.2,8.76,33.84,1.9438,393.7305],
    [14210,1537392760,53.9633,-110.9252,925.8,249.8,355.8,3.7,-0.3,9.08,34.29,1.9444,393.8344],
    [14211,1537392761,53.964,-110.9252,926.2,249.4,355.2,3.9,-0.8,8.83,34.14,1.9453,393.5349],
    [14212,1537392762,53.9647,-110.9252,926.6,249.9,355.2,3.6,-0.9,9.53,33.83,1.9446,393.4596],
    [14213,1537392763,53.9654,-110.9253,926.5,250.5,354.8,3.6,-0.7,9.56,34.51,1.9454,392.0364],
    [14214,1537392764,53.9661,-110.9253,926.7,250.7,354.4,3.8,-0.4,9.33,35.29,1.9435,394.2366],
    [14215,1537392765,53.9668,-110.9254,927.5,251.5,354.3,3.8,-0.3,9.34,35.43,1.9431,394.0187],
    [14216,1537392766,53.9674,-110.9255,928.4,252.4,353.8,4.4,0.3,9.19,35.01,1.942,393.6543],
    [14217,1537392767,53.9681,-110.9255,927.9,251.9,354.2,4.0,-0.2,9.19,34.77,1.9427,392.3565],
    [14218,1537392768,53.9688,-110.9256,927.5,251.5,354.0,3.9,0.7,9.84,34.44,1.9434,392.829],
    [14219,1537392769,53.9695,-110.9256,927.9,252.9,354.0,3.8,1.4,9.13,34.72,1.9459,392.7959],
    [14220,1537392770,53.9702,-110.9257,928.2,253.2,353.4,4.5,1.0,9.36,35.4,1.9431,392.7988],
    [14221,1537392771,53.9708,-110.9258,928.1,253.1,353.2,4.9,1.4,9.5,34.34,1.9433,393.7053],
    [14222,1537392772,53.9715,-110.9258,928.4,254.4,352.8,5.5,0.8,9.39,35.03,1.9439,391.5762],
    [14223,1537392773,53.9722,-110.9259,929.5,255.5,353.1,5.7,0.1,9.29,34.62,1.9442,392.8831],
    [14224,1537392774,53.9728,-110.9259,930.8,256.8,353.7,5.2,-0.3,9.48,34.37,1.9437,392.8831],
    [14225,1537392775,53.9735,-110.926,931.6,257.6,354.3,5.1,-0.2,8.77,35.13,1.9448,392.3551],
    [14226,1537392776,53.9742,-110.926,931.7,258.7,354.1,5.5,0.0,9.31,35.49,1.945,393.0269],
    [14227,1537392777,53.9749,-110.926,932.5,259.5,354.6,5.1,0.6,9.17,35.41,1.9441,393.441],
    [14228,1537392778,53.9756,-110.9261,933.3,260.6,354.0,5.8,1.2,9.71,35.46,1.9445,392.3894],
    [14229,1537392779,53.9763,-110.9261,932.7,260.7,354.8,4.5,-0.4,9.47,36.34,1.945,393.5513],
    [14230,1537392780,53.977,-110.9261,931.5,259.5,354.8,4.5,0.0,9.39,36.36,1.9435,393.3712],
    [14231,1537392781,53.9776,-110.9262,930.4,259.4,354.0,5.3,-1.0,8.98,36.24,1.9437,393.3712],
    [14232,1537392782,53.9783,-110.9262,929.5,258.5,354.3,5.0,-0.3,9.12,35.85,1.9435,393.8077],
    [14233,1537392783,53.979,-110.9263,929.1,259.1,354.1,5.5,-0.5,10.09,35.21,1.944,392.2973],
    [14234,1537392784,53.9797,-110.9263,929.1,259.1,354.4,5.1,-0.3,9.33,36.08,1.944,392.5561],
    [14235,1537392785,53.9804,-110.9263,929.6,259.6,354.8,5.0,-0.3,8.86,35.74,1.9453,393.7626],
    [14236,1537392786,53.9811,-110.9264,929.1,259.1,354.3,5.9,-0.6,10.01,35.59,1.942,393.9242],
    [14237,1537392787,53.9818,-110.9264,927.9,257.1,353.8,5.8,-0.6,9.35,36.37,1.9442,392.5882],
    [14238,1537392788,53.9825,-110.9264,928.5,257.4,354.2,4.6,-0.5,9.41,35.25,1.9452,393.1364],
    [14239,1537392789,53.9832,-110.9265,930.8,258.5,354.2,4.0,-0.1,10.0,35.22,1.9464,393.7176],
    [14240,1537392790,53.9838,-110.9266,932.4,259.4,356.2,2.0,1.6,9.3,35.48,1.9488,393.6116],
    [14241,1537392791,53.9845,-110.9266,932.6,259.6,353.3,5.6,2.6,9.93,34.99,1.9476,393.2634],
    [14242,1537392792,53.9852,-110.9266,932.0,258.3,353.3,5.0,2.9,9.21,35.77,1.946,393.3859],
    [14243,1537392793,53.9859,-110.9267,931.0,255.9,353.1,4.8,1.6,9.02,35.58,1.9443,393.3186],
    [14244,1537392794,53.9866,-110.9268,929.9,254.7,351.9,5.8,-0.3,9.36,35.89,1.9424,392.7298],
    [14245,1537392795,53.9873,-110.9269,929.4,253.4,351.9,5.5,-0.1,9.36,35.75,1.9429,393.9209],
    [14246,1537392796,53.988,-110.927,929.7,253.7,352.2,5.4,-0.6,9.47,35.99,1.942,393.9209],
    [14247,1537392797,53.9887,-110.927,930.0,254.0,353.0,4.7,-1.0,9.02,35.53,1.9436,391.8677],
    [14248,1537392798,53.9894,-110.9271,929.3,253.3,353.7,4.4,-1.6,9.32,35.5,1.9438,392.0205],
    [14249,1537392799,53.9899,-110.9271,928.5,252.5,354.2,4.0,-1.1,9.34,35.42,1.9451,393.3955],
    [14250,1537392800,53.9908,-110.9272,928.5,252.8,353.7,4.9,-1.3,9.51,35.38,1.9444,392.8987],
    [14251,1537392801,53.9915,-110.9273,929.7,254.7,355.2,3.0,-2.0,9.89,34.46,1.9424,393.5818],
    [14252,1537392802,53.9922,-110.9273,932.0,257.7,355.9,2.6,-1.9,9.2,35.33,1.9439,394.0702],
    [14253,1537392803,53.9929,-110.9274,934.2,260.2,355.3,2.9,-1.7,8.77,35.05,1.9442,392.2505],
    [14254,1537392804,53.9936,-110.9274,935.0,261.7,355.7,2.5,-0.8,9.44,35.24,1.9446,392.2505],
    [14255,1537392805,53.9943,-110.9275,934.4,261.8,353.5,4.6,0.8,9.85,35.01,1.9438,393.3271],
    [14256,1537392806,53.995,-110.9276,933.5,261.5,353.4,4.1,0.8,9.12,35.31,1.9432,393.394],
    [14257,1537392807,53.9957,-110.9276,932.5,261.5,353.2,4.1,1.0,9.11,35.39,1.9439,393.5979],
    [14258,1537392808,53.9964,-110.9277,931.7,261.7,352.3,4.9,-0.2,9.46,35.61,1.9447,393.8784],
    [14259,1537392809,53.9971,-110.9278,930.7,261.6,353.8,3.5,-0.2,9.0,35.4,1.946,392.9664],
    [14260,1537392810,53.9978,-110.9279,931.0,262.9,354.2,4.1,-2.2,9.33,35.06,1.9462,393.0382],
    [14261,1537392811,53.9985,-110.9279,931.6,264.1,354.4,4.8,-1.2,9.23,34.88,1.9458,392.9141],
    [14262,1537392812,53.9992,-110.928,931.4,264.2,356.0,3.2,0.4,9.4,35.35,1.9469,392.5825],
    [14263,1537392813,53.9999,-110.928,931.1,264.2,356.2,2.9,0.6,9.31,35.48,1.9458,393.8719],
    [14264,1537392814,54.0006,-110.928,931.4,264.2,355.0,3.7,-0.1,9.77,34.99,1.947,393.5381],
    [14265,1537392815,54.0013,-110.9281,931.2,264.2,353.4,4.3,-1.1,9.32,35.79,1.9467,393.1804],
    [14266,1537392816,54.002,-110.9282,930.7,265.2,352.2,4.3,-0.8,9.38,35.61,1.9479,393.6516],
    [14267,1537392817,54.0027,-110.9283,930.4,266.7,350.6,5.0,-0.4,9.17,35.83,1.9472,393.5183],
    [14268,1537392818,54.0033,-110.9284,931.1,270.3,349.9,5.1,-0.2,10.2,35.41,1.9479,391.8663],
    [14269,1537392819,54.004,-110.9285,932.6,274.5,349.8,4.9,0.8,9.42,36.16,1.9493,392.4154],
    [14270,1537392820,54.0047,-110.9287,933.8,277.8,351.0,3.7,1.2,9.55,36.71,1.9472,392.8736],
    [14271,1537392821,54.0054,-110.9288,934.6,283.5,351.7,4.2,0.0,9.6,36.0,1.9482,393.0196],
    [14272,1537392822,54.0061,-110.9289,936.7,287.5,351.7,5.2,-1.0,9.47,36.43,1.9478,392.8272],
    [14273,1537392823,54.0068,-110.929,938.7,290.6,353.6,3.5,-2.0,9.5,36.5,1.9489,392.683],
    [14274,1537392824,54.0074,-110.929,940.8,292.2,354.6,2.9,-1.2,9.31,36.63,1.9508,392.3255],
    [14275,1537392825,54.0081,-110.9291,943.4,294.6,355.4,2.2,-0.7,10.27,36.15,1.9482,392.4405],
    [14276,1537392826,54.0088,-110.9292,945.6,297.7,355.6,2.0,-1.0,9.56,36.64,1.9473,394.3306],
    [14277,1537392827,54.0095,-110.9292,948.1,303.4,355.3,2.3,-1.7,8.84,36.78,1.948,389.5689],
    [14278,1537392828,54.0102,-110.9293,951.0,307.9,354.7,2.5,-1.3,8.82,36.87,1.9477,392.0115],
    [14279,1537392829,54.0108,-110.9294,953.2,311.4,354.3,2.7,0.3,10.32,36.65,1.9481,391.4336],
    [14280,1537392830,54.0115,-110.9294,954.0,313.6,354.0,2.7,-0.3,10.07,36.23,1.9477,393.387],
    [14281,1537392831,54.0122,-110.9295,955.1,315.1,354.9,1.4,-0.8,8.87,37.15,1.9477,392.4781],
    [14282,1537392832,54.0129,-110.9296,956.8,317.8,354.8,1.7,-0.7,8.98,36.88,1.9483,393.0274],
    [14283,1537392833,54.0135,-110.9297,958.1,320.2,355.2,1.5,-0.5,9.61,36.79,1.9468,393.0898],
    [14284,1537392834,54.0142,-110.9297,959.2,320.9,356.9,0.9,-1.7,9.48,36.86,1.9486,393.1682],
    [14285,1537392835,54.0149,-110.9298,960.8,323.5,357.2,3.0,-1.9,9.07,37.47,1.9477,392.524],
    [14286,1537392836,54.0156,-110.9298,961.1,324.9,357.1,5.4,-1.6,9.61,36.89,1.9465,393.425],
    [14287,1537392837,54.0162,-110.9297,959.6,324.6,358.4,6.3,-1.3,9.57,37.21,1.9479,393.425],
    [14288,1537392838,54.0169,-110.9296,957.2,323.9,3.1,4.3,0.8,9.76,36.99,1.9472,392.2789],
    [14289,1537392839,54.0176,-110.9295,955.8,325.4,5.7,5.8,-0.2,9.38,38.15,1.9482,392.2789],
    [14290,1537392840,54.0183,-110.9292,955.0,326.6,9.7,5.0,-0.5,9.18,38.04,1.9461,392.7325],
    [14291,1537392841,54.019,-110.9289,954.8,329.2,13.0,5.2,-0.9,9.44,37.81,1.9468,392.3642],
    [14292,1537392842,54.0197,-110.9285,955.2,330.3,16.6,4.4,-1.5,9.32,38.23,1.946,391.9266],
    [14293,1537392843,54.0203,-110.9281,955.6,328.6,19.1,5.1,-2.0,9.33,37.7,1.946,393.0123],
    [14294,1537392844,54.021,-110.9276,956.4,330.4,22.1,5.2,-2.5,9.32,37.44,1.9456,394.4387],
    [14295,1537392845,54.0216,-110.927,957.1,331.1,26.0,4.8,-1.4,9.18,37.27,1.9452,393.4977],
    [14296,1537392846,54.0222,-110.9264,957.5,332.5,28.8,5.3,-0.9,9.47,36.62,1.9466,393.7437],
    [14297,1537392847,54.0228,-110.9257,957.2,333.2,32.5,4.8,-0.3,9.87,36.13,1.9464,393.6753],
    [14298,1537392848,54.0234,-110.9249,957.5,335.4,35.4,4.9,-0.8,9.11,36.8,1.9462,394.8309],
    [14299,1537392849,54.0239,-110.9242,958.1,338.4,38.6,4.3,-0.4,9.32,36.96,1.9466,392.9838],
    [14300,1537392850,54.0245,-110.9233,958.4,343.1,42.2,4.1,-0.2,9.15,36.77,1.9475,393.3995],
    [14301,1537392851,54.025,-110.9224,958.6,345.8,45.3,3.7,-0.4,9.39,36.68,1.948,393.3122],
    [14302,1537392852,54.0255,-110.9215,959.1,349.7,48.7,4.0,-0.5,9.36,36.68,1.9471,393.1703],
    [14303,1537392853,54.0259,-110.9205,960.3,356.2,51.4,4.1,-0.9,8.85,36.83,1.9469,393.1703],
    [14304,1537392854,54.0263,-110.9195,961.3,361.3,54.1,4.5,-1.2,9.26,36.97,1.9433,392.8127],
    [14305,1537392855,54.0267,-110.9185,962.1,369.8,56.8,4.2,-1.5,9.28,36.95,1.944,393.4205],
    [14306,1537392856,54.027,-110.9174,962.0,378.4,59.9,4.4,-1.1,9.04,37.02,1.9459,393.9115],
    [14307,1537392857,54.0274,-110.9163,961.5,388.2,62.9,4.2,-1.3,9.37,36.91,1.9426,393.3227],
    [14308,1537392858,54.0277,-110.9152,961.0,396.2,66.1,4.1,-1.3,9.68,36.14,1.9406,393.6642],
    [14309,1537392859,54.0279,-110.914,960.8,404.2,69.3,4.0,-1.2,9.16,36.18,1.9404,393.8271],
    [14310,1537392860,54.0281,-110.9128,961.0,412.0,72.2,4.1,-1.4,9.0,36.46,1.9412,394.3673],
    [14311,1537392861,54.0283,-110.9116,961.1,419.9,75.3,3.5,-0.8,9.67,35.31,1.9442,392.4447],
    [14312,1537392862,54.0285,-110.9104,961.2,422.2,78.1,3.2,-0.4,9.09,36.02,1.945,393.6108],
    [14313,1537392863,54.0286,-110.9092,962.1,423.1,80.1,3.3,-0.5,9.1,35.7,1.9453,391.6968],
    [14314,1537392864,54.0287,-110.9079,963.0,424.0,81.6,3.3,-0.6,9.31,35.16,1.9469,394.0487],
    [14315,1537392865,54.0288,-110.9067,963.4,424.4,83.1,3.2,-0.4,9.19,36.17,1.9458,394.1511],
    [14316,1537392866,54.0289,-110.9055,964.0,425.0,84.5,3.4,-0.1,9.1,36.27,1.9463,393.0575],
    [14317,1537392867,54.0289,-110.9043,964.1,419.7,85.8,3.3,-0.4,8.67,35.61,1.9463,393.0575],
    [14318,1537392868,54.029,-110.903,964.1,409.0,86.9,3.3,-1.2,9.75,35.7,1.9481,393.1516],
    [14319,1537392869,54.029,-110.9017,963.1,400.5,89.7,2.8,-0.2,9.13,35.91,1.9465,392.3164],
    [14320,1537392870,54.029,-110.9005,961.7,388.7,92.3,2.4,-0.2,9.47,35.54,1.9461,393.0302],
    [14321,1537392871,54.0289,-110.8993,960.7,378.8,94.7,2.9,-0.3,9.55,35.77,1.946,394.2053],
    [14322,1537392872,54.0288,-110.8981,960.3,369.7,97.1,3.5,-0.1,8.99,36.47,1.9467,393.6993],
    [14323,1537392873,54.0287,-110.8968,960.1,359.6,99.3,4.1,0.1,9.03,36.87,1.9456,392.1874],
    [14324,1537392874,54.0286,-110.8956,960.0,354.4,100.1,4.5,-0.5,9.71,36.25,1.9452,393.6778],
    [14325,1537392875,54.0285,-110.8944,960.2,349.9,100.8,4.3,-0.3,9.33,36.33,1.9447,393.1302],
    [14326,1537392876,54.0283,-110.8932,960.4,346.9,100.7,4.4,-0.7,9.34,36.81,1.9454,392.4854],
    [14327,1537392877,54.0282,-110.8919,960.8,344.1,99.5,3.8,-1.7,9.3,37.34,1.9446,393.9877],
    [14328,1537392878,54.0281,-110.8908,961.4,341.2,99.2,3.6,-1.7,8.74,36.67,1.9435,392.283],
    [14329,1537392879,54.028,-110.8895,961.5,339.5,99.0,3.9,-1.7,10.05,36.31,1.9419,394.586],
    [14330,1537392880,54.0278,-110.8883,960.9,336.0,99.3,3.8,-1.4,9.36,37.21,1.9439,393.3102],
    [14331,1537392881,54.0277,-110.8871,960.8,333.8,99.5,3.9,-1.2,8.75,36.54,1.9436,392.5054],
    [14332,1537392882,54.0276,-110.8858,960.6,331.5,99.3,3.2,-1.0,8.49,36.2,1.9426,392.588],
    [14333,1537392883,54.0275,-110.8846,960.6,327.6,98.9,3.7,-0.9,8.86,36.48,1.9417,393.6351],
    [14334,1537392884,54.0274,-110.8834,960.6,325.4,97.7,3.8,-1.1,8.71,35.96,1.9411,392.6868],
    [14335,1537392885,54.0273,-110.8822,960.3,322.4,96.6,3.9,-0.8,9.1,35.84,1.9422,392.8575],
    [14336,1537392886,54.0272,-110.8809,959.9,318.9,94.5,3.5,-1.5,8.83,35.78,1.9446,392.3664],
    [14337,1537392887,54.0271,-110.8798,959.5,316.6,93.4,3.3,-1.3,8.64,35.35,1.9446,393.8662],
    [14338,1537392888,54.0271,-110.8786,959.5,314.2,92.0,3.2,-1.9,9.46,35.29,1.9449,393.1541],
    [14339,1537392889,54.027,-110.8773,960.1,313.1,91.1,3.3,-2.0,8.99,35.4,1.9434,392.426],
    [14340,1537392890,54.027,-110.876,959.8,312.8,91.3,3.3,-1.1,9.46,35.29,1.9435,392.426],
    [14341,1537392891,54.027,-110.8748,959.2,313.2,90.5,3.0,-1.6,8.97,35.22,1.9438,393.4073],
    [14342,1537392892,54.027,-110.8736,958.9,313.9,89.9,4.0,-1.7,9.91,35.12,1.9444,392.8829],
    [14343,1537392893,54.027,-110.8723,959.2,315.3,89.5,5.0,-1.8,9.07,35.41,1.9464,393.4101],
    [14344,1537392894,54.027,-110.8711,960.2,316.2,89.3,4.4,-1.5,9.21,36.04,1.9432,391.231],
    [14345,1537392895,54.027,-110.8699,960.7,315.7,89.3,4.5,-1.4,9.53,35.07,1.9429,392.5264],
    [14346,1537392896,54.0269,-110.8686,960.8,315.8,89.3,4.5,-1.3,9.63,35.1,1.9417,393.4372],
    [14347,1537392897,54.0269,-110.8674,961.0,314.2,89.3,4.3,-1.3,9.34,35.67,1.9427,392.0801],
    [14348,1537392898,54.0269,-110.8662,961.3,313.2,89.1,4.1,-1.2,9.22,35.79,1.9454,392.5054],
    [14349,1537392899,54.0269,-110.8649,961.3,312.0,89.5,4.6,-0.5,9.13,35.48,1.9448,393.7999],
    [14350,1537392900,54.0269,-110.8637,961.1,311.1,89.1,4.9,-0.6,9.68,35.03,1.9452,393.8885],
    [14351,1537392901,54.027,-110.8626,960.9,309.6,88.6,5.5,-0.6,9.08,35.69,1.9443,393.2526],
    [14352,1537392902,54.027,-110.8612,960.9,305.9,87.0,5.2,-1.7,8.58,35.65,1.9433,393.5259],
    [14353,1537392903,54.027,-110.86,961.0,301.3,85.9,5.4,-2.4,9.17,36.04,1.9415,392.5056],
    [14354,1537392904,54.027,-110.8587,960.9,296.9,85.7,5.3,-2.4,9.28,35.31,1.9419,394.0481],
    [14355,1537392905,54.0271,-110.8575,960.8,291.2,86.2,4.7,-2.0,9.78,35.33,1.9437,392.6635],
    [14356,1537392906,54.0271,-110.8562,960.6,286.6,86.5,4.7,-1.7,9.3,36.08,1.9436,391.851],
    [14357,1537392907,54.0271,-110.855,960.9,282.3,86.9,3.6,-1.4,9.89,35.54,1.9445,394.3818],
    [14358,1537392908,54.0271,-110.8537,962.0,279.0,86.9,4.0,-1.3,8.99,36.39,1.9471,393.2477],
    [14359,1537392909,54.0272,-110.8525,962.9,276.0,87.8,3.0,0.0,8.95,35.89,1.9466,393.2477],
    [14360,1537392910,54.0272,-110.8512,963.4,273.4,88.6,3.9,0.8,9.34,35.68,1.9465,391.7732],
    [14361,1537392911,54.0272,-110.8499,963.6,269.0,88.1,5.1,0.4,9.42,36.69,1.9476,391.3477],
    [14362,1537392912,54.0272,-110.8487,963.4,263.0,88.3,5.2,0.8,8.49,37.08,1.9457,391.3477],
    [14363,1537392913,54.0273,-110.8474,962.6,255.6,88.0,6.2,0.5,9.23,36.71,1.9459,392.1636],
    [14364,1537392914,54.0273,-110.8461,961.7,249.4,87.0,5.5,-0.2,9.26,36.6,1.9472,393.8607],
    [14365,1537392915,54.0273,-110.8448,961.0,243.4,86.7,6.1,0.4,8.93,37.17,1.9453,391.8598],
    [14366,1537392916,54.0274,-110.8436,960.2,239.3,86.8,5.6,1.0,9.54,37.26,1.9455,392.7149],
    [14367,1537392917,54.0274,-110.8423,958.7,234.6,86.5,5.8,1.2,8.99,37.62,1.9459,392.6643],
    [14368,1537392918,54.0275,-110.841,959.0,232.3,87.2,5.7,2.4,9.07,37.91,1.9459,392.8533],
    [14369,1537392919,54.0275,-110.8398,960.0,230.8,87.4,6.0,2.6,9.12,37.47,1.9456,394.159],
    [14370,1537392920,54.0276,-110.8385,960.5,231.5,85.6,6.5,-0.3,8.83,37.68,1.9452,392.0579],
    [14371,1537392921,54.0277,-110.8372,960.8,231.5,82.9,4.1,-4.3,9.23,37.89,1.9444,392.5652],
    [14372,1537392922,54.0277,-110.8359,961.8,231.8,82.8,4.9,-4.4,9.18,37.79,1.9437,392.0705],
    [14373,1537392923,54.0278,-110.8346,962.2,236.9,82.9,5.3,-4.5,9.1,37.91,1.944,392.0294],
    [14374,1537392924,54.0278,-110.8333,961.6,239.2,85.0,3.8,-2.8,10.04,37.53,1.9446,392.2759],
    [14375,1537392925,54.0278,-110.8319,960.1,241.1,87.0,2.8,-1.3,9.5,37.6,1.9459,392.3163],
    [14376,1537392926,54.0279,-110.8307,958.2,237.5,88.6,3.0,-0.5,9.11,37.62,1.9448,393.5904],
    [14377,1537392927,54.0279,-110.8294,957.9,232.6,89.5,4.4,-0.2,9.03,37.62,1.9452,391.9651],
    [14378,1537392928,54.0279,-110.8281,958.0,227.4,89.1,3.7,-1.4,9.28,37.97,1.9451,392.6354],
    [14379,1537392929,54.0279,-110.8268,957.6,220.3,89.0,3.2,-1.4,8.53,37.46,1.9471,391.3925],
    [14380,1537392930,54.0279,-110.8255,957.2,214.2,89.2,3.1,-1.1,8.83,37.49,1.9449,391.7807],
    [14381,1537392931,54.0279,-110.8242,957.2,214.2,88.0,3.2,-2.1,9.16,37.55,1.9454,393.0746],
    [14382,1537392932,54.0279,-110.8229,957.8,216.8,87.6,3.3,-2.3,8.76,37.36,1.9452,391.1879],
    [14383,1537392933,54.0279,-110.8216,959.1,216.2,87.4,2.4,-2.1,9.24,36.78,1.9454,392.7433],
    [14384,1537392934,54.0279,-110.8204,961.0,214.0,88.2,3.2,-0.8,9.3,37.71,1.9458,392.9459],
    [14385,1537392935,54.0279,-110.8191,963.2,211.5,87.2,4.3,-1.8,9.7,36.77,1.945,393.2578],
    [14386,1537392936,54.0279,-110.8178,964.7,212.7,86.7,3.0,-2.2,9.3,37.64,1.9449,393.3118],
    [14387,1537392937,54.028,-110.8166,964.3,214.3,86.7,2.9,-2.7,9.91,36.48,1.9446,393.2924],
    [14388,1537392938,54.028,-110.8153,962.9,212.9,87.7,2.9,-1.8,9.19,37.26,1.9448,393.2429],
    [14389,1537392939,54.028,-110.814,960.9,205.3,89.5,4.0,-0.2,8.76,37.15,1.9454,392.1796],
    [14390,1537392940,54.028,-110.8128,959.0,192.3,88.5,4.2,-2.0,8.6,37.33,1.946,392.2647],
    [14391,1537392941,54.028,-110.8115,958.1,182.7,87.6,4.5,-2.7,8.83,37.14,1.9463,392.8308],
    [14392,1537392942,54.028,-110.8102,958.0,177.6,87.1,4.7,-2.8,9.33,37.63,1.9459,392.2647],
    [14393,1537392943,54.028,-110.8089,957.8,177.7,86.9,4.5,-2.5,9.53,36.96,1.9473,392.556],
    [14394,1537392944,54.028,-110.8077,957.2,180.4,86.9,4.0,-2.1,9.31,37.46,1.9465,393.8107],
    [14395,1537392945,54.0281,-110.8064,957.2,185.0,86.9,3.6,-2.0,9.3,37.37,1.9449,392.5705],
    [14396,1537392946,54.0281,-110.8051,958.0,190.3,86.7,3.2,-2.5,9.25,37.36,1.9461,391.7947],
    [14397,1537392947,54.0281,-110.8038,958.4,192.5,86.8,3.5,-2.2,9.28,37.45,1.9473,393.8204],
    [14398,1537392948,54.0281,-110.8026,958.2,193.3,87.1,3.6,-2.0,9.06,37.28,1.9455,393.7234],
    [14399,1537392949,54.0281,-110.8013,957.7,196.7,87.0,3.4,-2.3,8.73,37.27,1.9456,393.8832],
    [14400,1537392950,54.0281,-110.8,957.9,202.0,87.0,3.8,-2.4,9.62,37.3,1.9454,394.1348],
    [14401,1537392951,54.0282,-110.7988,958.6,206.5,87.1,3.9,-2.3,9.33,37.07,1.9451,393.3012],
    [14402,1537392952,54.0282,-110.7975,959.1,208.8,87.6,3.9,-1.7,9.6,37.04,1.9442,393.1385],
    [14403,1537392953,54.0282,-110.7962,959.5,210.4,87.8,4.0,-1.2,9.74,37.06,1.9444,392.9014],
    [14404,1537392954,54.0282,-110.795,959.2,212.2,88.5,4.9,-0.3,9.86,36.68,1.9445,393.1062],
    [14405,1537392955,54.0282,-110.7937,959.0,213.1,87.5,4.7,-1.6,8.84,37.45,1.9436,392.6838],
    [14406,1537392956,54.0282,-110.7925,960.1,214.1,86.7,4.8,-2.2,9.26,37.14,1.9437,392.8152],
    [14407,1537392957,54.0283,-110.7912,961.7,216.7,86.2,3.9,-2.6,9.19,37.16,1.9438,392.5052],
    [14408,1537392958,54.0283,-110.79,962.8,219.8,86.8,3.3,-1.7,9.46,36.81,1.944,392.2439],
    [14409,1537392959,54.0283,-110.7887,962.9,220.9,86.9,4.2,-1.6,9.17,36.89,1.9434,391.911],
    [14410,1537392960,54.0283,-110.7874,962.6,220.9,87.6,2.6,-0.8,9.46,36.42,1.9439,394.1516],
    [14411,1537392961,54.0284,-110.7862,962.5,220.5,88.0,2.6,-0.4,9.29,37.33,1.9429,392.6618],
    [14412,1537392962,54.0284,-110.7849,962.4,220.7,89.1,2.8,0.5,8.97,36.75,1.9413,393.1006],
    [14413,1537392963,54.0284,-110.7837,962.3,221.3,89.2,3.3,0.7,8.94,36.42,1.9414,392.5495],
    [14414,1537392964,54.0284,-110.7824,962.1,222.3,89.5,3.8,1.7,9.56,36.02,1.9425,392.3802],
    [14415,1537392965,54.0284,-110.7811,961.1,222.1,88.5,3.5,1.1,9.24,36.12,1.9454,392.5539],
    [14416,1537392966,54.0285,-110.7799,959.9,220.9,86.7,2.9,-0.5,9.28,35.61,1.9435,392.7763],
    [14417,1537392967,54.0285,-110.7786,959.8,220.8,86.5,2.5,0.1,9.45,35.35,1.9406,393.2051],
    [14418,1537392968,54.0286,-110.7773,960.1,221.3,86.8,3.1,0.7,9.24,35.46,1.9413,391.5511],
    [14419,1537392969,54.0286,-110.7762,960.0,221.0,86.3,3.9,-0.1,9.18,35.44,1.9426,393.9303],
    [14420,1537392970,54.0286,-110.7749,959.6,219.7,86.6,3.5,0.2,9.34,34.82,1.9422,393.6484],
    [14421,1537392971,54.0287,-110.7736,959.6,218.6,86.8,3.4,0.1,9.11,35.1,1.9402,393.4295],
    [14422,1537392972,54.0287,-110.7723,959.2,218.2,87.5,3.5,0.9,9.21,35.27,1.9441,393.2318],
    [14423,1537392973,54.0288,-110.7711,958.7,217.7,87.6,4.3,0.7,9.02,35.56,1.9451,392.6901],
    [14424,1537392974,54.0288,-110.7698,958.6,217.6,86.8,4.4,-0.2,9.11,34.76,1.9441,391.6645],
    [14425,1537392975,54.0288,-110.7686,958.3,217.3,86.6,4.8,-0.2,9.24,35.12,1.9414,392.3425],
    [14426,1537392976,54.0289,-110.7673,958.2,217.2,86.5,5.0,-0.2,9.33,34.61,1.9408,392.2776],
    [14427,1537392977,54.0289,-110.7661,958.3,216.0,86.8,4.8,0.0,9.34,34.59,1.9398,393.2981],
    [14428,1537392978,54.029,-110.7648,958.8,215.5,86.8,4.9,-0.1,9.08,34.71,1.9406,391.885],
    [14429,1537392979,54.029,-110.7636,959.0,214.6,86.7,5.1,-0.3,8.84,34.47,1.9417,391.6914],
    [14430,1537392980,54.029,-110.7623,959.2,214.9,86.9,5.2,0.0,8.73,34.28,1.9427,391.7118],
    [14431,1537392981,54.0291,-110.7611,959.2,215.8,87.3,5.6,0.2,8.57,34.28,1.9417,392.674],
    [14432,1537392982,54.0291,-110.7598,959.1,216.9,86.9,5.5,-0.3,8.89,34.18,1.9413,393.4934],
    [14433,1537392983,54.0291,-110.7586,959.4,220.2,87.2,6.3,0.1,9.23,34.28,1.9419,391.5178],
    [14434,1537392984,54.0292,-110.7574,959.3,223.0,87.2,5.8,0.0,9.87,33.74,1.942,393.0284],
    [14435,1537392985,54.0292,-110.7561,959.3,226.6,87.0,5.6,-0.1,9.28,34.46,1.9409,392.3249],
    [14436,1537392986,54.0292,-110.7549,959.8,231.8,87.4,5.3,0.4,8.83,33.79,1.9414,393.8576],
    [14437,1537392987,54.0293,-110.7536,960.0,235.3,87.4,5.5,0.2,9.55,34.18,1.9431,393.8441],
    [14438,1537392988,54.0293,-110.7524,960.3,238.6,87.2,5.6,0.0,9.66,33.22,1.9432,392.7558],
    [14439,1537392989,54.0293,-110.7513,960.4,240.7,87.0,5.3,-0.5,8.85,33.96,1.9421,393.567],
    [14440,1537392990,54.0294,-110.7499,960.5,243.2,86.7,4.7,-0.9,9.12,34.02,1.9413,393.6018],
    [14441,1537392991,54.0294,-110.7487,961.1,246.2,86.9,3.7,-0.7,8.72,34.17,1.9429,392.9506],
    [14442,1537392992,54.0294,-110.7474,961.9,250.5,87.2,3.7,-0.5,9.38,34.3,1.9438,392.4369],
    [14443,1537392993,54.0295,-110.7462,962.7,252.7,88.0,2.6,0.7,9.2,33.84,1.9456,392.3153],
    [14444,1537392994,54.0295,-110.7449,963.5,255.6,89.1,3.2,1.8,8.59,34.23,1.9433,393.6153],
    [14445,1537392995,54.0295,-110.7437,964.3,257.3,87.7,4.0,0.1,9.47,34.15,1.9426,393.9764],
    [14446,1537392996,54.0296,-110.7424,964.3,259.2,86.0,4.1,-1.4,9.18,35.07,1.9425,392.898],
    [14447,1537392997,54.0296,-110.7412,962.2,260.2,84.5,3.7,-2.9,9.44,34.61,1.9411,392.6441],
    [14448,1537392998,54.0296,-110.7399,960.0,263.6,84.1,2.5,-2.9,9.7,34.01,1.9425,392.5708],
    [14449,1537392999,54.0297,-110.7387,959.0,268.0,85.2,1.9,-1.4,8.99,34.77,1.9425,393.5644],
    [14450,1537393000,54.0297,-110.7374,959.9,270.6,87.0,2.8,0.4,9.26,34.74,1.9416,392.7852],
    [14451,1537393001,54.0298,-110.7362,961.9,273.3,87.1,2.0,-0.2,9.26,34.66,1.9402,392.6474],
    [14452,1537393002,54.0298,-110.7349,963.6,274.2,87.4,2.6,-0.1,9.1,34.74,1.9413,392.5332],
    [14453,1537393003,54.0298,-110.7337,963.8,274.4,87.1,4.4,-1.0,9.2,34.99,1.9425,392.8838],
    [14454,1537393004,54.0299,-110.7323,962.7,275.4,87.1,3.5,-1.5,9.55,34.38,1.9415,393.754],
    [14455,1537393005,54.0299,-110.7311,961.2,274.5,87.3,4.2,-1.9,9.04,34.84,1.9408,392.875],
    [14456,1537393006,54.0299,-110.7298,959.5,272.8,87.7,4.3,-1.7,8.67,34.52,1.9401,392.1676],
    [14457,1537393007,54.0299,-110.7285,958.4,273.4,88.3,4.5,-1.4,9.42,34.72,1.9434,392.6662],
    [14458,1537393008,54.0299,-110.7273,958.3,276.0,88.1,4.5,-1.5,9.25,34.39,1.9426,393.8589],
    [14459,1537393009,54.0299,-110.726,959.2,278.4,88.2,3.8,-1.5,9.28,35.11,1.9426,393.2461],
    [14460,1537393010,54.0299,-110.7247,959.6,280.3,87.5,4.1,-2.3,9.97,33.75,1.9418,392.0168],
    [14461,1537393011,54.0299,-110.7235,959.7,281.3,87.3,3.8,-2.5,9.32,33.98,1.9404,392.1801],
    [14462,1537393012,54.03,-110.7222,960.4,283.0,87.7,2.7,-1.7,8.9,34.2,1.9464,391.5215],
    [14463,1537393013,54.03,-110.7209,961.8,285.6,89.7,4.1,1.0,9.16,34.71,1.9523,392.8059],
    [14464,1537393014,54.03,-110.7196,963.0,287.7,89.5,2.1,0.3,9.51,33.75,1.9568,394.0355],
    [14465,1537393015,54.03,-110.7184,964.0,289.8,88.1,3.6,-1.1,9.23,34.49,2.0505,393.4158],
    [14466,1537393016,54.03,-110.7171,964.7,290.8,89.7,4.3,1.1,9.3,34.19,2.3076,392.5131],
    [14467,1537393017,54.03,-110.7158,964.3,291.2,89.6,4.7,1.3,9.72,34.09,2.1361,392.6347],
    [14468,1537393018,54.03,-110.7145,963.0,289.3,89.1,3.8,1.0,9.75,34.33,2.0926,392.7515],
    [14469,1537393019,54.0301,-110.7132,962.9,289.7,88.0,2.9,0.5,9.39,35.67,2.2605,392.9536],
    [14470,1537393020,54.0301,-110.7119,963.7,291.1,87.9,3.1,1.2,8.81,35.33,2.1668,389.1373],
    [14471,1537393021,54.0301,-110.7107,964.0,291.3,86.5,3.9,-0.1,9.1,35.46,2.1281,392.1321],
    [14472,1537393022,54.0302,-110.7094,963.5,290.6,86.5,4.4,0.8,8.87,35.5,2.1319,394.2809],
    [14473,1537393023,54.0302,-110.7081,962.7,288.8,86.4,3.8,0.5,9.4,35.73,2.0833,394.2809],
    [14474,1537393024,54.0303,-110.7068,962.0,284.7,86.6,5.3,0.5,9.85,35.54,2.059,392.927],
    [14475,1537393025,54.0303,-110.7055,961.1,283.1,86.2,4.8,-0.9,9.4,36.68,1.9775,392.6134],
    [14476,1537393026,54.0304,-110.7042,959.5,282.5,85.9,5.5,-1.3,9.35,35.78,1.9513,392.3214],
    [14477,1537393027,54.0304,-110.7029,958.0,282.0,86.8,6.9,-0.5,9.45,35.34,1.9479,392.3082],
    [14478,1537393028,54.0304,-110.7015,957.7,282.6,86.5,6.5,-0.8,9.36,35.02,1.9507,392.9509],
    [14479,1537393029,54.0305,-110.7002,957.6,284.6,88.1,4.8,0.8,9.62,33.84,1.9745,392.1255],
    [14480,1537393030,54.0305,-110.6989,957.6,284.6,88.0,5.3,0.6,8.69,33.58,1.9801,391.6312],
    [14481,1537393031,54.0305,-110.6976,957.9,282.8,87.7,5.8,0.3,9.7,33.81,1.9661,391.7295],
    [14482,1537393032,54.0306,-110.6963,959.7,282.0,88.2,2.4,0.8,9.94,33.19,1.948,392.4565],
    [14483,1537393033,54.0306,-110.695,962.2,282.8,87.9,1.8,0.2,9.37,34.05,1.9415,392.1867],
    [14484,1537393034,54.0306,-110.6937,964.3,284.0,87.6,2.7,-0.1,9.24,34.31,1.9401,392.277],
    [14485,1537393035,54.0307,-110.6924,964.8,286.3,87.3,2.7,-0.5,9.29,33.55,1.9392,393.6452],
    [14486,1537393036,54.0307,-110.691,964.2,287.9,86.1,3.0,-2.0,9.58,32.84,1.9388,393.1331],
    [14487,1537393037,54.0307,-110.6897,963.4,288.9,85.8,4.1,-2.2,8.93,32.76,1.9365,393.0593],
    [14488,1537393038,54.0308,-110.6884,962.1,287.8,85.7,4.8,-2.5,9.85,32.46,1.9346,393.4465],
    [14489,1537393039,54.0308,-110.6871,961.0,284.9,85.8,5.1,-2.4,9.71,32.79,1.9342,392.8329],
    [14490,1537393040,54.0308,-110.6858,960.0,283.0,86.5,5.2,-1.7,9.55,31.98,1.9367,393.3154],
    [14491,1537393041,54.0308,-110.6845,959.0,281.1,86.7,4.8,-1.9,9.08,31.59,1.9433,392.4467],
    [14492,1537393042,54.0309,-110.6833,958.6,282.8,87.3,4.6,-1.2,9.43,31.68,1.9435,392.32],
    [14493,1537393043,54.0309,-110.6819,958.8,285.9,87.9,4.9,-0.9,9.98,31.24,1.9437,392.8476],
    [14494,1537393044,54.0309,-110.6806,959.2,286.5,87.2,5.0,-1.7,8.9,31.49,1.9437,392.8761],
    [14495,1537393045,54.0309,-110.6793,959.4,287.7,87.0,4.9,-1.6,9.43,32.44,1.9442,393.4124],
    [14496,1537393046,54.031,-110.678,959.7,289.0,87.5,5.3,-0.3,9.58,32.01,1.9484,393.3258],
    [14497,1537393047,54.031,-110.6767,959.7,289.8,87.6,5.1,-0.2,9.24,32.27,1.9482,393.1665],
    [14498,1537393048,54.031,-110.6754,959.3,290.4,86.9,3.8,-0.7,9.29,32.83,1.9483,392.9495],
    [14499,1537393049,54.031,-110.6741,958.8,290.0,87.5,4.1,-0.3,9.26,33.09,1.9466,393.9414],
    [14500,1537393050,54.0311,-110.6728,958.8,290.8,86.9,4.3,-0.8,9.94,32.98,1.9469,392.9659],
    [14501,1537393051,54.0311,-110.6715,959.9,293.0,88.1,4.2,0.5,9.37,33.99,1.9475,393.5191],
    [14502,1537393052,54.0311,-110.6703,961.3,294.3,87.7,3.3,-0.1,10.05,33.61,1.9454,393.3304],
    [14503,1537393053,54.0312,-110.669,961.0,294.0,88.0,4.9,0.5,9.64,34.0,1.9464,390.8038],
    [14504,1537393054,54.0312,-110.6677,960.3,293.6,88.3,5.3,0.8,9.44,34.62,1.9498,393.3545],
    [14505,1537393055,54.0312,-110.6665,960.7,294.7,86.8,4.1,-1.0,9.46,35.23,1.9503,393.1551],
    [14506,1537393056,54.0313,-110.6651,961.2,295.2,87.5,4.0,0.3,8.9,34.78,1.9492,392.7586],
    [14507,1537393057,54.0313,-110.6639,961.1,296.1,87.8,4.3,0.5,9.35,35.57,1.9489,392.8738],
    [14508,1537393058,54.0313,-110.6626,960.1,295.1,87.6,5.0,0.7,9.54,35.05,1.9473,393.0484],
    [14509,1537393059,54.0314,-110.6613,959.1,294.1,87.7,6.2,1.3,10.26,35.29,1.9479,393.0754],
    [14510,1537393060,54.0314,-110.66,958.6,293.7,86.8,5.2,0.7,9.84,35.35,1.9491,393.1478],
    [14511,1537393061,54.0315,-110.6587,958.5,293.2,86.0,5.9,0.7,9.38,35.75,1.9479,393.1478],
    [14512,1537393062,54.0315,-110.6574,958.1,292.0,86.2,5.6,1.1,9.2,35.97,1.9483,391.4356],
    [14513,1537393063,54.0316,-110.6562,958.3,292.3,85.3,4.1,0.2,9.28,36.11,1.9507,392.6975],
    [14514,1537393064,54.0316,-110.6549,958.3,292.0,85.9,3.9,0.8,10.1,35.7,1.9536,393.0343],
    [14515,1537393065,54.0317,-110.6536,958.7,292.0,85.9,3.9,0.5,9.29,35.83,1.951,393.3239],
    [14516,1537393066,54.0317,-110.6523,959.5,293.6,86.4,4.1,1.1,9.39,35.72,1.9506,393.1058],
    [14517,1537393067,54.0318,-110.651,960.0,295.2,87.1,4.3,1.7,9.22,36.41,1.952,393.2578],
    [14518,1537393068,54.0318,-110.6498,960.7,295.7,87.0,4.5,1.3,9.46,35.64,1.951,393.5243],
    [14519,1537393069,54.0319,-110.6485,960.9,295.7,87.4,4.2,1.7,9.39,35.72,1.9472,393.2814],
    [14520,1537393070,54.0319,-110.6473,961.6,295.6,87.4,5.0,2.0,9.75,35.31,1.9471,392.9394],
    [14521,1537393071,54.032,-110.6459,962.7,295.7,86.4,4.7,0.9,10.04,35.08,1.9451,393.1463],
    [14522,1537393072,54.032,-110.6447,962.3,295.3,87.3,3.8,2.3,9.09,35.98,1.9453,392.9948],
    [14523,1537393073,54.0321,-110.6434,961.3,295.3,87.5,2.3,2.2,9.66,35.02,1.9453,393.53],
    [14524,1537393074,54.0322,-110.6421,960.7,295.7,87.3,2.5,1.6,9.33,35.51,1.9451,393.3527],
    [14525,1537393075,54.0322,-110.6408,960.3,296.3,87.2,2.6,1.3,9.27,35.5,1.9455,393.6794],
    [14526,1537393076,54.0322,-110.6396,959.7,295.6,86.9,2.6,0.9,9.18,34.94,1.9449,393.6794],
    [14527,1537393077,54.0323,-110.6383,959.1,296.1,86.5,3.0,0.5,9.49,35.6,1.9442,389.8841],
    [14528,1537393078,54.0323,-110.637,959.1,296.1,86.4,3.3,0.4,9.61,34.72,1.944,391.0416],
    [14529,1537393079,54.0324,-110.6358,959.4,296.0,86.3,3.6,0.4,9.28,35.21,1.9434,393.6316],
    [14530,1537393080,54.0324,-110.6345,959.8,294.8,86.5,3.3,0.5,9.44,34.82,1.9438,393.6316],
    [14531,1537393081,54.0325,-110.6333,960.0,295.0,86.2,3.5,0.2,9.29,35.17,1.943,393.465],
    [14532,1537393082,54.0325,-110.632,960.3,295.3,86.6,3.9,0.9,9.46,34.7,1.9428,391.7605],
    [14533,1537393083,54.0326,-110.6308,960.5,295.5,87.1,3.7,1.4,9.82,34.39,1.9433,392.3912],
    [14534,1537393084,54.0326,-110.6296,960.1,295.2,86.6,3.9,0.8,9.02,34.51,1.9427,394.2011],
    [14535,1537393085,54.0327,-110.6283,959.8,294.0,86.9,4.6,1.3,9.37,35.0,1.9429,392.8233],
    [14536,1537393086,54.0327,-110.627,959.7,292.7,86.9,4.6,1.4,9.25,33.77,1.9409,393.6798],
    [14537,1537393087,54.0328,-110.6258,959.6,291.7,86.0,4.5,0.3,9.26,34.19,1.9397,393.6798],
    [14538,1537393088,54.0328,-110.6246,960.2,291.2,86.4,4.0,0.8,9.57,34.39,1.9393,393.8751],
    [14539,1537393089,54.0329,-110.6233,961.5,289.8,87.0,4.0,1.3,8.98,33.48,1.94,393.8162],
    [14540,1537393090,54.0329,-110.6221,961.6,287.6,86.6,4.4,0.5,9.25,33.92,1.9401,393.5603],
    [14541,1537393091,54.033,-110.6208,960.6,282.6,86.5,4.2,0.6,9.39,33.4,1.9361,393.5603],
    [14542,1537393092,54.033,-110.6196,959.2,278.2,87.0,3.8,1.2,9.15,32.39,1.9324,394.1703],
    [14543,1537393093,54.0331,-110.6183,958.4,275.4,87.2,4.1,1.6,9.59,31.79,1.9311,392.6426],
    [14544,1537393094,54.0331,-110.6171,958.2,272.9,87.1,4.5,1.4,9.21,31.12,1.9305,392.9653],
    [14545,1537393095,54.0332,-110.6158,958.0,271.7,86.9,4.5,1.1,9.87,29.96,1.9305,391.9106],
    [14546,1537393096,54.0332,-110.6146,958.0,270.7,86.9,4.2,1.0,9.43,30.01,1.9334,393.092],
    [14547,1537393097,54.0333,-110.6134,957.8,269.4,87.0,4.3,1.1,9.49,28.3,1.935,393.5925],
    [14548,1537393098,54.0333,-110.6121,957.8,270.5,86.9,3.9,0.8,9.0,28.57,1.9389,393.7789],
    [14549,1537393099,54.0333,-110.6109,958.1,272.3,87.4,4.0,1.2,9.3,28.17,1.9437,393.6991],
    [14550,1537393100,54.0334,-110.6096,958.6,275.6,87.5,3.5,1.1,9.44,27.8,1.9453,393.2216],
    [14551,1537393101,54.0334,-110.6084,958.5,279.6,88.0,3.2,1.4,9.41,27.9,1.9469,394.6526],
    [14552,1537393102,54.0335,-110.6073,959.1,287.1,87.6,3.5,0.3,9.11,29.09,1.9477,394.341],
    [14553,1537393103,54.0335,-110.606,960.7,297.9,87.9,4.1,0.7,9.77,28.64,1.9446,393.9676],
    [14554,1537393104,54.0335,-110.6047,960.7,308.2,88.2,3.6,0.7,8.87,29.26,1.9443,393.6675],
    [14555,1537393105,54.0336,-110.6035,959.8,323.0,87.3,3.7,-0.2,9.51,30.12,1.9472,394.4174],
    [14556,1537393106,54.0336,-110.6023,959.1,334.2,87.5,4.7,0.2,9.4,30.72,1.9465,393.1791],
    [14557,1537393107,54.0336,-110.6011,959.1,338.1,87.5,4.3,0.2,9.47,30.28,1.9496,394.5802],
    [14558,1537393108,54.0336,-110.5998,959.0,342.3,88.1,4.1,0.9,10.12,30.39,1.95,394.5299],
    [14559,1537393109,54.0337,-110.5987,958.9,347.9,89.2,4.5,1.8,9.41,31.57,1.95,394.9253],
    [14560,1537393110,54.0337,-110.5974,960.1,353.0,89.6,4.2,1.9,9.36,31.73,1.9489,393.8128],
    [14561,1537393111,54.0337,-110.5962,961.1,357.1,90.3,4.3,2.4,9.48,31.6,1.9454,394.8431],
    [14562,1537393112,54.0337,-110.5949,961.5,360.4,89.8,3.9,1.8,9.21,32.09,1.9457,393.9672],
    [14563,1537393113,54.0338,-110.5937,961.4,363.4,89.3,3.4,1.2,9.28,32.11,1.9464,393.7908],
    [14564,1537393114,54.0338,-110.5925,961.2,365.2,88.5,3.3,0.7,9.56,31.94,1.9466,393.5655],
    [14565,1537393115,54.0338,-110.5913,961.4,366.4,88.5,4.1,0.8,9.27,32.43,1.9493,394.23],
    [14566,1537393116,54.0338,-110.5901,961.9,365.9,88.0,4.2,0.3,9.29,32.79,1.947,393.6795],
    [14567,1537393117,54.0339,-110.589,961.7,365.7,88.0,4.8,0.3,9.6,32.35,1.9457,393.5139],
    [14568,1537393118,54.0339,-110.5877,960.4,365.4,88.1,4.3,0.2,8.99,33.24,1.9474,393.3916],
    [14569,1537393119,54.0339,-110.5865,960.1,366.2,88.0,3.6,0.0,9.27,33.38,1.9483,393.4898],
    [14570,1537393120,54.0339,-110.5852,960.9,365.9,88.4,4.0,0.3,9.18,33.62,1.9513,394.2175],
    [14571,1537393121,54.0339,-110.584,960.9,366.4,88.2,3.9,-0.2,8.77,34.21,1.9503,394.0951],
    [14572,1537393122,54.034,-110.5828,959.6,365.3,88.2,4.0,-0.4,8.8,34.2,1.9478,394.0869],
    [14573,1537393123,54.034,-110.5816,958.4,361.7,88.8,4.1,-0.1,8.76,34.61,1.948,392.5831],
    [14574,1537393124,54.034,-110.5804,958.0,353.4,89.0,3.9,-0.1,9.19,34.62,1.9481,395.3269],
    [14575,1537393125,54.034,-110.5792,958.4,339.9,88.6,4.6,-0.7,8.59,34.78,1.9474,393.4827],
    [14576,1537393126,54.034,-110.5779,959.0,328.3,89.0,4.4,-0.1,9.2,35.06,1.947,394.5054],
    [14577,1537393127,54.034,-110.5767,958.8,321.2,89.6,5.1,0.6,9.79,34.34,1.9456,391.2285],
    [14578,1537393128,54.034,-110.5755,958.4,315.4,89.3,4.6,0.4,9.16,35.12,1.9463,392.9649],
    [14579,1537393129,54.034,-110.5743,958.5,312.1,89.8,4.4,0.9,9.56,34.24,1.9455,393.1328],
    [14580,1537393130,54.0341,-110.573,959.2,309.3,90.0,4.5,1.3,9.26,35.41,1.9434,392.9692],
    [14581,1537393131,54.0341,-110.5718,959.9,305.0,89.7,4.6,0.9,9.75,34.29,1.9492,393.2702],
    [14582,1537393132,54.0341,-110.5706,960.4,295.6,89.2,3.8,0.6,10.01,33.89,1.951,392.9704],
    [14583,1537393133,54.0341,-110.5694,960.3,298.5,89.6,4.2,1.3,8.62,34.37,1.9479,391.6815],
    [14584,1537393134,54.0341,-110.5682,959.2,306.3,89.2,4.1,0.7,8.89,34.21,1.9464,394.0685],
    [14585,1537393135,54.0341,-110.5669,958.4,313.4,88.6,4.5,0.2,8.68,34.2,1.9473,393.9551],
    [14586,1537393136,54.0342,-110.5657,959.0,315.1,88.6,3.3,0.1,8.92,34.04,1.9484,393.9551],
    [14587,1537393137,54.0342,-110.5645,959.7,315.0,89.0,3.3,0.8,9.3,34.03,1.9491,394.5119],
    [14588,1537393138,54.0342,-110.5633,959.1,307.9,89.8,3.0,1.4,9.15,34.13,1.9497,394.4659],
    [14589,1537393139,54.0342,-110.562,958.3,303.0,89.5,2.2,1.1,9.2,34.16,1.9484,394.6763],
    [14590,1537393140,54.0342,-110.5608,959.4,303.4,89.8,2.8,1.6,8.89,34.47,1.9475,393.8994],
    [14591,1537393141,54.0342,-110.5596,960.6,302.9,90.1,2.6,2.1,9.31,33.82,1.9472,394.6904],
    [14592,1537393142,54.0343,-110.5584,961.1,303.1,89.7,3.6,1.6,9.37,34.57,1.9483,393.8008],
    [14593,1537393143,54.0343,-110.5572,961.6,306.6,89.2,4.1,1.4,9.45,33.68,1.9469,394.9052],
    [14594,1537393144,54.0343,-110.556,961.8,307.7,89.5,4.6,1.7,9.04,34.03,1.9464,394.9052],
    [14595,1537393145,54.0343,-110.5548,961.6,308.6,89.4,4.4,1.6,9.52,33.47,1.9497,394.4347],
    [14596,1537393146,54.0343,-110.5536,961.0,309.0,89.8,3.7,2.1,9.44,33.58,1.9483,392.8538],
    [14597,1537393147,54.0344,-110.5524,961.3,310.3,89.8,4.3,2.2,9.29,34.71,1.9478,392.8538],
    [14598,1537393148,54.0344,-110.5512,961.9,310.9,89.7,4.2,2.0,9.25,33.73,1.9473,393.8993],
    [14599,1537393149,54.0344,-110.5499,962.1,311.1,89.0,4.6,1.2,9.82,33.37,1.948,393.8993],
    [14600,1537393150,54.0344,-110.5488,961.9,310.9,88.7,4.4,1.0,9.61,33.47,1.9476,393.6975],
    [14601,1537393151,54.0345,-110.5475,961.5,310.5,88.6,4.3,0.8,8.47,33.83,1.9503,391.1869],
    [14602,1537393152,54.0345,-110.5463,961.4,309.4,88.4,3.9,0.5,8.88,34.21,1.9529,394.9366],
    [14603,1537393153,54.0345,-110.545,961.9,310.9,88.5,2.7,0.5,9.07,33.59,1.9584,394.9366],
    [14604,1537393154,54.0345,-110.5438,963.2,313.2,88.3,2.2,-0.1,9.06,33.69,1.9485,394.2391],
    [14605,1537393155,54.0345,-110.5426,964.1,315.1,88.4,2.0,-0.4,9.11,33.9,1.9482,393.1988],
    [14606,1537393156,54.0346,-110.5413,964.3,316.3,89.0,1.1,0.1,9.27,34.54,1.9496,393.5976],
    [14607,1537393157,54.0346,-110.5401,964.2,317.2,88.9,2.2,-0.4,8.83,33.99,1.9523,394.1873],
    [14608,1537393158,54.0346,-110.5388,964.8,316.8,88.5,2.6,-0.5,9.26,33.82,1.9598,393.2557],
    [14609,1537393159,54.0346,-110.5377,964.7,315.7,89.0,2.7,0.0,8.83,34.44,1.9589,393.2557],
    [14610,1537393160,54.0346,-110.5364,963.7,312.7,88.5,4.5,-0.8,8.82,34.24,1.949,393.3789],
    [14611,1537393161,54.0346,-110.5351,962.0,310.0,88.4,4.2,-0.9,8.72,34.46,1.9479,393.3789],
    [14612,1537393162,54.0346,-110.5338,960.1,308.1,89.1,3.6,0.2,9.27,35.33,1.9519,393.1568],
    [14613,1537393163,54.0346,-110.5326,958.8,307.8,88.4,4.3,-0.2,9.41,34.21,1.9483,394.5742],
    [14614,1537393164,54.0347,-110.5314,958.0,308.0,87.5,4.5,-0.8,9.18,34.52,1.9497,393.3402],
    [14615,1537393165,54.0347,-110.53,957.6,307.6,86.7,4.3,-1.3,9.11,34.45,1.9483,393.7396],
    [14616,1537393166,54.0347,-110.5288,957.7,306.7,87.5,4.7,-0.5,9.8,34.27,1.9468,393.3714],
    [14617,1537393167,54.0347,-110.5275,957.9,305.9,87.2,4.8,-1.2,9.35,34.16,1.9461,394.5673],
    [14618,1537393168,54.0348,-110.5262,957.8,306.1,88.0,3.7,-0.6,9.0,34.46,1.9444,393.5347],
    [14619,1537393169,54.0348,-110.525,956.6,305.0,88.6,3.8,-0.5,8.97,34.26,1.9418,393.7934],
    [14620,1537393170,54.0348,-110.5237,956.3,304.3,88.9,4.0,-0.8,8.67,34.06,1.94,393.7934],
    [14621,1537393171,54.0348,-110.5225,957.1,305.2,89.7,4.2,-0.2,9.13,33.72,1.9401,394.5855],
    [14622,1537393172,54.0348,-110.5212,957.7,305.8,89.7,3.9,-0.4,9.2,33.55,1.9405,393.5296],
    [14623,1537393173,54.0348,-110.5199,958.3,306.3,89.5,4.1,-0.8,9.29,33.13,1.941,393.7575],
    [14624,1537393174,54.0348,-110.5187,958.6,306.6,89.8,3.8,-0.5,9.81,32.5,1.9416,393.7575],
    [14625,1537393175,54.0348,-110.5174,959.0,307.0,89.2,3.9,-1.4,8.95,32.03,1.9418,394.9226],
    [14626,1537393176,54.0348,-110.5162,960.5,308.5,88.3,4.6,-3.0,9.2,32.21,1.9455,393.7117],
    [14627,1537393177,54.0348,-110.5149,963.3,310.4,87.9,6.1,-3.1,9.44,32.49,1.9473,393.4985],
    [14628,1537393178,54.0348,-110.5137,965.0,311.1,90.6,4.4,0.0,9.22,31.89,1.9503,395.1662],
    [14629,1537393179,54.0348,-110.5124,966.1,311.2,90.0,4.5,-1.3,9.09,32.2,1.9517,395.5633],
    [14630,1537393180,54.0348,-110.5111,966.8,312.1,90.0,2.9,-0.8,9.32,33.21,1.9511,395.5633],
    [14631,1537393181,54.0347,-110.5099,966.6,313.8,91.3,2.9,0.6,9.33,33.51,1.9506,395.095],
    [14632,1537393182,54.0347,-110.5086,965.5,314.6,91.4,3.3,1.5,9.83,33.0,1.9499,393.9952],
    [14633,1537393183,54.0347,-110.5073,963.5,313.6,92.2,2.6,2.8,9.45,33.63,1.9512,393.9952],
    [14634,1537393184,54.0347,-110.5061,961.9,310.9,90.8,1.7,2.0,9.78,33.33,1.9519,394.9534],
    [14635,1537393185,54.0347,-110.5048,961.0,309.0,88.9,1.5,0.1,8.99,33.78,1.9513,393.967],
    [14636,1537393186,54.0348,-110.5035,961.2,307.3,87.0,3.0,-1.6,9.03,34.16,1.9504,393.1405],
    [14637,1537393187,54.0348,-110.5022,961.3,306.2,86.6,1.0,-1.6,8.69,34.36,1.9537,393.1281],
    [14638,1537393188,54.0348,-110.5009,962.4,306.2,86.5,1.5,-1.6,9.41,34.99,1.9559,395.0454],
    [14639,1537393189,54.0349,-110.4996,963.6,306.8,86.9,2.3,-0.8,9.35,34.83,1.955,394.5766],
    [14640,1537393190,54.0349,-110.4984,963.8,308.8,88.7,3.2,1.1,9.4,35.76,1.9529,395.6372],
    [14641,1537393191,54.0349,-110.4971,963.2,312.3,89.5,3.6,1.3,9.37,35.59,1.9539,395.6372],
    [14642,1537393192,54.0349,-110.4958,962.4,314.9,90.9,3.0,1.7,9.21,35.56,1.9543,394.8978],
    [14643,1537393193,54.0349,-110.4945,961.0,313.9,90.9,1.8,0.8,9.3,35.79,1.9542,393.2159],
    [14644,1537393194,54.0349,-110.4932,960.0,312.9,91.1,3.2,0.7,9.4,35.9,1.9534,394.2217],
    [14645,1537393195,54.0349,-110.4919,958.8,311.8,91.2,3.9,0.2,9.56,35.99,1.9505,395.2322],
    [14646,1537393196,54.0349,-110.4906,956.9,309.1,90.2,3.8,-1.4,9.07,35.81,1.9512,392.7656],
    [14647,1537393197,54.0349,-110.4893,955.2,307.2,89.8,3.7,-2.0,9.17,35.87,1.9499,393.661],
    [14648,1537393198,54.0349,-110.488,954.5,306.5,90.1,2.8,-1.4,9.63,35.89,1.9509,394.5753],
    [14649,1537393199,54.0348,-110.4868,954.5,305.4,90.0,3.7,-1.5,9.79,35.12,1.95,393.8424],
    [14650,1537393200,54.0348,-110.4855,954.3,306.3,89.5,3.8,-2.0,9.48,36.55,1.9515,391.7993],
    [14651,1537393201,54.0348,-110.4842,954.8,307.1,89.3,3.9,-2.0,8.82,35.92,1.949,391.7993],
    [14652,1537393202,54.0348,-110.4829,956.0,310.0,89.2,3.7,-1.9,9.43,35.9,1.9509,393.4655],
    [14653,1537393203,54.0348,-110.4817,957.7,312.5,89.2,4.0,-1.8,9.76,35.84,1.9495,393.5152],
    [14654,1537393204,54.0348,-110.4804,959.1,314.1,88.4,3.4,-2.5,9.74,35.9,1.95,393.4562],
    [14655,1537393205,54.0348,-110.4791,959.5,314.2,88.5,3.4,-2.4,9.38,36.5,1.9493,393.3954],
    [14656,1537393206,54.0348,-110.4779,960.0,314.7,87.5,5.3,-3.6,8.82,36.32,1.9504,392.3797],
    [14657,1537393207,54.0348,-110.4766,962.0,316.0,87.2,3.7,-3.2,8.71,36.16,1.9512,393.5827],
    [14658,1537393208,54.0348,-110.4754,962.7,316.7,88.4,3.9,-2.2,8.97,36.21,1.9503,394.8661],
    [14659,1537393209,54.0348,-110.4741,962.9,315.9,87.2,3.1,-3.8,9.03,36.32,1.9519,392.6978],
    [14660,1537393210,54.0348,-110.4729,962.8,316.9,88.1,3.2,-2.9,9.5,36.28,1.9504,393.6392],
    [14661,1537393211,54.0348,-110.4716,961.9,316.9,88.5,3.4,-2.8,9.54,36.59,1.9514,394.0829],
    [14662,1537393212,54.0348,-110.4703,960.9,316.9,88.8,3.9,-2.7,9.26,36.48,1.9508,394.0085],
    [14663,1537393213,54.0348,-110.4691,961.0,316.2,89.2,3.7,-2.7,10.04,36.25,1.9495,394.4074],
    [14664,1537393214,54.0348,-110.4678,961.0,315.7,88.9,3.0,-3.4,9.32,37.22,1.9486,393.5965],
    [14665,1537393215,54.0347,-110.4665,960.7,314.7,89.7,3.2,-2.8,9.54,36.8,1.95,393.8447],
    [14666,1537393216,54.0347,-110.4653,960.9,314.9,89.2,2.8,-3.5,9.52,36.86,1.9502,394.3092],
    [14667,1537393217,54.0347,-110.464,960.4,314.4,90.1,2.7,-2.0,9.93,35.99,1.9489,394.3618],
    [14668,1537393218,54.0347,-110.4628,959.8,313.8,89.8,3.5,-1.9,9.33,36.28,1.9503,394.3618],
    [14669,1537393219,54.0347,-110.4615,959.5,313.5,89.3,3.0,-1.8,9.43,36.51,1.9503,395.1623],
    [14670,1537393220,54.0347,-110.4603,959.3,312.3,90.4,2.5,-0.2,8.61,36.61,1.9506,395.1842],
    [14671,1537393221,54.0347,-110.459,959.7,311.7,89.4,3.2,-1.7,8.9,36.84,1.9499,394.4641],
    [14672,1537393222,54.0347,-110.4578,960.1,312.1,88.4,1.8,-2.5,9.47,36.02,1.9497,394.8708],
    [14673,1537393223,54.0346,-110.4565,959.8,312.8,88.9,2.2,-1.8,9.6,36.0,1.9473,394.7519],
    [14674,1537393224,54.0346,-110.4552,959.0,312.0,89.6,2.1,-1.0,9.24,36.74,1.9465,393.8422],
    [14675,1537393225,54.0346,-110.454,958.8,311.8,89.2,2.8,-1.4,9.82,36.3,1.9493,394.2076],
    [14676,1537393226,54.0346,-110.4527,959.1,312.1,88.8,3.3,-2.2,9.23,36.43,1.9492,394.9533],
    [14677,1537393227,54.0346,-110.4515,959.4,312.4,88.6,2.3,-2.2,9.9,35.85,1.9488,393.2263],
    [14678,1537393228,54.0346,-110.4502,959.0,313.0,89.8,2.5,-0.9,9.15,36.07,1.9485,394.286],
    [14679,1537393229,54.0346,-110.449,959.0,313.0,89.9,2.8,-0.9,9.65,36.25,1.9482,393.4781],
    [14680,1537393230,54.0346,-110.4478,959.2,312.1,90.1,3.3,-0.8,9.2,36.0,1.9483,395.1161],
    [14681,1537393231,54.0346,-110.4465,959.3,311.3,90.3,4.1,-0.4,9.29,35.47,1.9492,395.3],
    [14682,1537393232,54.0346,-110.4453,959.1,311.1,90.2,4.0,-0.7,9.58,35.26,1.9499,395.3062],
    [14683,1537393233,54.0346,-110.444,958.8,310.8,89.1,3.2,-1.7,9.24,35.78,1.9491,393.9315],
    [14684,1537393234,54.0346,-110.4428,958.9,310.9,89.2,2.9,-1.5,9.31,35.69,1.95,394.5419],
    [14685,1537393235,54.0346,-110.4416,959.0,311.0,88.8,1.7,-2.0,9.16,35.8,1.9507,394.4698],
    [14686,1537393236,54.0346,-110.4403,959.9,311.9,89.4,1.9,-1.3,9.43,35.68,1.9506,394.8195],
    [14687,1537393237,54.0346,-110.4391,961.0,313.0,90.0,2.2,-0.9,9.37,35.57,1.9498,394.712],
    [14688,1537393238,54.0346,-110.4379,961.4,312.4,89.5,2.8,-1.3,9.49,35.54,1.9495,393.9928],
    [14689,1537393239,54.0346,-110.4366,960.8,311.1,89.9,2.9,-0.6,9.26,36.37,1.9506,394.0925],
    [14690,1537393240,54.0346,-110.4354,960.3,310.3,89.4,2.7,-0.8,9.34,36.8,1.9492,393.5356],
    [14691,1537393241,54.0346,-110.4342,960.2,310.2,88.6,2.3,-1.4,9.18,36.4,1.9487,395.1069],
    [14692,1537393242,54.0346,-110.4329,960.2,310.2,88.2,1.7,-1.5,9.62,35.41,1.9479,394.2634],
    [14693,1537393243,54.0346,-110.4317,960.3,310.3,88.3,1.4,-1.4,9.7,35.63,1.9481,394.2634],
    [14694,1537393244,54.0346,-110.4305,960.6,310.6,88.4,1.6,-1.4,8.83,36.38,1.9499,395.2634],
    [14695,1537393245,54.0346,-110.4292,960.8,310.8,88.8,2.0,-1.1,9.87,35.75,1.9484,395.244],
    [14696,1537393246,54.0346,-110.428,960.7,309.7,89.1,2.0,-1.0,8.86,36.02,1.9486,394.2047],
    [14697,1537393247,54.0346,-110.4268,960.5,309.5,89.2,2.6,-1.2,9.4,35.62,1.9481,394.5812],
    [14698,1537393248,54.0346,-110.4256,960.1,310.1,88.8,2.3,-1.7,8.95,36.12,1.9474,394.5812],
    [14699,1537393249,54.0346,-110.4243,959.3,310.3,88.8,2.5,-1.8,9.92,35.36,1.9482,394.795],
    [14700,1537393250,54.0346,-110.4231,958.5,309.5,88.7,3.1,-1.7,9.12,35.68,1.9496,394.29],
    [14701,1537393251,54.0346,-110.4219,958.3,310.3,89.3,3.6,-1.4,9.67,35.12,1.9489,394.1864],
    [14702,1537393252,54.0346,-110.4206,958.2,309.2,89.0,3.7,-1.7,9.89,34.92,1.9495,394.2557],
    [14703,1537393253,54.0346,-110.4194,958.0,309.0,89.9,3.8,-0.7,8.89,35.54,1.9484,394.2105],
    [14704,1537393254,54.0346,-110.4182,958.0,309.1,89.9,4.2,-0.8,9.43,35.06,1.9497,395.3312],
    [14705,1537393255,54.0346,-110.417,957.9,307.9,89.5,3.5,-1.2,9.14,36.08,1.9488,394.7044],
    [14706,1537393256,54.0346,-110.4157,957.9,306.9,89.2,3.8,-1.6,9.26,36.16,1.9475,395.6775],
    [14707,1537393257,54.0346,-110.4145,958.1,307.1,88.8,3.7,-1.9,9.6,35.26,1.9499,395.5247],
    [14708,1537393258,54.0346,-110.4133,959.2,309.2,89.4,3.3,-1.0,9.1,35.53,1.9512,395.5242],
    [14709,1537393259,54.0346,-110.412,960.6,311.6,89.1,4.0,-1.4,9.44,35.64,1.9505,395.5228],
    [14710,1537393260,54.0346,-110.4108,961.0,313.0,89.0,4.2,-1.5,8.76,35.6,1.951,394.9307],
    [14711,1537393261,54.0346,-110.4096,960.0,312.0,89.0,4.4,-1.6,9.9,35.19,1.9498,394.3306],
    [14712,1537393262,54.0346,-110.4084,959.0,312.0,88.8,5.0,-1.8,8.94,35.5,1.9501,395.7867],
    [14713,1537393263,54.0346,-110.4072,958.6,312.6,89.1,3.8,-1.4,9.07,35.6,1.9495,395.2129],
    [14714,1537393264,54.0346,-110.406,958.9,312.9,88.8,4.0,-1.8,9.52,35.46,1.9486,395.1413],
    [14715,1537393265,54.0346,-110.4047,958.9,312.9,89.0,3.2,-1.5,8.82,35.73,1.9479,393.988],
    [14716,1537393266,54.0346,-110.4035,958.5,312.5,89.3,3.2,-1.3,9.04,35.47,1.9481,394.6129],
    [14717,1537393267,54.0345,-110.4023,958.2,313.2,89.6,3.3,-1.1,9.72,35.8,1.9489,393.5061],
    [14718,1537393268,54.0345,-110.4011,958.5,314.5,89.3,3.5,-1.7,9.02,35.63,1.9482,394.2751],
    [14719,1537393269,54.0345,-110.3999,959.0,316.0,88.8,3.6,-2.2,9.72,35.42,1.949,395.0728],
    [14720,1537393270,54.0345,-110.3986,959.1,319.2,88.8,3.4,-2.2,9.09,36.11,1.9485,394.3889],
    [14721,1537393271,54.0345,-110.3974,958.8,320.7,89.3,4.0,-1.5,8.96,35.79,1.9495,394.0223],
    [14722,1537393272,54.0345,-110.3962,958.7,322.7,89.7,3.9,-1.1,9.26,35.86,1.9511,394.2828],
    [14723,1537393273,54.0345,-110.395,959.1,325.1,89.6,3.9,-1.1,8.79,36.17,1.9502,394.7632],
    [14724,1537393274,54.0345,-110.3938,959.2,325.2,89.4,4.0,-1.4,9.1,35.83,1.9509,394.2602],
    [14725,1537393275,54.0345,-110.3925,959.4,324.4,89.4,4.0,-1.2,9.01,35.77,1.9514,396.3601],
    [14726,1537393276,54.0345,-110.3913,959.5,322.5,89.3,4.0,-1.3,9.58,35.66,1.9507,394.9703],
    [14727,1537393277,54.0345,-110.3901,959.5,321.2,89.0,4.3,-1.6,9.09,35.65,1.9491,394.5651],
    [14728,1537393278,54.0345,-110.3889,959.2,319.2,88.8,4.4,-1.7,8.67,35.82,1.9492,395.1909],
    [14729,1537393279,54.0345,-110.3877,959.0,318.0,88.7,4.3,-1.7,9.19,36.25,1.9504,393.9924],
    [14730,1537393280,54.0345,-110.3864,959.0,316.3,89.0,4.3,-1.3,8.48,35.84,1.9502,395.4782],
    [14731,1537393281,54.0345,-110.3852,959.1,313.9,88.9,4.8,-1.6,9.21,36.52,1.9491,395.4603],
    [14732,1537393282,54.0345,-110.384,959.1,310.1,89.0,5.1,-1.6,8.93,36.15,1.9509,395.2254],
    [14733,1537393283,54.0345,-110.3828,958.9,306.9,89.1,5.0,-1.6,9.08,35.69,1.9513,395.5367],
    [14734,1537393284,54.0345,-110.3816,958.7,303.7,88.7,5.6,-2.0,9.2,36.01,1.9511,394.8665],
    [14735,1537393285,54.0345,-110.3804,958.9,302.9,88.6,4.7,-2.0,8.92,35.71,1.9505,395.2527],
    [14736,1537393286,54.0345,-110.3792,959.4,303.4,88.8,4.8,-1.9,8.65,36.15,1.9501,394.8755],
    [14737,1537393287,54.0345,-110.378,959.6,302.6,88.9,4.6,-1.9,9.73,35.24,1.9505,394.8201],
    [14738,1537393288,54.0345,-110.3768,959.1,299.8,89.2,4.1,-1.6,8.89,35.99,1.9504,394.6604],
    [14739,1537393289,54.0345,-110.3755,958.7,296.7,89.3,4.4,-1.6,8.91,36.73,1.9506,394.4764],
    [14740,1537393290,54.0345,-110.3743,958.9,295.9,89.5,4.3,-1.3,8.9,35.95,1.9494,395.2166],
    [14741,1537393291,54.0345,-110.3731,959.1,296.1,89.7,4.4,-1.0,9.17,36.03,1.9495,395.0052],
    [14742,1537393292,54.0345,-110.3719,959.3,297.4,89.6,4.8,-0.9,8.97,36.17,1.9486,395.8278],
    [14743,1537393293,54.0344,-110.3707,959.0,298.0,89.7,4.9,-0.8,9.12,36.86,1.9486,395.2074],
    [14744,1537393294,54.0344,-110.3695,958.7,299.7,89.2,4.9,-1.3,9.37,36.0,1.9484,395.0112],
    [14745,1537393295,54.0344,-110.3684,958.7,300.8,89.2,4.7,-1.1,9.08,36.03,1.9486,393.7769],
    [14746,1537393296,54.0344,-110.3671,958.5,301.5,89.2,4.6,-1.1,9.31,35.68,1.9494,394.0476],
    [14747,1537393297,54.0344,-110.3659,958.1,303.1,88.6,4.5,-1.9,9.13,36.11,1.9484,395.0435],
    [14748,1537393298,54.0344,-110.3646,958.6,307.0,88.4,5.2,-2.1,9.7,35.31,1.9478,394.3422],
    [14749,1537393299,54.0344,-110.3634,959.8,309.1,88.2,4.2,-2.4,8.99,35.68,1.9472,394.9686],
    [14750,1537393300,54.0344,-110.3622,962.3,312.6,88.5,2.7,-1.6,9.45,35.04,1.9468,394.5613],
    [14751,1537393301,54.0344,-110.361,964.7,315.7,89.8,3.7,-0.3,9.0,35.78,1.9477,393.386],
    [14752,1537393302,54.0344,-110.3598,965.6,316.7,88.5,5.0,-2.0,9.18,35.53,1.9462,393.386],
    [14753,1537393303,54.0344,-110.3586,965.0,316.1,87.9,3.8,-2.4,9.07,35.6,1.9479,394.963],
    [14754,1537393304,54.0344,-110.3574,964.2,316.1,88.6,4.4,-1.4,9.69,35.31,1.9477,394.963],
    [14755,1537393305,54.0345,-110.3562,963.7,316.7,88.2,4.6,-2.0,8.54,35.6,1.9463,393.8469],
    [14756,1537393306,54.0345,-110.3549,963.0,316.0,88.0,4.4,-2.3,9.25,35.53,1.9462,393.8469],
    [14757,1537393307,54.0345,-110.3537,961.3,314.3,88.0,4.9,-2.6,9.19,35.88,1.9474,392.7479],
    [14758,1537393308,54.0345,-110.3525,960.0,312.0,88.1,4.3,-2.7,8.86,35.29,1.9464,393.4571],
    [14759,1537393309,54.0345,-110.3513,959.9,309.9,87.9,4.3,-3.1,9.09,35.89,1.947,394.3366],
    [14760,1537393310,54.0345,-110.35,960.8,307.9,88.5,4.4,-2.6,9.29,35.28,1.9481,394.722],
    [14761,1537393311,54.0344,-110.3489,961.2,307.2,89.1,4.2,-2.0,9.42,35.12,1.9481,394.7226],
    [14762,1537393312,54.0344,-110.3476,960.2,311.0,90.0,3.9,-1.3,9.17,35.09,1.9483,394.9395],
    [14763,1537393313,54.0344,-110.3463,958.9,311.6,89.6,4.9,-2.2,9.44,35.01,1.9491,394.3481],
    [14764,1537393314,54.0344,-110.3451,958.8,309.2,89.1,4.5,-2.6,8.69,35.74,1.9489,395.2178],
    [14765,1537393315,54.0344,-110.3438,958.7,306.3,89.6,5.2,-2.0,8.79,35.42,1.9492,396.4188],
    [14766,1537393316,54.0344,-110.3426,957.9,304.7,89.5,5.4,-2.3,9.17,35.5,1.9495,396.0419],
    [14767,1537393317,54.0344,-110.3414,957.5,303.5,89.1,5.4,-2.7,9.13,36.18,1.9499,394.8171],
    [14768,1537393318,54.0344,-110.3401,957.5,303.2,89.5,5.3,-2.1,9.24,35.32,1.9494,393.5157],
    [14769,1537393319,54.0343,-110.3389,957.8,302.8,89.3,5.5,-2.4,9.0,35.74,1.9481,394.3316],
    [14770,1537393320,54.0343,-110.3376,958.9,303.9,89.0,3.9,-2.6,9.04,35.62,1.9471,392.6623],
    [14771,1537393321,54.0343,-110.3364,959.6,304.6,89.3,2.9,-2.2,8.84,35.72,1.9461,392.9058],
    [14772,1537393322,54.0343,-110.3352,960.0,306.1,90.3,3.0,-1.2,9.11,35.56,1.9457,393.2864],
    [14773,1537393323,54.0343,-110.3339,960.6,306.6,90.6,3.2,-1.1,8.61,35.36,1.9438,392.8194],
    [14774,1537393324,54.0343,-110.3327,962.3,307.3,89.6,4.1,-2.1,9.36,35.2,1.9425,394.043],
    [14775,1537393325,54.0343,-110.3314,963.4,307.6,89.9,4.5,-1.3,9.27,35.31,1.9436,393.6662],
    [14776,1537393326,54.0342,-110.3302,962.8,303.5,89.6,4.7,-1.4,8.43,34.96,1.9443,394.6633],
    [14777,1537393327,54.0342,-110.329,961.7,299.9,88.9,5.1,-2.0,8.55,34.75,1.9442,393.836],
    [14778,1537393328,54.0342,-110.3277,961.2,298.2,88.6,5.2,-2.2,8.94,34.58,1.9425,393.3367],
    [14779,1537393329,54.0342,-110.3265,961.3,297.3,88.6,4.8,-2.3,8.61,34.54,1.9427,393.3367],
    [14780,1537393330,54.0342,-110.3252,961.3,297.3,88.7,4.7,-2.3,8.93,34.99,1.9455,393.1447],
    [14781,1537393331,54.0342,-110.324,960.1,295.0,88.3,4.6,-2.8,9.02,34.2,1.9447,395.3338],
    [14782,1537393332,54.0342,-110.3228,958.5,292.8,88.9,5.0,-2.3,8.94,34.12,1.9437,395.0791],
    [14783,1537393333,54.0342,-110.3215,958.3,293.7,89.0,5.6,-2.5,9.75,33.57,1.944,393.8241],
    [14784,1537393334,54.0342,-110.3203,959.0,295.3,88.3,4.6,-3.5,9.08,33.6,1.943,393.8241],
    [14785,1537393335,54.0342,-110.3191,958.5,295.6,88.7,5.2,-2.8,9.37,33.53,1.9424,394.3178],
    [14786,1537393336,54.0342,-110.3178,957.8,294.6,88.8,5.2,-2.8,9.17,33.3,1.9345,393.7308],
    [14787,1537393337,54.0342,-110.3165,957.7,294.8,88.5,5.0,-3.0,9.31,33.5,1.9355,392.9663],
    [14788,1537393338,54.0342,-110.3153,958.3,296.0,88.4,4.8,-3.1,9.16,32.98,1.9365,393.5793],
    [14789,1537393339,54.0342,-110.314,959.0,297.5,88.7,5.7,-2.7,9.23,32.15,1.9364,393.6785],
    [14790,1537393340,54.0341,-110.3129,958.8,298.4,89.2,5.3,-2.2,9.31,32.32,1.9382,393.7311],
    [14791,1537393341,54.0341,-110.3116,958.9,299.5,89.2,5.3,-2.4,9.26,30.98,1.9422,394.1264],
    [14792,1537393342,54.0341,-110.3103,959.4,301.0,88.8,4.9,-2.9,9.69,30.09,1.9412,394.8173],
    [14793,1537393343,54.0341,-110.3091,959.8,301.8,88.8,4.3,-2.9,9.21,30.51,1.9471,394.8173],
    [14794,1537393344,54.0341,-110.3078,959.8,301.6,89.1,4.0,-2.7,8.81,30.88,1.9464,394.7864],
    [14795,1537393345,54.0341,-110.3066,960.0,299.6,88.8,4.3,-3.2,8.86,30.94,1.9442,393.2096],
    [14796,1537393346,54.0341,-110.3054,960.4,300.1,88.7,4.2,-3.2,9.64,31.06,1.9473,393.7205],
    [14797,1537393347,54.0341,-110.3041,960.8,300.5,89.1,4.1,-2.7,9.22,32.16,1.9441,395.2705],
    [14798,1537393348,54.034,-110.3029,961.4,301.1,88.9,4.3,-2.9,8.87,31.82,1.9463,395.4722],
    [14799,1537393349,54.034,-110.3017,962.7,302.4,88.9,3.1,-2.6,9.16,32.04,1.9466,394.2981],
    [14800,1537393350,54.034,-110.3004,963.1,302.0,90.2,2.6,-1.2,9.1,32.23,1.9502,395.4757],
    [14801,1537393351,54.034,-110.2991,963.5,303.4,89.7,3.0,-2.0,9.17,32.11,1.9499,395.1497],
    [14802,1537393352,54.034,-110.2979,963.2,304.1,89.8,2.5,-1.8,8.86,32.29,1.9497,394.3481],
    [14803,1537393353,54.034,-110.2966,962.7,304.7,90.2,3.1,-1.4,9.32,32.68,1.9499,395.2536],
    [14804,1537393354,54.034,-110.2954,961.8,303.8,89.5,2.9,-1.9,9.21,33.24,1.9525,393.9342],
    [14805,1537393355,54.034,-110.2941,961.6,302.6,90.1,2.5,-0.9,9.1,34.03,1.9493,393.8095],
    [14806,1537393356,54.0339,-110.2929,961.6,301.6,89.3,2.9,-1.8,8.94,34.1,1.9484,392.9338],
    [14807,1537393357,54.0339,-110.2916,961.3,299.4,89.2,2.0,-1.9,9.05,34.3,1.9483,394.7326],
    [14808,1537393358,54.0339,-110.2904,960.6,297.9,89.0,2.5,-2.0,9.17,35.15,1.9467,394.7326],
    [14809,1537393359,54.0339,-110.2892,960.1,297.1,89.3,2.5,-1.7,8.68,34.75,1.9467,394.3253],
    [14810,1537393360,54.0339,-110.2879,960.0,296.7,89.0,3.2,-1.8,8.9,34.52,1.9462,393.355],
    [14811,1537393361,54.0339,-110.2866,960.1,295.8,89.2,3.2,-1.3,9.21,35.1,1.9472,393.355],
    [14812,1537393362,54.0339,-110.2853,959.6,295.3,89.2,3.4,-1.1,9.18,34.56,1.9469,394.5116],
    [14813,1537393363,54.0339,-110.2842,959.0,294.7,89.4,3.7,-0.8,9.49,34.09,1.9456,393.8818],
    [14814,1537393364,54.0339,-110.2828,958.9,293.8,89.0,3.8,-1.1,9.55,34.59,1.9463,393.5266],
    [14815,1537393365,54.0339,-110.2816,959.2,293.3,88.3,4.4,-1.6,8.77,34.93,1.946,394.5994],
    [14816,1537393366,54.0339,-110.2803,959.5,293.5,88.1,4.2,-1.5,9.18,35.01,1.9448,392.7757],
    [14817,1537393367,54.0339,-110.2792,959.5,289.8,88.0,4.3,-1.5,8.91,34.82,1.9462,393.7825],
    [14818,1537393368,54.034,-110.2778,959.1,288.1,87.8,4.5,-1.6,9.99,34.2,1.9452,393.5371],
    [14819,1537393369,54.034,-110.2765,958.6,287.8,87.9,4.1,-1.4,8.91,35.13,1.9448,394.0197],
    [14820,1537393370,54.034,-110.2753,958.5,288.8,88.0,4.3,-1.4,8.99,34.64,1.9454,395.5872],
    [14821,1537393371,54.034,-110.2741,958.7,289.1,87.5,4.2,-1.7,9.45,34.15,1.9442,395.5872],
    [14822,1537393372,54.034,-110.2728,959.0,288.3,88.2,4.1,-0.7,9.26,34.9,1.9439,394.7147],
    [14823,1537393373,54.034,-110.2715,959.3,288.7,88.0,4.4,-1.0,8.94,34.61,1.9436,394.9108],
    [14824,1537393374,54.034,-110.2703,959.9,289.2,87.7,4.3,-1.2,9.73,33.85,1.9447,395.4334],
    [14825,1537393375,54.0341,-110.2691,960.4,289.7,87.6,4.8,-1.1,9.09,34.23,1.9457,395.458],
    [14826,1537393376,54.0341,-110.2678,960.7,290.0,87.1,4.5,-1.6,8.97,33.99,1.9437,394.0033],
    [14827,1537393377,54.0341,-110.2666,960.6,290.7,87.1,4.1,-1.5,9.3,34.4,1.9449,394.1575],
    [14828,1537393378,54.0341,-110.2655,960.4,289.7,87.1,4.4,-1.6,9.54,33.73,1.9425,394.8995],
    [14829,1537393379,54.0342,-110.2641,960.2,289.3,87.3,4.6,-1.4,9.19,34.46,1.9457,394.5333],
    [14830,1537393380,54.0342,-110.2628,959.9,288.8,87.7,4.0,-1.2,9.02,34.01,1.9462,393.4266],
    [14831,1537393381,54.0342,-110.2616,960.8,289.8,87.4,3.8,-1.5,9.34,33.65,1.9473,394.1984],
    [14832,1537393382,54.0342,-110.2603,961.7,290.7,87.5,3.8,-1.4,9.03,33.92,1.9468,395.0812],
    [14833,1537393383,54.0342,-110.2591,961.6,288.7,87.4,4.0,-1.3,9.32,33.76,1.9482,395.0812],
    [14834,1537393384,54.0342,-110.2578,961.2,285.5,87.4,4.1,-1.2,8.97,34.53,1.9484,395.3778],
    [14835,1537393385,54.0343,-110.2566,961.5,284.5,87.1,4.0,-1.4,9.48,34.17,1.9476,394.7359],
    [14836,1537393386,54.0343,-110.2553,961.4,284.3,87.1,4.7,-1.2,8.95,35.2,1.9474,393.6078],
    [14837,1537393387,54.0343,-110.2541,960.3,285.7,87.3,5.2,-1.1,8.62,34.92,1.9429,394.3407],
    [14838,1537393388,54.0343,-110.2528,959.0,285.9,87.8,4.9,-0.6,9.16,35.18,1.9427,394.7582],
    [14839,1537393389,54.0344,-110.2516,958.2,285.3,87.8,4.9,-0.9,9.23,34.32,1.9438,394.1269],
    [14840,1537393390,54.0344,-110.2503,958.3,285.3,87.7,5.0,-1.0,9.75,34.24,1.9436,394.1269],
    [14841,1537393391,54.0344,-110.249,958.4,285.3,87.9,5.0,-0.9,8.67,34.5,1.9465,393.8113],
    [14842,1537393392,54.0344,-110.2478,959.1,285.4,87.7,5.7,-1.1,9.16,34.12,1.9472,393.7876],
    [14843,1537393393,54.0344,-110.2465,959.4,284.4,87.6,4.9,-1.0,8.85,34.55,1.9445,393.5947],
    [14844,1537393394,54.0345,-110.2453,958.9,283.0,87.7,5.8,-0.8,9.76,34.03,1.9438,395.6326],
    [14845,1537393395,54.0345,-110.2441,958.3,282.3,87.4,5.6,-1.3,8.99,34.32,1.9428,393.8874],
    [14846,1537393396,54.0345,-110.2428,958.2,282.5,87.3,5.7,-1.2,8.91,34.43,1.9429,395.244],
    [14847,1537393397,54.0345,-110.2415,958.5,284.5,87.7,5.6,-0.9,8.99,34.27,1.9451,394.1514],
    [14848,1537393398,54.0345,-110.2403,958.8,286.8,87.3,5.7,-1.4,9.27,34.93,1.9478,393.3106],
    [14849,1537393399,54.0346,-110.239,959.3,288.3,87.3,5.0,-1.3,8.83,34.33,1.9487,393.3106],
    [14850,1537393400,54.0346,-110.2377,959.9,288.9,87.5,5.5,-1.1,9.01,34.24,1.9477,395.0779],
    [14851,1537393401,54.0346,-110.2365,959.9,288.9,88.0,4.9,-0.5,8.78,34.24,1.9465,393.3904],
    [14852,1537393402,54.0346,-110.2353,959.6,288.6,88.5,5.0,0.1,9.17,34.38,1.9444,394.0215],
    [14853,1537393403,54.0346,-110.234,959.6,287.9,88.1,4.6,-0.4,9.8,33.64,1.9452,393.7316],
    [14854,1537393404,54.0347,-110.2327,959.8,286.9,88.0,4.8,-0.4,9.01,34.39,1.9445,393.7316],
    [14855,1537393405,54.0347,-110.2315,960.2,284.2,87.9,5.0,-0.3,9.08,34.55,1.9453,394.8183],
    [14856,1537393406,54.0347,-110.2302,960.4,282.4,87.7,5.4,-0.3,9.63,33.89,1.9458,394.1611],
    [14857,1537393407,54.0347,-110.229,960.4,282.3,87.4,5.3,-0.7,8.62,34.55,1.9454,395.0527],
    [14858,1537393408,54.0347,-110.2277,960.5,283.0,87.4,5.0,-0.8,9.31,34.26,1.9459,395.1857],
    [14859,1537393409,54.0348,-110.2265,960.3,282.3,87.3,5.0,-0.9,8.81,34.52,1.9462,394.4313],
    [14860,1537393410,54.0348,-110.2252,960.2,282.2,87.5,5.0,-0.7,9.19,34.53,1.9452,393.3786],
    [14861,1537393411,54.0348,-110.224,960.3,283.3,87.7,5.6,-0.5,9.41,33.97,1.9463,395.7019],
    [14862,1537393412,54.0348,-110.2227,960.1,283.0,87.5,5.0,-0.8,9.01,34.49,1.9437,394.0623],
    [14863,1537393413,54.0349,-110.2214,959.8,281.8,87.3,4.8,-1.1,9.17,34.49,1.9422,395.2991],
    [14864,1537393414,54.0349,-110.2202,959.8,280.7,87.3,5.1,-1.0,9.05,34.38,1.9424,394.1763],
    [14865,1537393415,54.0349,-110.2189,959.6,280.3,87.8,4.6,-0.4,8.97,34.5,1.9437,394.4417],
    [14866,1537393416,54.0349,-110.2177,959.5,279.5,87.6,4.3,-0.7,9.37,34.26,1.9446,394.4099],
    [14867,1537393417,54.035,-110.2165,959.8,279.7,87.5,4.3,-0.7,9.0,34.25,1.9461,393.9439],
    [14868,1537393418,54.035,-110.2151,960.3,280.2,87.6,4.6,-0.5,9.3,34.66,1.946,394.4383],
    [14869,1537393419,54.035,-110.2139,960.8,279.8,87.8,4.0,-0.4,8.8,33.98,1.9444,394.2786],
    [14870,1537393420,54.035,-110.2127,961.0,279.0,87.5,4.1,-0.8,9.64,34.08,1.9455,395.486],
    [14871,1537393421,54.0351,-110.2114,961.0,278.0,87.1,4.6,-1.3,9.23,34.15,1.9474,395.4002],
    [14872,1537393422,54.0351,-110.2102,960.5,277.5,86.7,4.9,-1.7,9.37,34.36,1.9464,394.3686],
    [14873,1537393423,54.0351,-110.2089,960.1,277.3,87.0,5.0,-1.2,9.35,34.22,1.9458,394.7826],
    [14874,1537393424,54.0351,-110.2077,959.9,277.2,87.4,5.1,-1.0,8.95,34.45,1.9455,393.8564],
    [14875,1537393425,54.0352,-110.2064,960.1,278.1,87.8,4.1,-0.6,9.16,34.24,1.9455,394.6198],
    [14876,1537393426,54.0352,-110.2051,960.2,280.1,88.7,4.3,0.2,9.81,33.86,1.9448,394.2429],
    [14877,1537393427,54.0352,-110.2039,960.2,281.1,88.4,3.9,-0.3,8.9,34.38,1.9445,393.2913],
    [14878,1537393428,54.0352,-110.2027,960.2,280.1,88.5,3.6,-0.1,9.55,34.66,1.945,393.791],
    [14879,1537393429,54.0352,-110.2014,960.2,280.2,88.2,3.7,-0.2,9.23,35.18,1.944,393.9394],
    [14880,1537393430,54.0352,-110.2001,960.3,283.4,88.2,4.3,-0.1,9.12,34.7,1.9444,394.5254],
    [14881,1537393431,54.0353,-110.1989,960.4,286.2,88.1,4.4,0.0,8.6,34.46,1.9459,394.5254],
    [14882,1537393432,54.0353,-110.1977,960.2,290.2,88.0,4.2,0.0,9.2,34.93,1.9455,395.1368],
    [14883,1537393433,54.0353,-110.1964,960.2,292.2,87.7,4.3,-0.3,9.28,35.5,1.9449,394.5821],
    [14884,1537393434,54.0353,-110.1952,960.2,292.2,87.5,4.3,-0.4,9.46,34.67,1.9444,395.8236],
    [14885,1537393435,54.0354,-110.1939,960.2,293.2,87.6,4.1,-0.3,8.54,34.88,1.9426,394.3512],
    [14886,1537393436,54.0354,-110.1927,960.2,293.2,87.6,4.3,-0.1,9.11,35.34,1.9429,393.5285],
    [14887,1537393437,54.0354,-110.1914,960.5,293.5,87.8,3.9,0.1,8.95,34.72,1.9426,394.1181],
    [14888,1537393438,54.0355,-110.1902,960.6,293.6,87.9,4.0,0.1,8.93,34.63,1.9429,394.0791],
    [14889,1537393439,54.0355,-110.189,960.9,292.9,87.8,4.2,0.0,9.45,33.91,1.9436,394.6488],
    [14890,1537393440,54.0355,-110.1877,961.3,294.4,87.8,4.1,-0.1,9.16,35.1,1.9449,394.4422],
    [14891,1537393441,54.0355,-110.1865,961.4,292.7,87.7,4.0,-0.1,9.47,34.2,1.9422,393.9693],
    [14892,1537393442,54.0356,-110.1852,961.4,288.5,87.8,4.2,0.0,8.88,34.15,1.9387,393.6482],
    [14893,1537393443,54.0356,-110.184,961.2,285.7,87.7,4.0,0.0,9.06,34.16,1.9392,393.6482],
    [14894,1537393444,54.0356,-110.1827,960.8,285.2,87.7,4.0,-0.1,9.17,34.19,1.9383,393.3969],
    [14895,1537393445,54.0356,-110.1815,960.4,284.6,87.6,3.9,-0.2,9.13,33.59,1.9389,393.291],
    [14896,1537393446,54.0357,-110.1802,960.3,282.4,87.4,3.8,-0.3,9.08,32.86,1.9381,391.732],
    [14897,1537393447,54.0357,-110.179,960.3,281.4,87.3,3.7,-0.4,9.0,32.84,1.9401,394.4026],
    [14898,1537393448,54.0357,-110.1778,960.4,278.4,87.4,3.6,-0.3,9.06,32.83,1.9407,394.9136],
    [14899,1537393449,54.0358,-110.1765,960.8,277.9,87.5,4.1,-0.2,9.82,31.89,1.9422,394.7184],
    [14900,1537393450,54.0358,-110.1753,961.0,277.0,87.5,4.0,-0.2,9.18,31.86,1.941,394.2358],
    [14901,1537393451,54.0358,-110.174,960.7,276.7,87.6,3.9,-0.1,8.54,31.86,1.9417,393.8341],
    [14902,1537393452,54.0358,-110.1728,960.5,276.2,87.6,4.1,-0.2,9.24,31.26,1.9394,389.3307],
    [14903,1537393453,54.0359,-110.1716,960.5,274.5,87.7,4.2,-0.1,9.41,31.33,1.9413,393.8945],
    [14904,1537393454,54.0359,-110.1704,960.3,273.3,87.3,4.4,-0.6,9.02,31.17,1.9415,394.339],
    [14905,1537393455,54.0359,-110.169,960.0,273.0,87.0,4.0,-0.5,8.85,31.03,1.9416,394.4155],
    [14906,1537393456,54.036,-110.1678,959.6,271.6,87.9,4.0,0.4,8.67,31.2,1.9431,393.8906],
    [14907,1537393457,54.036,-110.1665,959.8,271.8,87.7,3.9,0.2,8.66,31.35,1.9418,395.391],
    [14908,1537393458,54.036,-110.1654,960.1,271.8,88.0,4.1,0.4,9.23,31.08,1.9427,395.4122],
    [14909,1537393459,54.036,-110.164,960.2,272.6,87.9,3.8,0.3,8.68,31.21,1.9419,394.6926],
    [14910,1537393460,54.0361,-110.1628,960.1,273.1,88.1,3.7,0.6,9.37,30.8,1.9443,394.6926],
    [14911,1537393461,54.0361,-110.1616,960.1,273.1,88.1,3.8,0.6,9.74,30.74,1.9453,394.0327],
    [14912,1537393462,54.0361,-110.1603,960.1,273.1,88.2,3.8,0.9,9.01,31.42,1.9437,393.5564],
    [14913,1537393463,54.0362,-110.1591,960.2,272.2,88.0,4.1,0.8,8.83,31.49,1.9441,394.4208],
    [14914,1537393464,54.0362,-110.1578,960.2,272.2,87.7,4.2,0.6,9.35,31.25,1.9443,394.4208],
    [14915,1537393465,54.0362,-110.1566,960.1,273.1,87.5,4.4,0.4,8.79,31.88,1.9451,395.5813],
    [14916,1537393466,54.0363,-110.1554,959.7,273.7,87.3,4.4,0.4,9.03,31.96,1.9452,394.8257],
    [14917,1537393467,54.0363,-110.1541,959.5,273.5,87.2,4.5,0.3,9.63,32.14,1.9441,395.7214],
    [14918,1537393468,54.0363,-110.1529,959.4,274.4,87.1,4.4,0.2,9.08,32.76,1.946,392.7476],
    [14919,1537393469,54.0364,-110.1516,959.4,274.4,87.5,4.3,0.6,9.15,33.33,1.9463,395.0083],
    [14920,1537393470,54.0364,-110.1503,959.5,274.6,87.5,4.1,0.6,9.21,32.55,1.9466,394.2659],
    [14921,1537393471,54.0364,-110.1491,959.7,274.0,87.9,3.8,1.0,9.19,33.91,1.9439,395.2236],
    [14922,1537393472,54.0365,-110.1478,959.9,273.9,87.9,4.1,1.0,8.86,33.1,1.943,395.2236],
    [14923,1537393473,54.0365,-110.1466,960.1,275.2,88.0,4.1,1.2,9.09,33.34,1.9433,393.865],
    [14924,1537393474,54.0366,-110.1454,960.2,276.5,87.9,4.3,1.2,9.11,33.94,1.9433,394.3501],
    [14925,1537393475,54.0366,-110.1441,960.4,278.3,87.8,4.3,1.3,8.95,33.19,1.9438,393.1333],
    [14926,1537393476,54.0366,-110.1429,960.6,279.5,87.8,4.3,1.4,9.12,33.88,1.9439,393.2742],
    [14927,1537393477,54.0367,-110.1416,960.7,280.7,87.6,4.0,1.3,9.68,32.7,1.9455,395.2151],
    [14928,1537393478,54.0367,-110.1404,960.8,280.8,87.4,3.9,1.1,9.4,32.76,1.945,394.1164],
    [14929,1537393479,54.0368,-110.1392,960.9,280.2,87.4,3.9,1.2,9.03,33.59,1.9433,394.3318],
    [14930,1537393480,54.0368,-110.1379,960.8,279.8,87.6,4.1,1.4,9.21,33.35,1.9439,394.8567],
    [14931,1537393481,54.0368,-110.1367,960.5,278.2,87.6,4.1,1.4,8.69,33.29,1.9433,395.0172],
    [14932,1537393482,54.0369,-110.1354,960.3,276.0,87.4,4.3,1.4,8.86,33.76,1.9426,393.8632],
    [14933,1537393483,54.0369,-110.1342,960.0,274.5,87.5,4.4,1.4,8.9,33.38,1.9443,393.7591],
    [14934,1537393484,54.037,-110.1329,959.7,274.7,87.7,4.7,1.6,9.29,33.19,1.9458,393.5153],
    [14935,1537393485,54.037,-110.1317,959.2,275.5,87.9,4.7,1.7,9.68,33.05,1.9457,393.2843],
    [14936,1537393486,54.037,-110.1304,958.8,277.8,88.0,4.6,1.7,9.27,33.25,1.9456,392.5766],
    [14937,1537393487,54.0371,-110.1292,959.0,280.6,88.1,4.5,1.6,9.31,33.24,1.9458,394.1107],
    [14938,1537393488,54.0371,-110.1279,959.2,281.2,88.0,4.7,1.4,9.07,33.72,1.9457,395.0879],
    [14939,1537393489,54.0372,-110.1267,959.6,281.7,87.7,4.7,1.1,9.08,33.73,1.9448,395.0879],
    [14940,1537393490,54.0372,-110.1254,960.1,281.1,87.8,4.7,1.2,8.89,33.89,1.9432,393.1858],
    [14941,1537393491,54.0372,-110.1242,960.1,279.1,87.8,4.6,1.1,8.9,33.86,1.9435,392.1302],
    [14942,1537393492,54.0373,-110.1229,959.9,277.8,87.9,4.8,1.2,9.0,33.94,1.9439,393.0308],
    [14943,1537393493,54.0373,-110.1217,959.7,278.7,88.0,4.8,1.3,8.98,33.71,1.9439,394.6],
    [14944,1537393494,54.0373,-110.1205,959.6,277.3,88.2,5.0,1.5,9.43,33.25,1.9438,394.5499],
    [14945,1537393495,54.0374,-110.1192,959.5,273.8,88.1,5.1,1.3,8.92,33.94,1.9442,393.7525],
    [14946,1537393496,54.0374,-110.118,959.5,272.5,88.1,5.0,1.3,9.19,33.78,1.9434,392.7903],
    [14947,1537393497,54.0374,-110.1167,959.7,274.4,88.0,4.9,1.2,9.0,34.05,1.9386,393.3436],
    [14948,1537393498,54.0375,-110.1155,959.8,272.8,87.8,4.6,1.0,8.82,33.74,1.9364,393.2403],
    [14949,1537393499,54.0375,-110.1142,959.8,270.6,87.7,4.7,1.0,9.13,33.33,1.935,393.724],
    [14950,1537393500,54.0376,-110.113,959.7,268.7,87.6,4.7,0.9,9.14,32.66,1.9334,392.8798],
    [14951,1537393501,54.0376,-110.1117,959.7,266.6,87.7,4.7,0.9,8.87,32.03,1.9318,393.1695],
    [14952,1537393502,54.0376,-110.1105,959.8,263.8,87.7,4.8,0.9,8.66,31.96,1.9324,393.0683],
    [14953,1537393503,54.0377,-110.1092,959.9,261.9,87.8,5.1,0.9,8.96,30.82,1.9323,393.1583],
    [14954,1537393504,54.0377,-110.1079,960.0,261.0,87.8,5.0,0.9,9.01,30.86,1.9322,393.5872],
    [14955,1537393505,54.0377,-110.1067,959.9,261.1,87.9,4.9,0.9,9.08,29.9,1.9343,393.4482],
    [14956,1537393506,54.0378,-110.1055,959.8,263.7,88.0,4.7,0.9,9.08,28.84,1.9373,394.5719],
    [14957,1537393507,54.0378,-110.1042,959.6,266.7,87.9,4.8,0.8,9.05,28.64,1.9377,393.8758],
    [14958,1537393508,54.0378,-110.1031,959.4,270.1,87.8,4.8,0.7,8.88,28.65,1.9371,391.9559],
    [14959,1537393509,54.0379,-110.1017,959.3,272.2,87.7,5.0,0.7,8.6,28.56,1.938,394.6963],
    [14960,1537393510,54.0379,-110.1004,959.2,274.2,87.6,5.1,0.6,8.6,28.55,1.9382,392.9914],
    [14961,1537393511,54.0379,-110.0993,959.2,275.3,87.6,5.3,0.7,9.41,28.46,1.9378,394.49],
    [14962,1537393512,54.038,-110.098,959.2,275.2,87.4,5.1,0.4,9.81,27.9,1.937,393.8918],
    [14963,1537393513,54.038,-110.0967,959.1,277.2,87.4,5.3,0.2,8.95,28.26,1.938,394.3051],
    [14964,1537393514,54.038,-110.0955,959.2,278.2,87.3,5.2,0.1,9.58,27.82,1.9398,394.3702],
    [14965,1537393515,54.0381,-110.0942,959.3,278.6,87.7,5.4,0.4,9.62,28.23,1.9392,394.6194],
    [14966,1537393516,54.0381,-110.093,959.3,279.4,87.5,5.4,-0.1,8.55,28.61,1.9399,394.6194],
    [14967,1537393517,54.0381,-110.0917,959.6,279.2,87.5,5.4,-0.1,9.0,28.62,1.9408,393.3509],
    [14968,1537393518,54.0382,-110.0905,959.6,279.3,87.5,5.3,-0.2,9.2,28.58,1.9403,393.7621],
    [14969,1537393519,54.0382,-110.0892,959.5,279.0,87.7,5.2,0.0,9.36,28.27,1.9397,393.9717],
    [14970,1537393520,54.0382,-110.0879,959.4,278.4,87.7,5.4,0.0,9.07,29.18,1.9381,393.9717],
    [14971,1537393521,54.0382,-110.0867,959.5,276.4,87.7,5.3,-0.1,9.58,28.93,1.9389,393.4027],
    [14972,1537393522,54.0383,-110.0855,959.7,274.4,87.9,5.5,0.3,9.23,28.71,1.9385,395.8502],
    [14973,1537393523,54.0383,-110.0842,960.0,273.0,88.0,5.6,0.4,9.62,28.74,1.9392,394.9284],
    [14974,1537393524,54.0383,-110.0829,960.2,271.5,88.2,5.4,0.8,8.87,29.29,1.94,395.6105],
    [14975,1537393525,54.0384,-110.0817,960.2,272.4,88.1,5.6,0.7,9.06,29.51,1.9403,394.4039],
    [14976,1537393526,54.0384,-110.0805,960.0,275.7,88.3,5.3,1.0,8.5,29.07,1.9402,394.3602],
    [14977,1537393527,54.0384,-110.0791,959.5,282.1,87.8,5.3,0.4,9.0,29.67,1.9419,394.0037],
    [14978,1537393528,54.0384,-110.0779,959.4,286.4,87.6,5.4,0.4,9.08,30.05,1.9429,395.1486],
    [14979,1537393529,54.0385,-110.0767,959.6,285.2,87.6,5.5,0.4,8.97,29.67,1.9411,394.4409],
    [14980,1537393530,54.0385,-110.0754,959.9,281.9,87.6,5.4,0.4,9.05,29.84,1.9409,394.1339],
    [14981,1537393531,54.0385,-110.0741,960.1,278.4,87.9,5.3,0.7,8.93,30.07,1.9425,394.9277],
    [14982,1537393532,54.0386,-110.0729,960.1,278.2,88.1,5.2,0.9,9.29,30.66,1.9412,394.9277],
    [14983,1537393533,54.0386,-110.0716,960.1,278.1,88.1,5.3,1.0,8.63,30.36,1.9405,394.9875],
    [14984,1537393534,54.0386,-110.0704,959.9,279.9,88.0,5.6,0.8,9.25,29.99,1.9432,393.9803],
    [14985,1537393535,54.0387,-110.0691,959.6,281.3,87.5,5.4,0.3,8.56,31.01,1.9417,394.138],
    [14986,1537393536,54.0387,-110.0679,959.5,282.5,87.6,5.3,0.5,9.01,30.66,1.943,392.7542],
    [14987,1537393537,54.0387,-110.0666,959.6,285.6,88.0,3.8,0.9,8.65,30.9,1.9468,393.38],
    [14988,1537393538,54.0388,-110.0654,959.6,285.6,88.1,3.6,1.1,9.05,31.1,1.9467,394.5536],
    [14989,1537393539,54.0388,-110.0641,960.2,286.2,87.7,3.6,0.8,9.09,32.18,1.9475,394.5536],
    [14990,1537393540,54.0388,-110.0628,960.7,286.7,87.9,4.1,1.1,8.67,31.75,1.9475,393.6953],
    [14991,1537393541,54.0389,-110.0616,961.5,287.5,87.9,4.8,1.1,8.98,32.49,1.9465,393.3357],
    [14992,1537393542,54.0389,-110.0603,961.5,285.4,88.0,4.0,1.4,8.54,32.71,1.9429,393.7198],
    [14993,1537393543,54.0389,-110.0591,960.2,282.4,87.3,5.3,0.7,9.0,33.03,1.9408,393.0065],
    [14994,1537393544,54.039,-110.0578,959.0,280.7,86.9,5.5,0.4,9.17,33.16,1.9412,393.5385],
    [14995,1537393545,54.039,-110.0565,958.6,279.2,86.7,5.7,0.2,9.82,32.63,1.9397,393.4165],
    [14996,1537393546,54.0391,-110.0553,958.3,278.3,87.2,5.9,0.6,8.94,32.78,1.9413,393.4165],
    [14997,1537393547,54.0391,-110.054,958.1,278.0,87.4,6.0,0.4,9.71,32.49,1.9407,392.9895],
    [14998,1537393548,54.0391,-110.0528,958.3,277.2,87.3,6.1,-0.4,8.75,32.74,1.9405,393.4872],
    [14999,1537393549,54.0392,-110.0515,959.6,278.6,87.0,6.1,-1.1,9.27,32.22,1.9452,393.8324],
    [15000,1537393550,54.0392,-110.0502,960.8,280.9,89.4,3.5,1.5,9.21,33.05,1.9457,392.402],
    [15001,1537393551,54.0392,-110.049,960.7,282.7,89.9,4.0,1.3,9.03,32.4,1.9439,395.7637],
    [15002,1537393552,54.0392,-110.0477,960.0,284.0,88.7,4.6,-0.6,9.83,32.25,1.9404,392.4802],
    [15003,1537393553,54.0392,-110.0464,959.4,284.9,87.8,4.2,-1.8,9.11,33.13,1.9373,392.9564],
    [15004,1537393554,54.0392,-110.0452,959.2,286.3,88.2,5.2,-1.2,9.54,32.71,1.9389,392.9904],
    [15005,1537393555,54.0392,-110.0439,959.3,287.4,88.5,4.5,-1.0,9.07,32.93,1.9409,392.2737],
    [15006,1537393556,54.0393,-110.0426,960.7,290.9,89.1,4.4,0.0,9.1,32.81,1.9447,392.575],
    [15007,1537393557,54.0393,-110.0414,961.9,290.9,90.3,5.0,1.5,9.23,32.16,1.9436,392.9625],
    [15008,1537393558,54.0393,-110.0401,962.3,290.1,88.9,6.0,-0.2,9.29,32.12,1.9401,392.9625],
    [15009,1537393559,54.0393,-110.0388,962.2,287.2,87.9,5.8,-1.1,9.13,32.05,1.9407,392.6102],
    [15010,1537393560,54.0393,-110.0375,961.7,284.3,88.2,5.5,-0.9,8.97,32.21,1.9419,393.3017],
    [15011,1537393561,54.0393,-110.0363,961.6,282.6,88.5,4.6,0.1,8.91,32.39,1.945,393.7481],
    [15012,1537393562,54.0393,-110.035,963.0,284.0,89.6,5.7,1.2,9.62,31.94,1.9427,391.6534],
    [15013,1537393563,54.0394,-110.0337,964.0,287.0,88.4,7.5,-0.4,9.46,32.04,1.9414,393.8413],
    [15014,1537393564,54.0394,-110.0324,963.2,288.2,89.3,5.7,0.6,9.75,31.69,1.9408,393.5269],
    [15015,1537393565,54.0394,-110.0311,961.4,287.7,90.1,4.8,1.6,9.43,32.24,1.94,393.294],
    [15016,1537393566,54.0394,-110.0298,959.6,287.3,88.4,5.1,-1.0,9.18,32.82,1.9401,393.3827],
    [15017,1537393567,54.0394,-110.0286,958.6,287.6,88.2,4.1,-1.2,8.96,32.8,1.9383,393.4359],
    [15018,1537393568,54.0394,-110.0273,959.2,289.1,88.4,4.3,-1.6,9.01,32.05,1.9358,393.8616],
    [15019,1537393569,54.0394,-110.026,961.6,293.7,87.6,4.0,-2.9,8.96,31.52,1.9359,393.6753],
    [15020,1537393570,54.0394,-110.0247,963.9,296.9,89.7,2.7,-0.1,9.15,31.41,1.9362,392.3514],
    [15021,1537393571,54.0394,-110.0234,965.5,299.5,90.5,2.8,0.4,9.08,31.78,1.9369,393.0474],
    [15022,1537393572,54.0394,-110.0221,965.9,299.9,88.8,3.9,-2.4,9.28,30.95,1.9371,393.1622],
    [15023,1537393573,54.0394,-110.0208,965.4,299.4,88.3,2.5,-2.6,9.49,30.35,1.9385,393.0944],
    [15024,1537393574,54.0394,-110.0196,965.0,299.0,90.1,1.9,-0.7,9.37,30.42,1.9406,393.4619],
    [15025,1537393575,54.0394,-110.0182,964.7,298.7,89.8,1.9,-1.1,9.37,30.39,1.9457,393.3622],
    [15026,1537393576,54.0394,-110.0169,964.1,299.1,90.1,1.3,-1.4,9.32,30.56,1.9481,393.495],
    [15027,1537393577,54.0394,-110.0156,963.5,298.5,90.6,2.5,0.6,9.68,30.29,1.9502,394.2316],
    [15028,1537393578,54.0394,-110.0143,962.5,297.5,91.6,3.2,1.9,9.29,31.26,1.9506,393.0362],
    [15029,1537393579,54.0394,-110.0129,960.4,294.4,89.5,3.8,0.3,10.03,31.53,1.9508,394.0834],
    [15030,1537393580,54.0394,-110.0116,958.7,291.7,91.0,3.8,3.0,9.35,32.4,1.9521,392.683],
    [15031,1537393581,54.0394,-110.0104,957.8,290.8,90.7,2.4,2.6,9.28,32.91,1.953,393.1747],
    [15032,1537393582,54.0394,-110.009,957.6,289.6,91.0,2.7,2.8,9.04,33.06,1.9514,393.1747],
    [15033,1537393583,54.0394,-110.0078,957.5,289.5,91.0,3.0,2.8,8.98,33.39,1.9517,393.1093],
    [15034,1537393584,54.0395,-110.0063,957.7,288.6,90.8,4.4,3.3,9.49,33.76,1.9536,393.0953],
    [15035,1537393585,54.0395,-110.005,957.3,286.7,90.1,4.0,2.9,9.6,34.21,1.9506,392.6478],
    [15036,1537393586,54.0395,-110.0037,957.6,287.0,89.0,3.0,2.1,10.14,34.13,1.9525,392.6478],
    [15037,1537393587,54.0395,-110.0024,958.3,287.5,89.5,3.0,3.1,9.58,34.92,1.9528,393.1329],
    [15038,1537393588,54.0396,-110.0011,958.0,287.3,89.3,3.4,2.9,9.28,35.89,1.9503,392.1719],
    [15039,1537393589,54.0396,-109.9998,957.8,287.5,88.8,3.9,2.4,9.34,35.22,1.951,392.2574],
    [15040,1537393590,54.0396,-109.9985,958.5,288.4,88.4,4.2,2.2,9.59,35.83,1.9507,392.121],
    [15041,1537393591,54.0397,-109.9974,959.2,289.9,88.1,4.0,1.9,9.29,35.14,1.9511,394.1872],
    [15042,1537393592,54.0397,-109.9958,959.5,297.5,87.3,3.7,1.3,9.45,35.74,1.9507,391.9155],
    [15043,1537393593,54.0398,-109.9946,959.2,305.2,87.3,3.2,1.4,9.52,35.66,1.953,391.6784],
    [15044,1537393594,54.0398,-109.9933,959.8,311.5,86.7,2.8,0.8,9.48,36.93,1.9521,393.7848],
    [15045,1537393595,54.0399,-109.992,960.3,315.3,87.3,4.4,1.4,9.61,35.81,1.9512,393.7848],
    [15046,1537393596,54.0399,-109.9907,960.7,316.0,88.3,3.5,2.5,9.41,36.49,1.9506,393.9241],
    [15047,1537393597,54.04,-109.9894,962.0,318.1,88.6,3.0,2.6,8.86,36.58,1.9485,391.741],
    [15048,1537393598,54.04,-109.9881,963.4,323.1,88.4,3.7,2.2,9.25,36.43,1.9473,392.3596],
    [15049,1537393599,54.04,-109.9868,964.2,325.9,87.5,4.9,0.4,9.31,36.67,1.9472,392.0321],
    [15050,1537393600,54.0401,-109.9855,963.6,325.5,85.8,4.4,-1.6,9.5,36.94,1.9492,391.5291],
    [15051,1537393601,54.0401,-109.9842,962.2,323.8,87.6,3.6,-0.1,9.52,36.74,1.9468,392.7083],
    [15052,1537393602,54.0401,-109.9829,960.8,322.5,87.0,2.6,-1.5,9.29,36.52,1.9489,393.3721],
    [15053,1537393603,54.0402,-109.9816,959.2,319.9,88.9,3.4,-0.4,9.05,36.94,1.9515,392.7458],
    [15054,1537393604,54.0402,-109.9803,957.4,317.0,91.0,2.5,-0.1,9.81,36.65,1.9518,394.2433],
    [15055,1537393605,54.0401,-109.979,956.3,316.9,93.2,2.4,-0.5,9.36,36.94,1.947,393.3267],
    [15056,1537393606,54.0401,-109.9777,955.6,316.4,96.2,3.2,-0.2,9.13,37.49,1.9464,393.9046],
    [15057,1537393607,54.04,-109.9764,955.8,316.8,99.7,4.0,-1.1,9.27,36.99,1.9461,392.7795],
    [15058,1537393608,54.0398,-109.9751,957.0,318.0,102.2,3.7,-1.8,9.37,36.97,1.9477,393.3954],
    [15059,1537393609,54.0396,-109.9739,957.4,319.4,105.9,4.1,-1.1,9.84,36.24,1.9475,392.9609],
    [15060,1537393610,54.0394,-109.9726,957.6,320.0,109.0,3.8,-1.2,9.82,36.94,1.9461,392.6036],
    [15061,1537393611,54.0391,-109.9714,958.5,321.5,112.4,4.2,-1.8,9.22,36.76,1.9462,393.2665],
    [15062,1537393612,54.0388,-109.9703,960.4,323.4,115.4,4.1,-2.3,9.32,36.77,1.9481,393.0096],
    [15063,1537393613,54.0385,-109.9691,962.8,325.7,118.6,4.4,-2.4,9.29,36.78,1.948,394.2644],
    [15064,1537393614,54.0381,-109.968,965.3,328.0,121.7,3.8,-2.4,9.32,37.41,1.9455,393.9572],
    [15065,1537393615,54.0377,-109.967,967.6,330.7,124.5,3.1,-2.3,9.32,37.0,1.9447,392.0266],
    [15066,1537393616,54.0372,-109.9659,969.4,331.3,127.7,2.8,-2.0,8.61,36.67,1.9469,391.9584],
    [15067,1537393617,54.0368,-109.9649,971.3,332.4,131.1,2.6,-1.8,9.78,36.44,1.9425,392.7304],
    [15068,1537393618,54.0363,-109.964,973.5,333.8,134.0,2.5,-2.3,9.04,36.6,1.9422,392.6311],
    [15069,1537393619,54.0357,-109.9631,975.4,335.5,137.1,2.6,-2.5,9.44,36.09,1.9438,393.9737],
    [15070,1537393620,54.0352,-109.9623,977.1,338.5,140.3,2.7,-2.3,9.01,36.26,1.9445,393.5671],
    [15071,1537393621,54.0346,-109.9615,978.5,340.5,144.0,2.8,-1.4,9.1,36.14,1.9443,392.8506],
    [15072,1537393622,54.034,-109.9608,980.9,344.7,147.4,2.0,-0.4,8.91,36.37,1.9479,393.1811],
    [15073,1537393623,54.0334,-109.9602,983.6,348.9,150.6,2.2,-1.3,9.28,35.59,1.9491,392.495],
    [15074,1537393624,54.0327,-109.9596,987.1,354.5,153.1,1.0,-1.1,9.85,35.8,1.9505,392.495],
    [15075,1537393625,54.0321,-109.959,990.4,358.4,156.4,1.0,0.4,9.72,35.38,1.951,394.4271],
    [15076,1537393626,54.0314,-109.9586,993.9,362.8,159.5,0.7,-0.4,9.97,35.75,1.953,393.4042],
    [15077,1537393627,54.0308,-109.9582,997.5,367.7,162.3,0.7,0.2,9.16,36.7,1.9557,394.28],
    [15078,1537393628,54.0301,-109.9578,1000.7,370.4,166.8,2.8,1.0,9.14,37.11,1.9555,394.2052],
    [15079,1537393629,54.0294,-109.9575,1004.4,372.1,169.5,3.4,0.5,8.58,37.09,1.9556,392.9242],
    [15080,1537393630,54.0287,-109.9573,1007.6,373.5,172.6,4.4,-1.4,9.5,36.87,1.955,393.9359],
    [15081,1537393631,54.028,-109.9571,1010.4,374.4,173.6,2.8,-1.1,9.12,37.75,1.9549,392.8434],
    [15082,1537393632,54.0273,-109.9569,1012.5,375.7,175.7,2.9,-0.2,9.14,38.53,1.9552,392.0475],
    [15083,1537393633,54.0266,-109.9568,1014.9,376.2,177.8,2.7,-1.1,9.05,38.2,1.9554,393.7682],
    [15084,1537393634,54.0259,-109.9568,1017.6,378.6,180.2,4.2,1.1,9.24,38.16,1.9541,393.6827],
    [15085,1537393635,54.0253,-109.9567,1020.0,381.0,181.8,4.2,1.8,9.05,39.68,1.9561,391.054],
    [15086,1537393636,54.0246,-109.9567,1023.9,383.9,180.8,2.1,1.7,8.86,39.25,1.9563,393.0326],
    [15087,1537393637,54.0239,-109.9567,1027.1,387.1,181.4,1.9,1.1,8.91,39.33,1.9541,393.008],
    [15088,1537393638,54.0232,-109.9567,1029.3,389.3,182.2,2.1,1.6,8.37,39.34,1.9533,393.6551],
    [15089,1537393639,54.0225,-109.9567,1032.8,392.6,183.7,2.5,1.9,9.04,39.77,1.9532,393.5033],
    [15090,1537393640,54.0219,-109.9568,1036.9,396.3,185.3,3.0,1.5,8.47,39.78,1.9538,391.1579],
    [15091,1537393641,54.0212,-109.9569,1041.1,400.1,186.7,2.9,1.1,8.89,40.05,1.9531,392.4146],
    [15092,1537393642,54.0206,-109.957,1045.0,404.0,187.0,1.7,1.8,8.68,39.53,1.9555,392.7737],
    [15093,1537393643,54.0199,-109.9571,1048.8,407.8,187.4,1.2,1.3,9.0,40.08,1.9551,392.5191],
    [15094,1537393644,54.0192,-109.9572,1051.7,409.7,189.5,3.1,1.5,9.09,39.49,1.9555,391.8145],
    [15095,1537393645,54.0186,-109.9574,1054.0,412.0,191.8,5.8,2.1,8.27,40.15,1.9536,392.8033],
    [15096,1537393646,54.0179,-109.9575,1055.4,413.4,191.9,5.6,2.3,9.27,39.63,1.9527,394.445],
    [15097,1537393647,54.0173,-109.9577,1056.6,413.6,191.4,5.4,2.5,8.33,40.0,1.9532,392.9659],
    [15098,1537393648,54.0166,-109.9578,1058.2,415.2,191.1,5.3,1.7,8.88,40.16,1.9513,392.2275],
    [15099,1537393649,54.016,-109.958,1060.2,416.9,190.6,4.9,1.0,8.32,40.1,1.9512,393.5674],
    [15100,1537393650,54.0153,-109.9581,1062.4,418.4,189.5,3.8,0.9,8.77,40.06,1.9513,392.672],
    [15101,1537393651,54.0147,-109.9582,1064.3,420.3,189.3,3.9,1.2,9.35,39.85,1.9515,394.0168],
    [15102,1537393652,54.0141,-109.9583,1066.1,421.1,189.8,4.2,0.5,8.68,40.88,1.9535,392.9329],
    [15103,1537393653,54.0134,-109.9585,1068.5,423.5,189.7,4.0,-0.1,8.62,39.99,1.9521,392.7038],
    [15104,1537393654,54.0128,-109.9586,1071.2,425.2,188.9,3.1,0.3,8.69,40.94,1.9523,392.6467],
    [15105,1537393655,54.0121,-109.9587,1073.6,427.6,188.3,2.7,1.1,9.28,39.67,1.9515,393.9634],
    [15106,1537393656,54.0115,-109.9588,1076.5,429.5,189.5,3.7,-0.1,8.16,40.26,1.952,393.011],
    [15107,1537393657,54.0109,-109.959,1080.1,433.1,189.2,3.4,1.3,8.41,40.21,1.9528,392.5254],
    [15108,1537393658,54.0103,-109.9591,1083.1,435.1,189.7,4.0,2.4,8.3,40.12,1.9522,393.1001],
    [15109,1537393659,54.0096,-109.9592,1086.4,437.3,189.8,3.9,2.6,8.21,40.22,1.9541,394.0278],
    [15110,1537393660,54.009,-109.9593,1090.2,440.4,189.6,3.6,1.8,8.62,39.85,1.9526,391.1421],
    [15111,1537393661,54.0084,-109.9595,1094.4,444.4,189.6,3.5,0.7,8.37,40.5,1.9516,392.919],
    [15112,1537393662,54.0078,-109.9596,1098.8,447.8,189.5,3.4,0.5,8.4,40.34,1.9523,392.7461],
    [15113,1537393663,54.0072,-109.9597,1101.8,452.8,188.8,2.8,1.1,7.99,40.28,1.954,393.534],
    [15114,1537393664,54.0066,-109.9598,1102.8,453.1,188.7,2.8,1.0,9.09,40.01,1.9542,392.627],
    [15115,1537393665,54.0059,-109.9599,1102.9,451.5,188.1,2.1,0.3,8.45,40.15,1.9538,393.0284],
    [15116,1537393666,54.0053,-109.9601,1103.0,451.2,188.9,3.0,-0.4,8.04,40.87,1.9523,393.5297],
    [15117,1537393667,54.0047,-109.9602,1104.0,453.0,188.5,2.3,-0.2,8.2,40.71,1.952,392.138],
    [15118,1537393668,54.0041,-109.9603,1106.0,453.9,187.9,2.0,0.8,8.18,40.55,1.9524,391.847],
    [15119,1537393669,54.0035,-109.9604,1107.4,455.4,188.8,2.7,0.1,8.26,41.37,1.9525,392.3963],
    [15120,1537393670,54.0029,-109.9605,1107.7,454.8,189.4,3.2,-0.2,8.17,40.69,1.9528,392.5549],
    [15121,1537393671,54.0023,-109.9607,1108.3,455.3,190.3,4.2,0.3,8.94,40.15,1.9523,393.56],
    [15122,1537393672,54.0017,-109.9608,1109.5,456.4,190.1,4.2,-0.5,7.86,41.17,1.9522,394.006],
    [15123,1537393673,54.001,-109.9609,1110.3,456.3,189.2,3.6,-1.5,8.16,40.94,1.9526,394.4276],
    [15124,1537393674,54.0004,-109.961,1110.4,456.4,187.8,3.8,-0.3,8.09,40.8,1.9544,393.6677],
    [15125,1537393675,53.9998,-109.9611,1110.7,456.6,186.4,4.3,-0.3,8.74,40.86,1.955,393.8523],
    [15126,1537393676,53.9992,-109.9611,1111.1,456.6,184.8,4.0,-0.6,8.07,41.58,1.9551,394.1508],
    [15127,1537393677,53.9985,-109.9611,1111.2,455.9,183.1,3.4,-1.2,7.7,41.18,1.9546,393.3189],
    [15128,1537393678,53.9979,-109.9611,1110.7,454.7,182.7,3.6,-0.5,7.46,41.38,1.9547,392.86],
    [15129,1537393679,53.9973,-109.9611,1110.0,453.1,182.5,3.3,-0.2,8.27,41.13,1.9532,393.0198],
    [15130,1537393680,53.9966,-109.9611,1109.4,451.5,182.6,3.0,0.9,8.62,41.06,1.953,392.7596],
    [15131,1537393681,53.996,-109.9611,1109.6,450.6,183.7,3.9,1.6,8.06,41.38,1.9544,392.6711],
    [15132,1537393682,53.9954,-109.9611,1110.9,451.8,183.7,3.2,1.1,7.89,41.36,1.9537,393.5774],
    [15133,1537393683,53.9947,-109.9612,1112.1,452.1,183.8,3.3,1.2,7.97,41.6,1.9554,393.3676],
    [15134,1537393684,53.9941,-109.9612,1111.9,450.9,184.7,3.8,0.1,7.4,41.59,1.9556,393.6371],
    [15135,1537393685,53.9935,-109.9612,1110.4,448.4,185.3,4.1,0.0,7.85,41.76,1.9543,392.8846],
    [15136,1537393686,53.9928,-109.9613,1109.4,446.4,185.6,4.2,1.3,7.56,42.08,1.953,393.2389],
    [15137,1537393687,53.9922,-109.9613,1109.7,445.7,185.2,3.3,0.0,7.69,42.06,1.9524,393.2389],
    [15138,1537393688,53.9915,-109.9614,1109.9,445.2,184.8,3.1,-0.7,8.39,41.27,1.9527,393.1304],
    [15139,1537393689,53.9909,-109.9614,1109.8,444.5,184.7,3.4,-0.6,7.88,42.11,1.952,393.8042],
    [15140,1537393690,53.9903,-109.9614,1109.8,442.8,184.2,3.4,-0.5,7.33,41.72,1.9516,393.7513],
    [15141,1537393691,53.9896,-109.9615,1109.8,441.8,184.4,4.0,-0.3,7.83,41.94,1.9509,393.8722],
    [15142,1537393692,53.989,-109.9615,1109.3,440.6,184.4,3.9,0.0,7.67,42.4,1.9521,393.1235],
    [15143,1537393693,53.9883,-109.9615,1108.9,438.8,184.3,3.8,0.3,8.31,41.53,1.9507,392.0052],
    [15144,1537393694,53.9877,-109.9615,1109.0,439.0,184.6,3.9,0.5,7.64,41.51,1.9517,394.3514],
    [15145,1537393695,53.987,-109.9616,1110.1,440.1,184.0,3.0,0.3,7.8,41.88,1.9529,393.4455],
    [15146,1537393696,53.9864,-109.9616,1111.4,441.4,183.9,3.1,1.1,8.02,41.44,1.9518,391.6424],
    [15147,1537393697,53.9858,-109.9616,1111.9,441.9,184.2,3.1,0.8,7.12,41.09,1.9516,391.9763],
    [15148,1537393698,53.9851,-109.9617,1112.1,442.1,184.1,3.0,1.5,8.09,41.22,1.9526,394.4177],
    [15149,1537393699,53.9845,-109.9617,1112.4,443.7,184.6,3.3,1.3,7.88,41.01,1.9522,392.8302],
    [15150,1537393700,53.9838,-109.9617,1112.6,442.6,184.6,3.2,1.2,7.77,40.9,1.9528,392.8484],
    [15151,1537393701,53.9832,-109.9618,1112.5,442.5,184.9,3.8,1.0,7.94,40.5,1.951,393.857],
    [15152,1537393702,53.9825,-109.9618,1112.5,442.5,185.6,4.6,0.6,8.05,40.82,1.9516,393.6671],
    [15153,1537393703,53.9819,-109.9619,1112.3,443.3,185.1,4.1,-0.1,7.83,40.76,1.9517,393.7085],
    [15154,1537393704,53.9813,-109.9619,1111.8,442.8,184.9,4.0,0.0,8.32,40.66,1.9513,393.6596],
    [15155,1537393705,53.9806,-109.9619,1111.1,443.1,185.1,4.0,0.0,7.67,41.11,1.9499,392.8989],
    [15156,1537393706,53.98,-109.962,1110.9,443.9,185.1,4.0,0.3,7.17,41.16,1.9497,393.7049],
    [15157,1537393707,53.9793,-109.962,1110.6,443.9,185.7,4.6,0.4,7.55,41.03,1.9471,392.2775],
    [15158,1537393708,53.9787,-109.962,1111.0,445.0,185.4,4.1,0.3,7.45,40.77,1.9446,393.141],
    [15159,1537393709,53.978,-109.9621,1111.4,447.4,185.7,4.6,0.3,7.64,40.39,1.9449,393.1345],
    [15160,1537393710,53.9773,-109.9621,1111.4,446.7,186.1,5.2,0.0,8.19,39.92,1.9486,393.2298],
    [15161,1537393711,53.9767,-109.9622,1111.3,446.3,186.7,6.1,0.1,7.26,40.4,1.9506,393.0424],
    [15162,1537393712,53.9761,-109.9622,1111.0,447.1,186.9,6.2,-0.6,7.92,39.5,1.9478,392.8029],
    [15163,1537393713,53.9754,-109.9622,1111.0,447.0,186.3,5.9,-0.5,7.57,39.57,1.9472,393.7156],
    [15164,1537393714,53.9747,-109.9623,1111.2,447.1,186.3,6.2,-0.2,8.01,39.51,1.9469,393.1436],
    [15165,1537393715,53.9741,-109.9623,1111.3,448.3,185.8,5.9,-0.2,7.27,39.56,1.9475,393.1436],
    [15166,1537393716,53.9734,-109.9623,1111.3,448.3,185.9,6.3,-0.2,7.69,40.36,1.9449,393.7349],
    [15167,1537393717,53.9727,-109.9623,1111.5,448.5,185.5,6.1,-0.3,7.29,39.56,1.9435,392.9627],
    [15168,1537393718,53.9721,-109.9624,1111.5,448.8,185.4,6.2,-0.5,7.82,38.84,1.9416,392.9547],
    [15169,1537393719,53.9714,-109.9624,1111.4,449.4,184.8,5.8,-0.4,7.64,39.48,1.9455,392.9842],
    [15170,1537393720,53.9707,-109.9624,1111.3,449.3,184.6,5.8,-0.4,7.07,38.67,1.9458,393.9238],
    [15171,1537393721,53.9701,-109.9624,1111.3,449.3,184.5,5.9,-0.5,7.39,38.49,1.9463,392.7948],
    [15172,1537393722,53.9694,-109.9624,1111.2,450.3,184.4,5.9,-0.5,7.52,38.31,1.9479,393.9155],
    [15173,1537393723,53.9688,-109.9624,1111.2,450.2,184.2,6.0,-0.6,8.15,37.74,1.9465,394.0867],
    [15174,1537393724,53.9681,-109.9623,1111.6,450.6,183.9,5.7,-0.6,7.63,38.71,1.9464,394.4621],
    [15175,1537393725,53.9674,-109.9623,1111.7,451.0,184.0,5.8,-0.6,7.66,38.34,1.9456,393.7535],
    [15176,1537393726,53.9667,-109.9623,1111.5,451.5,184.1,5.9,-0.6,7.54,38.24,1.9459,393.9375],
    [15177,1537393727,53.9661,-109.9623,1111.2,451.7,184.3,6.2,-0.6,7.46,38.39,1.9473,393.3957],
    [15178,1537393728,53.9654,-109.9623,1111.1,452.1,184.6,6.5,-0.5,7.11,38.12,1.9503,394.2349],
    [15179,1537393729,53.9647,-109.9623,1111.1,452.1,184.3,6.3,-0.3,7.11,38.43,1.9534,392.8258],
    [15180,1537393730,53.9641,-109.9623,1111.2,451.2,184.3,6.4,-0.7,7.63,38.25,1.9526,393.8985],
    [15181,1537393731,53.9634,-109.9623,1111.1,450.9,184.1,6.0,-0.5,7.72,38.46,1.9525,393.0145],
    [15182,1537393732,53.9627,-109.9623,1110.8,449.8,183.7,5.7,-0.6,7.25,38.85,1.9523,394.0086],
    [15183,1537393733,53.9621,-109.9622,1110.6,449.7,183.7,5.7,-1.0,7.35,39.28,1.9521,394.5238],
    [15184,1537393734,53.9614,-109.9622,1110.7,449.0,183.3,5.3,-1.3,7.64,39.37,1.9534,393.8351],
    [15185,1537393735,53.9607,-109.9622,1110.8,448.8,183.9,6.0,-1.2,7.65,40.29,1.9522,393.8842],
    [15186,1537393736,53.96,-109.9622,1110.5,448.5,183.9,5.9,-1.0,7.63,40.46,1.9515,391.9908],
    [15187,1537393737,53.9594,-109.9622,1110.2,447.2,184.0,6.0,-0.8,8.35,39.07,1.953,393.8793],
    [15188,1537393738,53.9587,-109.9622,1109.9,447.9,183.6,5.6,-0.6,7.75,40.15,1.9553,392.7145],
    [15189,1537393739,53.958,-109.9622,1110.2,448.2,183.2,5.3,-0.9,7.62,40.61,1.9562,392.8543],
    [15190,1537393740,53.9574,-109.9621,1110.3,448.2,183.4,5.2,-1.0,7.56,40.36,1.9554,391.4991],
    [15191,1537393741,53.9567,-109.9621,1111.0,450.0,181.8,2.9,-1.2,8.14,40.13,1.9576,394.6932],
    [15192,1537393742,53.956,-109.9621,1112.3,451.6,181.3,2.4,-0.8,7.3,40.81,1.96,395.2475],
    [15193,1537393743,53.9553,-109.9621,1113.1,453.1,181.4,2.7,-0.7,7.54,41.13,1.9581,394.4798],
    [15194,1537393744,53.9547,-109.9621,1113.0,454.0,182.1,3.7,-0.5,7.7,41.96,1.9592,394.3149],
    [15195,1537393745,53.954,-109.9621,1112.8,453.7,182.0,3.4,-0.8,7.38,41.93,1.9578,393.934],
    [15196,1537393746,53.9533,-109.9621,1112.7,454.7,182.3,3.7,-1.1,7.58,42.27,1.9573,393.4061],
    [15197,1537393747,53.9526,-109.9621,1112.7,455.0,183.1,4.4,-1.5,8.09,42.21,1.959,394.3309],
    [15198,1537393748,53.952,-109.9621,1112.4,455.4,183.3,4.3,-1.5,8.08,42.57,1.9584,393.6982],
    [15199,1537393749,53.9513,-109.9621,1111.5,455.5,183.1,3.8,-2.3,8.18,42.08,1.9581,394.5614],
    [15200,1537393750,53.9506,-109.9621,1110.7,454.7,183.8,4.4,-2.1,7.51,42.8,1.9578,392.6076],
    [15201,1537393751,53.9499,-109.9621,1110.2,455.2,184.0,4.5,-1.9,7.74,42.91,1.9577,393.9885],
    [15202,1537393752,53.9493,-109.9621,1109.8,455.1,183.9,4.2,-2.7,7.69,42.87,1.9562,393.2375],
    [15203,1537393753,53.9486,-109.9621,1110.0,457.3,183.6,3.9,-2.4,7.89,43.21,1.9563,393.9259],
    [15204,1537393754,53.9479,-109.9621,1110.1,458.1,183.7,4.4,-1.7,7.71,43.45,1.956,393.9259],
    [15205,1537393755,53.9472,-109.9621,1109.9,459.9,184.2,5.2,-1.4,7.56,44.11,1.9553,393.2278],
    [15206,1537393756,53.9465,-109.9621,1110.3,462.0,184.6,5.9,-1.4,7.32,43.55,1.956,393.7084],
    [15207,1537393757,53.9459,-109.9621,1111.1,463.4,184.1,5.3,-1.4,7.49,43.61,1.9549,393.7084],
    [15208,1537393758,53.9452,-109.9621,1111.4,465.8,183.6,4.8,-1.1,7.33,43.69,1.9544,392.9107],
    [15209,1537393759,53.9445,-109.9621,1111.5,466.5,183.4,4.7,-0.8,8.16,43.38,1.9559,392.6584],
    [15210,1537393760,53.9438,-109.9621,1111.7,468.7,183.6,4.9,-1.0,8.09,42.92,1.9567,393.1591],
    [15211,1537393761,53.9431,-109.9621,1112.4,470.3,183.3,4.6,-0.2,7.08,43.63,1.9566,393.5606],
    [15212,1537393762,53.9424,-109.9621,1112.3,472.0,183.5,4.6,0.0,7.49,43.62,1.9571,392.808],
    [15213,1537393763,53.9418,-109.9621,1111.6,471.9,183.7,4.7,0.2,6.76,43.56,1.9562,392.5478],
    [15214,1537393764,53.9411,-109.9621,1112.0,474.3,183.9,4.6,-0.7,7.11,43.88,1.9557,394.0495],
    [15215,1537393765,53.9404,-109.9621,1112.6,476.6,183.8,4.5,-0.7,7.63,43.47,1.9555,394.6016],
    [15216,1537393766,53.9397,-109.9621,1112.4,479.4,183.6,3.8,-1.3,7.79,43.4,1.956,393.401],
    [15217,1537393767,53.939,-109.9621,1112.6,479.6,182.9,3.0,-0.1,7.6,43.91,1.9578,393.5322],
    [15218,1537393768,53.9383,-109.9622,1113.4,480.4,184.4,4.7,0.4,7.21,43.66,1.958,394.2803],
    [15219,1537393769,53.9377,-109.9622,1114.0,478.0,184.7,4.7,-0.5,7.41,43.66,1.9567,393.976],
    [15220,1537393770,53.937,-109.9622,1115.3,479.3,184.2,4.2,-0.9,6.99,43.5,1.9582,393.9426],
    [15221,1537393771,53.9363,-109.9622,1116.4,483.4,183.8,3.9,-0.6,7.44,43.6,1.9578,393.544],
    [15222,1537393772,53.9356,-109.9622,1116.9,483.9,184.5,4.7,-0.9,7.05,43.72,1.9562,393.9943],
    [15223,1537393773,53.9349,-109.9623,1116.0,483.0,185.5,6.1,-0.4,7.04,44.03,1.9559,393.2013],
    [15224,1537393774,53.9342,-109.9623,1115.3,480.3,186.0,7.0,1.1,7.5,43.88,1.9564,394.0446],
    [15225,1537393775,53.9335,-109.9623,1115.3,480.3,185.4,6.5,-0.1,7.44,43.86,1.9573,392.0541],
    [15226,1537393776,53.9328,-109.9623,1115.1,480.1,184.8,6.2,0.3,8.07,43.61,1.9576,393.3038],
    [15227,1537393777,53.9321,-109.9623,1114.2,479.2,183.3,4.6,0.2,7.09,43.72,1.958,393.0994],
    [15228,1537393778,53.9314,-109.9623,1112.7,477.7,182.7,4.3,0.5,7.81,43.44,1.9576,391.9137],
    [15229,1537393779,53.9307,-109.9623,1111.6,476.6,183.1,4.5,-1.1,7.27,44.23,1.9581,393.9639],
    [15230,1537393780,53.93,-109.9623,1111.9,477.8,181.8,2.8,-1.1,8.32,43.04,1.9568,392.3087],
    [15231,1537393781,53.9293,-109.9623,1113.1,479.1,182.8,3.7,-0.7,7.95,43.01,1.957,394.2253],
    [15232,1537393782,53.9286,-109.9623,1113.8,479.8,183.2,3.6,-0.2,7.91,43.56,1.958,394.9991],
    [15233,1537393783,53.9278,-109.9623,1113.6,478.6,185.1,4.5,-1.1,8.34,42.59,1.959,393.0326],
    [15234,1537393784,53.9271,-109.9624,1113.3,478.3,186.3,6.1,1.5,7.8,42.64,1.9552,393.4493],
    [15235,1537393785,53.9264,-109.9624,1113.0,478.0,189.5,8.9,0.9,7.6,43.15,1.9565,393.4307],
    [15236,1537393786,53.9257,-109.9625,1113.1,478.1,187.9,6.5,1.4,7.77,42.18,1.9582,392.7922],
    [15237,1537393787,53.925,-109.9626,1113.0,478.0,188.3,7.3,1.4,7.71,42.39,1.9571,391.1668],
    [15238,1537393788,53.9242,-109.9626,1112.7,477.7,187.9,7.0,0.3,7.46,42.37,1.9582,393.8005],
    [15239,1537393789,53.9235,-109.9627,1112.2,477.2,186.7,6.4,-0.3,8.34,41.86,1.9569,393.2135],
    [15240,1537393790,53.9228,-109.9627,1111.8,476.8,185.9,6.9,-0.1,7.79,41.73,1.9568,393.3408],
    [15241,1537393791,53.9221,-109.9627,1111.2,475.2,185.7,7.7,-0.3,7.51,41.71,1.9569,392.7981],
    [15242,1537393792,53.9214,-109.9627,1110.9,474.9,184.9,7.6,-0.2,7.88,41.02,1.9565,392.65],
    [15243,1537393793,53.9206,-109.9627,1111.8,475.8,184.7,8.1,0.0,7.66,41.4,1.9567,393.7459],
    [15244,1537393794,53.9199,-109.9627,1112.9,476.9,184.4,7.9,0.6,8.48,40.99,1.9563,392.7499],
    [15245,1537393795,53.9192,-109.9627,1114.1,478.1,184.3,8.0,0.0,7.78,41.36,1.9583,393.8273],
    [15246,1537393796,53.9185,-109.9626,1114.1,478.1,184.7,8.5,0.3,7.62,41.41,1.9589,392.4688],
    [15247,1537393797,53.9177,-109.9626,1114.0,478.0,183.6,6.9,0.5,7.62,41.22,1.9596,392.4228],
    [15248,1537393798,53.917,-109.9626,1113.7,477.7,183.7,7.2,0.5,7.23,40.92,1.9597,393.3469],
    [15249,1537393799,53.9163,-109.9625,1112.5,476.5,184.4,7.7,-0.3,7.66,41.41,1.9586,392.6314],
    [15250,1537393800,53.9156,-109.9625,1111.8,475.8,183.7,6.3,0.4,7.63,41.2,1.9569,393.8276],
    [15251,1537393801,53.9149,-109.9625,1111.3,475.3,183.8,6.2,0.6,6.98,40.97,1.9568,395.108],
    [15252,1537393802,53.9141,-109.9625,1111.2,475.2,184.0,5.9,0.0,7.59,41.46,1.957,394.2579],
    [15253,1537393803,53.9134,-109.9625,1111.3,475.3,184.0,5.4,0.3,7.19,41.26,1.958,394.2579],
    [15254,1537393804,53.9127,-109.9625,1111.8,475.8,184.4,5.2,-0.5,7.39,41.15,1.9567,393.6459],
    [15255,1537393805,53.912,-109.9625,1111.8,475.8,184.9,5.5,-0.4,7.68,41.51,1.9544,393.9579],
    [15256,1537393806,53.9113,-109.9625,1111.6,475.6,185.2,5.7,0.0,7.7,41.94,1.9507,394.0063],
    [15257,1537393807,53.9106,-109.9626,1111.5,475.5,185.6,6.1,0.0,7.48,41.58,1.9504,393.3176],
    [15258,1537393808,53.9098,-109.9626,1111.6,475.6,185.5,5.9,-0.5,7.64,41.23,1.9439,392.6775],
    [15259,1537393809,53.9091,-109.9626,1112.0,476.0,185.4,5.8,-0.4,7.58,40.69,1.9447,392.2784],
    [15260,1537393810,53.9084,-109.9626,1112.4,476.4,185.7,6.3,-0.4,7.42,40.84,1.951,392.2463],
    [15261,1537393811,53.9077,-109.9627,1112.7,479.0,185.9,6.6,-0.3,7.91,38.94,1.9521,391.4854],
    [15262,1537393812,53.907,-109.9627,1112.7,483.7,185.7,6.1,-0.4,7.86,39.29,1.9478,394.295],
    [15263,1537393813,53.9063,-109.9627,1112.0,483.0,185.6,6.1,-0.7,7.31,38.23,1.9518,391.8912],
    [15264,1537393814,53.9056,-109.9627,1111.8,482.8,185.4,5.9,-0.6,7.58,37.71,1.9548,392.6232],
    [15265,1537393815,53.9049,-109.9628,1112.0,483.0,185.2,5.7,-0.5,6.98,37.71,1.9566,392.6232],
    [15266,1537393816,53.9042,-109.9628,1112.3,483.3,185.4,5.7,-0.8,7.42,37.43,1.9581,393.8981],
    [15267,1537393817,53.9035,-109.9628,1112.4,482.2,184.9,5.0,-0.7,7.83,38.06,1.959,392.3715],
    [15268,1537393818,53.9028,-109.9628,1112.7,478.7,185.1,5.4,-0.2,7.75,37.35,1.9579,393.9899],
    [15269,1537393819,53.9022,-109.9629,1112.9,476.9,185.1,5.3,-0.7,7.59,37.45,1.9596,393.2603],
    [15270,1537393820,53.9014,-109.9629,1112.3,475.3,185.8,5.9,-0.5,7.46,37.75,1.9607,393.8618],
    [15271,1537393821,53.9008,-109.9629,1112.0,474.0,185.4,5.2,-1.0,7.93,37.46,1.9631,394.9259],
    [15272,1537393822,53.9,-109.963,1112.1,473.8,185.3,5.2,0.3,7.82,37.62,1.9625,394.2938],
    [15273,1537393823,53.8993,-109.963,1112.5,473.5,185.5,5.6,0.8,7.43,38.14,1.9611,392.8666],
    [15274,1537393824,53.8986,-109.963,1113.2,474.2,185.9,6.1,-0.3,7.84,38.5,1.9622,394.8501],
    [15275,1537393825,53.8979,-109.963,1113.4,473.4,186.6,6.8,-1.1,7.63,38.56,1.962,393.7027],
    [15276,1537393826,53.8972,-109.9631,1113.2,473.0,185.9,6.0,-1.0,7.54,39.27,1.9591,394.4054],
    [15277,1537393827,53.8966,-109.9631,1113.0,471.8,185.4,5.5,-1.4,7.68,39.48,1.9591,393.4762],
    [15278,1537393828,53.8958,-109.9631,1113.0,470.8,185.6,5.7,-1.3,7.58,39.34,1.9582,392.4603],
    [15279,1537393829,53.8951,-109.9632,1113.2,470.1,185.4,5.7,-0.9,7.28,39.1,1.9599,392.4277],
    [15280,1537393830,53.8944,-109.9632,1113.4,471.1,185.4,5.7,-1.3,7.6,39.29,1.9631,394.4997],
    [15281,1537393831,53.8937,-109.9632,1113.4,471.1,184.8,5.2,-1.6,7.43,39.87,1.9627,393.8157],
    [15282,1537393832,53.893,-109.9632,1113.7,469.7,184.7,4.8,-0.6,7.45,39.84,1.9669,393.5091],
    [15283,1537393833,53.8923,-109.9632,1114.0,470.1,184.7,4.7,-0.3,7.04,40.02,1.9685,393.9382],
    [15284,1537393834,53.8916,-109.9633,1113.7,467.8,184.9,4.4,0.1,7.7,40.5,1.9689,392.7812],
    [15285,1537393835,53.8909,-109.9633,1113.6,468.0,185.0,4.5,0.6,7.64,41.02,1.9705,393.8031],
    [15286,1537393836,53.8902,-109.9634,1113.8,467.7,185.6,5.0,-0.1,7.69,41.48,1.9702,391.5425],
    [15287,1537393837,53.8895,-109.9634,1114.0,465.7,185.3,4.6,-0.4,7.16,41.26,1.97,393.1938],
    [15288,1537393838,53.8888,-109.9634,1113.8,469.8,186.1,5.5,-1.3,7.38,41.61,1.9711,393.7155],
    [15289,1537393839,53.8881,-109.9635,1113.2,464.3,186.6,6.2,-1.3,7.41,41.96,1.9704,393.6217],
    [15290,1537393840,53.8873,-109.9635,1112.5,463.8,186.9,6.4,-2.0,7.3,42.31,1.9697,393.3781],
    [15291,1537393841,53.8866,-109.9636,1111.9,462.9,186.2,5.8,-1.0,7.88,42.49,1.9711,393.382],
    [15292,1537393842,53.8859,-109.9636,1111.5,462.8,185.1,4.9,-0.8,7.78,42.16,1.9702,393.382],
    [15293,1537393843,53.8852,-109.9636,1111.2,462.2,185.5,5.7,-0.9,7.42,42.93,1.9718,394.5249],
    [15294,1537393844,53.8845,-109.9637,1111.1,462.1,185.6,5.8,-0.7,7.5,42.64,1.9722,393.6362],
    [15295,1537393845,53.8838,-109.9637,1111.5,462.5,184.8,4.9,-0.7,7.4,42.96,1.9706,395.9641],
    [15296,1537393846,53.8831,-109.9637,1111.5,462.4,185.3,5.4,-0.9,8.58,42.47,1.9724,393.1092],
    [15297,1537393847,53.8823,-109.9637,1111.3,462.3,185.1,5.0,-0.4,7.68,43.21,1.972,392.7882],
    [15298,1537393848,53.8816,-109.9638,1111.4,462.4,185.5,5.5,-0.1,7.5,43.45,1.9733,392.7882],
    [15299,1537393849,53.8809,-109.9638,1112.0,463.0,185.4,5.2,-0.3,7.7,43.69,1.9733,393.2737],
    [15300,1537393850,53.8802,-109.9638,1112.7,462.7,185.6,5.4,-0.7,7.39,42.86,1.9738,393.2597],
    [15301,1537393851,53.8795,-109.9639,1113.0,463.0,185.4,5.0,-0.6,7.28,43.13,1.9718,393.3412],
    [15302,1537393852,53.8788,-109.9639,1113.0,462.0,185.4,5.0,-1.0,7.9,42.84,1.9739,391.9494],
    [15303,1537393853,53.8781,-109.9639,1112.8,461.8,185.7,5.5,-0.9,8.24,42.7,1.9737,393.8207],
    [15304,1537393854,53.8774,-109.964,1112.3,460.2,186.0,5.9,-0.4,7.4,43.51,1.9727,393.8207],
    [15305,1537393855,53.8767,-109.964,1112.6,460.6,186.2,6.2,-0.5,7.67,43.37,1.9711,393.7496],
    [15306,1537393856,53.876,-109.9641,1113.2,460.2,186.1,6.1,-0.7,7.98,43.35,1.9722,393.5199],
    [15307,1537393857,53.8753,-109.9641,1113.1,459.2,185.8,5.8,-0.9,8.14,43.41,1.9731,393.5199],
    [15308,1537393858,53.8746,-109.9641,1112.6,457.6,185.5,5.5,-0.7,7.62,43.75,1.9696,393.5287],
    [15309,1537393859,53.8739,-109.9641,1112.0,456.7,185.1,5.2,-0.6,7.63,43.69,1.9685,393.8056],
    [15310,1537393860,53.8731,-109.9642,1112.1,456.2,185.1,5.2,-1.2,7.31,43.77,1.9684,393.5479],
    [15311,1537393861,53.8725,-109.9642,1112.4,455.4,185.1,5.0,-1.4,7.48,43.63,1.9674,394.2186],
    [15312,1537393862,53.8717,-109.9642,1112.1,454.0,185.2,5.0,-1.4,7.64,43.74,1.9672,394.1692],
    [15313,1537393863,53.871,-109.9643,1111.4,453.3,185.1,4.9,-1.8,8.33,42.94,1.9687,394.3699],
    [15314,1537393864,53.8703,-109.9643,1111.4,452.4,185.5,5.2,-1.6,7.44,43.73,1.9681,393.8792],
    [15315,1537393865,53.8696,-109.9643,1111.6,452.7,185.6,5.3,-1.7,8.31,43.25,1.9649,393.7662],
    [15316,1537393866,53.8689,-109.9644,1112.0,452.0,185.7,5.3,-1.0,8.17,43.3,1.965,393.7662],
    [15317,1537393867,53.8682,-109.9644,1113.2,452.5,185.8,5.3,-0.8,7.63,44.31,1.9657,393.9346],
    [15318,1537393868,53.8675,-109.9644,1115.1,453.6,184.8,3.9,0.7,7.7,44.27,1.9672,392.2081],
    [15319,1537393869,53.8668,-109.9645,1116.2,453.2,184.3,3.4,0.7,7.41,44.07,1.9694,391.0069],
    [15320,1537393870,53.8661,-109.9645,1116.0,452.0,185.5,4.9,1.9,7.76,43.54,1.9683,391.0069],
    [15321,1537393871,53.8654,-109.9646,1115.6,448.6,185.9,5.2,2.4,7.75,43.89,1.9649,393.4904],
    [15322,1537393872,53.8647,-109.9646,1115.8,447.8,186.2,5.5,2.5,7.4,43.41,1.9673,392.5074],
    [15323,1537393873,53.864,-109.9647,1116.2,447.2,186.7,6.0,2.5,7.57,43.1,1.9672,393.1269],
    [15324,1537393874,53.8633,-109.9647,1116.3,447.3,186.5,5.7,2.2,7.44,43.46,1.965,394.0117],
    [15325,1537393875,53.8626,-109.9648,1115.3,446.3,185.9,5.1,2.8,7.78,43.09,1.9653,393.6702],
    [15326,1537393876,53.8619,-109.9648,1113.8,444.8,186.3,5.9,2.6,7.89,42.77,1.964,393.1968],
    [15327,1537393877,53.8612,-109.9649,1113.2,443.1,186.1,5.9,3.2,7.66,42.84,1.9651,392.3804],
    [15328,1537393878,53.8605,-109.9649,1113.4,443.4,186.1,6.2,3.5,8.06,42.59,1.9644,392.5452],
    [15329,1537393879,53.8598,-109.9649,1113.6,442.7,186.1,6.1,3.1,7.88,42.55,1.9629,390.5509],
    [15330,1537393880,53.8591,-109.965,1113.4,440.7,186.2,6.2,2.8,7.26,42.66,1.9612,391.3412],
    [15331,1537393881,53.8584,-109.965,1112.9,439.0,186.1,6.1,2.3,8.35,41.98,1.9621,392.2237],
    [15332,1537393882,53.8577,-109.9651,1112.6,437.7,185.9,5.8,2.0,7.41,42.5,1.9634,393.4857],
    [15333,1537393883,53.857,-109.9651,1112.1,436.1,185.9,6.0,1.5,7.33,42.48,1.9631,391.8459],
    [15334,1537393884,53.8563,-109.9651,1111.8,435.8,186.4,6.6,1.8,7.16,42.45,1.9611,392.885],
    [15335,1537393885,53.8556,-109.9652,1111.8,435.1,185.9,5.8,1.8,7.65,42.55,1.9632,392.7013],
    [15336,1537393886,53.8549,-109.9652,1111.9,435.0,185.7,5.9,2.4,7.42,42.95,1.9606,393.7602],
    [15337,1537393887,53.8542,-109.9652,1111.9,435.0,185.7,5.9,2.1,7.46,42.44,1.9615,392.9122],
    [15338,1537393888,53.8535,-109.9653,1112.2,434.5,185.4,5.6,2.2,7.85,42.16,1.9625,393.2249],
    [15339,1537393889,53.8528,-109.9653,1112.6,434.6,185.6,5.7,1.8,7.52,42.31,1.9611,393.9286],
    [15340,1537393890,53.8521,-109.9653,1113.2,435.2,184.8,5.1,1.9,7.98,41.51,1.9628,394.5116],
    [15341,1537393891,53.8514,-109.9653,1113.2,435.2,185.4,5.9,2.4,7.45,42.34,1.9629,394.2154],
    [15342,1537393892,53.8507,-109.9654,1113.4,435.4,185.4,5.8,2.0,7.78,42.02,1.9624,394.5458],
    [15343,1537393893,53.85,-109.9654,1113.3,435.3,185.2,5.5,1.8,7.15,42.03,1.9614,393.5071],
    [15344,1537393894,53.8493,-109.9654,1112.9,434.9,186.1,6.4,1.6,7.69,42.18,1.961,393.1331],
    [15345,1537393895,53.8486,-109.9655,1113.1,434.8,185.4,5.1,2.3,7.93,41.84,1.9594,392.046],
    [15346,1537393896,53.8479,-109.9655,1113.6,434.6,184.9,4.6,2.1,7.66,42.18,1.961,391.5658],
    [15347,1537393897,53.8472,-109.9655,1113.1,434.1,184.8,4.6,3.9,7.73,42.0,1.9657,392.4894],
    [15348,1537393898,53.8465,-109.9656,1112.2,433.2,185.0,4.9,3.8,7.52,42.1,1.9674,393.8174],
    [15349,1537393899,53.8458,-109.9656,1111.6,433.6,185.1,4.9,3.7,7.37,41.86,1.9692,394.229],
    [15350,1537393900,53.8451,-109.9656,1111.2,433.2,185.1,4.8,3.3,7.82,41.75,1.9685,394.2844],
    [15351,1537393901,53.8444,-109.9657,1111.9,434.9,184.7,3.5,2.3,8.0,41.22,1.9681,392.8264],
    [15352,1537393902,53.8437,-109.9657,1113.8,436.8,185.4,4.1,1.9,7.45,42.15,1.9677,394.2506],
    [15353,1537393903,53.843,-109.9658,1115.5,439.5,186.1,4.4,1.8,8.07,41.85,1.9685,392.1302],
    [15354,1537393904,53.8423,-109.9658,1116.0,440.0,186.7,4.7,2.7,8.24,42.03,1.9685,393.4764],
    [15355,1537393905,53.8416,-109.9659,1115.7,440.7,186.3,4.3,2.7,7.59,42.34,1.9686,393.17],
    [15356,1537393906,53.8409,-109.966,1115.4,440.4,186.7,5.2,2.1,7.07,42.68,1.9706,391.7955],
    [15357,1537393907,53.8402,-109.966,1115.1,441.1,185.8,4.3,3.4,7.79,43.11,1.9714,393.0369],
    [15358,1537393908,53.8396,-109.9661,1114.9,440.9,185.2,3.8,2.8,8.12,42.5,1.9705,393.0369],
    [15359,1537393909,53.8389,-109.9662,1114.1,441.1,187.1,5.5,2.5,7.54,42.8,1.97,393.7223],
    [15360,1537393910,53.8382,-109.9662,1113.1,440.1,186.7,4.6,3.7,8.18,42.5,1.9701,394.1408],
    [15361,1537393911,53.8375,-109.9663,1112.8,440.8,188.1,5.6,3.0,7.42,42.8,1.9697,392.6914],
    [15362,1537393912,53.8368,-109.9664,1112.8,441.7,188.3,5.5,3.4,7.52,42.81,1.9709,392.6914],
    [15363,1537393913,53.8361,-109.9665,1112.7,441.7,188.3,5.7,3.1,7.29,42.77,1.9676,393.3794],
    [15364,1537393914,53.8354,-109.9666,1112.4,442.4,188.4,6.3,3.6,8.06,42.46,1.9669,392.3911],
    [15365,1537393915,53.8347,-109.9667,1112.6,442.6,188.4,6.5,2.5,7.44,42.81,1.9666,393.6567],
    [15366,1537393916,53.834,-109.9667,1112.5,442.7,187.4,5.6,2.6,7.83,42.66,1.9702,393.1109],
    [15367,1537393917,53.8333,-109.9668,1112.1,442.9,186.3,4.8,2.5,7.69,43.14,1.9717,394.0867],
    [15368,1537393918,53.8327,-109.9669,1112.0,448.0,186.3,5.2,1.8,7.57,42.75,1.9717,393.1042],
    [15369,1537393919,53.832,-109.9669,1112.1,448.1,186.7,5.8,2.2,7.46,42.74,1.9692,393.098],
    [15370,1537393920,53.8313,-109.967,1112.2,445.2,186.4,5.7,2.7,8.19,42.16,1.9696,393.6125],
    [15371,1537393921,53.8306,-109.967,1112.0,446.0,186.5,5.8,2.2,7.78,42.41,1.9687,393.114],
    [15372,1537393922,53.8299,-109.967,1111.8,447.8,186.7,6.2,2.7,7.03,43.0,1.9669,393.114],
    [15373,1537393923,53.8293,-109.9671,1112.0,448.0,186.5,6.3,3.9,7.2,42.96,1.9694,392.1784],
    [15374,1537393924,53.8286,-109.9671,1112.5,448.5,186.9,6.8,3.3,7.48,43.05,1.9724,393.9226],
    [15375,1537393925,53.8279,-109.9672,1113.4,449.4,185.8,4.9,2.9,7.49,43.29,1.9744,393.3347],
    [15376,1537393926,53.8272,-109.9672,1114.0,450.0,184.7,3.9,2.8,7.14,43.01,1.9731,393.5303],
    [15377,1537393927,53.8265,-109.9673,1114.2,450.2,185.6,5.1,2.5,8.03,42.76,1.9716,394.0638],
    [15378,1537393928,53.8258,-109.9673,1114.5,449.7,185.4,4.7,2.1,7.26,43.11,1.9699,394.6911],
    [15379,1537393929,53.8252,-109.9673,1114.3,445.2,185.5,4.6,1.5,7.74,43.14,1.9732,395.3828],
    [15380,1537393930,53.8245,-109.9674,1113.9,444.9,185.1,3.9,1.9,7.68,43.64,1.9703,394.641],
    [15381,1537393931,53.8238,-109.9674,1113.3,443.6,185.6,4.2,1.5,7.24,43.1,1.9726,394.641],
    [15382,1537393932,53.8231,-109.9675,1112.7,442.7,186.1,4.6,1.5,8.25,42.54,1.9854,393.2745],
    [15383,1537393933,53.8224,-109.9675,1111.9,441.9,186.8,4.9,0.8,7.59,42.91,1.9785,392.3678],
    [15384,1537393934,53.8218,-109.9676,1111.0,441.0,186.3,4.4,-0.1,7.01,43.08,1.9711,393.5565],
    [15385,1537393935,53.8211,-109.9677,1110.0,440.0,188.1,7.0,-0.1,7.45,43.16,1.9685,392.4482],
    [15386,1537393936,53.8204,-109.9677,1109.1,439.1,187.7,6.5,-0.2,8.02,43.15,1.9657,392.8739],
    [15387,1537393937,53.8197,-109.9678,1109.2,439.2,186.7,6.1,0.6,7.41,43.2,1.9659,393.2899],
    [15388,1537393938,53.819,-109.9678,1109.1,438.4,187.0,6.8,0.7,8.06,42.96,1.9668,392.1433],
    [15389,1537393939,53.8183,-109.9679,1108.8,437.8,186.8,6.9,0.2,7.22,43.3,1.9669,393.0852],
    [15390,1537393940,53.8177,-109.9679,1108.8,437.5,186.7,6.8,-0.6,7.17,43.24,1.9653,393.375],
    [15391,1537393941,53.817,-109.9679,1109.1,437.1,185.8,5.7,-0.6,7.43,43.36,1.9643,393.375],
    [15392,1537393942,53.8163,-109.9679,1109.7,435.7,183.9,3.7,0.2,7.51,43.81,1.9658,392.7098],
    [15393,1537393943,53.8156,-109.968,1110.9,435.9,184.2,4.3,0.8,7.62,42.65,1.9649,392.7098],
    [15394,1537393944,53.815,-109.968,1111.5,436.4,185.3,5.4,-0.3,7.65,42.67,1.9655,393.0984],
    [15395,1537393945,53.8143,-109.968,1111.8,437.8,185.4,5.3,0.1,7.59,43.02,1.9677,392.798],
    [15396,1537393946,53.8136,-109.968,1112.1,438.1,185.6,5.7,0.5,7.5,43.53,1.9653,393.7723],
    [15397,1537393947,53.8129,-109.9681,1112.2,437.9,185.2,5.2,0.8,7.42,43.17,1.9664,393.3775],
    [15398,1537393948,53.8123,-109.9681,1112.2,437.9,185.3,5.4,1.0,8.24,42.45,1.9734,392.4819],
    [15399,1537393949,53.8116,-109.9681,1112.4,438.2,184.6,4.4,1.9,8.34,42.73,1.9731,391.6627],
    [15400,1537393950,53.8109,-109.9681,1113.0,437.9,184.8,4.8,1.6,7.65,43.04,1.9813,392.388],
    [15401,1537393951,53.8103,-109.9682,1113.4,437.0,185.6,5.4,2.3,7.12,43.64,2.0388,392.5413],
    [15402,1537393952,53.8096,-109.9682,1114.9,437.9,184.6,3.9,2.4,7.12,43.08,2.0447,392.5413],
    [15403,1537393953,53.8089,-109.9682,1116.5,439.2,184.7,3.6,1.7,7.67,42.73,2.054,393.8464],
    [15404,1537393954,53.8082,-109.9683,1116.8,439.5,184.8,3.7,2.1,7.01,43.16,2.0485,394.291],
    [15405,1537393955,53.8076,-109.9683,1116.0,439.2,186.1,5.1,2.0,6.99,43.42,1.9914,393.9415],
    [15406,1537393956,53.8069,-109.9684,1116.0,440.1,186.0,5.1,2.2,7.16,43.26,1.986,393.7129],
    [15407,1537393957,53.8062,-109.9684,1115.8,440.9,186.5,5.8,2.0,7.1,43.44,1.9851,393.3671],
    [15408,1537393958,53.8055,-109.9685,1114.3,440.3,186.5,5.7,1.3,8.04,42.62,1.9721,393.7285],
    [15409,1537393959,53.8049,-109.9685,1112.8,439.6,186.8,6.4,1.5,7.37,43.05,1.9772,392.8563],
    [15410,1537393960,53.8042,-109.9685,1112.3,440.4,186.6,6.5,0.5,7.48,42.88,1.9909,393.3583],
    [15411,1537393961,53.8035,-109.9686,1112.2,442.3,186.2,6.4,0.8,7.65,42.72,1.9986,394.9662],
    [15412,1537393962,53.8028,-109.9686,1111.9,442.9,186.0,6.1,-0.2,7.79,43.03,1.9875,394.0589],
    [15413,1537393963,53.8021,-109.9686,1111.3,443.3,185.5,6.1,1.0,7.4,42.94,1.9767,392.0419],
    [15414,1537393964,53.8014,-109.9686,1110.8,443.5,185.8,6.5,0.7,7.08,43.45,1.967,392.7239],
    [15415,1537393965,53.8008,-109.9687,1110.8,445.5,185.2,5.9,1.1,6.91,42.74,1.9591,393.166],
    [15416,1537393966,53.8001,-109.9687,1111.1,447.2,185.1,5.8,1.0,7.4,43.19,1.9573,392.5305],
    [15417,1537393967,53.7994,-109.9687,1111.3,448.6,185.2,6.0,1.0,7.53,42.17,1.9563,392.1627],
    [15418,1537393968,53.7987,-109.9687,1111.4,450.4,185.5,6.3,0.8,8.31,41.69,1.9551,393.8133],
    [15419,1537393969,53.798,-109.9687,1111.6,454.6,185.5,6.2,0.8,7.41,42.28,1.9544,393.0216],
    [15420,1537393970,53.7973,-109.9688,1112.0,455.0,185.5,6.2,0.8,8.24,41.09,1.9539,393.8836],
    [15421,1537393971,53.7966,-109.9688,1112.2,456.9,185.6,6.3,1.1,7.25,41.26,1.9534,393.5892],
    [15422,1537393972,53.7959,-109.9688,1112.2,457.8,185.7,6.3,1.2,7.45,40.6,1.9521,393.5984],
    [15423,1537393973,53.7953,-109.9688,1112.4,457.9,185.7,6.4,1.5,7.52,40.74,1.9535,393.7595],
    [15424,1537393974,53.7946,-109.9688,1112.8,472.8,185.8,6.8,1.1,7.71,40.1,1.9614,393.4897],
    [15425,1537393975,53.7939,-109.9688,1113.2,473.2,186.1,7.3,0.9,6.78,40.2,1.9616,394.0697],
    [15426,1537393976,53.7932,-109.9689,1113.2,473.2,185.5,6.6,0.8,7.31,40.88,1.9594,393.4474],
    [15427,1537393977,53.7925,-109.9689,1112.9,472.9,185.1,6.3,1.3,7.65,39.73,1.9594,393.2379],
    [15428,1537393978,53.7919,-109.9689,1112.8,472.8,184.9,6.0,1.5,7.37,40.32,1.9642,394.5907],
    [15429,1537393979,53.7912,-109.9689,1112.9,472.9,185.1,6.3,1.8,7.27,40.95,1.9673,394.2344],
    [15430,1537393980,53.7905,-109.9689,1113.1,473.1,185.2,6.3,1.8,7.06,40.49,1.9677,393.4914],
    [15431,1537393981,53.7898,-109.9689,1113.4,473.4,185.1,6.1,2.1,7.32,40.32,1.967,393.7913],
    [15432,1537393982,53.7891,-109.9689,1113.9,473.9,185.0,5.9,1.9,7.29,40.85,1.9691,392.0898],
    [15433,1537393983,53.7884,-109.9689,1114.0,474.0,185.0,5.8,1.7,7.36,40.72,1.9659,392.0898],
    [15434,1537393984,53.7877,-109.969,1113.8,473.6,185.2,5.9,1.5,8.14,40.39,1.9626,393.1588],
    [15435,1537393985,53.7871,-109.969,1113.4,471.4,185.2,5.9,1.2,7.69,41.16,1.9611,393.1382],
    [15436,1537393986,53.7864,-109.969,1112.9,472.9,185.8,6.7,1.3,7.63,41.63,1.9615,393.7739],
    [15437,1537393987,53.7858,-109.969,1112.5,458.7,185.7,6.6,1.7,7.63,40.84,1.9629,393.1464],
    [15438,1537393988,53.785,-109.969,1112.5,457.5,185.4,6.1,1.6,7.61,41.09,1.9659,393.1464],
    [15439,1537393989,53.7843,-109.969,1113.2,458.0,185.1,5.8,1.4,7.18,41.17,1.9796,393.0438],
    [15440,1537393990,53.7837,-109.9691,1113.7,457.7,185.2,6.1,1.1,8.01,41.41,1.9824,392.2042],
    [15441,1537393991,53.783,-109.9691,1113.5,457.5,185.9,6.9,1.1,7.67,41.06,1.9803,394.0148],
    [15442,1537393992,53.7823,-109.9691,1112.5,456.5,185.4,6.3,1.1,7.21,41.94,1.9808,392.8711],
    [15443,1537393993,53.7816,-109.9691,1112.0,456.0,185.3,6.4,0.8,7.33,41.98,1.9986,393.8646],
    [15444,1537393994,53.7809,-109.9691,1112.9,455.9,184.7,5.7,1.2,7.36,42.06,1.9955,393.8646],
    [15445,1537393995,53.7802,-109.9691,1113.7,456.7,184.0,4.8,1.3,7.67,41.66,1.994,394.0123],
    [15446,1537393996,53.7796,-109.9691,1113.9,456.9,184.3,5.0,0.8,7.32,42.61,1.9885,393.7315],
    [15447,1537393997,53.7789,-109.9691,1113.9,456.9,183.7,4.0,1.0,7.74,42.36,1.9857,393.7315],
    [15448,1537393998,53.7782,-109.9692,1113.9,456.9,184.3,4.5,1.6,7.32,43.2,1.9882,393.3107],
    [15449,1537393999,53.7775,-109.9692,1114.5,457.2,184.6,4.4,1.6,7.37,42.92,1.987,394.2528],
    [15450,1537394000,53.7769,-109.9692,1114.6,457.6,184.5,4.2,2.4,7.51,42.91,1.984,393.0026],
    [15451,1537394001,53.7762,-109.9692,1114.4,457.4,185.0,4.9,2.3,7.08,43.31,1.9873,393.6312],
    [15452,1537394002,53.7755,-109.9693,1114.0,457.0,185.8,5.6,2.1,7.25,43.61,1.9871,393.8492],
    [15453,1537394003,53.7748,-109.9693,1113.8,456.8,185.7,5.5,1.8,7.09,43.43,1.9809,393.665],
    [15454,1537394004,53.7741,-109.9693,1114.0,452.0,185.3,5.0,0.8,7.64,43.52,1.981,393.6397],
    [15455,1537394005,53.7735,-109.9694,1113.9,451.6,185.5,5.5,0.7,6.71,43.87,1.9811,393.8976],
    [15456,1537394006,53.7727,-109.9694,1113.2,450.2,185.3,5.6,0.5,8.05,43.46,1.9807,393.6178],
    [15457,1537394007,53.7721,-109.9694,1112.5,449.5,184.8,5.3,0.8,7.27,43.83,1.9798,391.216],
    [15458,1537394008,53.7714,-109.9694,1112.3,448.3,184.3,5.1,1.6,7.93,43.77,1.976,392.8983],
    [15459,1537394009,53.7707,-109.9694,1112.2,448.3,183.9,4.8,2.0,6.8,43.88,1.9771,392.5009],
    [15460,1537394010,53.77,-109.9695,1112.9,447.9,183.6,4.3,1.5,7.46,44.35,1.9792,393.2534],
    [15461,1537394011,53.7693,-109.9695,1113.6,448.2,184.2,4.8,1.1,6.93,43.67,1.9796,394.0286],
    [15462,1537394012,53.7686,-109.9695,1113.5,447.5,184.3,4.6,1.2,6.88,43.65,1.9805,394.0955],
    [15463,1537394013,53.768,-109.9695,1113.1,447.1,184.0,4.1,1.1,7.9,43.09,1.9773,392.8626],
    [15464,1537394014,53.7673,-109.9695,1112.7,446.7,184.6,4.5,0.9,7.37,43.62,1.9806,392.8626],
    [15465,1537394015,53.7666,-109.9696,1112.2,446.2,184.9,4.8,1.6,8.2,43.11,1.9786,394.6005],
    [15466,1537394016,53.7659,-109.9696,1112.0,446.0,185.2,4.8,1.1,7.54,43.33,1.978,394.6005],
    [15467,1537394017,53.7652,-109.9696,1113.1,446.1,185.2,4.9,2.6,7.31,44.11,1.9781,392.3361],
    [15468,1537394018,53.7645,-109.9697,1114.6,447.6,185.8,5.1,2.0,6.95,43.67,1.9775,392.6698],
    [15469,1537394019,53.7639,-109.9697,1114.9,448.9,186.3,5.3,1.2,7.32,44.08,1.977,394.0981],
    [15470,1537394020,53.7632,-109.9698,1114.5,448.5,186.6,5.2,0.5,7.26,44.2,1.9778,393.2184],
    [15471,1537394021,53.7625,-109.9698,1114.2,448.2,186.4,5.0,0.3,7.28,44.14,1.9794,393.7775],
    [15472,1537394022,53.7618,-109.9699,1114.0,448.0,186.2,4.9,0.3,7.96,43.04,1.9809,393.9192],
    [15473,1537394023,53.7612,-109.9699,1114.1,448.1,185.9,4.8,0.5,6.7,43.44,1.9789,393.9194],
    [15474,1537394024,53.7605,-109.97,1114.2,448.2,185.7,4.9,0.4,6.65,43.29,1.9735,393.0534],
    [15475,1537394025,53.7598,-109.97,1113.8,447.8,185.4,4.8,0.6,7.42,42.92,1.9787,393.3271],
    [15476,1537394026,53.7591,-109.97,1113.3,447.3,185.2,4.7,0.8,7.13,43.36,1.9773,394.356],
    [15477,1537394027,53.7584,-109.9701,1113.0,447.0,185.3,4.8,1.2,7.29,43.53,1.9735,391.6129],
    [15478,1537394028,53.7578,-109.9701,1112.9,447.0,185.1,4.7,1.5,7.49,43.3,1.9735,391.9125],
    [15479,1537394029,53.7571,-109.9701,1113.1,446.5,185.9,5.7,0.9,7.27,42.93,1.9744,392.3321],
    [15480,1537394030,53.7564,-109.9702,1113.8,446.8,186.4,6.1,0.6,7.29,42.99,1.9751,392.3321],
    [15481,1537394031,53.7557,-109.9702,1115.0,447.9,185.5,5.0,0.6,7.7,42.16,1.9743,394.214],
    [15482,1537394032,53.755,-109.9702,1115.1,448.4,185.9,5.4,0.3,6.75,42.89,1.9753,394.4917],
    [15483,1537394033,53.7544,-109.9703,1114.0,448.0,185.4,4.6,0.9,7.51,42.69,1.9744,391.9558],
    [15484,1537394034,53.7537,-109.9703,1113.0,447.0,185.1,4.3,0.5,7.34,43.31,1.9731,393.3381],
    [15485,1537394035,53.753,-109.9704,1112.3,447.3,185.3,4.5,0.1,7.19,42.84,1.9711,390.9125],
    [15486,1537394036,53.7523,-109.9704,1111.8,447.7,185.5,4.9,0.1,7.36,42.59,1.9707,394.4686],
    [15487,1537394037,53.7516,-109.9704,1111.3,449.3,185.6,5.0,0.1,7.28,43.24,1.971,393.3531],
    [15488,1537394038,53.7509,-109.9705,1111.1,450.2,185.3,5.1,0.7,7.26,42.96,1.9703,392.6177],
    [15489,1537394039,53.7503,-109.9705,1111.0,451.8,185.6,5.5,0.8,6.7,42.5,1.9735,392.6177],
    [15490,1537394040,53.7496,-109.9705,1112.0,453.9,184.9,4.6,1.3,7.09,42.51,1.9767,392.3501],
    [15491,1537394041,53.7489,-109.9706,1113.1,456.6,185.0,4.8,0.4,6.93,42.47,1.977,393.39],
    [15492,1537394042,53.7482,-109.9706,1113.4,458.3,185.3,5.3,0.4,7.32,42.35,1.9709,393.6114],
    [15493,1537394043,53.7475,-109.9706,1113.2,459.3,185.2,5.3,-0.3,7.13,42.44,1.9728,392.0344],
    [15494,1537394044,53.7468,-109.9706,1113.3,460.4,185.1,5.3,0.0,7.32,42.77,1.972,391.4534],
    [15495,1537394045,53.7461,-109.9707,1113.3,460.3,185.1,5.4,0.3,6.74,42.5,1.9697,393.9366],
    [15496,1537394046,53.7455,-109.9707,1113.2,461.3,184.9,5.3,1.0,7.18,42.54,1.9735,393.9056],
    [15497,1537394047,53.7448,-109.9707,1113.4,462.4,184.8,5.1,0.4,7.18,42.41,1.9716,393.9644],
    [15498,1537394048,53.7441,-109.9707,1113.3,462.3,184.9,5.4,0.4,7.28,42.61,1.9708,394.0547],
    [15499,1537394049,53.7434,-109.9707,1113.3,463.3,184.8,5.4,0.7,7.45,42.09,1.9751,394.3694],
    [15500,1537394050,53.7427,-109.9707,1114.0,464.0,183.9,4.4,0.1,7.24,42.58,1.9789,392.081],
    [15501,1537394051,53.7421,-109.9708,1114.8,464.8,183.8,4.6,0.1,6.68,42.37,1.9764,392.3315],
    [15502,1537394052,53.7414,-109.9708,1114.3,465.3,184.4,5.1,-0.5,7.94,42.22,1.9746,392.3315],
    [15503,1537394053,53.7407,-109.9708,1113.0,464.0,184.2,4.9,0.3,7.25,42.67,1.9739,394.8632],
    [15504,1537394054,53.74,-109.9708,1112.2,463.2,184.4,4.8,0.4,7.08,43.12,1.9703,393.5468],
    [15505,1537394055,53.7393,-109.9708,1112.1,463.1,184.4,4.6,0.5,7.36,42.28,1.9742,391.8671],
    [15506,1537394056,53.7386,-109.9708,1112.1,463.1,185.0,5.1,0.5,7.38,42.4,1.9736,392.5503],
    [15507,1537394057,53.7379,-109.9709,1111.9,461.9,185.3,5.3,0.8,6.54,42.5,1.9742,392.7248],
    [15508,1537394058,53.7373,-109.9709,1111.8,461.8,185.5,5.5,0.6,6.69,42.54,1.9736,393.9541],
    [15509,1537394059,53.7366,-109.9709,1111.9,460.9,185.5,5.4,0.5,6.78,42.4,1.9739,393.2469],
    [15510,1537394060,53.7359,-109.9709,1112.0,460.9,185.3,5.3,0.4,7.1,42.36,1.9741,393.7682],
    [15511,1537394061,53.7352,-109.971,1112.3,460.3,185.1,5.2,0.8,7.18,42.46,1.9787,393.9602],
    [15512,1537394062,53.7346,-109.971,1112.7,459.7,185.4,5.5,0.6,7.25,43.04,1.9786,393.993],
    [15513,1537394063,53.7339,-109.971,1112.9,458.9,184.9,5.0,0.7,6.65,42.1,1.979,394.6028],
    [15514,1537394064,53.7332,-109.971,1113.4,459.4,184.5,4.8,1.2,7.89,42.03,1.9793,393.7039],
    [15515,1537394065,53.7325,-109.9711,1114.5,460.2,184.5,4.6,2.2,7.81,42.22,1.98,392.237],
    [15516,1537394066,53.7319,-109.9711,1116.1,460.9,184.2,4.2,1.9,7.27,42.64,1.9794,393.057],
    [15517,1537394067,53.7312,-109.9711,1117.0,460.0,184.3,4.2,1.3,7.15,43.02,1.9823,392.6672],
    [15518,1537394068,53.7305,-109.9711,1117.3,460.3,184.6,4.2,0.0,6.87,43.14,1.9807,393.151],
    [15519,1537394069,53.7298,-109.9712,1116.6,460.6,184.6,3.8,-0.7,7.27,43.38,1.9797,393.151],
    [15520,1537394070,53.7292,-109.9712,1115.7,460.7,184.9,4.2,-0.7,7.73,43.5,1.9804,394.3819],
    [15521,1537394071,53.7285,-109.9712,1114.7,459.7,186.0,5.4,-1.0,7.62,43.59,1.9785,393.1859],
    [15522,1537394072,53.7278,-109.9713,1113.7,457.7,186.2,5.4,-0.9,7.93,43.22,1.9748,393.2514],
    [15523,1537394073,53.7271,-109.9713,1113.2,458.2,186.0,5.3,-0.4,7.23,43.92,1.9724,393.2405],
    [15524,1537394074,53.7264,-109.9714,1113.0,461.6,185.8,5.2,0.2,7.85,43.62,1.9724,392.9091],
    [15525,1537394075,53.7257,-109.9714,1113.1,464.0,185.5,5.1,-0.1,7.2,44.02,1.9725,393.2528],
    [15526,1537394076,53.725,-109.9714,1113.1,460.1,185.4,5.1,0.0,7.54,42.84,1.9722,394.046],
    [15527,1537394077,53.7243,-109.9715,1112.8,466.2,185.2,5.1,0.1,6.88,43.13,1.9707,391.7005],
    [15528,1537394078,53.7237,-109.9715,1112.7,466.6,185.0,5.2,0.4,7.27,43.77,1.9673,394.0548],
    [15529,1537394079,53.723,-109.9715,1113.0,462.3,185.1,5.4,0.6,7.24,43.07,1.9713,394.3749],
    [15530,1537394080,53.7223,-109.9715,1113.1,457.0,184.9,5.2,1.1,7.7,42.23,1.9741,394.6042],
    [15531,1537394081,53.7216,-109.9715,1113.2,456.1,184.9,5.1,0.9,6.63,42.37,1.9724,393.5307],
    [15532,1537394082,53.7209,-109.9716,1113.4,459.0,185.0,5.3,0.9,7.54,42.18,1.9718,389.2054],
    [15533,1537394083,53.7202,-109.9716,1113.3,469.0,185.2,5.5,0.7,7.4,42.21,1.9728,391.9862],
    [15534,1537394084,53.7195,-109.9716,1113.2,475.5,185.0,5.2,0.7,7.13,42.43,1.974,393.9363],
    [15535,1537394085,53.7189,-109.9716,1113.4,489.6,185.1,5.4,0.4,7.26,42.85,1.9737,393.8283],
    [15536,1537394086,53.7182,-109.9717,1113.6,496.3,185.3,5.6,0.2,7.25,42.08,1.9726,394.2538],
    [15537,1537394087,53.7175,-109.9717,1114.0,500.5,186.0,6.3,-0.1,7.21,42.03,1.9756,392.6655],
    [15538,1537394088,53.7168,-109.9717,1114.5,503.9,185.5,5.6,0.1,7.82,41.42,1.9759,393.1465],
    [15539,1537394089,53.7161,-109.9717,1115.2,506.2,184.4,4.3,-0.8,7.67,42.07,1.9754,392.7782],
    [15540,1537394090,53.7154,-109.9718,1115.4,508.4,184.4,4.9,-0.4,7.14,42.13,1.9741,393.1678],
    [15541,1537394091,53.7147,-109.9718,1114.2,508.2,184.9,5.8,-0.8,7.43,41.95,1.9693,392.7054],
    [15542,1537394092,53.714,-109.9718,1112.9,507.9,184.8,5.8,-0.8,6.88,42.16,1.9717,393.4374],
    [15543,1537394093,53.7134,-109.9718,1112.4,508.6,185.0,6.0,0.1,6.97,42.16,1.973,394.2252],
    [15544,1537394094,53.7127,-109.9718,1112.5,508.8,185.0,5.8,0.3,7.42,42.09,1.974,394.0192],
    [15545,1537394095,53.712,-109.9718,1112.5,509.5,184.9,5.6,0.3,7.14,42.61,1.9722,393.1751],
    [15546,1537394096,53.7113,-109.9718,1112.4,510.4,185.0,5.6,0.1,7.65,41.65,1.9719,393.9232],
    [15547,1537394097,53.7106,-109.9718,1112.5,511.5,185.0,5.5,0.0,7.28,41.56,1.9721,393.1341],
    [15548,1537394098,53.7099,-109.9719,1112.7,512.7,184.7,5.1,-0.1,7.23,41.88,1.9716,393.3434],
    [15549,1537394099,53.7092,-109.9719,1113.0,514.0,184.6,4.9,-0.2,6.92,41.34,1.9736,393.6108],
    [15550,1537394100,53.7085,-109.9719,1113.3,515.3,184.5,4.7,-0.1,7.61,40.77,1.9759,394.1124],
    [15551,1537394101,53.7078,-109.9719,1113.4,515.4,184.7,4.8,-0.2,7.17,41.68,1.9776,394.1766],
    [15552,1537394102,53.7072,-109.9719,1113.3,514.3,184.9,4.8,-0.3,7.15,41.4,1.9779,392.1269],
    [15553,1537394103,53.7065,-109.972,1113.3,513.2,185.1,4.8,0.0,7.22,41.27,1.9789,393.6277],
    [15554,1537394104,53.7058,-109.972,1113.4,512.3,185.2,4.9,-0.1,7.36,41.6,1.9786,393.2837],
    [15555,1537394105,53.7051,-109.972,1113.6,512.3,185.0,4.6,0.1,7.97,41.24,1.9793,392.7833],
    [15556,1537394106,53.7044,-109.9721,1113.9,511.6,185.1,4.8,0.4,6.71,41.61,1.977,393.1059],
    [15557,1537394107,53.7037,-109.9721,1114.3,511.3,185.2,4.9,0.2,7.62,41.04,1.9756,392.5967],
    [15558,1537394108,53.703,-109.9721,1114.3,510.3,185.3,5.1,0.2,6.87,41.71,1.9764,391.8465],
    [15559,1537394109,53.7024,-109.9722,1114.2,509.5,185.5,5.2,0.1,7.25,41.7,1.9752,392.0661],
    [15560,1537394110,53.7017,-109.9722,1114.0,509.0,185.5,5.2,-0.1,7.28,41.85,1.9762,391.7872],
    [15561,1537394111,53.701,-109.9722,1113.7,509.7,185.6,5.3,-0.2,7.3,42.26,1.9771,393.0069],
    [15562,1537394112,53.7003,-109.9723,1113.6,509.6,185.6,5.3,-0.5,7.23,42.2,1.9781,391.1221],
    [15563,1537394113,53.6996,-109.9723,1113.6,506.6,185.3,5.1,-0.8,7.24,41.66,1.9755,394.2118],
    [15564,1537394114,53.6989,-109.9723,1113.8,505.1,185.2,5.0,-0.8,7.41,41.4,1.9758,394.2656],
    [15565,1537394115,53.6983,-109.9723,1113.7,503.7,185.3,5.3,-0.3,7.16,41.94,1.9764,393.4397],
    [15566,1537394116,53.6976,-109.9724,1113.2,501.9,185.5,5.5,-0.1,6.51,41.97,1.9774,393.5297],
    [15567,1537394117,53.6969,-109.9724,1113.1,499.8,185.1,5.0,0.0,7.06,41.92,1.9784,393.2697],
    [15568,1537394118,53.6962,-109.9724,1113.6,498.6,184.9,4.6,-0.6,6.98,42.2,1.9778,393.4042],
    [15569,1537394119,53.6956,-109.9725,1114.0,496.3,185.4,5.3,-0.4,8.14,41.95,1.9778,394.4013],
    [15570,1537394120,53.6949,-109.9725,1113.9,494.4,185.6,5.4,-0.5,7.86,42.39,1.9777,392.5174],
    [15571,1537394121,53.6942,-109.9725,1113.7,493.5,185.6,5.4,-0.7,7.37,42.43,1.9775,392.9701],
    [15572,1537394122,53.6935,-109.9725,1113.5,490.0,185.6,5.4,-0.7,7.61,42.4,1.9808,393.0908],
    [15573,1537394123,53.6928,-109.9726,1113.3,489.3,185.3,5.0,-0.4,7.2,42.73,1.979,392.0004],
    [15574,1537394124,53.6921,-109.9726,1113.2,491.2,184.9,4.4,-0.5,7.35,43.38,1.9792,392.3811],
    [15575,1537394125,53.6915,-109.9726,1113.3,492.7,184.7,4.2,-0.5,6.94,43.1,1.9795,393.5601],
    [15576,1537394126,53.6908,-109.9727,1113.1,493.9,184.9,4.3,-0.4,7.4,42.76,1.9796,392.695],
    [15577,1537394127,53.6901,-109.9727,1113.0,494.1,184.9,4.3,-0.8,7.6,42.72,1.9804,392.0582],
    [15578,1537394128,53.6894,-109.9727,1113.5,495.5,184.4,3.6,-0.8,6.84,42.87,1.9808,393.1748],
    [15579,1537394129,53.6887,-109.9728,1113.7,496.7,184.6,3.9,-0.7,6.96,42.86,1.9802,393.1159],
    [15580,1537394130,53.688,-109.9728,1113.4,496.4,184.4,3.7,-0.4,7.22,42.9,1.9809,393.1259],
    [15581,1537394131,53.6874,-109.9728,1113.2,496.2,184.3,3.6,-0.6,7.41,43.11,1.9791,393.2879],
    [15582,1537394132,53.6867,-109.9729,1112.9,495.9,185.1,4.8,-0.2,8.07,42.29,1.98,393.3087],
    [15583,1537394133,53.686,-109.9729,1112.9,496.9,184.6,4.0,-0.4,8.14,42.47,1.9784,392.7554],
    [15584,1537394134,53.6853,-109.9729,1113.3,497.3,184.6,4.3,-0.4,7.14,43.42,1.9769,392.623],
    [15585,1537394135,53.6847,-109.9729,1113.5,498.5,184.6,4.2,-0.2,7.57,42.76,1.9765,394.1094],
    [15586,1537394136,53.6839,-109.973,1113.0,499.0,184.3,4.1,0.5,6.86,42.89,1.9768,393.9416],
    [15587,1537394137,53.6833,-109.973,1112.7,501.1,184.8,4.6,-0.1,7.68,42.56,1.9785,393.0939],
    [15588,1537394138,53.6826,-109.973,1112.8,501.5,184.7,4.6,0.0,6.63,42.86,1.9783,391.6967],
    [15589,1537394139,53.6819,-109.9731,1112.8,501.1,185.2,5.2,0.0,7.79,42.44,1.9791,391.7308],
    [15590,1537394140,53.6812,-109.9731,1112.7,501.7,184.9,4.8,-0.5,7.31,43.07,1.9804,392.954],
    [15591,1537394141,53.6805,-109.9731,1112.8,502.8,185.0,5.1,-0.4,7.3,42.69,1.9794,394.0607],
    [15592,1537394142,53.6799,-109.9731,1113.0,504.0,185.7,6.2,-0.3,7.45,42.59,1.9757,393.646],
    [15593,1537394143,53.6792,-109.9731,1113.2,504.2,185.8,6.2,-1.5,7.55,42.92,1.9779,393.4314],
    [15594,1537394144,53.6785,-109.9732,1112.8,504.8,185.4,6.0,-1.0,7.5,43.08,1.9789,392.4938],
    [15595,1537394145,53.6778,-109.9732,1112.8,505.8,185.2,6.2,-1.8,7.36,42.71,1.979,391.7713],
    [15596,1537394146,53.6771,-109.9732,1113.0,507.0,184.0,5.0,-2.3,7.1,42.86,1.9783,392.0075],
    [15597,1537394147,53.6765,-109.9732,1112.4,507.2,183.4,5.0,-0.8,6.66,42.82,1.9778,394.0716],
    [15598,1537394148,53.6758,-109.9732,1112.1,508.1,184.5,6.3,-0.9,7.93,42.33,1.9779,392.6985],
    [15599,1537394149,53.6751,-109.9732,1113.7,510.7,183.8,5.5,-0.6,7.04,43.19,1.9793,393.7185],
    [15600,1537394150,53.6744,-109.9732,1114.5,512.5,184.8,6.6,-0.6,7.34,43.38,1.9795,391.5336],
    [15601,1537394151,53.6737,-109.9732,1114.6,512.6,184.5,5.9,-1.2,7.21,43.74,1.9807,391.8186],
    [15602,1537394152,53.673,-109.9731,1115.4,514.4,183.6,5.0,-1.4,7.19,43.18,1.9787,393.9667],
    [15603,1537394153,53.6724,-109.9731,1116.5,515.5,184.2,5.3,-1.7,7.01,43.46,1.9785,393.6176],
    [15604,1537394154,53.6717,-109.9732,1116.6,516.6,183.9,4.7,-2.4,7.29,43.62,1.979,390.8685],
    [15605,1537394155,53.671,-109.9732,1116.4,516.7,184.4,4.9,-2.4,7.26,44.25,1.9793,393.3772],
    [15606,1537394156,53.6703,-109.9732,1116.1,517.1,184.5,4.8,-1.1,7.06,43.59,1.9789,392.7795],
    [15607,1537394157,53.6696,-109.9732,1115.5,517.5,185.2,5.3,-1.0,7.59,43.24,1.9796,393.4098],
    [15608,1537394158,53.6689,-109.9732,1114.8,517.8,184.2,3.6,-1.5,7.48,44.29,1.9792,392.5109],
    [15609,1537394159,53.6682,-109.9733,1114.4,518.4,184.5,3.9,-0.9,6.89,43.63,1.9775,393.0034],
    [15610,1537394160,53.6675,-109.9733,1113.1,518.2,185.1,4.1,-1.4,7.8,43.61,1.9763,393.5873],
    [15611,1537394161,53.6668,-109.9733,1111.9,517.2,184.6,3.5,-1.0,7.07,43.84,1.9765,392.4754],
    [15612,1537394162,53.6661,-109.9734,1111.4,517.4,185.4,4.3,-1.5,7.65,43.52,1.9755,392.3132],
    [15613,1537394163,53.6654,-109.9734,1111.0,520.0,185.5,4.3,-1.3,7.94,43.41,1.9749,394.9682],
    [15614,1537394164,53.6647,-109.9735,1110.9,519.9,185.7,4.5,-1.6,7.28,43.56,1.9743,390.8796],
    [15615,1537394165,53.664,-109.9735,1111.1,518.7,185.2,4.1,-1.6,7.24,44.07,1.9752,392.7791],
    [15616,1537394166,53.6633,-109.9736,1111.5,517.5,184.6,3.7,-1.4,7.35,43.2,1.9756,392.6961],
    [15617,1537394167,53.6626,-109.9736,1111.9,517.9,185.0,4.5,-1.5,7.04,43.74,1.9767,392.9738],
    [15618,1537394168,53.6619,-109.9736,1111.7,517.7,185.0,4.4,-1.6,7.45,42.63,1.9783,392.5731],
    [15619,1537394169,53.6613,-109.9737,1111.9,517.9,184.2,3.4,-1.7,7.01,43.01,1.9795,393.5481],
    [15620,1537394170,53.6606,-109.9737,1112.2,518.2,183.8,2.9,-2.0,7.33,42.74,1.979,393.6755],
    [15621,1537394171,53.6599,-109.9737,1112.9,525.0,184.1,3.0,-1.7,7.42,43.5,1.9797,393.2125],
    [15622,1537394172,53.6592,-109.9738,1113.1,525.1,184.3,2.9,-1.3,7.61,42.59,1.98,392.2418],
    [15623,1537394173,53.6585,-109.9738,1113.1,521.1,184.0,2.2,-2.1,7.28,42.92,1.9763,392.1212],
    [15624,1537394174,53.6578,-109.9739,1112.5,520.5,184.4,2.5,-2.8,7.01,43.38,1.9759,392.7102],
    [15625,1537394175,53.6571,-109.9739,1111.8,517.8,185.0,3.0,-3.2,6.93,42.96,1.9764,393.3351],
    [15626,1537394176,53.6564,-109.974,1112.1,518.1,184.5,2.5,-3.4,7.12,43.21,1.9757,390.7808],
    [15627,1537394177,53.6557,-109.974,1112.7,518.7,184.6,2.9,-2.7,7.21,42.69,1.9766,392.9523],
    [15628,1537394178,53.655,-109.9741,1112.8,519.8,185.5,3.5,-3.7,6.94,42.7,1.9773,393.1659],
    [15629,1537394179,53.6543,-109.9741,1112.6,520.6,184.5,2.3,-3.2,7.29,43.22,1.9768,393.2733],
    [15630,1537394180,53.6536,-109.9742,1112.2,521.2,184.8,2.9,-2.9,7.36,43.48,1.9767,393.8602],
    [15631,1537394181,53.6529,-109.9742,1112.3,522.3,185.1,3.2,-3.5,6.8,42.76,1.9764,394.6819],
    [15632,1537394182,53.6522,-109.9743,1112.9,523.8,185.4,3.3,-3.8,7.28,42.78,1.9784,393.3938],
    [15633,1537394183,53.6515,-109.9743,1114.0,524.9,183.8,1.5,-3.0,7.74,42.57,1.9782,393.562],
    [15634,1537394184,53.6508,-109.9744,1114.2,525.7,184.3,2.3,-2.8,7.78,42.71,1.9764,391.6727],
    [15635,1537394185,53.6501,-109.9744,1113.9,525.9,185.2,3.2,-1.9,7.17,43.14,1.9775,392.9341],
    [15636,1537394186,53.6494,-109.9745,1114.1,527.1,185.3,2.9,-1.9,7.33,43.08,1.9779,393.3933],
    [15637,1537394187,53.6487,-109.9746,1115.0,528.0,184.9,2.2,-3.0,7.36,43.19,1.9766,394.3909],
    [15638,1537394188,53.648,-109.9746,1115.5,534.5,184.7,2.3,-2.9,7.58,42.94,1.974,392.7682],
    [15639,1537394189,53.6473,-109.9747,1116.0,535.0,185.5,3.6,-2.0,7.28,43.07,1.9662,393.2247],
    [15640,1537394190,53.6466,-109.9747,1116.5,533.1,186.2,4.4,-1.2,7.28,43.67,1.9663,391.5657],
    [15641,1537394191,53.6459,-109.9748,1115.9,533.0,186.1,4.2,-1.6,7.42,42.85,1.9675,391.6312],
    [15642,1537394192,53.6452,-109.9749,1115.0,533.1,185.2,3.0,-0.8,8.16,42.57,1.9638,392.8047],
    [15643,1537394193,53.6444,-109.9749,1114.1,533.1,184.7,2.2,-0.3,7.84,42.02,1.9638,392.8833],
    [15644,1537394194,53.6437,-109.975,1112.7,532.0,184.7,2.2,0.5,6.67,42.46,1.9672,393.9635],
    [15645,1537394195,53.643,-109.9751,1111.4,531.4,184.9,2.2,0.6,7.04,42.48,1.9674,393.7446],
    [15646,1537394196,53.6423,-109.9751,1111.9,533.5,185.0,2.4,0.5,7.21,42.24,1.9677,391.7775],
    [15647,1537394197,53.6416,-109.9752,1113.5,541.7,185.8,3.4,-0.1,7.49,42.73,1.9684,392.0258],
    [15648,1537394198,53.6409,-109.9753,1113.7,547.4,186.2,3.7,-0.8,7.74,41.92,1.9683,392.5457],
    [15649,1537394199,53.6402,-109.9753,1113.5,551.6,186.6,4.2,-1.0,7.42,42.14,1.9668,391.6305],
    [15650,1537394200,53.6394,-109.9754,1114.0,551.7,187.1,4.9,-0.6,7.49,42.18,1.9666,394.1293],
    [15651,1537394201,53.6387,-109.9755,1113.8,550.8,187.3,5.4,-0.7,7.42,41.77,1.9669,392.8991],
    [15652,1537394202,53.6381,-109.9756,1113.6,547.6,187.6,6.1,-0.3,7.47,41.22,1.9669,391.7026],
    [15653,1537394203,53.6373,-109.9756,1113.8,546.7,186.9,5.7,-1.0,7.8,41.06,1.9662,394.5839],
    [15654,1537394204,53.6366,-109.9757,1113.5,545.4,185.9,5.1,-0.2,7.62,41.52,1.9651,394.1595],
    [15655,1537394205,53.6359,-109.9757,1112.8,545.7,185.2,4.7,0.5,7.42,41.13,1.9647,393.9084],
    [15656,1537394206,53.6352,-109.9757,1112.8,547.1,184.9,4.7,1.3,7.28,41.01,1.9665,392.0092],
    [15657,1537394207,53.6345,-109.9758,1113.3,549.0,185.1,4.9,0.6,7.55,40.8,1.9665,393.7322],
    [15658,1537394208,53.6338,-109.9758,1114.3,552.3,184.8,4.5,0.3,7.45,40.72,1.9653,393.9078],
    [15659,1537394209,53.6331,-109.9758,1115.2,558.2,184.4,3.6,0.8,7.58,40.24,1.9651,392.1763],
    [15660,1537394210,53.6324,-109.9759,1116.2,556.5,184.0,2.4,0.2,7.42,40.47,1.966,393.0289],
    [15661,1537394211,53.6317,-109.9759,1117.1,554.0,184.1,2.4,0.3,7.5,40.8,1.9645,392.9106],
    [15662,1537394212,53.631,-109.976,1116.3,552.8,185.5,3.8,0.1,7.34,40.5,1.9633,392.8281],
    [15663,1537394213,53.6303,-109.976,1114.3,549.2,185.4,3.9,0.3,7.1,40.52,1.9633,391.2343],
    [15664,1537394214,53.6296,-109.9761,1112.1,546.8,186.4,4.8,-0.6,7.65,40.37,1.9636,393.8627],
    [15665,1537394215,53.6289,-109.9762,1110.8,546.8,185.3,3.5,-0.3,7.5,40.57,1.9612,393.4434],
    [15666,1537394216,53.6282,-109.9762,1110.2,544.5,185.2,3.6,0.4,7.92,40.38,1.9612,393.1022],
    [15667,1537394217,53.6275,-109.9763,1110.1,542.7,184.5,3.2,0.3,7.47,40.46,1.9612,393.4895],
    [15668,1537394218,53.6268,-109.9763,1110.0,540.7,185.2,4.5,0.4,7.69,40.05,1.9595,393.5941],
    [15669,1537394219,53.6261,-109.9763,1110.1,538.8,185.3,4.6,0.3,8.16,39.96,1.9606,392.8482],
    [15670,1537394220,53.6254,-109.9764,1110.8,538.8,185.3,4.8,0.9,7.2,40.17,1.9599,393.4987],
    [15671,1537394221,53.6247,-109.9764,1111.9,539.3,185.2,4.7,1.0,8.26,39.57,1.9586,392.3871],
    [15672,1537394222,53.624,-109.9764,1112.9,540.2,185.5,5.0,0.8,7.86,39.17,1.9609,392.5553],
    [15673,1537394223,53.6233,-109.9765,1113.6,541.9,185.9,5.6,0.6,7.79,39.65,1.9603,393.9639],
    [15674,1537394224,53.6226,-109.9765,1113.7,542.9,186.2,5.8,0.5,7.67,39.02,1.9579,393.9639],
    [15675,1537394225,53.622,-109.9766,1113.4,543.5,186.2,5.7,0.4,6.92,39.27,1.9584,393.903],
    [15676,1537394226,53.6213,-109.9766,1113.3,544.6,185.9,5.5,0.0,7.72,39.19,1.9587,394.2894],
    [15677,1537394227,53.6206,-109.9766,1113.7,545.9,185.6,5.4,-0.1,7.5,40.03,1.9614,391.9278],
    [15678,1537394228,53.6199,-109.9767,1114.2,548.1,186.2,6.3,0.0,7.62,39.05,1.9605,393.2933],
    [15679,1537394229,53.6192,-109.9767,1114.5,549.4,185.8,5.9,-0.2,7.58,39.77,1.9596,394.072],
    [15680,1537394230,53.6185,-109.9767,1114.1,550.3,185.3,5.5,0.7,7.64,39.07,1.9574,392.6914],
    [15681,1537394231,53.6178,-109.9767,1113.8,551.5,185.1,5.4,1.1,7.03,39.15,1.9554,394.8098],
    [15682,1537394232,53.6172,-109.9768,1114.2,552.2,185.2,5.6,1.3,7.57,39.09,1.9565,393.3845],
    [15683,1537394233,53.6165,-109.9768,1114.6,552.5,185.7,6.0,0.8,8.04,39.45,1.9543,392.8291],
    [15684,1537394234,53.6158,-109.9768,1114.9,554.7,185.5,5.7,0.3,7.84,39.18,1.9558,391.8904],
    [15685,1537394235,53.6151,-109.9768,1115.5,556.9,185.3,5.4,0.1,7.48,39.38,1.9556,393.5863],
    [15686,1537394236,53.6145,-109.9769,1115.7,557.6,185.1,5.2,0.3,7.84,39.5,1.9542,392.2002],
    [15687,1537394237,53.6138,-109.9769,1114.9,556.9,185.1,5.4,0.6,7.61,39.52,1.9532,393.7123],
    [15688,1537394238,53.6131,-109.9769,1113.9,555.9,185.1,5.2,0.2,7.64,40.08,1.9552,394.2469],
    [15689,1537394239,53.6124,-109.9769,1113.0,556.0,184.9,4.9,0.0,7.53,39.9,1.9526,394.2352],
    [15690,1537394240,53.6117,-109.9769,1113.0,557.3,184.4,4.4,0.2,7.48,40.16,1.9528,394.2123],
    [15691,1537394241,53.611,-109.977,1113.4,559.4,184.1,4.0,0.2,7.61,40.86,1.9539,393.0641],
    [15692,1537394242,53.6104,-109.977,1114.5,561.5,184.3,3.8,-1.0,7.18,40.4,1.9541,392.9973],
    [15693,1537394243,53.6097,-109.977,1116.1,565.1,184.8,3.6,-1.1,8.06,39.84,1.9527,392.4841],
    [15694,1537394244,53.609,-109.9771,1117.2,567.3,185.7,4.1,-0.5,7.25,40.35,1.955,392.429],
    [15695,1537394245,53.6083,-109.9771,1116.2,567.1,187.2,5.3,-0.7,7.33,40.46,1.9543,395.1123],
    [15696,1537394246,53.6076,-109.9772,1113.4,565.4,186.6,4.2,-0.6,7.37,40.53,1.9541,394.323],
    [15697,1537394247,53.6069,-109.9773,1111.3,564.3,186.6,4.3,-0.5,7.64,40.28,1.9515,394.5918],
    [15698,1537394248,53.6062,-109.9773,1110.2,564.2,186.4,4.3,-0.6,8.33,40.04,1.9512,392.9582],
    [15699,1537394249,53.6055,-109.9774,1110.0,564.9,186.0,4.2,0.0,7.47,40.54,1.9515,392.9582],
    [15700,1537394250,53.6049,-109.9775,1110.4,567.1,185.7,4.4,0.6,7.59,41.15,1.9539,393.5196],
    [15701,1537394251,53.6042,-109.9775,1110.8,569.5,186.0,5.2,1.0,7.71,40.6,1.9545,392.6767],
    [15702,1537394252,53.6035,-109.9775,1111.3,571.3,185.5,4.8,0.7,8.06,40.3,1.9543,393.4452],
    [15703,1537394253,53.6028,-109.9776,1111.7,573.7,185.4,4.9,0.5,7.48,40.6,1.9549,393.7332],
    [15704,1537394254,53.6021,-109.9776,1112.4,575.4,184.7,4.3,0.0,7.43,40.76,1.9548,391.9501],
    [15705,1537394255,53.6014,-109.9776,1112.6,576.6,184.9,4.8,0.1,7.41,40.9,1.9537,391.8712],
    [15706,1537394256,53.6007,-109.9777,1112.2,576.2,185.4,5.5,-0.4,7.69,40.96,1.9519,392.8492],
    [15707,1537394257,53.6001,-109.9777,1112.4,576.3,185.1,5.3,-0.6,7.34,40.97,1.9539,393.0106],
    [15708,1537394258,53.5993,-109.9777,1112.8,582.6,185.2,5.6,-0.6,8.07,40.6,1.9537,391.4014],
    [15709,1537394259,53.5986,-109.9777,1113.0,594.2,184.8,5.3,-0.4,7.74,41.18,1.9526,391.9538],
    [15710,1537394260,53.598,-109.9777,1112.9,611.6,184.7,5.2,-0.5,7.41,40.58,1.9524,392.9629],
    [15711,1537394261,53.5973,-109.9778,1112.8,614.8,184.6,5.2,-0.9,7.8,40.31,1.9543,393.3385],
    [15712,1537394262,53.5966,-109.9778,1112.9,616.9,184.5,5.3,-0.7,7.58,41.24,1.9537,393.3686],
    [15713,1537394263,53.5959,-109.9778,1112.9,616.9,184.3,5.2,-0.7,7.56,40.94,1.9539,393.2889],
    [15714,1537394264,53.5952,-109.9778,1112.6,614.8,184.7,6.0,-0.7,6.96,40.86,1.9551,393.2967],
    [15715,1537394265,53.5945,-109.9778,1112.4,616.4,184.9,6.2,-0.9,7.35,41.19,1.9545,393.2169],
    [15716,1537394266,53.5939,-109.9778,1112.6,616.6,184.4,5.8,-0.5,7.56,40.72,1.9546,394.0398],
    [15717,1537394267,53.5932,-109.9778,1112.9,616.9,184.8,6.1,-0.8,7.41,40.86,1.9549,393.9359],
    [15718,1537394268,53.5925,-109.9778,1113.4,617.4,184.4,5.7,-0.2,7.0,40.82,1.9569,393.1401],
    [15719,1537394269,53.5918,-109.9778,1113.4,617.4,184.4,5.8,-0.8,7.44,40.7,1.9576,394.3447],
    [15720,1537394270,53.5911,-109.9778,1112.6,611.6,184.4,5.7,-1.2,8.02,40.85,1.9581,393.7931],
    [15721,1537394271,53.5904,-109.9778,1112.7,602.7,183.7,4.8,-2.0,7.07,41.32,1.9561,392.0908],
    [15722,1537394272,53.5898,-109.9778,1114.3,606.1,182.8,3.8,-1.9,7.87,40.77,1.9561,393.0187],
    [15723,1537394273,53.5891,-109.9778,1115.6,597.8,183.0,3.9,-1.1,7.36,41.37,1.9546,392.968],
    [15724,1537394274,53.5884,-109.9778,1116.1,586.5,182.4,2.9,-0.5,7.46,41.38,1.9574,394.4431],
    [15725,1537394275,53.5878,-109.9778,1116.8,580.4,182.3,2.5,-0.3,7.52,41.85,1.961,392.9629],
    [15726,1537394276,53.587,-109.9778,1118.6,578.6,182.6,2.4,-0.7,8.44,40.91,1.9624,393.4224],
    [15727,1537394277,53.5864,-109.9778,1119.7,575.7,182.9,2.4,-1.0,7.77,41.68,1.9621,393.6664],
    [15728,1537394278,53.5857,-109.9779,1120.1,572.4,183.2,2.8,-1.3,7.66,42.22,1.96,392.9237],
    [15729,1537394279,53.585,-109.9779,1119.2,565.8,184.6,4.7,0.6,7.75,41.96,1.9629,392.0241],
    [15730,1537394280,53.5843,-109.9779,1117.7,560.0,184.9,4.9,0.9,7.76,42.4,1.9639,393.2085],
    [15731,1537394281,53.5836,-109.9779,1117.7,553.3,185.0,5.1,0.8,7.59,43.06,1.9607,393.7456],
    [15732,1537394282,53.5829,-109.978,1116.7,549.7,184.5,4.4,1.5,7.48,42.5,1.9621,392.7681],
    [15733,1537394283,53.5822,-109.978,1115.5,543.5,184.5,4.5,1.7,7.11,42.35,1.9652,393.2291],
    [15734,1537394284,53.5815,-109.978,1115.7,540.3,184.8,4.5,1.3,7.56,42.28,1.9646,392.4818],
    [15735,1537394285,53.5808,-109.978,1117.0,534.1,183.8,3.4,0.7,7.77,41.5,1.9631,393.2842],
    [15736,1537394286,53.5801,-109.9781,1118.0,526.2,184.5,4.1,0.5,7.71,41.41,1.9647,392.7872],
    [15737,1537394287,53.5794,-109.9781,1118.2,518.4,184.7,4.4,0.9,8.16,41.47,1.9712,394.0487],
    [15738,1537394288,53.5787,-109.9781,1118.1,514.1,185.3,5.4,1.0,7.72,42.41,1.971,394.0487],
    [15739,1537394289,53.578,-109.9782,1118.3,508.6,184.8,4.4,1.0,7.54,41.97,1.974,393.4367],
    [15740,1537394290,53.5772,-109.9782,1117.8,506.1,184.1,3.3,1.6,7.08,41.72,1.9702,392.5469],
    [15741,1537394291,53.5765,-109.9782,1117.5,503.0,184.2,3.3,2.1,6.89,41.87,1.9764,394.094],
    [15742,1537394292,53.5758,-109.9783,1117.5,501.1,185.7,5.4,1.8,7.44,41.76,1.977,392.4736],
    [15743,1537394293,53.5751,-109.9783,1116.9,497.8,188.0,7.4,0.5,7.31,41.65,1.9735,392.8732],
    [15744,1537394294,53.5744,-109.9784,1116.4,495.1,187.9,6.7,-0.4,7.59,42.01,1.9702,392.1911],
    [15745,1537394295,53.5737,-109.9785,1115.6,491.6,188.1,6.9,-0.9,7.63,42.25,1.9684,393.4864],
    [15746,1537394296,53.573,-109.9785,1114.4,488.4,187.6,6.6,-1.2,7.37,41.97,1.9684,392.1409],
    [15747,1537394297,53.5723,-109.9786,1113.3,485.7,186.7,6.3,-0.8,7.77,41.66,1.9758,393.3056],
    [15748,1537394298,53.5715,-109.9786,1113.1,482.2,185.8,5.8,0.3,7.6,41.67,1.9723,392.2954],
    [15749,1537394299,53.5708,-109.9787,1113.3,479.7,184.1,3.9,-0.2,8.02,41.41,1.966,392.4926],
    [15750,1537394300,53.5701,-109.9787,1112.8,477.5,183.7,3.9,-0.3,7.73,41.4,1.9665,393.6804],
    [15751,1537394301,53.5694,-109.9787,1112.3,475.0,184.7,5.0,-1.6,7.95,41.61,1.9658,390.9698],
    [15752,1537394302,53.5686,-109.9787,1112.0,474.0,184.2,4.4,-0.6,7.53,41.46,1.9661,393.1551],
    [15753,1537394303,53.5679,-109.9787,1112.2,473.2,184.8,5.3,-0.2,8.36,41.02,1.9576,393.0143],
    [15754,1537394304,53.5672,-109.9788,1111.8,472.8,185.4,5.6,-0.4,7.59,41.02,1.9606,393.2979],
    [15755,1537394305,53.5665,-109.9788,1111.8,472.1,185.3,5.3,-0.8,8.5,40.58,1.967,393.2481],
    [15756,1537394306,53.5658,-109.9788,1112.0,472.0,185.5,5.3,-1.6,8.17,40.57,1.9784,393.0961],
    [15757,1537394307,53.565,-109.9789,1112.4,471.4,184.0,3.4,-1.7,7.5,41.03,1.9754,391.7253],
    [15758,1537394308,53.5643,-109.9789,1113.0,473.0,183.3,3.2,-1.2,7.05,40.85,1.9826,392.7443],
    [15759,1537394309,53.5636,-109.9789,1113.7,476.1,183.2,3.5,-1.4,7.56,41.46,1.9789,394.232],
    [15760,1537394310,53.5629,-109.9789,1113.4,481.1,182.5,2.8,-1.1,7.62,41.28,1.9634,393.6223],
    [15761,1537394311,53.5622,-109.9789,1113.3,489.0,181.7,2.0,-1.5,7.75,40.62,1.9616,393.1931],
    [15762,1537394312,53.5615,-109.9789,1114.2,495.7,182.8,3.3,-1.9,7.6,41.06,1.9619,393.3144],
    [15763,1537394313,53.5608,-109.9789,1114.6,509.9,182.7,3.2,-2.3,7.17,40.7,1.9572,392.2544],
    [15764,1537394314,53.5601,-109.9789,1113.9,519.7,182.5,3.3,-2.0,6.99,40.9,1.9567,392.9485],
    [15765,1537394315,53.5593,-109.9789,1113.4,523.4,182.3,3.1,-1.8,8.17,40.4,1.9566,394.0172],
    [15766,1537394316,53.5586,-109.9789,1114.0,525.8,182.3,3.3,-2.2,7.64,41.03,1.9562,393.2665],
    [15767,1537394317,53.5579,-109.9789,1114.6,527.6,183.5,4.7,-1.4,7.55,40.81,1.9558,393.0459],
    [15768,1537394318,53.5572,-109.9789,1114.2,529.2,183.4,4.2,-1.2,7.9,40.49,1.9562,392.8712],
    [15769,1537394319,53.5564,-109.9789,1113.6,530.4,183.8,4.8,-0.6,7.75,40.63,1.9567,393.5923],
    [15770,1537394320,53.5557,-109.979,1114.0,532.5,184.6,5.5,0.1,8.06,40.56,1.9554,393.563],
    [15771,1537394321,53.555,-109.979,1115.4,534.7,183.7,4.3,0.6,8.41,40.24,1.9564,394.5592],
    [15772,1537394322,53.5543,-109.979,1116.6,537.6,183.4,4.0,0.7,7.86,41.08,1.957,393.1807],
    [15773,1537394323,53.5536,-109.979,1116.6,537.6,183.5,4.2,0.3,7.58,40.75,1.9561,393.3312],
    [15774,1537394324,53.5529,-109.979,1116.5,536.4,183.2,3.6,-0.1,7.67,40.64,1.9543,392.8165],
    [15775,1537394325,53.5521,-109.979,1117.4,536.1,182.9,3.6,-0.6,7.86,40.22,1.9556,393.555],
    [15776,1537394326,53.5514,-109.979,1117.4,534.5,183.4,4.3,-0.6,7.55,40.45,1.9566,394.1654],
    [15777,1537394327,53.5507,-109.979,1116.7,531.1,183.7,4.7,-0.4,7.78,40.26,1.9564,392.85],
    [15778,1537394328,53.55,-109.979,1116.1,527.4,182.8,3.6,-0.9,7.15,40.45,1.9563,394.1101],
    [15779,1537394329,53.5493,-109.979,1115.7,525.4,183.3,4.5,-0.6,7.68,40.79,1.9559,391.1716],
    [15780,1537394330,53.5485,-109.979,1114.3,521.1,183.5,4.8,-0.8,7.3,40.36,1.9542,392.4393],
    [15781,1537394331,53.5478,-109.979,1113.3,517.3,182.9,4.4,-0.6,7.7,40.62,1.9552,393.8592],
    [15782,1537394332,53.5471,-109.979,1112.8,511.5,182.8,4.7,-1.4,8.34,39.91,1.9553,394.5175],
    [15783,1537394333,53.5464,-109.979,1112.4,507.7,183.2,5.1,-0.9,7.86,39.86,1.9545,391.9255],
    [15784,1537394334,53.5457,-109.979,1111.7,504.0,183.7,5.7,-1.4,8.24,39.87,1.9538,392.4497],
    [15785,1537394335,53.545,-109.979,1111.3,502.3,184.1,5.8,-1.6,7.51,39.91,1.9532,392.4497],
    [15786,1537394336,53.5443,-109.979,1111.3,502.2,183.9,5.6,-1.4,7.45,40.08,1.955,393.7567],
    [15787,1537394337,53.5436,-109.979,1111.8,505.0,183.9,5.7,-0.8,7.62,39.92,1.9556,393.9307],
    [15788,1537394338,53.5428,-109.979,1113.3,504.6,182.7,4.5,-0.8,7.09,39.93,1.9533,393.3503],
    [15789,1537394339,53.5421,-109.979,1114.6,505.6,181.5,3.5,0.8,7.34,40.3,1.9508,391.8365],
    [15790,1537394340,53.5414,-109.979,1114.8,505.8,182.5,4.7,0.7,7.4,39.8,1.9525,393.0822],
    [15791,1537394341,53.5407,-109.9789,1114.9,506.9,182.5,4.5,0.7,7.14,39.53,1.9529,393.0006],
    [15792,1537394342,53.54,-109.9789,1115.4,506.5,183.1,5.4,-0.1,7.87,39.18,1.9551,393.754],
    [15793,1537394343,53.5393,-109.9789,1115.6,506.6,184.3,6.5,-0.9,8.19,39.4,1.9577,391.2504],
    [15794,1537394344,53.5386,-109.9789,1115.1,505.8,184.1,6.0,-1.0,7.03,39.4,1.9583,393.9141],
    [15795,1537394345,53.5379,-109.9789,1114.1,504.8,183.7,5.3,-1.1,7.36,39.34,1.9577,394.1189],
    [15796,1537394346,53.5372,-109.9789,1113.4,505.4,182.9,4.3,-1.2,7.75,39.28,1.9573,394.3562],
    [15797,1537394347,53.5365,-109.9789,1113.2,506.3,182.4,3.7,-0.9,7.74,39.27,1.9571,393.5161],
    [15798,1537394348,53.5358,-109.9789,1113.2,507.8,183.1,4.7,-0.3,8.39,39.01,1.955,393.3959],
    [15799,1537394349,53.535,-109.9789,1113.7,511.0,183.7,5.2,-1.1,8.02,39.37,1.9521,394.5991],
    [15800,1537394350,53.5344,-109.9789,1114.6,516.2,183.4,4.1,-0.8,7.58,40.25,1.9525,393.7296],
    [15801,1537394351,53.5336,-109.9789,1115.7,520.7,182.9,3.4,-0.9,8.14,39.16,1.9512,393.6129],
    [15802,1537394352,53.5329,-109.9789,1116.0,523.0,183.6,4.0,-1.5,8.0,39.59,1.9507,394.2456],
    [15803,1537394353,53.5323,-109.9789,1116.1,525.1,184.1,4.3,-1.7,7.24,39.45,1.9484,392.7853],
    [15804,1537394354,53.5315,-109.9789,1116.2,527.2,184.4,4.2,-1.8,7.81,39.38,1.948,394.0969],
    [15805,1537394355,53.5308,-109.979,1115.9,527.7,184.4,4.2,-1.3,7.57,39.48,1.9503,394.268],
    [15806,1537394356,53.5301,-109.979,1115.3,528.2,184.6,4.5,-1.5,7.96,39.34,1.9495,393.2417],
    [15807,1537394357,53.5294,-109.979,1114.7,527.7,184.8,4.8,-1.8,7.37,39.88,1.9501,391.8202],
    [15808,1537394358,53.5287,-109.979,1114.6,527.6,184.5,4.9,-2.3,7.75,40.11,1.951,394.4091],
    [15809,1537394359,53.528,-109.979,1114.3,527.2,184.2,5.1,-2.3,7.47,39.47,1.9515,392.714],
    [15810,1537394360,53.5273,-109.979,1113.3,525.9,184.2,5.5,-2.4,7.01,39.21,1.9505,392.8339],
    [15811,1537394361,53.5266,-109.979,1112.5,525.4,183.8,5.2,-2.6,7.67,39.24,1.9505,391.072],
    [15812,1537394362,53.5259,-109.979,1112.7,526.9,183.4,5.0,-2.3,6.97,39.44,1.9504,394.7025],
    [15813,1537394363,53.5252,-109.979,1113.0,529.8,183.4,5.0,-2.5,7.51,40.1,1.9501,395.1617],
    [15814,1537394364,53.5245,-109.979,1112.8,530.4,183.6,5.4,-1.8,8.0,39.45,1.9506,394.7913],
    [15815,1537394365,53.5238,-109.979,1112.6,530.2,183.7,5.5,-2.0,7.62,39.56,1.9528,393.9487],
    [15816,1537394366,53.5231,-109.979,1113.0,531.6,183.7,5.5,-2.0,7.71,39.12,1.9519,393.4288],
    [15817,1537394367,53.5224,-109.979,1113.6,532.2,183.4,5.3,-2.1,7.61,39.67,1.9504,393.3017],
    [15818,1537394368,53.5217,-109.979,1113.7,531.4,183.5,5.6,-2.2,7.6,39.69,1.9485,393.6063],
    [15819,1537394369,53.5209,-109.979,1113.6,531.2,183.5,5.8,-2.1,7.75,39.35,1.9479,393.4208],
    [15820,1537394370,53.5203,-109.979,1113.6,532.8,183.5,5.8,-2.0,8.51,39.03,1.9473,393.2967],
    [15821,1537394371,53.5195,-109.9789,1114.2,534.2,183.2,5.6,-1.7,7.5,39.76,1.9456,394.0024],
    [15822,1537394372,53.5188,-109.9789,1114.6,536.3,183.7,6.3,-1.9,7.76,39.38,1.9441,393.299],
    [15823,1537394373,53.5181,-109.9789,1114.8,536.9,183.5,5.9,-2.2,7.41,39.46,1.9439,393.5353],
    [15824,1537394374,53.5174,-109.9789,1114.7,536.1,183.3,5.9,-1.8,7.85,38.85,1.9439,393.9144],
    [15825,1537394375,53.5167,-109.9789,1114.3,534.2,183.9,6.5,-1.8,7.59,38.71,1.9467,392.9357],
    [15826,1537394376,53.516,-109.9788,1113.9,530.8,183.9,6.6,-1.7,7.94,38.82,1.9455,393.4765],
    [15827,1537394377,53.5154,-109.9788,1113.8,529.8,184.2,6.9,-2.0,6.96,38.66,1.946,393.3665],
    [15828,1537394378,53.5146,-109.9788,1114.0,531.0,184.0,6.8,-2.0,8.11,38.66,1.9482,394.8587],
    [15829,1537394379,53.5139,-109.9788,1114.2,530.3,183.9,7.0,-2.0,7.95,38.11,1.9473,393.5947],
    [15830,1537394380,53.5132,-109.9787,1114.4,526.7,183.8,6.9,-2.0,7.71,39.07,1.9476,393.5947],
    [15831,1537394381,53.5125,-109.9787,1114.5,525.5,183.6,6.9,-1.4,7.68,38.95,1.949,393.8175],
    [15832,1537394382,53.5118,-109.9787,1114.6,525.6,183.8,7.0,-1.7,7.61,38.68,1.9497,394.1828],
    [15833,1537394383,53.5111,-109.9787,1114.6,525.6,183.7,7.0,-1.7,7.5,39.24,1.9495,393.694],
    [15834,1537394384,53.5104,-109.9786,1114.8,525.8,183.4,6.6,-1.4,7.57,39.08,1.9492,392.7196],
    [15835,1537394385,53.5097,-109.9786,1114.9,525.8,182.9,6.1,-1.3,8.03,38.66,1.9524,393.0818],
    [15836,1537394386,53.509,-109.9786,1114.9,526.4,182.7,5.8,-1.6,8.23,38.6,1.9478,394.1959],
    [15837,1537394387,53.5083,-109.9785,1114.9,526.7,182.4,5.5,-1.7,7.85,38.79,1.9491,392.6142],
    [15838,1537394388,53.5076,-109.9785,1114.9,525.9,183.0,6.2,-1.4,7.25,39.55,1.949,393.9558],
    [15839,1537394389,53.5069,-109.9785,1114.8,524.7,183.3,6.4,-2.0,7.04,39.58,1.9495,393.9558],
    [15840,1537394390,53.5062,-109.9784,1114.6,524.3,183.3,6.3,-2.3,8.03,39.17,1.9483,394.3872],
    [15841,1537394391,53.5055,-109.9784,1114.1,523.8,183.7,6.9,-2.5,7.02,39.73,1.9499,394.1297],
    [15842,1537394392,53.5048,-109.9784,1113.9,523.8,183.7,6.9,-2.3,7.53,39.95,1.9496,394.5362],
    [15843,1537394393,53.5041,-109.9783,1113.7,524.1,184.0,7.4,-2.2,7.76,39.26,1.9493,394.7198],
    [15844,1537394394,53.5034,-109.9783,1113.3,522.9,183.8,7.2,-2.4,7.04,39.72,1.9485,393.6629],
    [15845,1537394395,53.5027,-109.9783,1113.6,528.3,183.0,6.5,-2.6,7.72,39.62,1.9478,392.9761],
    [15846,1537394396,53.502,-109.9782,1113.6,527.6,183.2,6.6,-2.8,7.25,40.42,1.9484,393.7276],
    [15847,1537394397,53.5013,-109.9782,1113.2,525.1,182.9,6.4,-1.8,7.6,40.27,1.9499,395.4421],
    [15848,1537394398,53.5006,-109.9782,1112.6,524.0,183.2,6.5,-2.3,7.5,40.28,1.9505,393.0494],
    [15849,1537394399,53.4998,-109.9781,1112.7,524.9,182.9,6.0,-2.3,7.39,39.74,1.9497,393.9207],
    [15850,1537394400,53.4991,-109.9781,1113.2,525.3,183.0,6.0,-2.3,7.55,40.91,1.9498,394.8809],
    [15851,1537394401,53.4984,-109.9781,1113.3,526.0,182.8,5.7,-2.1,7.5,40.4,1.951,393.7045],
    [15852,1537394402,53.4977,-109.978,1113.4,526.1,182.7,5.5,-2.1,7.97,40.43,1.9516,393.6429],
    [15853,1537394403,53.4971,-109.978,1113.4,526.8,182.9,5.6,-2.3,7.49,40.48,1.9487,394.0152],
    [15854,1537394404,53.4964,-109.978,1113.4,526.9,182.7,5.2,-2.5,7.52,40.15,1.9496,393.7724],
    [15855,1537394405,53.4956,-109.978,1113.3,527.5,183.0,5.5,-2.6,6.99,40.61,1.9496,393.9385],
    [15856,1537394406,53.4949,-109.9779,1113.3,528.1,183.0,5.4,-2.4,7.27,40.52,1.9508,394.2074],
    [15857,1537394407,53.4942,-109.9779,1113.2,528.2,183.1,5.5,-2.1,7.63,40.61,1.9511,394.9052],
    [15858,1537394408,53.4935,-109.9779,1113.4,528.7,183.0,5.2,-2.1,7.56,40.48,1.9514,394.225],
    [15859,1537394409,53.4928,-109.9779,1113.7,529.7,183.0,5.2,-2.2,7.71,40.67,1.9517,393.453],
    [15860,1537394410,53.4921,-109.9779,1114.0,530.0,183.0,5.3,-2.4,7.19,40.89,1.9516,393.6845],
    [15861,1537394411,53.4914,-109.9778,1114.2,533.3,183.0,5.2,-2.4,7.64,40.81,1.9511,394.0981],
    [15862,1537394412,53.4907,-109.9778,1114.2,534.2,182.9,5.1,-2.2,7.3,41.56,1.9517,389.023],
    [15863,1537394413,53.49,-109.9778,1114.2,533.6,182.9,5.0,-2.3,7.41,41.66,1.9501,393.0313],
    [15864,1537394414,53.4893,-109.9778,1114.2,534.2,183.0,5.0,-2.6,7.52,41.56,1.9507,394.429],
    [15865,1537394415,53.4886,-109.9778,1113.9,533.9,182.9,4.8,-2.5,7.28,40.94,1.9513,392.1651],
    [15866,1537394416,53.4879,-109.9778,1113.6,533.6,182.7,4.4,-2.2,7.8,40.61,1.952,394.7663],
    [15867,1537394417,53.4872,-109.9777,1113.6,533.6,182.8,4.5,-2.1,6.91,41.19,1.9522,394.7221],
    [15868,1537394418,53.4865,-109.9777,1113.5,533.5,182.9,4.5,-2.0,7.34,41.13,1.9544,394.3354],
    [15869,1537394419,53.4858,-109.9777,1113.4,533.4,182.9,4.5,-1.8,7.51,41.6,1.9544,394.4585],
    [15870,1537394420,53.485,-109.9777,1113.6,533.6,183.0,4.6,-2.2,7.51,41.71,1.9548,393.0265],
    [15871,1537394421,53.4843,-109.9777,1113.7,533.7,182.9,4.5,-2.4,7.67,40.86,1.9524,394.0498],
    [15872,1537394422,53.4836,-109.9777,1113.6,533.6,183.3,4.9,-2.8,7.46,41.33,1.9521,393.4151],
    [15873,1537394423,53.4829,-109.9777,1113.6,533.3,183.3,4.7,-2.7,7.38,41.57,1.9522,393.01],
    [15874,1537394424,53.4822,-109.9777,1113.9,532.9,183.1,4.5,-2.5,7.62,42.19,1.9521,393.01],
    [15875,1537394425,53.4815,-109.9777,1114.2,533.2,183.0,4.5,-2.5,7.2,41.6,1.9511,394.171],
    [15876,1537394426,53.4808,-109.9777,1114.1,534.1,183.0,4.5,-2.6,8.29,41.09,1.9494,393.7856],
    [15877,1537394427,53.4801,-109.9777,1113.9,534.1,182.9,4.2,-2.8,7.79,40.95,1.9495,392.2967],
    [15878,1537394428,53.4794,-109.9777,1113.6,534.6,182.8,4.1,-2.8,7.45,41.18,1.9515,391.8994],
    [15879,1537394429,53.4787,-109.9777,1113.2,535.2,182.5,3.7,-2.7,7.09,41.2,1.9546,393.1222],
    [15880,1537394430,53.478,-109.9777,1112.6,534.3,182.2,3.2,-2.3,8.17,41.03,1.9538,393.0229],
    [15881,1537394431,53.4773,-109.9776,1112.7,533.7,182.1,3.0,-2.0,7.46,41.29,1.9575,390.828],
    [15882,1537394432,53.4765,-109.9776,1113.0,533.8,182.1,2.8,-1.1,7.38,41.2,1.9643,394.4199],
    [15883,1537394433,53.4758,-109.9776,1113.2,532.5,182.6,3.1,-1.0,7.51,41.29,1.9667,393.1656],
    [15884,1537394434,53.4751,-109.9777,1113.3,530.0,183.2,3.5,-0.8,7.21,41.47,1.9675,393.408],
    [15885,1537394435,53.4744,-109.9777,1113.6,524.9,183.7,4.0,-0.8,8.23,41.51,1.9645,394.1967],
    [15886,1537394436,53.4737,-109.9777,1113.8,520.8,183.7,4.0,-0.7,7.6,42.51,1.9653,394.2381],
    [15887,1537394437,53.473,-109.9777,1114.1,518.1,184.0,4.4,-1.3,7.55,42.03,1.9642,393.8151],
    [15888,1537394438,53.4723,-109.9777,1114.1,518.0,184.0,4.6,-1.2,6.69,42.25,1.9645,394.3068],
    [15889,1537394439,53.4716,-109.9777,1113.5,519.5,183.8,4.7,-1.1,7.55,42.46,1.9647,393.9716],
    [15890,1537394440,53.4709,-109.9777,1112.8,521.3,183.8,4.9,-1.5,6.84,42.54,1.9652,392.8558],
    [15891,1537394441,53.4702,-109.9777,1112.4,528.0,183.2,4.5,-1.3,7.73,42.52,1.9636,393.1704],
    [15892,1537394442,53.4695,-109.9777,1112.0,531.6,183.3,4.6,-1.6,7.67,42.45,1.9634,393.9718],
    [15893,1537394443,53.4688,-109.9777,1111.7,539.7,182.7,4.1,-1.9,7.63,42.78,1.9644,394.2531],
    [15894,1537394444,53.468,-109.9777,1111.5,539.5,182.7,4.2,-1.8,7.13,43.44,1.9682,394.0516],
    [15895,1537394445,53.4673,-109.9777,1111.9,539.9,182.7,4.4,-1.7,7.57,43.43,1.9672,393.6681],
    [15896,1537394446,53.4666,-109.9777,1112.3,540.3,182.4,4.1,-1.7,7.72,43.09,1.966,392.7893],
    [15897,1537394447,53.4659,-109.9777,1112.4,540.4,182.5,4.0,-1.5,7.3,43.16,1.9658,394.1534],
    [15898,1537394448,53.4652,-109.9777,1113.0,541.0,182.5,3.3,-1.7,7.16,43.17,1.9659,394.6247],
    [15899,1537394449,53.4645,-109.9777,1114.0,542.0,182.4,2.8,-2.5,7.59,43.77,1.9639,394.198],
    [15900,1537394450,53.4638,-109.9777,1114.3,542.3,183.6,3.9,-2.3,7.51,43.2,1.9634,392.8865],
    [15901,1537394451,53.4631,-109.9777,1113.3,541.3,183.7,3.6,-1.7,7.77,43.04,1.964,393.283],
    [15902,1537394452,53.4624,-109.9777,1112.5,540.5,183.4,3.4,-1.9,8.26,42.73,1.965,393.7148],
    [15903,1537394453,53.4617,-109.9777,1112.2,540.2,183.6,3.7,-1.9,7.12,43.42,1.9613,393.66],
    [15904,1537394454,53.461,-109.9778,1112.5,540.5,183.1,3.5,-2.0,8.23,43.0,1.9601,393.8118],
    [15905,1537394455,53.4603,-109.9778,1112.4,533.4,183.5,4.2,-2.1,7.24,43.12,1.9583,392.6854],
    [15906,1537394456,53.4596,-109.9778,1112.2,532.2,183.4,4.0,-2.1,7.3,43.51,1.958,393.4406],
    [15907,1537394457,53.4589,-109.9778,1112.2,531.2,182.6,3.2,-2.1,7.57,44.09,1.9619,393.3706],
    [15908,1537394458,53.4582,-109.9778,1112.3,529.6,181.9,2.3,-2.4,7.58,44.22,1.9624,393.1117],
    [15909,1537394459,53.4575,-109.9778,1112.1,529.1,181.8,2.4,-2.3,7.82,43.51,1.961,394.1806],
    [15910,1537394460,53.4568,-109.9778,1111.8,529.9,182.9,3.4,-2.7,7.26,43.58,1.9657,392.8661],
    [15911,1537394461,53.4561,-109.9778,1112.3,531.2,182.2,2.4,-2.8,7.97,43.6,1.9667,394.5193],
    [15912,1537394462,53.4554,-109.9778,1113.2,533.2,181.8,2.1,-2.1,7.99,43.51,1.9663,392.8161],
    [15913,1537394463,53.4547,-109.9778,1114.3,533.3,182.2,2.5,-1.6,7.59,43.67,1.9655,393.8504],
    [15914,1537394464,53.454,-109.9778,1115.1,533.2,182.8,3.1,-1.9,6.9,43.56,1.9638,393.7951],
    [15915,1537394465,53.4533,-109.9778,1115.0,532.0,182.0,1.8,-2.2,8.0,43.58,1.9614,393.9643],
    [15916,1537394466,53.4526,-109.9778,1115.3,531.3,181.8,1.6,-1.0,7.35,44.55,1.9616,392.2949],
    [15917,1537394467,53.4519,-109.9778,1116.5,532.9,182.6,2.5,-1.3,7.33,43.97,1.9631,394.1757],
    [15918,1537394468,53.4512,-109.9779,1116.1,533.1,183.0,2.8,-1.0,7.63,43.89,1.9613,392.3059],
    [15919,1537394469,53.4505,-109.9779,1115.8,534.8,183.0,2.7,-0.9,6.97,44.0,1.961,394.7358],
    [15920,1537394470,53.4498,-109.9779,1116.1,535.1,183.0,2.5,-0.8,7.53,44.01,1.961,395.1392],
    [15921,1537394471,53.4491,-109.9779,1116.3,536.3,182.9,2.3,-1.7,7.58,43.88,1.9622,395.1392],
    [15922,1537394472,53.4484,-109.978,1116.1,536.1,183.9,3.7,-2.6,7.25,43.69,1.9609,394.2289],
    [15923,1537394473,53.4476,-109.978,1115.5,534.5,183.9,3.8,-1.6,7.41,44.09,1.9612,393.4964],
    [15924,1537394474,53.4469,-109.978,1116.5,531.1,183.0,3.3,-1.3,6.94,44.02,1.9588,393.3379],
    [15925,1537394475,53.4462,-109.978,1117.3,529.3,184.0,4.9,-1.3,7.56,43.6,1.9577,393.3379],
    [15926,1537394476,53.4455,-109.978,1116.7,525.7,184.5,5.7,-1.1,7.55,44.24,1.9591,394.4011],
    [15927,1537394477,53.4447,-109.978,1116.0,522.9,184.4,5.5,-0.9,7.86,43.67,1.9573,394.7768],
    [15928,1537394478,53.444,-109.978,1116.2,523.2,183.2,4.2,-0.8,7.29,44.56,1.9556,391.0696],
    [15929,1537394479,53.4433,-109.978,1115.9,523.9,182.9,4.2,-0.6,7.46,44.62,1.9552,393.4128],
    [15930,1537394480,53.4426,-109.978,1114.7,525.0,183.2,4.8,-1.0,7.56,44.49,1.9565,394.9341],
    [15931,1537394481,53.4418,-109.978,1113.9,529.2,183.4,5.2,-0.2,7.67,44.62,1.9557,393.7483],
    [15932,1537394482,53.4411,-109.978,1113.5,533.8,183.3,5.2,-0.7,8.2,43.46,1.9546,392.9318],
    [15933,1537394483,53.4404,-109.978,1113.2,536.2,183.5,5.4,-0.9,7.37,43.77,1.9561,393.9195],
    [15934,1537394484,53.4396,-109.978,1113.1,535.1,183.3,5.1,-0.7,7.53,43.9,1.9549,394.4129],
    [15935,1537394485,53.4389,-109.978,1113.5,534.5,183.4,5.3,-0.7,7.25,43.66,1.9543,393.1943],
    [15936,1537394486,53.4382,-109.978,1114.0,532.9,183.6,5.5,-1.1,8.3,43.02,1.9552,394.6055],
    [15937,1537394487,53.4375,-109.978,1114.0,531.3,183.6,5.5,-1.1,7.69,43.98,1.9535,393.0748],
    [15938,1537394488,53.4367,-109.978,1114.4,531.1,183.7,5.8,-1.1,6.96,43.16,1.956,394.5821],
    [15939,1537394489,53.436,-109.978,1114.4,530.1,183.3,5.4,-1.4,7.53,43.21,1.9566,392.5443],
    [15940,1537394490,53.4353,-109.9779,1114.6,529.6,183.4,5.8,-1.7,7.62,43.62,1.956,393.001],
    [15941,1537394491,53.4346,-109.9779,1114.5,527.5,183.2,5.7,-2.2,7.57,42.74,1.9564,394.5138],
    [15942,1537394492,53.4339,-109.9779,1113.8,525.8,182.7,5.3,-2.7,7.52,42.58,1.9572,394.1537],
    [15943,1537394493,53.4331,-109.9779,1113.1,527.7,182.9,5.5,-2.6,7.41,42.34,1.9536,392.8702],
    [15944,1537394494,53.4324,-109.9779,1113.4,528.2,182.6,5.1,-2.0,7.82,42.13,1.9532,393.5231],
    [15945,1537394495,53.4317,-109.9778,1113.9,522.1,182.3,4.8,-1.7,7.62,43.09,1.9535,394.6493],
    [15946,1537394496,53.431,-109.9778,1114.2,515.8,182.4,4.9,-1.6,7.88,42.2,1.9537,393.0339],
    [15947,1537394497,53.4303,-109.9778,1114.4,513.1,182.7,5.3,-1.6,7.5,42.44,1.9539,393.3386],
    [15948,1537394498,53.4296,-109.9778,1114.6,511.5,182.6,5.0,-1.7,7.56,42.44,1.9543,394.1296],
    [15949,1537394499,53.4288,-109.9777,1114.7,510.7,182.7,5.1,-1.7,7.63,42.03,1.9533,393.5002],
    [15950,1537394500,53.4281,-109.9777,1114.5,509.6,183.1,5.3,-2.2,7.39,42.26,1.9543,394.3731],
    [15951,1537394501,53.4274,-109.9777,1114.0,506.7,182.7,4.9,-2.3,7.72,42.08,1.9551,394.7314],
    [15952,1537394502,53.4267,-109.9777,1113.7,504.6,182.7,4.9,-2.3,7.37,42.23,1.954,393.6489],
    [15953,1537394503,53.426,-109.9777,1113.8,500.0,182.9,5.2,-2.6,7.48,42.47,1.9558,394.1591],
    [15954,1537394504,53.4252,-109.9776,1114.1,497.2,182.9,5.2,-2.8,7.66,43.16,1.9553,394.7518],
    [15955,1537394505,53.4245,-109.9776,1114.4,498.4,183.1,5.5,-2.5,7.53,42.3,1.9541,393.4323],
    [15956,1537394506,53.4238,-109.9776,1114.7,501.7,182.9,5.2,-2.4,7.51,42.66,1.9535,393.7679],
    [15957,1537394507,53.4231,-109.9776,1114.8,504.3,183.0,5.5,-2.3,7.63,42.93,1.9516,394.1713],
    [15958,1537394508,53.4224,-109.9776,1114.6,505.4,183.2,5.6,-2.2,7.43,42.0,1.9517,392.7331],
    [15959,1537394509,53.4217,-109.9775,1114.2,506.3,182.7,5.0,-1.8,7.67,42.54,1.9532,396.3691],
    [15960,1537394510,53.4209,-109.9775,1114.1,505.8,182.5,4.9,-1.7,8.43,41.61,1.9537,394.1276],
    [15961,1537394511,53.4203,-109.9775,1114.3,505.3,182.6,5.0,-1.7,7.69,42.1,1.9529,394.8147],
    [15962,1537394512,53.4195,-109.9775,1114.5,505.5,182.6,5.0,-2.1,6.95,41.93,1.9522,394.194],
    [15963,1537394513,53.4188,-109.9775,1114.3,505.3,182.6,4.9,-1.8,7.82,41.77,1.9524,393.738],
    [15964,1537394514,53.4181,-109.9774,1114.1,505.1,182.6,4.9,-1.9,7.5,42.18,1.9522,394.1161],
    [15965,1537394515,53.4174,-109.9774,1114.0,503.8,182.7,4.9,-2.0,7.04,42.11,1.9524,392.0981],
    [15966,1537394516,53.4167,-109.9774,1113.8,505.3,182.7,4.8,-1.8,7.82,41.86,1.9506,393.3718],
    [15967,1537394517,53.416,-109.9774,1113.8,505.4,182.7,4.9,-1.8,7.45,41.95,1.9543,393.8446],
    [15968,1537394518,53.4152,-109.9774,1113.9,506.7,182.7,4.9,-1.8,7.65,42.37,1.9524,394.4098],
    [15969,1537394519,53.4145,-109.9773,1114.2,505.5,182.9,5.0,-2.0,7.77,41.79,1.9531,391.4736],
    [15970,1537394520,53.4138,-109.9773,1114.5,502.8,183.1,5.4,-2.1,7.72,41.82,1.9529,391.6235],
    [15971,1537394521,53.4131,-109.9773,1114.3,501.0,183.4,5.8,-2.2,7.76,41.58,1.9518,394.4755],
    [15972,1537394522,53.4124,-109.9773,1113.9,500.2,183.5,5.8,-2.3,7.67,41.62,1.9511,394.281],
    [15973,1537394523,53.4117,-109.9773,1113.9,500.2,183.2,5.5,-2.3,7.64,41.77,1.9523,394.0968],
    [15974,1537394524,53.411,-109.9772,1114.3,500.6,183.1,5.8,-2.2,7.21,41.69,1.9527,392.4606],
    [15975,1537394525,53.4103,-109.9772,1114.8,500.8,183.2,6.0,-2.1,8.47,41.08,1.9505,393.9415],
    [15976,1537394526,53.4096,-109.9772,1115.1,501.1,182.9,5.8,-2.0,7.13,41.56,1.9502,390.5819],
    [15977,1537394527,53.4089,-109.9772,1115.0,501.0,183.0,5.9,-1.9,7.71,41.78,1.9499,394.0458],
    [15978,1537394528,53.4081,-109.9771,1114.8,500.8,182.9,5.9,-2.0,7.29,41.49,1.9502,393.2616],
    [15979,1537394529,53.4074,-109.9771,1114.5,500.5,183.1,5.9,-2.3,7.57,41.74,1.9498,394.8919],
    [15980,1537394530,53.4067,-109.9771,1114.4,500.4,182.8,5.7,-2.2,7.99,41.16,1.95,393.5756],
    [15981,1537394531,53.406,-109.9771,1114.6,500.6,182.9,5.9,-1.9,7.55,41.18,1.9489,393.8837],
    [15982,1537394532,53.4053,-109.977,1115.0,501.0,182.9,5.9,-2.0,7.92,41.0,1.9493,393.8604],
    [15983,1537394533,53.4046,-109.977,1114.8,500.8,183.4,6.6,-2.3,7.64,41.74,1.948,393.5422],
    [15984,1537394534,53.4039,-109.977,1114.4,500.4,183.2,6.2,-2.2,7.62,41.08,1.9457,394.2674],
    [15985,1537394535,53.4032,-109.9769,1113.8,499.8,183.0,6.1,-2.0,7.74,40.7,1.9438,394.2674],
    [15986,1537394536,53.4025,-109.9769,1113.4,499.4,182.8,5.9,-2.2,7.59,40.66,1.9443,393.6032],
    [15987,1537394537,53.4018,-109.9769,1113.6,498.6,182.6,5.9,-2.2,7.51,40.35,1.9436,393.6032],
    [15988,1537394538,53.4011,-109.9768,1114.0,499.0,182.4,5.7,-2.1,8.17,39.48,1.9479,392.9992],
    [15989,1537394539,53.4003,-109.9768,1114.3,498.3,182.4,5.6,-2.2,7.47,40.28,1.9488,392.2521],
    [15990,1537394540,53.3996,-109.9768,1114.5,498.5,182.3,5.4,-2.1,7.57,40.78,1.9503,392.2521],
    [15991,1537394541,53.3989,-109.9767,1114.4,498.4,182.5,5.6,-1.8,7.05,40.0,1.943,393.4276],
    [15992,1537394542,53.3982,-109.9767,1114.5,497.5,182.6,5.5,-1.8,7.8,40.1,1.94,393.4553],
    [15993,1537394543,53.3975,-109.9767,1114.5,497.5,182.6,5.5,-1.7,8.25,39.15,1.942,392.7909],
    [15994,1537394544,53.3968,-109.9766,1114.6,496.6,182.6,5.4,-1.6,7.55,39.02,1.9438,392.7909],
    [15995,1537394545,53.3961,-109.9766,1114.9,496.9,182.7,5.6,-1.3,7.8,38.59,1.9465,393.8782],
    [15996,1537394546,53.3954,-109.9766,1115.1,496.1,182.7,5.5,-1.1,8.0,38.46,1.9517,392.1931],
    [15997,1537394547,53.3947,-109.9766,1115.2,496.2,182.2,4.9,-1.3,7.48,39.4,1.9582,394.7623],
    [15998,1537394548,53.3939,-109.9765,1115.3,495.3,182.2,4.7,-1.6,8.48,38.9,1.9575,394.7623],
    [15999,1537394549,53.3933,-109.9765,1115.3,495.2,182.2,4.5,-1.7,8.12,39.92,1.9563,392.2681],
    [16000,1537394550,53.3925,-109.9765,1115.1,494.1,182.3,4.5,-1.8,7.24,40.56,1.956,392.8087],
    [16001,1537394551,53.3918,-109.9765,1114.9,493.9,182.4,4.5,-1.9,7.15,41.08,1.956,394.4302],
    [16002,1537394552,53.3911,-109.9764,1114.8,492.8,182.6,4.6,-2.0,7.78,41.35,1.9564,394.9368],
    [16003,1537394553,53.3904,-109.9764,1114.6,492.6,183.0,5.1,-1.5,7.73,41.89,1.9578,395.6585],
    [16004,1537394554,53.3897,-109.9764,1114.1,491.1,182.9,4.9,-1.6,7.71,42.24,1.9589,395.3583],
    [16005,1537394555,53.389,-109.9764,1113.8,490.8,182.8,4.7,-1.3,7.71,42.55,1.9613,394.6016],
    [16006,1537394556,53.3883,-109.9764,1113.8,491.8,182.9,4.9,-1.4,7.78,42.51,1.9622,394.7178],
    [16007,1537394557,53.3876,-109.9764,1113.8,491.5,182.8,4.8,-1.2,7.92,42.7,1.9609,394.3879],
    [16008,1537394558,53.3869,-109.9764,1114.3,490.2,182.9,4.9,-0.9,7.67,43.33,1.959,393.9055],
    [16009,1537394559,53.3861,-109.9763,1115.0,491.0,182.4,4.3,-1.1,7.62,43.71,1.9604,394.1586],
    [16010,1537394560,53.3854,-109.9763,1115.8,491.8,182.0,3.9,-1.0,7.54,44.76,1.9611,394.1586],
    [16011,1537394561,53.3847,-109.9763,1116.9,492.9,181.9,3.5,-1.4,7.52,44.33,1.9666,392.4509],
    [16012,1537394562,53.384,-109.9763,1117.6,493.6,181.2,2.5,-1.3,7.65,44.36,1.9672,392.4509],
    [16013,1537394563,53.3833,-109.9763,1117.3,493.3,181.3,2.7,-1.4,7.69,44.55,1.97,393.0258],
    [16014,1537394564,53.3826,-109.9763,1116.6,492.6,181.4,2.8,-1.8,7.5,44.63,1.971,392.6173],
    [16015,1537394565,53.3819,-109.9762,1116.2,492.2,181.4,2.9,-1.9,7.27,44.78,1.9802,392.7034],
    [16016,1537394566,53.3812,-109.9762,1116.1,492.1,182.4,3.8,-1.9,7.77,45.14,1.9815,394.5111],
    [16017,1537394567,53.3804,-109.9762,1114.8,490.8,183.0,4.4,-1.8,7.61,45.4,1.9753,392.7966],
    [16018,1537394568,53.3798,-109.9762,1113.9,489.9,183.4,4.6,-1.3,7.56,46.01,1.9718,393.3413],
    [16019,1537394569,53.379,-109.9762,1114.5,490.5,185.2,6.5,-1.9,7.98,45.6,1.9683,393.0522],
    [16020,1537394570,53.3783,-109.9762,1115.1,491.1,185.1,6.3,-1.5,8.09,45.68,1.9643,393.5508],
    [16021,1537394571,53.3775,-109.9763,1114.6,489.6,184.9,6.2,-1.0,7.52,46.03,1.9612,394.3462],
    [16022,1537394572,53.3768,-109.9763,1113.5,488.5,184.4,5.6,-0.9,7.6,46.04,1.9625,394.2927],
    [16023,1537394573,53.3761,-109.9763,1112.6,487.6,183.6,4.4,-1.0,8.0,46.19,1.9635,394.5567],
    [16024,1537394574,53.3754,-109.9763,1112.6,487.6,183.9,4.2,-0.6,7.35,45.87,1.9609,393.9755],
    [16025,1537394575,53.3746,-109.9763,1113.1,487.1,184.8,4.1,-0.7,7.26,46.07,1.9599,395.1136],
    [16026,1537394576,53.3739,-109.9764,1113.1,487.1,186.5,4.3,-0.8,7.13,46.09,1.9646,395.1136],
    [16027,1537394577,53.3732,-109.9765,1112.9,486.9,188.9,4.5,-0.5,7.58,45.95,1.9637,393.127],
    [16028,1537394578,53.3725,-109.9766,1112.7,486.7,191.5,4.5,-0.4,7.88,45.74,1.9633,392.7518],
    [16029,1537394579,53.3718,-109.9768,1112.8,486.8,195.1,5.0,-1.0,6.92,45.81,1.96,393.0922],
    [16030,1537394580,53.3711,-109.9771,1113.0,486.0,197.8,4.3,-1.0,7.81,45.59,1.9597,393.156],
    [16031,1537394581,53.3704,-109.9774,1113.5,486.5,200.6,4.0,-1.0,7.92,44.8,1.9597,393.8756],
    [16032,1537394582,53.3698,-109.9778,1113.6,487.3,203.9,4.3,-0.9,8.2,44.76,1.9592,393.4951],
    [16033,1537394583,53.3691,-109.9782,1113.8,487.8,207.3,4.9,-0.8,7.48,45.32,1.9589,394.8786],
    [16034,1537394584,53.3685,-109.9787,1114.1,488.1,211.1,5.4,-1.0,8.49,44.86,1.9591,393.5478],
    [16035,1537394585,53.3679,-109.9793,1114.6,488.6,214.3,5.4,-1.3,7.64,45.51,1.9592,393.2329],
    [16036,1537394586,53.3673,-109.9799,1115.2,489.2,217.1,5.0,-1.0,7.62,45.04,1.9602,394.2898],
    [16037,1537394587,53.3667,-109.9806,1115.5,490.5,219.9,5.0,-0.9,7.94,45.42,1.9599,394.4792],
    [16038,1537394588,53.3662,-109.9813,1115.4,490.4,223.0,4.6,-1.2,7.59,45.06,1.9603,394.3189],
    [16039,1537394589,53.3657,-109.9821,1115.2,490.9,226.1,4.5,-1.5,7.29,45.11,1.96,393.6929],
    [16040,1537394590,53.3652,-109.9829,1114.4,490.4,229.7,5.2,-1.6,7.7,45.05,1.9597,393.0795],
    [16041,1537394591,53.3647,-109.9837,1114.1,490.1,233.6,5.1,-1.9,7.65,45.73,1.9604,394.9146],
    [16042,1537394592,53.3643,-109.9846,1114.3,491.4,236.6,4.9,-1.7,7.69,45.68,1.9604,393.814],
    [16043,1537394593,53.3639,-109.9856,1114.1,492.1,239.9,4.8,-2.0,7.52,45.51,1.9603,393.814],
    [16044,1537394594,53.3636,-109.9865,1113.9,489.0,243.4,4.6,-2.3,7.38,46.03,1.9599,394.0695],
    [16045,1537394595,53.3632,-109.9875,1114.2,484.3,246.1,4.3,-1.8,7.52,45.97,1.9603,394.0786],
    [16046,1537394596,53.363,-109.9885,1114.2,484.9,249.2,4.1,-2.1,7.74,46.37,1.9603,393.9394],
    [16047,1537394597,53.3627,-109.9896,1114.0,487.1,251.8,3.7,-1.4,7.14,45.63,1.9584,392.8974],
    [16048,1537394598,53.3625,-109.9906,1113.9,487.9,254.7,4.0,-1.1,7.61,45.57,1.9608,394.5273],
    [16049,1537394599,53.3623,-109.9917,1113.8,487.8,258.1,4.3,-1.3,7.44,45.81,1.9611,394.6117],
    [16050,1537394600,53.3622,-109.9928,1113.9,486.9,261.1,4.3,-1.0,8.2,45.39,1.9589,393.1128],
    [16051,1537394601,53.3621,-109.9939,1114.5,486.5,263.7,3.9,-0.7,7.58,45.81,1.9577,392.2902],
    [16052,1537394602,53.362,-109.995,1115.1,486.9,265.9,3.3,-0.4,7.52,46.27,1.9575,393.2725],
    [16053,1537394603,53.362,-109.9961,1115.0,486.1,268.7,3.2,-1.3,7.54,45.93,1.9584,393.0313],
    [16054,1537394604,53.362,-109.9972,1115.7,484.9,270.8,2.9,-0.7,7.69,45.82,1.9633,393.0313],
    [16055,1537394605,53.362,-109.9983,1117.6,486.6,272.4,3.5,-0.8,7.41,45.74,1.9697,393.382],
    [16056,1537394606,53.362,-109.9994,1119.2,487.5,273.5,3.5,-0.8,7.64,45.9,1.9738,392.8859],
    [16057,1537394607,53.3621,-110.0005,1120.3,488.1,274.9,3.8,-1.8,7.53,45.77,1.9731,392.4247],
    [16058,1537394608,53.3621,-110.0016,1120.1,486.9,276.0,3.9,-2.5,7.05,45.81,1.9704,392.9236],
    [16059,1537394609,53.3622,-110.0027,1119.4,487.0,276.1,3.7,-2.3,7.12,45.71,1.965,392.1502],
    [16060,1537394610,53.3622,-110.0038,1119.0,486.7,275.1,3.4,-1.2,7.26,45.62,1.9618,394.1729],
    [16061,1537394611,53.3623,-110.0049,1118.4,483.6,274.9,3.2,-1.3,7.35,45.74,1.9611,389.5791],
    [16062,1537394612,53.3623,-110.006,1116.6,482.9,275.3,3.2,-1.7,7.44,46.1,1.9603,391.8211],
    [16063,1537394613,53.3624,-110.0071,1114.5,481.5,275.6,3.2,-1.9,7.6,46.56,1.961,393.4839],
    [16064,1537394614,53.3624,-110.0083,1113.2,481.2,275.9,3.1,-1.9,7.38,46.11,1.9593,393.4773],
    [16065,1537394615,53.3625,-110.0094,1113.2,481.2,275.7,3.3,-1.5,7.64,45.56,1.9603,392.6231],
    [16066,1537394616,53.3625,-110.0105,1113.2,481.9,275.9,3.4,-1.4,7.88,45.35,1.9597,393.913],
    [16067,1537394617,53.3626,-110.0116,1112.7,480.7,276.1,3.2,-1.3,7.54,45.83,1.9592,396.0845],
    [16068,1537394618,53.3627,-110.0127,1112.2,479.2,276.4,3.2,-1.5,7.67,46.59,1.96,394.3981],
    [16069,1537394619,53.3627,-110.0138,1112.3,479.3,276.2,3.4,-1.0,7.22,46.06,1.9567,394.4773],
    [16070,1537394620,53.3628,-110.0149,1112.8,479.8,275.7,3.5,-0.5,7.95,45.57,1.9576,394.1369],
    [16071,1537394621,53.3628,-110.016,1113.6,480.6,275.6,3.1,-0.7,7.61,46.04,1.957,393.7407],
    [16072,1537394622,53.3629,-110.0171,1114.1,480.1,275.4,3.2,-0.8,7.28,45.66,1.9576,393.3276],
    [16073,1537394623,53.363,-110.0182,1114.2,479.1,274.8,3.3,-0.5,7.49,45.81,1.9568,393.6044],
    [16074,1537394624,53.363,-110.0193,1113.9,477.9,275.2,3.5,-1.2,8.31,45.12,1.9586,394.3984],
    [16075,1537394625,53.3631,-110.0204,1114.1,478.1,274.7,3.0,-0.8,7.69,45.86,1.9587,393.8554],
    [16076,1537394626,53.3631,-110.0215,1114.7,478.7,274.1,3.6,-0.4,7.1,45.77,1.9575,393.8196],
    [16077,1537394627,53.3632,-110.0226,1114.6,479.6,274.5,3.8,-1.0,7.37,45.48,1.9573,393.4185],
    [16078,1537394628,53.3632,-110.0237,1115.0,479.3,274.2,3.5,-0.5,7.68,45.71,1.9583,394.0701],
    [16079,1537394629,53.3633,-110.0248,1115.4,479.4,274.0,3.6,-0.3,7.4,45.61,1.9695,393.5356],
    [16080,1537394630,53.3633,-110.0259,1115.7,479.7,273.8,4.3,0.0,7.18,45.85,1.9745,392.1543],
    [16081,1537394631,53.3633,-110.0269,1115.7,479.7,273.4,5.0,0.2,7.74,45.37,1.9701,394.1495],
    [16082,1537394632,53.3634,-110.028,1115.8,479.8,274.0,4.9,-0.6,8.21,45.39,1.9636,392.9944],
    [16083,1537394633,53.3634,-110.0291,1115.8,479.8,274.4,4.2,-1.2,7.39,45.75,1.9601,393.7209],
    [16084,1537394634,53.3635,-110.0302,1115.4,479.4,274.0,3.5,-0.8,7.36,45.63,1.9587,392.8085],
    [16085,1537394635,53.3635,-110.0313,1114.9,478.9,273.4,3.4,-0.3,8.41,45.38,1.9595,393.1553],
    [16086,1537394636,53.3635,-110.0324,1115.0,478.0,273.0,3.6,-0.7,7.36,45.54,1.9586,393.9538],
    [16087,1537394637,53.3636,-110.0335,1115.4,477.4,271.9,4.5,-0.2,7.6,45.58,1.9576,393.5585],
    [16088,1537394638,53.3636,-110.0346,1115.7,477.7,271.0,4.7,0.3,8.0,45.03,1.9566,392.4874],
    [16089,1537394639,53.3636,-110.0357,1115.5,476.2,270.4,4.2,0.6,7.43,45.44,1.9565,393.6227],
    [16090,1537394640,53.3636,-110.0368,1114.8,474.1,271.1,3.7,-0.4,7.58,45.36,1.9574,393.2169],
    [16091,1537394641,53.3636,-110.0379,1114.4,474.4,271.4,4.4,-0.7,7.43,45.24,1.9548,395.4873],
    [16092,1537394642,53.3636,-110.039,1114.9,474.9,270.9,5.0,0.1,7.65,45.44,1.9522,393.9225],
    [16093,1537394643,53.3636,-110.0401,1115.0,474.1,270.9,5.8,0.0,8.17,45.0,1.9533,393.6552],
    [16094,1537394644,53.3637,-110.0412,1114.5,471.5,271.6,6.4,-0.7,7.54,45.17,1.9482,393.8942],
    [16095,1537394645,53.3637,-110.0423,1114.4,470.4,271.2,6.1,0.0,8.38,44.65,1.9706,393.3895],
    [16096,1537394646,53.3637,-110.0434,1114.8,470.8,270.8,6.0,0.6,7.5,44.97,1.9806,393.3657],
    [16097,1537394647,53.3637,-110.0445,1115.4,470.4,270.5,5.8,0.8,7.97,44.09,1.9678,393.0697],
    [16098,1537394648,53.3637,-110.0456,1115.2,469.2,271.4,6.2,-0.3,7.55,44.33,1.9535,392.1545],
    [16099,1537394649,53.3637,-110.0466,1114.6,467.5,271.5,6.5,-0.2,7.49,44.55,1.9552,391.7975],
    [16100,1537394650,53.3637,-110.0477,1114.6,468.3,272.0,6.2,-0.6,7.8,44.69,1.9578,393.816],
    [16101,1537394651,53.3638,-110.0488,1114.9,468.9,272.3,6.2,-0.8,7.04,44.38,1.9598,393.816],
    [16102,1537394652,53.3638,-110.0499,1115.3,467.2,271.9,5.5,-0.3,7.98,44.12,1.9608,394.0524],
    [16103,1537394653,53.3638,-110.0509,1115.2,467.2,271.5,5.1,0.2,8.22,44.06,1.9605,393.2352],
    [16104,1537394654,53.3638,-110.052,1114.8,466.8,271.3,5.3,0.1,7.86,44.4,1.9643,393.2117],
    [16105,1537394655,53.3638,-110.053,1114.9,466.9,271.5,5.7,-0.3,7.82,44.24,1.9738,393.1223],
    [16106,1537394656,53.3639,-110.0542,1115.5,465.4,271.3,5.6,-0.2,7.67,44.86,1.9764,392.483],
    [16107,1537394657,53.3639,-110.0553,1116.0,464.3,271.8,4.9,-0.6,7.21,44.66,1.9765,393.4104],
    [16108,1537394658,53.3639,-110.0563,1116.2,463.1,272.1,4.4,0.3,7.66,45.6,1.9809,392.7915],
    [16109,1537394659,53.3639,-110.0574,1116.5,462.4,272.6,4.3,0.5,7.87,44.49,1.9803,393.1632],
    [16110,1537394660,53.364,-110.0585,1116.2,461.5,274.4,4.5,-1.0,7.7,45.04,1.9722,393.7387],
    [16111,1537394661,53.364,-110.0596,1114.7,459.8,275.4,5.0,-2.2,7.69,45.34,1.9682,391.9122],
    [16112,1537394662,53.3641,-110.0607,1114.6,458.7,275.4,5.6,-2.7,7.95,45.08,1.9958,393.3617],
    [16113,1537394663,53.3641,-110.0618,1115.5,458.7,274.4,5.4,-2.3,7.7,45.49,1.9702,393.915],
    [16114,1537394664,53.3641,-110.0629,1115.6,457.6,272.4,5.5,-0.9,7.91,45.06,1.9671,393.9553],
    [16115,1537394665,53.3641,-110.064,1115.4,457.4,271.7,6.2,-1.7,8.3,45.16,1.9604,392.7755],
    [16116,1537394666,53.3641,-110.0652,1115.7,458.4,271.5,5.2,-2.0,7.89,45.23,1.9595,392.6894],
    [16117,1537394667,53.3641,-110.0663,1115.7,458.7,269.1,5.7,0.6,7.66,45.41,1.958,393.7513],
    [16118,1537394668,53.3641,-110.0674,1115.4,458.4,269.5,5.5,0.1,7.78,45.58,1.9584,393.6097],
    [16119,1537394669,53.3641,-110.0685,1115.3,458.8,270.2,5.3,0.2,7.51,44.95,1.962,394.1751],
    [16120,1537394670,53.3641,-110.0696,1116.1,460.1,270.2,5.9,0.9,7.73,44.73,1.962,393.5384],
    [16121,1537394671,53.3642,-110.0708,1115.8,459.9,273.2,4.5,-1.7,7.6,44.84,1.9581,394.1687],
    [16122,1537394672,53.3642,-110.0719,1115.6,460.6,274.3,3.4,-2.1,7.81,44.69,1.9571,393.8318],
    [16123,1537394673,53.3642,-110.073,1115.5,461.5,274.0,2.6,-1.2,7.85,45.09,1.9573,392.2353],
    [16124,1537394674,53.3643,-110.0741,1115.4,461.4,273.4,3.1,-1.1,7.73,45.2,1.9602,393.9846],
    [16125,1537394675,53.3643,-110.0753,1114.9,460.9,272.3,3.1,0.0,8.35,43.96,1.9636,393.9846],
    [16126,1537394676,53.3643,-110.0765,1114.3,461.4,271.1,2.9,0.7,7.81,44.19,1.9611,393.1994],
    [16127,1537394677,53.3643,-110.0776,1113.8,461.0,271.5,2.4,-0.4,7.79,44.22,1.9602,393.0416],
    [16128,1537394678,53.3643,-110.0788,1114.7,462.0,271.4,2.4,-0.7,7.81,44.77,1.9594,391.5228],
    [16129,1537394679,53.3644,-110.08,1115.9,463.9,270.7,1.7,-0.1,7.87,44.26,1.959,393.3336],
    [16130,1537394680,53.3644,-110.0811,1115.7,463.0,273.6,2.7,-4.1,8.07,43.61,1.9568,394.4402],
    [16131,1537394681,53.3644,-110.0823,1113.8,460.8,274.9,4.3,-4.7,7.89,43.99,1.9549,391.7014],
    [16132,1537394682,53.3644,-110.0834,1112.2,458.2,273.8,5.0,-2.9,7.65,44.35,1.9547,393.8957],
    [16133,1537394683,53.3644,-110.0846,1110.2,457.2,274.8,5.0,-4.1,7.83,44.37,1.9558,393.8273],
    [16134,1537394684,53.3644,-110.0858,1108.7,455.7,274.3,5.0,-3.6,7.92,44.51,1.9576,394.6591],
    [16135,1537394685,53.3645,-110.0869,1108.3,456.3,274.0,4.0,-3.8,7.3,44.3,1.957,393.6804],
    [16136,1537394686,53.3645,-110.0881,1109.3,457.3,273.4,3.5,-3.5,7.85,44.38,1.9554,393.9735],
    [16137,1537394687,53.3645,-110.0893,1110.5,458.5,273.1,3.6,-3.7,8.35,43.5,1.9566,394.138],
    [16138,1537394688,53.3645,-110.0904,1111.1,459.1,272.7,3.6,-3.8,7.92,44.35,1.9563,394.2],
    [16139,1537394689,53.3645,-110.0916,1111.5,459.8,272.2,3.1,-3.7,7.82,44.75,1.9573,394.2],
    [16140,1537394690,53.3645,-110.0927,1111.9,460.9,272.0,2.9,-4.1,7.52,44.41,1.957,393.5297],
    [16141,1537394691,53.3645,-110.0939,1111.9,460.9,271.2,3.3,-3.7,8.73,43.59,1.9557,394.2113],
    [16142,1537394692,53.3644,-110.095,1112.5,462.5,270.7,3.3,-3.6,8.67,43.72,1.9562,393.6662],
    [16143,1537394693,53.3644,-110.0962,1113.2,463.2,270.8,3.7,-4.1,7.92,44.37,1.9578,394.6498],
    [16144,1537394694,53.3644,-110.0973,1114.3,464.3,270.4,3.9,-3.9,7.66,43.99,1.9561,393.46],
    [16145,1537394695,53.3644,-110.0984,1115.0,465.0,270.0,4.0,-3.6,8.23,44.31,1.9569,392.6281],
    [16146,1537394696,53.3643,-110.0996,1115.1,465.1,269.9,3.8,-3.5,7.71,44.53,1.9583,393.818],
    [16147,1537394697,53.3643,-110.1007,1115.3,465.3,269.5,4.1,-3.0,7.48,44.45,1.9586,393.818],
    [16148,1537394698,53.3643,-110.1018,1116.1,466.1,269.8,4.0,-3.4,8.03,44.13,1.9561,393.3376],
    [16149,1537394699,53.3642,-110.103,1117.5,467.5,269.8,3.9,-3.3,8.2,44.45,1.955,394.0566],
    [16150,1537394700,53.3642,-110.1041,1117.7,468.7,269.7,4.6,-3.2,7.49,45.04,1.9564,394.1745],
    [16151,1537394701,53.3642,-110.1052,1117.0,468.0,269.5,4.7,-3.0,7.64,44.81,1.9571,393.9688],
    [16152,1537394702,53.3641,-110.1064,1116.8,467.8,269.2,5.0,-2.6,7.71,44.81,1.9579,392.5337],
    [16153,1537394703,53.3641,-110.1075,1117.1,468.4,269.1,4.7,-2.6,7.81,45.61,1.956,394.0826],
    [16154,1537394704,53.3641,-110.1086,1116.7,467.7,269.2,4.4,-2.5,8.37,44.48,1.9559,394.9086],
    [16155,1537394705,53.364,-110.1098,1115.8,466.8,268.8,4.6,-1.8,7.8,45.52,1.956,393.8307],
    [16156,1537394706,53.364,-110.1109,1115.4,466.4,268.4,5.0,-1.2,7.83,45.06,1.9557,393.0754],
    [16157,1537394707,53.364,-110.112,1115.6,465.6,268.8,4.6,-1.5,7.99,44.94,1.9563,393.0721],
    [16158,1537394708,53.3639,-110.1131,1115.9,465.9,269.0,3.6,-1.5,7.62,45.09,1.9555,393.2693],
    [16159,1537394709,53.3639,-110.1143,1116.7,466.7,268.5,4.6,-0.5,7.75,45.0,1.9533,393.2693],
    [16160,1537394710,53.3639,-110.1154,1117.3,468.4,268.7,4.7,-0.5,7.62,45.08,1.9501,394.0731],
    [16161,1537394711,53.3639,-110.1166,1117.5,467.5,268.5,4.3,0.1,7.3,44.89,1.9499,393.6802],
    [16162,1537394712,53.3639,-110.1177,1116.9,466.9,269.1,3.1,-0.2,7.87,44.78,1.9499,391.9378],
    [16163,1537394713,53.3639,-110.1188,1116.2,466.2,270.1,2.9,-1.2,7.34,44.68,1.9508,393.306],
    [16164,1537394714,53.3638,-110.12,1115.9,465.9,271.4,3.4,-2.6,8.07,44.85,1.9522,394.0999],
    [16165,1537394715,53.3638,-110.1211,1116.2,465.2,270.8,3.8,-1.8,7.83,44.36,1.9548,393.9741],
    [16166,1537394716,53.3638,-110.1223,1116.6,465.6,270.0,4.1,-1.1,7.56,44.9,1.9524,393.9741],
    [16167,1537394717,53.3638,-110.1235,1116.9,464.9,269.0,3.1,-0.3,7.69,45.14,1.9526,394.1317],
    [16168,1537394718,53.3638,-110.1246,1116.8,464.8,268.9,3.3,-0.7,7.79,45.1,1.9528,392.9629],
    [16169,1537394719,53.3638,-110.1258,1116.1,463.1,269.2,3.0,-1.0,7.75,44.93,1.9509,394.1774],
    [16170,1537394720,53.3638,-110.1269,1116.0,462.0,268.7,3.0,-0.2,7.82,44.75,1.9516,393.5551],
    [16171,1537394721,53.3637,-110.1281,1116.3,462.3,268.9,2.1,-0.5,8.4,44.32,1.9523,392.8392],
    [16172,1537394722,53.3637,-110.1292,1115.9,461.2,270.0,1.0,-1.9,7.77,44.9,1.9532,385.7334],
    [16173,1537394723,53.3637,-110.1305,1114.8,459.8,270.0,1.2,-1.5,7.24,44.37,1.9529,393.6214],
    [16174,1537394724,53.3637,-110.1316,1114.7,459.8,269.4,1.9,-0.7,7.65,44.68,1.9522,394.5924],
    [16175,1537394725,53.3637,-110.1328,1115.0,459.0,270.0,3.3,-1.3,7.91,44.45,1.953,394.1978],
    [16176,1537394726,53.3637,-110.134,1113.2,456.2,270.4,3.6,-1.9,7.58,44.6,1.9538,393.9519],
    [16177,1537394727,53.3637,-110.1352,1112.6,455.6,270.7,3.5,-2.6,7.88,44.44,1.953,392.9732],
    [16178,1537394728,53.3636,-110.1364,1112.8,454.8,270.7,3.4,-2.4,7.55,44.26,1.9514,393.4889],
    [16179,1537394729,53.3636,-110.1375,1112.5,454.5,269.2,4.2,-0.7,7.71,44.29,1.9527,393.8665],
    [16180,1537394730,53.3636,-110.1387,1111.4,453.4,269.4,4.4,-1.2,8.39,43.78,1.9543,392.9093],
    [16181,1537394731,53.3636,-110.1399,1110.8,452.8,269.2,4.4,-0.9,7.73,44.7,1.954,393.961],
    [16182,1537394732,53.3636,-110.1411,1110.6,453.6,268.7,4.6,-0.2,7.85,44.41,1.9527,392.6417],
    [16183,1537394733,53.3636,-110.1422,1110.9,453.9,268.8,4.9,-0.4,7.89,43.92,1.9521,394.1903],
    [16184,1537394734,53.3635,-110.1434,1112.7,455.5,269.2,5.6,-0.6,8.34,43.43,1.953,393.2328],
    [16185,1537394735,53.3635,-110.1446,1114.6,456.6,269.3,5.0,-0.6,7.9,43.85,1.9525,393.271],
    [16186,1537394736,53.3635,-110.1457,1115.7,457.7,270.3,4.4,-1.4,7.29,43.98,1.9533,393.812],
    [16187,1537394737,53.3635,-110.1468,1116.6,458.6,270.2,4.8,-1.1,8.72,43.59,1.9532,393.6154],
    [16188,1537394738,53.3635,-110.148,1116.8,458.5,270.0,4.4,-0.4,7.45,43.81,1.9505,393.6995],
    [16189,1537394739,53.3635,-110.1492,1116.5,458.2,270.5,3.8,-1.2,7.85,43.74,1.9506,394.6072],
    [16190,1537394740,53.3635,-110.1504,1116.2,456.9,271.9,2.6,-2.4,7.45,43.41,1.9495,392.2775],
    [16191,1537394741,53.3635,-110.1515,1116.4,456.4,272.4,3.0,-3.0,7.37,43.69,1.9495,394.8537],
    [16192,1537394742,53.3635,-110.1527,1116.6,455.6,273.4,3.0,-4.1,7.93,44.28,1.9494,393.7435],
    [16193,1537394743,53.3635,-110.1539,1116.4,455.4,272.9,2.5,-3.3,7.67,43.8,1.9502,393.9234],
    [16194,1537394744,53.3635,-110.155,1115.7,454.7,272.3,1.8,-2.8,7.59,43.46,1.9494,393.7479],
    [16195,1537394745,53.3635,-110.1562,1115.3,453.3,271.9,1.4,-3.0,7.87,44.35,1.9504,393.4241],
    [16196,1537394746,53.3635,-110.1574,1116.2,454.2,270.8,1.5,-2.2,8.2,43.73,1.9492,393.1468],
    [16197,1537394747,53.3635,-110.1585,1116.5,454.5,269.8,2.1,-1.5,7.38,43.63,1.9494,393.1468],
    [16198,1537394748,53.3635,-110.1597,1116.7,455.7,269.7,2.4,-1.5,7.84,43.61,1.9484,393.0316],
    [16199,1537394749,53.3635,-110.1609,1116.8,455.8,270.7,3.1,-2.9,7.59,43.91,1.9507,393.4578],
    [16200,1537394750,53.3634,-110.1621,1116.7,455.7,271.5,3.1,-3.1,8.66,43.6,1.9485,393.1772],
    [16201,1537394751,53.3634,-110.1633,1116.9,454.9,272.1,2.4,-3.0,7.97,44.16,1.9478,393.6881],
    [16202,1537394752,53.3634,-110.1645,1117.0,454.0,272.5,1.8,-2.8,7.37,43.94,1.9491,393.654],
    [16203,1537394753,53.3635,-110.1657,1117.1,453.5,272.8,0.5,-2.7,7.87,44.1,1.9494,394.4561],
    [16204,1537394754,53.3635,-110.1669,1117.5,453.5,270.6,1.4,0.8,8.09,43.59,1.9495,393.7991],
    [16205,1537394755,53.3635,-110.1681,1117.2,453.2,269.4,2.1,1.9,8.21,44.33,1.9508,393.9991],
    [16206,1537394756,53.3635,-110.1693,1116.3,452.2,270.6,1.7,-0.2,8.34,43.76,1.9527,392.9907],
    [16207,1537394757,53.3635,-110.1705,1115.0,451.0,272.1,2.4,-1.9,8.16,43.9,1.953,392.9907],
    [16208,1537394758,53.3635,-110.1717,1113.3,449.1,271.0,3.2,-0.2,7.84,44.56,1.953,392.6638],
    [16209,1537394759,53.3635,-110.1729,1112.4,447.4,272.1,3.6,-1.5,8.2,44.03,1.9518,391.9406],
    [16210,1537394760,53.3635,-110.1741,1113.0,448.0,272.6,4.0,-2.1,7.7,45.07,1.9512,393.009],
    [16211,1537394761,53.3636,-110.1753,1114.8,449.8,272.9,3.1,-2.2,7.74,45.23,1.9515,392.9811],
    [16212,1537394762,53.3636,-110.1765,1115.7,450.7,272.9,2.9,-2.1,8.01,45.16,1.9517,392.6142],
    [16213,1537394763,53.3636,-110.1777,1115.5,450.5,273.4,3.1,-2.6,7.37,44.68,1.9529,392.6142],
    [16214,1537394764,53.3636,-110.179,1115.1,449.8,273.2,3.7,-2.0,8.06,44.38,1.9499,393.571],
    [16215,1537394765,53.3636,-110.1802,1115.0,449.0,273.4,4.1,-2.0,7.65,44.52,1.9485,393.6673],
    [16216,1537394766,53.3637,-110.1814,1114.9,448.9,273.6,4.4,-1.8,7.93,44.5,1.9475,393.6748],
    [16217,1537394767,53.3637,-110.1826,1114.4,448.7,272.9,4.3,-1.3,7.97,44.26,1.9476,393.4046],
    [16218,1537394768,53.3637,-110.1838,1114.1,448.1,272.8,3.7,-1.1,7.76,43.76,1.9497,393.273],
    [16219,1537394769,53.3637,-110.1849,1114.3,448.3,272.2,3.9,-1.0,7.9,43.41,1.952,393.1499],
    [16220,1537394770,53.3638,-110.1862,1115.3,449.3,272.0,3.8,-1.1,7.8,43.18,1.9516,393.8776],
    [16221,1537394771,53.3638,-110.1873,1116.0,451.0,271.7,3.6,-0.9,7.94,43.19,1.9513,391.7017],
    [16222,1537394772,53.3638,-110.1885,1115.8,451.7,271.5,3.5,-1.1,7.55,43.02,1.9506,393.7168],
    [16223,1537394773,53.3638,-110.1897,1115.7,453.7,271.4,3.7,-1.3,7.8,43.01,1.9489,394.985],
    [16224,1537394774,53.3638,-110.1909,1115.7,453.7,271.3,3.5,-1.3,8.11,42.75,1.9481,394.985],
    [16225,1537394775,53.3638,-110.1921,1116.0,454.0,271.2,3.6,-1.2,7.83,42.89,1.9482,394.2633],
    [16226,1537394776,53.3638,-110.1932,1116.3,454.0,271.2,4.7,-1.3,7.58,42.66,1.9485,395.0433],
    [16227,1537394777,53.3638,-110.1944,1116.1,453.2,271.5,5.4,-1.7,8.51,42.95,1.9469,391.9168],
    [16228,1537394778,53.3638,-110.1956,1116.1,452.1,271.4,5.6,-1.5,7.83,43.16,1.9478,391.9168],
    [16229,1537394779,53.3638,-110.1968,1115.8,451.8,271.5,5.0,-1.4,8.21,42.64,1.949,394.0253],
    [16230,1537394780,53.3638,-110.1979,1115.3,451.3,271.3,5.1,-1.3,7.64,42.82,1.9483,394.6831],
    [16231,1537394781,53.3638,-110.1991,1115.0,451.0,271.9,5.8,-2.0,7.33,42.82,1.948,391.7832],
    [16232,1537394782,53.3638,-110.2002,1114.8,451.8,271.3,5.6,-1.5,8.32,42.42,1.9509,393.7871],
    [16233,1537394783,53.3638,-110.2014,1114.9,450.9,271.7,5.4,-2.1,7.86,43.27,1.9564,391.9038],
    [16234,1537394784,53.3639,-110.2026,1114.9,451.9,271.3,5.6,-1.7,8.17,42.81,1.9528,393.6805],
    [16235,1537394785,53.3639,-110.2037,1114.9,451.9,271.0,5.0,-1.6,7.86,43.71,1.9501,393.138],
    [16236,1537394786,53.3638,-110.2049,1114.8,453.1,270.7,4.4,-1.3,8.76,42.82,1.9537,393.138],
    [16237,1537394787,53.3638,-110.206,1114.9,453.9,270.1,4.0,-0.8,8.21,43.05,1.9536,394.6721],
    [16238,1537394788,53.3638,-110.2072,1114.9,453.9,270.3,3.7,-1.4,7.85,43.68,1.951,392.669],
    [16239,1537394789,53.3638,-110.2083,1114.7,453.7,271.0,3.4,-2.2,7.6,43.6,1.9573,394.322],
    [16240,1537394790,53.3638,-110.2095,1114.5,454.5,270.9,3.2,-1.9,8.16,43.37,1.9617,394.4134],
    [16241,1537394791,53.3638,-110.2106,1114.7,454.7,271.3,3.2,-2.5,7.88,43.5,1.9656,394.4134],
    [16242,1537394792,53.3638,-110.2117,1115.2,455.2,271.9,3.3,-3.1,7.85,43.29,1.9827,392.4904],
    [16243,1537394793,53.3638,-110.2129,1115.3,454.3,271.7,3.3,-2.7,7.96,43.62,1.9771,394.1724],
    [16244,1537394794,53.3638,-110.214,1115.0,454.0,271.5,3.4,-2.4,7.99,44.49,1.9775,393.6727],
    [16245,1537394795,53.3638,-110.2151,1114.8,453.8,271.1,3.8,-1.9,8.34,43.37,1.9887,393.2903],
    [16246,1537394796,53.3638,-110.2163,1114.7,453.7,271.3,4.2,-2.5,7.29,43.88,1.9994,394.1504],
    [16247,1537394797,53.3638,-110.2174,1114.8,453.8,271.7,3.9,-3.0,7.94,44.21,1.9992,391.4858],
    [16248,1537394798,53.3638,-110.2186,1115.2,454.2,271.6,4.0,-3.2,7.54,44.05,2.0033,392.035],
    [16249,1537394799,53.3638,-110.2197,1116.0,455.0,272.1,4.1,-3.8,8.14,43.95,2.0161,393.3023],
    [16250,1537394800,53.3638,-110.2209,1116.4,455.4,271.7,4.3,-3.4,8.43,43.99,2.0122,392.5935],
    [16251,1537394801,53.3638,-110.222,1115.9,454.9,271.8,4.5,-3.5,8.19,43.61,1.9695,393.7229],
    [16252,1537394802,53.3637,-110.2231,1115.5,455.5,271.1,4.6,-2.7,8.11,44.12,1.9678,393.6979],
    [16253,1537394803,53.3637,-110.2243,1115.5,455.5,270.8,3.9,-2.4,7.79,44.59,1.9621,393.1067],
    [16254,1537394804,53.3637,-110.2254,1115.2,453.2,270.7,3.8,-2.3,7.32,44.3,1.9643,392.9422],
    [16255,1537394805,53.3637,-110.2265,1114.4,451.4,270.6,4.2,-2.3,7.78,45.01,1.9497,393.3044],
    [16256,1537394806,53.3637,-110.2277,1114.3,450.3,270.4,4.5,-2.1,7.88,44.24,1.9494,393.3132],
    [16257,1537394807,53.3637,-110.2288,1114.6,449.6,270.4,4.5,-2.1,7.74,44.86,1.9487,395.4144],
    [16258,1537394808,53.3637,-110.2299,1115.0,448.7,270.6,4.8,-2.1,7.1,44.06,1.9481,393.1095],
    [16259,1537394809,53.3637,-110.2311,1115.2,447.1,270.6,5.3,-2.1,7.62,44.13,1.9492,393.6119],
    [16260,1537394810,53.3636,-110.2322,1115.3,447.3,270.9,5.2,-2.3,7.94,43.72,1.9461,393.1932],
    [16261,1537394811,53.3636,-110.2333,1115.4,445.3,270.8,5.3,-2.1,8.47,43.45,1.9469,393.1869],
    [16262,1537394812,53.3636,-110.2344,1115.7,444.0,270.9,5.2,-2.2,7.6,43.84,1.9475,393.1869],
    [16263,1537394813,53.3636,-110.2356,1115.7,442.7,271.4,4.9,-2.7,7.79,44.5,1.9462,394.2286],
    [16264,1537394814,53.3636,-110.2367,1115.6,442.6,271.1,4.6,-2.4,8.31,43.59,1.946,393.651],
    [16265,1537394815,53.3636,-110.2378,1115.4,441.3,271.2,4.5,-2.5,7.39,43.67,1.9456,393.4081],
    [16266,1537394816,53.3636,-110.2389,1114.9,440.6,271.0,4.3,-2.2,7.57,43.01,1.9466,393.4081],
    [16267,1537394817,53.3636,-110.24,1114.7,440.6,270.6,4.5,-1.9,7.87,44.01,1.947,394.5133],
    [16268,1537394818,53.3636,-110.2412,1115.1,442.0,270.7,4.8,-2.2,7.48,43.27,1.9474,393.3771],
    [16269,1537394819,53.3636,-110.2423,1115.3,444.0,271.2,4.8,-2.7,7.91,43.28,1.9469,393.1812],
    [16270,1537394820,53.3636,-110.2434,1115.2,444.1,270.4,4.5,-1.6,7.6,43.31,1.9455,391.1975],
    [16271,1537394821,53.3636,-110.2445,1115.4,444.1,270.8,4.7,-2.2,7.7,43.51,1.9479,393.5136],
    [16272,1537394822,53.3635,-110.2456,1115.8,442.7,271.4,4.3,-2.6,7.86,43.09,1.9482,393.5136],
    [16273,1537394823,53.3635,-110.2468,1115.8,442.6,270.7,4.1,-1.7,7.69,43.1,1.9484,394.1049],
    [16274,1537394824,53.3635,-110.2479,1115.6,441.8,271.0,4.7,-2.1,7.43,43.48,1.9482,393.3136],
    [16275,1537394825,53.3635,-110.249,1115.5,442.7,271.1,5.2,-2.3,7.8,43.66,1.9496,391.3248],
    [16276,1537394826,53.3635,-110.2501,1115.7,443.0,271.0,5.2,-2.1,7.62,43.42,1.9485,393.4261],
    [16277,1537394827,53.3635,-110.2512,1116.0,442.6,271.0,5.2,-2.2,8.05,43.24,1.9476,393.301],
    [16278,1537394828,53.3635,-110.2523,1116.5,442.5,270.6,5.0,-1.7,7.18,43.41,1.9483,394.5842],
    [16279,1537394829,53.3635,-110.2535,1116.7,441.8,270.3,5.3,-1.4,7.56,43.77,1.9477,392.1371],
    [16280,1537394830,53.3635,-110.2546,1116.6,440.5,270.7,5.5,-2.0,8.06,43.16,1.9478,394.4269],
    [16281,1537394831,53.3635,-110.2557,1116.2,440.1,271.2,5.6,-2.8,7.47,43.52,1.949,392.9012],
    [16282,1537394832,53.3635,-110.2568,1116.0,440.0,271.2,5.8,-2.6,8.38,42.81,1.9492,393.6823],
    [16283,1537394833,53.3635,-110.2579,1116.2,440.2,271.0,5.8,-2.5,7.69,43.39,1.947,393.2718],
    [16284,1537394834,53.3635,-110.259,1116.0,439.9,271.1,5.5,-2.5,7.85,43.3,1.9478,393.5639],
    [16285,1537394835,53.3634,-110.2601,1115.5,438.5,271.0,5.7,-2.6,7.83,43.85,1.9471,393.5395],
    [16286,1537394836,53.3634,-110.2613,1114.9,437.6,271.1,6.2,-2.9,8.29,43.28,1.9456,393.9064],
    [16287,1537394837,53.3634,-110.2624,1114.5,436.5,271.3,6.1,-3.0,7.94,44.13,1.9463,393.9064],
    [16288,1537394838,53.3634,-110.2635,1114.5,435.5,270.9,5.9,-2.8,8.03,43.16,1.9452,393.5],
    [16289,1537394839,53.3634,-110.2646,1115.1,434.8,270.7,5.6,-2.6,7.98,43.48,1.9471,394.6401],
    [16290,1537394840,53.3634,-110.2657,1115.8,434.3,270.5,5.9,-2.6,7.61,43.04,1.9475,394.5561],
    [16291,1537394841,53.3634,-110.2668,1116.1,433.0,270.4,6.3,-2.6,7.7,43.42,1.9451,393.8463],
    [16292,1537394842,53.3633,-110.2679,1116.2,431.9,270.3,6.8,-2.5,7.15,43.23,1.9456,394.8079],
    [16293,1537394843,53.3633,-110.269,1116.3,429.6,270.5,6.9,-2.5,8.09,43.13,1.9467,392.0435],
    [16294,1537394844,53.3633,-110.2701,1116.1,427.6,270.2,6.5,-2.0,8.31,43.25,1.945,392.232],
    [16295,1537394845,53.3633,-110.2713,1115.3,425.4,270.2,6.2,-1.9,8.16,42.83,1.9463,393.9664],
    [16296,1537394846,53.3633,-110.2723,1115.2,424.3,269.8,6.1,-1.4,7.81,42.99,1.9467,393.9664],
    [16297,1537394847,53.3633,-110.2735,1115.4,423.7,270.2,5.9,-1.8,7.59,43.22,1.9464,393.4851],
    [16298,1537394848,53.3633,-110.2746,1115.1,422.0,270.5,5.7,-2.0,7.69,43.35,1.9461,393.9344],
    [16299,1537394849,53.3632,-110.2757,1114.5,419.8,270.6,5.6,-1.9,7.19,43.35,1.9469,394.6893],
    [16300,1537394850,53.3632,-110.2768,1114.1,418.2,270.6,5.5,-2.0,7.79,43.37,1.9472,393.459],
    [16301,1537394851,53.3632,-110.2779,1113.9,417.0,271.0,5.5,-2.5,7.66,43.73,1.9464,394.5479],
    [16302,1537394852,53.3632,-110.279,1113.8,415.8,270.8,5.7,-2.3,7.69,43.23,1.9474,393.4639],
    [16303,1537394853,53.3632,-110.28,1114.0,416.0,270.3,5.7,-1.6,8.06,43.01,1.947,393.8382],
    [16304,1537394854,53.3632,-110.2811,1114.5,415.5,270.3,5.6,-1.7,7.56,43.19,1.9451,394.3244],
    [16305,1537394855,53.3632,-110.2822,1115.1,416.1,270.5,5.6,-2.0,7.83,43.8,1.9462,393.1837],
    [16306,1537394856,53.3632,-110.2833,1115.4,416.4,270.7,5.4,-2.3,7.89,43.51,1.9466,394.4085],
    [16307,1537394857,53.3632,-110.2843,1115.5,416.5,270.5,5.5,-2.2,7.76,43.52,1.9468,394.3331],
    [16308,1537394858,53.3631,-110.2855,1115.4,416.4,270.8,5.5,-2.5,7.36,43.37,1.9457,392.5964],
    [16309,1537394859,53.3631,-110.2866,1115.3,416.3,270.6,5.8,-2.4,7.77,43.49,1.948,392.9371],
    [16310,1537394860,53.3631,-110.2876,1115.2,416.2,270.7,6.1,-2.5,7.38,43.26,1.9457,392.9371],
    [16311,1537394861,53.3631,-110.2887,1115.2,416.2,270.6,6.5,-2.4,7.57,43.33,1.9455,394.7008],
    [16312,1537394862,53.3631,-110.2898,1115.2,416.2,270.7,6.8,-2.6,7.56,43.36,1.9452,392.0502],
    [16313,1537394863,53.3631,-110.2909,1115.3,417.3,270.5,6.3,-2.5,7.57,43.44,1.9441,394.5833],
    [16314,1537394864,53.3631,-110.292,1115.3,417.3,270.6,6.1,-2.6,7.8,43.89,1.9446,394.5833],
    [16315,1537394865,53.363,-110.293,1115.2,417.2,270.3,6.2,-2.2,7.42,43.35,1.9449,393.1091],
    [16316,1537394866,53.363,-110.2941,1114.9,416.9,270.0,6.0,-1.9,7.67,43.89,1.9467,392.8933],
    [16317,1537394867,53.363,-110.2952,1114.6,417.6,270.0,5.9,-2.0,7.61,43.64,1.9459,394.3876],
    [16318,1537394868,53.363,-110.2963,1114.4,418.4,269.9,5.8,-1.9,7.33,43.26,1.944,395.2527],
    [16319,1537394869,53.363,-110.2973,1114.1,419.1,269.9,5.4,-1.8,7.78,43.84,1.9435,393.8038],
    [16320,1537394870,53.363,-110.2984,1114.4,419.3,270.4,5.5,-2.3,7.53,43.49,1.9445,392.8986],
    [16321,1537394871,53.3629,-110.2995,1114.7,420.7,270.7,5.1,-2.4,7.59,43.2,1.9446,393.1754],
    [16322,1537394872,53.3629,-110.3006,1114.6,421.6,270.6,5.4,-2.3,8.0,42.9,1.9448,393.0202],
    [16323,1537394873,53.3629,-110.3016,1114.2,421.2,270.8,5.6,-2.6,7.8,43.4,1.9449,394.3249],
    [16324,1537394874,53.3629,-110.3027,1114.1,421.1,271.1,6.2,-2.9,7.89,42.92,1.9452,393.9747],
    [16325,1537394875,53.3629,-110.3038,1114.5,421.5,270.6,6.3,-2.3,7.82,43.57,1.9436,395.4187],
    [16326,1537394876,53.3629,-110.3048,1114.5,421.5,270.3,6.2,-2.0,8.46,42.67,1.9429,394.1495],
    [16327,1537394877,53.3629,-110.3059,1113.8,420.8,270.6,6.2,-2.1,7.22,42.96,1.9438,394.1349],
    [16328,1537394878,53.3628,-110.307,1113.8,420.8,271.1,6.4,-2.5,7.31,43.35,1.9455,392.8191],
    [16329,1537394879,53.3628,-110.308,1114.4,422.4,271.4,6.3,-2.5,7.7,42.81,1.9431,392.8191],
    [16330,1537394880,53.3628,-110.3091,1114.2,422.2,271.9,6.1,-2.7,7.96,42.86,1.9431,393.6388],
    [16331,1537394881,53.3628,-110.3102,1114.3,422.3,271.9,6.1,-2.5,7.9,42.42,1.9435,394.6678],
    [16332,1537394882,53.3628,-110.3112,1114.5,422.5,271.8,6.1,-2.2,7.52,42.61,1.9429,392.8628],
    [16333,1537394883,53.3628,-110.3123,1114.9,422.6,271.8,6.1,-2.1,7.83,43.6,1.9433,393.9213],
    [16334,1537394884,53.3628,-110.3133,1114.8,421.8,271.9,6.4,-2.2,8.0,42.59,1.9429,394.0084],
    [16335,1537394885,53.3628,-110.3144,1114.7,422.7,272.1,6.4,-2.2,8.3,42.38,1.9424,393.84],
    [16336,1537394886,53.3629,-110.3154,1114.5,423.5,271.7,5.9,-1.7,7.78,42.91,1.9426,391.7263],
    [16337,1537394887,53.3629,-110.3165,1114.1,425.2,271.7,5.5,-1.7,7.33,42.6,1.944,393.6537],
    [16338,1537394888,53.3629,-110.3175,1113.8,426.7,271.7,5.4,-1.7,8.42,42.0,1.9449,393.4524],
    [16339,1537394889,53.3629,-110.3186,1113.8,428.7,271.8,5.0,-1.7,7.69,42.26,1.9451,393.8657],
    [16340,1537394890,53.3629,-110.3197,1114.0,432.0,271.9,5.2,-1.7,7.98,42.36,1.9439,393.8657],
    [16341,1537394891,53.3629,-110.3207,1114.1,433.1,272.0,5.2,-1.8,7.76,42.71,1.9446,392.6977],
    [16342,1537394892,53.3629,-110.3217,1113.7,434.4,272.3,5.1,-2.1,7.37,42.73,1.9433,393.2027],
    [16343,1537394893,53.3629,-110.3228,1113.7,436.7,272.3,5.1,-2.3,8.1,41.89,1.944,393.3127],
    [16344,1537394894,53.3629,-110.3239,1114.2,439.2,272.2,4.9,-2.3,7.47,42.5,1.9434,393.7281],
    [16345,1537394895,53.3629,-110.3249,1114.2,442.2,272.2,5.1,-2.5,8.05,41.9,1.9424,393.7777],
    [16346,1537394896,53.3629,-110.326,1114.4,446.1,271.9,4.9,-2.2,7.71,42.43,1.9419,392.7184],
    [16347,1537394897,53.3629,-110.327,1114.6,450.6,271.9,5.2,-2.1,7.82,42.32,1.9439,392.7184],
    [16348,1537394898,53.3629,-110.3281,1114.4,453.8,271.6,5.4,-1.6,7.27,42.49,1.9444,394.8611],
    [16349,1537394899,53.3629,-110.3291,1114.1,455.4,271.3,5.4,-1.2,7.6,42.76,1.9435,392.315],
    [16350,1537394900,53.3629,-110.3302,1113.8,456.8,271.6,5.3,-1.5,7.31,42.3,1.9428,393.5112],
    [16351,1537394901,53.3629,-110.3312,1113.9,457.9,272.3,5.8,-2.2,7.6,42.35,1.9439,393.5368],
    [16352,1537394902,53.3629,-110.3323,1114.1,458.1,272.3,5.6,-2.1,7.88,42.06,1.9428,392.9997],
    [16353,1537394903,53.363,-110.3333,1114.7,457.7,271.9,5.6,-1.6,7.83,42.31,1.9431,392.3489],
    [16354,1537394904,53.363,-110.3344,1114.8,457.1,271.2,5.8,-0.8,7.72,42.82,1.9445,393.1957],
    [16355,1537394905,53.363,-110.3354,1114.5,455.5,271.1,5.4,-0.6,7.76,43.19,1.9434,393.1957],
    [16356,1537394906,53.363,-110.3365,1114.4,455.4,270.9,5.4,-0.5,7.63,42.4,1.9432,393.8724],
    [16357,1537394907,53.363,-110.3375,1114.1,456.1,271.4,5.3,-0.9,7.84,42.49,1.9439,393.7198],
    [16358,1537394908,53.363,-110.3386,1113.6,455.6,271.4,5.4,-0.8,7.29,42.37,1.9441,391.2104],
    [16359,1537394909,53.363,-110.3396,1113.6,455.6,272.6,5.7,-2.4,7.42,42.4,1.9439,391.2104],
    [16360,1537394910,53.363,-110.3407,1114.5,457.5,272.8,5.3,-2.4,7.85,42.63,1.9445,394.605],
    [16361,1537394911,53.363,-110.3417,1114.4,457.3,272.0,4.9,-1.6,7.5,42.98,1.9437,391.4205],
    [16362,1537394912,53.363,-110.3428,1113.8,457.8,271.1,5.7,-0.9,7.81,42.65,1.9433,392.2077],
    [16363,1537394913,53.363,-110.3438,1113.6,458.6,271.4,6.1,-1.5,7.16,42.55,1.9442,393.4726],
    [16364,1537394914,53.363,-110.3449,1113.9,459.9,271.4,5.2,-1.7,7.53,42.71,1.944,394.3495],
    [16365,1537394915,53.363,-110.3459,1114.4,460.4,271.3,4.8,-1.9,7.54,42.7,1.9432,392.9827],
    [16366,1537394916,53.363,-110.3469,1114.3,459.4,271.5,4.6,-2.1,7.84,42.59,1.944,393.6096],
    [16367,1537394917,53.363,-110.348,1114.2,457.2,271.6,4.6,-2.0,8.43,42.45,1.9454,394.026],
    [16368,1537394918,53.363,-110.349,1114.7,455.7,271.6,4.6,-1.8,7.36,42.66,1.943,393.3679],
    [16369,1537394919,53.363,-110.3501,1114.9,455.9,271.5,4.6,-1.7,7.79,43.27,1.9424,392.4092],
    [16370,1537394920,53.363,-110.3511,1115.1,457.0,271.6,4.4,-1.7,7.7,42.59,1.9411,392.4855],
    [16371,1537394921,53.363,-110.3522,1115.1,458.1,271.9,4.9,-1.9,7.54,42.79,1.9417,393.034],
    [16372,1537394922,53.363,-110.3532,1115.0,459.0,272.3,5.2,-2.3,7.42,42.87,1.9431,393.2036],
    [16373,1537394923,53.3631,-110.3543,1114.7,457.7,271.9,5.1,-1.9,7.7,42.49,1.9436,392.0732],
    [16374,1537394924,53.3631,-110.3553,1114.8,456.8,271.7,5.1,-1.7,7.62,43.04,1.9442,394.2238],
    [16375,1537394925,53.3631,-110.3564,1114.7,456.7,271.5,4.6,-1.7,7.78,42.91,1.9436,393.1482],
    [16376,1537394926,53.3631,-110.3574,1114.6,455.6,271.3,4.5,-1.5,8.51,41.99,1.9433,393.7514],
    [16377,1537394927,53.3631,-110.3585,1114.5,455.5,271.6,4.4,-1.9,7.98,42.02,1.9426,394.452],
    [16378,1537394928,53.3631,-110.3595,1114.4,455.4,271.9,4.5,-2.3,8.31,42.02,1.9415,393.0568],
    [16379,1537394929,53.3631,-110.3606,1114.0,454.3,271.8,4.8,-2.2,7.61,42.31,1.9404,394.0763],
    [16380,1537394930,53.3631,-110.3616,1113.8,453.6,271.9,4.8,-2.2,7.69,42.36,1.9406,394.4608],
    [16381,1537394931,53.3631,-110.3627,1113.7,452.0,271.8,4.8,-1.9,7.51,41.83,1.9405,392.8477],
    [16382,1537394932,53.3631,-110.3638,1113.7,450.6,271.7,4.6,-1.9,7.69,41.51,1.9394,392.0305],
    [16383,1537394933,53.3631,-110.3648,1113.8,450.8,271.8,4.6,-2.1,7.65,41.3,1.94,393.5643],
    [16384,1537394934,53.3631,-110.3659,1114.2,452.1,271.9,4.4,-2.3,8.22,40.56,1.9408,393.5332],
    [16385,1537394935,53.3631,-110.3669,1114.4,454.2,271.6,4.3,-2.1,7.74,40.83,1.9412,392.0083],
    [16386,1537394936,53.3631,-110.368,1114.3,456.3,271.6,4.4,-2.2,7.72,40.94,1.942,393.6636],
    [16387,1537394937,53.3631,-110.369,1114.1,456.1,271.4,4.3,-1.8,7.75,41.13,1.9417,393.5139],
    [16388,1537394938,53.3631,-110.3701,1114.0,456.0,271.1,4.1,-1.4,7.75,40.93,1.9416,393.5471],
    [16389,1537394939,53.3631,-110.3711,1114.1,456.1,271.6,3.9,-1.9,8.3,40.19,1.9416,392.2815],
    [16390,1537394940,53.3631,-110.3722,1114.0,455.0,271.9,3.8,-2.2,7.99,39.87,1.9423,393.8756],
    [16391,1537394941,53.3631,-110.3733,1113.9,453.9,271.7,3.6,-1.8,7.54,40.48,1.9424,390.6981],
    [16392,1537394942,53.3631,-110.3743,1113.9,452.5,271.3,3.7,-1.5,7.99,39.87,1.9414,393.0715],
    [16393,1537394943,53.3631,-110.3753,1114.1,452.0,271.4,3.7,-1.6,7.16,40.38,1.9425,394.5978],
    [16394,1537394944,53.3631,-110.3764,1114.1,452.4,271.3,3.7,-1.5,7.6,40.44,1.9408,394.1218],
    [16395,1537394945,53.3631,-110.3775,1114.2,453.4,271.2,3.7,-1.3,7.81,40.2,1.9428,393.8549],
    [16396,1537394946,53.3631,-110.3786,1114.4,452.4,271.3,3.5,-1.4,7.57,40.4,1.9425,391.7417],
    [16397,1537394947,53.3631,-110.3797,1114.3,451.3,271.1,3.2,-1.1,7.41,40.52,1.9445,393.9673],
    [16398,1537394948,53.3631,-110.3807,1113.8,449.8,271.1,3.5,-1.1,7.34,40.7,1.9444,392.3502],
    [16399,1537394949,53.3631,-110.3818,1114.1,450.1,271.2,3.8,-1.1,8.03,40.72,1.9436,392.9181],
    [16400,1537394950,53.3631,-110.3829,1114.3,450.3,271.6,3.9,-1.3,7.68,41.89,1.944,393.0139],
    [16401,1537394951,53.3631,-110.3839,1114.3,450.3,271.1,3.9,-0.6,7.64,41.25,1.9435,392.4215],
    [16402,1537394952,53.3631,-110.385,1114.7,451.7,271.2,3.9,-0.8,8.28,41.03,1.9434,392.8806],
    [16403,1537394953,53.3631,-110.3861,1115.0,452.0,271.2,3.8,-0.8,7.86,41.64,1.9446,392.0685],
    [16404,1537394954,53.3631,-110.3871,1115.2,452.2,271.2,4.1,-0.8,7.92,41.81,1.9429,394.1694],
    [16405,1537394955,53.3631,-110.3882,1115.0,450.9,271.7,4.2,-1.4,7.75,42.57,1.9428,394.7042],
    [16406,1537394956,53.3632,-110.3893,1114.9,448.9,271.8,4.1,-1.5,8.07,41.95,1.9427,394.5115],
    [16407,1537394957,53.3632,-110.3903,1115.0,449.4,272.0,4.6,-1.8,7.31,41.87,1.9442,394.1869],
    [16408,1537394958,53.3632,-110.3914,1115.1,451.4,271.7,4.8,-1.5,7.48,41.65,1.9436,393.6391],
    [16409,1537394959,53.3632,-110.3925,1115.1,453.4,271.9,4.7,-1.7,7.34,42.29,1.9429,393.1278],
    [16410,1537394960,53.3632,-110.3935,1115.3,456.0,271.7,4.4,-1.5,7.74,41.99,1.9432,394.6954],
    [16411,1537394961,53.3632,-110.3946,1115.6,457.6,271.5,4.6,-1.3,7.45,41.85,1.9432,392.8666],
    [16412,1537394962,53.3632,-110.3957,1115.7,457.9,271.7,4.7,-1.6,7.57,42.1,1.9426,393.4968],
    [16413,1537394963,53.3632,-110.3967,1115.5,458.2,271.6,4.7,-1.6,7.27,42.05,1.9423,393.4968],
    [16414,1537394964,53.3632,-110.3979,1115.8,457.8,271.9,4.6,-2.0,7.58,42.09,1.9436,394.503],
    [16415,1537394965,53.3632,-110.3989,1115.9,456.6,272.1,4.3,-2.1,7.65,41.93,1.9431,393.1603],
    [16416,1537394966,53.3632,-110.3998,1115.8,456.3,271.5,4.8,-1.5,7.09,42.05,1.9422,393.1603],
    [16417,1537394967,53.3632,-110.4011,1115.3,455.3,271.8,5.2,-2.1,7.66,42.47,1.9415,390.9842],
    [16418,1537394968,53.3632,-110.4021,1115.1,454.7,272.1,5.2,-2.5,7.25,42.08,1.9419,393.2503],
    [16419,1537394969,53.3632,-110.4033,1115.0,453.8,272.5,4.9,-3.1,7.59,42.09,1.9425,392.8167],
    [16420,1537394970,53.3632,-110.4043,1114.9,453.5,272.2,4.7,-2.7,8.27,41.83,1.9428,394.1501],
    [16421,1537394971,53.3632,-110.4054,1115.1,453.7,271.8,4.7,-2.3,7.3,41.97,1.9425,393.8028],
    [16422,1537394972,53.3632,-110.4065,1114.9,453.6,270.8,4.8,-1.3,7.69,41.99,1.9431,394.1597],
    [16423,1537394973,53.3632,-110.4076,1114.4,453.1,270.8,4.8,-1.3,8.26,41.88,1.9429,393.205],
    [16424,1537394974,53.3632,-110.4087,1113.9,452.9,270.5,5.0,-0.9,7.7,42.25,1.9447,393.4799],
    [16425,1537394975,53.3632,-110.4098,1114.0,453.8,270.9,5.1,-1.4,7.74,42.04,1.9445,393.3081],
    [16426,1537394976,53.3632,-110.4108,1114.2,454.1,271.2,5.0,-1.6,7.99,41.75,1.9436,393.2885],
    [16427,1537394977,53.3632,-110.4119,1114.5,454.4,271.4,5.0,-1.7,7.86,42.43,1.9449,394.0089],
    [16428,1537394978,53.3632,-110.413,1114.7,455.4,271.5,4.8,-1.8,7.99,42.14,1.9444,393.1922],
    [16429,1537394979,53.3632,-110.4141,1114.7,455.6,271.7,4.6,-2.1,7.4,42.3,1.9441,394.0349],
    [16430,1537394980,53.3632,-110.4151,1114.6,455.5,272.0,4.8,-2.3,7.75,42.34,1.9441,394.0886],
    [16431,1537394981,53.3632,-110.4161,1114.6,455.3,272.0,4.8,-2.3,7.11,42.39,1.9417,392.0283],
    [16432,1537394982,53.3632,-110.4173,1114.8,455.8,271.8,5.0,-2.2,7.24,41.99,1.942,392.9402],
    [16433,1537394983,53.3632,-110.4184,1115.2,458.2,271.9,5.2,-2.5,7.59,42.1,1.9423,392.1104],
    [16434,1537394984,53.3632,-110.4194,1115.4,460.4,271.7,5.4,-2.5,7.69,42.07,1.9412,393.4743],
    [16435,1537394985,53.3632,-110.4205,1115.6,461.6,271.8,5.4,-2.5,7.73,42.43,1.9412,392.8108],
    [16436,1537394986,53.3632,-110.4216,1115.6,461.6,271.1,5.4,-1.7,7.2,41.75,1.9413,393.6564],
    [16437,1537394987,53.3632,-110.4227,1115.6,461.6,270.9,5.2,-1.7,7.7,41.78,1.942,392.5845],
    [16438,1537394988,53.3632,-110.4237,1115.5,460.8,271.1,5.2,-1.9,7.69,41.51,1.9417,393.1538],
    [16439,1537394989,53.3632,-110.4248,1115.3,459.3,271.0,5.0,-1.8,7.19,41.41,1.9426,391.2807],
    [16440,1537394990,53.3632,-110.4259,1114.9,458.0,271.1,5.2,-1.8,7.02,41.46,1.9421,391.2807],
    [16441,1537394991,53.3632,-110.4269,1114.5,456.5,271.1,5.5,-1.9,7.16,41.51,1.9403,394.652],
    [16442,1537394992,53.3632,-110.428,1114.4,456.4,271.4,5.4,-2.1,7.43,41.29,1.9404,392.6345],
    [16443,1537394993,53.3632,-110.4291,1114.4,456.6,271.4,5.2,-2.0,7.41,41.12,1.9408,393.1743],
    [16444,1537394994,53.3632,-110.4302,1114.4,457.4,271.3,5.0,-1.9,7.68,41.28,1.9416,393.1743],
    [16445,1537394995,53.3632,-110.4313,1114.5,457.4,271.4,5.1,-1.9,7.77,41.61,1.942,393.7895],
    [16446,1537394996,53.3632,-110.4323,1114.5,457.5,271.1,4.8,-1.5,7.78,41.22,1.9422,394.2658],
    [16447,1537394997,53.3632,-110.4334,1114.7,457.6,270.8,4.8,-1.4,7.84,41.16,1.9436,392.6633],
    [16448,1537394998,53.3632,-110.4345,1114.7,457.7,271.0,5.0,-1.5,7.58,41.27,1.9434,392.6633],
    [16449,1537394999,53.3632,-110.4356,1115.0,459.3,271.0,4.8,-1.6,7.06,41.13,1.9428,394.1628],
    [16450,1537395000,53.3632,-110.4366,1114.9,459.9,271.5,4.8,-2.1,7.67,41.79,1.9436,394.0428],
    [16451,1537395001,53.3632,-110.4377,1114.7,459.6,271.3,4.8,-1.7,7.76,42.13,1.9456,394.6712],
    [16452,1537395002,53.3632,-110.4388,1114.5,459.5,271.2,4.6,-1.7,8.44,40.86,1.9439,391.9637],
    [16453,1537395003,53.3632,-110.4399,1114.3,460.3,271.6,4.4,-2.1,7.61,41.46,1.9428,393.8991],
    [16454,1537395004,53.3632,-110.4409,1114.3,461.5,271.5,4.5,-2.1,8.3,41.28,1.9431,393.6302],
    [16455,1537395005,53.3632,-110.442,1114.5,463.8,271.1,4.4,-1.6,7.96,41.8,1.9442,392.6226],
    [16456,1537395006,53.3632,-110.4431,1114.5,466.7,271.0,4.5,-1.7,7.19,41.77,1.9426,392.0888],
    [16457,1537395007,53.3632,-110.4441,1114.4,468.5,271.2,4.7,-2.0,7.57,42.08,1.9429,393.2045],
    [16458,1537395008,53.3632,-110.4452,1114.3,470.5,271.4,5.0,-2.3,7.71,41.87,1.9426,393.2045],
    [16459,1537395009,53.3632,-110.4463,1114.4,472.7,271.4,4.8,-2.3,7.95,41.67,1.9414,393.882],
    [16460,1537395010,53.3632,-110.4474,1114.8,474.9,271.2,4.8,-2.1,7.66,41.78,1.9413,393.532],
    [16461,1537395011,53.3632,-110.4484,1115.3,475.5,271.3,4.7,-2.2,7.49,41.71,1.942,393.3114],
    [16462,1537395012,53.3632,-110.4495,1116.2,475.0,271.2,5.0,-2.2,7.99,41.31,1.9442,393.0963],
    [16463,1537395013,53.3632,-110.4506,1116.8,473.2,271.4,5.4,-2.3,7.74,41.69,1.943,391.7192],
    [16464,1537395014,53.3632,-110.4517,1116.8,471.4,270.8,5.5,-1.7,7.61,42.15,1.944,394.389],
    [16465,1537395015,53.3632,-110.4527,1116.7,470.3,270.8,5.3,-1.8,8.53,41.22,1.9437,393.4223],
    [16466,1537395016,53.3632,-110.4538,1116.4,471.1,270.6,4.6,-1.3,8.0,41.41,1.9423,394.7077],
    [16467,1537395017,53.3631,-110.4549,1115.6,472.9,270.3,4.7,-1.1,7.66,41.88,1.9415,392.9683],
    [16468,1537395018,53.3631,-110.456,1115.0,476.7,270.8,4.8,-1.6,7.6,41.93,1.9426,393.8273],
    [16469,1537395019,53.3631,-110.4571,1115.3,482.4,270.3,4.8,-0.7,7.67,42.2,1.9429,394.1249],
    [16470,1537395020,53.3631,-110.4581,1115.1,487.5,269.9,4.7,0.0,8.45,41.5,1.9435,393.963],
    [16471,1537395021,53.3631,-110.4592,1114.8,491.0,270.8,4.7,-1.0,7.63,42.17,1.9442,394.4225],
    [16472,1537395022,53.3631,-110.4603,1114.8,493.1,271.2,4.9,-1.5,7.62,42.95,1.9441,393.3777],
    [16473,1537395023,53.3631,-110.4614,1115.0,495.1,271.5,4.9,-1.9,7.86,41.95,1.943,393.0403],
    [16474,1537395024,53.3631,-110.4625,1115.3,495.9,271.7,4.8,-2.1,7.71,42.31,1.943,393.0403],
    [16475,1537395025,53.3631,-110.4634,1115.3,496.0,271.6,4.9,-2.1,8.27,42.0,1.9453,394.0495],
    [16476,1537395026,53.3631,-110.4646,1115.2,495.9,271.3,4.8,-1.9,7.96,42.21,1.944,393.4947],
    [16477,1537395027,53.3631,-110.4657,1115.2,495.1,271.0,4.9,-1.8,7.61,42.45,1.9432,391.4162],
    [16478,1537395028,53.3631,-110.4668,1115.1,495.0,271.0,5.1,-1.9,7.55,42.51,1.9439,394.0182],
    [16479,1537395029,53.3631,-110.4679,1114.9,495.6,271.2,4.9,-2.2,7.56,42.46,1.9441,392.8218],
    [16480,1537395030,53.3631,-110.4689,1114.9,496.0,271.1,4.8,-2.2,7.64,42.65,1.9437,393.493],
    [16481,1537395031,53.3631,-110.47,1114.5,496.6,271.6,4.7,-2.9,7.73,42.59,1.9425,393.2127],
    [16482,1537395032,53.3631,-110.4711,1114.7,495.6,271.1,5.0,-2.7,7.75,42.85,1.9434,392.4563],
    [16483,1537395033,53.3631,-110.4722,1115.2,494.9,271.1,5.2,-2.8,7.64,42.83,1.9411,392.5856],
    [16484,1537395034,53.3631,-110.4733,1116.1,493.8,270.7,5.2,-2.3,7.85,42.49,1.9415,393.2319],
    [16485,1537395035,53.3631,-110.4743,1116.5,492.5,270.5,5.0,-2.1,7.34,42.58,1.9421,393.4282],
    [16486,1537395036,53.3631,-110.4754,1116.5,492.2,270.4,4.8,-1.9,7.35,42.36,1.9428,393.4625],
    [16487,1537395037,53.363,-110.4765,1116.0,493.3,270.5,4.7,-2.1,8.47,42.02,1.9427,393.0545],
    [16488,1537395038,53.363,-110.4775,1115.8,493.8,270.6,5.2,-2.0,7.73,42.18,1.9424,392.3757],
    [16489,1537395039,53.363,-110.4786,1115.7,494.8,271.0,5.6,-2.5,7.97,41.62,1.9421,391.9643],
    [16490,1537395040,53.363,-110.4797,1115.4,496.7,270.8,5.1,-2.0,7.62,42.35,1.9416,393.8302],
    [16491,1537395041,53.363,-110.4808,1115.3,499.7,270.6,4.8,-1.9,7.88,41.72,1.9407,393.0448],
    [16492,1537395042,53.363,-110.4818,1115.4,503.1,271.0,4.8,-2.2,7.09,42.29,1.9411,392.1285],
    [16493,1537395043,53.363,-110.483,1115.3,505.3,271.4,4.9,-2.5,7.92,41.88,1.9422,392.4397],
    [16494,1537395044,53.363,-110.484,1115.4,505.4,271.5,5.3,-2.4,7.69,42.83,1.9423,393.2732],
    [16495,1537395045,53.363,-110.4851,1115.4,506.4,271.7,5.2,-2.4,8.01,41.75,1.9432,391.4533],
    [16496,1537395046,53.363,-110.4862,1115.4,507.4,271.6,4.9,-2.3,8.47,41.46,1.9432,393.8789],
    [16497,1537395047,53.363,-110.4873,1115.4,506.4,271.5,4.5,-2.2,7.56,41.84,1.942,393.8789],
    [16498,1537395048,53.363,-110.4884,1115.5,505.5,271.7,4.5,-2.1,8.31,41.42,1.9417,394.6225],
    [16499,1537395049,53.363,-110.4893,1115.2,505.2,271.7,4.9,-2.1,7.77,41.67,1.9404,392.4677],
    [16500,1537395050,53.363,-110.4905,1115.0,505.0,271.9,4.9,-2.4,8.03,41.18,1.9404,393.4002],
    [16501,1537395051,53.363,-110.4916,1115.2,506.2,271.9,4.7,-2.4,7.75,41.54,1.9403,393.1994],
    [16502,1537395052,53.363,-110.4926,1115.4,505.4,271.2,4.4,-1.7,8.21,41.57,1.9405,394.123],
    [16503,1537395053,53.363,-110.4938,1115.5,505.5,271.3,4.3,-1.8,8.19,40.86,1.9404,393.2448],
    [16504,1537395054,53.363,-110.4948,1115.1,504.1,271.4,4.2,-1.9,7.55,41.51,1.9419,394.3483],
    [16505,1537395055,53.363,-110.4959,1114.7,501.8,271.7,4.2,-2.2,7.84,42.2,1.9421,390.8605],
    [16506,1537395056,53.363,-110.4969,1114.5,499.5,271.8,4.5,-2.1,7.24,41.49,1.9428,393.9794],
    [16507,1537395057,53.363,-110.4981,1114.5,498.4,272.0,5.0,-2.4,7.61,41.46,1.9417,393.1063],
    [16508,1537395058,53.363,-110.499,1114.6,497.6,272.2,4.9,-2.6,7.74,41.39,1.9406,393.3182],
    [16509,1537395059,53.363,-110.5002,1115.0,497.5,271.6,5.1,-1.8,7.71,41.61,1.941,391.2146],
    [16510,1537395060,53.363,-110.5013,1115.6,496.5,271.0,5.5,-1.2,7.7,41.57,1.9415,394.0161],
    [16511,1537395061,53.363,-110.5023,1115.9,496.0,271.6,5.6,-1.8,7.68,41.87,1.9437,392.6312],
    [16512,1537395062,53.363,-110.5034,1115.9,494.4,271.4,5.6,-1.6,7.54,41.62,1.9425,393.2234],
    [16513,1537395063,53.363,-110.5045,1115.6,493.7,271.6,5.4,-1.8,7.74,41.7,1.9406,394.0246],
    [16514,1537395064,53.363,-110.5055,1114.9,492.9,271.6,5.2,-1.8,7.29,41.7,1.9426,392.4461],
    [16515,1537395065,53.363,-110.5066,1114.4,493.4,271.5,5.0,-1.5,7.65,41.57,1.9417,393.1755],
    [16516,1537395066,53.363,-110.5077,1114.1,492.4,271.7,5.8,-1.9,8.48,40.98,1.9413,393.2229],
    [16517,1537395067,53.363,-110.5088,1114.0,491.0,272.5,5.5,-2.8,7.7,41.68,1.9424,392.6297],
    [16518,1537395068,53.363,-110.5098,1114.2,489.1,272.8,5.4,-3.3,8.01,41.33,1.9411,394.0783],
    [16519,1537395069,53.363,-110.5109,1114.5,489.5,273.2,5.3,-3.8,7.57,42.3,1.9417,393.9112],
    [16520,1537395070,53.363,-110.512,1114.9,488.9,273.1,5.1,-3.8,7.91,41.47,1.9417,393.0809],
    [16521,1537395071,53.363,-110.513,1115.2,488.2,272.3,5.1,-2.9,7.56,41.62,1.9417,393.1317],
    [16522,1537395072,53.363,-110.5141,1115.1,488.1,271.8,4.9,-2.6,7.75,41.73,1.942,393.1286],
    [16523,1537395073,53.363,-110.5151,1114.6,488.3,271.3,5.2,-2.3,8.13,41.64,1.9426,392.9545],
    [16524,1537395074,53.363,-110.5162,1114.9,489.9,271.7,5.2,-3.0,7.73,41.87,1.9428,393.0238],
    [16525,1537395075,53.363,-110.5173,1115.3,490.3,272.2,4.8,-3.5,8.26,41.66,1.9412,393.0651],
    [16526,1537395076,53.363,-110.5183,1115.2,489.2,271.7,5.0,-2.8,7.71,42.51,1.941,393.7152],
    [16527,1537395077,53.363,-110.5194,1114.9,488.9,271.8,4.5,-3.1,7.3,42.42,1.9426,393.7576],
    [16528,1537395078,53.363,-110.5205,1115.1,488.1,272.3,4.1,-3.4,7.73,42.32,1.9416,393.3607],
    [16529,1537395079,53.363,-110.5215,1115.3,487.3,271.6,4.5,-2.4,7.22,42.11,1.9433,393.1243],
    [16530,1537395080,53.363,-110.5226,1115.6,487.6,270.8,5.3,-1.6,8.61,41.91,1.9436,393.73],
    [16531,1537395081,53.363,-110.5237,1115.4,487.4,270.9,5.2,-1.7,7.55,42.4,1.9414,393.7321],
    [16532,1537395082,53.363,-110.5247,1115.2,486.9,271.0,5.2,-1.9,7.3,42.23,1.9416,391.115],
    [16533,1537395083,53.363,-110.5258,1115.1,486.1,271.1,4.8,-1.6,7.58,42.32,1.9416,394.1696],
    [16534,1537395084,53.363,-110.5269,1115.4,485.4,271.0,4.1,-1.3,8.07,41.84,1.9425,394.1281],
    [16535,1537395085,53.363,-110.528,1115.4,485.4,271.5,4.6,-1.7,7.47,42.46,1.9419,393.1603],
    [16536,1537395086,53.363,-110.5291,1114.6,485.6,271.5,4.9,-1.4,7.66,43.24,1.9412,393.1561],
    [16537,1537395087,53.363,-110.5301,1114.2,486.1,272.1,4.8,-1.8,7.54,42.44,1.9411,392.9564],
    [16538,1537395088,53.363,-110.5312,1114.1,488.1,272.2,5.4,-1.7,7.24,42.27,1.9412,392.4433],
    [16539,1537395089,53.363,-110.5323,1114.3,488.6,272.4,5.2,-1.9,7.7,42.57,1.9422,393.5738],
    [16540,1537395090,53.363,-110.5334,1114.6,491.3,272.5,5.0,-2.0,7.96,42.02,1.9431,393.3854],
    [16541,1537395091,53.363,-110.5345,1115.0,495.0,272.2,5.4,-1.6,7.87,42.3,1.942,393.4105],
    [16542,1537395092,53.3631,-110.5355,1115.1,497.1,271.8,5.6,-1.3,8.1,41.82,1.9417,394.3685],
    [16543,1537395093,53.3631,-110.5366,1115.2,498.0,271.9,5.6,-1.5,7.59,42.14,1.9396,393.7619],
    [16544,1537395094,53.3631,-110.5377,1115.1,498.9,272.0,5.6,-1.5,7.14,42.06,1.9405,393.4433],
    [16545,1537395095,53.3631,-110.5388,1115.1,500.8,271.8,5.6,-1.4,7.75,42.68,1.9421,393.3175],
    [16546,1537395096,53.3631,-110.5399,1115.0,501.0,272.0,5.6,-1.5,7.74,41.97,1.9408,393.1071],
    [16547,1537395097,53.3631,-110.5409,1115.1,501.1,271.6,5.7,-1.1,7.6,42.11,1.9416,391.7021],
    [16548,1537395098,53.3631,-110.542,1115.1,500.1,272.2,5.4,-1.9,8.15,41.87,1.9419,392.5751],
    [16549,1537395099,53.3631,-110.5431,1114.9,498.1,272.2,5.1,-1.8,7.64,42.3,1.9406,393.305],
    [16550,1537395100,53.3631,-110.5442,1114.6,495.5,272.1,5.3,-1.6,7.76,42.29,1.9418,394.0698],
    [16551,1537395101,53.3631,-110.5453,1114.3,494.3,272.2,5.1,-1.7,7.28,41.69,1.9429,393.9172],
    [16552,1537395102,53.3632,-110.5463,1114.2,494.2,272.1,5.1,-1.5,7.52,41.34,1.942,393.7845],
    [16553,1537395103,53.3632,-110.5474,1114.2,492.9,271.9,5.3,-1.3,7.78,41.71,1.9409,392.8082],
    [16554,1537395104,53.3632,-110.5485,1114.5,491.5,272.0,5.1,-1.5,8.46,41.08,1.9401,392.449],
    [16555,1537395105,53.3632,-110.5496,1114.8,491.8,272.2,4.9,-1.7,8.41,40.97,1.9421,393.7585],
    [16556,1537395106,53.3632,-110.5507,1115.1,492.1,272.1,4.7,-1.6,8.23,41.36,1.9402,393.5711],
    [16557,1537395107,53.3632,-110.5518,1115.0,492.0,272.3,4.9,-1.7,7.71,41.81,1.9404,393.3331],
    [16558,1537395108,53.3632,-110.5529,1114.5,491.5,272.3,5.0,-1.7,7.66,41.67,1.9417,392.0232],
    [16559,1537395109,53.3632,-110.5539,1114.4,492.5,272.4,4.9,-1.9,8.45,40.98,1.9405,393.8301],
    [16560,1537395110,53.3632,-110.555,1114.3,493.5,272.3,4.7,-1.8,7.74,41.29,1.9404,393.5608],
    [16561,1537395111,53.3633,-110.5561,1114.2,495.0,271.8,4.8,-1.2,7.66,41.16,1.9403,392.874],
    [16562,1537395112,53.3633,-110.5572,1114.0,496.0,271.8,5.2,-1.1,7.45,41.15,1.9397,394.0312],
    [16563,1537395113,53.3633,-110.5583,1114.1,496.0,272.1,5.4,-1.6,7.84,40.92,1.9386,393.8443],
    [16564,1537395114,53.3633,-110.5594,1114.4,496.4,272.5,5.1,-1.8,8.03,40.62,1.9396,394.1951],
    [16565,1537395115,53.3633,-110.5604,1114.9,496.8,271.7,5.2,-0.9,7.57,40.96,1.9392,391.9169],
    [16566,1537395116,53.3633,-110.5615,1115.1,498.3,272.2,5.3,-1.6,7.83,41.6,1.9388,393.6105],
    [16567,1537395117,53.3633,-110.5626,1115.0,499.0,272.5,5.6,-1.9,7.75,41.31,1.939,392.6483],
    [16568,1537395118,53.3633,-110.5636,1115.1,499.1,272.2,5.5,-1.5,7.87,40.4,1.939,393.7795],
    [16569,1537395119,53.3634,-110.5647,1115.1,499.1,272.1,5.5,-1.4,7.56,40.66,1.9389,393.4855],
    [16570,1537395120,53.3634,-110.5658,1115.1,496.9,272.2,5.2,-1.5,8.31,40.13,1.9391,393.4525],
    [16571,1537395121,53.3634,-110.5669,1114.9,493.7,272.1,4.9,-1.2,7.41,40.55,1.94,393.4713],
    [16572,1537395122,53.3634,-110.568,1114.6,489.5,272.0,5.0,-1.1,7.55,40.53,1.9396,393.4713],
    [16573,1537395123,53.3634,-110.569,1114.5,485.8,272.1,4.5,-1.1,7.76,40.16,1.939,393.2031],
    [16574,1537395124,53.3634,-110.5701,1114.0,483.2,272.0,4.5,-0.8,7.92,40.93,1.9401,392.7516],
    [16575,1537395125,53.3634,-110.5712,1113.9,481.6,272.0,4.8,-0.8,7.6,40.32,1.9407,392.7516],
    [16576,1537395126,53.3635,-110.5723,1114.1,478.8,272.7,4.2,-1.5,8.32,40.12,1.9406,393.5042],
    [16577,1537395127,53.3635,-110.5734,1114.1,476.1,272.2,4.4,-0.7,8.36,39.99,1.9403,391.5704],
    [16578,1537395128,53.3635,-110.5744,1114.1,473.9,271.9,4.6,-0.5,7.85,40.2,1.9402,392.8994],
    [16579,1537395129,53.3635,-110.5755,1113.9,471.9,272.0,4.2,-0.7,8.06,40.22,1.9406,393.746],
    [16580,1537395130,53.3635,-110.5766,1113.8,470.8,272.3,4.0,-1.0,7.73,40.03,1.9394,393.1847],
    [16581,1537395131,53.3636,-110.5776,1113.7,469.7,272.3,4.3,-0.9,7.72,41.01,1.9413,393.6818],
    [16582,1537395132,53.3636,-110.5787,1114.1,470.1,272.1,4.4,-0.6,7.98,40.38,1.9392,393.8195],
    [16583,1537395133,53.3636,-110.5798,1114.8,470.7,272.0,4.7,-0.4,8.25,40.08,1.9395,391.5666],
    [16584,1537395134,53.3636,-110.5809,1115.0,470.0,272.5,4.8,-0.9,8.49,40.11,1.9403,391.5666],
    [16585,1537395135,53.3636,-110.582,1114.9,471.9,272.3,4.5,-0.5,7.79,40.76,1.9405,393.9648],
    [16586,1537395136,53.3637,-110.583,1114.6,473.6,272.4,4.3,-0.5,8.0,40.74,1.9403,392.9421],
    [16587,1537395137,53.3637,-110.5841,1114.0,476.0,272.7,4.1,-0.8,7.44,41.42,1.941,393.0325],
    [16588,1537395138,53.3637,-110.5852,1113.7,475.7,272.8,3.9,-1.0,7.66,40.91,1.9399,393.0951],
    [16589,1537395139,53.3637,-110.5863,1114.0,475.0,272.5,4.2,-0.7,8.25,40.15,1.9404,392.6696],
    [16590,1537395140,53.3638,-110.5874,1114.7,472.6,272.5,4.2,-0.7,7.73,41.38,1.94,393.577],
    [16591,1537395141,53.3638,-110.5884,1114.6,470.6,272.5,4.4,-0.7,8.29,40.17,1.9399,394.0337],
    [16592,1537395142,53.3638,-110.5895,1114.1,471.1,272.3,4.6,-0.5,7.56,40.86,1.9396,393.8445],
    [16593,1537395143,53.3638,-110.5905,1113.9,471.9,272.0,4.7,-0.2,7.64,40.7,1.9406,394.1601],
    [16594,1537395144,53.3639,-110.5917,1114.0,473.0,271.9,4.6,-0.1,8.41,40.63,1.9411,393.4522],
    [16595,1537395145,53.3639,-110.5927,1114.3,472.3,271.8,4.5,0.0,8.23,40.71,1.9411,393.2411],
    [16596,1537395146,53.3639,-110.5938,1114.1,472.1,271.6,4.6,0.1,7.62,41.56,1.9415,393.9749],
    [16597,1537395147,53.3639,-110.5949,1113.7,471.2,271.6,4.5,0.2,7.61,41.01,1.941,393.6387],
    [16598,1537395148,53.3639,-110.596,1113.4,470.3,271.3,4.4,0.4,7.86,40.36,1.9398,394.5119],
    [16599,1537395149,53.364,-110.597,1114.0,471.7,272.0,4.2,-0.4,7.92,40.87,1.9401,393.6651],
    [16600,1537395150,53.364,-110.5981,1114.4,473.5,271.6,4.1,0.0,7.62,40.56,1.9416,393.0628],
    [16601,1537395151,53.364,-110.5992,1114.8,475.0,271.6,4.8,-0.1,7.7,41.03,1.941,393.1326],
    [16602,1537395152,53.364,-110.6003,1114.7,475.9,271.6,5.1,-0.2,7.36,41.02,1.9412,393.2779],
    [16603,1537395153,53.364,-110.6013,1114.1,476.7,271.7,4.9,-0.3,8.27,40.98,1.9412,393.381],
    [16604,1537395154,53.364,-110.6024,1113.7,479.7,271.5,4.7,-0.2,7.43,41.16,1.9397,394.6116],
    [16605,1537395155,53.3641,-110.6035,1114.2,481.9,271.4,4.9,-0.1,7.85,41.21,1.9398,392.8961],
    [16606,1537395156,53.3641,-110.6046,1115.1,482.1,271.5,5.1,-0.3,7.89,41.44,1.9395,392.8961],
    [16607,1537395157,53.3641,-110.6056,1115.2,480.6,271.9,5.1,-0.8,8.26,40.83,1.9398,393.9699],
    [16608,1537395158,53.3641,-110.6067,1115.3,479.7,272.0,4.6,-0.9,7.52,41.44,1.9397,393.3398],
    [16609,1537395159,53.3641,-110.6078,1115.1,479.5,271.4,4.7,-0.3,7.57,40.96,1.9396,394.221],
    [16610,1537395160,53.3641,-110.6089,1114.5,478.9,271.3,4.6,-0.3,7.58,41.43,1.9394,393.2407],
    [16611,1537395161,53.3641,-110.6099,1113.9,478.8,271.3,4.7,-0.4,7.56,41.41,1.94,394.5076],
    [16612,1537395162,53.3642,-110.6111,1113.8,480.4,270.8,4.9,0.2,7.65,41.17,1.9398,392.17],
    [16613,1537395163,53.3642,-110.6121,1113.8,485.1,271.0,4.6,0.1,7.49,41.22,1.9403,393.1083],
    [16614,1537395164,53.3642,-110.6132,1113.2,486.8,271.5,4.8,-0.5,7.74,41.43,1.9394,392.0198],
    [16615,1537395165,53.3642,-110.6143,1112.7,490.0,271.9,4.7,-1.0,7.76,41.47,1.939,392.0198],
    [16616,1537395166,53.3642,-110.6154,1112.9,494.5,271.7,4.1,-0.7,7.29,40.88,1.9402,393.3177],
    [16617,1537395167,53.3642,-110.6165,1113.6,498.4,271.7,4.9,-0.8,7.81,40.88,1.941,393.2647],
    [16618,1537395168,53.3642,-110.6175,1114.2,501.5,271.4,5.7,-0.5,7.95,40.39,1.9403,394.5027],
    [16619,1537395169,53.3642,-110.6186,1114.6,503.1,271.0,5.4,-0.2,7.82,40.84,1.9403,392.0568],
    [16620,1537395170,53.3643,-110.6196,1114.7,504.4,270.6,5.5,0.0,7.8,41.4,1.9397,392.4414],
    [16621,1537395171,53.3643,-110.6208,1114.6,504.5,270.7,5.2,-0.1,8.43,40.21,1.9398,393.3721],
    [16622,1537395172,53.3643,-110.6218,1114.4,505.4,270.7,4.8,-0.1,8.21,40.03,1.939,394.4907],
    [16623,1537395173,53.3643,-110.6229,1113.9,504.9,271.0,4.5,-0.3,8.32,40.41,1.9405,393.6711],
    [16624,1537395174,53.3643,-110.624,1113.0,504.1,271.4,4.0,-0.8,7.81,40.42,1.9401,393.5618],
    [16625,1537395175,53.3643,-110.6251,1112.5,504.3,271.9,4.1,-1.3,8.04,40.37,1.9395,392.9406],
    [16626,1537395176,53.3643,-110.6262,1112.8,503.8,272.0,4.4,-1.5,7.78,40.56,1.9394,392.9249],
    [16627,1537395177,53.3643,-110.6273,1112.9,503.9,272.2,4.5,-1.8,8.37,40.34,1.9393,392.9249],
    [16628,1537395178,53.3643,-110.6283,1113.0,503.4,271.9,4.7,-1.5,7.7,40.68,1.9397,392.8111],
    [16629,1537395179,53.3643,-110.6294,1113.1,503.1,271.7,5.1,-1.5,7.79,40.26,1.9393,392.6173],
    [16630,1537395180,53.3643,-110.6305,1113.7,503.7,271.3,5.3,-1.0,7.66,40.77,1.941,392.5024],
    [16631,1537395181,53.3643,-110.6316,1114.2,504.2,271.5,5.1,-1.4,7.8,41.12,1.9411,392.4737],
    [16632,1537395182,53.3644,-110.6327,1114.1,504.1,271.8,5.6,-1.9,8.08,40.51,1.9406,391.1521],
    [16633,1537395183,53.3644,-110.6337,1114.5,504.5,272.0,5.9,-2.1,8.21,40.05,1.9405,393.2788],
    [16634,1537395184,53.3644,-110.6348,1115.7,506.7,271.9,5.3,-1.9,7.6,40.78,1.9403,393.0379],
    [16635,1537395185,53.3644,-110.6359,1115.7,507.7,271.6,4.8,-1.5,7.86,40.46,1.9398,393.624],
    [16636,1537395186,53.3644,-110.637,1114.7,506.7,272.2,4.3,-2.2,7.71,41.48,1.9397,392.6987],
    [16637,1537395187,53.3644,-110.6381,1113.7,505.7,272.2,4.0,-2.2,7.57,40.98,1.9401,393.1551],
    [16638,1537395188,53.3644,-110.6391,1112.7,504.4,271.9,4.2,-2.2,7.8,40.91,1.9407,393.3993],
    [16639,1537395189,53.3644,-110.6402,1112.4,503.4,271.7,4.6,-2.1,7.74,40.95,1.9419,393.1702],
    [16640,1537395190,53.3644,-110.6413,1112.7,503.4,271.7,4.8,-2.4,7.67,40.44,1.939,392.6238],
    [16641,1537395191,53.3644,-110.6424,1112.7,503.7,271.7,4.4,-2.4,7.61,40.73,1.9404,393.1396],
    [16642,1537395192,53.3644,-110.6435,1112.8,504.8,271.2,4.5,-1.9,7.5,40.9,1.9425,393.7612],
    [16643,1537395193,53.3644,-110.6446,1112.8,505.8,271.3,4.7,-2.0,8.08,40.5,1.9408,394.2187],
    [16644,1537395194,53.3644,-110.6456,1112.9,507.0,271.1,4.8,-1.6,7.82,40.47,1.9392,393.2147],
    [16645,1537395195,53.3644,-110.6467,1113.0,506.0,271.5,4.7,-2.0,7.82,40.28,1.9397,394.7721],
    [16646,1537395196,53.3644,-110.6478,1113.1,506.0,271.4,4.4,-1.8,7.51,40.68,1.9396,393.202],
    [16647,1537395197,53.3644,-110.6489,1113.3,507.0,271.5,4.0,-2.0,7.95,40.2,1.9399,392.5086],
    [16648,1537395198,53.3644,-110.65,1113.9,506.8,271.4,4.1,-1.6,7.63,40.52,1.9414,392.879],
    [16649,1537395199,53.3644,-110.6511,1114.2,507.3,270.5,4.8,-0.7,7.81,40.32,1.9427,393.8456],
    [16650,1537395200,53.3644,-110.6521,1114.1,506.1,271.4,4.6,-1.8,7.79,41.11,1.9411,393.1318],
    [16651,1537395201,53.3644,-110.6532,1113.8,505.5,271.5,3.9,-1.8,7.18,40.6,1.9405,393.4975],
    [16652,1537395202,53.3644,-110.6543,1113.5,504.6,271.0,4.0,-1.1,7.62,40.28,1.9413,392.8109],
    [16653,1537395203,53.3644,-110.6554,1113.8,503.5,270.8,4.3,-0.8,7.78,40.51,1.9429,392.0803],
    [16654,1537395204,53.3644,-110.6565,1114.6,502.0,270.1,4.1,0.2,7.91,40.8,1.9423,392.9106],
    [16655,1537395205,53.3644,-110.6575,1115.0,500.2,270.4,4.4,-0.1,7.1,40.67,1.9431,392.5868],
    [16656,1537395206,53.3644,-110.6586,1114.5,499.4,270.8,4.1,-0.4,7.66,41.0,1.9422,394.0057],
    [16657,1537395207,53.3644,-110.6597,1114.5,501.2,270.8,3.3,-0.4,7.29,40.92,1.941,392.8681],
    [16658,1537395208,53.3644,-110.6608,1115.0,502.6,271.2,3.5,-0.7,7.65,41.07,1.941,392.4164],
    [16659,1537395209,53.3644,-110.6619,1114.7,503.5,271.5,3.9,-1.0,7.77,41.37,1.9408,393.3712],
    [16660,1537395210,53.3644,-110.663,1114.0,503.7,271.3,3.8,-0.6,7.35,40.91,1.9419,392.9692],
    [16661,1537395211,53.3644,-110.6641,1113.6,503.3,271.3,3.8,-0.6,7.92,40.95,1.9413,392.2671],
    [16662,1537395212,53.3645,-110.6652,1113.6,504.6,272.0,3.3,-1.3,7.4,41.14,1.9414,392.755],
    [16663,1537395213,53.3645,-110.6663,1113.9,504.9,272.6,3.2,-2.0,7.8,41.7,1.9423,393.1832],
    [16664,1537395214,53.3645,-110.6674,1114.3,505.6,272.8,3.0,-2.1,7.44,41.09,1.9426,393.0332],
    [16665,1537395215,53.3645,-110.6685,1114.7,506.7,272.6,3.4,-2.0,7.64,40.94,1.9422,393.7329],
    [16666,1537395216,53.3645,-110.6696,1113.9,506.9,273.3,3.0,-2.7,8.04,41.17,1.9413,393.7178],
    [16667,1537395217,53.3645,-110.6707,1113.0,506.0,272.7,2.4,-1.9,7.78,41.46,1.9411,393.8249],
    [16668,1537395218,53.3645,-110.6719,1112.3,506.3,272.6,2.4,-2.1,8.2,41.09,1.9411,391.3059],
    [16669,1537395219,53.3646,-110.673,1111.6,505.6,272.1,2.8,-1.6,7.69,41.16,1.9402,393.9247],
    [16670,1537395220,53.3646,-110.674,1111.1,505.1,272.1,2.8,-1.8,7.65,41.15,1.9419,393.3963],
    [16671,1537395221,53.3646,-110.6752,1111.4,504.4,272.0,2.9,-1.9,7.71,40.89,1.9418,392.2603],
    [16672,1537395222,53.3646,-110.6763,1112.9,503.9,271.9,2.7,-2.0,7.28,41.02,1.9413,393.4237],
    [16673,1537395223,53.3646,-110.6774,1113.8,503.7,272.0,2.2,-2.2,7.36,40.89,1.9412,393.4237],
    [16674,1537395224,53.3646,-110.6785,1113.5,503.6,271.6,2.0,-1.8,7.73,40.86,1.9414,393.3261],
    [16675,1537395225,53.3646,-110.6796,1113.0,501.0,271.1,2.2,-1.1,8.33,40.74,1.941,393.5969],
    [16676,1537395226,53.3646,-110.6808,1113.4,497.1,270.6,2.4,-0.6,7.75,41.54,1.9421,394.0032],
    [16677,1537395227,53.3646,-110.6819,1113.6,489.4,270.5,2.1,-0.5,7.82,41.18,1.9405,394.0032],
    [16678,1537395228,53.3646,-110.683,1112.9,478.9,270.3,2.4,-0.2,8.38,40.97,1.9401,394.1458],
    [16679,1537395229,53.3646,-110.6841,1111.9,468.3,270.3,2.7,0.0,7.26,40.9,1.9419,393.2122],
    [16680,1537395230,53.3646,-110.6852,1113.2,460.7,269.8,2.6,0.8,7.78,40.9,1.9414,391.9092],
    [16681,1537395231,53.3646,-110.6863,1116.1,456.1,270.5,2.7,0.1,8.24,40.35,1.9429,393.3101],
    [16682,1537395232,53.3646,-110.6875,1117.8,453.7,271.1,2.4,-0.1,7.8,40.89,1.9423,393.0654],
    [16683,1537395233,53.3646,-110.6885,1119.0,453.1,270.6,2.3,0.7,7.98,40.89,1.9423,393.4192],
    [16684,1537395234,53.3646,-110.6897,1119.8,451.8,271.3,2.8,-0.2,7.72,41.48,1.943,392.8061],
    [16685,1537395235,53.3647,-110.6908,1119.1,450.0,272.2,2.9,-1.4,7.81,41.57,1.9414,390.7459],
    [16686,1537395236,53.3647,-110.6919,1117.6,448.6,272.1,2.6,-1.5,7.64,41.11,1.9411,393.2691],
    [16687,1537395237,53.3647,-110.693,1117.3,448.3,271.3,1.8,-0.7,7.75,41.3,1.9426,393.4513],
    [16688,1537395238,53.3647,-110.6942,1118.9,449.9,270.3,1.8,0.3,7.94,41.52,1.9434,393.4513],
    [16689,1537395239,53.3647,-110.6953,1119.2,452.2,271.7,1.3,-1.3,8.14,41.65,1.9433,393.7754],
    [16690,1537395240,53.3647,-110.6964,1118.3,453.6,271.5,1.7,-1.0,7.93,41.33,1.9415,394.1547],
    [16691,1537395241,53.3647,-110.6976,1116.9,455.6,271.5,2.6,-1.2,7.87,41.71,1.9415,392.2343],
    [16692,1537395242,53.3647,-110.6987,1116.8,458.8,270.8,2.3,-0.4,7.83,41.45,1.9414,393.7812],
    [16693,1537395243,53.3647,-110.6999,1116.7,462.9,270.7,1.4,-0.5,8.45,41.41,1.9431,393.1374],
    [16694,1537395244,53.3647,-110.701,1116.7,466.6,271.5,1.2,-1.0,7.58,41.5,1.944,394.0116],
    [16695,1537395245,53.3647,-110.7021,1116.8,468.8,270.8,1.2,0.1,7.28,41.45,1.9438,392.5572],
    [16696,1537395246,53.3648,-110.7033,1116.8,472.2,271.3,1.0,-0.1,8.21,41.35,1.9435,391.7493],
    [16697,1537395247,53.3648,-110.7045,1116.9,475.2,272.0,0.8,-0.5,8.45,41.02,1.9437,393.5611],
    [16698,1537395248,53.3648,-110.7056,1117.0,476.5,272.4,1.2,-0.9,7.88,42.12,1.9447,392.4506],
    [16699,1537395249,53.3648,-110.7068,1116.3,476.4,272.6,1.4,-1.1,7.9,42.27,1.9451,392.4753],
    [16700,1537395250,53.3648,-110.708,1114.7,474.1,272.0,1.8,-0.1,7.64,41.72,1.9458,394.3442],
    [16701,1537395251,53.3649,-110.7091,1114.6,474.7,271.1,1.8,1.1,7.84,42.11,1.9464,392.7445],
    [16702,1537395252,53.3649,-110.7103,1115.1,477.1,271.5,1.5,0.6,8.64,41.27,1.9464,392.7221],
    [16703,1537395253,53.3649,-110.7115,1115.2,479.5,271.9,1.7,0.3,8.38,41.13,1.9465,393.1979],
    [16704,1537395254,53.3649,-110.7126,1114.5,481.2,272.8,2.1,-0.9,7.92,41.69,1.948,393.1773],
    [16705,1537395255,53.365,-110.7138,1113.8,482.7,272.9,2.5,-0.7,8.24,41.92,1.9503,392.9533],
    [16706,1537395256,53.365,-110.715,1113.5,486.3,272.7,2.8,-0.6,8.16,41.05,1.9476,393.0095],
    [16707,1537395257,53.365,-110.7162,1113.4,488.5,272.5,2.9,-0.5,7.72,41.55,1.9469,393.5846],
    [16708,1537395258,53.3651,-110.7174,1112.9,489.0,272.5,2.7,-0.6,7.76,41.59,1.9469,392.6058],
    [16709,1537395259,53.3651,-110.7185,1112.0,489.0,272.4,1.9,-0.7,7.83,41.5,1.9487,392.0267],
    [16710,1537395260,53.3651,-110.7197,1112.1,490.4,272.0,1.8,-1.0,7.61,41.52,1.9485,394.2201],
    [16711,1537395261,53.3651,-110.7208,1113.0,492.0,271.8,1.8,-1.1,7.56,41.3,1.9487,392.8883],
    [16712,1537395262,53.3651,-110.7221,1113.3,491.6,271.3,1.8,-1.0,8.0,41.45,1.9465,392.5141],
    [16713,1537395263,53.3651,-110.7232,1113.3,491.1,271.4,1.7,-1.4,7.95,41.83,1.9454,393.5418],
    [16714,1537395264,53.3651,-110.7244,1113.3,490.4,271.0,2.1,-1.1,7.87,41.12,1.9448,394.417],
    [16715,1537395265,53.3651,-110.7256,1113.8,489.6,270.7,2.7,-1.0,7.74,41.06,1.9418,393.0721],
    [16716,1537395266,53.3651,-110.7267,1114.8,490.6,270.5,3.3,-0.8,7.35,40.96,1.9413,393.1172],
    [16717,1537395267,53.3651,-110.7279,1115.6,492.6,270.5,3.6,-0.9,7.83,41.12,1.9395,393.2918],
    [16718,1537395268,53.3651,-110.7291,1115.6,494.7,270.6,3.8,-1.0,8.27,40.62,1.9402,393.7014],
    [16719,1537395269,53.3651,-110.7301,1115.4,495.4,270.5,4.1,-0.8,8.7,40.19,1.9407,392.7886],
    [16720,1537395270,53.3651,-110.7314,1115.5,495.5,270.5,4.2,-0.8,7.4,40.79,1.9402,393.3241],
    [16721,1537395271,53.3651,-110.7325,1115.8,493.8,270.2,3.9,-0.6,8.55,40.01,1.9396,393.5696],
    [16722,1537395272,53.3651,-110.7337,1116.1,493.1,270.4,3.6,-0.8,7.89,40.53,1.9409,393.1443],
    [16723,1537395273,53.3651,-110.7349,1116.0,493.0,270.2,3.6,-0.7,8.03,41.06,1.9421,393.5875],
    [16724,1537395274,53.3651,-110.736,1115.8,492.7,270.3,3.7,-0.9,8.17,40.39,1.9424,393.3138],
    [16725,1537395275,53.3651,-110.7371,1115.4,493.4,270.0,4.1,-0.6,7.77,40.33,1.9417,394.7397],
    [16726,1537395276,53.3651,-110.7383,1115.1,494.3,269.9,4.4,-0.5,7.94,40.5,1.9407,392.3044],
    [16727,1537395277,53.3651,-110.7394,1115.1,495.1,269.8,5.2,-0.5,7.8,40.25,1.9414,392.7009],
    [16728,1537395278,53.3651,-110.7405,1115.5,495.5,270.4,5.3,-1.1,7.99,41.03,1.9416,393.3157],
    [16729,1537395279,53.3651,-110.7417,1116.0,497.0,269.8,5.2,-0.3,7.63,40.52,1.9443,393.2792],
    [16730,1537395280,53.3651,-110.7428,1115.6,497.6,270.1,5.0,-0.8,8.0,40.67,1.9436,393.2792],
    [16731,1537395281,53.3651,-110.744,1114.7,497.7,269.8,5.5,-0.7,7.92,40.29,1.9434,393.1719],
    [16732,1537395282,53.3651,-110.7451,1114.6,497.5,270.3,5.7,-1.6,7.89,40.1,1.942,393.4036],
    [16733,1537395283,53.3651,-110.7463,1114.7,497.7,270.0,5.4,-1.2,7.84,40.6,1.942,393.1822],
    [16734,1537395284,53.365,-110.7474,1115.0,497.9,270.1,5.9,-1.3,7.91,40.37,1.9418,392.9923],
    [16735,1537395285,53.365,-110.7485,1115.6,498.6,269.9,5.5,-0.9,7.84,40.11,1.9425,393.0625],
    [16736,1537395286,53.365,-110.7497,1115.3,497.4,270.2,5.0,-1.3,7.68,39.9,1.9418,392.8526],
    [16737,1537395287,53.365,-110.7508,1114.9,496.8,269.5,5.3,-0.7,7.99,40.73,1.9397,393.4984],
    [16738,1537395288,53.365,-110.7519,1115.2,497.1,269.2,5.7,-0.8,8.1,39.53,1.9398,391.9172],
    [16739,1537395289,53.365,-110.753,1115.5,497.5,269.2,5.7,-1.1,8.37,39.84,1.9391,393.1789],
    [16740,1537395290,53.365,-110.7541,1115.4,497.4,269.3,5.4,-1.3,7.85,39.96,1.9391,394.0804],
    [16741,1537395291,53.3649,-110.7553,1115.2,497.2,269.3,5.7,-1.3,7.68,39.97,1.94,391.6389],
    [16742,1537395292,53.3649,-110.7563,1114.9,496.9,269.5,5.7,-1.4,8.03,40.31,1.9404,392.9903],
    [16743,1537395293,53.3649,-110.7575,1115.3,497.6,269.6,5.7,-1.5,7.98,39.81,1.9397,393.2584],
    [16744,1537395294,53.3649,-110.7586,1115.8,498.8,270.1,5.3,-1.8,8.09,39.82,1.9383,393.817],
    [16745,1537395295,53.3649,-110.7597,1115.3,499.3,270.7,4.9,-2.3,7.77,39.64,1.9392,393.761],
    [16746,1537395296,53.3649,-110.7608,1114.4,498.7,270.8,4.6,-2.2,7.75,39.8,1.9391,393.6977],
    [16747,1537395297,53.3649,-110.7619,1114.3,499.3,270.5,4.6,-1.9,7.98,39.87,1.9397,392.2904],
    [16748,1537395298,53.3648,-110.763,1114.4,499.4,270.3,4.3,-1.6,8.04,40.16,1.9412,393.1237],
    [16749,1537395299,53.3648,-110.7641,1113.9,498.9,269.9,5.0,-1.3,7.96,39.76,1.9395,393.1567],
    [16750,1537395300,53.3648,-110.7653,1113.8,498.8,270.1,5.1,-1.6,7.86,39.87,1.9395,393.0086],
    [16751,1537395301,53.3648,-110.7664,1114.5,499.5,269.3,5.3,-0.5,7.38,39.53,1.9392,393.8982],
    [16752,1537395302,53.3648,-110.7675,1115.4,500.4,269.3,5.3,-0.6,8.06,39.49,1.9408,393.8982],
    [16753,1537395303,53.3648,-110.7686,1115.6,500.6,269.2,5.2,-0.3,7.9,40.14,1.9416,392.7058],
    [16754,1537395304,53.3648,-110.7697,1115.6,500.6,269.3,5.2,-0.5,8.32,39.42,1.9414,392.3751],
    [16755,1537395305,53.3648,-110.7708,1115.7,500.7,270.1,4.9,-1.3,8.11,39.69,1.9408,392.2061],
    [16756,1537395306,53.3647,-110.7719,1115.7,500.9,270.6,4.6,-1.4,8.13,39.85,1.9417,393.6105],
    [16757,1537395307,53.3647,-110.773,1115.7,502.7,270.3,4.6,-1.1,8.12,39.64,1.9412,393.5386],
    [16758,1537395308,53.3647,-110.7741,1115.9,505.9,270.7,4.3,-1.6,8.0,39.73,1.9412,392.2869],
    [16759,1537395309,53.3647,-110.7752,1116.0,511.3,270.3,4.1,-1.3,7.95,39.81,1.9432,393.0687],
    [16760,1537395310,53.3647,-110.7764,1115.7,515.7,269.5,4.3,-0.7,7.94,39.85,1.9408,393.3691],
    [16761,1537395311,53.3647,-110.7775,1115.7,520.8,269.0,4.1,-0.4,8.72,39.6,1.9439,392.4235],
    [16762,1537395312,53.3647,-110.7786,1116.1,525.8,269.4,4.8,-1.1,8.02,39.84,1.9414,393.1651],
    [16763,1537395313,53.3647,-110.7797,1115.3,529.3,270.1,5.3,-1.7,7.94,40.11,1.9404,392.4597],
    [16764,1537395314,53.3647,-110.7808,1114.6,533.0,269.9,5.3,-1.2,7.41,40.04,1.9395,392.5084],
    [16765,1537395315,53.3646,-110.782,1114.5,537.5,270.0,5.2,-1.1,8.08,40.12,1.943,392.5228],
    [16766,1537395316,53.3646,-110.7831,1114.7,539.8,269.9,5.3,-0.9,8.52,39.43,1.9421,393.0014],
    [16767,1537395317,53.3646,-110.7842,1114.8,540.8,270.0,5.4,-1.0,8.2,40.43,1.9407,393.1904],
    [16768,1537395318,53.3646,-110.7853,1114.8,540.8,269.7,5.2,-0.5,7.95,40.12,1.9404,393.4016],
    [16769,1537395319,53.3646,-110.7865,1114.9,539.8,269.5,5.2,-0.3,7.98,40.73,1.9415,392.9799],
    [16770,1537395320,53.3646,-110.7876,1115.0,538.3,269.4,5.3,-0.1,8.52,39.63,1.9436,393.2986],
    [16771,1537395321,53.3646,-110.7887,1115.1,538.1,269.5,5.0,-0.2,7.93,40.3,1.9411,393.6504],
    [16772,1537395322,53.3646,-110.7898,1115.0,538.3,269.9,5.2,-0.7,7.93,40.14,1.9394,394.0832],
    [16773,1537395323,53.3646,-110.791,1114.6,540.6,270.1,5.2,-0.7,8.57,39.83,1.9404,392.9351],
    [16774,1537395324,53.3646,-110.7921,1114.5,540.5,270.0,5.4,-0.7,8.48,39.77,1.9411,392.6466],
    [16775,1537395325,53.3646,-110.7932,1114.6,540.6,270.3,5.5,-1.2,7.97,39.81,1.9415,392.81],
    [16776,1537395326,53.3646,-110.7943,1115.0,541.0,270.3,5.7,-1.1,8.23,39.64,1.94,393.654],
    [16777,1537395327,53.3646,-110.7954,1115.3,542.3,269.9,5.9,-0.7,8.01,39.71,1.9405,392.4601],
    [16778,1537395328,53.3645,-110.7966,1115.2,542.2,270.5,5.3,-1.4,8.15,39.72,1.9422,393.7051],
    [16779,1537395329,53.3645,-110.7977,1115.0,542.0,269.8,4.5,-0.6,7.72,40.11,1.9433,393.1014],
    [16780,1537395330,53.3645,-110.7988,1115.2,542.2,269.8,4.3,-1.1,7.99,40.39,1.9419,393.6304],
    [16781,1537395331,53.3645,-110.7999,1115.8,541.8,270.1,4.2,-1.5,7.76,39.85,1.9431,393.1075],
    [16782,1537395332,53.3645,-110.8011,1116.2,542.9,269.5,4.2,-1.0,7.99,40.62,1.9424,393.1537],
    [16783,1537395333,53.3645,-110.8022,1115.8,542.8,270.2,3.9,-1.9,7.96,40.24,1.9413,393.6321],
    [16784,1537395334,53.3645,-110.8033,1114.7,540.7,270.1,4.7,-1.7,8.19,39.98,1.9408,393.374],
    [16785,1537395335,53.3645,-110.8044,1113.9,539.9,269.9,5.1,-1.5,8.37,39.99,1.9405,394.2509],
    [16786,1537395336,53.3644,-110.8056,1113.4,539.4,270.2,5.1,-1.8,7.93,40.28,1.94,393.6139],
    [16787,1537395337,53.3644,-110.8067,1113.3,539.3,269.6,5.3,-1.0,7.98,40.62,1.9408,393.6139],
    [16788,1537395338,53.3644,-110.8078,1113.5,539.5,269.5,4.9,-0.9,8.0,40.19,1.9402,392.8641],
    [16789,1537395339,53.3644,-110.8089,1113.9,539.9,269.7,4.4,-1.0,8.28,39.69,1.94,393.2308],
    [16790,1537395340,53.3644,-110.81,1114.1,540.1,269.6,4.1,-0.9,7.8,40.21,1.9395,393.8591],
    [16791,1537395341,53.3644,-110.8111,1114.1,540.1,269.8,4.3,-1.2,7.98,39.88,1.9412,393.6772],
    [16792,1537395342,53.3644,-110.8123,1114.6,540.6,269.7,4.7,-0.9,8.0,39.81,1.9414,395.5279],
    [16793,1537395343,53.3644,-110.8134,1114.1,540.1,269.1,5.1,0.0,8.14,39.91,1.941,392.7743],
    [16794,1537395344,53.3643,-110.8145,1113.8,539.8,268.9,5.0,0.1,7.57,40.26,1.9406,393.0773],
    [16795,1537395345,53.3643,-110.8156,1113.6,539.6,269.3,5.3,-0.5,8.1,40.33,1.9401,393.4527],
    [16796,1537395346,53.3643,-110.8167,1113.3,539.3,269.9,5.1,-1.2,7.49,40.33,1.9396,393.8894],
    [16797,1537395347,53.3643,-110.8178,1113.2,539.2,270.0,5.0,-1.2,8.04,40.53,1.94,393.0462],
    [16798,1537395348,53.3643,-110.8189,1113.4,539.4,270.4,4.7,-1.6,7.83,40.38,1.9396,394.5469],
    [16799,1537395349,53.3643,-110.82,1113.7,539.7,269.7,4.9,-0.4,8.78,40.0,1.9398,393.5512],
    [16800,1537395350,53.3643,-110.8211,1114.3,540.3,269.6,5.3,-0.5,7.75,40.59,1.9391,391.8745],
    [16801,1537395351,53.3643,-110.8222,1114.1,540.1,269.3,6.0,0.0,7.96,40.25,1.9394,392.9824],
    [16802,1537395352,53.3643,-110.8233,1113.8,539.8,269.2,6.5,0.1,8.25,39.98,1.9398,393.8756],
    [16803,1537395353,53.3642,-110.8244,1113.7,539.7,269.3,7.1,-0.2,7.85,40.82,1.9397,393.146],
    [16804,1537395354,53.3642,-110.8255,1113.9,539.9,269.5,7.2,-0.3,7.5,40.12,1.94,390.707],
    [16805,1537395355,53.3642,-110.8266,1114.5,540.5,269.7,7.1,-0.4,8.0,40.01,1.9406,392.6891],
    [16806,1537395356,53.3642,-110.8277,1114.8,540.8,269.5,6.9,-0.3,7.71,40.04,1.9404,394.2328],
    [16807,1537395357,53.3642,-110.8288,1114.3,539.2,269.4,5.9,-0.1,7.91,40.29,1.9407,394.1562],
    [16808,1537395358,53.3642,-110.8299,1113.8,537.4,269.6,5.7,-0.5,8.64,39.5,1.9415,393.5561],
    [16809,1537395359,53.3642,-110.831,1113.9,536.9,270.3,5.7,-1.0,8.31,40.54,1.9411,393.1396],
    [16810,1537395360,53.3642,-110.8321,1114.3,537.3,270.0,5.5,-0.4,8.63,39.9,1.9405,393.114],
    [16811,1537395361,53.3642,-110.8331,1114.3,537.3,268.9,5.3,1.0,7.94,40.45,1.9404,393.252],
    [16812,1537395362,53.3642,-110.8343,1114.0,538.0,269.0,5.5,0.9,7.55,40.34,1.94,393.6376],
    [16813,1537395363,53.3642,-110.8353,1113.5,538.2,268.7,5.3,1.1,8.59,40.17,1.9405,392.7097],
    [16814,1537395364,53.3642,-110.8364,1113.3,538.3,269.5,5.2,0.4,7.28,40.37,1.9395,393.4662],
    [16815,1537395365,53.3642,-110.8375,1113.3,538.3,269.1,5.4,1.0,7.96,41.06,1.9395,392.3089],
    [16816,1537395366,53.3642,-110.8386,1113.8,538.8,269.4,4.8,0.7,8.53,40.19,1.9406,390.2839],
    [16817,1537395367,53.3642,-110.8397,1114.5,539.5,269.7,4.5,0.2,7.74,40.44,1.94,392.0504],
    [16818,1537395368,53.3642,-110.8408,1114.7,539.7,269.5,4.5,0.9,7.54,40.43,1.9397,393.4364],
    [16819,1537395369,53.3642,-110.8419,1114.6,539.6,269.5,4.4,1.0,8.16,40.23,1.9392,393.925],
    [16820,1537395370,53.3642,-110.8429,1114.7,538.7,270.2,3.4,0.4,8.78,40.32,1.9404,391.1774],
    [16821,1537395371,53.3642,-110.844,1115.4,538.2,270.7,2.8,-0.2,7.55,41.06,1.9406,393.3223],
    [16822,1537395372,53.3642,-110.8451,1116.1,537.5,271.3,3.2,-0.8,7.87,40.83,1.9405,391.7268],
    [16823,1537395373,53.3642,-110.8462,1116.9,535.3,270.7,3.2,-0.1,7.87,41.52,1.9408,392.6292],
    [16824,1537395374,53.3642,-110.8473,1116.5,529.9,270.8,3.2,-0.3,7.85,41.61,1.9406,392.4291],
    [16825,1537395375,53.3642,-110.8483,1114.9,524.2,270.1,3.4,0.6,7.77,41.19,1.9393,392.8017],
    [16826,1537395376,53.3642,-110.8495,1112.7,515.5,270.9,4.0,-0.5,8.31,40.69,1.9407,393.1227],
    [16827,1537395377,53.3642,-110.8506,1111.3,508.6,271.0,4.4,-0.5,7.79,41.23,1.9405,393.1227],
    [16828,1537395378,53.3642,-110.8517,1110.7,504.1,271.3,4.2,-0.4,7.94,41.7,1.94,393.4667],
    [16829,1537395379,53.3643,-110.8529,1111.3,501.5,271.7,4.6,-0.4,8.65,40.9,1.9406,392.8318],
    [16830,1537395380,53.3643,-110.854,1111.7,501.6,273.4,6.0,-1.3,7.98,41.67,1.9407,393.3173],
    [16831,1537395381,53.3643,-110.8551,1112.0,503.1,274.5,6.5,-0.8,8.02,40.97,1.9398,393.9691],
    [16832,1537395382,53.3644,-110.8562,1112.7,501.6,277.4,5.7,-1.8,7.38,41.45,1.9398,394.0768],
    [16833,1537395383,53.3645,-110.8573,1114.0,500.0,279.4,5.4,-0.6,7.73,41.36,1.9405,392.6362],
    [16834,1537395384,53.3646,-110.8584,1114.6,498.6,282.8,4.9,-1.3,7.47,41.15,1.9405,392.1913],
    [16835,1537395385,53.3648,-110.8594,1114.2,497.5,287.1,3.7,-2.0,7.96,41.21,1.9391,392.7252],
    [16836,1537395386,53.365,-110.8605,1113.7,496.8,290.0,3.7,-1.4,7.66,41.19,1.9385,393.3344],
    [16837,1537395387,53.3652,-110.8615,1113.1,496.1,293.6,3.6,-1.4,8.11,40.81,1.9387,393.4312],
    [16838,1537395388,53.3655,-110.8625,1112.5,495.4,297.2,3.1,-1.3,7.54,41.36,1.9394,393.4663],
    [16839,1537395389,53.3658,-110.8635,1112.3,496.3,300.8,3.0,-1.5,8.09,40.8,1.9385,392.7864],
    [16840,1537395390,53.3662,-110.8644,1112.6,498.6,304.0,3.5,-1.5,8.09,41.12,1.9382,391.9149],
    [16841,1537395391,53.3666,-110.8653,1113.3,501.1,307.3,3.8,-1.6,7.78,41.11,1.9377,392.1218],
    [16842,1537395392,53.367,-110.8662,1114.3,504.3,310.3,4.1,-1.5,8.29,40.51,1.9373,392.149],
    [16843,1537395393,53.3675,-110.867,1115.1,506.7,312.8,4.3,-1.1,8.36,40.0,1.9377,393.6401],
    [16844,1537395394,53.368,-110.8678,1115.0,507.0,315.9,4.1,-1.4,7.64,40.21,1.9367,393.7788],
    [16845,1537395395,53.3685,-110.8685,1115.0,507.7,318.4,5.0,-0.8,8.01,40.7,1.9366,393.1225],
    [16846,1537395396,53.369,-110.8692,1115.3,508.8,321.7,4.5,-0.9,8.31,39.9,1.9364,393.289],
    [16847,1537395397,53.3695,-110.8698,1115.1,508.4,325.0,4.1,-0.9,7.81,40.17,1.9356,393.289],
    [16848,1537395398,53.3701,-110.8704,1114.5,508.5,327.7,4.8,-1.3,7.74,39.79,1.9375,392.6604],
    [16849,1537395399,53.3707,-110.8709,1114.1,509.0,331.9,3.8,-2.2,7.92,39.89,1.938,392.7461],
    [16850,1537395400,53.3713,-110.8714,1114.7,510.7,334.9,4.1,-1.2,8.21,39.68,1.9382,393.2696],
    [16851,1537395401,53.3719,-110.8718,1115.0,513.0,337.0,4.9,-0.9,7.38,39.64,1.939,391.1788],
    [16852,1537395402,53.3726,-110.8721,1114.7,511.7,340.0,5.2,-1.5,7.76,39.98,1.9403,393.1188],
    [16853,1537395403,53.3732,-110.8724,1114.6,509.2,343.8,4.5,-2.0,7.7,40.11,1.9394,393.071],
    [16854,1537395404,53.3739,-110.8727,1115.4,505.8,347.5,4.0,-1.5,8.11,39.66,1.9396,391.8738],
    [16855,1537395405,53.3746,-110.8728,1117.1,504.1,350.0,4.3,-1.1,7.96,40.85,1.9401,393.1894],
    [16856,1537395406,53.3752,-110.8729,1118.5,501.9,352.1,4.5,-0.3,7.84,40.26,1.9399,393.0504],
    [16857,1537395407,53.3759,-110.873,1119.5,499.8,353.9,4.6,-0.5,7.87,40.22,1.9402,393.161],
    [16858,1537395408,53.3766,-110.873,1119.4,499.4,354.9,5.4,-0.7,7.98,41.08,1.9397,393.0041],
    [16859,1537395409,53.3773,-110.873,1119.2,497.9,357.1,4.3,-0.9,7.77,40.56,1.9407,394.646],
    [16860,1537395410,53.378,-110.873,1118.6,496.6,359.1,4.2,-0.3,8.0,40.78,1.9393,392.9114],
    [16861,1537395411,53.3787,-110.873,1118.1,497.1,359.4,5.1,-0.8,8.18,40.26,1.9409,393.5294],
    [16862,1537395412,53.3794,-110.8729,1116.2,497.8,361.2,3.8,-1.2,7.64,40.65,1.9386,392.8312],
    [16863,1537395413,53.3801,-110.8728,1113.9,499.6,361.7,3.7,-0.6,8.04,40.24,1.9385,392.9973],
    [16864,1537395414,53.3808,-110.8727,1113.0,500.0,362.2,3.1,0.1,8.44,40.19,1.9367,392.9753],
    [16865,1537395415,53.3815,-110.8726,1112.2,498.1,361.8,3.0,-0.2,7.96,40.77,1.9355,392.3165],
    [16866,1537395416,53.3822,-110.8725,1111.5,496.5,361.0,2.3,-0.6,8.56,39.77,1.9366,392.4746],
    [16867,1537395417,53.3829,-110.8725,1111.4,496.5,359.3,2.6,-0.3,7.49,40.12,1.9364,392.5677],
    [16868,1537395418,53.3836,-110.8725,1111.9,496.8,357.2,3.3,-0.3,7.25,40.01,1.9367,393.1116],
    [16869,1537395419,53.3843,-110.8725,1112.2,497.2,356.3,3.1,-0.3,8.1,39.72,1.9367,393.7386],
    [16870,1537395420,53.385,-110.8726,1112.1,497.2,355.4,3.3,-0.2,7.92,39.9,1.9368,393.6485],
    [16871,1537395421,53.3857,-110.8726,1111.9,495.9,354.9,3.4,-0.3,7.96,39.89,1.9362,393.1805],
    [16872,1537395422,53.3864,-110.8727,1112.2,495.5,354.3,4.0,-0.6,8.59,39.53,1.9378,393.241],
    [16873,1537395423,53.387,-110.8727,1112.5,496.6,354.0,4.4,-1.1,8.01,39.79,1.9382,393.1613],
    [16874,1537395424,53.3877,-110.8728,1112.9,496.9,355.0,3.4,-1.3,7.74,39.69,1.9387,393.0136],
    [16875,1537395425,53.3884,-110.8728,1113.7,497.7,355.1,3.5,-1.3,7.32,39.53,1.9391,393.2189],
    [16876,1537395426,53.3891,-110.8729,1114.4,498.4,355.4,3.3,-1.4,7.73,40.18,1.9388,393.1071],
    [16877,1537395427,53.3898,-110.8729,1114.7,498.7,355.4,3.6,-1.2,8.74,39.6,1.9385,393.2053],
    [16878,1537395428,53.3905,-110.8729,1114.9,498.9,355.3,3.8,-1.0,8.07,40.22,1.9386,393.3959],
    [16879,1537395429,53.3912,-110.873,1114.7,498.7,355.9,3.4,-0.8,7.75,39.89,1.9398,392.4008],
    [16880,1537395430,53.3918,-110.873,1114.7,498.7,355.5,4.1,-0.9,7.74,40.68,1.9396,392.5881],
    [16881,1537395431,53.3925,-110.873,1114.8,497.8,355.9,3.8,-0.7,7.71,40.32,1.9397,392.3555],
    [16882,1537395432,53.3932,-110.8731,1114.5,497.5,356.2,3.4,-0.4,7.78,40.1,1.9383,393.603],
    [16883,1537395433,53.3939,-110.8731,1114.3,496.3,355.8,3.7,-0.1,8.13,40.2,1.9389,392.5654],
    [16884,1537395434,53.3946,-110.8731,1114.2,496.2,355.4,3.8,-0.7,8.06,40.57,1.9417,391.5236],
    [16885,1537395435,53.3953,-110.8732,1114.2,496.2,355.8,3.0,-0.5,8.61,40.22,1.9385,392.7605],
    [16886,1537395436,53.396,-110.8732,1113.8,494.8,355.4,3.3,-0.8,8.3,39.81,1.9424,392.7605],
    [16887,1537395437,53.3966,-110.8732,1113.7,494.1,355.3,3.4,-1.6,7.85,40.36,1.9409,391.7529],
    [16888,1537395438,53.3973,-110.8733,1114.0,494.0,354.3,4.3,-1.8,7.99,40.27,1.9387,393.3366],
    [16889,1537395439,53.398,-110.8733,1114.3,493.3,353.9,4.4,-1.7,8.33,40.01,1.9377,393.1223],
    [16890,1537395440,53.3987,-110.8734,1114.3,492.6,353.7,4.4,-1.6,8.03,40.26,1.939,393.6455],
    [16891,1537395441,53.3994,-110.8735,1114.2,492.2,353.6,4.5,-1.4,8.0,40.05,1.939,393.2843],
    [16892,1537395442,53.4001,-110.8735,1114.4,492.4,353.3,4.8,-1.4,7.41,40.0,1.9417,392.7119],
    [16893,1537395443,53.4007,-110.8736,1114.9,493.4,353.3,4.5,-1.1,7.77,40.14,1.9415,392.8025],
    [16894,1537395444,53.4014,-110.8737,1114.7,496.1,353.5,4.1,-1.4,7.24,39.63,1.943,393.3519],
    [16895,1537395445,53.4021,-110.8737,1113.8,497.8,352.9,4.7,-1.5,7.82,39.87,1.9509,392.9324],
    [16896,1537395446,53.4028,-110.8738,1113.3,501.3,352.2,5.2,-1.2,7.77,39.75,1.96,392.7597],
    [16897,1537395447,53.4035,-110.8739,1113.2,503.0,352.3,4.9,-0.8,8.0,40.03,1.9423,392.0995],
    [16898,1537395448,53.4042,-110.874,1112.5,502.5,352.6,4.5,-1.0,8.7,39.38,1.9383,393.4708],
    [16899,1537395449,53.4048,-110.8741,1111.7,501.7,352.6,4.4,-0.7,8.09,39.56,1.9371,393.5985],
    [16900,1537395450,53.4055,-110.8741,1111.6,501.6,352.1,4.8,-0.3,7.96,40.13,1.9422,393.8197],
    [16901,1537395451,53.4062,-110.8742,1111.4,501.4,352.0,4.7,-0.5,7.76,39.73,1.9493,392.9482],
    [16902,1537395452,53.4069,-110.8743,1111.4,500.4,352.1,4.5,-1.0,7.73,39.93,1.9416,392.9482],
    [16903,1537395453,53.4075,-110.8744,1112.0,500.0,352.6,3.5,-1.0,7.52,39.68,1.939,391.7539],
    [16904,1537395454,53.4082,-110.8745,1112.6,499.5,353.2,3.0,-0.7,8.01,39.67,1.9361,390.7212],
    [16905,1537395455,53.4089,-110.8746,1113.4,499.4,352.4,3.8,-0.5,8.36,39.2,1.9373,392.2255],
    [16906,1537395456,53.4095,-110.8747,1114.2,499.2,351.8,4.4,-0.7,7.96,39.74,1.9368,393.5273],
    [16907,1537395457,53.4102,-110.8748,1114.1,498.2,350.9,5.4,-0.9,7.78,39.81,1.9378,392.9774],
    [16908,1537395458,53.4109,-110.8749,1113.7,496.0,351.2,5.0,-1.2,8.06,39.87,1.9379,392.9774],
    [16909,1537395459,53.4115,-110.875,1113.3,494.2,350.8,5.8,-0.7,8.03,39.36,1.9371,392.7335],
    [16910,1537395460,53.4122,-110.8751,1112.8,492.8,350.8,5.9,-0.8,7.99,39.22,1.9351,392.5346],
    [16911,1537395461,53.4129,-110.8752,1112.3,490.3,352.1,5.1,-0.7,7.96,38.89,1.9345,392.6816],
    [16912,1537395462,53.4135,-110.8752,1112.2,489.2,351.6,5.9,-0.2,7.96,39.22,1.9357,393.1435],
    [16913,1537395463,53.4142,-110.8753,1112.3,488.3,352.6,5.3,0.0,8.04,39.15,1.9359,392.92],
    [16914,1537395464,53.4149,-110.8754,1112.3,488.3,353.4,5.1,-0.6,8.43,38.95,1.9381,392.92],
    [16915,1537395465,53.4156,-110.8754,1113.0,488.0,354.6,4.6,-1.1,7.63,38.99,1.9351,394.1618],
    [16916,1537395466,53.4162,-110.8755,1114.3,488.3,355.3,4.4,-0.9,8.09,38.82,1.937,394.2893],
    [16917,1537395467,53.4169,-110.8755,1115.2,487.3,355.7,4.1,-0.4,7.8,38.88,1.9361,393.8798],
    [16918,1537395468,53.4176,-110.8755,1115.5,483.8,355.2,4.7,-0.6,7.85,39.04,1.9349,393.9629],
    [16919,1537395469,53.4182,-110.8755,1115.3,483.0,354.6,5.2,-0.4,7.83,38.74,1.9351,394.5291],
    [16920,1537395470,53.4189,-110.8756,1114.7,481.5,354.8,4.6,-0.7,7.83,39.37,1.935,394.0372],
    [16921,1537395471,53.4196,-110.8756,1113.6,478.6,355.0,4.1,-0.6,7.86,39.49,1.9367,394.0372],
    [16922,1537395472,53.4201,-110.8756,1113.6,477.7,354.1,5.0,-0.6,7.34,38.84,1.9365,391.8144],
    [16923,1537395473,53.4209,-110.8757,1114.1,476.1,354.0,4.9,-0.5,8.18,38.76,1.9357,389.5181],
    [16924,1537395474,53.4216,-110.8757,1114.0,476.3,353.7,4.9,-0.5,7.98,39.59,1.9368,391.865],
    [16925,1537395475,53.4223,-110.8758,1114.0,476.9,353.9,4.7,-0.5,8.23,38.39,1.9352,390.9713],
    [16926,1537395476,53.4229,-110.8758,1114.1,477.2,353.0,5.6,-0.6,7.92,38.96,1.9361,393.197],
    [16927,1537395477,53.4236,-110.8759,1114.6,475.6,353.6,4.7,-1.1,7.98,39.41,1.9358,392.0991],
    [16928,1537395478,53.4243,-110.8759,1115.1,473.3,354.1,4.1,-1.0,7.66,39.09,1.935,393.6422],
    [16929,1537395479,53.425,-110.876,1115.7,472.1,353.8,4.4,-0.2,7.92,39.08,1.9367,393.4724],
    [16930,1537395480,53.4256,-110.8761,1116.2,471.0,353.6,4.3,0.1,7.91,38.97,1.9369,393.5259],
    [16931,1537395481,53.4263,-110.8761,1116.3,472.3,354.5,2.9,0.3,8.47,38.16,1.9353,392.5997],
    [16932,1537395482,53.427,-110.8762,1115.8,473.8,354.1,3.3,0.1,7.65,38.73,1.9358,393.2397],
    [16933,1537395483,53.4277,-110.8763,1115.6,473.6,353.2,3.8,-0.4,7.79,38.78,1.9409,393.2397],
    [16934,1537395484,53.4284,-110.8764,1115.5,473.5,354.9,1.4,-1.0,8.05,38.64,1.9439,394.0575],
    [16935,1537395485,53.4291,-110.8764,1115.1,474.4,354.4,2.0,-0.7,7.66,38.76,1.9583,391.4334],
    [16936,1537395486,53.4298,-110.8765,1115.1,478.4,354.7,0.9,-1.5,7.99,39.5,1.9576,393.4526],
    [16937,1537395487,53.4305,-110.8766,1115.4,480.3,355.1,0.8,-2.3,7.99,38.8,1.9538,393.1361],
    [16938,1537395488,53.4312,-110.8767,1115.6,483.7,352.6,3.7,-2.8,7.71,39.13,1.9477,393.3832],
    [16939,1537395489,53.4319,-110.8768,1115.6,486.4,353.0,3.1,-3.2,8.26,38.75,1.9463,393.727],
    [16940,1537395490,53.4326,-110.8769,1114.9,487.5,353.1,2.7,-3.0,7.74,39.46,1.9463,393.6134],
    [16941,1537395491,53.4333,-110.877,1114.1,487.1,353.2,2.4,-2.5,7.85,40.18,1.9458,393.6385],
    [16942,1537395492,53.4339,-110.8771,1113.6,486.6,353.0,2.7,-2.6,7.98,39.31,1.9506,394.3086],
    [16943,1537395493,53.4347,-110.8772,1113.5,487.6,352.9,2.7,-3.0,7.33,39.44,1.9538,393.4244],
    [16944,1537395494,53.4354,-110.8774,1113.7,488.6,354.3,1.2,-3.2,7.59,39.76,1.9532,394.7127],
    [16945,1537395495,53.436,-110.8775,1114.7,491.5,354.3,1.3,-3.4,7.93,39.53,1.9546,394.388],
    [16946,1537395496,53.4367,-110.8776,1115.5,493.5,353.8,2.1,-2.8,8.28,39.06,1.9593,393.1167],
    [16947,1537395497,53.4374,-110.8777,1115.5,493.5,352.8,3.0,-2.5,8.3,39.34,1.9451,392.3189],
    [16948,1537395498,53.4381,-110.8778,1115.4,493.4,353.1,2.6,-2.4,7.95,39.65,1.9509,393.7914],
    [16949,1537395499,53.4388,-110.8779,1115.4,493.4,353.4,2.3,-2.5,7.63,39.66,1.9448,394.3102],
    [16950,1537395500,53.4395,-110.878,1114.9,492.9,354.0,1.8,-2.9,8.54,39.06,1.9429,393.0598],
    [16951,1537395501,53.4402,-110.8781,1114.3,492.3,354.3,1.6,-2.8,8.28,39.24,1.9408,393.8285],
    [16952,1537395502,53.4409,-110.8782,1113.2,491.2,354.2,1.9,-2.8,8.07,40.1,1.9397,392.9393],
    [16953,1537395503,53.4416,-110.8783,1112.4,489.3,354.2,1.8,-2.8,7.85,39.62,1.9398,392.3538],
    [16954,1537395504,53.4423,-110.8784,1112.0,488.0,354.0,2.0,-2.1,7.95,40.1,1.9398,393.0468],
    [16955,1537395505,53.443,-110.8784,1111.6,487.7,353.7,2.3,-1.6,7.91,39.35,1.9416,392.5434],
    [16956,1537395506,53.4437,-110.8785,1111.2,485.2,353.7,2.5,-1.7,8.15,39.13,1.9396,393.0214],
    [16957,1537395507,53.4444,-110.8786,1111.0,484.0,353.9,2.5,-1.7,8.38,38.77,1.938,392.2622],
    [16958,1537395508,53.4451,-110.8787,1110.9,482.9,354.4,2.3,-1.5,8.06,39.26,1.9402,393.0814],
    [16959,1537395509,53.4458,-110.8788,1111.3,483.6,353.9,3.3,-1.4,8.27,39.2,1.9379,393.0814],
    [16960,1537395510,53.4465,-110.8789,1112.1,485.1,354.5,2.7,-1.5,7.56,39.46,1.9376,394.0673],
    [16961,1537395511,53.4472,-110.8789,1113.3,485.2,355.3,2.1,-1.4,7.57,39.3,1.9378,392.4077],
    [16962,1537395512,53.4479,-110.879,1113.8,484.8,355.0,2.6,-1.3,8.46,39.2,1.9376,393.6388],
    [16963,1537395513,53.4486,-110.8791,1113.9,483.3,355.2,2.4,-2.1,7.94,39.3,1.9387,393.5102],
    [16964,1537395514,53.4492,-110.8791,1114.2,481.4,355.2,2.5,-2.0,8.23,39.12,1.9384,393.5102],
    [16965,1537395515,53.4499,-110.8792,1114.6,480.4,355.3,2.5,-1.9,7.54,39.31,1.9408,393.649],
    [16966,1537395516,53.4506,-110.8793,1115.3,478.8,354.9,3.2,-2.4,7.82,39.78,1.9429,393.5681],
    [16967,1537395517,53.4513,-110.8793,1116.1,478.0,354.8,3.2,-3.0,7.92,39.47,1.9399,392.9294],
    [16968,1537395518,53.452,-110.8794,1116.0,475.9,355.5,2.5,-3.1,7.92,40.0,1.9399,393.0532],
    [16969,1537395519,53.4527,-110.8794,1115.6,476.7,355.4,2.8,-2.8,8.32,39.56,1.9385,393.0532],
    [16970,1537395520,53.4534,-110.8795,1115.3,478.0,355.2,3.1,-2.3,7.42,39.3,1.9401,393.1253],
    [16971,1537395521,53.4541,-110.8795,1115.2,479.3,354.8,3.5,-2.6,8.02,39.55,1.9393,392.9738],
    [16972,1537395522,53.4548,-110.8796,1114.9,481.3,355.3,2.9,-2.5,7.91,39.21,1.9385,392.0823],
    [16973,1537395523,53.4555,-110.8797,1114.6,483.6,355.1,3.3,-2.0,7.72,39.34,1.9377,390.4998],
    [16974,1537395524,53.4562,-110.8797,1114.2,485.2,355.0,3.3,-1.9,8.56,38.65,1.9477,393.4837],
    [16975,1537395525,53.4569,-110.8798,1113.7,485.7,355.5,2.5,-1.7,8.11,38.78,1.9571,393.4837],
    [16976,1537395526,53.4575,-110.8798,1113.3,484.3,355.3,2.8,-1.3,7.83,39.15,1.9472,392.0822],
    [16977,1537395527,53.4582,-110.8799,1112.8,482.3,354.4,3.7,-1.2,7.91,39.37,1.9385,392.5487],
    [16978,1537395528,53.4589,-110.8799,1112.5,478.1,354.6,3.4,-1.0,7.91,39.21,1.9361,392.5239],
    [16979,1537395529,53.4596,-110.88,1112.2,476.1,354.4,3.7,-1.0,7.86,39.16,1.9373,392.5239],
    [16980,1537395530,53.4603,-110.8801,1112.0,475.0,354.7,3.6,-1.3,8.15,39.75,1.9398,393.9755],
    [16981,1537395531,53.461,-110.8801,1112.3,475.3,354.5,4.0,-1.1,7.43,39.25,1.9387,393.169],
    [16982,1537395532,53.4617,-110.8802,1113.1,476.5,354.9,3.5,-1.1,7.96,39.53,1.9384,392.302],
    [16983,1537395533,53.4624,-110.8802,1113.6,478.9,355.1,3.5,-1.2,7.78,39.09,1.9381,393.6535],
    [16984,1537395534,53.4631,-110.8803,1113.4,482.8,355.0,3.7,-1.1,7.48,39.05,1.9419,393.4761],
    [16985,1537395535,53.4638,-110.8803,1113.1,486.1,355.2,3.5,-0.9,7.93,38.65,1.9394,393.6794],
    [16986,1537395536,53.4645,-110.8803,1112.8,488.8,355.2,3.7,-0.9,8.09,38.46,1.9382,394.265],
    [16987,1537395537,53.4652,-110.8804,1112.6,489.6,355.2,3.7,-1.0,7.36,39.21,1.9391,393.6097],
    [16988,1537395538,53.4659,-110.8804,1112.8,488.9,355.2,3.7,-1.0,7.9,39.6,1.94,393.4387],
    [16989,1537395539,53.4665,-110.8805,1113.2,486.8,355.3,3.6,-1.0,7.46,38.94,1.9399,393.9036],
    [16990,1537395540,53.4672,-110.8805,1113.3,484.3,355.2,3.8,-1.2,7.51,38.93,1.9453,393.7807],
    [16991,1537395541,53.4679,-110.8806,1113.3,481.6,355.1,3.8,-1.5,8.0,39.7,1.9391,393.3538],
    [16992,1537395542,53.4686,-110.8806,1113.4,481.4,355.2,3.8,-1.7,7.59,38.96,1.9408,393.5061],
    [16993,1537395543,53.4693,-110.8806,1113.7,480.8,355.2,3.8,-2.0,7.94,39.58,1.9403,392.5503],
    [16994,1537395544,53.47,-110.8807,1113.9,479.4,355.2,3.9,-1.8,7.85,38.65,1.9395,392.5503],
    [16995,1537395545,53.4707,-110.8807,1114.1,474.8,355.0,4.1,-1.5,7.96,38.72,1.9568,391.3125],
    [16996,1537395546,53.4713,-110.8808,1114.2,472.2,355.2,3.9,-1.5,8.48,38.12,1.9626,393.2039],
    [16997,1537395547,53.472,-110.8808,1114.0,467.9,355.4,3.9,-2.0,7.79,38.51,1.9625,392.8386],
    [16998,1537395548,53.4727,-110.8808,1114.1,467.1,355.7,3.6,-2.3,7.9,38.86,1.9631,393.0828],
    [16999,1537395549,53.4734,-110.8809,1115.2,467.1,355.7,3.6,-2.1,7.3,38.53,1.9679,391.8729],
    [17000,1537395550,53.4741,-110.8809,1115.8,468.8,355.1,4.1,-2.0,7.63,38.68,1.9693,393.4791],
    [17001,1537395551,53.4747,-110.8809,1115.5,469.8,354.7,4.4,-1.5,7.91,38.86,1.9673,394.5923],
    [17002,1537395552,53.4754,-110.881,1115.2,470.5,354.2,4.8,-1.3,8.62,37.97,1.9666,393.821],
    [17003,1537395553,53.4761,-110.881,1115.9,472.0,354.5,4.4,-1.1,7.18,38.57,1.963,392.6557],
    [17004,1537395554,53.4768,-110.8811,1116.6,474.6,355.3,3.6,-0.8,7.88,38.74,1.9498,392.6557],
    [17005,1537395555,53.4775,-110.8811,1116.6,475.7,354.4,5.0,-0.9,8.44,38.47,1.9439,392.4998],
    [17006,1537395556,53.4782,-110.8812,1116.1,475.1,354.8,4.5,-0.8,7.69,38.6,1.9395,392.5996],
    [17007,1537395557,53.4789,-110.8812,1115.2,474.2,354.7,5.0,-1.2,7.16,38.64,1.9418,394.3716],
    [17008,1537395558,53.4795,-110.8812,1113.9,471.9,354.4,5.4,-1.6,7.79,38.46,1.9379,392.0507],
    [17009,1537395559,53.4802,-110.8813,1113.2,471.2,355.3,4.4,-1.6,7.83,38.67,1.9355,394.3553],
    [17010,1537395560,53.4809,-110.8813,1113.2,470.2,355.3,4.7,-1.8,7.8,38.86,1.9344,394.1962],
    [17011,1537395561,53.4816,-110.8813,1113.3,471.4,355.2,4.8,-2.0,8.58,37.93,1.9347,393.0721],
    [17012,1537395562,53.4823,-110.8813,1113.4,472.5,355.2,4.9,-2.0,8.36,37.95,1.936,393.5889],
    [17013,1537395563,53.483,-110.8814,1113.5,473.5,355.0,5.1,-1.8,7.71,38.52,1.9363,392.9627],
    [17014,1537395564,53.4837,-110.8814,1113.2,473.5,354.8,5.4,-1.9,7.69,38.23,1.9362,393.6959],
    [17015,1537395565,53.4844,-110.8814,1113.0,473.0,354.9,5.3,-1.9,7.74,38.03,1.938,392.6774],
    [17016,1537395566,53.4851,-110.8815,1112.9,472.9,355.3,4.9,-1.9,7.59,38.21,1.9357,393.431],
    [17017,1537395567,53.4858,-110.8815,1113.2,474.4,355.6,4.6,-2.0,7.7,38.35,1.9369,393.4183],
    [17018,1537395568,53.4864,-110.8815,1113.5,477.0,355.5,4.9,-2.1,7.99,38.05,1.9364,393.2994],
    [17019,1537395569,53.4871,-110.8815,1113.7,479.8,355.5,4.8,-2.1,8.19,38.14,1.9366,394.2477],
    [17020,1537395570,53.4878,-110.8815,1113.8,483.8,355.9,4.2,-2.1,8.38,38.1,1.9365,394.1307],
    [17021,1537395571,53.4885,-110.8816,1113.9,486.5,355.8,4.3,-2.0,7.56,38.41,1.9364,393.9857],
    [17022,1537395572,53.4892,-110.8816,1113.8,489.1,355.9,4.0,-1.8,7.94,38.75,1.9357,392.2902],
    [17023,1537395573,53.4899,-110.8816,1113.6,491.7,355.8,4.1,-1.7,7.86,38.06,1.9359,389.7862],
    [17024,1537395574,53.4905,-110.8816,1113.4,490.4,355.5,4.2,-2.0,8.12,38.76,1.9349,391.01],
    [17025,1537395575,53.4912,-110.8817,1113.4,489.4,355.3,4.4,-2.0,7.62,38.11,1.9365,394.1299],
    [17026,1537395576,53.4919,-110.8817,1113.4,489.4,355.0,4.7,-1.6,7.86,38.12,1.9378,394.0117],
    [17027,1537395577,53.4926,-110.8817,1113.1,489.1,354.8,4.9,-1.2,8.48,37.81,1.9351,393.5988],
    [17028,1537395578,53.4933,-110.8818,1112.8,488.5,355.3,4.3,-1.1,7.4,38.15,1.9363,393.549],
    [17029,1537395579,53.494,-110.8818,1112.6,486.6,355.5,4.2,-1.4,7.72,38.24,1.9357,393.2475],
    [17030,1537395580,53.4946,-110.8818,1112.4,486.6,355.3,4.3,-1.7,7.74,38.22,1.9357,392.4382],
    [17031,1537395581,53.4953,-110.8818,1112.2,487.3,355.6,3.9,-1.9,8.01,38.78,1.9365,393.2397],
    [17032,1537395582,53.496,-110.8819,1112.2,488.2,355.7,3.6,-2.0,7.74,38.26,1.9365,393.7376],
    [17033,1537395583,53.4967,-110.8819,1112.3,488.0,355.8,3.3,-1.8,8.14,37.8,1.9363,393.7376],
    [17034,1537395584,53.4974,-110.8819,1112.3,487.9,355.6,3.5,-1.8,8.06,38.11,1.9379,393.7267],
    [17035,1537395585,53.498,-110.882,1112.6,487.5,355.3,3.7,-1.7,7.75,38.49,1.9385,393.8864],
    [17036,1537395586,53.4987,-110.882,1112.9,487.2,355.4,3.5,-1.5,8.53,38.31,1.9387,393.5622],
    [17037,1537395587,53.4994,-110.8821,1113.0,486.4,355.4,3.5,-1.5,7.55,39.08,1.9363,393.5622],
    [17038,1537395588,53.5001,-110.8821,1112.9,486.6,355.1,3.8,-1.9,7.87,39.61,1.937,392.8144],
    [17039,1537395589,53.5007,-110.8822,1113.0,486.6,355.1,3.5,-2.0,7.53,39.22,1.9372,394.3367],
    [17040,1537395590,53.5014,-110.8822,1113.1,487.6,354.9,3.3,-1.9,8.56,38.4,1.9379,393.4466],
    [17041,1537395591,53.5021,-110.8823,1113.1,487.1,355.0,3.0,-1.8,7.56,38.95,1.938,392.9284],
    [17042,1537395592,53.5028,-110.8823,1113.2,486.4,354.6,3.3,-1.9,7.22,39.15,1.9387,393.503],
    [17043,1537395593,53.5034,-110.8824,1113.6,483.9,354.3,3.5,-1.8,7.69,39.87,1.9411,392.7772],
    [17044,1537395594,53.5041,-110.8824,1113.9,481.8,353.2,4.8,-2.1,8.06,38.75,1.9411,394.0661],
    [17045,1537395595,53.5048,-110.8825,1113.9,478.0,353.1,4.9,-2.1,7.72,39.13,1.941,392.6046],
    [17046,1537395596,53.5055,-110.8826,1113.8,477.2,353.2,4.9,-2.0,7.87,39.95,1.9406,392.8531],
    [17047,1537395597,53.5061,-110.8826,1113.8,476.9,353.5,4.5,-1.8,7.66,39.64,1.9414,393.1114],
    [17048,1537395598,53.5068,-110.8827,1113.7,478.5,353.9,4.4,-1.7,7.4,39.43,1.9406,393.1114],
    [17049,1537395599,53.5075,-110.8828,1113.7,479.7,353.6,4.9,-1.3,7.86,39.84,1.9412,394.1837],
    [17050,1537395600,53.5081,-110.8828,1113.8,481.8,354.1,4.3,-1.3,7.82,39.19,1.9405,392.5691],
    [17051,1537395601,53.5088,-110.8829,1113.5,482.5,354.4,4.1,-1.3,8.51,38.99,1.9399,392.5691],
    [17052,1537395602,53.5095,-110.8829,1112.9,481.9,354.3,4.3,-1.7,7.23,39.44,1.9392,391.5543],
    [17053,1537395603,53.5102,-110.883,1112.2,481.3,354.9,3.8,-2.2,8.58,39.06,1.9384,391.6971],
    [17054,1537395604,53.5109,-110.883,1112.4,479.7,354.9,3.7,-1.7,8.24,39.31,1.9384,393.6659],
    [17055,1537395605,53.5115,-110.8831,1112.9,480.2,354.6,3.8,-1.9,7.4,39.61,1.9377,391.8991],
    [17056,1537395606,53.5122,-110.8831,1113.0,480.4,354.6,3.9,-1.8,7.57,39.41,1.9376,392.6944],
    [17057,1537395607,53.5128,-110.8832,1113.0,480.3,354.1,4.4,-1.6,7.38,39.63,1.9399,391.9606],
    [17058,1537395608,53.5136,-110.8832,1112.9,481.2,354.8,3.4,-1.6,7.29,39.64,1.9393,392.6077],
    [17059,1537395609,53.5142,-110.8833,1112.8,481.2,354.3,4.2,-1.3,8.11,39.56,1.9392,392.8305],
    [17060,1537395610,53.5149,-110.8833,1112.7,480.7,354.0,4.2,-0.9,7.62,39.82,1.9399,392.8305],
    [17061,1537395611,53.5156,-110.8834,1112.7,481.6,354.2,4.0,-0.7,7.63,39.84,1.9388,393.8759],
    [17062,1537395612,53.5163,-110.8834,1112.9,480.9,353.6,4.5,-1.2,7.93,39.79,1.9395,392.4183],
    [17063,1537395613,53.5169,-110.8835,1113.2,480.3,354.6,3.3,-1.9,7.96,39.52,1.9413,391.6856],
    [17064,1537395614,53.5176,-110.8836,1113.4,480.4,355.3,2.6,-2.4,7.37,39.86,1.9415,392.1524],
    [17065,1537395615,53.5183,-110.8836,1112.9,480.1,356.2,1.2,-2.3,7.68,39.6,1.9402,392.1524],
    [17066,1537395616,53.519,-110.8837,1112.9,483.0,356.9,0.4,-1.6,7.71,39.81,1.9396,393.0687],
    [17067,1537395617,53.5196,-110.8837,1114.6,485.6,355.6,1.9,-1.3,8.0,39.48,1.9379,393.4606],
    [17068,1537395618,53.5203,-110.8838,1116.1,488.1,354.4,3.0,-1.1,7.65,39.79,1.9369,392.6169],
    [17069,1537395619,53.521,-110.8839,1116.6,489.5,354.1,3.1,-0.5,7.96,40.44,1.9388,393.7053],
    [17070,1537395620,53.5217,-110.8839,1115.6,488.6,355.0,1.9,-0.2,7.81,40.41,1.9393,392.9861],
    [17071,1537395621,53.5223,-110.884,1114.7,487.7,354.9,2.4,-0.5,8.0,39.58,1.9388,392.2689],
    [17072,1537395622,53.523,-110.8841,1115.0,489.0,353.2,4.4,-0.4,7.49,40.05,1.9383,392.5481],
    [17073,1537395623,53.5237,-110.8842,1113.9,489.9,353.8,3.4,-0.7,7.64,40.06,1.9388,392.5481],
    [17074,1537395624,53.5244,-110.8842,1111.0,488.7,355.3,1.8,-1.0,8.32,39.47,1.9383,392.83],
    [17075,1537395625,53.5251,-110.8843,1108.8,486.8,354.5,2.5,-0.5,7.35,40.0,1.9402,391.5161],
    [17076,1537395626,53.5258,-110.8844,1107.2,484.1,353.8,3.2,-0.3,7.52,40.26,1.9414,391.4707],
    [17077,1537395627,53.5265,-110.8844,1106.4,481.4,353.8,2.9,-1.0,7.76,40.01,1.9399,392.8495],
    [17078,1537395628,53.5271,-110.8845,1106.6,480.6,353.2,3.8,-1.1,7.68,40.26,1.9382,392.1652],
    [17079,1537395629,53.5278,-110.8846,1107.2,479.2,352.5,4.3,-0.6,7.5,40.52,1.9384,392.3436],
    [17080,1537395630,53.5285,-110.8847,1108.1,479.0,353.2,3.5,-0.1,7.79,39.83,1.9387,393.0841],
    [17081,1537395631,53.5292,-110.8848,1108.8,478.8,353.1,3.9,-0.3,7.52,40.34,1.9383,393.8818],
    [17082,1537395632,53.5298,-110.8849,1109.9,479.9,353.1,3.9,-0.5,7.63,39.73,1.939,392.68],
    [17083,1537395633,53.5305,-110.8849,1111.1,481.1,353.0,4.3,-0.3,7.71,39.67,1.9379,392.4753],
    [17084,1537395634,53.5312,-110.885,1111.7,482.0,352.6,4.8,-0.7,7.29,39.66,1.9376,393.5827],
    [17085,1537395635,53.5319,-110.8851,1112.0,482.9,353.4,4.1,-1.3,8.04,39.47,1.9381,393.811],
    [17086,1537395636,53.5325,-110.8852,1112.9,484.9,353.0,5.0,-0.7,7.8,39.8,1.9368,390.3992],
    [17087,1537395637,53.5332,-110.8852,1114.5,486.8,353.1,4.8,-0.2,7.96,39.14,1.9388,391.9102],
    [17088,1537395638,53.5339,-110.8853,1114.3,487.3,353.6,4.6,-0.1,7.95,39.57,1.9418,391.9102],
    [17089,1537395639,53.5346,-110.8853,1113.6,487.6,353.6,4.7,-0.1,8.53,39.35,1.9402,393.3653],
    [17090,1537395640,53.5352,-110.8854,1114.2,489.2,354.0,4.3,-0.3,7.79,39.48,1.9384,393.3653],
    [17091,1537395641,53.5359,-110.8854,1115.7,489.6,355.2,3.0,-0.1,8.13,38.86,1.9367,393.628],
    [17092,1537395642,53.5366,-110.8855,1116.8,489.4,353.9,4.8,-0.1,7.85,39.68,1.9373,394.3035],
    [17093,1537395643,53.5372,-110.8855,1116.8,486.8,353.2,5.4,0.0,7.97,40.18,1.9368,392.3188],
    [17094,1537395644,53.5379,-110.8856,1116.1,485.1,353.6,4.7,0.8,7.42,39.71,1.9362,393.3904],
    [17095,1537395645,53.5386,-110.8857,1115.5,485.5,354.1,4.1,0.6,7.95,39.28,1.9368,393.3296],
    [17096,1537395646,53.5393,-110.8857,1115.6,486.3,354.1,4.1,0.2,7.77,40.3,1.9367,392.9275],
    [17097,1537395647,53.54,-110.8858,1114.6,487.4,354.2,3.9,0.1,7.68,39.69,1.9366,392.5789],
    [17098,1537395648,53.5407,-110.8858,1112.9,485.9,353.8,4.4,-0.4,7.84,40.31,1.9369,394.3694],
    [17099,1537395649,53.5414,-110.8859,1111.3,484.3,353.7,4.4,-0.8,7.5,40.4,1.9371,392.1034],
    [17100,1537395650,53.5421,-110.886,1111.0,482.0,353.9,4.1,-1.4,7.78,40.01,1.9369,394.4037],
    [17101,1537395651,53.5428,-110.886,1112.2,484.3,353.5,4.8,-1.9,7.72,40.25,1.9379,392.9617],
    [17102,1537395652,53.5435,-110.8861,1113.0,486.0,353.5,4.9,-1.8,8.57,39.36,1.937,393.3513],
    [17103,1537395653,53.5441,-110.8861,1113.2,486.2,353.8,4.9,-1.6,7.59,40.04,1.9363,392.8215],
    [17104,1537395654,53.5448,-110.8862,1113.4,485.4,354.1,4.7,-1.1,7.82,39.94,1.9363,393.1333],
    [17105,1537395655,53.5455,-110.8862,1113.5,484.5,354.4,4.9,-0.8,7.6,39.89,1.9375,393.2513],
    [17106,1537395656,53.5462,-110.8863,1113.2,483.2,354.5,4.7,-1.0,7.75,40.03,1.9368,392.9168],
    [17107,1537395657,53.5469,-110.8863,1113.1,483.2,355.3,3.9,-0.9,7.62,39.63,1.9364,392.5377],
    [17108,1537395658,53.5476,-110.8864,1113.2,482.2,355.1,3.9,-0.7,8.15,39.43,1.9366,392.5241],
    [17109,1537395659,53.5483,-110.8864,1112.9,483.0,355.0,3.9,-0.5,7.65,39.7,1.9366,392.8867],
    [17110,1537395660,53.5489,-110.8864,1112.5,483.6,353.5,5.4,-0.2,7.7,40.04,1.9371,391.3134],
    [17111,1537395661,53.5496,-110.8865,1111.9,483.9,353.8,4.9,-0.1,7.15,39.45,1.9373,393.1751],
    [17112,1537395662,53.5503,-110.8865,1111.8,483.8,353.9,4.8,-0.1,8.23,39.22,1.9365,393.2148],
    [17113,1537395663,53.551,-110.8866,1112.5,483.5,353.3,5.4,0.4,7.65,39.68,1.9373,391.4942],
    [17114,1537395664,53.5517,-110.8866,1112.7,480.1,353.5,5.1,0.4,7.96,39.23,1.9379,392.9384],
    [17115,1537395665,53.5524,-110.8867,1112.4,478.1,354.0,4.7,-0.7,8.51,39.09,1.937,392.1272],
    [17116,1537395666,53.553,-110.8867,1113.3,478.4,354.0,4.9,-1.0,7.68,40.07,1.94,392.9758],
    [17117,1537395667,53.5537,-110.8868,1114.6,479.6,353.6,5.2,-0.4,7.89,39.19,1.9368,392.8433],
    [17118,1537395668,53.5544,-110.8868,1114.9,481.5,353.7,4.9,0.2,7.63,39.72,1.9384,393.0272],
    [17119,1537395669,53.5551,-110.8869,1114.8,484.6,354.0,4.2,0.0,7.66,39.42,1.9375,392.7665],
    [17120,1537395670,53.5558,-110.887,1116.0,486.0,354.3,3.8,-0.6,7.59,39.5,1.9374,393.9751],
    [17121,1537395671,53.5564,-110.887,1117.3,487.3,353.7,4.6,-0.4,7.5,39.84,1.9373,393.9751],
    [17122,1537395672,53.5571,-110.8871,1117.1,487.1,354.1,4.1,-0.6,7.23,39.42,1.9361,393.1459],
    [17123,1537395673,53.5578,-110.8871,1116.4,486.4,354.4,3.9,-1.5,7.71,39.58,1.9376,392.7428],
    [17124,1537395674,53.5585,-110.8872,1116.0,485.0,353.6,5.2,-1.2,7.8,39.65,1.9364,393.2455],
    [17125,1537395675,53.5592,-110.8872,1114.3,482.3,352.4,6.5,-1.0,7.94,39.26,1.9362,393.2455],
    [17126,1537395676,53.5599,-110.8873,1112.3,480.3,352.9,6.0,-1.5,7.69,39.37,1.9362,393.4705],
    [17127,1537395677,53.5606,-110.8874,1111.3,480.3,352.8,6.2,-1.2,7.74,39.19,1.9372,391.2783],
    [17128,1537395678,53.5613,-110.8874,1111.7,480.7,353.0,5.9,-1.0,7.9,39.43,1.9367,392.7934],
    [17129,1537395679,53.562,-110.8875,1111.9,480.9,354.1,4.8,-0.8,7.44,39.07,1.9358,393.6569],
    [17130,1537395680,53.5627,-110.8875,1111.0,479.3,354.1,5.1,-1.0,7.84,39.32,1.9362,392.5203],
    [17131,1537395681,53.5634,-110.8876,1110.2,479.2,354.4,4.8,-1.1,7.93,39.1,1.9377,392.8835],
    [17132,1537395682,53.5641,-110.8876,1110.3,479.3,354.3,4.9,-1.2,8.01,39.36,1.9384,392.8511],
    [17133,1537395683,53.5648,-110.8877,1110.9,479.9,354.5,4.5,-1.4,7.87,39.54,1.9368,391.666],
    [17134,1537395684,53.5654,-110.8877,1111.2,480.2,354.0,4.9,-1.0,8.05,38.94,1.9362,393.6158],
    [17135,1537395685,53.5661,-110.8878,1111.0,480.0,354.3,4.3,-0.7,7.21,39.07,1.9371,393.4406],
    [17136,1537395686,53.5669,-110.8878,1111.2,480.2,354.2,4.5,-0.7,7.85,38.86,1.9384,392.6544],
    [17137,1537395687,53.5675,-110.8879,1111.9,482.5,354.0,4.7,-0.9,7.24,38.98,1.9394,394.035],
    [17138,1537395688,53.5682,-110.8879,1112.2,485.9,354.1,4.6,-1.2,7.54,39.04,1.9381,394.0946],
    [17139,1537395689,53.5689,-110.888,1112.1,491.5,354.0,4.7,-1.0,7.89,39.44,1.9382,392.4127],
    [17140,1537395690,53.5696,-110.888,1111.8,494.8,354.2,4.6,-1.2,8.05,38.38,1.9373,392.7931],
    [17141,1537395691,53.5703,-110.8881,1111.8,498.1,353.9,5.2,-0.9,7.36,38.91,1.9378,392.4157],
    [17142,1537395692,53.571,-110.8881,1112.1,500.2,353.1,5.8,-0.4,8.17,38.56,1.9365,392.3138],
    [17143,1537395693,53.5717,-110.8882,1112.2,501.5,353.0,5.4,0.0,8.58,38.56,1.9361,392.7682],
    [17144,1537395694,53.5724,-110.8882,1112.2,502.0,353.1,4.9,0.0,7.83,38.99,1.9357,393.3365],
    [17145,1537395695,53.5731,-110.8883,1111.9,499.1,353.5,4.6,-0.5,7.86,39.22,1.9358,393.1623],
    [17146,1537395696,53.5738,-110.8884,1111.8,496.7,353.6,4.6,-0.7,8.17,38.55,1.937,392.5818],
    [17147,1537395697,53.5744,-110.8884,1112.2,496.2,353.8,4.4,-0.6,8.43,37.93,1.9374,393.708],
    [17148,1537395698,53.5751,-110.8885,1112.3,496.2,353.9,4.4,-0.5,8.36,38.54,1.9373,393.708],
    [17149,1537395699,53.5758,-110.8885,1112.2,497.5,354.0,4.2,-0.6,7.67,38.33,1.937,392.5869],
    [17150,1537395700,53.5765,-110.8886,1112.0,498.9,354.4,3.7,-0.7,7.88,38.32,1.9392,392.5869],
    [17151,1537395701,53.5772,-110.8887,1111.5,499.5,354.2,3.7,-0.5,7.63,38.5,1.9366,392.7448],
    [17152,1537395702,53.5779,-110.8887,1111.4,499.4,354.3,3.4,-0.3,8.35,37.85,1.9368,391.661],
    [17153,1537395703,53.5785,-110.8888,1111.7,499.8,354.3,3.4,-0.2,7.61,38.34,1.9364,393.1891],
    [17154,1537395704,53.5792,-110.8888,1112.1,499.2,354.2,3.3,0.1,7.63,38.39,1.936,391.6968],
    [17155,1537395705,53.5799,-110.8889,1112.2,498.2,354.3,3.2,0.1,8.22,38.1,1.9356,392.5357],
    [17156,1537395706,53.5806,-110.889,1112.3,498.3,353.7,3.8,0.0,7.85,38.15,1.9369,393.7929],
    [17157,1537395707,53.5813,-110.889,1112.5,498.5,353.5,4.1,0.0,7.66,38.31,1.9373,393.2521],
    [17158,1537395708,53.582,-110.8891,1112.7,500.8,352.9,4.7,0.2,7.73,38.5,1.9364,392.3189],
    [17159,1537395709,53.5827,-110.8892,1113.1,502.1,352.5,5.0,0.7,7.81,38.8,1.9359,391.7524],
    [17160,1537395710,53.5833,-110.8893,1113.5,503.5,353.1,4.2,0.8,7.75,38.6,1.9365,394.048],
    [17161,1537395711,53.584,-110.8893,1113.8,504.9,354.3,2.8,0.4,7.62,38.51,1.9378,394.048],
    [17162,1537395712,53.5847,-110.8894,1114.2,505.2,355.7,1.3,0.6,7.93,38.68,1.9367,392.9363],
    [17163,1537395713,53.5854,-110.8895,1114.9,505.9,355.0,2.4,-0.3,7.78,38.21,1.9366,393.3473],
    [17164,1537395714,53.5861,-110.8895,1115.4,507.3,353.5,4.3,-1.2,7.74,39.04,1.9369,392.8154],
    [17165,1537395715,53.5868,-110.8896,1114.9,508.6,353.5,4.0,-0.2,7.99,38.26,1.9373,392.9128],
    [17166,1537395716,53.5875,-110.8897,1113.7,507.7,352.9,4.5,0.3,7.65,38.62,1.9373,391.1574],
    [17167,1537395717,53.5882,-110.8898,1112.2,503.2,352.7,5.1,-0.7,7.8,38.86,1.9372,393.1378],
    [17168,1537395718,53.5889,-110.8898,1111.2,501.2,352.8,5.1,-1.3,7.88,39.29,1.9362,393.3434],
    [17169,1537395719,53.5896,-110.8899,1111.6,501.2,353.7,4.2,-1.7,7.58,38.96,1.9379,393.4817],
    [17170,1537395720,53.5903,-110.89,1111.7,501.5,354.5,3.5,-1.6,8.09,38.3,1.9373,393.9941],
    [17171,1537395721,53.591,-110.89,1112.1,500.4,354.4,3.7,-0.5,7.63,38.83,1.936,393.0988],
    [17172,1537395722,53.5917,-110.8901,1112.2,500.8,354.6,3.8,-0.5,7.44,38.57,1.9367,391.5586],
    [17173,1537395723,53.5923,-110.8901,1112.3,501.3,354.7,3.9,-0.9,7.73,38.83,1.9377,391.2652],
    [17174,1537395724,53.593,-110.8902,1112.3,501.6,354.7,3.9,-0.8,7.47,39.04,1.9375,391.2652],
    [17175,1537395725,53.5937,-110.8902,1112.2,502.2,355.1,3.3,-1.5,7.83,38.94,1.9369,392.6393],
    [17176,1537395726,53.5944,-110.8903,1112.8,503.5,355.3,2.9,-2.4,7.6,39.12,1.9369,393.1667],
    [17177,1537395727,53.5951,-110.8904,1113.9,504.9,355.4,2.6,-2.3,7.82,38.89,1.9394,393.8407],
    [17178,1537395728,53.5958,-110.8904,1114.8,505.8,354.3,3.7,-2.0,7.47,38.99,1.9416,393.8407],
    [17179,1537395729,53.5965,-110.8905,1114.7,505.1,354.0,3.6,-1.9,7.51,39.06,1.9392,392.0979],
    [17180,1537395730,53.5972,-110.8905,1114.1,505.1,353.9,3.8,-1.9,7.98,38.97,1.9385,392.6566],
    [17181,1537395731,53.5979,-110.8906,1113.4,507.4,354.0,3.3,-2.2,7.99,38.86,1.9388,392.6566],
    [17182,1537395732,53.5986,-110.8907,1112.8,506.8,354.3,3.1,-2.6,7.72,39.28,1.9394,392.9602],
    [17183,1537395733,53.5993,-110.8908,1113.1,507.1,354.1,3.1,-2.1,7.85,39.63,1.9395,393.0682],
    [17184,1537395734,53.6,-110.8908,1114.0,508.0,353.2,4.3,-1.6,7.79,39.72,1.9395,392.4163],
    [17185,1537395735,53.6007,-110.8909,1114.2,506.8,353.0,4.6,-1.8,7.58,39.16,1.9393,392.3056],
    [17186,1537395736,53.6014,-110.891,1113.8,504.7,353.4,4.4,-2.2,8.41,38.85,1.9381,392.651],
    [17187,1537395737,53.6021,-110.8911,1113.8,503.7,353.1,4.7,-2.3,7.99,39.58,1.9402,392.6361],
    [17188,1537395738,53.6027,-110.8911,1114.1,505.1,353.8,4.0,-2.6,7.93,39.33,1.9394,392.6361],
    [17189,1537395739,53.6034,-110.8912,1113.8,504.1,354.0,3.9,-2.8,7.62,39.88,1.9386,393.0084],
    [17190,1537395740,53.6041,-110.8913,1113.6,503.3,354.1,4.0,-2.8,7.74,39.07,1.9386,393.014],
    [17191,1537395741,53.6048,-110.8913,1113.7,502.7,354.1,4.0,-3.0,7.58,39.8,1.9382,393.014],
    [17192,1537395742,53.6055,-110.8914,1114.2,503.2,354.3,3.8,-3.0,7.49,39.09,1.9387,393.8618],
    [17193,1537395743,53.6062,-110.8915,1114.5,502.5,354.5,3.4,-2.9,8.2,38.63,1.9392,392.9373],
    [17194,1537395744,53.6069,-110.8915,1114.3,500.7,354.5,3.6,-2.6,8.01,38.93,1.9385,392.9373],
    [17195,1537395745,53.6076,-110.8916,1113.8,497.3,353.8,4.4,-2.7,7.83,39.1,1.9385,392.8213],
    [17196,1537395746,53.6083,-110.8917,1113.0,494.9,353.5,4.8,-2.2,7.84,39.98,1.9391,393.2607],
    [17197,1537395747,53.609,-110.8917,1112.6,491.9,353.0,5.2,-1.8,7.63,39.5,1.9398,393.3473],
    [17198,1537395748,53.6097,-110.8918,1112.1,488.8,353.9,4.1,-1.8,7.79,39.31,1.9388,392.1254],
    [17199,1537395749,53.6103,-110.8919,1111.1,485.8,354.1,4.1,-2.0,7.7,39.76,1.9389,392.5725],
    [17200,1537395750,53.611,-110.8919,1110.4,486.1,354.6,3.9,-2.0,7.77,39.84,1.9378,390.7873],
    [17201,1537395751,53.6117,-110.892,1110.7,489.4,354.4,4.2,-1.6,8.31,38.72,1.9405,392.3154],
    [17202,1537395752,53.6124,-110.892,1110.9,489.6,354.1,4.2,-1.5,7.8,39.66,1.9391,392.8614],
    [17203,1537395753,53.6131,-110.8921,1110.9,487.5,353.4,4.7,-1.3,7.8,39.19,1.9389,393.4992],
    [17204,1537395754,53.6138,-110.8922,1110.9,485.9,353.2,4.6,-1.5,7.57,39.22,1.9395,392.6244],
    [17205,1537395755,53.6145,-110.8922,1111.0,484.0,353.2,4.5,-1.6,7.82,39.24,1.9389,392.0569],
    [17206,1537395756,53.6151,-110.8923,1111.4,484.7,353.1,4.7,-1.5,7.99,38.82,1.9391,392.0541],
    [17207,1537395757,53.6158,-110.8924,1111.9,486.0,353.0,4.8,-1.2,7.9,39.25,1.9385,392.835],
    [17208,1537395758,53.6165,-110.8924,1112.3,486.1,353.3,4.5,-0.9,8.31,38.89,1.9409,393.4755],
    [17209,1537395759,53.6172,-110.8925,1112.5,484.5,353.7,4.3,-0.5,7.73,39.32,1.9403,393.4755],
    [17210,1537395760,53.6179,-110.8926,1112.3,482.6,353.3,4.9,-0.6,7.62,39.36,1.9402,393.5663],
    [17211,1537395761,53.6185,-110.8926,1112.0,482.9,353.2,5.1,-0.7,7.94,39.1,1.9402,393.6634],
    [17212,1537395762,53.6192,-110.8927,1111.8,485.4,353.4,4.8,-0.3,7.53,39.5,1.9402,391.1911],
    [17213,1537395763,53.6199,-110.8927,1111.6,487.5,353.7,4.6,-0.4,7.69,39.29,1.94,391.557],
    [17214,1537395764,53.6206,-110.8928,1111.4,487.4,353.7,4.8,-0.8,7.22,39.31,1.9384,393.9518],
    [17215,1537395765,53.6212,-110.8928,1111.6,485.6,353.6,5.0,-0.8,7.78,39.65,1.9378,393.5078],
    [17216,1537395766,53.6219,-110.8929,1112.5,485.5,353.5,5.0,-0.4,7.62,39.5,1.9382,393.0326],
    [17217,1537395767,53.6226,-110.893,1113.1,485.8,353.8,4.4,-0.3,8.35,38.94,1.9379,393.0326],
    [17218,1537395768,53.6233,-110.893,1112.6,485.9,353.8,4.6,-0.4,7.73,39.54,1.9376,393.0138],
    [17219,1537395769,53.624,-110.8931,1112.2,488.7,353.8,4.3,-0.3,7.79,39.89,1.9381,393.1193],
    [17220,1537395770,53.6246,-110.8931,1111.8,490.9,354.0,4.1,-0.7,8.04,39.14,1.939,393.1193],
    [17221,1537395771,53.6253,-110.8932,1111.3,492.3,354.1,4.1,-0.8,7.75,39.09,1.9392,391.8873],
    [17222,1537395772,53.626,-110.8932,1111.8,494.5,354.0,4.1,-0.8,7.92,38.83,1.9374,393.7407],
    [17223,1537395773,53.6267,-110.8933,1112.4,496.7,354.2,3.7,-1.0,8.0,39.27,1.9371,392.8502],
    [17224,1537395774,53.6273,-110.8934,1112.1,499.0,353.9,3.8,-0.5,7.85,39.14,1.9371,392.9806],
    [17225,1537395775,53.628,-110.8934,1112.0,499.1,353.5,3.9,-0.1,7.65,38.88,1.938,393.5784],
    [17226,1537395776,53.6287,-110.8935,1112.1,499.1,353.1,4.1,-0.2,8.43,38.53,1.939,393.2945],
    [17227,1537395777,53.6294,-110.8936,1111.9,499.6,353.0,4.2,-0.2,7.64,39.14,1.9379,393.4322],
    [17228,1537395778,53.63,-110.8937,1111.7,501.4,353.3,3.8,-0.1,7.64,38.67,1.9382,391.3697],
    [17229,1537395779,53.6307,-110.8937,1111.4,502.5,353.3,3.8,-0.3,7.64,38.58,1.9386,392.9198],
    [17230,1537395780,53.6314,-110.8938,1111.8,502.8,353.4,3.7,-0.7,7.31,38.76,1.9388,392.519],
    [17231,1537395781,53.632,-110.8939,1112.5,503.5,354.0,3.0,-0.6,7.86,38.96,1.9411,392.6017],
    [17232,1537395782,53.6327,-110.894,1112.5,502.8,354.0,3.2,-0.3,8.11,38.34,1.9396,392.8593],
    [17233,1537395783,53.6334,-110.894,1112.1,501.4,353.7,3.5,-0.2,7.56,38.68,1.9408,393.3548],
    [17234,1537395784,53.6341,-110.8941,1111.6,500.3,353.7,3.3,-0.6,7.96,38.6,1.9411,393.3548],
    [17235,1537395785,53.6347,-110.8942,1111.2,499.0,353.6,3.5,-0.5,8.36,38.14,1.9408,393.8373],
    [17236,1537395786,53.6354,-110.8943,1111.8,498.8,352.8,4.6,-0.6,7.96,38.6,1.942,393.8373],
    [17237,1537395787,53.6361,-110.8943,1114.0,501.0,352.6,4.9,-1.0,7.33,38.88,1.9411,393.4558],
    [17238,1537395788,53.6368,-110.8944,1115.6,502.6,353.3,4.0,-0.8,7.74,39.12,1.9426,392.7524],
    [17239,1537395789,53.6374,-110.8945,1116.8,503.8,353.0,4.6,-0.5,8.02,39.38,1.9416,393.3419],
    [17240,1537395790,53.6381,-110.8945,1118.2,504.9,353.1,4.6,-0.7,7.83,39.32,1.9423,391.7953],
    [17241,1537395791,53.6388,-110.8946,1118.7,503.7,354.4,3.7,-1.6,7.92,39.88,1.9425,393.2905],
    [17242,1537395792,53.6395,-110.8947,1118.6,502.6,354.7,3.9,-2.1,7.5,40.71,1.942,394.004],
    [17243,1537395793,53.6401,-110.8947,1117.6,500.6,355.2,3.7,-2.1,7.42,40.07,1.9425,393.1329],
    [17244,1537395794,53.6408,-110.8948,1116.1,499.1,354.9,4.2,-1.7,7.57,40.23,1.9409,392.9706],
    [17245,1537395795,53.6415,-110.8948,1115.2,498.2,354.3,4.8,-1.7,7.75,40.17,1.9409,391.6307],
    [17246,1537395796,53.6422,-110.8948,1114.3,496.3,354.0,4.9,-1.9,7.97,39.98,1.9426,393.5283],
    [17247,1537395797,53.6429,-110.8949,1113.7,494.8,354.0,4.9,-2.1,7.77,40.76,1.9425,393.3019],
    [17248,1537395798,53.6436,-110.8949,1114.3,495.1,353.8,4.8,-1.4,7.9,39.87,1.9402,392.8173],
    [17249,1537395799,53.6443,-110.895,1113.8,494.8,353.9,4.4,-0.7,7.97,39.54,1.9416,392.1289],
    [17250,1537395800,53.6449,-110.8951,1113.0,493.0,354.1,3.8,-0.9,7.55,40.08,1.9425,392.2229],
    [17251,1537395801,53.6456,-110.8951,1111.9,489.8,354.1,3.5,-0.8,7.16,39.97,1.9414,392.2229],
    [17252,1537395802,53.6463,-110.8952,1111.3,487.3,353.2,4.2,-0.5,7.97,39.85,1.9404,392.2995],
    [17253,1537395803,53.647,-110.8953,1110.9,481.9,352.8,4.4,-0.4,8.29,39.46,1.9406,392.2177],
    [17254,1537395804,53.6477,-110.8954,1110.9,478.3,352.2,4.9,-0.4,7.43,39.87,1.9397,392.2177],
    [17255,1537395805,53.6484,-110.8955,1111.4,473.6,352.4,4.6,-0.5,7.52,39.85,1.9438,393.1605],
    [17256,1537395806,53.6491,-110.8955,1112.1,473.0,352.7,4.3,-0.6,7.75,40.25,1.9423,393.7647],
    [17257,1537395807,53.6498,-110.8956,1112.0,473.6,352.7,4.5,-0.4,7.82,39.69,1.9406,392.9979],
    [17258,1537395808,53.6505,-110.8957,1111.9,474.2,352.8,4.6,-0.2,7.79,40.04,1.9406,394.0425],
    [17259,1537395809,53.6512,-110.8958,1111.9,476.2,352.9,4.6,-0.1,7.78,39.96,1.9413,391.7007],
    [17260,1537395810,53.6518,-110.8959,1112.8,479.5,353.3,4.2,-0.1,8.41,38.63,1.9407,394.2527],
    [17261,1537395811,53.6525,-110.8959,1113.9,479.7,353.5,4.1,0.0,7.69,39.13,1.9427,393.3011],
    [17262,1537395812,53.6532,-110.896,1114.3,478.8,353.0,4.6,0.4,7.64,38.91,1.9401,393.0593],
    [17263,1537395813,53.6539,-110.8961,1114.0,476.9,353.5,4.1,0.4,8.48,38.88,1.9416,391.9484],
    [17264,1537395814,53.6546,-110.8961,1113.3,476.3,353.3,4.4,0.4,7.73,39.09,1.9415,393.4363],
    [17265,1537395815,53.6553,-110.8962,1112.8,474.8,353.1,4.6,0.7,8.66,38.9,1.9417,393.0939],
    [17266,1537395816,53.656,-110.8963,1113.1,475.2,353.4,3.9,0.1,7.91,39.3,1.9405,393.0939],
    [17267,1537395817,53.6567,-110.8963,1113.3,473.6,355.0,2.3,0.2,7.91,40.14,1.9399,392.8111],
    [17268,1537395818,53.6574,-110.8964,1113.2,472.0,354.2,3.3,0.3,7.47,39.7,1.9405,393.1831],
    [17269,1537395819,53.6581,-110.8965,1113.3,473.6,354.1,3.6,0.4,7.77,40.19,1.9404,394.1417],
    [17270,1537395820,53.6588,-110.8965,1113.8,476.5,352.6,4.8,1.4,8.43,39.17,1.9407,392.9323],
    [17271,1537395821,53.6594,-110.8966,1113.2,476.3,353.6,3.7,0.8,7.8,40.13,1.9421,392.5392],
    [17272,1537395822,53.6601,-110.8967,1111.1,471.2,353.0,4.2,0.2,8.15,39.25,1.941,392.5846],
    [17273,1537395823,53.6608,-110.8968,1109.0,464.0,353.6,3.5,0.1,7.58,39.68,1.9415,394.3671],
    [17274,1537395824,53.6616,-110.8969,1108.1,460.7,352.6,4.6,0.0,7.7,39.69,1.9424,393.3575],
    [17275,1537395825,53.6623,-110.8969,1108.1,461.1,353.1,3.8,-0.1,7.89,40.08,1.9419,392.8329],
    [17276,1537395826,53.6629,-110.897,1108.2,461.2,353.5,3.5,-0.3,7.79,39.71,1.9399,393.1265],
    [17277,1537395827,53.6636,-110.8971,1108.5,461.5,353.2,3.9,0.0,7.73,39.84,1.9392,393.1265],
    [17278,1537395828,53.6643,-110.8972,1109.3,460.7,353.4,3.8,0.2,7.92,39.73,1.9397,392.5045],
    [17279,1537395829,53.665,-110.8973,1110.6,459.9,354.4,2.6,0.1,7.63,39.62,1.9402,393.9492],
    [17280,1537395830,53.6657,-110.8973,1111.9,461.1,354.0,3.4,-0.2,8.38,39.12,1.94,393.87],
    [17281,1537395831,53.6664,-110.8974,1113.0,464.4,353.5,3.7,-1.1,7.51,39.5,1.9387,392.2225],
    [17282,1537395832,53.6671,-110.8975,1112.7,466.1,354.0,2.9,-1.7,7.71,39.52,1.9382,393.6287],
    [17283,1537395833,53.6678,-110.8976,1112.4,469.0,353.1,3.8,-1.3,7.61,39.33,1.9382,393.5099],
    [17284,1537395834,53.6685,-110.8977,1112.4,470.3,352.9,3.7,-1.0,7.76,39.05,1.9406,391.5831],
    [17285,1537395835,53.6692,-110.8978,1112.6,472.3,353.2,3.4,-1.5,8.44,38.35,1.9392,393.9042],
    [17286,1537395836,53.6699,-110.8978,1112.5,472.8,353.3,3.6,-2.2,7.86,38.79,1.9384,393.6395],
    [17287,1537395837,53.6706,-110.8979,1112.5,473.5,353.4,3.8,-2.0,7.89,38.29,1.9389,392.3828],
    [17288,1537395838,53.6712,-110.898,1112.7,474.7,352.8,4.6,-1.3,7.83,38.71,1.9403,392.72],
    [17289,1537395839,53.6719,-110.8981,1112.5,474.5,353.2,4.2,-1.2,7.94,38.45,1.9412,391.4961],
    [17290,1537395840,53.6726,-110.8982,1111.8,471.9,353.3,4.2,-0.9,7.59,37.82,1.9397,393.0088],
    [17291,1537395841,53.6733,-110.8982,1111.1,468.7,353.4,4.2,-0.5,7.39,37.85,1.9409,393.3663],
    [17292,1537395842,53.674,-110.8983,1110.6,464.2,353.6,3.7,-0.2,7.73,38.0,1.9394,393.3663],
    [17293,1537395843,53.6747,-110.8984,1110.0,460.9,354.4,2.9,0.4,8.44,37.51,1.9408,393.2339],
    [17294,1537395844,53.6753,-110.8984,1109.6,457.5,353.2,4.4,0.8,7.65,37.99,1.9403,394.078],
    [17295,1537395845,53.676,-110.8985,1110.0,457.0,353.7,4.0,0.6,8.06,37.31,1.9391,392.9382],
    [17296,1537395846,53.6767,-110.8986,1110.6,456.4,354.7,3.2,0.2,7.78,37.99,1.9379,393.3665],
    [17297,1537395847,53.6774,-110.8986,1111.0,456.0,354.8,3.3,0.3,8.46,37.44,1.9384,394.4814],
    [17298,1537395848,53.6781,-110.8987,1111.5,455.2,354.9,3.1,-0.1,8.35,37.15,1.9396,393.9119],
    [17299,1537395849,53.6788,-110.8987,1111.7,453.7,354.3,4.2,-0.9,8.08,37.06,1.9387,392.7295],
    [17300,1537395850,53.6794,-110.8988,1112.1,451.5,352.8,5.8,-1.5,7.67,37.37,1.9389,392.8573],
    [17301,1537395851,53.6801,-110.8989,1113.4,448.7,353.0,5.4,-1.0,7.76,38.15,1.9399,393.3087],
    [17302,1537395852,53.6808,-110.8989,1114.2,448.4,352.7,5.6,-0.6,7.56,37.34,1.9378,394.1483],
    [17303,1537395853,53.6815,-110.899,1114.3,447.5,353.1,5.2,-0.6,7.34,37.38,1.9372,392.5133],
    [17304,1537395854,53.6821,-110.899,1113.9,447.3,352.8,5.6,-0.2,7.71,37.25,1.9365,393.5687],
    [17305,1537395855,53.6828,-110.8991,1113.3,446.0,352.9,5.7,-0.3,7.61,37.6,1.9367,392.4985],
    [17306,1537395856,53.6835,-110.8992,1112.7,446.3,353.1,5.5,-0.9,7.77,37.07,1.9385,391.6381],
    [17307,1537395857,53.6842,-110.8992,1112.7,451.0,354.0,4.7,-1.3,7.44,36.8,1.9402,393.2834],
    [17308,1537395858,53.6849,-110.8993,1112.8,450.9,353.5,5.5,-1.0,7.97,36.64,1.9415,392.3257],
    [17309,1537395859,53.6855,-110.8993,1112.9,449.5,353.5,5.3,-0.7,7.75,36.5,1.9416,392.2597],
    [17310,1537395860,53.6862,-110.8994,1112.3,451.3,354.0,4.7,-0.7,7.88,37.0,1.9407,393.7245],
    [17311,1537395861,53.6869,-110.8994,1111.6,455.9,354.2,4.5,-1.2,7.89,36.69,1.9419,394.5132],
    [17312,1537395862,53.6876,-110.8995,1110.8,463.2,354.7,3.8,-1.5,7.49,36.99,1.9424,392.3315],
    [17313,1537395863,53.6883,-110.8995,1110.2,465.2,354.7,3.8,-1.3,8.6,36.79,1.9418,394.0465],
    [17314,1537395864,53.689,-110.8996,1110.1,464.8,354.7,3.8,-1.4,7.99,37.83,1.9417,393.7445],
    [17315,1537395865,53.6896,-110.8996,1111.0,464.0,354.2,4.4,-1.3,8.19,37.28,1.9413,391.4577],
    [17316,1537395866,53.6903,-110.8997,1111.8,461.8,354.0,4.4,-1.1,7.8,37.8,1.9409,392.4402],
    [17317,1537395867,53.691,-110.8997,1111.9,463.0,353.9,4.5,-0.7,8.27,37.49,1.9404,393.2536],
    [17318,1537395868,53.6916,-110.8998,1112.3,464.9,353.8,4.1,-0.3,7.68,37.54,1.9411,394.017],
    [17319,1537395869,53.6923,-110.8998,1112.8,466.8,354.6,3.5,-0.1,7.31,37.8,1.9422,393.1743],
    [17320,1537395870,53.693,-110.8999,1112.7,466.8,353.8,4.5,0.2,7.83,38.59,1.9406,393.2458],
    [17321,1537395871,53.6937,-110.8999,1111.7,464.7,354.4,4.1,0.3,7.65,38.12,1.9391,393.4682],
    [17322,1537395872,53.6944,-110.9,1110.9,463.9,354.7,3.9,-0.2,7.72,37.94,1.9406,391.945],
    [17323,1537395873,53.695,-110.9,1110.9,463.2,354.9,3.8,-0.3,7.85,38.45,1.9421,392.8181],
    [17324,1537395874,53.6957,-110.9001,1111.1,462.8,354.2,4.6,-0.3,8.12,37.95,1.9397,390.5783],
    [17325,1537395875,53.6964,-110.9001,1110.7,462.3,353.9,5.0,-0.5,7.58,38.2,1.9401,391.9555],
    [17326,1537395876,53.6971,-110.9002,1110.4,462.3,353.2,5.7,-0.7,7.57,38.62,1.9394,393.7954],
    [17327,1537395877,53.6977,-110.9002,1110.1,463.1,353.7,4.8,-0.4,7.7,38.02,1.9409,393.7954],
    [17328,1537395878,53.6984,-110.9003,1111.0,465.0,353.7,4.8,0.0,7.59,38.0,1.9427,392.2256],
    [17329,1537395879,53.6991,-110.9003,1113.1,468.2,354.0,4.2,0.6,7.68,37.92,1.9422,392.0366],
    [17330,1537395880,53.6998,-110.9004,1114.3,469.3,354.7,3.6,0.6,7.65,38.13,1.9406,393.1705],
    [17331,1537395881,53.7004,-110.9004,1113.9,468.9,353.6,5.1,-0.2,7.76,38.28,1.9427,394.0949],
    [17332,1537395882,53.7011,-110.9005,1114.3,469.3,353.1,4.7,0.0,7.98,38.86,1.9431,393.2917],
    [17333,1537395883,53.7018,-110.9006,1115.3,469.3,353.9,4.0,-0.2,7.64,38.91,1.9429,393.2772],
    [17334,1537395884,53.7025,-110.9006,1116.1,470.3,353.3,4.5,-0.8,7.49,38.59,1.9441,392.8404],
    [17335,1537395885,53.7032,-110.9007,1116.4,472.7,355.1,2.5,-1.0,7.65,38.91,1.946,393.2578],
    [17336,1537395886,53.7039,-110.9008,1115.2,473.2,355.1,2.8,-0.5,7.59,38.98,1.9445,392.9843],
    [17337,1537395887,53.7045,-110.9008,1114.6,473.6,354.6,3.4,0.5,8.47,38.99,1.9462,393.0818],
    [17338,1537395888,53.7053,-110.9009,1114.2,472.2,354.9,3.2,0.4,8.29,39.1,1.9441,394.1326],
    [17339,1537395889,53.706,-110.9009,1113.3,471.3,355.6,1.8,-0.8,7.37,39.8,1.946,393.3811],
    [17340,1537395890,53.7066,-110.901,1113.7,471.7,356.0,1.1,-0.9,7.61,40.14,1.9458,393.1681],
    [17341,1537395891,53.7074,-110.9011,1113.7,469.8,354.9,2.1,-0.6,7.31,40.34,1.9451,394.0616],
    [17342,1537395892,53.7081,-110.9012,1114.1,466.7,354.5,2.3,-0.5,7.56,40.11,1.9444,392.6249],
    [17343,1537395893,53.7088,-110.9012,1113.9,463.9,354.1,2.6,-0.5,7.59,40.29,1.9451,392.4168],
    [17344,1537395894,53.7095,-110.9013,1112.5,460.5,354.4,2.3,-0.6,7.59,40.72,1.945,393.2673],
    [17345,1537395895,53.7102,-110.9014,1111.9,459.9,354.0,2.7,-0.5,7.66,40.34,1.9441,393.2673],
    [17346,1537395896,53.7109,-110.9015,1111.9,460.9,354.0,2.8,-0.3,7.71,40.32,1.9434,390.7485],
    [17347,1537395897,53.7116,-110.9016,1111.7,460.7,354.4,2.4,-0.1,8.62,40.4,1.9436,392.924],
    [17348,1537395898,53.7123,-110.9017,1111.2,461.3,354.6,2.2,-0.3,8.07,40.94,1.9449,393.6858],
    [17349,1537395899,53.713,-110.9017,1111.1,463.1,355.2,1.5,-1.2,7.95,40.76,1.9447,393.4249],
    [17350,1537395900,53.7137,-110.9018,1111.3,467.3,355.6,1.2,-2.2,7.98,40.74,1.9444,393.5529],
    [17351,1537395901,53.7144,-110.9019,1112.1,469.9,355.0,1.8,-2.7,7.73,40.89,1.9449,393.2299],
    [17352,1537395902,53.7151,-110.902,1113.2,474.9,354.6,2.2,-2.3,7.96,40.88,1.9429,393.2447],
    [17353,1537395903,53.7158,-110.9021,1113.4,479.7,353.4,3.7,-1.9,8.2,40.39,1.943,393.3157],
    [17354,1537395904,53.7165,-110.9021,1113.3,482.6,352.3,4.8,-1.7,8.17,40.25,1.9434,392.4182],
    [17355,1537395905,53.7172,-110.9022,1113.4,485.7,353.1,3.9,-1.7,7.9,41.12,1.9424,391.2759],
    [17356,1537395906,53.718,-110.9023,1113.3,486.6,351.9,5.5,-1.1,8.7,40.34,1.9419,393.1498],
    [17357,1537395907,53.7187,-110.9024,1113.0,488.0,352.3,4.9,-1.1,8.12,40.39,1.9435,393.1313],
    [17358,1537395908,53.7193,-110.9025,1112.0,487.0,353.1,4.3,-2.1,8.23,40.44,1.9462,393.8688],
    [17359,1537395909,53.7201,-110.9026,1112.0,487.1,353.4,4.2,-2.8,7.76,40.43,1.9448,394.7189],
    [17360,1537395910,53.7208,-110.9027,1112.6,487.7,353.8,4.1,-2.7,8.14,40.18,1.9448,392.115],
    [17361,1537395911,53.7215,-110.9027,1113.4,489.7,353.6,4.7,-2.3,7.88,40.38,1.9466,394.2528],
    [17362,1537395912,53.7222,-110.9028,1114.4,492.4,354.0,3.9,-1.7,8.2,40.04,1.9497,393.0529],
    [17363,1537395913,53.7229,-110.9029,1115.1,495.1,354.4,3.4,-0.9,7.59,40.37,1.9505,393.3899],
    [17364,1537395914,53.7236,-110.9029,1114.7,495.4,354.6,3.0,-0.7,8.33,39.8,1.9468,392.2283],
    [17365,1537395915,53.7243,-110.903,1113.4,494.4,353.4,4.5,-1.2,7.88,41.26,1.9431,392.2283],
    [17366,1537395916,53.725,-110.9031,1112.2,494.2,353.8,4.0,-1.9,7.76,40.68,1.942,392.3527],
    [17367,1537395917,53.7257,-110.9031,1112.0,493.8,354.4,3.4,-1.9,7.97,40.41,1.9424,391.0637],
    [17368,1537395918,53.7264,-110.9032,1112.1,493.1,354.5,3.3,-1.8,7.81,40.48,1.9411,391.8372],
    [17369,1537395919,53.7271,-110.9033,1111.8,492.8,354.7,3.3,-2.2,7.98,40.19,1.942,392.1172],
    [17370,1537395920,53.7278,-110.9033,1111.5,492.5,354.3,3.7,-2.1,7.94,40.6,1.9421,393.0969],
    [17371,1537395921,53.7285,-110.9034,1111.3,493.0,354.8,3.3,-1.5,7.46,39.94,1.9411,394.4298],
    [17372,1537395922,53.7292,-110.9034,1111.0,493.0,353.9,4.3,-1.6,7.69,39.98,1.9412,392.7363],
    [17373,1537395923,53.7299,-110.9035,1111.5,493.5,354.4,3.5,-1.8,7.56,40.18,1.941,392.3639],
    [17374,1537395924,53.7306,-110.9036,1111.6,493.6,354.3,3.7,-1.5,7.85,40.35,1.9432,393.2534],
    [17375,1537395925,53.7313,-110.9036,1112.1,494.1,354.6,3.5,-1.2,8.07,39.24,1.9429,394.0068],
    [17376,1537395926,53.732,-110.9037,1112.6,494.6,355.2,2.9,-0.8,7.72,39.73,1.9436,394.1521],
    [17377,1537395927,53.7327,-110.9038,1112.3,493.3,355.4,2.5,-1.0,7.57,39.48,1.9431,392.3308],
    [17378,1537395928,53.7334,-110.9038,1111.7,491.0,356.6,0.6,-0.4,7.81,39.27,1.943,392.0956],
    [17379,1537395929,53.7341,-110.9039,1112.7,490.6,355.8,1.2,0.0,7.52,39.34,1.9433,392.0956],
    [17380,1537395930,53.7348,-110.904,1114.1,490.0,355.1,1.6,-0.7,7.88,39.84,1.9434,391.4313],
    [17381,1537395931,53.7355,-110.904,1114.2,489.2,355.0,1.1,-0.4,7.69,39.59,1.9437,394.1275],
    [17382,1537395932,53.7362,-110.9041,1113.9,488.9,354.0,2.2,-0.2,7.98,39.3,1.9447,394.0038],
    [17383,1537395933,53.737,-110.9042,1114.1,489.1,352.6,3.6,-0.8,7.86,40.04,1.9422,393.1903],
    [17384,1537395934,53.7376,-110.9043,1115.0,490.0,352.6,3.6,-1.3,7.95,39.62,1.9408,392.4176],
    [17385,1537395935,53.7383,-110.9044,1115.5,490.5,352.4,4.0,-1.1,7.8,39.66,1.9409,394.3633],
    [17386,1537395936,53.7391,-110.9045,1115.6,490.6,352.1,4.4,-0.1,7.59,40.14,1.9411,393.538],
    [17387,1537395937,53.7398,-110.9046,1114.5,489.5,353.2,3.3,0.2,7.39,39.59,1.9417,393.8248],
    [17388,1537395938,53.7405,-110.9047,1112.9,487.9,352.7,4.4,0.3,7.88,39.76,1.9407,392.6211],
    [17389,1537395939,53.7412,-110.9048,1111.9,486.9,353.3,3.9,0.4,7.88,38.82,1.9382,392.7721],
    [17390,1537395940,53.7419,-110.9049,1111.0,486.0,353.5,4.4,0.2,8.37,38.47,1.9395,393.5206],
    [17391,1537395941,53.7426,-110.9049,1110.6,485.6,354.0,4.1,0.0,7.84,38.29,1.9393,392.9156],
    [17392,1537395942,53.7433,-110.905,1110.2,485.2,354.8,3.5,-0.3,7.89,37.81,1.9412,393.4559],
    [17393,1537395943,53.7441,-110.9051,1109.9,485.8,355.3,3.1,-0.7,7.45,37.92,1.9413,393.8762],
    [17394,1537395944,53.7447,-110.9051,1110.2,487.4,355.1,3.3,-0.6,7.59,37.48,1.9404,393.8762],
    [17395,1537395945,53.7455,-110.9052,1110.8,488.8,355.1,3.1,-0.8,8.01,37.16,1.9392,393.1257],
    [17396,1537395946,53.7462,-110.9052,1110.9,489.5,354.7,3.5,-0.7,7.82,37.3,1.9399,393.2592],
    [17397,1537395947,53.7469,-110.9053,1111.0,489.9,354.2,4.2,-0.8,7.98,37.31,1.94,394.6378],
    [17398,1537395948,53.7476,-110.9053,1111.3,489.9,353.8,4.5,-1.1,8.41,37.0,1.9417,394.5422],
    [17399,1537395949,53.7483,-110.9054,1111.7,490.3,354.0,4.3,-0.9,7.87,37.59,1.9424,393.5359],
    [17400,1537395950,53.749,-110.9055,1112.0,489.4,354.6,3.3,-1.0,7.76,36.81,1.9415,392.182],
    [17401,1537395951,53.7497,-110.9055,1111.9,487.8,354.7,3.5,-0.4,7.56,36.9,1.9419,393.5148],
    [17402,1537395952,53.7504,-110.9056,1111.6,487.4,354.2,3.7,-0.3,7.38,36.94,1.9414,392.3194],
    [17403,1537395953,53.751,-110.9056,1111.1,486.9,354.9,2.5,-0.1,8.54,37.22,1.9415,393.9925],
    [17404,1537395954,53.7517,-110.9057,1111.9,489.2,354.6,2.8,0.7,7.69,37.51,1.9408,393.0025],
    [17405,1537395955,53.7524,-110.9058,1113.6,493.0,354.5,2.5,1.1,8.28,37.16,1.9402,392.5435],
    [17406,1537395956,53.7531,-110.9058,1114.3,497.5,354.6,2.3,1.1,7.86,37.47,1.941,393.5297],
    [17407,1537395957,53.7538,-110.9059,1114.0,499.5,354.6,2.5,0.3,8.13,37.22,1.9407,393.6144],
    [17408,1537395958,53.7545,-110.906,1114.2,501.7,354.1,3.3,0.4,7.72,37.48,1.9423,393.6144],
    [17409,1537395959,53.7552,-110.9061,1115.0,502.9,353.8,3.5,0.2,7.64,37.53,1.9413,391.7112],
    [17410,1537395960,53.7559,-110.9061,1115.6,503.6,353.8,3.6,0.6,7.93,37.55,1.94,393.2382],
    [17411,1537395961,53.7566,-110.9062,1115.4,503.4,354.1,3.2,0.3,7.78,37.72,1.9408,392.5844],
    [17412,1537395962,53.7573,-110.9063,1114.6,502.6,354.9,2.2,0.2,7.54,37.79,1.9409,392.9449],
    [17413,1537395963,53.758,-110.9064,1114.2,501.2,355.4,1.7,0.5,7.94,38.23,1.9414,392.6084],
    [17414,1537395964,53.7587,-110.9064,1114.3,501.3,354.7,2.4,-0.4,8.33,37.29,1.9433,392.7527],
    [17415,1537395965,53.7594,-110.9065,1114.5,501.4,354.7,2.4,-0.9,7.97,37.64,1.9414,394.5435],
    [17416,1537395966,53.7601,-110.9066,1114.3,497.5,353.5,3.4,-0.4,8.24,37.22,1.942,393.9152],
    [17417,1537395967,53.7608,-110.9067,1113.2,487.5,353.3,3.5,-0.3,8.14,37.93,1.9416,394.7429],
    [17418,1537395968,53.7615,-110.9068,1112.3,480.1,352.9,3.9,0.1,7.98,37.73,1.9424,392.672],
    [17419,1537395969,53.7622,-110.9068,1111.7,470.9,353.7,3.0,0.1,7.58,38.58,1.9434,393.3255],
    [17420,1537395970,53.763,-110.9069,1110.4,466.1,354.5,2.6,-0.7,7.94,37.83,1.9441,394.223],
    [17421,1537395971,53.7637,-110.907,1109.0,461.0,354.5,2.5,-0.8,7.64,38.16,1.9438,394.4568],
    [17422,1537395972,53.7644,-110.9071,1108.7,461.6,354.8,2.0,-1.2,8.37,37.41,1.9432,394.018],
    [17423,1537395973,53.7651,-110.9072,1111.1,466.1,353.1,3.6,-2.0,8.44,37.77,1.9434,392.4446],
    [17424,1537395974,53.7658,-110.9073,1114.0,468.0,354.6,1.8,-2.3,8.22,38.31,1.9432,393.8496],
    [17425,1537395975,53.7665,-110.9074,1116.5,473.4,353.9,2.9,-2.1,8.14,37.28,1.9429,394.6545],
    [17426,1537395976,53.7672,-110.9074,1117.6,477.2,354.7,2.1,-1.7,8.63,37.27,1.9428,394.6545],
    [17427,1537395977,53.7679,-110.9075,1117.5,481.9,354.5,2.8,-1.5,8.43,37.43,1.9433,394.2799],
    [17428,1537395978,53.7686,-110.9076,1117.5,487.6,354.1,3.1,-2.1,7.94,38.29,1.9435,392.1769],
    [17429,1537395979,53.7693,-110.9077,1117.4,490.1,355.0,1.9,-2.4,7.44,37.75,1.9434,394.2304],
    [17430,1537395980,53.77,-110.9077,1116.8,493.7,354.5,2.5,-2.3,7.33,37.72,1.9432,392.1722],
    [17431,1537395981,53.7707,-110.9078,1116.0,495.3,354.3,2.7,-2.2,7.89,37.6,1.9435,392.1321],
    [17432,1537395982,53.7714,-110.9079,1115.2,499.6,354.8,1.9,-1.7,8.25,37.24,1.9451,393.8474],
    [17433,1537395983,53.7721,-110.908,1115.4,501.4,354.5,2.1,-1.3,7.88,38.07,1.9436,394.0804],
    [17434,1537395984,53.7728,-110.9081,1114.5,500.5,354.9,1.7,-2.2,8.03,37.39,1.9437,394.0489],
    [17435,1537395985,53.7735,-110.9082,1113.5,498.0,354.5,2.2,-2.8,7.85,37.55,1.9444,394.5353],
    [17436,1537395986,53.7742,-110.9082,1112.8,494.1,354.1,2.6,-2.5,7.91,37.91,1.9461,394.5353],
    [17437,1537395987,53.775,-110.9083,1111.3,491.0,353.6,3.4,-2.5,8.02,37.16,1.9431,393.6135],
    [17438,1537395988,53.7757,-110.9084,1110.2,488.1,353.5,3.4,-2.1,7.68,37.57,1.9427,394.0437],
    [17439,1537395989,53.7764,-110.9085,1109.8,488.9,353.5,3.5,-1.7,8.18,36.7,1.9426,392.4255],
    [17440,1537395990,53.7771,-110.9086,1110.0,489.0,353.7,3.2,-1.7,7.88,37.25,1.9429,393.9344],
    [17441,1537395991,53.7778,-110.9087,1110.4,488.7,353.9,3.0,-1.5,8.45,36.64,1.9413,393.5144],
    [17442,1537395992,53.7785,-110.9088,1110.8,488.1,354.3,2.6,-1.3,7.88,37.39,1.9421,393.2793],
    [17443,1537395993,53.7792,-110.9088,1110.6,487.9,354.4,2.8,-1.1,7.91,37.0,1.9418,392.2415],
    [17444,1537395994,53.7798,-110.9089,1110.3,488.6,354.1,3.1,-1.1,7.91,36.32,1.9426,394.0172],
    [17445,1537395995,53.7806,-110.909,1110.6,490.6,354.4,2.8,-1.0,7.97,36.34,1.9431,394.4547],
    [17446,1537395996,53.7812,-110.9091,1111.7,492.7,353.9,3.2,-0.8,7.44,36.25,1.946,393.0889],
    [17447,1537395997,53.7819,-110.9091,1113.4,494.3,354.2,2.8,-0.5,8.63,35.89,1.9436,394.181],
    [17448,1537395998,53.7826,-110.9092,1113.4,496.3,353.9,3.6,0.0,7.6,36.24,1.9419,392.8864],
    [17449,1537395999,53.7833,-110.9093,1112.7,498.1,354.3,3.4,0.0,8.16,36.01,1.9438,394.4112],
    [17450,1537396000,53.784,-110.9093,1111.8,503.9,355.0,3.0,0.1,7.78,36.13,1.9436,394.325],
    [17451,1537396001,53.7847,-110.9094,1111.1,508.9,355.2,2.9,-0.1,8.46,35.69,1.9428,393.5489],
    [17452,1537396002,53.7854,-110.9095,1110.3,509.3,355.6,2.4,-0.3,7.87,36.45,1.9432,393.0376],
    [17453,1537396003,53.7861,-110.9095,1110.2,511.2,355.4,2.8,-0.3,7.98,36.08,1.9425,394.0042],
    [17454,1537396004,53.7868,-110.9096,1110.7,511.8,355.2,2.8,0.0,7.98,36.92,1.9423,394.5897],
    [17455,1537396005,53.7875,-110.9096,1111.0,509.4,355.2,2.5,0.1,7.52,36.27,1.9436,393.6928],
    [17456,1537396006,53.7882,-110.9097,1110.9,506.2,355.3,2.0,0.0,8.02,36.2,1.9437,394.4422],
    [17457,1537396007,53.7889,-110.9098,1110.8,502.8,355.3,1.6,0.7,8.02,36.53,1.9434,394.4803],
    [17458,1537396008,53.7896,-110.9098,1110.8,499.2,354.8,1.8,0.8,7.68,36.43,1.9419,394.1726],
    [17459,1537396009,53.7903,-110.9099,1110.8,493.1,354.4,2.1,0.7,7.68,36.25,1.942,393.6051],
    [17460,1537396010,53.791,-110.91,1110.8,490.5,354.2,2.1,0.7,8.35,35.65,1.9434,392.7666],
    [17461,1537396011,53.7917,-110.9101,1111.0,487.9,354.1,2.1,0.7,7.63,35.86,1.9417,394.5086],
    [17462,1537396012,53.7924,-110.9102,1111.2,485.5,353.8,2.6,0.6,8.35,35.75,1.9425,394.8996],
    [17463,1537396013,53.7931,-110.9103,1111.4,485.6,353.5,2.8,0.4,8.48,35.61,1.9441,394.6504],
    [17464,1537396014,53.7938,-110.9104,1111.6,487.6,353.8,2.6,0.3,7.68,36.08,1.9415,395.0906],
    [17465,1537396015,53.7945,-110.9104,1111.8,491.8,353.6,2.8,0.5,7.58,36.07,1.9428,395.1341],
    [17466,1537396016,53.7951,-110.9105,1111.2,492.9,353.3,3.5,0.4,7.61,36.09,1.9448,393.8397],
    [17467,1537396017,53.7958,-110.9106,1110.3,493.4,353.1,3.9,0.2,8.17,35.56,1.9441,392.6561],
    [17468,1537396018,53.7965,-110.9107,1110.1,494.3,353.3,3.9,0.3,7.61,36.6,1.945,393.3035],
    [17469,1537396019,53.7972,-110.9108,1110.2,495.2,354.2,3.2,0.7,7.68,36.09,1.9436,393.0552],
    [17470,1537396020,53.7979,-110.9108,1110.2,496.2,354.7,2.8,0.4,7.71,36.37,1.9439,392.2655],
    [17471,1537396021,53.7986,-110.9109,1110.3,496.2,355.3,2.4,0.3,8.2,35.84,1.9442,394.5336],
    [17472,1537396022,53.7992,-110.9109,1110.2,494.2,355.0,3.0,0.3,8.13,36.34,1.9443,394.2072],
    [17473,1537396023,53.8,-110.911,1111.2,493.1,354.9,3.2,-0.1,7.91,37.14,1.9474,393.4393],
    [17474,1537396024,53.8006,-110.911,1112.7,491.5,355.5,2.4,-0.8,7.75,36.79,1.9532,393.1115],
    [17475,1537396025,53.8013,-110.9111,1113.8,490.8,356.1,2.0,0.3,8.0,36.89,1.9537,393.8276],
    [17476,1537396026,53.802,-110.9111,1115.0,489.0,355.9,2.1,1.2,7.86,37.78,1.9496,394.3371],
    [17477,1537396027,53.8027,-110.9112,1114.5,485.8,356.8,1.2,0.0,7.83,37.42,1.9471,394.1621],
    [17478,1537396028,53.8034,-110.9112,1113.4,482.5,355.8,2.3,-1.0,7.87,37.61,1.9444,393.6856],
    [17479,1537396029,53.8041,-110.9113,1112.5,480.5,355.1,2.9,-0.9,7.7,37.28,1.9433,394.2652],
    [17480,1537396030,53.8048,-110.9114,1111.9,478.9,354.4,3.8,-0.8,7.9,37.11,1.9417,394.8704],
    [17481,1537396031,53.8054,-110.9114,1111.0,479.3,354.0,4.3,-1.1,7.85,37.61,1.9402,393.5368],
    [17482,1537396032,53.8061,-110.9115,1110.5,477.9,354.5,4.0,-1.2,7.85,36.94,1.9401,394.3395],
    [17483,1537396033,53.8068,-110.9115,1110.6,476.0,354.5,4.3,-1.6,8.64,36.11,1.9404,392.4513],
    [17484,1537396034,53.8075,-110.9116,1110.7,472.6,354.7,4.2,-1.8,8.28,36.07,1.9415,394.0435],
    [17485,1537396035,53.8082,-110.9116,1110.9,467.4,354.9,4.2,-1.5,7.7,35.99,1.9412,393.9741],
    [17486,1537396036,53.8088,-110.9117,1110.8,462.9,354.7,4.4,-1.2,7.79,35.49,1.9392,394.2662],
    [17487,1537396037,53.8095,-110.9117,1110.6,457.3,355.4,3.7,-1.1,8.37,35.34,1.9403,394.4147],
    [17488,1537396038,53.8102,-110.9117,1110.3,454.4,355.5,3.8,-1.0,7.19,35.31,1.9402,394.6081],
    [17489,1537396039,53.8109,-110.9118,1110.4,450.4,354.8,4.7,-0.9,7.88,35.06,1.9427,394.0001],
    [17490,1537396040,53.8116,-110.9118,1111.0,448.7,354.8,4.8,-0.9,7.82,35.56,1.9457,394.8507],
    [17491,1537396041,53.8123,-110.9118,1111.5,448.5,354.6,5.3,-0.7,7.55,34.81,1.9438,394.1045],
    [17492,1537396042,53.8129,-110.9119,1111.3,448.2,354.9,5.1,-0.4,7.23,34.87,1.9436,393.7889],
    [17493,1537396043,53.8136,-110.9119,1110.7,449.7,355.2,5.0,0.1,7.24,35.08,1.9433,393.0477],
    [17494,1537396044,53.8143,-110.9119,1110.7,451.5,355.1,5.1,0.4,7.74,35.26,1.9448,393.0477],
    [17495,1537396045,53.815,-110.9119,1111.2,453.5,354.5,5.6,0.6,8.56,34.95,1.9466,394.029],
    [17496,1537396046,53.8157,-110.9119,1110.9,456.2,355.4,4.7,0.8,7.88,35.49,1.947,394.3745],
    [17497,1537396047,53.8163,-110.912,1110.1,457.1,355.3,4.9,0.7,7.8,35.76,1.9442,394.4442],
    [17498,1537396048,53.817,-110.912,1109.9,455.9,355.9,4.5,0.2,7.87,35.59,1.9403,394.0091],
    [17499,1537396049,53.8177,-110.912,1110.1,456.8,355.1,5.4,-0.2,7.73,35.84,1.9406,394.4133],
    [17500,1537396050,53.8184,-110.912,1109.7,457.4,355.3,5.0,-0.6,7.78,36.02,1.9428,394.7077],
    [17501,1537396051,53.8191,-110.912,1109.9,458.9,355.2,5.0,-1.4,8.18,35.26,1.9455,394.6418],
    [17502,1537396052,53.8197,-110.9121,1112.0,463.3,354.8,5.4,-1.4,7.79,35.52,1.9462,393.9454],
    [17503,1537396053,53.8204,-110.9121,1114.3,468.3,354.7,5.4,-1.1,7.74,36.31,1.9456,393.7741],
    [17504,1537396054,53.8211,-110.9121,1115.5,472.1,353.7,6.7,-0.3,8.4,35.32,1.9455,392.7213],
    [17505,1537396055,53.8218,-110.9121,1116.1,475.8,353.5,6.6,0.4,7.29,36.14,1.9456,393.7526],
    [17506,1537396056,53.8224,-110.9122,1115.6,476.6,354.1,5.7,0.7,7.94,36.44,1.9445,393.5224],
    [17507,1537396057,53.8231,-110.9122,1114.0,477.1,353.2,6.7,0.9,7.65,37.2,1.9421,392.668],
    [17508,1537396058,53.8238,-110.9122,1112.6,476.6,353.9,5.8,0.6,7.89,36.57,1.9417,392.7906],
    [17509,1537396059,53.8245,-110.9123,1111.7,476.7,354.4,5.3,0.8,7.35,36.36,1.9422,393.712],
    [17510,1537396060,53.8252,-110.9123,1111.3,478.1,355.1,4.5,1.1,8.47,35.99,1.9427,393.712],
    [17511,1537396061,53.8258,-110.9123,1110.6,479.3,355.4,4.1,1.3,7.29,36.16,1.9419,394.068],
    [17512,1537396062,53.8265,-110.9124,1109.9,480.1,355.2,4.4,0.8,8.0,36.51,1.9429,394.3043],
    [17513,1537396063,53.8272,-110.9124,1110.2,481.5,354.7,4.8,0.4,7.85,35.77,1.9438,393.0861],
    [17514,1537396064,53.8279,-110.9124,1110.7,483.7,354.6,4.6,0.4,8.26,35.34,1.9437,393.9509],
    [17515,1537396065,53.8286,-110.9125,1110.8,484.7,354.7,4.3,0.0,7.7,35.87,1.9431,394.6877],
    [17516,1537396066,53.8293,-110.9125,1110.6,486.1,355.2,3.5,-0.4,7.63,36.13,1.9434,394.818],
    [17517,1537396067,53.8299,-110.9125,1110.9,487.2,355.6,2.9,-0.2,7.6,36.23,1.9437,394.3298],
    [17518,1537396068,53.8306,-110.9126,1111.5,490.7,355.0,3.3,-0.4,7.57,36.43,1.9441,392.8464],
    [17519,1537396069,53.8313,-110.9126,1111.8,493.1,355.2,3.0,-0.6,7.8,36.67,1.9437,394.7552],
    [17520,1537396070,53.832,-110.9127,1111.7,496.0,354.6,3.4,-1.0,7.64,36.27,1.944,393.744],
    [17521,1537396071,53.8327,-110.9128,1111.5,498.4,355.4,2.2,-1.5,7.39,36.39,1.9434,393.2488],
    [17522,1537396072,53.8333,-110.9128,1111.4,502.1,355.2,2.1,-1.1,7.96,37.1,1.9422,394.6936],
    [17523,1537396073,53.834,-110.9129,1111.5,504.9,355.0,1.9,-0.5,7.45,36.58,1.9423,394.9082],
    [17524,1537396074,53.8347,-110.913,1110.8,505.8,354.6,2.2,0.4,7.72,36.98,1.9447,392.5957],
    [17525,1537396075,53.8354,-110.913,1109.9,505.9,354.7,1.6,0.6,8.01,36.25,1.9436,394.5892],
    [17526,1537396076,53.8361,-110.9131,1110.2,506.9,354.9,1.1,0.8,7.78,36.72,1.9444,394.2067],
    [17527,1537396077,53.8368,-110.9132,1110.5,508.0,354.4,1.8,0.9,7.68,36.84,1.9437,393.5892],
    [17528,1537396078,53.8374,-110.9133,1110.6,508.6,353.1,3.2,0.6,8.01,37.11,1.9446,394.9994],
    [17529,1537396079,53.8381,-110.9134,1110.4,508.2,353.6,2.5,0.7,8.37,36.08,1.9452,394.2648],
    [17530,1537396080,53.8388,-110.9135,1109.8,506.8,353.7,2.4,1.4,7.3,36.8,1.9437,395.235],
    [17531,1537396081,53.8395,-110.9136,1109.3,504.3,354.2,1.8,1.6,8.38,36.5,1.9441,394.4911],
    [17532,1537396082,53.8402,-110.9137,1109.7,503.7,354.3,1.9,1.4,7.36,36.9,1.9446,394.7861],
    [17533,1537396083,53.8408,-110.9137,1110.6,502.9,353.4,3.1,1.1,7.91,36.68,1.9436,395.7497],
    [17534,1537396084,53.8415,-110.9138,1111.6,503.6,352.9,3.7,0.9,8.43,36.71,1.9455,394.2014],
    [17535,1537396085,53.8422,-110.9139,1112.2,504.2,353.1,3.6,0.5,7.57,36.91,1.9447,394.0313],
    [17536,1537396086,53.8429,-110.914,1112.0,504.0,353.3,3.7,0.1,7.86,37.26,1.9449,393.9692],
    [17537,1537396087,53.8436,-110.9141,1112.3,504.3,353.1,4.3,0.2,7.43,36.99,1.9435,395.0037],
    [17538,1537396088,53.8443,-110.9141,1113.7,505.6,353.1,4.6,1.2,7.54,37.37,1.945,394.5098],
    [17539,1537396089,53.8449,-110.9142,1114.7,507.7,353.7,4.2,1.6,7.55,37.86,1.9465,393.7582],
    [17540,1537396090,53.8456,-110.9143,1113.7,506.7,354.5,3.4,0.1,7.61,37.68,1.9463,393.9749],
    [17541,1537396091,53.8463,-110.9143,1112.4,505.4,355.5,1.9,-0.5,8.28,37.32,1.9457,393.9749],
    [17542,1537396092,53.847,-110.9144,1112.0,506.0,354.4,2.7,0.1,7.7,37.53,1.9437,392.7294],
    [17543,1537396093,53.8477,-110.9145,1112.6,508.2,352.7,4.0,0.4,7.22,37.54,1.9447,394.3832],
    [17544,1537396094,53.8484,-110.9146,1113.0,511.7,351.8,4.7,0.4,7.43,37.52,1.9451,394.0316],
    [17545,1537396095,53.8491,-110.9147,1112.3,512.4,352.6,3.7,0.1,7.87,38.21,1.9435,394.1728],
    [17546,1537396096,53.8498,-110.9148,1111.7,513.5,353.0,3.7,0.5,7.92,37.3,1.9438,393.4618],
    [17547,1537396097,53.8505,-110.9148,1111.0,514.7,353.0,4.2,0.3,7.98,37.27,1.9423,395.0196],
    [17548,1537396098,53.8512,-110.9149,1110.3,515.3,353.0,4.5,0.0,7.97,37.69,1.9425,394.4024],
    [17549,1537396099,53.8519,-110.915,1110.1,514.1,354.1,3.3,0.0,7.67,37.51,1.942,393.1813],
    [17550,1537396100,53.8526,-110.9151,1110.5,514.5,354.3,3.5,0.0,7.97,37.24,1.9423,394.4877],
    [17551,1537396101,53.8533,-110.9151,1111.2,516.3,354.7,2.8,-0.4,7.97,37.45,1.942,394.5111],
    [17552,1537396102,53.854,-110.9152,1111.5,518.8,355.7,1.8,-0.2,7.62,37.0,1.9411,392.4617],
    [17553,1537396103,53.8547,-110.9153,1110.8,519.7,355.0,2.6,-0.3,8.41,36.27,1.9436,394.4413],
    [17554,1537396104,53.8554,-110.9153,1110.3,526.3,354.0,4.0,-0.3,7.24,36.66,1.941,394.6525],
    [17555,1537396105,53.8561,-110.9154,1110.8,531.1,353.1,4.6,-0.4,7.62,36.88,1.9384,394.4625],
    [17556,1537396106,53.8568,-110.9155,1111.1,539.3,353.8,4.0,-0.5,7.83,36.57,1.9366,392.2479],
    [17557,1537396107,53.8575,-110.9155,1111.1,545.8,353.9,3.9,-0.8,7.81,36.44,1.9377,393.9706],
    [17558,1537396108,53.8582,-110.9156,1111.2,555.2,353.8,4.3,-1.4,7.04,35.25,1.9395,394.2126],
    [17559,1537396109,53.8589,-110.9157,1111.5,562.6,353.6,4.6,-1.1,7.67,35.24,1.9396,393.4581],
    [17560,1537396110,53.8596,-110.9157,1111.6,573.9,353.4,5.0,-1.0,7.88,34.15,1.9416,393.5794],
    [17561,1537396111,53.8602,-110.9158,1111.6,580.9,354.3,3.6,-1.0,7.53,34.27,1.9429,391.8087],
    [17562,1537396112,53.8609,-110.9158,1111.7,585.7,354.9,3.1,-0.6,8.56,33.95,1.9425,394.8588],
    [17563,1537396113,53.8616,-110.9159,1112.0,586.0,354.4,3.7,-0.4,7.97,34.19,1.9429,393.4128],
    [17564,1537396114,53.8623,-110.916,1112.7,584.9,354.4,3.6,-0.3,8.12,34.03,1.9436,393.2406],
    [17565,1537396115,53.863,-110.916,1112.8,583.8,354.5,3.5,-0.3,8.06,34.17,1.9419,394.0912],
    [17566,1537396116,53.8637,-110.9161,1111.7,580.1,353.8,4.5,-0.1,7.41,34.74,1.9394,393.9969],
    [17567,1537396117,53.8644,-110.9161,1110.8,574.5,353.4,4.7,0.2,7.93,34.67,1.9398,394.7595],
    [17568,1537396118,53.8651,-110.9162,1110.7,567.4,353.7,4.3,-0.1,8.11,34.42,1.937,393.1451],
    [17569,1537396119,53.8658,-110.9163,1110.4,561.7,354.0,4.0,-0.3,7.93,34.51,1.9338,392.3591],
    [17570,1537396120,53.8664,-110.9163,1110.0,553.0,354.1,3.8,-0.3,8.04,34.63,1.9345,392.5214],
    [17571,1537396121,53.8671,-110.9164,1109.4,545.0,354.4,3.5,-0.3,8.15,33.1,1.9354,392.2214],
    [17572,1537396122,53.8678,-110.9165,1109.2,547.7,354.4,3.5,-0.1,8.19,32.66,1.9346,392.4008],
    [17573,1537396123,53.8685,-110.9165,1109.3,555.8,354.1,3.9,0.0,7.57,32.28,1.9341,393.3882],
    [17574,1537396124,53.8692,-110.9166,1109.6,562.1,353.9,4.1,-0.1,7.97,31.65,1.935,394.6003],
    [17575,1537396125,53.8699,-110.9166,1110.1,557.1,353.8,4.2,0.0,8.02,31.95,1.9371,394.0764],
    [17576,1537396126,53.8706,-110.9167,1110.6,545.4,353.7,4.3,0.2,7.83,31.15,1.9365,393.7192],
    [17577,1537396127,53.8712,-110.9168,1110.6,537.5,354.2,3.8,0.3,7.96,30.76,1.9355,392.9648],
    [17578,1537396128,53.8719,-110.9168,1110.2,531.8,354.2,3.8,0.4,8.11,30.24,1.9365,394.3117],
    [17579,1537396129,53.8726,-110.9169,1109.8,527.1,354.0,4.2,0.1,7.76,30.49,1.9381,393.2207],
    [17580,1537396130,53.8733,-110.9169,1109.7,525.4,354.0,4.2,-0.1,8.0,30.34,1.9378,393.8888],
    [17581,1537396131,53.874,-110.917,1109.8,525.8,354.3,3.9,-0.3,8.17,30.1,1.9369,394.5244],
    [17582,1537396132,53.8747,-110.917,1110.1,527.1,354.7,3.7,-0.3,7.88,30.63,1.9367,393.4194],
    [17583,1537396133,53.8754,-110.9171,1110.5,530.5,354.4,4.0,-0.2,8.35,30.11,1.9393,395.0993],
    [17584,1537396134,53.8761,-110.9172,1110.5,534.2,354.6,3.8,-0.1,7.95,30.93,1.9388,394.5057],
    [17585,1537396135,53.8767,-110.9172,1110.0,538.6,354.6,3.9,0.1,8.01,30.39,1.9391,394.5057],
    [17586,1537396136,53.8774,-110.9173,1109.3,543.0,354.9,3.5,0.2,8.01,29.82,1.9382,393.6601],
    [17587,1537396137,53.8781,-110.9173,1109.3,544.2,354.5,4.0,0.0,7.65,30.47,1.9381,394.2478],
    [17588,1537396138,53.8788,-110.9174,1109.9,541.8,354.5,4.0,-0.5,8.04,30.52,1.9372,395.2728],
    [17589,1537396139,53.8795,-110.9174,1110.6,534.6,354.2,4.3,-0.7,8.29,29.99,1.9392,394.4665],
    [17590,1537396140,53.8801,-110.9175,1110.9,528.6,354.4,3.9,-0.5,8.1,30.42,1.9401,394.8484],
    [17591,1537396141,53.8808,-110.9175,1110.6,523.4,354.1,4.3,-0.4,7.86,30.56,1.9401,394.9622],
    [17592,1537396142,53.8815,-110.9176,1110.3,521.3,354.1,4.2,-0.5,8.13,29.72,1.941,394.518],
    [17593,1537396143,53.8822,-110.9176,1111.0,521.0,354.5,3.9,-0.4,7.59,31.19,1.9398,394.0732],
    [17594,1537396144,53.8829,-110.9177,1112.2,522.2,353.7,5.0,-0.2,7.55,30.41,1.9388,395.3206],
    [17595,1537396145,53.8835,-110.9177,1113.4,523.4,353.9,4.6,-0.3,7.66,30.67,1.9404,394.0042],
    [17596,1537396146,53.8842,-110.9178,1114.1,523.4,355.2,3.1,-0.5,7.6,31.08,1.9414,393.9018],
    [17597,1537396147,53.8849,-110.9178,1113.6,522.6,356.3,1.9,-1.0,7.16,31.14,1.9414,393.8877],
    [17598,1537396148,53.8856,-110.9179,1113.4,523.7,355.2,3.5,-1.1,8.62,30.62,1.9402,394.2733],
    [17599,1537396149,53.8863,-110.9179,1112.8,524.8,353.9,4.6,-0.6,7.25,31.44,1.9403,394.2733],
    [17600,1537396150,53.887,-110.918,1111.3,528.3,354.5,3.6,-0.3,7.84,32.06,1.9399,393.6114],
    [17601,1537396151,53.8877,-110.918,1110.5,528.6,353.7,4.4,0.0,7.88,32.2,1.9398,393.6618],
    [17602,1537396152,53.8884,-110.9181,1110.6,526.0,353.8,4.0,0.4,7.74,32.06,1.941,391.4876],
    [17603,1537396153,53.8891,-110.9182,1110.3,521.9,354.7,2.9,0.6,7.95,32.67,1.9406,392.9434],
    [17604,1537396154,53.8897,-110.9182,1109.2,515.0,354.6,3.2,0.4,8.38,31.89,1.9407,392.9969],
    [17605,1537396155,53.8904,-110.9183,1108.2,512.2,354.7,2.8,0.2,7.84,32.81,1.9411,395.6738],
    [17606,1537396156,53.8911,-110.9184,1108.4,510.4,354.9,2.6,0.0,7.83,33.14,1.9404,394.1883],
    [17607,1537396157,53.8919,-110.9184,1109.5,510.9,354.5,3.1,-0.3,7.73,32.48,1.9401,393.8146],
    [17608,1537396158,53.8926,-110.9185,1110.4,510.5,354.3,3.1,0.0,7.92,32.94,1.9398,394.1478],
    [17609,1537396159,53.8933,-110.9186,1111.5,510.3,353.9,3.4,0.9,7.62,32.75,1.9397,392.1165],
    [17610,1537396160,53.894,-110.9186,1112.4,509.1,354.5,2.5,0.5,7.82,33.01,1.9421,393.3912],
    [17611,1537396161,53.8947,-110.9187,1113.1,508.1,355.0,2.2,0.3,8.46,32.45,1.9415,393.9457],
    [17612,1537396162,53.8954,-110.9188,1113.6,507.6,354.2,3.3,0.3,8.08,32.76,1.9429,392.9515],
    [17613,1537396163,53.8961,-110.9189,1114.1,507.2,354.2,3.1,0.3,7.69,33.53,1.9443,392.4886],
    [17614,1537396164,53.8968,-110.9189,1114.1,504.9,353.6,4.1,-0.1,8.07,33.95,1.9429,393.9419],
    [17615,1537396165,53.8975,-110.919,1113.2,502.9,353.9,3.6,-1.4,8.03,33.38,1.942,393.965],
    [17616,1537396166,53.8982,-110.9191,1112.5,500.4,355.6,1.8,-1.6,7.8,33.82,1.9414,393.9695],
    [17617,1537396167,53.8989,-110.9192,1112.2,498.1,355.2,2.5,-1.4,7.75,34.43,1.9419,393.2888],
    [17618,1537396168,53.8996,-110.9192,1112.1,496.2,355.6,2.2,-1.4,7.68,34.36,1.9412,393.6784],
    [17619,1537396169,53.9003,-110.9193,1111.9,492.9,354.9,3.2,-1.0,7.25,34.38,1.9414,392.5904],
    [17620,1537396170,53.9011,-110.9193,1111.9,491.4,355.1,2.7,-0.4,8.18,33.98,1.9417,392.6246],
    [17621,1537396171,53.9018,-110.9194,1112.3,490.4,354.7,3.1,0.1,8.34,34.36,1.9418,393.9881],
    [17622,1537396172,53.9025,-110.9195,1112.3,489.3,354.5,2.6,0.0,7.88,34.13,1.9426,392.8498],
    [17623,1537396173,53.9032,-110.9196,1111.6,487.3,354.7,1.9,0.7,7.8,34.37,1.9445,393.6975],
    [17624,1537396174,53.9039,-110.9196,1111.3,486.0,353.8,2.1,0.6,7.9,35.16,1.9453,393.9073],
    [17625,1537396175,53.9047,-110.9197,1110.7,484.7,354.6,0.9,0.0,8.35,34.04,1.9443,391.9605],
    [17626,1537396176,53.9054,-110.9199,1110.5,482.5,353.7,1.8,0.6,7.56,34.95,1.9432,393.6803],
    [17627,1537396177,53.9061,-110.92,1111.4,482.6,353.2,2.2,1.3,8.46,34.78,1.9438,393.6181],
    [17628,1537396178,53.9068,-110.9201,1111.7,481.6,353.2,2.1,1.6,7.95,35.29,1.9432,393.4888],
    [17629,1537396179,53.9075,-110.9202,1111.3,480.2,353.7,1.8,1.6,7.72,35.61,1.9438,394.311],
    [17630,1537396180,53.9083,-110.9203,1111.3,480.0,354.4,0.9,2.0,7.25,35.48,1.9448,391.4],
    [17631,1537396181,53.909,-110.9204,1112.0,480.0,355.8,-0.8,2.0,7.97,35.54,1.9448,393.4362],
    [17632,1537396182,53.9097,-110.9205,1112.4,480.4,356.2,-0.9,1.9,7.95,35.7,1.9451,392.6308],
    [17633,1537396183,53.9105,-110.9206,1113.3,481.0,354.8,1.5,0.5,7.68,35.98,1.9436,393.2046],
    [17634,1537396184,53.9112,-110.9207,1112.5,479.5,352.1,5.3,-0.3,8.07,36.28,1.9429,393.6961],
    [17635,1537396185,53.9119,-110.9208,1111.3,478.3,352.0,4.9,-0.8,8.01,36.15,1.9443,393.5129],
    [17636,1537396186,53.9126,-110.9209,1111.2,477.3,354.5,1.5,-1.8,7.75,36.74,1.9452,394.3896],
    [17637,1537396187,53.9134,-110.921,1112.0,475.2,354.0,2.5,-1.0,7.5,36.35,1.9447,393.8841],
    [17638,1537396188,53.9141,-110.9211,1112.3,474.0,353.2,3.6,-0.2,7.89,36.36,1.9458,393.3457],
    [17639,1537396189,53.9149,-110.9211,1112.5,471.4,352.1,5.5,-0.2,8.48,36.45,1.945,392.902],
    [17640,1537396190,53.9156,-110.9212,1112.1,469.1,353.3,4.4,-1.0,7.96,36.77,1.9452,392.902],
    [17641,1537396191,53.9163,-110.9213,1111.6,467.6,354.6,3.8,-0.9,8.18,36.34,1.9466,394.7663],
    [17642,1537396192,53.9171,-110.9214,1110.8,465.8,355.2,3.7,-1.1,7.98,36.96,1.9496,394.1495],
    [17643,1537396193,53.9178,-110.9214,1109.9,463.9,356.5,2.7,-0.6,7.6,36.87,1.9451,393.822],
    [17644,1537396194,53.9186,-110.9214,1109.4,462.3,356.3,3.4,0.4,7.32,36.95,1.9449,393.3588],
    [17645,1537396195,53.9193,-110.9215,1109.3,460.9,356.0,3.1,0.1,7.94,37.69,1.9452,393.6064],
    [17646,1537396196,53.92,-110.9215,1109.7,459.7,355.6,3.0,-0.2,7.97,37.44,1.9446,393.3733],
    [17647,1537396197,53.9208,-110.9216,1109.7,458.8,354.3,3.9,0.0,7.74,37.89,1.9455,393.2765],
    [17648,1537396198,53.9215,-110.9216,1109.4,456.3,353.9,3.9,0.0,8.12,37.34,1.9461,394.3547],
    [17649,1537396199,53.9222,-110.9217,1109.3,455.0,353.8,3.9,0.1,8.73,37.21,1.947,394.0958],
    [17650,1537396200,53.923,-110.9218,1109.9,453.9,354.1,3.6,0.4,7.91,37.1,1.9452,393.3362],
    [17651,1537396201,53.9237,-110.9219,1110.2,452.9,354.6,3.3,0.5,7.53,37.4,1.9442,394.2943],
    [17652,1537396202,53.9244,-110.9219,1110.2,451.4,355.0,3.1,0.5,7.55,37.39,1.9433,394.02],
    [17653,1537396203,53.9251,-110.922,1110.3,451.3,355.2,2.8,0.4,7.88,37.52,1.9435,393.3567],
    [17654,1537396204,53.9259,-110.922,1110.5,450.5,355.4,2.8,0.0,8.05,37.75,1.9424,393.255],
    [17655,1537396205,53.9266,-110.9221,1110.9,450.6,355.2,3.2,0.1,8.8,36.88,1.9425,391.2935],
    [17656,1537396206,53.9273,-110.9221,1111.7,450.4,355.2,3.3,0.3,8.02,37.0,1.9433,392.2288],
    [17657,1537396207,53.928,-110.9222,1112.4,450.4,355.1,3.5,0.3,7.72,36.85,1.9428,392.3129],
    [17658,1537396208,53.9287,-110.9222,1111.9,447.9,354.7,4.0,0.5,8.22,36.09,1.9445,392.9014],
    [17659,1537396209,53.9295,-110.9223,1110.6,445.6,354.7,4.3,0.7,7.86,36.77,1.9411,392.3747],
    [17660,1537396210,53.9302,-110.9223,1110.3,445.3,354.4,4.6,0.4,8.18,36.36,1.9402,392.1559],
    [17661,1537396211,53.9309,-110.9224,1111.4,445.4,355.2,3.6,0.1,8.55,35.43,1.9441,394.4838],
    [17662,1537396212,53.9316,-110.9224,1113.2,447.2,356.3,2.3,0.2,7.76,35.95,1.9452,393.3577],
    [17663,1537396213,53.9323,-110.9225,1114.5,448.5,356.7,2.1,0.4,7.66,36.25,1.9469,393.6445],
    [17664,1537396214,53.933,-110.9225,1114.7,447.7,356.0,3.0,0.6,8.05,36.58,1.9473,393.8219],
    [17665,1537396215,53.9337,-110.9226,1114.6,447.6,355.9,3.0,0.7,8.42,35.88,1.946,391.9977],
    [17666,1537396216,53.9345,-110.9226,1114.2,447.2,355.5,3.8,0.2,7.65,36.34,1.9439,394.9505],
    [17667,1537396217,53.9352,-110.9226,1113.2,446.2,355.2,4.3,0.2,7.85,36.44,1.9414,393.4692],
    [17668,1537396218,53.9359,-110.9227,1111.8,444.8,355.1,4.6,0.8,8.36,36.22,1.9431,393.4692],
    [17669,1537396219,53.9366,-110.9227,1110.8,443.7,355.0,4.8,1.0,8.4,36.28,1.9417,392.744],
    [17670,1537396220,53.9373,-110.9227,1110.0,444.1,355.4,4.3,0.8,8.04,36.38,1.9399,393.0746],
    [17671,1537396221,53.938,-110.9228,1109.7,444.6,355.5,4.2,1.2,8.11,35.92,1.9407,392.6778],
    [17672,1537396222,53.9388,-110.9228,1109.1,445.1,356.0,3.7,1.3,7.98,35.51,1.9413,392.6778],
    [17673,1537396223,53.9395,-110.9228,1108.5,445.5,355.9,3.7,0.9,8.66,34.84,1.9412,394.2411],
    [17674,1537396224,53.9402,-110.9228,1108.4,446.4,355.9,3.8,0.8,7.87,35.02,1.9434,393.417],
    [17675,1537396225,53.9409,-110.9229,1108.8,446.8,355.8,3.8,0.5,7.92,34.77,1.9448,394.3395],
    [17676,1537396226,53.9416,-110.9229,1109.5,447.5,355.5,4.1,0.4,8.44,34.6,1.9431,393.2915],
    [17677,1537396227,53.9423,-110.9229,1109.8,447.8,355.5,3.9,0.4,8.03,34.87,1.9431,393.1269],
    [17678,1537396228,53.943,-110.923,1109.9,447.9,355.8,3.5,0.4,8.1,34.44,1.9438,393.9983],
    [17679,1537396229,53.9438,-110.923,1110.0,448.0,355.6,3.9,0.3,8.05,35.2,1.9436,393.3036],
    [17680,1537396230,53.9445,-110.923,1110.0,447.0,355.3,4.3,0.4,8.07,35.27,1.9437,394.602],
    [17681,1537396231,53.9452,-110.9231,1110.1,447.3,355.0,4.6,0.4,7.93,34.93,1.9443,392.9904],
    [17682,1537396232,53.9459,-110.9231,1110.0,445.6,354.9,4.5,0.6,8.41,34.3,1.9451,393.1463],
    [17683,1537396233,53.9466,-110.9232,1110.1,444.9,354.8,4.6,0.8,7.78,35.05,1.9451,393.4624],
    [17684,1537396234,53.9473,-110.9232,1110.8,444.6,354.6,4.7,0.6,8.07,35.58,1.9446,393.4624],
    [17685,1537396235,53.948,-110.9232,1111.0,444.0,355.0,4.3,0.9,7.88,34.79,1.9468,393.5355],
    [17686,1537396236,53.9487,-110.9233,1110.7,442.0,354.7,4.7,1.1,7.89,35.49,1.9436,394.1148],
    [17687,1537396237,53.9494,-110.9233,1110.3,441.5,354.6,5.1,1.0,8.14,35.02,1.9422,395.2235],
    [17688,1537396238,53.9501,-110.9233,1110.5,440.5,354.1,5.5,1.1,8.04,35.72,1.9448,393.8773],
    [17689,1537396239,53.9508,-110.9234,1111.3,441.3,356.4,3.0,1.0,8.07,35.2,1.9443,393.1978],
    [17690,1537396240,53.9515,-110.9234,1111.5,440.5,356.4,3.1,1.4,8.38,35.53,1.9464,393.762],
    [17691,1537396241,53.9522,-110.9234,1111.4,439.4,356.1,3.3,1.4,7.98,35.77,1.9457,393.0688],
    [17692,1537396242,53.9529,-110.9235,1110.7,437.7,355.2,4.4,1.4,7.47,36.02,1.9441,393.3854],
    [17693,1537396243,53.9536,-110.9235,1109.2,435.7,354.8,4.3,1.1,8.46,35.64,1.9431,393.4915],
    [17694,1537396244,53.9543,-110.9235,1108.2,434.2,354.6,4.4,0.7,8.03,36.66,1.9439,394.0236],
    [17695,1537396245,53.955,-110.9236,1108.4,434.4,354.3,4.5,0.4,7.98,35.72,1.9436,394.0236],
    [17696,1537396246,53.9557,-110.9236,1108.1,434.1,355.0,3.9,0.1,8.16,36.6,1.9443,394.4699],
    [17697,1537396247,53.9564,-110.9237,1107.4,434.4,354.7,4.5,0.2,8.55,35.99,1.9442,394.0256],
    [17698,1537396248,53.9571,-110.9237,1108.1,435.1,354.8,4.6,-0.1,7.99,36.34,1.9453,393.9576],
    [17699,1537396249,53.9578,-110.9238,1109.8,437.8,355.4,4.1,0.3,7.96,36.11,1.9444,393.2278],
    [17700,1537396250,53.9585,-110.9238,1111.4,439.4,355.5,4.1,1.0,7.7,36.05,1.9472,393.6394],
    [17701,1537396251,53.9592,-110.9238,1112.1,440.1,355.6,4.4,1.3,7.9,36.47,1.9461,394.0845],
    [17702,1537396252,53.9599,-110.9238,1111.9,439.9,356.3,3.7,1.8,7.84,36.66,1.9447,393.9773],
    [17703,1537396253,53.9606,-110.9238,1112.1,439.1,355.4,4.6,1.7,7.98,37.23,1.9461,393.7595],
    [17704,1537396254,53.9613,-110.9239,1112.5,439.5,355.7,3.8,1.5,7.49,36.93,1.9456,393.3795],
    [17705,1537396255,53.9621,-110.9239,1113.2,439.2,355.8,3.2,2.2,7.77,36.82,1.9454,392.6653],
    [17706,1537396256,53.9628,-110.9239,1112.7,437.7,355.8,2.9,2.6,8.65,36.8,1.9449,393.6964],
    [17707,1537396257,53.9635,-110.924,1111.0,435.1,355.3,3.4,2.4,7.78,37.44,1.9443,393.8789],
    [17708,1537396258,53.9642,-110.924,1109.4,433.4,354.5,4.1,2.0,7.56,37.08,1.9447,393.0705],
    [17709,1537396259,53.9649,-110.9241,1108.5,432.7,354.7,3.7,1.9,7.92,36.98,1.9435,393.6836],
    [17710,1537396260,53.9656,-110.9241,1107.6,432.6,354.9,3.5,2.1,7.91,37.51,1.9435,393.7204],
    [17711,1537396261,53.9663,-110.9242,1107.0,432.0,354.4,4.4,2.3,8.86,36.75,1.9404,393.5305],
    [17712,1537396262,53.9671,-110.9242,1107.3,432.3,353.8,5.4,1.7,7.86,36.68,1.9414,393.0783],
    [17713,1537396263,53.9678,-110.9243,1108.3,433.3,353.9,5.4,1.4,7.7,36.83,1.9416,392.8534],
    [17714,1537396264,53.9685,-110.9243,1108.9,434.2,354.2,5.6,1.4,7.99,36.83,1.9433,394.0211],
    [17715,1537396265,53.9692,-110.9244,1109.5,435.5,354.1,5.9,1.4,7.89,36.81,1.943,393.1227],
    [17716,1537396266,53.9699,-110.9244,1110.5,436.5,355.7,4.2,1.3,7.24,36.12,1.9424,393.8436],
    [17717,1537396267,53.9707,-110.9244,1111.5,437.5,357.1,2.8,1.5,8.08,35.91,1.9433,394.1784],
    [17718,1537396268,53.9714,-110.9244,1111.7,437.7,357.4,2.4,1.5,8.16,36.35,1.943,393.7212],
    [17719,1537396269,53.9721,-110.9245,1111.5,437.5,357.5,2.0,1.1,8.03,36.25,1.9445,393.6089],
    [17720,1537396270,53.9728,-110.9245,1112.2,438.2,356.0,3.8,0.9,8.14,35.73,1.9452,393.8411],
    [17721,1537396271,53.9735,-110.9245,1113.3,439.3,355.9,3.4,1.1,8.62,35.78,1.9434,393.6353],
    [17722,1537396272,53.9743,-110.9245,1113.7,440.7,355.9,3.3,1.1,7.73,35.82,1.9432,393.371],
    [17723,1537396273,53.975,-110.9246,1112.7,439.7,355.7,3.4,0.5,8.69,35.86,1.9447,393.1529],
    [17724,1537396274,53.9757,-110.9246,1112.8,439.8,355.7,3.2,0.2,7.85,36.31,1.9428,392.8787],
    [17725,1537396275,53.9765,-110.9247,1113.3,441.3,356.6,1.9,0.1,7.72,36.52,1.9447,391.5439],
    [17726,1537396276,53.9772,-110.9247,1113.0,441.0,357.0,1.3,0.2,7.75,37.2,1.944,391.3973],
    [17727,1537396277,53.9779,-110.9248,1112.8,441.8,357.4,0.9,0.4,7.78,36.79,1.9432,393.968],
    [17728,1537396278,53.9786,-110.9248,1112.9,442.5,357.9,1.0,0.8,8.84,36.36,1.9448,394.0362],
    [17729,1537396279,53.9794,-110.9248,1113.1,443.1,356.4,3.4,0.9,8.21,36.67,1.9437,391.6192],
    [17730,1537396280,53.9801,-110.9249,1111.6,441.6,356.6,2.9,0.1,8.79,36.32,1.9435,393.2404],
    [17731,1537396281,53.9809,-110.9249,1109.2,439.2,356.6,2.9,0.1,8.1,36.74,1.9434,392.7144],
    [17732,1537396282,53.9816,-110.9249,1107.8,437.8,356.0,3.1,0.7,7.69,36.82,1.9438,394.1242],
    [17733,1537396283,53.9823,-110.925,1107.2,436.7,356.2,2.7,1.0,8.09,37.57,1.9446,393.046],
    [17734,1537396284,53.983,-110.925,1107.6,436.6,355.7,3.0,1.2,7.74,37.16,1.9437,393.4953],
    [17735,1537396285,53.9838,-110.925,1108.5,436.5,355.5,3.0,1.4,7.91,36.71,1.9429,393.1055],
    [17736,1537396286,53.9845,-110.9251,1108.9,435.9,355.8,2.6,1.2,8.2,36.63,1.9436,393.209],
    [17737,1537396287,53.9853,-110.9251,1108.9,435.9,355.9,2.6,1.2,8.25,35.86,1.9451,392.9296],
    [17738,1537396288,53.986,-110.9252,1109.2,435.2,356.4,2.1,0.6,8.06,36.94,1.9459,392.8484],
    [17739,1537396289,53.9868,-110.9252,1109.3,434.6,356.7,2.2,0.1,8.02,36.07,1.948,392.5481],
    [17740,1537396290,53.9875,-110.9253,1110.8,435.8,356.2,3.1,0.5,8.05,36.88,1.9483,392.5481],
    [17741,1537396291,53.9882,-110.9253,1112.3,437.3,356.7,2.8,0.7,8.4,36.57,1.9486,392.4693],
    [17742,1537396292,53.989,-110.9253,1112.7,437.7,356.8,2.8,0.4,8.11,37.08,1.9468,393.9165],
    [17743,1537396293,53.9897,-110.9254,1112.5,437.5,357.0,2.6,0.2,7.93,37.47,1.9478,393.1358],
    [17744,1537396294,53.9905,-110.9254,1112.0,438.0,357.1,2.5,0.7,8.14,36.94,1.9466,392.8022],
    [17745,1537396295,53.9912,-110.9254,1112.3,439.3,356.6,3.1,0.7,8.08,37.1,1.945,393.4949],
    [17746,1537396296,53.9919,-110.9254,1112.8,439.8,356.7,2.6,0.1,8.29,36.85,1.9443,393.9124],
    [17747,1537396297,53.9927,-110.9255,1112.7,440.7,356.9,2.3,0.5,7.92,37.17,1.9445,393.9124],
    [17748,1537396298,53.9934,-110.9255,1112.7,441.7,356.8,1.8,1.3,8.43,36.7,1.9465,394.68],
    [17749,1537396299,53.9941,-110.9256,1112.9,443.0,357.4,0.9,1.0,8.31,37.03,1.947,392.5314],
    [17750,1537396300,53.9949,-110.9256,1112.6,443.5,356.4,1.6,0.7,8.05,37.33,1.9455,393.3272],
    [17751,1537396301,53.9956,-110.9257,1111.8,443.8,356.6,1.0,0.8,8.42,37.79,1.946,393.8603],
    [17752,1537396302,53.9964,-110.9257,1110.7,443.6,355.8,1.8,1.2,8.5,37.07,1.9459,392.5615],
    [17753,1537396303,53.9971,-110.9258,1109.6,444.2,355.2,2.3,0.9,7.89,37.83,1.9459,391.6878],
    [17754,1537396304,53.9978,-110.9259,1109.0,444.2,355.1,2.5,1.2,7.71,38.02,1.9464,394.1661],
    [17755,1537396305,53.9986,-110.9259,1109.6,445.3,353.8,4.3,1.7,8.11,38.32,1.9442,394.1661],
    [17756,1537396306,53.9993,-110.926,1110.0,446.9,355.0,2.7,1.1,8.08,38.15,1.9446,393.0756],
    [17757,1537396307,54.0001,-110.9261,1109.5,446.6,355.5,2.7,1.2,7.66,38.22,1.9442,394.3417],
    [17758,1537396308,54.0008,-110.9261,1108.6,446.8,354.7,4.0,1.8,8.05,37.91,1.9451,392.0297],
    [17759,1537396309,54.0015,-110.9262,1107.4,446.3,354.9,3.7,2.7,8.04,38.19,1.9444,392.4575],
    [17760,1537396310,54.0023,-110.9262,1107.1,449.3,354.3,4.0,2.7,8.11,38.58,1.9463,393.8937],
    [17761,1537396311,54.003,-110.9263,1107.0,451.4,354.5,3.6,1.9,8.23,38.14,1.9452,393.1772],
    [17762,1537396312,54.0037,-110.9263,1107.7,458.2,354.9,2.9,1.4,7.84,38.28,1.9444,391.8524],
    [17763,1537396313,54.0044,-110.9264,1108.4,462.8,355.7,2.2,0.6,8.06,37.8,1.9444,394.3001],
    [17764,1537396314,54.0052,-110.9265,1108.4,464.2,356.2,1.7,0.6,8.05,37.77,1.9459,393.4075],
    [17765,1537396315,54.0059,-110.9265,1108.7,465.6,356.1,1.9,0.9,7.78,37.48,1.9458,393.0015],
    [17766,1537396316,54.0066,-110.9266,1109.4,466.3,356.1,1.8,0.8,7.7,37.62,1.9448,392.9212],
    [17767,1537396317,54.0073,-110.9266,1109.4,466.1,356.5,1.4,1.0,8.4,37.55,1.9442,392.6602],
    [17768,1537396318,54.0081,-110.9267,1109.0,466.5,356.0,1.9,0.9,8.45,36.95,1.9416,391.9724],
    [17769,1537396319,54.0088,-110.9267,1109.6,468.7,355.4,2.8,0.7,7.89,37.36,1.9436,393.5206],
    [17770,1537396320,54.0095,-110.9268,1110.8,472.9,355.3,2.6,1.0,8.08,37.53,1.9459,394.1295],
    [17771,1537396321,54.0102,-110.9268,1111.2,474.4,355.6,2.4,0.8,8.43,36.89,1.9458,393.105],
    [17772,1537396322,54.0109,-110.9269,1111.2,476.0,354.7,3.4,0.5,8.08,37.13,1.9457,393.1097],
    [17773,1537396323,54.0116,-110.927,1111.2,476.5,355.1,2.9,0.6,7.95,36.89,1.9437,392.3306],
    [17774,1537396324,54.0124,-110.927,1110.9,478.0,354.9,3.3,0.9,7.83,37.15,1.9435,392.8551],
    [17775,1537396325,54.0131,-110.9271,1110.6,479.7,355.8,2.5,0.7,8.35,36.43,1.9426,393.9062],
    [17776,1537396326,54.0138,-110.9271,1110.6,480.6,355.6,3.6,0.8,8.22,36.69,1.9428,394.2895],
    [17777,1537396327,54.0144,-110.9272,1110.6,480.5,356.0,3.9,1.1,8.22,36.79,1.9425,393.8846],
    [17778,1537396328,54.0152,-110.9272,1110.2,481.2,357.4,3.8,1.0,7.81,36.79,1.9456,393.977],
    [17779,1537396329,54.0159,-110.9271,1109.2,481.2,359.5,3.7,0.7,8.28,36.27,1.9452,392.2014],
    [17780,1537396330,54.0166,-110.9271,1108.4,480.3,362.3,3.5,0.4,8.1,36.69,1.9449,392.8841],
    [17781,1537396331,54.0173,-110.9269,1107.8,482.3,5.5,3.2,0.4,7.99,37.26,1.9445,394.7134],
    [17782,1537396332,54.018,-110.9267,1107.4,485.8,8.4,3.4,0.7,8.11,37.24,1.943,392.255],
    [17783,1537396333,54.0188,-110.9265,1107.5,491.2,11.9,3.3,1.0,8.07,36.72,1.9439,393.5122],
    [17784,1537396334,54.0194,-110.9262,1107.9,489.5,15.2,3.0,1.4,8.62,36.13,1.946,394.1926],
    [17785,1537396335,54.0201,-110.9257,1108.8,486.0,18.7,2.9,1.2,8.46,36.56,1.9435,393.5861],
    [17786,1537396336,54.0208,-110.9253,1109.5,486.2,21.8,3.1,1.2,8.78,36.33,1.9445,393.5861],
    [17787,1537396337,54.0214,-110.9248,1110.3,487.0,24.6,3.4,1.6,8.05,37.11,1.9464,393.7522],
    [17788,1537396338,54.022,-110.9242,1110.4,487.7,27.5,3.2,1.7,7.86,36.88,1.9439,393.1432],
    [17789,1537396339,54.0227,-110.9236,1110.1,490.9,30.4,3.8,1.6,7.97,37.58,1.942,393.1432],
    [17790,1537396340,54.0233,-110.9229,1109.8,493.1,33.2,4.1,1.2,8.06,36.68,1.9428,393.1442],
    [17791,1537396341,54.0239,-110.9222,1109.7,496.7,36.2,4.2,0.7,8.07,37.09,1.9417,394.5147],
    [17792,1537396342,54.0244,-110.9214,1109.7,499.7,39.4,3.7,0.9,8.03,36.67,1.9433,393.3815],
    [17793,1537396343,54.025,-110.9205,1109.7,502.7,43.3,3.3,1.4,8.69,35.92,1.9444,393.3815],
    [17794,1537396344,54.0255,-110.9196,1109.8,506.8,46.3,3.5,1.4,7.96,36.4,1.9452,392.6544],
    [17795,1537396345,54.0259,-110.9188,1109.9,511.8,49.3,3.3,1.5,8.12,36.32,1.9435,392.4709],
    [17796,1537396346,54.0264,-110.9178,1109.7,519.0,52.6,2.9,1.4,8.44,35.68,1.9432,392.2811],
    [17797,1537396347,54.0268,-110.9168,1109.7,527.7,55.3,2.9,0.8,7.61,36.59,1.9415,392.0157],
    [17798,1537396348,54.0272,-110.9157,1110.1,538.7,58.8,3.0,0.9,8.07,36.26,1.9433,391.6703],
    [17799,1537396349,54.0275,-110.9147,1110.5,549.5,61.3,3.5,0.6,8.07,36.69,1.9441,392.8796],
    [17800,1537396350,54.0279,-110.9136,1110.8,557.4,63.8,3.7,0.2,8.04,36.15,1.9434,391.9916],
    [17801,1537396351,54.0282,-110.9124,1110.7,565.2,67.3,3.7,0.7,8.34,36.0,1.9438,392.5064],
    [17802,1537396352,54.0284,-110.9113,1110.4,571.1,70.2,3.7,0.7,8.1,35.96,1.9432,394.6903],
    [17803,1537396353,54.0286,-110.9101,1110.3,571.3,73.1,3.4,0.7,7.66,36.25,1.9418,394.3781],
    [17804,1537396354,54.0288,-110.9089,1110.7,571.7,75.2,3.5,0.1,7.95,36.23,1.9425,389.462],
    [17805,1537396355,54.029,-110.9077,1111.1,572.1,76.8,3.7,-0.2,7.87,36.12,1.9431,392.9354],
    [17806,1537396356,54.0291,-110.9065,1111.2,572.2,78.8,3.9,0.1,8.11,36.64,1.9417,393.2813],
    [17807,1537396357,54.0293,-110.9053,1111.0,572.0,80.5,3.7,0.1,8.62,35.31,1.9413,393.8073],
    [17808,1537396358,54.0294,-110.9041,1111.0,564.7,82.6,3.3,0.2,8.5,35.36,1.9428,392.2066],
    [17809,1537396359,54.0294,-110.9029,1111.1,556.1,84.4,3.1,0.1,8.03,35.53,1.9433,393.3444],
    [17810,1537396360,54.0295,-110.9017,1111.3,545.7,86.1,3.4,0.2,8.7,35.05,1.9442,391.679],
    [17811,1537396361,54.0295,-110.9004,1111.9,537.9,88.0,3.6,0.4,8.01,35.57,1.9459,392.7583],
    [17812,1537396362,54.0296,-110.8992,1112.5,529.1,89.6,3.8,1.1,8.08,35.3,1.9452,393.2786],
    [17813,1537396363,54.0296,-110.898,1111.8,517.8,90.4,3.9,0.8,8.01,35.68,1.944,393.0437],
    [17814,1537396364,54.0296,-110.8967,1111.0,509.7,90.5,3.8,0.1,8.26,35.66,1.9421,393.0967],
    [17815,1537396365,54.0296,-110.8955,1110.9,502.9,90.5,4.1,-0.3,8.0,36.1,1.944,394.157],
    [17816,1537396366,54.0295,-110.8943,1111.4,499.0,90.8,4.4,-0.2,8.07,35.93,1.9442,393.3536],
    [17817,1537396367,54.0295,-110.893,1111.1,494.1,90.9,4.2,-0.4,8.44,35.67,1.9414,393.3058],
    [17818,1537396368,54.0295,-110.8918,1110.5,490.4,91.2,4.1,-0.3,7.9,36.1,1.9414,393.5473],
    [17819,1537396369,54.0295,-110.8906,1110.0,487.0,92.2,4.4,0.2,7.97,35.88,1.9426,393.5747],
    [17820,1537396370,54.0295,-110.8894,1109.8,485.7,92.9,4.7,0.2,7.96,35.83,1.9427,393.7617],
    [17821,1537396371,54.0294,-110.8881,1109.7,484.6,93.6,4.9,0.3,7.71,36.16,1.9417,393.7617],
    [17822,1537396372,54.0294,-110.8869,1109.6,483.6,93.8,5.0,-0.2,8.11,35.81,1.9427,392.9497],
    [17823,1537396373,54.0293,-110.8857,1109.7,482.6,93.8,4.8,-0.5,7.89,35.63,1.9429,393.3499],
    [17824,1537396374,54.0293,-110.8844,1110.2,480.6,94.5,4.5,0.3,7.57,35.58,1.9433,393.0694],
    [17825,1537396375,54.0292,-110.8831,1110.1,478.0,95.0,4.3,0.6,7.77,35.48,1.9429,392.4035],
    [17826,1537396376,54.0292,-110.8819,1109.9,475.3,94.7,4.2,0.4,8.35,35.38,1.9424,393.1184],
    [17827,1537396377,54.0291,-110.8807,1109.6,472.1,95.0,4.1,0.8,8.63,35.19,1.9433,393.197],
    [17828,1537396378,54.0291,-110.8794,1109.4,469.6,95.1,4.1,0.9,7.62,35.32,1.943,394.307],
    [17829,1537396379,54.029,-110.8782,1109.3,468.6,94.9,4.3,0.6,8.05,34.9,1.9423,394.307],
    [17830,1537396380,54.029,-110.877,1109.5,469.5,95.0,4.5,0.9,7.69,35.19,1.9435,394.5116],
    [17831,1537396381,54.0289,-110.8757,1109.6,469.9,95.2,4.5,1.2,7.57,35.28,1.9425,394.4427],
    [17832,1537396382,54.0289,-110.8745,1109.4,469.4,95.0,4.3,1.1,7.97,36.08,1.9424,393.7564],
    [17833,1537396383,54.0288,-110.8733,1109.6,469.6,95.2,4.6,1.4,7.99,35.51,1.9429,393.7564],
    [17834,1537396384,54.0288,-110.872,1109.9,469.9,94.8,4.7,1.1,8.05,34.82,1.942,393.7431],
    [17835,1537396385,54.0287,-110.8708,1109.7,469.7,94.8,4.5,1.1,8.02,34.88,1.9429,393.4196],
    [17836,1537396386,54.0287,-110.8696,1109.4,468.4,94.5,4.5,0.8,8.65,34.55,1.9421,393.7669],
    [17837,1537396387,54.0286,-110.8683,1109.1,469.1,94.7,4.6,1.1,7.96,34.95,1.943,393.7669],
    [17838,1537396388,54.0286,-110.8671,1108.6,467.2,94.7,4.7,1.2,7.93,35.16,1.9423,394.006],
    [17839,1537396389,54.0285,-110.8659,1108.2,466.9,94.6,4.3,1.1,7.41,34.72,1.942,393.8831],
    [17840,1537396390,54.0285,-110.8646,1108.3,465.0,94.4,4.0,0.7,7.87,35.66,1.9418,394.2314],
    [17841,1537396391,54.0284,-110.8634,1108.8,461.5,94.3,4.0,0.7,7.94,35.41,1.9426,393.431],
    [17842,1537396392,54.0284,-110.8622,1109.2,456.3,94.4,4.2,1.2,7.33,34.84,1.9435,393.8284],
    [17843,1537396393,54.0284,-110.8609,1109.4,452.2,94.2,4.5,1.6,7.79,35.13,1.9448,393.8419],
    [17844,1537396394,54.0283,-110.8597,1109.4,448.0,93.3,4.7,1.5,8.38,34.24,1.9442,393.3385],
    [17845,1537396395,54.0283,-110.8585,1109.1,443.9,92.4,4.6,1.5,8.43,34.81,1.9442,393.9061],
    [17846,1537396396,54.0283,-110.8572,1108.9,440.2,91.2,4.7,1.2,7.81,34.84,1.9451,394.5154],
    [17847,1537396397,54.0283,-110.856,1108.9,435.1,90.4,4.9,1.2,8.07,34.82,1.9419,394.2458],
    [17848,1537396398,54.0283,-110.8548,1109.1,431.5,90.2,4.6,1.7,8.23,34.36,1.9397,394.2458],
    [17849,1537396399,54.0283,-110.8536,1109.5,427.3,89.5,4.6,1.1,8.21,34.84,1.9388,393.3663],
    [17850,1537396400,54.0283,-110.8523,1109.7,423.9,89.1,4.3,1.1,7.88,34.9,1.9401,393.2464],
    [17851,1537396401,54.0284,-110.8511,1109.7,419.4,89.9,3.9,2.0,7.79,34.54,1.9405,393.9798],
    [17852,1537396402,54.0284,-110.8499,1110.9,415.4,89.7,3.9,1.8,7.48,34.43,1.9402,392.2358],
    [17853,1537396403,54.0284,-110.8486,1113.2,410.5,88.7,3.4,0.3,7.95,34.26,1.9418,394.2348],
    [17854,1537396404,54.0284,-110.8475,1114.7,403.3,87.9,2.9,-0.9,7.67,34.1,1.9417,392.448],
    [17855,1537396405,54.0284,-110.8462,1115.3,398.4,87.6,2.5,-1.2,8.39,33.47,1.9412,393.7857],
    [17856,1537396406,54.0285,-110.8449,1115.9,393.1,88.3,2.2,-0.5,8.11,33.75,1.9416,393.5572],
    [17857,1537396407,54.0285,-110.8437,1115.5,387.9,89.3,2.4,0.2,8.04,34.23,1.9434,393.7383],
    [17858,1537396408,54.0285,-110.8424,1115.2,382.1,89.6,2.5,-0.2,7.9,34.21,1.9425,392.9366],
    [17859,1537396409,54.0285,-110.8412,1114.2,377.8,90.5,1.9,0.2,8.01,34.85,1.9414,394.1282],
    [17860,1537396410,54.0285,-110.8399,1113.4,376.0,90.6,1.8,-0.5,7.75,34.72,1.9422,393.8045],
    [17861,1537396411,54.0285,-110.8387,1113.3,376.8,91.3,2.7,0.1,7.89,35.08,1.9427,393.8186],
    [17862,1537396412,54.0284,-110.8374,1113.1,375.9,92.3,3.0,0.8,8.05,34.55,1.9421,393.0872],
    [17863,1537396413,54.0284,-110.8362,1112.5,373.9,91.9,3.5,0.2,7.89,34.78,1.9414,392.7895],
    [17864,1537396414,54.0284,-110.8349,1112.1,376.5,91.1,4.0,-0.7,8.49,34.42,1.9423,391.1957],
    [17865,1537396415,54.0284,-110.8336,1112.3,382.0,89.9,3.7,-1.9,8.64,34.51,1.9426,393.796],
    [17866,1537396416,54.0284,-110.8324,1111.7,389.3,89.9,3.3,-1.0,8.05,35.0,1.9427,393.715],
    [17867,1537396417,54.0284,-110.8311,1110.2,390.6,91.5,3.7,1.4,8.58,34.16,1.9416,393.3976],
    [17868,1537396418,54.0283,-110.8299,1109.0,387.9,90.0,4.1,0.0,7.97,35.36,1.9422,391.9897],
    [17869,1537396419,54.0284,-110.8286,1108.3,382.8,89.8,4.1,0.2,8.0,34.88,1.9421,392.205],
    [17870,1537396420,54.0284,-110.8273,1108.3,377.9,89.2,3.3,-0.1,8.81,34.35,1.942,392.7104],
    [17871,1537396421,54.0284,-110.826,1108.3,372.1,89.4,2.8,0.5,7.95,35.49,1.9411,392.7104],
    [17872,1537396422,54.0284,-110.8248,1108.8,371.1,89.7,3.4,0.2,8.11,35.21,1.9419,393.4622],
    [17873,1537396423,54.0284,-110.8235,1109.9,372.2,89.2,3.9,-0.8,8.5,34.47,1.941,393.4622],
    [17874,1537396424,54.0284,-110.8222,1110.6,371.3,90.4,3.3,0.8,7.43,34.72,1.9411,394.0399],
    [17875,1537396425,54.0284,-110.8209,1110.8,366.4,91.2,2.7,2.0,8.09,34.71,1.9426,393.2696],
    [17876,1537396426,54.0284,-110.8197,1111.2,361.2,89.1,3.5,0.2,8.13,35.33,1.9416,393.3709],
    [17877,1537396427,54.0284,-110.8184,1111.3,359.1,88.7,3.8,0.3,8.32,35.32,1.9407,389.5532],
    [17878,1537396428,54.0284,-110.8171,1110.6,359.6,88.5,4.4,0.2,8.53,34.54,1.9407,390.5722],
    [17879,1537396429,54.0285,-110.8158,1109.4,359.3,88.5,4.8,0.4,8.53,34.57,1.9421,393.8039],
    [17880,1537396430,54.0285,-110.8146,1108.1,357.1,89.1,4.7,1.1,7.88,34.59,1.9414,393.1411],
    [17881,1537396431,54.0285,-110.8133,1107.6,349.7,89.3,4.4,1.1,8.78,34.04,1.9414,391.7066],
    [17882,1537396432,54.0285,-110.812,1108.3,342.2,89.6,4.5,1.3,7.88,34.45,1.942,393.3638],
    [17883,1537396433,54.0285,-110.8107,1109.8,335.5,88.9,4.7,0.8,8.08,34.75,1.9426,393.8988],
    [17884,1537396434,54.0286,-110.8094,1110.6,332.7,88.6,4.9,0.6,8.07,34.56,1.9434,391.5707],
    [17885,1537396435,54.0286,-110.8081,1110.4,333.1,88.2,5.1,0.2,8.09,34.47,1.9435,392.526],
    [17886,1537396436,54.0286,-110.8069,1109.8,337.6,88.6,5.5,0.9,8.3,35.22,1.9431,392.5508],
    [17887,1537396437,54.0286,-110.8056,1109.2,341.2,88.4,5.8,0.8,7.82,34.86,1.9431,393.5114],
    [17888,1537396438,54.0287,-110.8043,1108.9,343.9,88.5,5.4,0.9,7.53,34.88,1.9427,392.7672],
    [17889,1537396439,54.0287,-110.803,1108.7,345.7,88.7,4.5,1.1,7.96,35.22,1.943,392.9617],
    [17890,1537396440,54.0287,-110.8017,1109.1,348.1,89.2,3.5,2.0,8.29,35.04,1.9435,392.5255],
    [17891,1537396441,54.0287,-110.8004,1109.0,351.0,89.4,3.5,2.0,7.92,35.24,1.9425,392.5711],
    [17892,1537396442,54.0288,-110.7992,1109.2,354.1,88.6,4.4,1.3,7.86,35.2,1.943,390.9049],
    [17893,1537396443,54.0288,-110.7979,1109.2,356.2,88.4,4.8,1.4,8.1,35.13,1.9423,393.2034],
    [17894,1537396444,54.0288,-110.7966,1109.4,359.3,87.6,4.5,1.1,8.35,35.1,1.9425,393.6602],
    [17895,1537396445,54.0289,-110.7953,1109.7,361.7,88.1,4.6,1.8,8.76,34.8,1.9427,393.0427],
    [17896,1537396446,54.0289,-110.7941,1109.9,362.4,88.3,4.6,2.0,8.01,35.25,1.9453,392.6965],
    [17897,1537396447,54.0289,-110.7928,1109.7,362.4,88.8,4.3,2.6,8.31,35.13,1.9436,394.1627],
    [17898,1537396448,54.029,-110.7915,1109.6,363.3,89.1,4.2,2.9,7.91,35.46,1.9451,392.5433],
    [17899,1537396449,54.029,-110.7903,1109.8,365.6,89.0,3.7,2.7,7.69,35.46,1.9446,393.9138],
    [17900,1537396450,54.0291,-110.789,1109.9,366.8,88.9,3.5,2.5,7.78,35.69,1.9457,393.2011],
    [17901,1537396451,54.0291,-110.7877,1109.7,366.6,88.8,3.8,2.4,8.0,35.84,1.9448,393.2011],
    [17902,1537396452,54.0291,-110.7865,1109.5,366.2,88.4,3.5,2.0,8.72,35.53,1.9441,392.3464],
    [17903,1537396453,54.0292,-110.7851,1109.6,365.7,88.6,3.4,2.5,8.15,36.28,1.9461,393.2069],
    [17904,1537396454,54.0292,-110.7839,1109.6,365.9,88.5,3.6,2.4,8.43,36.25,1.9437,393.7321],
    [17905,1537396455,54.0293,-110.7826,1109.6,368.0,88.0,3.7,1.9,8.56,35.72,1.9417,393.6641],
    [17906,1537396456,54.0293,-110.7813,1109.8,369.8,88.1,3.6,2.1,7.86,36.06,1.9427,393.6641],
    [17907,1537396457,54.0293,-110.7802,1110.0,370.3,88.4,3.2,2.3,8.52,35.82,1.9427,393.742],
    [17908,1537396458,54.0294,-110.7788,1109.5,368.9,87.8,3.5,1.5,7.93,36.21,1.9439,391.9678],
    [17909,1537396459,54.0294,-110.7775,1109.2,368.5,87.8,4.2,1.5,8.11,35.89,1.943,391.5993],
    [17910,1537396460,54.0295,-110.7762,1109.1,367.1,88.0,4.4,1.8,8.07,36.46,1.9422,393.5542],
    [17911,1537396461,54.0295,-110.775,1109.0,367.0,88.1,4.2,2.0,8.4,35.46,1.9427,393.4926],
    [17912,1537396462,54.0295,-110.7737,1108.7,365.7,88.1,4.1,2.0,8.74,35.02,1.9408,391.437],
    [17913,1537396463,54.0296,-110.7724,1108.5,364.5,88.5,4.3,2.4,7.92,35.41,1.9428,393.3211],
    [17914,1537396464,54.0296,-110.7712,1108.6,364.6,88.5,4.3,2.4,8.19,35.86,1.9411,393.0179],
    [17915,1537396465,54.0297,-110.7699,1109.2,365.2,88.7,4.3,2.7,8.27,35.37,1.9423,393.0179],
    [17916,1537396466,54.0297,-110.7686,1109.9,365.9,88.7,4.7,2.4,8.55,34.79,1.9421,394.3322],
    [17917,1537396467,54.0297,-110.7674,1110.2,364.8,88.1,4.6,1.9,8.05,35.41,1.9429,393.6334],
    [17918,1537396468,54.0298,-110.7661,1110.9,364.6,88.2,4.1,1.9,8.1,34.95,1.9433,393.6942],
    [17919,1537396469,54.0298,-110.7648,1111.1,364.8,87.4,4.3,0.8,8.15,35.38,1.9432,393.0292],
    [17920,1537396470,54.0299,-110.7636,1110.8,362.5,87.0,5.4,0.8,7.97,35.49,1.9434,394.0203],
    [17921,1537396471,54.0299,-110.7623,1110.1,360.7,87.7,5.7,1.7,7.94,35.38,1.9429,393.1133],
    [17922,1537396472,54.0299,-110.761,1109.9,361.7,87.3,4.6,0.9,8.37,34.66,1.9434,393.1154],
    [17923,1537396473,54.03,-110.7597,1109.4,362.9,88.0,3.8,1.1,7.68,35.52,1.9422,392.1526],
    [17924,1537396474,54.03,-110.7585,1109.6,366.0,88.6,3.0,1.2,7.36,35.5,1.9432,389.9953],
    [17925,1537396475,54.03,-110.7572,1110.9,372.3,88.9,3.3,1.3,8.24,35.1,1.9435,391.6647],
    [17926,1537396476,54.0301,-110.7559,1111.9,376.5,89.0,4.1,1.2,7.55,35.75,1.9431,391.6647],
    [17927,1537396477,54.0301,-110.7546,1111.3,379.6,88.3,3.5,0.1,8.04,35.96,1.9427,390.8945],
    [17928,1537396478,54.0301,-110.7534,1111.6,382.9,88.2,3.1,0.3,8.07,36.37,1.9425,390.672],
    [17929,1537396479,54.0301,-110.7521,1111.8,386.0,87.7,3.0,-0.4,8.02,36.26,1.9421,391.9895],
    [17930,1537396480,54.0302,-110.7508,1110.5,389.7,87.2,3.4,-0.3,7.77,36.58,1.9419,390.9129],
    [17931,1537396481,54.0302,-110.7495,1109.0,390.1,87.5,4.2,0.8,8.21,35.91,1.9412,390.6683],
    [17932,1537396482,54.0302,-110.7482,1108.2,393.1,86.9,4.7,0.5,7.88,36.07,1.9393,389.9035],
    [17933,1537396483,54.0303,-110.747,1107.4,394.3,86.7,5.0,0.4,7.92,35.53,1.9385,394.0431],
    [17934,1537396484,54.0303,-110.7457,1106.7,395.8,86.9,5.2,0.6,8.73,34.63,1.9401,393.633],
    [17935,1537396485,54.0304,-110.7444,1107.2,397.3,87.2,4.8,1.0,7.59,35.08,1.9412,393.4735],
    [17936,1537396486,54.0304,-110.7431,1108.2,398.9,88.1,3.8,2.0,8.24,34.28,1.9448,391.1767],
    [17937,1537396487,54.0305,-110.7418,1109.7,402.7,88.8,3.5,2.9,7.95,34.74,1.9445,390.6199],
    [17938,1537396488,54.0305,-110.7406,1110.6,407.3,88.8,3.3,2.7,8.61,34.73,1.9439,392.0008],
    [17939,1537396489,54.0305,-110.7393,1111.5,413.8,88.0,2.9,1.5,8.67,34.84,1.947,389.5085],
    [17940,1537396490,54.0306,-110.738,1111.7,417.1,87.4,3.5,0.4,8.05,35.63,1.9433,391.534],
    [17941,1537396491,54.0306,-110.7367,1111.3,416.6,87.7,3.8,0.8,7.75,35.49,1.9447,391.2345],
    [17942,1537396492,54.0306,-110.7354,1110.5,415.9,89.1,3.0,2.1,8.03,36.12,1.9429,390.8369],
    [17943,1537396493,54.0307,-110.7341,1111.3,416.9,88.2,2.7,0.7,7.76,36.52,1.9432,392.4446],
    [17944,1537396494,54.0307,-110.7328,1112.2,418.7,88.3,3.1,0.8,7.9,36.28,1.9433,391.2911],
    [17945,1537396495,54.0307,-110.7315,1112.8,421.4,88.4,3.5,1.0,8.24,36.26,1.9416,370.3438],
    [17946,1537396496,54.0308,-110.7303,1113.8,422.4,88.6,2.5,1.1,8.05,36.37,1.9436,390.409],
    [17947,1537396497,54.0308,-110.729,1114.8,424.4,88.6,1.7,1.1,8.27,36.34,1.9451,390.0484],
    [17948,1537396498,54.0308,-110.7277,1115.1,428.9,88.5,2.1,0.7,7.94,36.78,1.9457,389.9572],
    [17949,1537396499,54.0308,-110.7263,1114.9,429.3,87.8,2.4,-0.2,7.89,36.74,1.9443,390.7497],
    [17950,1537396500,54.0309,-110.725,1113.9,429.3,88.0,3.0,0.2,8.38,36.37,1.9428,390.9676],
    [17951,1537396501,54.0309,-110.7237,1112.0,428.3,87.7,3.1,-0.1,8.59,36.35,1.9422,390.1209],
    [17952,1537396502,54.0309,-110.7224,1109.4,428.2,88.3,3.1,0.9,8.45,36.59,1.9418,391.2365],
    [17953,1537396503,54.031,-110.7211,1107.4,428.7,88.5,3.7,1.1,8.12,37.16,1.9424,390.6661],
    [17954,1537396504,54.031,-110.7198,1107.0,430.0,87.9,4.2,0.6,8.23,36.18,1.94,390.4766],
    [17955,1537396505,54.031,-110.7185,1107.3,431.3,87.4,4.6,0.0,8.36,35.55,1.94,388.4039],
    [17956,1537396506,54.0311,-110.7172,1107.5,431.4,87.2,5.3,-0.5,8.21,35.66,1.9435,388.9943],
    [17957,1537396507,54.0311,-110.7159,1107.4,431.7,87.6,5.9,0.0,7.99,35.74,1.941,389.9868],
    [17958,1537396508,54.0311,-110.7145,1106.8,429.8,88.3,5.8,0.5,8.22,36.19,1.9408,389.9671],
    [17959,1537396509,54.0311,-110.7132,1106.1,428.1,88.3,5.5,0.1,7.87,35.54,1.9403,389.4242],
    [17960,1537396510,54.0312,-110.7119,1105.9,427.9,88.7,5.5,0.3,8.72,34.64,1.9492,389.7363],
    [17961,1537396511,54.0312,-110.7106,1106.9,428.9,88.5,5.5,-0.2,8.34,35.09,1.9532,389.6624],
    [17962,1537396512,54.0312,-110.7093,1107.8,430.8,88.5,5.9,0.0,8.37,34.68,1.9489,390.7368],
    [17963,1537396513,54.0312,-110.708,1108.0,429.0,88.8,6.1,0.4,8.55,34.5,1.942,390.0988],
    [17964,1537396514,54.0312,-110.7067,1107.6,426.6,88.5,5.5,0.2,8.1,35.31,1.9419,391.0766],
    [17965,1537396515,54.0313,-110.7054,1107.3,425.3,88.3,5.3,0.4,8.14,35.37,1.9414,391.0123],
    [17966,1537396516,54.0313,-110.7041,1107.3,426.3,88.2,5.5,0.5,8.38,34.57,1.9411,389.4491],
    [17967,1537396517,54.0313,-110.7027,1107.5,427.5,88.7,5.8,1.4,8.11,35.08,1.9417,388.9328],
    [17968,1537396518,54.0313,-110.7014,1107.9,429.6,88.8,5.8,1.5,8.16,34.76,1.9412,389.8392],
    [17969,1537396519,54.0314,-110.7002,1108.4,431.4,88.2,5.0,1.0,8.16,34.67,1.9402,389.9396],
    [17970,1537396520,54.0314,-110.6989,1108.9,429.8,88.9,4.4,2.1,8.01,34.34,1.9411,390.7075],
    [17971,1537396521,54.0314,-110.6976,1109.8,429.4,88.9,4.5,2.3,8.35,34.25,1.9431,390.7855],
    [17972,1537396522,54.0315,-110.6963,1110.8,429.5,89.1,4.3,2.7,8.05,34.43,1.9434,390.9084],
    [17973,1537396523,54.0315,-110.695,1111.1,429.0,87.9,4.2,1.0,7.94,34.82,1.9426,390.9084],
    [17974,1537396524,54.0315,-110.6937,1110.7,428.7,87.3,4.2,0.4,7.66,34.85,1.942,390.2842],
    [17975,1537396525,54.0316,-110.6924,1110.8,430.2,87.4,3.9,0.3,8.94,34.39,1.9426,391.4505],
    [17976,1537396526,54.0316,-110.6911,1111.2,431.9,86.7,4.2,-0.6,8.73,34.58,1.9429,390.0883],
    [17977,1537396527,54.0316,-110.6898,1111.0,433.6,87.0,4.8,-0.3,8.13,34.84,1.9412,390.0883],
    [17978,1537396528,54.0317,-110.6885,1110.1,432.5,87.4,4.7,0.0,8.04,34.82,1.9423,390.4149],
    [17979,1537396529,54.0317,-110.6872,1110.3,431.6,87.5,5.5,0.2,7.46,34.92,1.9456,389.7725],
    [17980,1537396530,54.0317,-110.6859,1111.4,432.3,88.4,6.2,1.3,7.56,34.95,1.9475,389.5897],
    [17981,1537396531,54.0318,-110.6846,1111.0,430.9,88.5,5.6,1.2,8.16,34.68,1.9454,390.6589],
    [17982,1537396532,54.0318,-110.6833,1109.6,430.9,88.0,5.3,0.6,8.26,34.93,1.9444,390.414],
    [17983,1537396533,54.0318,-110.682,1108.8,432.2,88.2,5.1,1.0,8.12,35.43,1.9461,391.4972],
    [17984,1537396534,54.0319,-110.6807,1109.0,434.0,88.2,5.1,0.8,8.22,35.61,1.9467,390.5098],
    [17985,1537396535,54.0319,-110.6793,1109.4,435.5,88.9,5.1,1.7,8.06,35.98,1.9459,390.1769],
    [17986,1537396536,54.0319,-110.6781,1108.4,434.6,89.1,5.6,1.8,8.09,36.14,1.9434,390.9417],
    [17987,1537396537,54.032,-110.6768,1107.3,434.3,88.6,5.9,1.1,8.23,35.73,1.9437,390.6095],
    [17988,1537396538,54.032,-110.6754,1107.1,435.1,88.9,5.8,1.6,8.07,36.97,1.9439,390.3061],
    [17989,1537396539,54.032,-110.6741,1107.8,436.8,89.0,4.8,1.7,8.1,36.15,1.9451,391.4438],
    [17990,1537396540,54.032,-110.6728,1108.1,438.1,89.5,4.1,2.3,8.11,36.54,1.9447,390.988],
    [17991,1537396541,54.0321,-110.6715,1108.9,438.8,89.8,4.7,2.6,8.06,36.2,1.9469,386.0782],
    [17992,1537396542,54.0321,-110.6702,1110.1,441.1,89.2,5.4,2.1,8.17,36.54,1.9469,391.1209],
    [17993,1537396543,54.0321,-110.6689,1110.1,441.1,89.6,5.6,2.7,8.16,36.3,1.9427,390.6164],
    [17994,1537396544,54.0322,-110.6676,1109.9,441.9,88.9,5.7,2.3,7.7,36.38,1.9451,391.6155],
    [17995,1537396545,54.0322,-110.6663,1109.9,441.9,88.6,5.9,2.3,7.93,36.62,1.9439,391.6645],
    [17996,1537396546,54.0322,-110.665,1110.2,442.7,88.3,5.8,2.0,7.9,36.54,1.9448,391.2739],
    [17997,1537396547,54.0323,-110.6637,1110.8,443.8,88.4,4.7,1.9,7.86,36.42,1.9464,392.2307],
    [17998,1537396548,54.0323,-110.6624,1110.7,444.4,87.8,4.0,0.8,8.03,37.13,1.9477,391.8175],
    [17999,1537396549,54.0323,-110.661,1110.4,444.3,88.3,4.0,0.7,8.02,36.38,1.9583,388.8672],
    [18000,1537396550,54.0324,-110.6598,1109.9,443.6,87.5,3.8,-0.9,8.09,36.06,1.956,390.436],
    [18001,1537396551,54.0324,-110.6585,1109.7,442.6,88.4,3.1,0.0,8.2,35.99,1.9494,389.0221],
    [18002,1537396552,54.0324,-110.6571,1109.7,442.7,88.8,3.1,0.1,7.55,36.19,1.9529,390.5236],
    [18003,1537396553,54.0324,-110.6558,1109.7,441.6,89.4,3.3,0.7,8.75,35.55,1.9533,391.6263],
    [18004,1537396554,54.0324,-110.6545,1109.8,441.8,89.2,3.5,0.2,8.22,35.36,1.9504,390.4678],
    [18005,1537396555,54.0324,-110.6532,1110.0,442.4,89.0,3.6,-0.1,8.47,35.46,1.9441,391.3028],
    [18006,1537396556,54.0325,-110.6519,1109.5,442.4,88.6,3.7,-0.6,7.93,35.73,1.9433,391.2564],
    [18007,1537396557,54.0325,-110.6506,1108.9,442.8,88.0,4.0,-1.2,8.29,35.94,1.9421,390.6002],
    [18008,1537396558,54.0325,-110.6493,1108.6,442.6,88.3,4.2,-1.0,8.11,35.32,1.9424,392.1572],
    [18009,1537396559,54.0325,-110.648,1108.6,441.6,88.4,4.0,-1.1,8.09,35.39,1.9411,391.7645],
    [18010,1537396560,54.0325,-110.6467,1108.7,440.7,89.0,4.2,-0.5,8.95,34.99,1.9434,392.3474],
    [18011,1537396561,54.0325,-110.6454,1108.7,440.8,89.1,4.8,-0.7,8.06,34.98,1.942,391.3683],
    [18012,1537396562,54.0325,-110.6442,1108.8,441.1,88.8,4.5,-1.0,8.24,34.49,1.9429,391.167],
    [18013,1537396563,54.0325,-110.6429,1109.0,442.0,89.4,4.4,-0.1,8.02,35.38,1.9422,391.6872],
    [18014,1537396564,54.0325,-110.6416,1109.2,443.4,89.7,4.6,0.3,8.26,34.65,1.9402,390.8822],
    [18015,1537396565,54.0325,-110.6404,1109.0,444.0,89.7,4.6,0.3,8.83,34.26,1.941,390.2667],
    [18016,1537396566,54.0325,-110.6391,1108.9,445.2,89.4,5.0,0.0,7.57,34.55,1.943,391.799],
    [18017,1537396567,54.0326,-110.6378,1108.7,445.7,89.5,5.5,0.3,8.64,33.57,1.9404,391.4837],
    [18018,1537396568,54.0326,-110.6366,1108.5,445.5,89.4,5.5,0.4,7.69,34.12,1.9404,391.4321],
    [18019,1537396569,54.0326,-110.6353,1108.3,444.2,88.5,5.1,-0.3,7.83,34.2,1.9402,392.9581],
    [18020,1537396570,54.0326,-110.6341,1107.8,442.8,88.3,4.9,-0.2,8.5,33.65,1.9428,392.519],
    [18021,1537396571,54.0326,-110.6328,1109.2,444.2,87.8,4.5,-0.7,7.9,34.23,1.9443,391.2151],
    [18022,1537396572,54.0326,-110.6315,1111.0,446.0,87.1,3.9,-1.4,8.06,33.98,1.9443,391.2151],
    [18023,1537396573,54.0327,-110.6302,1112.3,447.3,90.2,3.3,2.3,8.44,34.34,1.9467,391.646],
    [18024,1537396574,54.0327,-110.629,1112.7,446.8,90.3,3.7,1.9,8.12,34.81,1.948,392.2225],
    [18025,1537396575,54.0327,-110.6277,1112.1,445.3,90.0,3.4,1.7,8.26,33.88,1.9461,392.2225],
    [18026,1537396576,54.0327,-110.6265,1111.2,443.7,90.4,2.7,2.0,8.33,33.81,1.9491,393.9441],
    [18027,1537396577,54.0327,-110.6252,1110.9,442.7,89.7,2.7,1.5,8.13,35.08,1.9512,393.9441],
    [18028,1537396578,54.0327,-110.624,1111.0,441.6,90.1,2.6,2.4,7.98,35.12,1.9503,391.5957],
    [18029,1537396579,54.0328,-110.6227,1110.9,438.6,89.6,2.4,1.9,7.81,35.03,1.9497,392.6701],
    [18030,1537396580,54.0328,-110.6215,1110.3,434.9,89.4,2.7,1.7,8.17,34.93,1.9517,391.713],
    [18031,1537396581,54.0328,-110.6202,1109.3,430.0,89.0,3.2,1.1,7.65,35.13,1.9506,391.8277],
    [18032,1537396582,54.0328,-110.619,1108.7,426.7,89.2,3.3,1.2,8.74,34.68,1.9502,392.3071],
    [18033,1537396583,54.0328,-110.6178,1108.6,424.7,88.9,3.1,0.7,7.9,35.63,1.9451,391.4048],
    [18034,1537396584,54.0329,-110.6165,1108.6,423.6,89.2,2.6,0.9,8.6,35.35,1.9469,391.4048],
    [18035,1537396585,54.0329,-110.6153,1108.4,422.1,88.8,2.6,0.2,8.23,35.4,1.9459,392.634],
    [18036,1537396586,54.0329,-110.6141,1109.0,422.1,88.1,3.1,-0.2,8.87,35.36,1.945,392.7034],
    [18037,1537396587,54.0329,-110.6128,1109.2,421.2,88.7,3.5,0.5,8.09,36.1,1.9438,392.7034],
    [18038,1537396588,54.0329,-110.6116,1108.5,422.2,88.8,3.5,0.7,8.03,35.68,1.9443,393.0782],
    [18039,1537396589,54.033,-110.6104,1107.5,422.5,89.3,3.9,1.2,8.03,35.65,1.9434,391.9296],
    [18040,1537396590,54.033,-110.6091,1107.1,425.1,88.7,3.9,0.5,8.4,35.52,1.9433,391.3842],
    [18041,1537396591,54.033,-110.6079,1107.8,430.8,88.7,3.2,0.6,7.99,35.75,1.943,391.7765],
    [18042,1537396592,54.033,-110.6067,1108.2,438.6,88.1,2.7,-0.2,8.3,35.5,1.9445,392.4292],
    [18043,1537396593,54.033,-110.6055,1108.1,446.1,87.5,2.8,-0.9,8.17,35.72,1.9437,391.8687],
    [18044,1537396594,54.0331,-110.6042,1108.4,458.8,87.8,3.2,-0.4,8.1,35.79,1.9437,390.6237],
    [18045,1537396595,54.0331,-110.6031,1108.1,471.8,87.5,3.7,-0.9,8.24,35.6,1.9441,392.8331],
    [18046,1537396596,54.0331,-110.6018,1107.4,485.5,87.0,4.2,-1.6,8.35,35.5,1.9437,392.4771],
    [18047,1537396597,54.0331,-110.6006,1107.7,490.0,87.8,4.1,-0.9,8.71,35.44,1.9432,393.5411],
    [18048,1537396598,54.0331,-110.5994,1108.2,494.5,88.0,4.4,-0.8,7.59,35.55,1.9424,392.0689],
    [18049,1537396599,54.0332,-110.5982,1108.2,497.8,88.5,4.7,-0.6,8.13,35.88,1.9424,391.6833],
    [18050,1537396600,54.0332,-110.597,1108.3,500.6,88.7,4.6,-0.4,8.62,34.91,1.9426,393.2652],
    [18051,1537396601,54.0332,-110.5957,1108.9,504.9,88.9,4.6,-0.3,8.58,35.38,1.9422,392.2437],
    [18052,1537396602,54.0332,-110.5946,1109.8,508.8,89.1,4.7,0.0,7.84,35.86,1.9437,392.0438],
    [18053,1537396603,54.0332,-110.5933,1110.8,513.4,89.3,4.5,0.0,8.07,35.91,1.9437,390.2389],
    [18054,1537396604,54.0332,-110.5921,1111.5,516.5,89.3,4.1,0.4,8.1,36.57,1.9442,392.8058],
    [18055,1537396605,54.0332,-110.5909,1111.2,515.3,90.1,3.9,1.5,8.09,35.89,1.9462,392.674],
    [18056,1537396606,54.0332,-110.5897,1110.4,514.4,89.9,4.0,1.3,7.88,35.69,1.947,390.3471],
    [18057,1537396607,54.0332,-110.5885,1110.1,514.1,89.5,4.0,1.1,8.46,35.07,1.9447,393.5913],
    [18058,1537396608,54.0333,-110.5873,1110.1,515.8,89.5,4.2,1.3,7.92,35.77,1.9448,392.7988],
    [18059,1537396609,54.0333,-110.5861,1109.8,515.8,89.4,4.2,1.2,8.16,36.13,1.9451,392.671],
    [18060,1537396610,54.0333,-110.5848,1109.2,515.2,89.3,4.2,1.2,8.31,35.48,1.9452,392.1314],
    [18061,1537396611,54.0333,-110.5836,1108.5,514.5,89.3,4.4,1.3,7.87,35.92,1.9465,392.4687],
    [18062,1537396612,54.0333,-110.5824,1108.0,514.0,89.4,4.6,1.4,7.84,35.61,1.9475,393.1162],
    [18063,1537396613,54.0334,-110.5812,1108.0,514.0,89.1,4.4,1.2,7.98,35.95,1.9423,393.1124],
    [18064,1537396614,54.0334,-110.58,1108.1,501.7,89.0,3.9,1.1,7.86,36.34,1.9422,391.8422],
    [18065,1537396615,54.0334,-110.5787,1108.4,490.1,88.8,3.4,1.1,7.54,35.52,1.9423,392.0271],
    [18066,1537396616,54.0334,-110.5775,1108.7,479.4,89.2,3.2,1.4,7.6,35.37,1.9419,392.3632],
    [18067,1537396617,54.0334,-110.5764,1109.1,469.0,89.1,2.9,1.4,8.69,34.99,1.9454,392.4829],
    [18068,1537396618,54.0335,-110.5751,1110.6,466.5,89.0,2.6,1.1,8.13,35.48,1.9474,392.9212],
    [18069,1537396619,54.0335,-110.5739,1112.5,464.7,89.6,3.5,2.0,7.53,35.28,1.945,391.5339],
    [18070,1537396620,54.0335,-110.5727,1112.8,463.1,89.4,4.0,1.4,8.05,35.08,1.9439,393.055],
    [18071,1537396621,54.0335,-110.5715,1111.8,457.7,88.7,3.6,0.7,8.07,34.96,1.9444,392.2156],
    [18072,1537396622,54.0336,-110.5703,1110.6,448.6,89.7,3.2,1.7,7.98,34.96,1.9457,392.2156],
    [18073,1537396623,54.0336,-110.5691,1110.2,454.5,89.7,3.2,1.5,7.75,34.78,1.9455,392.2493],
    [18074,1537396624,54.0336,-110.5678,1109.9,461.0,90.2,3.5,1.9,8.26,35.14,1.9461,392.5887],
    [18075,1537396625,54.0336,-110.5666,1109.0,465.0,89.8,3.9,1.3,8.21,34.13,1.9493,392.6187],
    [18076,1537396626,54.0336,-110.5654,1108.0,464.0,89.4,4.1,1.0,8.63,34.29,1.9479,392.1446],
    [18077,1537396627,54.0336,-110.5642,1107.7,463.7,89.1,4.1,0.7,8.32,34.84,1.9492,392.1972],
    [18078,1537396628,54.0337,-110.563,1108.4,459.4,88.9,4.3,0.8,7.98,34.68,1.9485,393.4014],
    [18079,1537396629,54.0337,-110.5618,1108.7,456.4,89.7,4.5,1.5,7.45,34.52,1.9501,393.3042],
    [18080,1537396630,54.0337,-110.5606,1108.2,453.3,89.5,3.9,1.2,8.24,34.48,1.9498,393.071],
    [18081,1537396631,54.0337,-110.5594,1108.4,451.1,89.5,3.4,1.4,8.56,34.49,1.9501,392.0707],
    [18082,1537396632,54.0337,-110.5582,1110.0,452.7,89.8,3.4,2.1,8.04,35.01,1.9497,393.2784],
    [18083,1537396633,54.0337,-110.557,1111.1,456.1,89.6,3.6,1.7,8.74,34.38,1.9473,393.3512],
    [18084,1537396634,54.0338,-110.5557,1110.4,457.4,88.9,3.8,1.0,7.78,34.75,1.9491,393.2336],
    [18085,1537396635,54.0338,-110.5546,1109.0,457.0,88.9,4.2,1.0,8.37,34.16,1.9484,391.5652],
    [18086,1537396636,54.0338,-110.5534,1108.2,457.2,88.9,4.4,1.0,7.72,34.85,1.9468,392.8261],
    [18087,1537396637,54.0338,-110.5521,1107.8,456.8,88.9,4.4,0.9,7.61,35.14,1.9462,394.0632],
    [18088,1537396638,54.0339,-110.5509,1107.7,456.7,88.6,4.5,0.4,8.52,34.25,1.9461,391.4622],
    [18089,1537396639,54.0339,-110.5497,1108.0,457.0,88.6,4.4,0.4,8.13,34.52,1.9463,393.8234],
    [18090,1537396640,54.0339,-110.5485,1108.2,457.2,88.5,4.2,0.2,7.59,34.96,1.9466,393.0092],
    [18091,1537396641,54.0339,-110.5473,1108.4,457.4,88.8,4.1,0.3,7.75,34.77,1.9468,394.3645],
    [18092,1537396642,54.0339,-110.5461,1108.8,457.8,89.2,4.3,0.6,8.85,34.3,1.9464,394.6326],
    [18093,1537396643,54.0339,-110.5449,1109.2,458.2,89.4,4.6,0.6,7.94,34.28,1.9451,393.6135],
    [18094,1537396644,54.034,-110.5438,1109.4,458.7,89.2,4.7,0.2,8.07,34.18,1.947,394.7326],
    [18095,1537396645,54.034,-110.5426,1109.6,460.7,89.0,4.6,0.1,7.92,34.35,1.9448,393.3021],
    [18096,1537396646,54.034,-110.5413,1109.4,461.4,89.5,4.6,0.5,7.81,34.52,1.946,394.0513],
    [18097,1537396647,54.034,-110.5401,1108.9,461.9,89.3,4.7,0.2,8.21,33.85,1.9439,393.732],
    [18098,1537396648,54.034,-110.5389,1108.2,460.2,89.7,4.6,0.7,7.69,34.38,1.9453,388.5584],
    [18099,1537396649,54.034,-110.5377,1108.2,458.3,89.9,4.4,1.1,8.63,34.1,1.9442,395.2903],
    [18100,1537396650,54.034,-110.5365,1108.5,457.7,90.4,4.1,1.7,8.15,34.49,1.9423,394.2617],
    [18101,1537396651,54.034,-110.5353,1108.6,455.6,90.3,3.8,1.5,8.06,34.21,1.9419,393.2872],
    [18102,1537396652,54.034,-110.5341,1108.4,455.4,89.9,3.7,1.1,8.05,34.68,1.9433,394.6864],
    [18103,1537396653,54.0341,-110.5329,1108.3,456.4,89.9,3.8,1.5,8.19,33.57,1.9455,392.9121],
    [18104,1537396654,54.0341,-110.5317,1108.6,457.7,90.1,3.8,1.8,7.95,34.25,1.9464,392.8796],
    [18105,1537396655,54.0341,-110.5305,1108.9,459.0,90.1,3.5,1.9,8.11,34.17,1.948,393.2284],
    [18106,1537396656,54.0341,-110.5293,1109.1,458.1,90.0,3.7,1.9,7.98,33.42,1.9456,394.0237],
    [18107,1537396657,54.0341,-110.5281,1109.5,458.5,89.7,3.9,1.8,7.94,33.48,1.9453,393.7602],
    [18108,1537396658,54.0341,-110.5269,1109.7,457.7,90.1,4.0,2.4,8.16,33.56,1.9451,393.094],
    [18109,1537396659,54.0342,-110.5257,1109.6,457.8,89.8,4.0,1.9,8.12,33.26,1.9484,393.174],
    [18110,1537396660,54.0342,-110.5245,1109.9,457.6,89.9,4.3,2.2,7.98,33.83,1.9467,393.0758],
    [18111,1537396661,54.0342,-110.5233,1110.2,457.1,90.1,4.5,2.1,7.27,33.36,1.948,393.7724],
    [18112,1537396662,54.0342,-110.5221,1110.1,457.2,89.4,4.6,1.2,7.38,33.61,1.9478,391.5839],
    [18113,1537396663,54.0342,-110.5209,1109.6,456.7,89.6,5.0,1.4,8.03,33.25,1.9487,391.5839],
    [18114,1537396664,54.0343,-110.5197,1110.1,458.1,88.6,5.6,0.3,8.11,33.85,1.9489,392.9037],
    [18115,1537396665,54.0343,-110.5184,1111.0,459.0,88.8,5.1,0.7,7.64,33.98,1.9489,394.5734],
    [18116,1537396666,54.0343,-110.5172,1111.0,459.0,89.5,4.3,1.5,7.95,33.8,1.9494,392.7721],
    [18117,1537396667,54.0343,-110.516,1111.0,459.1,90.0,3.5,2.0,8.01,33.84,1.9501,391.9605],
    [18118,1537396668,54.0343,-110.5148,1110.7,457.6,89.9,3.6,1.6,7.71,34.06,1.9491,391.975],
    [18119,1537396669,54.0343,-110.5135,1109.5,453.9,90.3,3.7,1.8,8.24,33.56,1.9441,393.7617],
    [18120,1537396670,54.0344,-110.5123,1108.1,451.7,90.1,3.5,1.4,7.91,34.68,1.9423,392.5744],
    [18121,1537396671,54.0344,-110.5111,1107.5,452.2,90.3,3.5,1.5,8.24,34.54,1.9407,393.1891],
    [18122,1537396672,54.0344,-110.5099,1107.6,453.4,89.5,3.4,0.6,7.9,34.08,1.9401,393.2522],
    [18123,1537396673,54.0344,-110.5086,1107.6,455.3,90.3,3.1,1.5,7.99,33.78,1.9413,394.1356],
    [18124,1537396674,54.0344,-110.5074,1107.0,456.0,89.9,3.1,0.9,7.93,33.73,1.9461,393.5272],
    [18125,1537396675,54.0344,-110.5062,1106.5,455.5,89.6,3.0,0.5,8.24,33.22,1.9463,393.2815],
    [18126,1537396676,54.0344,-110.505,1106.4,453.6,89.4,3.0,0.4,8.35,33.06,1.9459,393.4445],
    [18127,1537396677,54.0344,-110.5037,1106.8,452.8,89.8,3.0,0.9,8.89,33.02,1.9434,393.4445],
    [18128,1537396678,54.0344,-110.5025,1107.6,452.5,90.2,3.4,1.4,8.25,32.95,1.9436,394.0288],
    [18129,1537396679,54.0344,-110.5013,1107.9,451.5,90.4,3.9,1.3,8.08,33.65,1.9431,393.5881],
    [18130,1537396680,54.0345,-110.5001,1107.8,450.9,89.5,4.0,0.3,8.74,32.88,1.9439,393.3215],
    [18131,1537396681,54.0345,-110.4989,1107.6,452.3,90.0,3.7,0.8,7.78,33.3,1.9443,393.3215],
    [18132,1537396682,54.0345,-110.4977,1108.0,456.1,89.7,3.7,0.4,8.29,33.38,1.9463,392.8734],
    [18133,1537396683,54.0345,-110.4965,1109.2,460.1,89.4,4.0,-0.1,8.38,33.27,1.9476,393.1041],
    [18134,1537396684,54.0345,-110.4953,1110.1,463.0,89.2,4.1,-0.4,8.08,33.93,1.9485,390.9439],
    [18135,1537396685,54.0345,-110.4941,1110.6,464.6,89.8,4.0,0.2,8.5,33.61,1.9465,390.9439],
    [18136,1537396686,54.0345,-110.4929,1110.8,464.8,90.2,4.3,0.6,8.55,33.77,1.9444,394.1157],
    [18137,1537396687,54.0345,-110.4917,1109.9,462.9,90.1,4.3,0.2,8.11,34.11,1.9405,391.4284],
    [18138,1537396688,54.0345,-110.4905,1108.7,460.7,89.9,3.9,0.0,7.91,33.8,1.9403,394.2451],
    [18139,1537396689,54.0345,-110.4893,1108.0,460.0,89.9,3.9,0.0,7.98,34.14,1.9393,392.0458],
    [18140,1537396690,54.0345,-110.4881,1108.0,460.0,90.1,3.8,0.4,8.15,33.8,1.94,393.2613],
    [18141,1537396691,54.0345,-110.4869,1107.9,458.9,90.5,4.1,0.9,7.51,33.59,1.9398,392.6052],
    [18142,1537396692,54.0345,-110.4856,1107.6,458.5,90.1,4.3,0.5,7.72,33.23,1.9399,394.1532],
    [18143,1537396693,54.0345,-110.4844,1107.2,459.5,90.0,4.1,0.5,7.76,33.16,1.9408,392.7221],
    [18144,1537396694,54.0345,-110.4833,1107.0,461.0,89.8,4.1,0.2,8.1,33.62,1.9435,392.9693],
    [18145,1537396695,54.0345,-110.4821,1107.0,462.0,89.3,4.1,-0.1,8.49,32.27,1.944,393.8689],
    [18146,1537396696,54.0345,-110.4809,1107.3,462.3,89.6,4.0,0.2,7.89,33.05,1.9422,393.6327],
    [18147,1537396697,54.0345,-110.4796,1107.8,462.8,89.4,3.8,-0.1,8.1,32.47,1.9393,393.4007],
    [18148,1537396698,54.0345,-110.4784,1108.3,463.3,89.3,3.5,-0.2,8.46,32.35,1.9419,393.9911],
    [18149,1537396699,54.0345,-110.4773,1108.5,463.5,89.0,3.5,-0.4,7.45,32.56,1.9421,393.9911],
    [18150,1537396700,54.0345,-110.4761,1108.8,462.8,88.4,3.9,-0.8,8.31,31.96,1.9383,394.0626],
    [18151,1537396701,54.0346,-110.4749,1108.9,461.9,89.4,4.2,0.3,8.26,32.7,1.9398,392.9457],
    [18152,1537396702,54.0346,-110.4737,1108.7,461.7,89.6,4.1,0.2,8.09,32.17,1.9465,392.2662],
    [18153,1537396703,54.0346,-110.4725,1109.8,463.8,90.0,4.3,0.4,8.12,32.11,1.9479,392.2662],
    [18154,1537396704,54.0346,-110.4713,1110.9,466.9,89.1,4.6,-0.7,8.04,32.01,1.945,394.3799],
    [18155,1537396705,54.0346,-110.4701,1110.6,466.6,88.8,4.4,-1.1,8.14,32.05,1.9419,392.6939],
    [18156,1537396706,54.0346,-110.4689,1109.3,465.3,89.2,4.4,-0.6,7.85,32.65,1.9435,392.6939],
    [18157,1537396707,54.0346,-110.4677,1108.5,463.5,90.2,4.3,0.3,7.84,33.08,1.9462,393.4511],
    [18158,1537396708,54.0346,-110.4665,1107.9,461.9,90.5,4.1,0.5,8.14,33.65,1.9481,391.3416],
    [18159,1537396709,54.0346,-110.4653,1107.5,461.5,90.3,4.2,0.3,8.05,32.98,1.9487,392.5066],
    [18160,1537396710,54.0346,-110.4641,1107.2,461.2,90.5,4.2,0.8,7.97,33.11,1.9487,395.1534],
    [18161,1537396711,54.0346,-110.4629,1107.2,461.2,90.6,4.4,0.9,8.52,32.97,1.9495,394.4993],
    [18162,1537396712,54.0346,-110.4617,1107.7,461.7,90.3,4.5,0.8,7.86,33.93,1.9482,392.5515],
    [18163,1537396713,54.0346,-110.4605,1108.2,461.2,90.4,4.6,1.0,8.75,34.07,1.9463,394.0796],
    [18164,1537396714,54.0346,-110.4593,1108.5,461.2,90.0,4.5,0.6,7.58,34.41,1.9476,394.0796],
    [18165,1537396715,54.0346,-110.4581,1108.5,460.5,89.7,4.2,0.4,8.77,34.14,1.9471,393.6971],
    [18166,1537396716,54.0346,-110.457,1108.4,461.4,89.7,4.4,0.6,8.12,34.69,1.947,393.1522],
    [18167,1537396717,54.0346,-110.4557,1108.2,461.2,89.6,4.8,0.6,8.08,34.66,1.9458,393.1522],
    [18168,1537396718,54.0346,-110.4545,1108.2,461.2,89.7,5.1,0.7,8.13,34.72,1.945,394.5073],
    [18169,1537396719,54.0346,-110.4534,1108.0,461.0,89.7,5.0,0.7,8.85,34.67,1.9435,394.5073],
    [18170,1537396720,54.0346,-110.4521,1107.8,460.8,90.0,4.9,1.1,7.99,34.89,1.9452,394.7034],
    [18171,1537396721,54.0347,-110.4509,1107.7,460.7,89.7,5.0,0.7,8.38,34.29,1.9466,394.7034],
    [18172,1537396722,54.0347,-110.4497,1107.7,461.7,89.5,5.0,0.6,8.87,34.52,1.9462,394.2388],
    [18173,1537396723,54.0347,-110.4485,1107.7,461.7,89.4,4.8,0.5,8.52,34.34,1.9472,394.1655],
    [18174,1537396724,54.0347,-110.4473,1108.3,461.3,89.3,4.9,0.4,7.99,35.1,1.9473,394.2955],
    [18175,1537396725,54.0347,-110.4461,1108.4,460.4,89.4,5.2,0.5,7.8,35.25,1.9468,394.9851],
    [18176,1537396726,54.0347,-110.4449,1108.1,460.1,89.0,4.9,0.1,8.05,35.55,1.9446,393.9256],
    [18177,1537396727,54.0347,-110.4437,1107.8,459.8,89.2,4.8,0.4,8.51,35.31,1.9462,391.4173],
    [18178,1537396728,54.0347,-110.4425,1107.7,459.7,89.4,4.9,0.6,8.67,34.96,1.9464,394.0426],
    [18179,1537396729,54.0348,-110.4413,1107.6,458.6,89.8,5.2,1.0,8.85,35.18,1.947,393.9744],
    [18180,1537396730,54.0348,-110.4401,1107.5,459.5,90.1,5.4,1.3,8.01,36.12,1.9465,395.165],
    [18181,1537396731,54.0348,-110.4389,1107.6,459.6,90.2,5.1,1.3,8.04,35.92,1.9456,395.165],
    [18182,1537396732,54.0348,-110.4377,1107.9,458.9,89.8,4.8,0.9,8.49,35.62,1.9463,394.5233],
    [18183,1537396733,54.0348,-110.4365,1108.5,459.6,89.3,4.1,0.4,7.65,35.58,1.9457,393.3654],
    [18184,1537396734,54.0348,-110.4353,1109.7,459.7,89.5,3.8,0.8,7.74,35.57,1.9496,393.2504],
    [18185,1537396735,54.0348,-110.4341,1111.0,461.3,89.7,4.4,0.7,7.7,35.36,1.9513,393.8935],
    [18186,1537396736,54.0348,-110.4329,1111.4,461.7,89.9,4.9,1.0,7.93,35.54,1.9525,394.0796],
    [18187,1537396737,54.0348,-110.4317,1111.3,461.3,90.6,4.1,1.5,8.09,35.5,1.9522,391.7061],
    [18188,1537396738,54.0348,-110.4304,1111.9,461.9,90.3,3.0,0.8,8.05,36.01,1.9508,392.7007],
    [18189,1537396739,54.0348,-110.4292,1112.7,462.7,90.5,2.2,1.1,8.06,35.84,1.9508,393.1494],
    [18190,1537396740,54.0348,-110.428,1112.2,462.3,91.4,2.5,2.2,8.16,35.35,1.9517,394.3441],
    [18191,1537396741,54.0349,-110.4268,1110.7,460.2,91.8,3.7,2.8,8.75,35.41,1.9522,394.1272],
    [18192,1537396742,54.0349,-110.4255,1109.6,459.6,91.9,3.7,3.2,8.02,35.18,1.9511,393.0972],
    [18193,1537396743,54.0349,-110.4243,1109.2,460.2,91.0,3.0,2.4,8.14,35.05,1.9514,393.0589],
    [18194,1537396744,54.0349,-110.4231,1109.1,460.1,90.8,2.4,2.7,8.43,34.83,1.9498,392.9709],
    [18195,1537396745,54.0349,-110.4218,1109.1,461.1,90.8,2.2,2.7,7.94,35.27,1.9495,392.9884],
    [18196,1537396746,54.0349,-110.4206,1109.3,460.4,90.0,1.9,1.9,8.43,34.59,1.9498,394.0914],
    [18197,1537396747,54.0349,-110.4194,1109.4,460.4,89.7,2.2,1.7,7.8,34.84,1.9492,393.7085],
    [18198,1537396748,54.0349,-110.4182,1109.1,460.0,89.3,2.9,1.2,8.06,35.51,1.9476,394.3368],
    [18199,1537396749,54.035,-110.4169,1108.2,457.2,89.0,3.0,0.9,7.66,35.29,1.9478,391.6904],
    [18200,1537396750,54.035,-110.4157,1107.4,455.4,89.8,2.9,1.9,8.27,34.43,1.9475,393.2817],
    [18201,1537396751,54.035,-110.4144,1107.8,455.9,89.9,2.9,1.9,8.1,35.33,1.9472,393.744],
    [18202,1537396752,54.035,-110.4132,1109.3,458.4,90.4,2.7,2.4,7.63,34.95,1.9493,393.1241],
    [18203,1537396753,54.035,-110.412,1110.5,461.6,91.0,2.6,2.5,8.09,34.87,1.9488,391.7439],
    [18204,1537396754,54.035,-110.4107,1111.8,463.8,90.5,2.3,1.1,8.33,34.95,1.9471,391.6453],
    [18205,1537396755,54.035,-110.4095,1112.0,464.7,91.3,2.4,2.0,7.99,35.0,1.9468,393.1026],
    [18206,1537396756,54.035,-110.4083,1112.9,466.9,90.7,1.8,0.7,8.18,34.49,1.9479,392.9999],
    [18207,1537396757,54.035,-110.407,1114.5,469.2,89.9,1.1,0.3,7.86,34.64,1.9477,393.257],
    [18208,1537396758,54.035,-110.4058,1115.1,469.8,90.4,1.7,0.8,8.06,35.67,1.9458,393.7951],
    [18209,1537396759,54.0351,-110.4045,1115.2,469.9,88.6,2.2,-0.2,7.83,35.0,1.9487,393.5542],
    [18210,1537396760,54.0351,-110.4033,1114.7,469.7,88.9,2.4,0.5,8.0,35.13,1.9477,393.3694],
    [18211,1537396761,54.0351,-110.4021,1113.7,468.6,88.3,2.5,0.1,8.12,35.26,1.9476,394.0384],
    [18212,1537396762,54.0351,-110.4008,1112.0,468.7,89.2,2.4,0.9,8.01,35.59,1.9467,393.446],
    [18213,1537396763,54.0351,-110.3996,1110.5,468.5,89.3,2.5,0.5,8.95,35.24,1.9485,393.1478],
    [18214,1537396764,54.0351,-110.3983,1109.6,470.2,89.4,2.8,0.1,8.0,35.78,1.9476,390.2954],
    [18215,1537396765,54.0351,-110.397,1108.8,471.8,88.9,2.5,-0.7,8.32,35.83,1.9472,393.8476],
    [18216,1537396766,54.0352,-110.3958,1108.5,474.2,88.8,2.4,-0.9,8.34,35.84,1.9468,391.8879],
    [18217,1537396767,54.0352,-110.3945,1109.2,475.2,88.5,2.7,-1.0,8.21,36.4,1.9459,393.9962],
    [18218,1537396768,54.0352,-110.3933,1111.0,475.4,90.7,3.4,1.9,7.75,35.86,1.9469,393.5163],
    [18219,1537396769,54.0352,-110.392,1111.3,474.4,92.1,3.7,3.2,8.17,36.7,1.9468,393.69],
    [18220,1537396770,54.0352,-110.3907,1110.9,473.0,91.8,2.7,2.5,7.53,36.01,1.9455,393.3479],
    [18221,1537396771,54.0352,-110.3895,1111.8,472.8,91.4,2.1,2.0,8.32,35.4,1.9448,393.6933],
    [18222,1537396772,54.0352,-110.3882,1112.6,471.6,91.3,2.2,2.0,7.82,35.68,1.9444,392.7348],
    [18223,1537396773,54.0352,-110.387,1113.1,471.1,91.3,2.1,2.1,8.09,35.59,1.9443,392.7357],
    [18224,1537396774,54.0352,-110.3856,1113.0,469.2,90.6,1.9,1.6,8.09,35.08,1.9452,392.9827],
    [18225,1537396775,54.0352,-110.3844,1112.8,465.4,89.9,2.1,1.1,8.34,35.18,1.9447,392.9305],
    [18226,1537396776,54.0352,-110.3831,1113.0,462.2,89.2,2.6,0.6,8.09,34.84,1.9455,393.4344],
    [18227,1537396777,54.0352,-110.3818,1113.1,458.9,90.0,2.9,1.9,8.09,34.54,1.9455,394.1763],
    [18228,1537396778,54.0352,-110.3805,1112.0,456.7,88.9,2.6,0.3,8.13,34.54,1.945,391.6698],
    [18229,1537396779,54.0353,-110.3792,1110.8,455.7,88.6,2.8,0.0,8.1,34.86,1.9446,392.6845],
    [18230,1537396780,54.0353,-110.378,1110.3,454.3,90.1,3.4,1.8,8.13,34.72,1.9439,393.3015],
    [18231,1537396781,54.0353,-110.3766,1109.7,450.0,92.2,3.9,3.9,7.95,34.13,1.9429,394.9181],
    [18232,1537396782,54.0353,-110.3753,1109.0,446.0,92.7,4.1,4.1,8.43,33.75,1.9453,394.4494],
    [18233,1537396783,54.0353,-110.374,1108.8,443.8,92.7,3.5,4.2,8.6,33.44,1.9449,393.3029],
    [18234,1537396784,54.0353,-110.3727,1109.2,444.2,91.9,2.8,3.5,8.27,33.28,1.9446,393.2639],
    [18235,1537396785,54.0353,-110.3714,1109.2,445.2,91.0,2.6,2.9,8.18,33.34,1.9466,392.9793],
    [18236,1537396786,54.0353,-110.3701,1108.8,446.1,90.1,2.6,2.6,8.15,32.94,1.9446,393.8057],
    [18237,1537396787,54.0354,-110.3688,1108.4,447.4,89.2,2.9,2.0,8.64,32.4,1.9462,393.6731],
    [18238,1537396788,54.0354,-110.3676,1108.1,448.4,88.3,2.9,1.6,8.28,33.21,1.9463,394.6387],
    [18239,1537396789,54.0354,-110.3663,1108.5,451.5,88.5,2.5,2.1,7.99,32.88,1.9474,393.9695],
    [18240,1537396790,54.0355,-110.365,1109.0,453.0,88.3,2.5,1.8,8.98,32.39,1.9464,393.9695],
    [18241,1537396791,54.0355,-110.3637,1109.4,454.4,88.3,2.9,1.7,8.13,32.63,1.9475,394.4356],
    [18242,1537396792,54.0355,-110.3624,1109.0,456.0,88.5,3.2,1.8,8.2,33.49,1.947,394.0076],
    [18243,1537396793,54.0356,-110.3611,1109.1,456.1,88.6,3.2,1.5,8.14,33.6,1.9458,393.3369],
    [18244,1537396794,54.0356,-110.3599,1110.7,457.7,87.7,3.7,-0.1,8.65,32.56,1.9462,394.0786],
    [18245,1537396795,54.0356,-110.3586,1112.0,459.7,87.0,3.5,-0.8,8.2,33.35,1.9453,393.5821],
    [18246,1537396796,54.0357,-110.3573,1112.1,460.8,88.3,2.7,0.4,7.96,33.12,1.9457,394.9096],
    [18247,1537396797,54.0357,-110.3561,1112.0,460.3,88.1,3.0,-0.1,8.87,32.6,1.9468,394.1957],
    [18248,1537396798,54.0357,-110.3548,1112.2,459.9,88.7,3.0,0.6,8.24,33.42,1.9453,395.0992],
    [18249,1537396799,54.0357,-110.3535,1112.3,460.5,89.0,3.2,0.6,8.26,32.68,1.9449,393.5197],
    [18250,1537396800,54.0357,-110.3522,1112.7,461.6,88.9,3.2,0.5,8.01,33.01,1.9452,394.1738],
    [18251,1537396801,54.0358,-110.351,1112.8,461.8,90.2,2.6,2.2,8.18,33.62,1.9449,394.3904],
    [18252,1537396802,54.0358,-110.3497,1112.5,461.5,90.8,3.7,2.7,8.31,32.89,1.9468,392.937],
    [18253,1537396803,54.0358,-110.3484,1112.7,463.9,89.4,3.7,1.0,8.48,33.27,1.9462,392.937],
    [18254,1537396804,54.0358,-110.3471,1112.8,465.9,88.7,2.7,1.1,7.79,33.14,1.9484,393.7672],
    [18255,1537396805,54.0358,-110.3459,1113.2,465.6,89.1,3.0,2.5,7.63,33.35,1.947,393.7672],
    [18256,1537396806,54.0359,-110.3446,1113.1,465.4,89.3,3.8,3.2,8.06,33.99,1.9477,392.8956],
    [18257,1537396807,54.0359,-110.3433,1112.1,463.9,89.1,4.7,3.3,7.55,33.75,1.9473,392.7389],
    [18258,1537396808,54.036,-110.342,1111.6,462.6,86.0,5.4,-0.7,8.19,34.89,1.9485,393.7512],
    [18259,1537396809,54.036,-110.3407,1111.0,461.7,84.5,5.2,-1.9,7.94,34.25,1.9475,394.5066],
    [18260,1537396810,54.0361,-110.3394,1109.0,458.7,85.5,4.4,-1.3,7.98,34.34,1.9477,392.0277],
    [18261,1537396811,54.0361,-110.3381,1106.3,454.0,85.7,4.2,-1.7,7.83,34.66,1.9461,390.2549],
    [18262,1537396812,54.0361,-110.3368,1104.7,451.7,86.9,3.7,-1.1,8.14,35.61,1.9463,393.8085],
    [18263,1537396813,54.0362,-110.3355,1104.2,450.2,88.2,3.4,-0.4,8.0,35.29,1.9474,394.3667],
    [18264,1537396814,54.0362,-110.3342,1104.7,450.7,88.8,3.2,-0.1,7.81,34.76,1.9476,394.716],
    [18265,1537396815,54.0362,-110.333,1105.5,450.5,89.1,3.3,-0.2,8.16,35.49,1.9461,393.6716],
    [18266,1537396816,54.0362,-110.3316,1106.4,449.3,89.0,3.6,-0.3,8.02,34.85,1.9474,393.6336],
    [18267,1537396817,54.0362,-110.3304,1107.2,448.2,88.8,3.6,-0.6,8.34,34.54,1.9461,394.0875],
    [18268,1537396818,54.0362,-110.3291,1108.3,447.3,88.9,3.3,-0.4,8.78,34.27,1.9458,393.833],
    [18269,1537396819,54.0362,-110.3278,1109.9,447.9,87.8,4.1,-1.9,7.72,34.74,1.9484,392.5758],
    [18270,1537396820,54.0362,-110.3265,1110.6,447.9,87.8,4.3,-1.3,7.69,34.73,1.948,393.343],
    [18271,1537396821,54.0363,-110.3252,1110.9,446.8,87.8,2.6,-1.1,7.91,34.69,1.9484,393.7602],
    [18272,1537396822,54.0363,-110.3239,1111.3,446.3,87.6,2.5,-1.1,8.3,35.61,1.9461,393.8728],
    [18273,1537396823,54.0363,-110.3227,1111.8,445.9,88.7,3.2,0.1,8.78,34.16,1.947,393.6389],
    [18274,1537396824,54.0363,-110.3214,1112.3,445.3,88.1,3.6,-0.9,7.98,34.93,1.9476,393.6576],
    [18275,1537396825,54.0363,-110.3201,1111.5,444.5,88.6,2.9,-0.1,7.81,34.95,1.9471,393.0241],
    [18276,1537396826,54.0363,-110.3189,1110.2,443.2,89.1,2.0,0.2,8.67,34.56,1.9467,392.0789],
    [18277,1537396827,54.0364,-110.3175,1109.1,443.1,88.0,2.5,-0.7,7.93,35.04,1.9472,392.6204],
    [18278,1537396828,54.0364,-110.3163,1108.5,443.5,88.2,2.9,0.0,8.0,35.08,1.9468,393.8293],
    [18279,1537396829,54.0364,-110.315,1108.0,443.0,87.7,2.6,-0.1,8.14,35.23,1.9472,393.4064],
    [18280,1537396830,54.0364,-110.3137,1107.7,443.7,88.9,2.0,1.8,8.01,35.09,1.9467,393.804],
    [18281,1537396831,54.0365,-110.3125,1107.8,443.8,89.3,1.9,2.5,8.28,35.69,1.9481,393.804],
    [18282,1537396832,54.0365,-110.3112,1108.7,444.7,88.9,2.4,2.5,8.34,35.07,1.9478,393.0261],
    [18283,1537396833,54.0365,-110.3099,1109.5,445.5,88.9,2.4,2.6,7.97,35.69,1.9479,392.3925],
    [18284,1537396834,54.0366,-110.3087,1110.0,445.0,87.5,2.5,1.1,7.72,35.61,1.9485,392.2804],
    [18285,1537396835,54.0366,-110.3074,1110.5,443.5,87.7,2.6,1.4,8.25,35.89,1.9492,393.3953],
    [18286,1537396836,54.0367,-110.3062,1110.7,443.7,87.2,2.7,0.8,8.25,35.4,1.9483,393.2274],
    [18287,1537396837,54.0367,-110.3049,1110.0,444.0,87.2,2.7,0.5,8.29,35.71,1.9472,393.813],
    [18288,1537396838,54.0367,-110.3036,1109.1,443.0,87.0,2.6,0.6,8.44,35.92,1.9469,393.5387],
    [18289,1537396839,54.0368,-110.3024,1108.6,442.5,87.7,2.9,1.4,8.21,36.08,1.9486,393.9324],
    [18290,1537396840,54.0368,-110.3012,1109.1,442.0,86.5,3.3,0.1,8.4,36.23,1.947,393.4072],
    [18291,1537396841,54.0369,-110.2999,1109.5,443.5,87.3,3.5,0.9,7.84,36.3,1.9475,394.078],
    [18292,1537396842,54.0369,-110.2986,1109.3,443.3,86.7,4.5,-0.7,8.19,36.0,1.947,391.4942],
    [18293,1537396843,54.0369,-110.2974,1108.5,442.7,87.4,4.5,-0.7,8.39,36.59,1.9468,394.4816],
    [18294,1537396844,54.0369,-110.2962,1108.1,443.1,88.6,4.5,-0.2,7.67,36.0,1.9474,392.7391],
    [18295,1537396845,54.037,-110.295,1108.1,444.1,88.3,4.4,-1.0,7.67,36.0,1.9466,393.2199],
    [18296,1537396846,54.037,-110.2937,1108.1,445.1,88.3,3.9,-1.2,8.47,35.67,1.9461,393.4257],
    [18297,1537396847,54.037,-110.2924,1107.8,445.5,88.4,3.4,-1.0,8.48,35.63,1.9465,394.2483],
    [18298,1537396848,54.037,-110.2912,1108.1,446.1,88.7,3.4,-0.8,8.22,35.98,1.9461,393.6372],
    [18299,1537396849,54.037,-110.2899,1108.3,447.2,88.6,3.6,-0.7,8.08,36.08,1.9464,393.7911],
    [18300,1537396850,54.037,-110.2886,1108.4,447.4,88.5,3.7,-0.6,8.84,35.65,1.9468,393.8621],
    [18301,1537396851,54.037,-110.2874,1108.3,446.4,88.6,3.9,-0.4,8.54,35.28,1.9475,393.2818],
    [18302,1537396852,54.037,-110.2862,1108.4,443.4,87.8,3.8,-1.1,8.44,35.45,1.9467,393.5532],
    [18303,1537396853,54.0371,-110.2849,1108.8,440.9,87.7,3.8,-0.8,8.51,35.76,1.948,394.3382],
    [18304,1537396854,54.0371,-110.2837,1109.1,439.1,87.8,4.0,-0.6,8.39,35.54,1.9459,391.9759],
    [18305,1537396855,54.0371,-110.2825,1109.2,438.2,87.7,3.8,-0.6,8.38,36.03,1.945,393.8433],
    [18306,1537396856,54.0371,-110.2812,1109.0,437.0,87.8,3.9,-0.7,8.06,35.8,1.9437,393.266],
    [18307,1537396857,54.0371,-110.28,1108.9,435.9,87.5,4.1,-1.0,8.09,35.57,1.9455,394.2557],
    [18308,1537396858,54.0372,-110.2787,1108.9,435.9,87.7,3.9,-0.8,7.65,35.73,1.9441,394.8037],
    [18309,1537396859,54.0372,-110.2775,1108.8,437.9,87.8,3.8,-0.9,8.03,35.39,1.945,392.4826],
    [18310,1537396860,54.0372,-110.2763,1108.8,438.8,87.9,3.8,-0.6,8.25,35.69,1.9447,392.3925],
    [18311,1537396861,54.0372,-110.275,1108.9,439.7,88.4,3.6,-0.1,7.95,35.5,1.9463,394.0862],
    [18312,1537396862,54.0372,-110.2738,1108.9,442.9,88.4,3.4,-0.1,7.88,35.24,1.9461,395.1996],
    [18313,1537396863,54.0373,-110.2726,1109.2,443.2,88.4,3.4,-0.1,7.61,34.95,1.946,393.2734],
    [18314,1537396864,54.0373,-110.2713,1109.2,443.2,88.6,3.5,0.2,8.56,34.66,1.9463,393.981],
    [18315,1537396865,54.0373,-110.2701,1109.1,442.2,88.0,3.6,-0.5,8.22,35.03,1.9469,392.5834],
    [18316,1537396866,54.0373,-110.2689,1109.0,439.9,87.8,3.3,-0.6,9.05,34.72,1.9462,394.7643],
    [18317,1537396867,54.0373,-110.2676,1108.9,438.8,88.1,3.1,-0.3,7.74,35.07,1.9475,394.1819],
    [18318,1537396868,54.0374,-110.2664,1109.3,438.0,88.1,3.4,-0.3,8.12,36.09,1.9482,394.5321],
    [18319,1537396869,54.0374,-110.2652,1110.1,437.5,88.2,3.6,0.1,8.26,35.62,1.9486,395.033],
    [18320,1537396870,54.0374,-110.264,1110.4,436.0,88.3,3.9,0.2,8.21,35.07,1.9497,395.0723],
    [18321,1537396871,54.0374,-110.2627,1110.2,434.8,88.4,3.9,0.5,7.55,35.54,1.9498,395.0723],
    [18322,1537396872,54.0375,-110.2615,1110.0,433.9,88.5,4.1,0.7,8.34,36.23,1.9491,394.469],
    [18323,1537396873,54.0375,-110.2602,1109.9,433.7,88.4,4.2,0.8,8.3,36.38,1.9519,393.6049],
    [18324,1537396874,54.0375,-110.259,1109.7,433.1,88.1,3.9,0.5,7.77,36.03,1.9493,393.924],
    [18325,1537396875,54.0375,-110.2578,1109.6,433.7,87.5,3.6,0.1,8.43,35.64,1.9494,394.4243],
    [18326,1537396876,54.0376,-110.2565,1109.0,434.2,88.1,3.6,0.7,8.48,36.53,1.9491,393.8091],
    [18327,1537396877,54.0376,-110.2553,1108.7,434.7,88.1,4.0,0.5,8.35,36.15,1.9482,394.2278],
    [18328,1537396878,54.0376,-110.2541,1109.2,434.3,87.7,4.5,-0.1,8.75,35.82,1.947,393.4175],
    [18329,1537396879,54.0376,-110.2528,1109.3,434.4,87.4,4.7,-0.8,7.43,36.5,1.9467,392.8435],
    [18330,1537396880,54.0377,-110.2516,1108.5,433.5,87.6,4.8,-0.7,8.14,36.67,1.9449,393.5746],
    [18331,1537396881,54.0377,-110.2503,1107.8,433.0,88.0,5.1,-0.6,8.06,36.93,1.9452,394.4556],
    [18332,1537396882,54.0377,-110.2491,1108.3,433.6,88.0,4.8,-0.8,7.4,36.3,1.9439,391.878],
    [18333,1537396883,54.0377,-110.2478,1109.3,435.5,88.0,4.7,-0.9,7.89,36.28,1.9454,393.9025],
    [18334,1537396884,54.0377,-110.2466,1109.7,436.1,88.0,4.6,-1.0,8.13,36.0,1.9464,393.1798],
    [18335,1537396885,54.0378,-110.2453,1110.1,435.1,87.9,4.2,-1.0,7.88,35.96,1.9484,394.1918],
    [18336,1537396886,54.0378,-110.2441,1110.5,435.4,89.5,4.5,1.2,7.5,35.68,1.9477,393.4876],
    [18337,1537396887,54.0378,-110.2428,1110.2,437.2,89.5,4.7,1.0,8.25,35.92,1.9488,394.0785],
    [18338,1537396888,54.0378,-110.2416,1110.0,439.0,89.0,5.0,0.4,8.05,35.79,1.9492,393.7943],
    [18339,1537396889,54.0378,-110.2403,1109.9,438.9,88.6,5.0,0.0,8.44,35.17,1.948,394.2227],
    [18340,1537396890,54.0378,-110.239,1109.8,438.8,88.6,4.8,0.1,7.83,35.99,1.9483,395.0563],
    [18341,1537396891,54.0379,-110.2378,1109.5,438.5,88.9,4.8,0.5,8.12,36.72,1.9485,393.5154],
    [18342,1537396892,54.0379,-110.2365,1108.7,436.0,88.7,3.9,0.5,8.24,35.82,1.949,393.1738],
    [18343,1537396893,54.0379,-110.2353,1107.7,432.6,89.2,3.3,1.0,8.06,36.18,1.9484,393.4809],
    [18344,1537396894,54.0379,-110.234,1107.3,429.7,88.7,3.6,0.4,8.42,35.8,1.9486,395.0804],
    [18345,1537396895,54.0379,-110.2327,1107.1,424.8,89.1,4.1,0.9,8.23,36.48,1.9475,393.3072],
    [18346,1537396896,54.038,-110.2315,1106.7,421.0,89.5,4.1,1.6,8.3,36.19,1.9457,395.9385],
    [18347,1537396897,54.038,-110.2302,1106.5,420.5,89.7,4.0,1.9,8.89,35.9,1.9463,393.5991],
    [18348,1537396898,54.038,-110.229,1107.0,421.0,89.2,3.8,1.5,7.92,36.08,1.9476,394.6559],
    [18349,1537396899,54.038,-110.2277,1107.3,422.3,89.1,3.7,1.5,8.18,35.66,1.9474,394.3084],
    [18350,1537396900,54.038,-110.2265,1108.2,424.2,88.5,3.4,0.7,7.61,35.99,1.9473,392.6326],
    [18351,1537396901,54.0381,-110.2252,1108.7,425.4,87.6,3.2,-0.2,8.06,36.27,1.9466,392.3762],
    [18352,1537396902,54.0381,-110.224,1108.3,426.2,88.3,3.2,0.7,8.2,35.77,1.9468,394.1436],
    [18353,1537396903,54.0381,-110.2227,1108.6,427.6,89.0,3.5,1.4,8.23,36.46,1.947,394.1436],
    [18354,1537396904,54.0382,-110.2215,1109.6,429.3,88.4,3.3,0.6,8.5,35.42,1.9494,393.9027],
    [18355,1537396905,54.0382,-110.2202,1110.4,429.4,88.4,3.6,0.7,8.1,36.55,1.9484,391.1966],
    [18356,1537396906,54.0382,-110.219,1110.2,428.9,88.8,3.9,1.2,8.02,35.91,1.9491,391.1966],
    [18357,1537396907,54.0382,-110.2177,1109.6,428.9,88.6,3.9,1.1,8.0,35.95,1.9481,394.9896],
    [18358,1537396908,54.0383,-110.2165,1108.8,429.6,88.4,4.7,0.8,7.98,36.07,1.9478,394.4745],
    [18359,1537396909,54.0383,-110.2152,1108.1,428.2,88.0,5.1,0.4,8.72,35.72,1.9481,392.757],
    [18360,1537396910,54.0383,-110.214,1108.0,426.3,88.4,4.9,1.0,8.37,36.62,1.9488,394.9248],
    [18361,1537396911,54.0383,-110.2128,1108.4,426.4,88.9,5.1,1.5,8.88,35.37,1.9493,394.7968],
    [18362,1537396912,54.0384,-110.2115,1109.2,427.1,88.8,5.3,1.4,8.23,36.16,1.9491,394.5426],
    [18363,1537396913,54.0384,-110.2103,1109.5,426.4,89.5,4.9,2.2,8.19,36.03,1.9491,394.9934],
    [18364,1537396914,54.0384,-110.209,1109.4,426.4,89.3,4.6,1.9,8.75,35.51,1.9483,396.0998],
    [18365,1537396915,54.0384,-110.2078,1109.0,426.0,88.3,4.9,0.8,7.67,36.26,1.9497,395.8264],
    [18366,1537396916,54.0385,-110.2066,1108.3,426.1,86.8,4.8,-0.8,8.79,35.8,1.9482,394.2777],
    [18367,1537396917,54.0385,-110.2053,1107.5,428.2,86.8,4.3,-0.4,8.41,36.03,1.9484,395.3436],
    [18368,1537396918,54.0385,-110.2041,1107.2,429.9,87.4,3.9,-0.1,7.81,36.25,1.9502,394.7067],
    [18369,1537396919,54.0386,-110.2029,1107.4,431.1,87.6,3.4,-0.2,7.67,36.26,1.9499,394.4879],
    [18370,1537396920,54.0386,-110.2016,1107.3,432.8,89.7,2.9,1.9,8.03,37.05,1.9489,394.2838],
    [18371,1537396921,54.0386,-110.2003,1107.3,434.3,89.7,3.8,1.1,8.19,36.33,1.9479,392.4194],
    [18372,1537396922,54.0386,-110.1991,1107.7,434.7,89.2,4.4,0.3,7.78,36.27,1.948,394.5208],
    [18373,1537396923,54.0386,-110.1979,1107.4,435.4,90.0,5.1,1.0,8.31,35.72,1.9477,393.6651],
    [18374,1537396924,54.0386,-110.1966,1106.6,435.6,90.0,5.1,0.8,8.34,36.33,1.9473,394.8128],
    [18375,1537396925,54.0386,-110.1954,1106.3,436.3,89.4,5.1,0.3,8.48,35.69,1.9477,394.6207],
    [18376,1537396926,54.0387,-110.1942,1106.2,435.2,88.9,4.9,0.1,8.02,36.17,1.9458,394.3666],
    [18377,1537396927,54.0387,-110.193,1106.0,434.0,88.3,5.0,-0.4,7.67,36.09,1.9454,394.92],
    [18378,1537396928,54.0387,-110.1917,1106.0,435.0,87.8,5.0,-0.5,7.84,36.2,1.9456,393.5789],
    [18379,1537396929,54.0387,-110.1905,1106.2,437.2,88.3,5.2,0.0,8.21,35.58,1.9465,394.3252],
    [18380,1537396930,54.0387,-110.1893,1106.4,437.4,88.7,5.2,0.4,8.73,35.02,1.948,395.4731],
    [18381,1537396931,54.0388,-110.1881,1106.9,438.8,89.1,5.1,0.7,7.63,35.62,1.9481,393.132],
    [18382,1537396932,54.0388,-110.1869,1107.9,439.9,89.0,5.1,0.5,8.24,35.13,1.9478,393.9074],
    [18383,1537396933,54.0388,-110.1857,1108.8,439.8,89.3,5.2,0.6,8.11,36.06,1.9485,393.0531],
    [18384,1537396934,54.0388,-110.1845,1108.6,440.6,89.0,4.9,0.2,7.97,36.08,1.9476,393.7661],
    [18385,1537396935,54.0388,-110.1833,1108.0,440.0,89.4,4.5,0.5,7.8,35.67,1.9485,394.5286],
    [18386,1537396936,54.0388,-110.182,1108.6,441.6,89.4,4.2,0.5,7.85,35.63,1.9496,394.9329],
    [18387,1537396937,54.0388,-110.1808,1108.8,441.8,89.2,3.9,0.2,7.64,35.86,1.947,395.1802],
    [18388,1537396938,54.0388,-110.1796,1107.8,440.8,89.6,3.4,0.5,7.97,35.61,1.946,394.3904],
    [18389,1537396939,54.0388,-110.1784,1107.2,438.1,89.9,3.3,0.8,8.02,35.27,1.945,394.5834],
    [18390,1537396940,54.0389,-110.1773,1107.4,437.4,90.4,4.0,1.7,7.94,35.4,1.9464,394.8205],
    [18391,1537396941,54.0389,-110.176,1107.4,436.4,90.8,4.2,2.0,8.75,34.72,1.9446,394.3694],
    [18392,1537396942,54.0389,-110.1748,1107.4,433.7,90.9,4.3,2.3,7.89,35.21,1.95,394.4238],
    [18393,1537396943,54.0389,-110.1736,1108.7,431.7,90.4,3.8,1.7,7.96,34.78,1.9486,394.4144],
    [18394,1537396944,54.0389,-110.1725,1110.7,429.1,88.7,3.8,0.3,8.24,35.63,1.9485,395.694],
    [18395,1537396945,54.0389,-110.1713,1112.3,427.3,90.2,3.3,2.2,7.7,35.54,1.9485,394.4397],
    [18396,1537396946,54.0389,-110.17,1112.4,425.7,90.6,3.8,2.5,8.05,35.57,1.9481,393.8116],
    [18397,1537396947,54.039,-110.1688,1112.1,426.1,89.9,4.0,1.6,8.01,35.35,1.9442,393.6778],
    [18398,1537396948,54.039,-110.1676,1111.6,424.6,88.6,3.9,0.5,8.1,34.84,1.9469,393.6778],
    [18399,1537396949,54.039,-110.1664,1111.1,424.1,89.4,4.1,1.9,8.2,35.18,1.9484,394.849],
    [18400,1537396950,54.039,-110.1652,1110.6,423.6,90.1,4.3,2.8,7.94,35.61,1.9475,394.9702],
    [18401,1537396951,54.039,-110.164,1110.1,423.1,90.1,4.5,2.3,7.5,35.4,1.9457,394.9702],
    [18402,1537396952,54.0391,-110.1628,1109.6,422.6,88.9,4.6,0.8,8.14,35.26,1.9445,394.3394],
    [18403,1537396953,54.0391,-110.1615,1109.0,422.0,88.6,4.6,0.7,8.21,34.92,1.9445,391.919],
    [18404,1537396954,54.0391,-110.1603,1109.0,422.0,88.1,4.0,0.5,7.76,35.39,1.9439,391.6211],
    [18405,1537396955,54.0391,-110.1591,1109.1,422.1,88.5,3.7,1.3,8.52,35.15,1.9436,395.0552],
    [18406,1537396956,54.0392,-110.1579,1108.6,420.6,89.2,3.8,2.0,7.89,35.58,1.9432,394.0813],
    [18407,1537396957,54.0392,-110.1566,1108.2,419.2,88.9,4.4,1.5,7.8,35.18,1.9427,394.0978],
    [18408,1537396958,54.0392,-110.1554,1107.7,419.8,88.6,4.7,0.8,8.28,35.0,1.9421,393.0104],
    [18409,1537396959,54.0392,-110.1541,1107.8,419.9,88.5,4.6,0.8,8.11,34.42,1.9445,394.0207],
    [18410,1537396960,54.0393,-110.1529,1107.8,419.8,89.3,4.4,1.7,7.92,34.39,1.9421,395.0595],
    [18411,1537396961,54.0393,-110.1516,1107.3,419.3,89.3,4.6,1.7,8.42,33.92,1.9434,394.0895],
    [18412,1537396962,54.0393,-110.1503,1106.6,419.6,89.5,4.9,1.9,8.26,34.2,1.9445,393.2038],
    [18413,1537396963,54.0393,-110.1491,1106.5,420.5,89.6,5.2,2.0,7.98,34.05,1.9433,394.1846],
    [18414,1537396964,54.0394,-110.1479,1106.8,422.1,89.7,5.0,2.0,8.21,33.6,1.944,394.1061],
    [18415,1537396965,54.0394,-110.1466,1106.9,421.8,89.0,4.9,1.2,8.44,33.14,1.9445,394.1061],
    [18416,1537396966,54.0394,-110.1454,1106.9,421.2,88.8,4.8,1.2,7.92,33.67,1.9425,394.5963],
    [18417,1537396967,54.0394,-110.1441,1106.4,422.4,89.3,4.6,1.8,8.49,33.1,1.9433,394.3743],
    [18418,1537396968,54.0395,-110.1429,1106.2,422.2,89.2,4.7,1.4,8.32,33.18,1.9445,393.9654],
    [18419,1537396969,54.0395,-110.1416,1107.4,422.7,88.6,5.0,0.8,8.37,33.38,1.9435,395.3234],
    [18420,1537396970,54.0395,-110.1404,1108.5,422.5,88.7,4.9,0.9,7.41,33.53,1.9441,395.1101],
    [18421,1537396971,54.0395,-110.1393,1108.9,422.9,88.7,4.6,1.0,8.53,33.36,1.9452,394.7111],
    [18422,1537396972,54.0395,-110.1379,1109.2,424.2,89.4,4.1,1.6,8.06,33.69,1.9445,394.7111],
    [18423,1537396973,54.0396,-110.1367,1110.0,425.0,89.1,4.2,1.3,8.35,33.7,1.9452,394.6605],
    [18424,1537396974,54.0396,-110.1355,1111.2,425.2,88.8,4.0,0.9,8.28,33.56,1.9446,393.8716],
    [18425,1537396975,54.0396,-110.1342,1111.4,426.4,89.0,3.6,1.4,8.32,33.47,1.9463,393.8716],
    [18426,1537396976,54.0396,-110.133,1110.6,427.6,89.2,3.6,1.2,7.92,34.09,1.9453,393.6433],
    [18427,1537396977,54.0397,-110.1318,1110.7,429.0,88.7,3.4,0.4,8.07,34.9,1.945,394.8594],
    [18428,1537396978,54.0397,-110.1305,1111.5,431.5,88.6,3.7,0.2,7.68,33.97,1.9459,394.228],
    [18429,1537396979,54.0397,-110.1293,1111.7,431.7,88.6,4.0,0.2,8.2,33.84,1.9455,394.228],
    [18430,1537396980,54.0397,-110.128,1110.5,429.5,88.6,5.0,0.2,8.06,35.07,1.9438,394.7513],
    [18431,1537396981,54.0397,-110.1268,1109.1,428.0,88.7,5.6,0.1,7.49,34.39,1.9435,394.3887],
    [18432,1537396982,54.0397,-110.1256,1108.2,427.3,89.2,6.0,0.8,7.47,34.29,1.9458,394.4224],
    [18433,1537396983,54.0398,-110.1243,1107.3,424.3,90.1,5.9,1.8,8.22,34.39,1.9463,389.6547],
    [18434,1537396984,54.0398,-110.1231,1106.6,423.6,89.5,5.0,0.8,8.01,34.51,1.944,394.9581],
    [18435,1537396985,54.0398,-110.1218,1106.4,422.9,88.6,4.4,-0.2,8.59,34.24,1.9443,394.0758],
    [18436,1537396986,54.0398,-110.1206,1106.4,421.4,88.8,5.3,0.0,8.17,35.09,1.9453,394.6032],
    [18437,1537396987,54.0398,-110.1193,1106.5,420.3,88.6,5.5,-0.2,7.51,34.31,1.9433,394.9227],
    [18438,1537396988,54.0398,-110.1181,1106.1,418.9,88.9,5.3,0.1,8.18,34.38,1.9453,394.5443],
    [18439,1537396989,54.0398,-110.1168,1105.8,418.5,88.7,5.0,-0.4,8.12,34.82,1.9432,394.5443],
    [18440,1537396990,54.0399,-110.1156,1105.5,418.5,88.9,5.3,0.2,8.02,34.12,1.9437,395.6892],
    [18441,1537396991,54.0399,-110.1144,1105.3,416.2,89.1,5.1,0.4,7.99,34.38,1.9442,393.5926],
    [18442,1537396992,54.0399,-110.1131,1105.3,413.6,88.5,5.1,0.3,8.15,34.79,1.9455,394.2214],
    [18443,1537396993,54.0399,-110.1119,1105.3,411.3,88.4,5.1,0.6,7.61,34.36,1.946,394.7917],
    [18444,1537396994,54.0399,-110.1106,1105.9,410.9,88.0,5.1,0.6,8.58,34.0,1.9457,394.1741],
    [18445,1537396995,54.04,-110.1094,1106.4,409.7,88.5,5.4,1.2,7.9,34.09,1.9459,394.5874],
    [18446,1537396996,54.04,-110.1082,1106.9,411.2,88.1,5.4,0.6,8.1,34.29,1.9457,393.807],
    [18447,1537396997,54.04,-110.107,1107.0,414.0,88.3,5.6,0.8,7.67,34.77,1.9458,395.3573],
    [18448,1537396998,54.0401,-110.1057,1107.0,415.1,88.4,5.4,0.9,8.09,34.61,1.9444,394.0655],
    [18449,1537396999,54.0401,-110.1045,1107.6,415.6,88.5,5.4,0.8,8.13,34.46,1.9424,390.4967],
    [18450,1537397000,54.0401,-110.1033,1108.2,417.2,88.0,5.7,0.1,7.76,34.58,1.9416,394.8076],
    [18451,1537397001,54.0401,-110.1021,1108.3,418.3,87.8,5.5,-0.1,8.48,33.85,1.9416,394.4572],
    [18452,1537397002,54.0402,-110.1009,1108.0,419.0,87.8,5.5,-0.2,8.13,34.39,1.9426,394.0295],
    [18453,1537397003,54.0402,-110.0996,1107.7,419.7,88.0,5.7,0.0,8.11,33.88,1.9412,393.7926],
    [18454,1537397004,54.0402,-110.0984,1107.4,421.0,88.4,5.7,0.2,8.1,33.51,1.9401,392.9158],
    [18455,1537397005,54.0402,-110.0972,1107.3,422.5,88.4,5.5,0.1,8.2,33.73,1.9381,392.8219],
    [18456,1537397006,54.0402,-110.096,1107.2,424.8,88.5,5.4,0.1,7.88,33.34,1.9362,392.9217],
    [18457,1537397007,54.0403,-110.0948,1107.1,425.5,88.6,5.3,0.1,7.97,32.42,1.9366,393.987],
    [18458,1537397008,54.0403,-110.0936,1107.1,424.2,88.6,5.3,0.0,7.76,32.14,1.9385,393.5551],
    [18459,1537397009,54.0403,-110.0924,1107.1,422.1,88.6,5.3,-0.1,8.25,31.4,1.9388,393.6115],
    [18460,1537397010,54.0403,-110.0911,1107.2,422.2,89.3,4.8,0.4,8.81,30.82,1.9431,395.0719],
    [18461,1537397011,54.0403,-110.0899,1107.1,422.1,89.7,4.7,0.4,8.12,31.47,1.9437,393.939],
    [18462,1537397012,54.0403,-110.0887,1107.2,423.2,90.0,4.7,0.5,8.29,30.99,1.944,394.7216],
    [18463,1537397013,54.0403,-110.0875,1107.4,423.1,90.3,4.7,0.8,8.68,30.26,1.9463,394.4834],
    [18464,1537397014,54.0403,-110.0863,1107.4,422.4,90.1,5.2,0.4,8.22,30.87,1.9463,394.4834],
    [18465,1537397015,54.0403,-110.0851,1107.6,421.6,89.9,5.3,0.1,8.29,30.84,1.9456,396.1569],
    [18466,1537397016,54.0403,-110.0839,1107.9,422.9,90.2,5.3,0.6,8.16,31.97,1.9464,394.9807],
    [18467,1537397017,54.0403,-110.0827,1108.2,425.5,91.2,5.5,1.8,8.25,32.14,1.9457,395.2834],
    [18468,1537397018,54.0403,-110.0815,1107.5,428.1,91.1,5.7,1.7,8.43,32.33,1.9439,395.2375],
    [18469,1537397019,54.0403,-110.0803,1106.6,430.6,91.3,6.0,2.2,8.42,31.81,1.9444,395.2375],
    [18470,1537397020,54.0403,-110.0791,1107.4,433.4,91.1,6.0,2.2,7.55,32.59,1.9459,394.214],
    [18471,1537397021,54.0403,-110.0779,1108.4,432.4,90.2,5.8,1.3,8.01,32.36,1.9456,394.499],
    [18472,1537397022,54.0404,-110.0766,1108.6,427.9,90.0,5.8,1.1,7.99,33.05,1.9446,394.6342],
    [18473,1537397023,54.0404,-110.0754,1108.5,425.5,89.7,5.6,0.9,8.01,33.37,1.9449,395.0963],
    [18474,1537397024,54.0404,-110.0742,1108.4,425.4,90.2,5.6,1.4,8.21,34.16,1.9449,392.1745],
    [18475,1537397025,54.0404,-110.073,1108.5,426.5,90.2,5.5,1.2,7.92,33.4,1.9442,394.168],
    [18476,1537397026,54.0404,-110.0718,1108.6,427.9,90.2,5.2,1.1,8.15,34.24,1.9451,395.5218],
    [18477,1537397027,54.0404,-110.0706,1109.2,430.9,90.4,5.4,1.1,8.08,33.86,1.9444,393.2008],
    [18478,1537397028,54.0404,-110.0694,1109.0,432.3,90.7,5.4,1.2,8.64,33.29,1.9441,394.9683],
    [18479,1537397029,54.0404,-110.0681,1108.2,432.2,90.9,5.2,1.1,7.93,33.89,1.9444,393.1101],
    [18480,1537397030,54.0404,-110.067,1108.2,432.2,90.6,4.7,0.6,7.87,33.84,1.9459,393.3137],
    [18481,1537397031,54.0404,-110.0657,1109.2,434.2,91.6,4.6,2.0,7.6,33.97,1.9476,393.5181],
    [18482,1537397032,54.0404,-110.0645,1109.6,434.6,91.8,5.6,2.1,7.74,34.1,1.9456,394.4375],
    [18483,1537397033,54.0404,-110.0632,1108.9,433.9,90.8,6.3,1.0,8.18,34.35,1.9465,395.1066],
    [18484,1537397034,54.0404,-110.062,1108.2,433.2,90.8,6.5,1.0,7.75,34.68,1.9454,395.9224],
    [18485,1537397035,54.0404,-110.0608,1107.2,429.5,91.3,6.5,1.5,8.2,35.06,1.9464,393.9913],
    [18486,1537397036,54.0404,-110.0595,1105.8,425.8,92.5,6.5,2.7,8.46,34.3,1.9469,394.8914],
    [18487,1537397037,54.0404,-110.0583,1104.3,422.3,92.2,5.4,2.5,8.2,35.73,1.9457,393.6743],
    [18488,1537397038,54.0404,-110.057,1104.3,421.3,92.6,5.5,2.9,8.29,35.16,1.9444,393.9636],
    [18489,1537397039,54.0404,-110.0558,1104.7,422.7,92.8,5.7,2.9,7.94,35.44,1.9449,393.1107],
    [18490,1537397040,54.0404,-110.0545,1104.9,423.9,93.2,5.4,3.5,7.99,35.59,1.9447,394.7583],
    [18491,1537397041,54.0404,-110.0533,1104.7,422.7,93.0,5.5,3.3,8.02,35.59,1.9445,394.1906],
    [18492,1537397042,54.0404,-110.0521,1105.1,422.1,92.6,5.7,3.3,7.74,35.42,1.9443,393.9323],
    [18493,1537397043,54.0404,-110.0508,1105.8,422.7,92.1,6.4,2.9,7.94,35.48,1.945,393.4154],
    [18494,1537397044,54.0404,-110.0496,1106.1,425.1,90.8,6.4,1.9,8.15,35.13,1.9446,392.5374],
    [18495,1537397045,54.0404,-110.0484,1106.0,427.3,90.9,5.6,2.4,8.07,36.04,1.9432,392.5374],
    [18496,1537397046,54.0404,-110.0471,1105.7,429.7,91.4,5.6,3.0,7.9,36.12,1.9441,394.7624],
    [18497,1537397047,54.0404,-110.0459,1106.1,431.1,90.8,4.9,2.2,8.12,35.38,1.9445,394.5697],
    [18498,1537397048,54.0404,-110.0447,1106.8,432.8,90.6,4.7,2.0,8.53,35.05,1.9433,394.9891],
    [18499,1537397049,54.0404,-110.0434,1107.0,434.0,91.0,5.1,2.6,8.01,36.11,1.9432,395.2408],
    [18500,1537397050,54.0404,-110.0422,1107.0,435.0,90.8,5.5,2.3,7.72,35.55,1.9419,393.7577],
    [18501,1537397051,54.0404,-110.0409,1107.1,435.1,89.8,5.5,1.3,8.02,35.54,1.9423,392.7237],
    [18502,1537397052,54.0405,-110.0397,1107.1,434.1,89.8,4.6,1.3,8.13,36.01,1.9421,393.6325],
    [18503,1537397053,54.0405,-110.0385,1106.6,431.3,89.7,3.1,0.9,8.27,35.01,1.943,393.891],
    [18504,1537397054,54.0405,-110.0372,1106.6,429.7,89.8,3.2,1.0,7.94,35.23,1.9424,392.5751],
    [18505,1537397055,54.0405,-110.0361,1106.8,427.8,90.0,3.0,1.0,8.03,35.07,1.9426,393.837],
    [18506,1537397056,54.0405,-110.0348,1107.0,429.0,90.0,2.4,0.9,8.06,35.13,1.944,393.7557],
    [18507,1537397057,54.0405,-110.0336,1106.9,429.9,90.1,2.6,0.9,8.77,34.25,1.9416,393.3306],
    [18508,1537397058,54.0405,-110.0324,1107.1,431.2,91.0,3.7,1.9,7.99,34.67,1.9427,393.4824],
    [18509,1537397059,54.0405,-110.0311,1107.7,431.7,91.0,4.5,1.7,8.05,34.39,1.9408,393.0738],
    [18510,1537397060,54.0405,-110.0299,1107.4,433.5,91.7,4.1,2.4,8.09,34.23,1.9403,393.252],
    [18511,1537397061,54.0405,-110.0287,1106.4,433.4,91.6,4.5,2.0,8.18,34.65,1.9406,394.3566],
    [18512,1537397062,54.0405,-110.0275,1105.9,434.2,91.5,4.6,2.1,8.88,33.7,1.9388,393.4971],
    [18513,1537397063,54.0405,-110.0263,1106.3,436.3,91.6,4.6,2.4,7.9,34.1,1.9421,393.4971],
    [18514,1537397064,54.0405,-110.0251,1106.6,437.6,91.2,4.6,2.1,7.36,33.34,1.9414,394.1431],
    [18515,1537397065,54.0405,-110.0239,1106.3,438.3,90.7,4.4,1.6,8.32,32.74,1.9437,395.299],
    [18516,1537397066,54.0405,-110.0226,1106.3,439.2,90.7,4.6,1.7,8.11,33.05,1.9432,392.4574],
    [18517,1537397067,54.0406,-110.0214,1105.9,439.9,90.6,4.9,1.4,8.17,32.88,1.9408,394.8213],
    [18518,1537397068,54.0406,-110.0202,1105.4,439.4,89.9,5.0,0.7,7.89,33.31,1.9394,392.7968],
    [18519,1537397069,54.0406,-110.019,1105.3,439.3,90.1,4.9,1.3,8.86,32.46,1.9401,392.7968],
    [18520,1537397070,54.0406,-110.0178,1105.8,439.8,90.2,4.7,1.5,8.03,32.67,1.9404,394.305],
    [18521,1537397071,54.0406,-110.0166,1106.3,441.3,90.6,4.8,1.8,8.03,33.19,1.9401,394.218],
    [18522,1537397072,54.0406,-110.0154,1106.4,441.4,90.6,4.6,1.8,7.81,32.02,1.9402,393.8067],
    [18523,1537397073,54.0406,-110.0142,1106.3,441.3,90.4,4.5,1.5,8.09,32.12,1.9394,394.9385],
    [18524,1537397074,54.0406,-110.013,1106.7,441.0,90.2,4.4,1.4,8.29,31.56,1.942,395.0496],
    [18525,1537397075,54.0406,-110.0118,1107.3,441.2,90.3,4.2,1.5,8.46,31.62,1.9428,395.2192],
    [18526,1537397076,54.0406,-110.0106,1107.8,440.8,90.2,4.1,1.3,8.29,31.43,1.9396,392.1076],
    [18527,1537397077,54.0406,-110.0094,1108.0,441.1,90.2,4.4,1.1,7.74,31.63,1.9392,392.8453],
    [18528,1537397078,54.0407,-110.0082,1107.7,441.0,89.9,5.0,0.7,8.29,31.5,1.9404,393.2122],
    [18529,1537397079,54.0407,-110.007,1107.3,440.4,90.6,4.9,1.5,8.08,31.4,1.9393,393.3905],
    [18530,1537397080,54.0407,-110.0058,1107.5,439.4,90.7,4.9,1.6,8.22,31.15,1.9407,392.5416],
    [18531,1537397081,54.0407,-110.0046,1107.7,438.0,90.6,5.1,1.4,7.52,31.25,1.9389,395.1408],
    [18532,1537397082,54.0407,-110.0034,1107.5,436.8,90.7,5.0,1.6,8.46,31.04,1.9386,394.5735],
    [18533,1537397083,54.0407,-110.0022,1106.9,435.8,90.5,5.1,1.5,8.5,30.19,1.9385,393.9044],
    [18534,1537397084,54.0407,-110.001,1106.5,435.6,90.4,5.4,1.4,7.62,30.82,1.9387,392.6689],
    [18535,1537397085,54.0407,-109.9998,1106.5,437.0,90.5,5.4,1.4,8.7,30.39,1.9408,393.6347],
    [18536,1537397086,54.0407,-109.9986,1106.6,439.1,90.5,5.2,1.3,8.15,30.48,1.9413,393.8699],
    [18537,1537397087,54.0407,-109.9974,1106.5,441.1,90.8,5.3,1.7,8.62,30.26,1.9423,394.4317],
    [18538,1537397088,54.0407,-109.9962,1106.4,446.8,90.8,5.5,1.8,7.34,30.45,1.9432,394.3994],
    [18539,1537397089,54.0407,-109.9949,1106.2,453.0,90.9,5.6,2.0,8.27,30.63,1.944,394.9642],
    [18540,1537397090,54.0407,-109.9937,1106.1,455.4,90.9,5.5,2.1,7.8,30.42,1.9451,394.3005],
    [18541,1537397091,54.0407,-109.9925,1106.3,459.7,90.8,5.2,2.0,8.52,30.34,1.9424,394.6078],
    [18542,1537397092,54.0407,-109.9913,1106.6,463.7,90.3,4.9,1.4,8.26,31.12,1.9415,393.6231],
    [18543,1537397093,54.0408,-109.9901,1107.0,464.1,90.3,4.5,1.3,8.27,31.12,1.9409,394.3049],
    [18544,1537397094,54.0408,-109.9889,1107.4,464.5,90.4,4.3,1.3,8.29,31.58,1.9417,393.7482],
    [18545,1537397095,54.0408,-109.9877,1107.8,468.6,90.4,4.0,1.2,8.8,31.37,1.9409,393.5785],
    [18546,1537397096,54.0408,-109.9865,1107.8,470.8,90.4,4.1,1.1,8.54,31.42,1.9418,394.6889],
    [18547,1537397097,54.0408,-109.9853,1107.4,471.4,90.6,4.3,1.3,7.76,31.76,1.9405,393.6407],
    [18548,1537397098,54.0408,-109.9841,1107.4,471.8,90.6,4.6,1.2,8.77,31.27,1.9413,393.6407],
    [18549,1537397099,54.0408,-109.9829,1107.9,471.2,90.5,4.8,0.9,7.96,32.5,1.9414,395.8576],
    [18550,1537397100,54.0408,-109.9817,1108.0,470.3,90.6,5.5,0.7,8.6,31.6,1.9428,390.8895],
    [18551,1537397101,54.0408,-109.9805,1107.0,469.4,90.8,5.7,0.1,7.9,32.76,1.9407,393.9298],
    [18552,1537397102,54.0408,-109.9793,1106.2,468.1,92.3,5.3,0.2,8.06,32.11,1.9412,393.9322],
    [18553,1537397103,54.0407,-109.978,1105.2,466.3,93.9,5.1,-0.2,8.3,31.86,1.9417,394.6672],
    [18554,1537397104,54.0407,-109.9768,1103.8,464.3,96.3,4.7,0.0,8.57,31.7,1.9447,394.7075],
    [18555,1537397105,54.0406,-109.9756,1102.3,462.2,99.5,4.2,0.6,8.4,32.5,1.9445,394.8748],
    [18556,1537397106,54.0405,-109.9744,1100.6,461.6,103.4,3.9,2.0,7.9,32.84,1.9429,395.3168],
    [18557,1537397107,54.0403,-109.9732,1099.0,460.0,106.8,4.2,2.1,8.08,33.09,1.9431,394.0184],
    [18558,1537397108,54.0401,-109.972,1097.7,459.8,109.7,4.5,2.0,8.14,33.41,1.9446,395.0203],
    [18559,1537397109,54.0399,-109.9709,1095.8,457.8,113.5,4.9,2.7,8.02,33.32,1.9455,395.3018],
    [18560,1537397110,54.0396,-109.9698,1093.8,455.8,116.9,5.1,2.6,8.13,34.0,1.9467,395.6997],
    [18561,1537397111,54.0393,-109.9686,1091.3,453.3,120.4,5.4,2.6,7.9,33.91,1.9442,395.0884],
    [18562,1537397112,54.0389,-109.9676,1088.5,450.5,123.6,5.7,2.2,8.03,34.8,1.9433,394.287],
    [18563,1537397113,54.0386,-109.9665,1086.1,448.1,125.8,5.2,0.2,8.37,33.89,1.9419,395.2419],
    [18564,1537397114,54.0381,-109.9655,1084.4,445.4,128.2,4.8,-0.2,8.11,34.83,1.9434,394.3271],
    [18565,1537397115,54.0377,-109.9645,1082.1,442.0,131.7,5.4,0.6,7.8,34.63,1.9417,394.6583],
    [18566,1537397116,54.0372,-109.9636,1079.0,439.0,134.5,5.2,0.5,7.83,34.83,1.9452,394.1703],
    [18567,1537397117,54.0367,-109.9627,1076.3,435.3,138.1,4.8,1.3,7.48,34.37,1.9456,394.1025],
    [18568,1537397118,54.0362,-109.9619,1074.8,433.8,140.8,4.4,0.8,8.47,34.0,1.9434,391.4767],
    [18569,1537397119,54.0357,-109.9611,1072.8,432.8,143.4,4.6,1.0,8.88,34.36,1.9449,394.3009],
    [18570,1537397120,54.0351,-109.9603,1070.3,430.2,146.9,4.6,2.0,7.81,34.59,1.9431,392.4088],
    [18571,1537397121,54.0345,-109.9596,1068.3,430.3,149.8,4.9,1.7,8.07,34.82,1.9434,391.9933],
    [18572,1537397122,54.0339,-109.9589,1066.3,430.3,152.8,5.3,1.4,7.92,34.94,1.9441,395.197],
    [18573,1537397123,54.0333,-109.9583,1064.0,428.7,155.2,4.9,0.7,7.57,34.57,1.9429,392.6672],
    [18574,1537397124,54.0326,-109.9578,1061.1,426.3,157.8,4.8,0.1,7.65,34.55,1.9434,394.7248],
    [18575,1537397125,54.0319,-109.9573,1058.1,426.5,161.3,5.3,-0.2,8.01,35.08,1.9428,394.0744],
    [18576,1537397126,54.0313,-109.9568,1055.1,425.1,164.3,5.1,0.3,7.92,34.26,1.9432,393.9255],
    [18577,1537397127,54.0306,-109.9565,1052.2,423.3,167.7,5.7,0.7,8.1,35.19,1.9422,393.498],
    [18578,1537397128,54.0299,-109.9561,1049.8,420.9,170.7,5.9,0.7,8.21,34.62,1.9413,394.3091],
    [18579,1537397129,54.0292,-109.9559,1047.9,417.6,172.6,5.6,0.5,8.15,33.64,1.9393,392.9005],
    [18580,1537397130,54.0285,-109.9557,1045.9,413.5,174.5,5.5,0.5,8.94,33.48,1.9414,392.9005],
    [18581,1537397131,54.0278,-109.9555,1044.0,411.0,175.9,5.1,0.9,8.07,33.61,1.9425,394.5078],
    [18582,1537397132,54.0271,-109.9553,1042.0,407.0,177.8,4.9,1.5,7.75,33.36,1.9455,393.9522],
    [18583,1537397133,54.0263,-109.9552,1040.9,404.9,179.6,4.5,1.4,8.68,33.13,1.948,394.0143],
    [18584,1537397134,54.0256,-109.9552,1040.0,403.6,180.8,3.9,1.0,7.77,33.45,1.9495,394.0143],
    [18585,1537397135,54.0249,-109.9552,1038.3,400.6,183.4,5.1,0.2,8.34,34.03,1.9473,394.5925],
    [18586,1537397136,54.0242,-109.9552,1035.5,397.3,184.7,5.1,0.0,8.43,33.9,1.9453,395.8856],
    [18587,1537397137,54.0235,-109.9552,1031.4,392.5,185.5,4.1,0.4,8.23,34.36,1.9431,395.8856],
    [18588,1537397138,54.0228,-109.9553,1028.3,388.3,187.2,4.0,0.4,8.27,34.23,1.9443,394.6893],
    [18589,1537397139,54.022,-109.9554,1025.5,385.5,189.3,4.3,0.6,9.02,34.3,1.946,393.8722],
    [18590,1537397140,54.0213,-109.9556,1023.0,383.0,190.8,4.1,0.8,8.28,34.57,1.945,393.857],
    [18591,1537397141,54.0206,-109.9557,1020.3,379.3,192.6,4.6,1.1,8.42,34.56,1.9454,394.6545],
    [18592,1537397142,54.0199,-109.956,1017.8,376.8,194.3,4.6,1.1,8.15,34.89,1.9438,393.979],
    [18593,1537397143,54.0192,-109.9562,1015.7,373.7,195.4,4.4,1.0,8.28,35.17,1.9432,394.4855],
    [18594,1537397144,54.0185,-109.9565,1013.4,371.4,196.6,4.5,1.0,8.3,34.62,1.9441,394.3765],
    [18595,1537397145,54.0178,-109.9568,1010.8,368.8,197.2,4.2,1.1,8.53,34.61,1.9446,394.7181],
    [18596,1537397146,54.0171,-109.9571,1007.9,364.9,198.0,4.6,1.0,8.4,34.42,1.9459,393.6094],
    [18597,1537397147,54.0164,-109.9574,1004.7,361.7,198.5,4.7,0.8,8.49,34.42,1.9437,393.4135],
    [18598,1537397148,54.0157,-109.9578,1001.1,357.1,199.0,5.0,0.6,8.48,34.63,1.9448,393.9064],
    [18599,1537397149,54.015,-109.9581,997.3,353.3,199.4,5.5,0.3,8.26,35.06,1.9447,393.9064],
    [18600,1537397150,54.0143,-109.9584,993.2,348.9,199.7,5.9,-0.3,8.58,34.3,1.9474,394.0531],
    [18601,1537397151,54.0136,-109.9588,989.9,344.9,198.8,5.0,-0.1,8.69,35.42,1.9484,393.4237],
    [18602,1537397152,54.0129,-109.9591,986.4,341.4,198.4,4.9,0.0,8.66,34.88,1.9478,393.7767],
    [18603,1537397153,54.0122,-109.9594,982.5,336.5,198.5,5.3,0.4,8.65,35.04,1.948,393.8702],
    [18604,1537397154,54.0115,-109.9597,978.6,332.6,198.1,5.0,0.9,9.36,34.9,1.9469,391.5627],
    [18605,1537397155,54.0108,-109.96,975.7,328.7,197.3,4.2,1.3,9.18,34.99,1.9469,393.1624],
    [18606,1537397156,54.0101,-109.9604,972.4,325.1,198.0,5.3,1.2,8.37,35.1,1.9469,394.1064],
    [18607,1537397157,54.0094,-109.9607,968.9,320.6,198.1,5.2,1.2,8.96,35.89,1.9464,393.567],
    [18608,1537397158,54.0087,-109.961,965.6,316.6,198.2,5.3,1.1,9.14,35.03,1.9466,393.6905],
    [18609,1537397159,54.008,-109.9613,962.1,312.1,198.3,5.4,1.0,8.69,35.66,1.9456,393.788],
    [18610,1537397160,54.0073,-109.9616,958.5,309.5,198.4,5.2,0.9,8.3,35.67,1.9452,391.8623],
    [18611,1537397161,54.0065,-109.962,955.3,306.3,198.2,5.0,0.6,8.85,36.23,1.9456,394.0415],
    [18612,1537397162,54.0058,-109.9623,952.0,300.2,198.3,5.0,0.4,9.17,35.54,1.9462,394.6219],
    [18613,1537397163,54.0051,-109.9626,948.5,296.6,198.0,4.7,0.6,9.02,35.36,1.9454,394.7634],
    [18614,1537397164,54.0044,-109.963,944.7,292.6,198.1,5.0,0.9,8.93,35.9,1.9491,394.5972],
    [18615,1537397165,54.0037,-109.9633,940.9,287.9,198.0,4.8,0.9,8.96,35.65,1.9448,393.8435],
    [18616,1537397166,54.003,-109.9636,937.1,283.1,198.1,4.8,0.8,8.63,35.53,1.9449,393.4069],
    [18617,1537397167,54.0022,-109.9639,933.6,279.7,198.0,4.6,0.9,8.64,35.58,1.9454,394.4513],
    [18618,1537397168,54.0015,-109.9643,930.5,275.6,198.1,4.9,0.6,8.9,35.59,1.9459,392.1664],
    [18619,1537397169,54.0008,-109.9646,926.8,270.8,197.7,5.1,0.6,9.23,35.23,1.9469,393.8542],
    [18620,1537397170,54.0001,-109.9649,923.0,265.6,196.7,5.2,0.5,9.67,35.02,1.9464,393.2889],
    [18621,1537397171,53.9994,-109.9652,918.8,260.1,195.2,5.0,0.5,8.76,35.37,1.9461,393.7498],
    [18622,1537397172,53.9986,-109.9654,914.6,254.6,193.4,4.7,0.6,8.81,35.21,1.9464,392.591],
    [18623,1537397173,53.9979,-109.9656,910.5,249.5,191.8,4.7,0.9,8.61,35.15,1.9475,392.591],
    [18624,1537397174,53.9971,-109.9658,907.2,245.2,190.1,4.3,1.1,9.16,35.0,1.9471,393.77],
    [18625,1537397175,53.9964,-109.9659,905.2,242.2,189.1,4.1,0.6,8.85,35.61,1.9474,392.4975],
    [18626,1537397176,53.9956,-109.9661,903.9,239.9,188.3,3.8,0.2,9.25,34.96,1.9491,392.255],
    [18627,1537397177,53.9949,-109.9662,902.3,237.3,188.2,4.1,0.4,9.19,35.39,1.9495,393.2936],
    [18628,1537397178,53.9941,-109.9663,900.5,234.6,187.1,3.6,0.3,9.34,35.34,1.9497,393.2936],
    [18629,1537397179,53.9934,-109.9664,899.1,232.1,186.7,3.8,0.7,8.89,35.6,1.9498,393.5521],
    [18630,1537397180,53.9927,-109.9665,898.1,230.2,185.9,3.7,0.9,9.31,36.0,1.9479,393.5521],
    [18631,1537397181,53.9919,-109.9666,897.7,227.6,185.8,4.3,0.8,9.13,35.37,1.9477,393.0654],
    [18632,1537397182,53.9912,-109.9666,897.1,226.8,185.3,4.2,0.8,9.39,35.14,1.9481,392.2776],
    [18633,1537397183,53.9904,-109.9667,896.9,226.3,184.7,4.0,0.3,9.19,35.34,1.9503,393.2118],
    [18634,1537397184,53.9897,-109.9667,897.2,227.2,184.7,4.7,0.2,9.43,35.69,1.9493,393.328],
    [18635,1537397185,53.9889,-109.9667,897.2,227.2,184.0,4.2,-0.3,9.51,35.39,1.951,393.6037],
    [18636,1537397186,53.9882,-109.9668,897.2,226.5,183.4,3.9,0.0,9.57,35.74,1.949,393.2986],
    [18637,1537397187,53.9874,-109.9668,896.4,226.4,182.8,3.7,0.1,9.11,35.28,1.9466,393.2986],
    [18638,1537397188,53.9867,-109.9668,895.9,225.9,182.3,3.4,0.0,9.3,35.74,1.9484,392.7642],
    [18639,1537397189,53.986,-109.9668,895.6,225.6,182.3,3.5,-0.2,10.46,34.81,1.9457,393.4337],
    [18640,1537397190,53.9853,-109.9668,895.3,225.3,182.4,3.4,-0.1,9.5,35.66,1.9451,393.6275],
    [18641,1537397191,53.9845,-109.9668,895.3,225.3,182.4,3.4,0.0,9.65,34.87,1.9455,393.6275],
    [18642,1537397192,53.9838,-109.9668,895.4,225.4,182.8,3.6,-0.2,10.11,34.77,1.9457,392.5471],
    [18643,1537397193,53.983,-109.9668,895.8,225.8,182.8,3.6,0.0,9.62,35.13,1.9442,392.6342],
    [18644,1537397194,53.9823,-109.9668,896.0,227.0,183.1,3.8,0.2,9.46,34.75,1.945,392.3585],
    [18645,1537397195,53.9816,-109.9668,896.1,227.1,183.2,3.9,0.1,9.6,34.76,1.9458,392.4659],
    [18646,1537397196,53.9809,-109.9668,896.1,228.1,183.2,4.0,-0.2,9.62,34.52,1.9452,393.5724],
    [18647,1537397197,53.9802,-109.9668,896.2,228.1,182.8,3.5,-0.1,9.65,34.33,1.9447,393.0622],
    [18648,1537397198,53.9794,-109.9668,896.2,229.2,182.5,3.3,-0.2,9.67,34.2,1.9464,391.0435],
    [18649,1537397199,53.9787,-109.9668,896.2,230.2,182.4,3.3,-0.2,9.42,34.32,1.9461,391.9238],
    [18650,1537397200,53.978,-109.9668,896.0,230.0,182.4,3.3,-0.2,9.02,34.31,1.9472,393.4378],
    [18651,1537397201,53.9773,-109.9668,895.7,230.7,182.5,3.3,-0.3,9.58,34.3,1.947,392.8323],
    [18652,1537397202,53.9766,-109.9668,895.7,231.7,182.6,3.3,-0.2,9.31,34.25,1.9456,393.123],
    [18653,1537397203,53.9759,-109.9668,895.8,231.7,182.7,3.4,-0.1,9.12,34.22,1.9457,391.3101],
    [18654,1537397204,53.9752,-109.9668,896.0,233.0,182.9,3.6,-0.1,9.87,34.26,1.9447,393.4085],
    [18655,1537397205,53.9745,-109.9668,896.2,234.2,183.0,3.7,-0.4,10.41,33.83,1.9453,392.8582],
    [18656,1537397206,53.9737,-109.9668,896.7,234.7,182.9,3.6,-0.3,10.38,33.51,1.9462,392.8622],
    [18657,1537397207,53.973,-109.9668,896.8,235.8,182.8,3.5,-0.3,9.86,33.64,1.945,392.628],
    [18658,1537397208,53.9723,-109.9668,896.6,236.6,182.4,3.2,-0.3,10.23,33.4,1.9445,392.5127],
    [18659,1537397209,53.9716,-109.9668,896.2,238.2,182.4,3.3,-0.2,9.66,33.91,1.9447,390.9907],
    [18660,1537397210,53.9709,-109.9668,896.1,238.1,182.4,3.4,-0.4,9.43,33.98,1.9448,390.9907],
    [18661,1537397211,53.9702,-109.9668,896.1,238.1,182.6,3.4,-0.4,9.22,33.8,1.9469,392.8785],
    [18662,1537397212,53.9695,-109.9668,896.0,239.0,182.4,3.2,-0.5,10.26,33.48,1.9468,393.2118],
    [18663,1537397213,53.9688,-109.9668,895.8,238.8,182.3,3.1,-0.5,9.76,33.68,1.9464,394.6747],
    [18664,1537397214,53.9681,-109.9668,895.7,239.8,182.1,2.8,-0.6,9.34,34.07,1.9464,393.6225],
    [18665,1537397215,53.9674,-109.9669,895.8,240.7,182.1,2.7,-0.5,9.66,34.17,1.9458,393.7374],
    [18666,1537397216,53.9667,-109.9669,895.8,240.8,182.1,2.8,-0.5,9.89,33.7,1.9444,393.8547],
    [18667,1537397217,53.966,-109.9669,895.9,241.7,182.4,3.0,-0.7,9.68,34.64,1.9468,392.8151],
    [18668,1537397218,53.9653,-109.9669,895.9,241.9,182.3,2.7,-0.6,9.21,33.88,1.9468,393.6186],
    [18669,1537397219,53.9646,-109.9669,896.0,242.0,182.5,2.8,-0.5,9.64,34.62,1.9469,392.6227],
    [18670,1537397220,53.9639,-109.9669,896.1,242.1,182.5,2.7,-0.6,10.07,33.46,1.9489,392.6994],
    [18671,1537397221,53.9632,-109.9669,896.2,241.2,182.6,2.9,-0.4,9.65,33.96,1.9448,392.7351],
    [18672,1537397222,53.9625,-109.9669,896.1,239.9,182.7,3.1,-0.3,9.85,33.72,1.9452,393.2515],
    [18673,1537397223,53.9619,-109.9669,896.2,238.0,182.9,3.3,-0.3,9.71,33.81,1.945,393.4694],
    [18674,1537397224,53.9612,-109.9669,896.4,236.4,182.9,3.2,-0.5,9.58,34.65,1.9456,392.648],
    [18675,1537397225,53.9605,-109.9669,896.5,232.5,182.7,3.1,-0.5,9.69,34.02,1.9471,392.1254],
    [18676,1537397226,53.9598,-109.9669,896.5,230.8,182.8,3.3,-0.5,10.17,33.96,1.9448,393.4141],
    [18677,1537397227,53.9591,-109.9669,896.3,228.3,182.5,2.9,-0.5,10.31,33.9,1.9447,391.2714],
    [18678,1537397228,53.9584,-109.9669,896.2,228.2,182.3,2.8,-0.3,9.93,33.61,1.9455,393.743],
    [18679,1537397229,53.9577,-109.9669,896.1,228.1,182.5,3.0,-0.2,9.89,33.55,1.9459,392.9932],
    [18680,1537397230,53.957,-109.9669,895.8,226.8,182.5,2.9,-0.4,9.46,34.09,1.9447,392.4862],
    [18681,1537397231,53.9563,-109.967,895.7,225.7,182.7,3.2,-0.4,9.7,33.83,1.9464,394.5772],
    [18682,1537397232,53.9557,-109.967,896.0,231.3,182.5,2.8,-0.4,10.28,33.23,1.9456,393.1853],
    [18683,1537397233,53.955,-109.967,896.0,237.1,182.2,2.5,-0.1,9.32,33.97,1.9455,393.1853],
    [18684,1537397234,53.9543,-109.967,896.4,236.1,182.2,2.5,0.0,9.69,34.1,1.9461,393.2377],
    [18685,1537397235,53.9536,-109.967,896.5,235.8,182.2,2.4,-0.3,10.17,33.79,1.9451,391.6975],
    [18686,1537397236,53.9529,-109.967,896.4,237.4,182.3,2.5,-0.4,9.28,33.86,1.9456,393.9336],
    [18687,1537397237,53.9522,-109.967,896.1,238.1,182.5,2.6,-0.6,9.46,33.83,1.946,394.0298],
    [18688,1537397238,53.9515,-109.967,895.9,237.9,182.5,2.5,-0.7,10.2,33.43,1.9461,394.2689],
    [18689,1537397239,53.9508,-109.967,895.8,238.8,182.6,2.5,-0.7,10.29,33.11,1.9451,393.5504],
    [18690,1537397240,53.9501,-109.967,896.0,240.1,182.6,2.4,-0.6,9.1,33.51,1.944,394.4331],
    [18691,1537397241,53.9495,-109.9671,896.5,240.5,182.5,2.3,-0.5,9.02,33.7,1.9438,392.582],
    [18692,1537397242,53.9488,-109.9671,896.9,241.9,182.6,2.4,-0.6,10.25,33.53,1.9464,393.3042],
    [18693,1537397243,53.9481,-109.9671,896.9,241.9,182.5,2.3,-0.7,9.58,33.73,1.9463,393.386],
    [18694,1537397244,53.9474,-109.9671,896.7,243.3,182.6,2.4,-0.9,9.68,34.0,1.9457,393.0048],
    [18695,1537397245,53.9467,-109.9671,896.6,244.9,182.5,2.2,-1.0,10.06,32.78,1.9467,393.1964],
    [18696,1537397246,53.946,-109.9671,896.4,247.8,182.5,2.2,-0.9,9.88,33.36,1.9472,392.2192],
    [18697,1537397247,53.9454,-109.9671,896.2,249.2,182.3,2.0,-0.9,9.72,33.64,1.9472,393.9885],
    [18698,1537397248,53.9447,-109.9672,896.0,252.0,182.3,2.0,-1.0,9.32,33.81,1.9458,393.8239],
    [18699,1537397249,53.944,-109.9672,895.9,253.5,182.4,2.0,-1.1,9.69,34.27,1.9452,392.7549],
    [18700,1537397250,53.9433,-109.9672,895.9,255.9,182.4,2.0,-1.2,9.52,33.91,1.9458,392.9594],
    [18701,1537397251,53.9426,-109.9672,895.9,257.0,182.4,1.8,-1.3,9.21,33.72,1.9463,393.943],
    [18702,1537397252,53.942,-109.9672,896.0,257.0,182.3,1.7,-1.3,10.36,33.23,1.9464,393.366],
    [18703,1537397253,53.9413,-109.9673,896.0,258.0,182.4,1.8,-1.3,9.77,33.71,1.9459,394.1723],
    [18704,1537397254,53.9406,-109.9673,896.0,258.9,182.5,1.9,-1.2,9.26,34.33,1.9453,392.7728],
    [18705,1537397255,53.9399,-109.9673,895.9,259.4,182.5,1.8,-1.5,9.99,33.76,1.9456,393.1043],
    [18706,1537397256,53.9392,-109.9673,896.0,260.0,182.5,1.9,-1.4,9.53,34.71,1.9449,392.3998],
    [18707,1537397257,53.9385,-109.9673,896.1,263.1,183.0,2.4,-1.2,9.7,34.5,1.945,392.0971],
    [18708,1537397258,53.9379,-109.9674,895.9,262.9,182.9,2.2,-1.3,9.95,34.02,1.9446,393.2203],
    [18709,1537397259,53.9372,-109.9674,895.8,262.8,183.1,2.5,-1.4,9.69,34.79,1.9449,392.5968],
    [18710,1537397260,53.9365,-109.9674,895.7,262.7,183.2,2.6,-1.4,9.86,33.6,1.9472,392.6761],
    [18711,1537397261,53.9358,-109.9674,895.8,262.8,182.8,2.3,-1.7,9.72,34.36,1.946,392.6091],
    [18712,1537397262,53.9351,-109.9674,896.2,263.2,182.6,2.2,-1.8,10.54,33.73,1.9472,394.0429],
    [18713,1537397263,53.9345,-109.9675,896.5,263.5,182.2,1.9,-1.8,9.18,34.07,1.9457,394.0429],
    [18714,1537397264,53.9338,-109.9675,896.7,263.7,182.1,2.0,-1.9,9.67,34.32,1.9459,393.8072],
    [18715,1537397265,53.9331,-109.9675,896.6,263.6,182.1,2.0,-1.9,9.67,34.11,1.947,393.8072],
    [18716,1537397266,53.9324,-109.9675,896.2,263.2,181.9,1.8,-1.8,9.52,34.16,1.9476,393.1056],
    [18717,1537397267,53.9317,-109.9675,896.0,262.3,182.0,2.1,-1.8,10.25,33.69,1.9476,394.2651],
    [18718,1537397268,53.931,-109.9675,895.9,260.9,181.7,1.7,-1.8,9.83,33.83,1.9464,393.4278],
    [18719,1537397269,53.9304,-109.9675,896.0,261.0,181.5,1.5,-1.6,9.51,34.31,1.9463,393.0955],
    [18720,1537397270,53.9297,-109.9675,896.0,261.0,181.5,1.4,-1.6,10.29,33.79,1.9481,393.874],
    [18721,1537397271,53.929,-109.9675,896.0,261.0,181.4,1.3,-1.5,9.88,34.01,1.9461,394.3788],
    [18722,1537397272,53.9283,-109.9675,896.1,261.1,181.8,1.7,-1.5,9.33,34.35,1.9461,393.3027],
    [18723,1537397273,53.9276,-109.9676,896.3,261.3,181.8,1.7,-1.7,9.26,34.47,1.9464,393.2598],
    [18724,1537397274,53.9269,-109.9676,896.4,261.4,182.2,2.0,-2.0,9.58,35.17,1.9474,392.1263],
    [18725,1537397275,53.9263,-109.9676,896.5,261.5,182.3,2.1,-2.0,9.91,34.4,1.9469,392.8113],
    [18726,1537397276,53.9256,-109.9676,896.7,261.7,182.1,2.1,-1.7,9.61,34.72,1.9457,391.6741],
    [18727,1537397277,53.9249,-109.9676,896.6,261.6,182.2,2.4,-1.5,10.11,34.52,1.9455,392.8724],
    [18728,1537397278,53.9242,-109.9676,896.6,261.6,182.3,2.7,-1.4,9.86,34.11,1.9473,393.8662],
    [18729,1537397279,53.9235,-109.9676,896.4,260.4,182.6,3.1,-1.3,9.57,34.81,1.9491,391.6958],
    [18730,1537397280,53.9228,-109.9676,896.4,260.4,182.3,2.8,-1.4,9.98,33.81,1.9464,392.8429],
    [18731,1537397281,53.9222,-109.9676,896.8,260.8,182.3,2.9,-1.4,9.7,34.44,1.9464,392.8851],
    [18732,1537397282,53.9215,-109.9676,897.3,261.3,182.6,3.6,-1.2,9.74,34.61,1.9487,393.8914],
    [18733,1537397283,53.9208,-109.9676,897.1,261.1,182.5,3.6,-1.4,9.28,34.93,1.9467,392.7332],
    [18734,1537397284,53.9201,-109.9676,896.2,260.2,182.0,3.4,-1.6,9.6,34.86,1.9461,392.2277],
    [18735,1537397285,53.9194,-109.9676,896.1,260.1,181.8,3.5,-1.5,9.66,34.82,1.9473,391.6439],
    [18736,1537397286,53.9187,-109.9676,896.4,260.4,182.1,4.0,-1.2,9.16,34.92,1.9486,392.3365],
    [18737,1537397287,53.918,-109.9675,896.5,259.5,182.3,4.4,-1.5,9.61,35.71,1.9484,392.3365],
    [18738,1537397288,53.9173,-109.9675,896.8,259.8,182.6,5.1,-1.4,9.32,34.73,1.9489,392.6184],
    [18739,1537397289,53.9167,-109.9675,896.7,259.7,183.3,6.1,-1.6,9.73,35.08,1.9485,393.2089],
    [18740,1537397290,53.916,-109.9675,896.9,259.9,183.3,6.1,-2.2,9.72,34.7,1.9503,393.5984],
    [18741,1537397291,53.9153,-109.9674,896.9,259.9,181.6,3.9,-2.5,9.12,35.32,1.9478,392.9904],
    [18742,1537397292,53.9146,-109.9674,896.2,259.2,180.3,2.5,-2.2,9.62,35.48,1.9484,391.9342],
    [18743,1537397293,53.9139,-109.9674,895.4,257.3,180.7,3.0,-1.3,9.82,35.44,1.9491,393.2777],
    [18744,1537397294,53.9132,-109.9673,895.4,257.4,181.2,3.3,-0.5,9.78,35.04,1.9498,393.5424],
    [18745,1537397295,53.9125,-109.9673,896.7,258.7,181.4,3.2,0.8,9.95,35.04,1.9477,387.181],
    [18746,1537397296,53.9118,-109.9673,898.3,260.3,181.8,3.5,1.6,9.71,35.02,1.9482,392.7051],
    [18747,1537397297,53.9111,-109.9673,898.3,260.3,182.5,4.1,1.8,9.76,35.27,1.947,392.9053],
    [18748,1537397298,53.9104,-109.9673,898.5,260.5,182.8,4.6,1.2,9.54,34.78,1.9451,392.4029],
    [18749,1537397299,53.9097,-109.9673,899.2,261.2,183.4,5.0,0.1,9.52,34.48,1.9449,392.9521],
    [18750,1537397300,53.909,-109.9673,900.1,262.1,182.5,4.2,0.3,10.32,33.53,1.9453,392.8126],
    [18751,1537397301,53.9083,-109.9673,899.9,261.9,182.9,4.8,0.8,9.31,33.76,1.943,392.6161],
    [18752,1537397302,53.9076,-109.9672,898.9,260.9,182.6,4.8,0.3,9.9,33.02,1.9431,393.0101],
    [18753,1537397303,53.9069,-109.9672,897.4,259.4,184.1,6.7,0.1,9.55,33.16,1.944,394.1331],
    [18754,1537397304,53.9062,-109.9672,895.9,266.9,183.7,6.0,0.1,10.35,32.57,1.9456,394.1331],
    [18755,1537397305,53.9055,-109.9672,894.9,265.9,183.3,5.8,0.2,10.28,31.83,1.9457,392.7935],
    [18756,1537397306,53.9048,-109.9672,894.0,265.0,183.4,6.0,0.1,9.54,32.13,1.9469,392.9083],
    [18757,1537397307,53.9041,-109.9671,894.2,257.4,182.5,5.1,0.1,10.62,31.45,1.946,393.4442],
    [18758,1537397308,53.9035,-109.9671,895.1,258.1,182.0,4.7,-0.1,9.79,31.74,1.9467,393.3305],
    [18759,1537397309,53.9028,-109.9671,894.8,256.7,182.3,5.1,0.0,9.75,31.91,1.9475,393.5092],
    [18760,1537397310,53.9021,-109.9671,893.8,255.8,181.8,4.4,0.6,9.41,31.9,1.9492,393.845],
    [18761,1537397311,53.9014,-109.967,895.1,257.1,182.2,4.8,1.6,10.47,31.51,1.9492,393.8174],
    [18762,1537397312,53.9007,-109.967,898.4,259.7,183.1,5.4,0.2,9.95,31.8,1.9479,393.7815],
    [18763,1537397313,53.9,-109.967,902.1,263.1,182.7,4.6,-0.1,9.94,32.05,1.9497,393.7729],
    [18764,1537397314,53.8993,-109.967,903.6,264.6,183.5,5.4,1.4,10.33,30.78,1.9521,391.2556],
    [18765,1537397315,53.8987,-109.967,903.8,263.8,183.5,5.1,0.7,9.91,32.12,1.9515,391.8321],
    [18766,1537397316,53.898,-109.967,903.3,263.3,183.3,4.9,1.7,10.53,31.55,1.9522,393.2898],
    [18767,1537397317,53.8973,-109.9669,902.8,261.8,183.0,4.8,1.8,10.62,31.99,1.9513,393.1188],
    [18768,1537397318,53.8966,-109.9669,901.8,259.8,183.0,4.9,1.5,9.9,32.62,1.9509,393.1188],
    [18769,1537397319,53.8959,-109.9669,900.7,257.6,182.9,5.1,1.3,10.08,32.33,1.9514,391.5872],
    [18770,1537397320,53.8953,-109.9669,899.8,255.8,182.6,5.0,1.1,10.04,32.71,1.951,391.5872],
    [18771,1537397321,53.8946,-109.9669,899.1,254.1,182.8,5.6,1.1,10.02,32.83,1.9518,393.691],
    [18772,1537397322,53.8939,-109.9668,898.4,253.6,182.6,5.7,0.8,9.76,33.16,1.9506,392.5121],
    [18773,1537397323,53.8932,-109.9668,897.3,250.6,180.9,4.0,0.9,9.72,32.94,1.9508,392.6154],
    [18774,1537397324,53.8925,-109.9668,896.6,249.6,181.0,4.4,0.9,9.97,32.99,1.9498,392.705],
    [18775,1537397325,53.8919,-109.9667,896.0,247.7,181.5,4.7,0.8,9.86,33.14,1.9512,391.408],
    [18776,1537397326,53.8912,-109.9667,895.9,246.9,182.0,4.9,1.1,10.03,33.57,1.9494,392.4767],
    [18777,1537397327,53.8905,-109.9666,896.3,246.3,181.9,4.6,1.2,10.37,32.61,1.9508,393.4045],
    [18778,1537397328,53.8898,-109.9666,896.6,245.5,182.3,5.0,0.8,10.41,32.54,1.9499,393.0034],
    [18779,1537397329,53.8892,-109.9666,896.2,244.7,182.0,4.5,0.6,10.16,33.14,1.9493,393.3709],
    [18780,1537397330,53.8885,-109.9666,895.9,252.9,182.2,4.8,0.9,10.03,32.82,1.949,394.1616],
    [18781,1537397331,53.8878,-109.9665,896.0,252.3,182.4,5.0,1.1,10.41,32.07,1.9497,392.5147],
    [18782,1537397332,53.8872,-109.9665,896.7,242.7,182.8,5.5,1.1,10.12,32.75,1.9499,394.1268],
    [18783,1537397333,53.8865,-109.9665,897.2,243.1,183.8,6.6,1.2,9.8,32.86,1.9518,393.6527],
    [18784,1537397334,53.8858,-109.9664,897.8,242.8,182.4,4.8,0.2,9.95,32.74,1.9502,393.4734],
    [18785,1537397335,53.8852,-109.9664,897.6,243.4,182.2,5.5,0.3,9.85,32.91,1.9501,393.5805],
    [18786,1537397336,53.8845,-109.9664,896.6,243.6,183.0,6.6,0.4,10.61,32.57,1.9489,393.1212],
    [18787,1537397337,53.8838,-109.9663,895.9,242.9,181.7,5.4,0.9,10.25,32.63,1.9482,394.0283],
    [18788,1537397338,53.8831,-109.9663,895.7,242.7,182.1,6.0,1.0,9.89,33.02,1.9473,394.1108],
    [18789,1537397339,53.8825,-109.9662,895.7,243.4,182.1,5.9,0.8,10.36,33.13,1.9469,391.971],
    [18790,1537397340,53.8818,-109.9662,895.6,243.6,181.7,5.2,0.9,10.0,32.96,1.9464,392.3747],
    [18791,1537397341,53.8811,-109.9661,895.2,243.2,181.6,5.2,0.5,10.19,32.06,1.948,393.6335],
    [18792,1537397342,53.8805,-109.9661,895.5,243.5,182.3,5.8,0.4,9.86,32.14,1.9488,391.8035],
    [18793,1537397343,53.8798,-109.9661,897.9,245.8,181.5,4.9,0.1,9.81,32.02,1.9505,393.2152],
    [18794,1537397344,53.8792,-109.966,899.7,247.7,181.9,5.5,-0.1,9.73,32.65,1.9495,393.1652],
    [18795,1537397345,53.8785,-109.966,899.9,247.9,182.7,6.1,-0.2,10.25,32.19,1.9492,392.9674],
    [18796,1537397346,53.8778,-109.9659,898.9,246.9,182.9,6.1,0.4,9.79,32.98,1.9489,393.9002],
    [18797,1537397347,53.8772,-109.9659,898.4,246.4,183.6,6.6,1.0,9.9,32.69,1.9486,394.5751],
    [18798,1537397348,53.8765,-109.9659,898.9,246.2,183.6,6.3,1.1,10.2,32.3,1.951,393.548],
    [18799,1537397349,53.8758,-109.9658,899.6,246.6,183.5,6.2,0.1,9.75,33.28,1.9481,392.4912],
    [18800,1537397350,53.8752,-109.9658,898.2,244.2,184.1,7.0,-0.1,9.98,33.06,1.9479,393.4275],
    [18801,1537397351,53.8745,-109.9658,896.2,241.2,183.2,6.4,0.1,9.91,32.95,1.9485,393.6868],
    [18802,1537397352,53.8739,-109.9657,895.1,240.1,182.3,5.7,0.6,9.55,33.02,1.9499,393.0821],
    [18803,1537397353,53.8732,-109.9657,895.1,239.1,181.6,5.0,0.9,10.37,32.3,1.9499,393.8329],
    [18804,1537397354,53.8725,-109.9657,894.6,237.8,181.9,5.4,0.6,10.03,33.12,1.9486,392.7272],
    [18805,1537397355,53.8719,-109.9656,894.4,236.6,181.6,4.8,0.3,9.96,33.1,1.9482,392.9265],
    [18806,1537397356,53.8712,-109.9656,895.2,236.5,180.1,3.0,0.1,9.71,33.18,1.9491,393.9621],
    [18807,1537397357,53.8706,-109.9655,895.0,235.3,181.6,4.6,0.9,10.13,32.92,1.9482,393.9621],
    [18808,1537397358,53.8699,-109.9655,894.1,233.1,182.7,4.7,0.5,9.83,33.07,1.9503,393.585],
    [18809,1537397359,53.8693,-109.9655,894.7,233.7,183.4,4.5,0.5,9.97,33.13,1.9515,393.9832],
    [18810,1537397360,53.8686,-109.9655,896.6,234.6,183.4,3.9,0.5,9.37,33.37,1.9502,393.0817],
    [18811,1537397361,53.8679,-109.9655,896.9,234.9,185.0,5.7,1.1,9.96,33.42,1.9467,391.3842],
    [18812,1537397362,53.8673,-109.9655,895.8,233.8,185.4,6.0,0.7,9.97,34.26,1.9452,393.015],
    [18813,1537397363,53.8666,-109.9655,894.9,232.2,184.8,5.6,0.8,9.95,33.93,1.9454,392.3824],
    [18814,1537397364,53.866,-109.9655,894.2,230.9,184.7,5.9,1.1,9.53,33.57,1.946,394.0719],
    [18815,1537397365,53.8653,-109.9655,894.0,229.0,184.4,5.8,1.2,10.71,33.13,1.9467,390.7947],
    [18816,1537397366,53.8647,-109.9655,894.1,228.1,183.8,5.5,1.0,10.64,33.23,1.9473,393.2006],
    [18817,1537397367,53.864,-109.9655,894.0,227.0,183.4,5.4,1.1,9.82,33.43,1.9465,393.4513],
    [18818,1537397368,53.8634,-109.9655,894.3,226.2,183.0,5.2,1.7,9.8,33.5,1.9531,393.5617],
    [18819,1537397369,53.8627,-109.9655,896.0,227.0,182.0,4.1,1.8,9.83,33.44,1.9531,394.2404],
    [18820,1537397370,53.8621,-109.9655,897.9,228.9,180.9,2.8,1.3,9.73,33.54,1.9536,393.0418],
    [18821,1537397371,53.8614,-109.9654,899.2,229.5,181.0,3.0,1.0,9.85,33.54,1.9515,393.3567],
    [18822,1537397372,53.8608,-109.9654,898.7,228.8,184.0,6.1,1.0,9.83,33.86,1.9495,393.2579],
    [18823,1537397373,53.8601,-109.9654,897.2,226.3,185.0,6.1,0.3,10.39,33.91,1.9494,393.0155],
    [18824,1537397374,53.8595,-109.9654,896.2,224.2,184.9,5.5,0.6,10.12,33.45,1.9462,393.7802],
    [18825,1537397375,53.8588,-109.9654,895.8,222.8,185.3,5.9,0.8,9.96,33.59,1.9456,393.5055],
    [18826,1537397376,53.8582,-109.9654,896.0,222.1,185.2,5.9,0.3,10.04,34.75,1.9486,393.5118],
    [18827,1537397377,53.8575,-109.9654,896.3,221.3,185.0,6.0,-0.1,10.22,33.44,1.9462,392.6316],
    [18828,1537397378,53.8569,-109.9654,895.6,219.7,184.6,6.1,0.2,9.54,34.02,1.9448,394.0446],
    [18829,1537397379,53.8562,-109.9654,895.3,218.3,183.5,5.6,0.2,10.01,34.69,1.9435,392.8546],
    [18830,1537397380,53.8556,-109.9654,895.8,218.8,183.0,5.6,0.4,9.48,33.86,1.9429,393.614],
    [18831,1537397381,53.8549,-109.9654,896.4,219.4,182.7,5.5,0.4,9.55,33.8,1.9463,392.4592],
    [18832,1537397382,53.8543,-109.9654,897.0,219.7,182.6,5.5,0.4,10.12,33.19,1.944,393.1725],
    [18833,1537397383,53.8536,-109.9653,897.3,219.3,182.7,5.5,0.4,10.36,33.46,1.9445,391.491],
    [18834,1537397384,53.853,-109.9653,897.2,219.2,182.9,5.7,0.2,9.97,33.9,1.9461,392.9605],
    [18835,1537397385,53.8523,-109.9653,896.8,219.1,183.1,5.8,0.2,10.05,33.12,1.9451,392.1165],
    [18836,1537397386,53.8517,-109.9652,896.6,219.8,183.1,5.8,0.2,9.33,33.37,1.9433,392.4973],
    [18837,1537397387,53.851,-109.9652,896.6,219.0,182.9,5.6,0.1,9.55,33.28,1.9446,393.4368],
    [18838,1537397388,53.8504,-109.9652,896.7,218.6,182.8,5.6,-0.1,10.1,33.08,1.9446,392.4975],
    [18839,1537397389,53.8497,-109.9651,896.5,218.5,182.9,5.6,-0.2,10.18,32.54,1.9455,393.0507],
    [18840,1537397390,53.849,-109.9651,896.3,218.3,182.8,5.6,-0.1,9.45,33.15,1.9489,393.7389],
    [18841,1537397391,53.8484,-109.9651,896.2,218.3,182.9,5.6,0.0,9.97,33.82,1.9552,394.0541],
    [18842,1537397392,53.8477,-109.9651,896.4,217.7,182.9,5.5,-0.1,10.08,33.19,1.9542,392.9467],
    [18843,1537397393,53.8471,-109.965,896.6,217.9,183.0,5.6,-0.2,9.85,33.95,1.9523,392.5044],
    [18844,1537397394,53.8464,-109.965,896.3,218.3,182.9,5.6,-0.1,9.46,33.27,1.9583,392.4187],
    [18845,1537397395,53.8458,-109.965,896.4,218.4,182.7,5.3,0.2,10.03,33.72,1.9571,391.6062],
    [18846,1537397396,53.8451,-109.9649,897.0,219.0,182.6,5.2,0.0,9.58,33.65,1.9586,393.926],
    [18847,1537397397,53.8445,-109.9649,897.4,220.4,182.8,5.5,0.1,9.87,33.97,1.9594,392.8953],
    [18848,1537397398,53.8438,-109.9649,897.2,220.2,182.7,5.3,0.2,9.77,34.37,1.961,393.429],
    [18849,1537397399,53.8432,-109.9649,897.0,221.0,182.7,5.3,0.2,9.8,34.91,1.9603,393.429],
    [18850,1537397400,53.8425,-109.9648,897.3,221.3,182.4,4.8,0.0,9.82,35.16,1.9608,393.9223],
    [18851,1537397401,53.8419,-109.9648,897.4,222.4,182.4,4.9,-0.1,9.74,35.3,1.96,394.7475],
    [18852,1537397402,53.8412,-109.9648,897.0,222.0,182.4,4.8,-0.2,9.77,35.92,1.9597,392.9572],
    [18853,1537397403,53.8406,-109.9647,896.5,222.5,182.3,4.6,-0.3,9.85,35.66,1.9614,392.9572],
    [18854,1537397404,53.8399,-109.9647,896.4,222.4,182.5,4.7,-0.2,9.65,36.69,1.9603,394.7933],
    [18855,1537397405,53.8392,-109.9647,896.7,223.7,182.3,4.4,-0.2,9.18,36.29,1.961,391.2725],
    [18856,1537397406,53.8386,-109.9647,896.9,225.0,182.3,4.5,-0.4,9.76,36.72,1.9616,392.532],
    [18857,1537397407,53.838,-109.9646,896.9,224.9,182.5,4.7,-0.4,9.55,36.79,1.9604,391.8834],
    [18858,1537397408,53.8373,-109.9646,896.9,224.9,182.4,4.4,-0.5,9.85,37.56,1.9607,392.3772],
    [18859,1537397409,53.8366,-109.9646,896.9,225.9,182.7,4.7,-0.6,10.12,36.65,1.9607,394.4722],
    [18860,1537397410,53.836,-109.9646,896.9,225.9,182.8,4.7,-1.0,10.44,36.73,1.96,391.4181],
    [18861,1537397411,53.8353,-109.9646,896.8,226.8,182.9,4.9,-1.0,9.94,37.02,1.9605,392.9132],
    [18862,1537397412,53.8347,-109.9645,896.9,226.9,182.9,4.8,-1.1,10.06,37.21,1.9606,393.5559],
    [18863,1537397413,53.834,-109.9645,896.9,227.9,182.6,4.7,-1.0,10.12,37.75,1.9584,393.4547],
    [18864,1537397414,53.8333,-109.9645,897.0,228.0,182.6,4.9,-1.4,9.83,37.62,1.9576,393.4547],
    [18865,1537397415,53.8327,-109.9645,897.4,228.4,182.6,4.8,-1.3,10.19,37.09,1.9579,393.1577],
    [18866,1537397416,53.832,-109.9645,897.5,228.5,182.5,4.9,-0.9,9.97,37.98,1.9582,393.1108],
    [18867,1537397417,53.8314,-109.9644,897.1,227.1,182.9,5.3,-1.2,9.79,38.1,1.9563,393.0313],
    [18868,1537397418,53.8307,-109.9644,896.7,226.7,182.4,4.8,-1.3,10.36,37.22,1.9553,393.4408],
    [18869,1537397419,53.83,-109.9644,897.0,230.7,182.0,4.6,-1.0,9.72,37.64,1.956,393.5198],
    [18870,1537397420,53.8294,-109.9643,897.1,233.1,181.9,4.6,-1.0,9.78,38.17,1.9571,393.0146],
    [18871,1537397421,53.8287,-109.9643,897.1,233.1,181.8,4.6,-1.1,9.76,37.97,1.957,392.7815],
    [18872,1537397422,53.8281,-109.9643,896.9,232.9,181.6,4.3,-1.1,9.51,37.55,1.9579,392.1587],
    [18873,1537397423,53.8274,-109.9642,896.8,232.8,181.7,4.2,-0.8,9.74,37.69,1.959,393.3606],
    [18874,1537397424,53.8267,-109.9642,896.8,232.8,182.0,4.4,-1.0,9.34,37.25,1.9569,393.7573],
    [18875,1537397425,53.8261,-109.9642,896.9,228.9,182.4,4.7,-1.0,9.72,37.41,1.9576,393.4415],
    [18876,1537397426,53.8254,-109.9642,897.0,228.0,182.5,4.7,-1.1,9.44,37.31,1.9601,391.4665],
    [18877,1537397427,53.8248,-109.9641,897.1,227.4,182.6,4.7,-1.2,9.71,37.48,1.9609,392.9712],
    [18878,1537397428,53.8241,-109.9641,897.2,226.5,182.5,4.5,-1.3,10.11,37.31,1.9604,392.8502],
    [18879,1537397429,53.8234,-109.9641,897.2,225.9,182.4,4.5,-1.4,9.76,37.53,1.9601,393.2911],
    [18880,1537397430,53.8228,-109.9641,896.9,223.9,182.4,4.3,-1.5,9.98,37.37,1.9605,394.2208],
    [18881,1537397431,53.8221,-109.9641,896.6,222.6,182.2,4.1,-1.6,9.59,37.81,1.9601,394.2899],
    [18882,1537397432,53.8214,-109.964,896.5,222.4,182.3,4.0,-1.7,9.79,37.71,1.9595,389.5182],
    [18883,1537397433,53.8208,-109.964,896.7,224.3,182.5,3.9,-1.8,9.52,38.08,1.9574,393.9251],
    [18884,1537397434,53.8201,-109.964,896.8,225.9,182.8,4.0,-1.8,9.61,38.31,1.9568,393.4656],
    [18885,1537397435,53.8194,-109.964,896.9,225.9,182.9,3.9,-1.8,9.9,37.55,1.9567,393.4136],
    [18886,1537397436,53.8188,-109.964,897.1,227.1,182.9,3.8,-1.9,9.22,37.9,1.9573,392.7482],
    [18887,1537397437,53.8181,-109.964,897.4,227.4,183.0,3.8,-1.9,9.94,37.94,1.9574,393.5694],
    [18888,1537397438,53.8175,-109.964,897.6,227.6,183.2,3.9,-2.0,8.93,37.91,1.9595,391.4271],
    [18889,1537397439,53.8168,-109.964,897.7,227.7,183.2,3.9,-2.1,9.3,38.44,1.9588,391.8584],
    [18890,1537397440,53.8161,-109.964,897.5,227.5,183.3,3.9,-2.1,9.59,38.18,1.9594,393.3356],
    [18891,1537397441,53.8155,-109.964,897.2,227.2,183.3,3.9,-2.2,9.29,38.4,1.9605,392.809],
    [18892,1537397442,53.8148,-109.964,896.9,226.9,183.3,3.9,-1.9,9.12,37.87,1.962,393.454],
    [18893,1537397443,53.8141,-109.964,896.8,227.4,183.4,3.9,-1.9,9.61,37.94,1.9613,393.8308],
    [18894,1537397444,53.8135,-109.964,897.0,218.2,183.3,3.9,-2.1,9.74,37.91,1.9613,393.1802],
    [18895,1537397445,53.8128,-109.964,897.1,215.8,183.0,3.6,-2.3,9.47,38.31,1.9605,393.3929],
    [18896,1537397446,53.8121,-109.964,897.5,215.1,182.9,3.6,-2.5,9.5,38.38,1.9582,392.0719],
    [18897,1537397447,53.8115,-109.964,897.4,216.9,183.1,3.8,-2.5,9.5,38.9,1.9563,393.379],
    [18898,1537397448,53.8109,-109.964,897.1,220.5,183.1,3.7,-2.5,9.77,38.86,1.9579,393.2082],
    [18899,1537397449,53.8102,-109.964,896.7,223.5,183.1,3.6,-2.6,9.6,38.87,1.959,393.3633],
    [18900,1537397450,53.8095,-109.964,896.6,224.7,183.0,3.5,-2.7,9.57,38.22,1.9615,391.5157],
    [18901,1537397451,53.8088,-109.964,896.7,225.8,182.9,3.5,-2.8,9.87,38.03,1.9614,392.5518],
    [18902,1537397452,53.8081,-109.964,897.0,226.0,182.8,3.4,-2.9,9.18,38.1,1.9614,392.2055],
    [18903,1537397453,53.8075,-109.9641,897.1,226.0,182.7,3.1,-2.7,9.56,37.69,1.9607,392.2055],
    [18904,1537397454,53.8068,-109.9641,897.1,225.1,182.6,2.9,-2.7,9.53,38.45,1.9618,393.5739],
    [18905,1537397455,53.8061,-109.9641,897.1,225.1,182.5,2.7,-2.8,9.74,38.08,1.9631,392.7174],
    [18906,1537397456,53.8054,-109.9641,897.1,225.1,182.2,2.2,-2.5,9.7,39.28,1.9643,401.5289],
    [18907,1537397457,53.8048,-109.9641,897.1,225.1,182.3,2.2,-2.0,9.92,38.74,2.0031,409.8161],
    [18908,1537397458,53.8041,-109.9641,897.4,225.6,182.4,2.3,-1.9,9.61,39.46,1.985,401.0445],
    [18909,1537397459,53.8034,-109.9641,897.4,226.5,182.9,2.9,-2.0,9.42,38.96,1.9771,396.4409],
    [18910,1537397460,53.8027,-109.9641,897.5,226.5,183.0,2.7,-2.1,9.28,38.8,1.976,395.9708],
    [18911,1537397461,53.8021,-109.9641,897.8,226.8,182.8,2.5,-2.2,9.34,39.66,1.9664,394.8606],
    [18912,1537397462,53.8014,-109.9642,898.0,227.0,182.9,2.6,-2.3,9.17,39.44,1.9643,393.8598],
    [18913,1537397463,53.8007,-109.9642,897.9,227.9,183.2,2.9,-2.2,9.03,39.01,1.9654,392.9333],
    [18914,1537397464,53.8001,-109.9642,897.9,228.6,182.9,2.5,-2.1,10.19,38.66,1.9653,392.9333],
    [18915,1537397465,53.7994,-109.9642,897.6,228.3,182.9,2.6,-2.1,9.84,38.52,1.9658,392.8687],
    [18916,1537397466,53.7987,-109.9642,897.3,229.2,183.1,2.7,-2.2,9.49,39.36,1.9657,393.7551],
    [18917,1537397467,53.798,-109.9642,896.8,231.8,182.7,2.3,-1.9,9.25,39.05,1.9644,393.0078],
    [18918,1537397468,53.7974,-109.9643,896.8,233.6,182.8,2.3,-1.9,10.37,38.49,1.964,393.954],
    [18919,1537397469,53.7967,-109.9643,896.9,235.6,182.9,2.4,-2.0,9.44,39.49,1.9644,391.601],
    [18920,1537397470,53.796,-109.9643,897.0,238.2,182.9,2.4,-2.3,9.54,39.08,1.9638,391.5798],
    [18921,1537397471,53.7954,-109.9643,897.2,239.9,182.8,2.4,-2.1,9.54,39.12,1.9647,391.5063],
    [18922,1537397472,53.7947,-109.9643,897.3,241.1,182.5,1.9,-2.1,9.46,39.11,1.9664,392.0422],
    [18923,1537397473,53.794,-109.9644,897.1,240.8,182.3,1.6,-2.2,9.37,39.21,1.9663,392.2664],
    [18924,1537397474,53.7933,-109.9644,896.9,241.5,182.7,2.0,-2.3,9.18,39.08,1.9669,393.3074],
    [18925,1537397475,53.7926,-109.9644,897.0,242.0,182.5,1.6,-2.5,9.58,39.2,1.9659,394.5344],
    [18926,1537397476,53.7919,-109.9644,897.1,242.1,182.3,1.4,-2.8,9.56,38.93,1.9655,392.7462],
    [18927,1537397477,53.7913,-109.9644,897.1,242.1,182.4,1.6,-3.3,9.62,38.78,1.9652,392.156],
    [18928,1537397478,53.7906,-109.9645,897.0,242.0,182.6,1.6,-3.2,9.5,38.99,1.967,392.156],
    [18929,1537397479,53.7899,-109.9645,896.8,241.8,182.1,0.8,-2.9,9.87,38.87,1.9678,393.4347],
    [18930,1537397480,53.7892,-109.9645,896.8,241.8,182.3,0.9,-2.8,9.42,39.04,1.978,392.4836],
    [18931,1537397481,53.7886,-109.9646,896.9,241.9,182.4,0.9,-2.4,9.87,38.88,1.988,394.4954],
    [18932,1537397482,53.7879,-109.9646,897.3,243.3,182.3,0.7,-2.0,9.6,39.4,1.9961,394.4954],
    [18933,1537397483,53.7872,-109.9646,897.8,243.8,182.4,0.7,-1.5,9.56,39.7,1.9964,394.0585],
    [18934,1537397484,53.7865,-109.9647,898.5,242.4,182.9,1.3,-0.9,9.65,39.05,1.9843,393.0146],
    [18935,1537397485,53.7859,-109.9647,899.2,244.2,184.4,3.4,-0.5,10.14,38.92,1.972,393.9273],
    [18936,1537397486,53.7852,-109.9647,899.1,243.8,185.2,4.5,-0.7,9.14,39.03,1.97,393.3496],
    [18937,1537397487,53.7845,-109.9648,898.1,242.1,185.5,4.9,-1.2,9.56,38.93,1.9703,393.2775],
    [18938,1537397488,53.7838,-109.9648,897.1,241.1,184.8,4.4,-0.8,9.41,38.79,1.969,391.5638],
    [18939,1537397489,53.7831,-109.9648,897.4,240.4,184.0,4.0,-0.6,9.44,38.31,2.1328,393.3247],
    [18940,1537397490,53.7825,-109.9648,899.6,242.6,182.8,2.6,-0.7,9.57,38.35,2.2808,390.8434],
    [18941,1537397491,53.7818,-109.9648,902.5,245.1,182.3,3.1,1.1,9.67,38.15,2.3315,393.2911],
    [18942,1537397492,53.7811,-109.9649,902.9,244.9,184.9,5.8,2.2,9.46,38.14,2.0182,393.4881],
    [18943,1537397493,53.7804,-109.9649,902.5,244.5,183.2,3.2,2.0,9.97,37.47,1.9891,393.7306],
    [18944,1537397494,53.7797,-109.9649,901.9,242.9,183.9,3.8,2.1,9.49,37.71,1.9716,393.3105],
    [18945,1537397495,53.7791,-109.9649,901.3,242.3,184.8,4.3,2.2,9.68,37.93,1.9685,393.3378],
    [18946,1537397496,53.7784,-109.965,901.0,241.0,184.8,4.5,2.4,9.27,37.44,1.9691,393.5006],
    [18947,1537397497,53.7777,-109.965,901.6,241.6,184.7,4.5,2.0,10.2,36.75,2.0466,391.9768],
    [18948,1537397498,53.777,-109.965,902.8,241.8,184.3,4.3,1.9,9.29,36.73,2.0143,391.9768],
    [18949,1537397499,53.7763,-109.965,902.3,241.3,185.0,5.5,1.6,9.19,37.01,1.9663,393.8607],
    [18950,1537397500,53.7757,-109.965,900.9,239.1,185.2,6.0,1.1,10.11,36.35,1.963,392.3456],
    [18951,1537397501,53.775,-109.9651,899.3,237.3,184.3,5.8,1.8,9.15,36.45,1.9637,393.7643],
    [18952,1537397502,53.7743,-109.965,898.2,236.2,184.2,6.3,1.9,10.16,35.96,1.9627,392.1206],
    [18953,1537397503,53.7736,-109.965,897.5,234.5,183.8,6.2,1.4,9.84,36.44,1.9607,392.5724],
    [18954,1537397504,53.7729,-109.965,898.0,235.0,183.2,5.8,1.3,9.48,35.7,1.9597,393.4542],
    [18955,1537397505,53.7722,-109.965,899.1,235.0,183.0,5.8,1.5,9.6,35.63,1.9616,393.3239],
    [18956,1537397506,53.7716,-109.965,899.8,235.8,182.7,5.4,2.0,10.28,35.52,1.9693,393.8214],
    [18957,1537397507,53.7709,-109.9649,899.7,234.6,182.6,5.3,2.5,9.78,36.31,1.9649,393.247],
    [18958,1537397508,53.7702,-109.9649,899.1,234.1,183.1,5.7,2.3,10.19,35.29,1.9601,392.5864],
    [18959,1537397509,53.7695,-109.9649,898.3,233.4,183.0,5.5,2.3,9.69,35.61,1.9597,393.7265],
    [18960,1537397510,53.7688,-109.9649,898.1,232.1,182.6,5.1,1.8,10.41,34.9,1.9601,393.7384],
    [18961,1537397511,53.7681,-109.9648,898.2,232.3,182.3,4.7,1.7,9.56,35.32,1.9572,393.7384],
    [18962,1537397512,53.7674,-109.9648,897.4,230.4,182.4,5.0,2.3,9.36,35.5,1.9568,392.4448],
    [18963,1537397513,53.7667,-109.9648,896.2,229.2,182.3,5.0,2.8,9.9,34.84,1.9588,391.5332],
    [18964,1537397514,53.7661,-109.9648,895.4,228.1,183.0,5.9,2.5,9.5,35.02,1.9578,393.7833],
    [18965,1537397515,53.7654,-109.9647,895.5,227.5,182.9,5.5,2.0,10.62,34.7,1.9564,393.0375],
    [18966,1537397516,53.7647,-109.9647,897.0,229.0,181.6,3.9,0.7,9.71,35.25,1.9571,392.7858],
    [18967,1537397517,53.764,-109.9647,897.1,229.1,183.1,5.6,1.4,10.23,34.86,1.9602,393.4474],
    [18968,1537397518,53.7633,-109.9647,896.4,227.4,183.5,5.5,1.1,10.08,34.6,1.9594,393.3871],
    [18969,1537397519,53.7626,-109.9647,895.7,226.7,183.6,5.4,1.0,9.74,35.04,1.959,393.1628],
    [18970,1537397520,53.7619,-109.9647,895.3,227.3,184.0,5.6,1.0,9.67,35.09,1.9571,393.8164],
    [18971,1537397521,53.7613,-109.9646,895.3,227.3,183.7,5.3,0.9,9.37,34.99,1.9568,393.9078],
    [18972,1537397522,53.7606,-109.9646,895.5,227.5,183.5,5.2,0.1,9.52,34.93,1.9563,392.8412],
    [18973,1537397523,53.7599,-109.9646,895.6,228.7,183.3,5.0,-0.1,9.46,35.0,1.955,394.0633],
    [18974,1537397524,53.7592,-109.9646,896.0,228.9,183.7,5.6,-0.1,10.06,34.23,1.9518,393.6273],
    [18975,1537397525,53.7585,-109.9646,896.9,230.9,183.6,5.2,-0.6,9.9,34.99,1.952,393.392],
    [18976,1537397526,53.7579,-109.9646,898.0,233.0,182.9,4.5,-0.7,10.06,34.18,1.9538,392.3134],
    [18977,1537397527,53.7572,-109.9646,898.0,234.0,183.3,4.8,-0.2,10.19,33.65,1.9548,393.004],
    [18978,1537397528,53.7565,-109.9646,897.7,233.7,183.4,4.7,0.5,10.27,33.72,1.9545,393.004],
    [18979,1537397529,53.7558,-109.9646,897.0,234.0,183.9,5.0,0.1,9.92,34.99,1.9528,393.1342],
    [18980,1537397530,53.7552,-109.9646,895.9,233.9,184.5,5.5,-0.1,9.74,34.44,1.9534,394.2951],
    [18981,1537397531,53.7545,-109.9646,895.6,234.6,185.5,6.9,0.1,9.78,34.79,1.9524,390.1058],
    [18982,1537397532,53.7538,-109.9646,896.9,236.9,184.7,6.0,0.7,9.8,34.45,1.9523,394.2544],
    [18983,1537397533,53.7531,-109.9646,898.6,239.3,182.8,4.4,1.1,10.04,34.1,1.9519,392.9223],
    [18984,1537397534,53.7525,-109.9646,900.0,242.0,182.9,4.9,1.2,9.36,34.14,1.9524,393.4762],
    [18985,1537397535,53.7518,-109.9646,900.9,244.0,182.2,4.6,1.7,9.82,34.27,1.9524,394.5049],
    [18986,1537397536,53.7511,-109.9645,901.3,245.2,182.6,4.6,1.4,9.7,34.24,1.9523,392.6977],
    [18987,1537397537,53.7504,-109.9645,901.0,245.9,182.3,4.0,1.0,9.62,34.21,1.9517,392.2618],
    [18988,1537397538,53.7498,-109.9645,901.2,246.1,184.2,6.3,1.8,9.9,34.24,1.9517,392.4484],
    [18989,1537397539,53.7491,-109.9645,901.1,247.0,183.6,5.8,1.1,10.61,34.05,1.9508,392.641],
    [18990,1537397540,53.7484,-109.9645,900.3,246.5,183.0,5.6,1.6,10.23,34.23,1.9529,394.0037],
    [18991,1537397541,53.7477,-109.9645,898.5,245.5,183.2,6.1,1.3,10.07,34.57,1.9543,392.2592],
    [18992,1537397542,53.7471,-109.9644,897.3,244.3,183.2,6.5,1.4,9.54,34.92,1.9544,393.5268],
    [18993,1537397543,53.7464,-109.9644,896.5,243.6,183.4,6.7,1.2,9.78,34.61,1.9531,393.2702],
    [18994,1537397544,53.7457,-109.9644,895.8,243.8,183.4,6.5,0.9,9.9,34.5,1.9527,393.2702],
    [18995,1537397545,53.745,-109.9643,895.7,243.8,183.4,6.4,1.2,10.17,33.93,1.9563,394.8164],
    [18996,1537397546,53.7444,-109.9643,896.0,244.9,183.5,6.5,1.6,9.97,34.83,1.9579,394.3416],
    [18997,1537397547,53.7437,-109.9643,896.6,245.6,183.4,6.3,1.4,9.73,34.7,1.9599,394.6285],
    [18998,1537397548,53.743,-109.9643,897.2,246.2,183.1,5.9,1.1,9.68,34.87,1.9594,394.6394],
    [18999,1537397549,53.7423,-109.9642,897.2,246.2,183.2,5.9,1.0,9.56,34.97,1.9589,392.8217],
    [19000,1537397550,53.7416,-109.9642,897.0,246.8,183.0,5.7,0.9,9.15,35.18,1.9598,392.3608],
    [19001,1537397551,53.741,-109.9642,897.0,247.0,183.3,5.9,0.9,10.18,34.98,1.9617,392.5466],
    [19002,1537397552,53.7403,-109.9642,896.9,247.0,183.3,5.7,0.8,10.11,35.12,1.9608,392.9994],
    [19003,1537397553,53.7396,-109.9641,896.8,247.1,183.2,5.4,0.5,9.62,35.5,1.9612,393.7555],
    [19004,1537397554,53.739,-109.9641,896.9,247.9,183.1,5.1,0.6,9.7,36.12,1.9591,393.7555],
    [19005,1537397555,53.7383,-109.9641,897.2,249.3,183.1,4.7,0.5,9.22,35.6,1.9553,393.9788],
    [19006,1537397556,53.7376,-109.9641,897.7,249.7,183.1,4.4,0.8,10.13,35.52,1.954,394.0616],
    [19007,1537397557,53.737,-109.9641,899.0,252.1,183.9,5.0,0.8,9.96,35.34,1.9525,392.8226],
    [19008,1537397558,53.7363,-109.9641,900.4,255.5,184.9,5.5,0.6,10.05,35.49,1.952,392.1352],
    [19009,1537397559,53.7356,-109.9641,901.3,256.1,184.8,4.6,-1.2,9.82,36.45,1.9515,390.7748],
    [19010,1537397560,53.735,-109.9641,901.2,257.8,184.9,4.9,-1.3,9.24,35.85,1.9518,392.1672],
    [19011,1537397561,53.7343,-109.9642,899.9,257.9,185.7,5.7,-0.2,9.62,35.94,1.9543,393.9957],
    [19012,1537397562,53.7336,-109.9642,898.0,256.8,185.2,5.5,0.4,9.54,36.0,1.958,393.712],
    [19013,1537397563,53.733,-109.9642,897.2,253.5,185.1,5.6,0.3,9.69,35.92,1.9583,394.1289],
    [19014,1537397564,53.7323,-109.9642,897.6,244.7,184.2,4.9,0.2,9.25,35.87,1.9572,393.4267],
    [19015,1537397565,53.7316,-109.9642,898.2,241.7,183.8,4.7,0.5,9.89,35.8,1.9579,392.9242],
    [19016,1537397566,53.731,-109.9642,897.5,242.5,184.1,5.1,-0.1,9.82,36.24,1.9583,392.8853],
    [19017,1537397567,53.7303,-109.9642,896.5,245.8,184.4,5.6,-0.4,10.42,35.91,1.9588,392.4621],
    [19018,1537397568,53.7296,-109.9642,895.6,240.2,183.8,4.9,-0.7,9.95,35.88,1.9592,393.2254],
    [19019,1537397569,53.7289,-109.9642,895.2,238.3,183.4,4.6,-0.8,9.29,36.04,1.9595,394.8879],
    [19020,1537397570,53.7283,-109.9642,895.6,236.8,183.5,4.6,-1.0,9.65,36.12,1.9581,393.905],
    [19021,1537397571,53.7276,-109.9642,896.1,236.0,184.3,5.1,-0.9,10.58,35.64,1.9591,391.5203],
    [19022,1537397572,53.7269,-109.9642,897.2,235.9,184.7,5.2,-1.3,9.58,36.12,1.9593,391.5203],
    [19023,1537397573,53.7263,-109.9643,899.0,236.7,184.7,5.0,-1.6,9.79,36.37,1.9626,392.4704],
    [19024,1537397574,53.7256,-109.9643,899.7,235.9,184.1,4.3,-0.8,9.3,36.56,1.9639,393.1115],
    [19025,1537397575,53.7249,-109.9643,899.4,233.6,183.9,4.3,-0.7,9.79,36.9,1.9621,392.0196],
    [19026,1537397576,53.7242,-109.9643,898.4,231.9,184.4,4.8,-0.5,9.78,36.92,1.9623,393.1289],
    [19027,1537397577,53.7236,-109.9643,897.0,229.7,184.6,5.0,0.2,9.64,36.9,1.965,394.1795],
    [19028,1537397578,53.7229,-109.9643,897.1,229.8,185.0,5.4,0.9,9.97,36.56,1.9654,392.0082],
    [19029,1537397579,53.7222,-109.9644,898.8,231.6,185.4,5.7,1.4,9.92,36.98,1.9648,393.3348],
    [19030,1537397580,53.7216,-109.9644,900.0,234.8,185.9,5.6,-0.4,9.43,37.22,1.9654,393.5314],
    [19031,1537397581,53.7209,-109.9644,901.0,238.6,185.7,5.2,-0.4,10.14,37.18,1.9663,393.2812],
    [19032,1537397582,53.7202,-109.9645,900.6,245.5,186.3,5.6,-0.6,9.97,37.15,1.9662,392.9514],
    [19033,1537397583,53.7196,-109.9645,900.4,255.4,186.0,5.4,-0.7,9.3,37.65,1.9654,394.3005],
    [19034,1537397584,53.7189,-109.9645,899.6,269.6,185.8,5.1,-1.3,9.82,38.46,1.9646,393.3141],
    [19035,1537397585,53.7182,-109.9646,898.6,276.6,184.8,4.4,-1.0,10.43,37.75,1.9667,393.3533],
    [19036,1537397586,53.7175,-109.9646,899.1,284.1,184.2,4.3,-1.4,10.02,37.49,1.9663,393.8017],
    [19037,1537397587,53.7168,-109.9646,900.0,292.0,184.0,3.8,-1.1,10.45,37.28,1.9656,392.0993],
    [19038,1537397588,53.7162,-109.9646,899.4,292.4,182.9,2.8,0.1,9.75,38.07,1.9656,393.1022],
    [19039,1537397589,53.7155,-109.9646,897.7,291.7,183.9,3.9,-0.4,9.77,38.54,1.9657,394.1755],
    [19040,1537397590,53.7148,-109.9647,896.4,291.4,184.9,4.7,-0.8,9.23,38.12,1.966,394.4702],
    [19041,1537397591,53.7141,-109.9647,895.5,291.5,185.1,4.4,-0.7,9.35,38.14,1.9657,393.382],
    [19042,1537397592,53.7135,-109.9647,895.0,292.1,185.5,4.5,-0.5,9.6,38.26,1.9655,393.2399],
    [19043,1537397593,53.7128,-109.9648,895.1,292.1,185.6,4.2,-0.4,9.85,38.36,1.9649,391.6795],
    [19044,1537397594,53.7121,-109.9648,895.7,292.7,185.5,4.1,-0.5,9.85,38.71,1.9654,394.29],
    [19045,1537397595,53.7114,-109.9649,896.3,294.3,185.3,4.0,-0.4,9.88,38.8,1.9651,393.3973],
    [19046,1537397596,53.7107,-109.9649,896.6,295.6,185.1,4.0,-0.3,9.8,38.33,1.9646,393.4262],
    [19047,1537397597,53.7101,-109.965,896.5,295.5,185.1,4.2,-0.6,9.6,38.48,1.9655,392.784],
    [19048,1537397598,53.7094,-109.965,896.3,296.3,185.5,4.6,-0.8,9.62,38.27,1.9665,393.8291],
    [19049,1537397599,53.7087,-109.965,896.8,296.8,185.3,4.4,-0.6,9.75,38.65,1.9672,392.3816],
    [19050,1537397600,53.7081,-109.9651,897.7,298.6,185.2,4.2,-0.4,9.38,38.34,1.9658,393.8767],
    [19051,1537397601,53.7074,-109.9651,898.2,300.1,184.7,3.7,-0.8,9.79,38.11,1.9649,393.238],
    [19052,1537397602,53.7067,-109.9651,898.0,300.0,184.9,4.0,-1.0,9.7,38.82,1.9648,393.275],
    [19053,1537397603,53.7061,-109.9652,898.0,301.3,184.6,3.7,-1.1,9.16,38.45,1.966,393.9052],
    [19054,1537397604,53.7054,-109.9652,898.3,302.3,184.6,3.9,-1.1,9.77,38.43,1.9673,392.8106],
    [19055,1537397605,53.7047,-109.9652,898.2,301.5,185.0,4.4,-1.6,9.58,38.4,1.9659,393.5419],
    [19056,1537397606,53.7041,-109.9653,898.3,300.4,184.7,4.0,-2.3,9.76,38.19,1.9659,393.5334],
    [19057,1537397607,53.7034,-109.9653,898.4,299.3,184.2,3.7,-2.4,9.85,38.13,1.9677,393.5537],
    [19058,1537397608,53.7027,-109.9653,898.4,298.4,184.4,3.8,-2.8,9.19,38.26,1.9687,393.1417],
    [19059,1537397609,53.7021,-109.9653,898.4,297.4,184.6,3.9,-3.0,9.74,38.96,1.9667,393.3524],
    [19060,1537397610,53.7014,-109.9654,898.3,296.6,184.7,4.0,-2.9,10.47,38.29,1.9683,393.1136],
    [19061,1537397611,53.7007,-109.9654,898.5,295.8,184.6,4.0,-2.5,9.47,38.83,1.967,393.5241],
    [19062,1537397612,53.7001,-109.9654,898.5,295.5,184.5,3.8,-2.6,10.27,37.82,1.967,393.4885],
    [19063,1537397613,53.6994,-109.9654,898.5,295.5,184.2,3.5,-2.3,9.63,38.29,1.9669,394.5573],
    [19064,1537397614,53.6987,-109.9655,898.3,293.3,184.3,3.6,-2.5,10.18,38.13,1.9673,392.8826],
    [19065,1537397615,53.6981,-109.9655,898.1,291.1,184.4,3.5,-2.4,9.61,38.64,1.9672,393.3387],
    [19066,1537397616,53.6974,-109.9655,898.5,290.5,184.6,3.7,-2.3,9.72,38.47,1.9665,391.813],
    [19067,1537397617,53.6967,-109.9656,899.1,290.1,184.9,4.1,-2.5,9.89,39.04,1.9691,394.2831],
    [19068,1537397618,53.696,-109.9656,899.3,289.2,184.8,3.9,-2.3,9.8,38.66,1.9665,392.8846],
    [19069,1537397619,53.6954,-109.9656,898.3,287.9,185.7,5.0,-2.2,9.69,38.33,1.9677,392.2742],
    [19070,1537397620,53.6947,-109.9657,897.3,285.9,185.7,4.7,-3.1,9.65,39.37,1.9667,393.6261],
    [19071,1537397621,53.694,-109.9657,897.9,286.2,184.6,3.5,-2.5,9.37,39.27,1.9686,393.1935],
    [19072,1537397622,53.6933,-109.9657,898.7,286.2,183.6,2.4,-2.1,9.67,38.8,1.9681,394.2083],
    [19073,1537397623,53.6926,-109.9658,899.1,285.0,183.5,2.3,-2.2,9.53,38.59,1.9676,394.2083],
    [19074,1537397624,53.692,-109.9658,899.5,284.5,183.5,2.3,-2.3,9.95,38.39,1.9674,394.258],
    [19075,1537397625,53.6913,-109.9658,899.9,283.9,184.8,4.0,-1.7,9.46,39.31,1.9689,392.5786],
    [19076,1537397626,53.6906,-109.9659,899.6,283.6,186.3,4.9,-1.5,9.73,39.12,1.9689,393.4272],
    [19077,1537397627,53.6899,-109.9659,899.1,282.1,184.7,2.9,-1.1,10.27,38.49,1.967,393.2943],
    [19078,1537397628,53.6892,-109.966,898.4,281.4,185.4,3.4,-1.4,9.69,39.56,1.9685,392.4274],
    [19079,1537397629,53.6886,-109.966,897.7,280.7,185.5,3.7,-1.6,9.64,39.11,1.9657,393.631],
    [19080,1537397630,53.6879,-109.9661,897.8,280.8,186.2,4.5,-1.1,9.58,39.4,1.9648,389.7687],
    [19081,1537397631,53.6872,-109.9661,899.2,283.2,185.6,4.0,0.7,9.53,39.15,1.964,393.2566],
    [19082,1537397632,53.6865,-109.9662,900.2,284.2,186.0,4.5,0.5,10.1,39.15,1.9638,393.4111],
    [19083,1537397633,53.6858,-109.9663,900.6,285.6,184.8,2.8,0.6,9.73,39.73,1.9641,392.9025],
    [19084,1537397634,53.6851,-109.9663,901.5,286.5,184.6,3.4,0.8,9.88,39.33,1.9628,394.0199],
    [19085,1537397635,53.6844,-109.9663,901.3,286.3,187.0,6.1,1.0,9.39,39.04,1.9606,392.8094],
    [19086,1537397636,53.6838,-109.9664,900.5,285.5,185.8,4.6,0.6,9.38,38.91,1.9614,393.0367],
    [19087,1537397637,53.6831,-109.9664,899.9,285.1,186.0,4.9,1.9,9.48,38.95,1.9626,392.9367],
    [19088,1537397638,53.6824,-109.9665,900.4,286.4,184.8,3.6,1.5,9.89,38.34,1.9631,392.9367],
    [19089,1537397639,53.6817,-109.9665,900.5,286.8,184.7,3.8,1.4,9.4,38.27,1.9618,392.8393],
    [19090,1537397640,53.681,-109.9666,899.7,287.0,184.3,3.6,0.8,9.51,38.47,1.9629,392.5223],
    [19091,1537397641,53.6803,-109.9666,899.2,287.2,184.1,3.8,0.7,9.73,38.11,1.9611,393.3811],
    [19092,1537397642,53.6797,-109.9666,899.6,288.6,184.8,4.7,0.3,9.33,37.99,1.9593,392.8301],
    [19093,1537397643,53.679,-109.9667,899.3,289.4,185.1,5.1,0.2,9.72,38.12,1.9593,391.2103],
    [19094,1537397644,53.6783,-109.9667,898.3,289.3,185.3,5.1,0.3,10.02,38.16,1.9594,391.7695],
    [19095,1537397645,53.6776,-109.9667,897.8,288.8,184.6,4.4,0.3,9.75,38.53,1.9593,392.8643],
    [19096,1537397646,53.6769,-109.9667,897.4,289.4,184.9,4.7,-0.1,9.01,37.58,1.9604,393.2974],
    [19097,1537397647,53.6763,-109.9668,896.9,289.9,185.4,5.3,0.2,9.98,36.95,1.9602,393.2974],
    [19098,1537397648,53.6756,-109.9668,896.6,290.3,185.9,5.7,0.0,9.31,37.35,1.9617,393.5125],
    [19099,1537397649,53.6749,-109.9668,896.5,291.2,185.3,5.1,0.3,9.52,37.5,1.9615,393.5125],
    [19100,1537397650,53.6742,-109.9668,896.8,292.0,185.6,5.8,0.1,10.15,36.76,1.9613,393.778],
    [19101,1537397651,53.6735,-109.9669,897.2,293.4,186.2,6.3,0.0,10.05,37.11,1.9628,392.5799],
    [19102,1537397652,53.6729,-109.9669,897.5,294.2,185.4,5.6,0.2,9.78,37.47,1.9635,392.5799],
    [19103,1537397653,53.6722,-109.9669,897.8,296.5,185.3,5.6,0.2,9.51,37.75,1.9644,392.262],
    [19104,1537397654,53.6715,-109.9669,898.2,298.2,185.2,5.5,-0.2,9.5,37.51,1.9642,393.0282],
    [19105,1537397655,53.6709,-109.967,898.2,298.5,184.9,5.3,-0.7,10.21,37.13,1.9628,392.6912],
    [19106,1537397656,53.6702,-109.967,897.9,300.0,185.0,5.4,-0.7,9.76,37.9,1.9631,394.1036],
    [19107,1537397657,53.6695,-109.967,897.8,299.8,184.7,5.2,-0.7,9.74,37.83,1.9639,393.0892],
    [19108,1537397658,53.6688,-109.967,898.0,300.0,185.0,5.6,-0.1,9.89,37.44,1.961,394.0708],
    [19109,1537397659,53.6682,-109.967,898.3,300.3,185.1,5.6,-0.5,9.77,37.44,1.9591,394.3274],
    [19110,1537397660,53.6675,-109.967,898.5,300.5,184.9,5.4,-0.4,9.68,37.98,1.9592,391.4927],
    [19111,1537397661,53.6668,-109.967,898.5,300.5,184.7,5.1,-0.1,9.9,37.17,1.9586,392.1163],
    [19112,1537397662,53.6661,-109.9671,898.4,301.4,184.5,5.0,-0.3,9.76,37.24,1.958,394.0148],
    [19113,1537397663,53.6655,-109.9671,898.0,302.0,185.1,5.7,-0.5,10.12,37.07,1.9581,394.0059],
    [19114,1537397664,53.6648,-109.9671,897.4,301.3,185.6,6.1,-0.3,9.57,37.46,1.9577,393.2681],
    [19115,1537397665,53.6641,-109.9671,897.1,302.8,185.1,5.5,-0.5,10.19,36.71,1.9566,393.2681],
    [19116,1537397666,53.6635,-109.9671,897.3,304.7,185.1,5.7,-0.5,10.0,36.06,1.9543,392.4294],
    [19117,1537397667,53.6628,-109.9671,897.4,305.4,185.1,5.7,-0.6,9.43,36.36,1.9542,393.1284],
    [19118,1537397668,53.6621,-109.9672,897.3,305.3,185.0,5.5,-0.6,9.45,35.74,1.9529,391.7881],
    [19119,1537397669,53.6615,-109.9672,897.2,305.9,184.6,5.2,-0.3,10.06,36.25,1.9532,393.1939],
    [19120,1537397670,53.6608,-109.9672,896.8,306.8,185.1,5.8,-0.9,9.38,35.61,1.9541,393.1939],
    [19121,1537397671,53.6601,-109.9672,896.9,308.0,184.8,5.5,-0.3,9.61,35.43,1.9568,392.6525],
    [19122,1537397672,53.6595,-109.9672,897.6,310.6,184.8,5.7,-0.1,10.05,35.02,1.9569,392.8859],
    [19123,1537397673,53.6588,-109.9672,897.9,309.9,185.1,6.0,-0.5,9.5,35.21,1.9573,392.8859],
    [19124,1537397674,53.6581,-109.9672,897.7,309.7,185.0,5.8,-0.6,9.66,35.32,1.9593,391.9445],
    [19125,1537397675,53.6575,-109.9672,897.7,310.7,185.1,5.8,-0.7,10.41,34.86,1.9588,393.3748],
    [19126,1537397676,53.6568,-109.9672,897.9,310.7,184.7,5.3,-0.9,9.8,36.07,1.9588,393.1218],
    [19127,1537397677,53.6562,-109.9672,897.7,310.6,184.4,5.1,-1.3,9.99,34.84,1.9583,393.9059],
    [19128,1537397678,53.6555,-109.9672,897.2,311.2,184.1,4.6,-1.4,9.7,35.26,1.9577,392.7504],
    [19129,1537397679,53.6548,-109.9673,897.1,310.9,184.1,4.3,-0.9,9.68,35.72,1.9582,392.7504],
    [19130,1537397680,53.6542,-109.9673,897.2,312.0,184.0,3.9,-0.1,10.3,35.45,1.9583,393.1187],
    [19131,1537397681,53.6535,-109.9673,898.0,313.0,184.1,4.0,0.4,9.68,35.61,1.9585,393.0424],
    [19132,1537397682,53.6529,-109.9673,898.6,314.3,184.6,4.1,-0.1,10.13,35.28,1.9598,392.6083],
    [19133,1537397683,53.6522,-109.9673,899.0,315.0,185.0,4.4,-0.1,9.71,36.0,1.9595,392.6164],
    [19134,1537397684,53.6515,-109.9674,898.7,315.2,186.1,5.3,-0.6,9.61,35.79,1.9582,392.8004],
    [19135,1537397685,53.6509,-109.9674,898.7,315.7,186.0,5.1,-0.9,9.69,35.66,1.9587,392.0881],
    [19136,1537397686,53.6502,-109.9675,898.8,316.0,185.9,4.8,-1.1,9.53,36.11,1.9591,392.7285],
    [19137,1537397687,53.6495,-109.9675,898.6,316.6,185.2,4.1,-1.4,9.82,36.7,1.9594,395.2716],
    [19138,1537397688,53.6489,-109.9675,898.0,316.0,185.3,4.3,-1.1,10.11,35.84,1.9593,393.9809],
    [19139,1537397689,53.6482,-109.9676,897.6,316.6,185.0,4.2,-1.2,10.12,35.99,1.9613,393.7849],
    [19140,1537397690,53.6475,-109.9676,897.3,316.3,185.0,4.3,-1.3,9.67,36.32,1.9592,393.7849],
    [19141,1537397691,53.6469,-109.9676,897.2,316.2,185.3,4.6,-1.5,9.4,36.33,1.9586,394.7996],
    [19142,1537397692,53.6462,-109.9677,897.4,316.4,185.6,4.8,-1.5,9.48,36.21,1.9604,393.0646],
    [19143,1537397693,53.6456,-109.9677,897.7,316.7,185.5,4.8,-1.4,10.3,36.1,1.9605,392.3001],
    [19144,1537397694,53.6449,-109.9677,898.1,317.1,185.4,4.6,-1.5,9.65,36.57,1.9598,393.1353],
    [19145,1537397695,53.6442,-109.9678,898.2,317.8,185.5,4.8,-2.1,9.36,36.47,1.9604,393.1353],
    [19146,1537397696,53.6436,-109.9678,898.2,320.5,185.3,4.5,-2.2,9.41,36.61,1.9595,393.0284],
    [19147,1537397697,53.6429,-109.9678,897.8,324.8,185.7,5.2,-1.7,9.51,36.58,1.9591,392.2551],
    [19148,1537397698,53.6422,-109.9679,897.4,334.4,185.5,5.1,-0.9,9.79,36.54,1.9592,392.0844],
    [19149,1537397699,53.6416,-109.9679,897.5,337.2,185.1,4.9,-0.9,9.59,37.19,1.9597,393.9126],
    [19150,1537397700,53.6409,-109.9679,897.6,341.6,184.9,4.7,-1.1,10.35,36.34,1.9607,394.5174],
    [19151,1537397701,53.6402,-109.9679,897.9,341.9,184.4,4.1,-1.4,9.74,37.32,1.9584,393.5914],
    [19152,1537397702,53.6395,-109.968,898.5,342.5,184.3,3.9,-1.7,10.15,36.25,1.96,392.8807],
    [19153,1537397703,53.6389,-109.968,898.7,342.7,184.4,3.9,-1.9,9.79,36.86,1.9608,393.864],
    [19154,1537397704,53.6382,-109.968,898.5,342.5,184.0,3.3,-1.9,9.72,37.14,1.9608,393.864],
    [19155,1537397705,53.6375,-109.968,898.5,342.5,184.2,3.4,-1.9,10.09,36.76,1.96,393.6785],
    [19156,1537397706,53.6369,-109.9681,898.8,342.8,184.4,3.5,-1.9,9.73,37.49,1.9606,393.026],
    [19157,1537397707,53.6362,-109.9681,898.7,342.7,184.4,3.2,-1.8,9.62,37.0,1.9611,391.9896],
    [19158,1537397708,53.6355,-109.9681,898.5,336.8,184.7,3.4,-1.6,9.66,36.89,1.9606,394.6192],
    [19159,1537397709,53.6349,-109.9682,898.6,334.0,185.1,3.8,-1.7,9.7,36.96,1.9612,394.6192],
    [19160,1537397710,53.6342,-109.9682,899.0,331.7,185.6,4.4,-1.3,9.11,36.97,1.9606,392.6155],
    [19161,1537397711,53.6335,-109.9683,899.4,328.7,185.9,4.6,-1.8,9.85,36.81,1.9588,391.7801],
    [19162,1537397712,53.6329,-109.9683,899.2,327.5,185.5,4.1,-2.3,9.63,37.03,1.9601,395.1654],
    [19163,1537397713,53.6322,-109.9684,898.7,326.6,185.6,4.5,-2.6,9.68,36.81,1.96,393.9872],
    [19164,1537397714,53.6315,-109.9684,898.5,325.2,185.8,4.6,-2.5,9.69,36.96,1.961,394.0818],
    [19165,1537397715,53.6308,-109.9684,898.5,324.4,185.1,4.0,-2.5,9.91,37.05,1.9613,393.1924],
    [19166,1537397716,53.6302,-109.9685,898.8,323.2,185.4,4.4,-2.4,9.65,37.38,1.9614,392.4473],
    [19167,1537397717,53.6295,-109.9685,898.7,321.7,185.1,4.2,-2.6,9.43,37.18,1.9623,393.1426],
    [19168,1537397718,53.6288,-109.9685,898.5,320.2,185.3,4.5,-2.2,9.67,37.4,1.9619,392.7544],
    [19169,1537397719,53.6282,-109.9686,898.3,319.1,185.2,4.2,-2.1,10.33,36.75,1.9633,393.12],
    [19170,1537397720,53.6275,-109.9686,898.5,319.2,185.1,4.3,-2.0,9.46,36.97,1.9599,393.1831],
    [19171,1537397721,53.6268,-109.9686,898.8,323.3,184.9,3.9,-2.1,10.12,36.35,1.9608,392.7156],
    [19172,1537397722,53.6261,-109.9687,899.0,326.0,184.8,3.9,-2.2,9.65,37.36,1.9618,392.9758],
    [19173,1537397723,53.6255,-109.9687,899.0,327.0,184.8,3.8,-2.7,9.45,37.02,1.9629,393.8603],
    [19174,1537397724,53.6248,-109.9687,898.9,324.2,185.0,4.0,-3.0,9.72,36.84,1.9609,393.8603],
    [19175,1537397725,53.6241,-109.9688,898.4,319.4,185.0,3.9,-2.9,9.31,37.34,1.9613,393.2708],
    [19176,1537397726,53.6234,-109.9688,898.3,318.3,185.4,4.3,-2.4,9.59,37.09,1.9612,393.3614],
    [19177,1537397727,53.6228,-109.9689,898.7,318.7,185.4,4.1,-2.2,9.43,37.17,1.9625,392.7692],
    [19178,1537397728,53.6221,-109.9689,898.9,320.0,184.9,3.7,-2.2,9.75,37.59,1.9612,393.401],
    [19179,1537397729,53.6214,-109.9689,898.5,319.5,185.4,4.1,-2.5,9.71,37.15,1.961,393.6725],
    [19180,1537397730,53.6207,-109.969,898.1,320.1,185.2,4.0,-2.7,9.63,37.46,1.9618,393.6463],
    [19181,1537397731,53.6201,-109.969,898.2,320.7,185.3,4.0,-2.6,10.49,36.57,1.9622,393.9236],
    [19182,1537397732,53.6194,-109.9691,898.5,322.1,185.3,4.1,-2.7,9.61,37.26,1.9628,393.5512],
    [19183,1537397733,53.6187,-109.9691,898.8,323.9,185.6,4.3,-2.7,9.51,37.16,1.9639,393.3277],
    [19184,1537397734,53.618,-109.9691,898.7,325.1,185.5,4.1,-2.6,9.12,37.28,1.9641,394.4004],
    [19185,1537397735,53.6174,-109.9692,898.5,326.4,185.3,3.9,-2.5,9.26,37.11,1.9624,392.4903],
    [19186,1537397736,53.6167,-109.9692,898.4,327.6,185.2,4.0,-2.6,10.1,36.69,1.9644,392.4103],
    [19187,1537397737,53.616,-109.9693,898.2,329.5,185.3,4.2,-2.5,9.57,37.47,1.9665,394.084],
    [19188,1537397738,53.6153,-109.9693,898.1,331.1,185.3,4.0,-2.6,10.06,36.96,1.9641,394.084],
    [19189,1537397739,53.6147,-109.9693,898.3,333.3,185.1,3.9,-2.6,9.72,37.11,1.9642,392.0641],
    [19190,1537397740,53.614,-109.9694,898.5,334.4,185.4,4.3,-2.8,9.68,37.25,1.9626,394.687],
    [19191,1537397741,53.6133,-109.9694,898.6,337.3,185.4,4.2,-2.8,9.64,37.17,1.9625,393.0544],
    [19192,1537397742,53.6126,-109.9695,898.7,339.1,185.2,4.1,-2.8,9.04,37.29,1.9631,393.0617],
    [19193,1537397743,53.6119,-109.9695,898.6,340.6,185.3,4.3,-2.7,9.58,37.78,1.9625,393.1025],
    [19194,1537397744,53.6113,-109.9695,898.7,342.7,185.2,4.1,-2.9,9.24,37.54,1.9625,392.5123],
    [19195,1537397745,53.6106,-109.9696,898.7,344.4,185.2,4.2,-3.0,9.49,37.13,1.9634,393.7804],
    [19196,1537397746,53.6099,-109.9696,898.5,346.5,185.1,3.9,-3.1,9.37,36.97,1.9629,392.9885],
    [19197,1537397747,53.6092,-109.9697,898.4,348.4,185.0,3.9,-3.1,9.68,37.11,1.9641,393.8813],
    [19198,1537397748,53.6086,-109.9697,898.2,350.3,185.0,3.7,-3.0,9.66,37.26,1.9633,393.2961],
    [19199,1537397749,53.6079,-109.9697,898.1,351.1,185.1,3.8,-3.0,9.8,37.0,1.9636,394.1235],
    [19200,1537397750,53.6072,-109.9698,898.0,352.0,185.1,3.7,-3.1,10.33,36.68,1.9634,393.2677],
    [19201,1537397751,53.6065,-109.9698,898.2,353.9,185.1,3.7,-3.2,9.58,37.25,1.9647,392.4256],
    [19202,1537397752,53.6058,-109.9699,898.3,354.3,185.1,3.9,-3.1,9.04,37.12,1.9643,393.5713],
    [19203,1537397753,53.6052,-109.9699,898.4,356.5,185.0,3.9,-3.1,9.53,37.36,1.9643,394.911],
    [19204,1537397754,53.6045,-109.9699,898.5,356.5,185.0,3.8,-3.1,9.48,37.71,1.9655,393.6846],
    [19205,1537397755,53.6038,-109.97,898.6,357.6,184.9,3.8,-3.1,9.57,37.14,1.9653,391.8747],
    [19206,1537397756,53.6031,-109.97,898.9,358.8,185.1,3.9,-3.0,9.52,36.93,1.9656,394.2958],
    [19207,1537397757,53.6024,-109.97,899.1,360.0,185.2,3.9,-3.1,10.32,37.04,1.9644,394.7558],
    [19208,1537397758,53.6018,-109.9701,899.1,360.3,185.3,3.9,-3.0,9.54,37.19,1.963,392.3167],
    [19209,1537397759,53.6011,-109.9701,899.2,361.5,185.2,3.9,-3.1,9.58,37.5,1.9632,392.7835],
    [19210,1537397760,53.6004,-109.9702,899.4,362.4,185.1,3.8,-3.1,9.64,37.98,1.964,392.7835],
    [19211,1537397761,53.5997,-109.9702,899.6,363.6,184.9,3.5,-3.2,9.81,37.31,1.9661,393.8606],
    [19212,1537397762,53.599,-109.9703,899.3,364.4,184.5,3.1,-3.3,9.34,37.61,1.9651,394.0301],
    [19213,1537397763,53.5983,-109.9703,898.8,363.8,184.5,3.4,-3.1,9.24,37.46,1.966,394.0301],
    [19214,1537397764,53.5977,-109.9703,898.2,363.2,185.4,4.4,-2.9,9.57,38.64,1.9633,393.6721],
    [19215,1537397765,53.597,-109.9704,898.4,366.4,185.4,4.3,-2.9,9.38,37.67,1.963,394.1584],
    [19216,1537397766,53.5963,-109.9704,898.8,383.8,185.4,4.3,-2.7,9.39,38.0,1.9628,394.1584],
    [19217,1537397767,53.5956,-109.9704,898.9,395.5,185.3,4.1,-3.0,9.21,37.96,1.9645,393.6856],
    [19218,1537397768,53.5949,-109.9705,898.6,402.6,185.3,4.2,-3.0,9.51,38.03,1.9639,393.1506],
    [19219,1537397769,53.5942,-109.9705,898.3,402.3,185.3,4.2,-3.2,9.7,37.77,1.9639,394.8014],
    [19220,1537397770,53.5936,-109.9706,898.2,396.9,185.1,4.1,-3.3,9.36,37.79,1.9639,392.8439],
    [19221,1537397771,53.5929,-109.9706,898.2,396.2,185.1,4.2,-3.0,9.34,38.03,1.9637,394.5287],
    [19222,1537397772,53.5922,-109.9706,898.5,397.5,184.9,4.0,-2.7,8.86,37.98,1.9647,394.6037],
    [19223,1537397773,53.5915,-109.9707,898.7,402.7,184.9,3.9,-2.8,8.87,37.94,1.9665,393.9127],
    [19224,1537397774,53.5908,-109.9707,898.8,402.8,184.9,3.9,-2.8,9.15,37.56,1.9649,393.643],
    [19225,1537397775,53.5901,-109.9707,898.9,402.9,184.9,3.9,-3.0,9.82,37.57,1.9649,394.4195],
    [19226,1537397776,53.5894,-109.9708,898.8,400.4,185.0,3.9,-3.0,10.13,37.58,1.9635,393.9836],
    [19227,1537397777,53.5887,-109.9708,898.7,392.6,184.9,3.7,-2.9,9.74,37.38,1.9631,393.9836],
    [19228,1537397778,53.588,-109.9709,898.8,378.0,184.8,3.6,-2.8,9.4,37.8,1.9637,392.8031],
    [19229,1537397779,53.5874,-109.9709,898.9,369.9,184.7,3.5,-3.0,8.96,37.75,1.9642,393.9017],
    [19230,1537397780,53.5867,-109.9709,899.0,363.4,184.6,3.4,-3.1,9.63,37.54,1.9638,393.9017],
    [19231,1537397781,53.586,-109.971,899.0,360.6,184.6,3.4,-3.3,9.59,37.55,1.9645,394.3898],
    [19232,1537397782,53.5853,-109.971,898.8,356.6,184.6,3.4,-3.1,9.46,37.75,1.9647,393.6712],
    [19233,1537397783,53.5846,-109.9711,898.7,354.1,184.4,3.0,-3.1,8.96,37.89,1.9663,393.8811],
    [19234,1537397784,53.5839,-109.9711,898.9,349.2,184.2,2.9,-3.1,9.46,37.95,1.9662,394.1562],
    [19235,1537397785,53.5832,-109.9711,899.3,344.6,184.5,3.1,-3.2,9.76,37.9,1.9655,392.9512],
    [19236,1537397786,53.5825,-109.9712,899.6,337.2,184.8,3.3,-3.1,9.57,38.52,1.9645,392.9512],
    [19237,1537397787,53.5818,-109.9712,899.5,331.5,185.2,3.4,-3.0,10.21,37.6,1.9659,393.9119],
    [19238,1537397788,53.5811,-109.9713,899.4,322.7,185.0,3.0,-3.0,9.07,38.73,1.9664,394.0436],
    [19239,1537397789,53.5804,-109.9713,899.3,319.3,185.3,3.4,-3.0,9.17,38.51,1.9665,394.3929],
    [19240,1537397790,53.5797,-109.9714,899.0,311.7,185.1,3.0,-3.2,9.53,39.11,1.9663,393.1471],
    [19241,1537397791,53.579,-109.9714,899.1,307.4,184.8,2.7,-3.3,9.62,38.82,1.9657,393.6146],
    [19242,1537397792,53.5783,-109.9715,899.1,298.2,185.1,3.1,-3.1,9.13,38.66,1.9689,393.1138],
    [19243,1537397793,53.5776,-109.9716,898.9,291.2,185.3,3.3,-3.2,9.76,38.33,1.9686,392.3732],
    [19244,1537397794,53.5768,-109.9716,898.7,285.3,185.3,3.3,-3.5,9.59,38.91,1.9655,394.1825],
    [19245,1537397795,53.5761,-109.9717,898.4,281.4,185.4,3.5,-3.6,10.25,38.69,1.9656,394.1825],
    [19246,1537397796,53.5754,-109.9717,898.2,275.3,185.2,3.4,-3.5,9.16,38.89,1.9648,393.421],
    [19247,1537397797,53.5747,-109.9718,898.1,272.5,185.4,3.6,-3.4,9.95,38.76,1.965,393.3987],
    [19248,1537397798,53.574,-109.9718,898.3,268.7,185.2,3.3,-3.5,9.52,39.05,1.9653,393.4239],
    [19249,1537397799,53.5733,-109.9719,898.7,265.2,185.1,3.2,-3.5,9.24,39.24,1.9654,391.6775],
    [19250,1537397800,53.5726,-109.9719,899.0,262.7,185.2,3.5,-3.5,9.72,38.55,1.965,393.3915],
    [19251,1537397801,53.5719,-109.972,899.1,260.8,184.9,3.0,-3.6,9.37,39.04,1.966,393.8353],
    [19252,1537397802,53.5712,-109.972,899.2,259.2,184.8,3.1,-3.5,10.15,38.84,1.965,393.7354],
    [19253,1537397803,53.5705,-109.9721,899.1,259.1,184.9,3.1,-3.4,9.38,39.4,1.9643,393.8185],
    [19254,1537397804,53.5698,-109.9721,899.1,259.1,184.8,2.9,-3.6,9.7,38.92,1.9652,393.6044],
    [19255,1537397805,53.5691,-109.9722,899.3,259.3,184.8,2.9,-3.6,10.2,38.67,1.9659,393.6006],
    [19256,1537397806,53.5684,-109.9722,899.4,260.6,185.0,3.0,-3.7,9.78,38.74,1.9658,391.882],
    [19257,1537397807,53.5677,-109.9723,899.2,263.4,185.2,3.4,-3.7,9.51,38.81,1.966,393.0597],
    [19258,1537397808,53.567,-109.9723,899.2,265.2,185.2,3.4,-3.6,9.15,38.94,1.9654,393.7685],
    [19259,1537397809,53.5662,-109.9724,899.0,269.0,185.4,3.7,-3.5,9.62,38.86,1.9659,393.7377],
    [19260,1537397810,53.5655,-109.9724,898.7,271.7,184.9,3.0,-3.4,9.91,38.76,1.966,393.7736],
    [19261,1537397811,53.5648,-109.9725,898.5,274.2,184.4,2.7,-3.8,9.62,38.44,1.9653,393.2607],
    [19262,1537397812,53.5641,-109.9725,898.2,281.3,184.8,3.2,-3.9,9.41,38.74,1.967,393.3025],
    [19263,1537397813,53.5634,-109.9726,897.9,284.8,184.5,3.0,-3.7,9.65,38.74,1.9679,392.5544],
    [19264,1537397814,53.5627,-109.9726,897.9,292.6,184.7,3.4,-3.6,9.52,38.77,1.9665,393.2294],
    [19265,1537397815,53.562,-109.9727,898.2,298.2,184.4,3.2,-3.4,9.84,38.31,1.9671,393.3962],
    [19266,1537397816,53.5613,-109.9727,898.7,306.0,184.2,3.0,-3.1,9.69,38.74,1.9671,391.5672],
    [19267,1537397817,53.5605,-109.9727,899.3,313.4,183.4,2.0,-3.5,9.82,38.21,1.9671,392.306],
    [19268,1537397818,53.5598,-109.9728,899.7,317.3,183.6,2.3,-3.3,9.48,38.99,1.9676,393.9167],
    [19269,1537397819,53.5591,-109.9728,899.6,321.3,183.6,2.3,-3.3,8.76,38.75,1.9687,396.2193],
    [19270,1537397820,53.5584,-109.9729,899.4,321.4,184.1,2.9,-3.4,9.62,39.4,1.9664,392.4049],
    [19271,1537397821,53.5577,-109.9729,899.2,319.8,184.3,3.0,-3.7,8.73,39.26,1.968,393.4803],
    [19272,1537397822,53.557,-109.9729,899.0,319.0,184.3,2.9,-3.8,8.99,39.18,1.9678,393.1593],
    [19273,1537397823,53.5563,-109.973,899.2,319.2,184.2,2.8,-3.9,9.39,39.39,1.9659,392.9231],
    [19274,1537397824,53.5555,-109.973,900.0,321.0,183.8,2.3,-3.9,10.01,39.01,1.9675,393.4516],
    [19275,1537397825,53.5548,-109.9731,901.1,323.0,183.5,1.6,-3.7,9.88,39.18,1.9683,393.1407],
    [19276,1537397826,53.5541,-109.9731,902.9,325.8,181.7,-0.3,-2.6,9.52,40.29,1.9693,391.0854],
    [19277,1537397827,53.5534,-109.9731,904.3,328.3,185.4,5.9,-1.9,9.48,39.95,1.9686,393.8472],
    [19278,1537397828,53.5527,-109.9732,903.0,327.0,186.8,7.2,-1.8,9.16,39.56,1.9682,393.3894],
    [19279,1537397829,53.552,-109.9732,901.0,325.3,183.0,3.5,-0.8,9.49,40.2,1.9665,391.8987],
    [19280,1537397830,53.5513,-109.9732,900.0,324.0,183.6,4.6,-1.6,9.55,39.17,1.9656,391.8987],
    [19281,1537397831,53.5505,-109.9732,898.9,320.9,182.8,3.6,-1.5,10.03,38.81,1.9668,393.2026],
    [19282,1537397832,53.5498,-109.9732,898.2,318.6,182.9,3.6,-1.5,9.89,39.21,1.9638,393.4399],
    [19283,1537397833,53.549,-109.9732,897.7,313.7,183.7,4.2,-1.2,10.15,38.03,1.9624,393.4399],
    [19284,1537397834,53.5483,-109.9732,897.9,309.2,184.2,4.6,-0.4,9.13,38.67,1.9624,392.086],
    [19285,1537397835,53.5476,-109.9733,898.9,307.1,184.4,4.4,-1.0,9.01,38.17,1.963,392.1872],
    [19286,1537397836,53.5469,-109.9733,900.1,305.8,184.2,3.7,-0.3,9.45,37.83,1.9649,392.1872],
    [19287,1537397837,53.5461,-109.9733,900.3,305.0,184.5,4.1,0.2,9.41,37.86,1.9632,392.1961],
    [19288,1537397838,53.5454,-109.9734,900.4,302.5,185.3,5.1,0.2,9.74,37.42,1.9637,392.7662],
    [19289,1537397839,53.5447,-109.9734,901.0,301.0,185.3,4.9,0.5,9.73,37.28,1.9657,392.7662],
    [19290,1537397840,53.544,-109.9734,901.8,300.0,184.3,3.8,1.3,9.83,36.94,1.9582,392.4872],
    [19291,1537397841,53.5433,-109.9735,902.5,298.7,184.3,3.7,1.2,9.96,36.68,1.9576,392.0814],
    [19292,1537397842,53.5426,-109.9735,903.1,298.3,184.3,4.0,0.8,9.95,36.76,1.9594,392.5393],
    [19293,1537397843,53.5418,-109.9735,903.2,298.2,184.4,3.5,0.5,9.2,36.66,1.9585,393.8472],
    [19294,1537397844,53.5411,-109.9736,902.9,299.2,183.8,2.7,0.0,9.79,36.74,1.9588,392.5695],
    [19295,1537397845,53.5404,-109.9736,902.9,299.9,184.9,4.0,-0.8,9.69,36.59,1.9605,393.0759],
    [19296,1537397846,53.5397,-109.9737,902.5,301.5,186.0,5.4,-0.6,9.69,36.94,1.9584,391.8206],
    [19297,1537397847,53.5389,-109.9737,901.3,301.3,186.5,6.1,0.1,9.72,36.63,1.9469,393.369],
    [19298,1537397848,53.5382,-109.9738,900.2,302.9,186.5,6.2,0.6,9.85,36.32,1.9482,393.5233],
    [19299,1537397849,53.5375,-109.9738,899.7,304.7,186.2,6.1,0.5,9.98,35.88,1.9466,391.1566],
    [19300,1537397850,53.5367,-109.9738,899.7,305.7,185.7,5.8,0.7,9.31,35.98,1.9475,393.9698],
    [19301,1537397851,53.536,-109.9739,899.6,305.6,185.3,5.6,0.5,9.27,35.79,1.9466,388.235],
    [19302,1537397852,53.5353,-109.9739,899.7,305.7,185.0,5.4,0.4,9.98,35.04,1.9485,393.0751],
    [19303,1537397853,53.5346,-109.9739,899.9,307.2,184.8,5.4,0.7,9.77,35.92,1.9495,393.4451],
    [19304,1537397854,53.5339,-109.9739,899.8,308.8,184.8,5.7,1.7,9.89,35.29,1.949,393.5392],
    [19305,1537397855,53.5331,-109.974,899.9,309.7,184.8,5.6,1.1,10.03,35.56,1.9482,394.1364],
    [19306,1537397856,53.5324,-109.974,900.8,312.3,184.0,4.7,0.8,9.83,35.21,1.9474,394.1311],
    [19307,1537397857,53.5317,-109.974,901.9,315.1,183.7,4.3,0.3,10.24,34.48,1.948,394.1618],
    [19308,1537397858,53.531,-109.974,902.6,320.9,183.7,4.3,0.0,10.52,34.79,1.9508,393.9551],
    [19309,1537397859,53.5303,-109.974,903.3,316.9,183.2,3.7,0.2,9.22,35.36,1.952,393.5167],
    [19310,1537397860,53.5296,-109.974,903.1,316.4,184.3,4.7,0.2,9.78,35.21,1.9539,393.0381],
    [19311,1537397861,53.5288,-109.974,901.7,319.0,184.2,4.2,-0.3,9.79,35.52,1.9519,392.8189],
    [19312,1537397862,53.5281,-109.9741,900.2,318.7,185.0,5.1,-0.3,9.46,35.72,1.9505,392.9184],
    [19313,1537397863,53.5274,-109.9741,899.0,317.5,185.5,5.7,0.0,9.26,35.29,1.9511,393.6535],
    [19314,1537397864,53.5267,-109.9741,898.6,316.6,185.0,5.1,0.4,9.68,35.37,1.952,393.6535],
    [19315,1537397865,53.526,-109.9742,898.7,318.0,184.4,4.9,0.5,10.1,35.05,1.9525,393.099],
    [19316,1537397866,53.5253,-109.9742,899.0,319.9,184.7,5.4,0.1,10.01,34.87,1.9511,394.5949],
    [19317,1537397867,53.5245,-109.9742,899.3,321.3,184.8,5.5,0.0,9.29,35.49,1.9504,393.6883],
    [19318,1537397868,53.5238,-109.9742,899.6,324.6,184.5,5.1,0.1,10.44,35.26,1.9512,393.0303],
    [19319,1537397869,53.5231,-109.9742,899.9,324.9,183.8,4.3,0.0,10.58,35.15,1.9505,393.7925],
    [19320,1537397870,53.5224,-109.9742,900.1,323.2,183.8,4.4,-0.1,9.86,35.35,1.9521,393.5515],
    [19321,1537397871,53.5217,-109.9743,900.3,322.3,184.1,4.6,-0.1,10.63,35.09,1.9513,392.843],
    [19322,1537397872,53.521,-109.9743,900.4,323.2,184.1,4.5,0.0,9.74,35.04,1.951,391.8765],
    [19323,1537397873,53.5203,-109.9743,900.5,325.5,183.9,4.4,0.0,10.65,35.16,1.9502,391.4725],
    [19324,1537397874,53.5195,-109.9743,900.6,325.6,183.7,4.4,0.2,9.42,35.35,1.9498,394.2919],
    [19325,1537397875,53.5189,-109.9743,900.7,325.7,183.5,4.4,0.0,9.7,35.51,1.9508,393.3902],
    [19326,1537397876,53.5181,-109.9743,900.7,325.7,183.4,4.3,-0.2,9.35,35.39,1.9535,393.6371],
    [19327,1537397877,53.5174,-109.9743,900.8,322.0,183.4,4.3,-0.3,9.66,35.49,1.9511,393.0075],
    [19328,1537397878,53.5167,-109.9743,900.5,321.5,183.2,4.1,-0.5,9.8,35.91,1.9515,393.882],
    [19329,1537397879,53.516,-109.9743,900.2,321.2,183.2,4.0,-0.7,9.48,35.46,1.9507,392.5858],
    [19330,1537397880,53.5153,-109.9743,900.0,322.0,183.0,3.7,-1.0,9.86,35.53,1.9525,393.0666],
    [19331,1537397881,53.5146,-109.9743,899.8,321.8,182.9,3.7,-1.2,10.34,35.27,1.9538,393.5797],
    [19332,1537397882,53.5139,-109.9743,899.7,319.7,183.0,3.8,-1.1,10.23,35.04,1.9517,393.5797],
    [19333,1537397883,53.5131,-109.9743,899.7,316.6,183.0,3.9,-1.0,9.95,35.49,1.9514,393.7228],
    [19334,1537397884,53.5124,-109.9744,899.6,311.1,183.5,4.4,-0.9,9.65,35.67,1.9507,393.7286],
    [19335,1537397885,53.5117,-109.9744,899.3,307.2,183.6,4.5,-1.1,9.14,35.53,1.95,393.8214],
    [19336,1537397886,53.511,-109.9744,899.6,305.3,183.4,4.4,-1.1,9.87,36.05,1.9498,393.2989],
    [19337,1537397887,53.5103,-109.9744,899.8,304.8,183.3,4.3,-1.2,9.68,35.6,1.9491,393.8736],
    [19338,1537397888,53.5096,-109.9744,900.2,306.2,183.3,4.4,-1.3,9.44,35.6,1.9496,393.7363],
    [19339,1537397889,53.5089,-109.9744,900.6,307.6,183.2,4.3,-1.6,9.62,36.12,1.9482,391.9948],
    [19340,1537397890,53.5082,-109.9744,900.7,307.7,183.2,4.4,-1.6,9.21,35.53,1.9484,393.0924],
    [19341,1537397891,53.5075,-109.9744,900.6,306.6,183.2,4.4,-1.6,9.83,35.89,1.9483,392.9107],
    [19342,1537397892,53.5068,-109.9744,900.4,306.4,183.1,4.4,-1.8,10.2,34.8,1.9475,392.9107],
    [19343,1537397893,53.506,-109.9744,900.1,306.1,183.2,4.6,-2.0,9.57,35.71,1.947,392.9555],
    [19344,1537397894,53.5053,-109.9744,899.8,305.8,182.9,4.4,-2.0,9.79,35.67,1.9479,392.453],
    [19345,1537397895,53.5046,-109.9743,899.6,305.6,182.9,4.3,-2.0,9.68,35.72,1.9494,393.4162],
    [19346,1537397896,53.5039,-109.9743,899.7,305.7,182.9,4.5,-2.1,10.53,35.01,1.9492,393.6978],
    [19347,1537397897,53.5032,-109.9743,899.7,306.5,182.9,4.3,-2.2,10.09,35.06,1.9492,391.0846],
    [19348,1537397898,53.5025,-109.9743,899.7,307.6,182.9,4.3,-2.2,9.72,35.96,1.9487,394.1134],
    [19349,1537397899,53.5018,-109.9743,899.7,307.7,183.0,4.4,-2.4,9.41,35.54,1.9484,393.0192],
    [19350,1537397900,53.5011,-109.9743,899.6,308.3,182.9,4.2,-2.4,9.78,35.64,1.9489,394.2998],
    [19351,1537397901,53.5003,-109.9743,899.5,309.6,182.8,4.1,-2.3,9.88,35.72,1.9492,393.9778],
    [19352,1537397902,53.4996,-109.9743,899.6,309.4,182.7,3.9,-2.4,10.6,35.0,1.949,393.6684],
    [19353,1537397903,53.4989,-109.9743,899.7,310.5,182.8,4.1,-2.3,9.96,35.45,1.9479,393.4893],
    [19354,1537397904,53.4982,-109.9743,899.9,312.1,183.0,4.2,-2.6,9.39,35.61,1.9479,393.6891],
    [19355,1537397905,53.4975,-109.9743,900.0,313.2,182.9,4.0,-2.4,9.71,35.7,1.9491,393.6891],
    [19356,1537397906,53.4968,-109.9743,900.3,313.7,182.9,4.0,-2.6,9.97,35.99,1.949,393.0518],
    [19357,1537397907,53.496,-109.9743,900.5,314.7,183.0,4.0,-2.6,9.51,35.51,1.95,393.0518],
    [19358,1537397908,53.4953,-109.9743,900.6,314.8,182.8,3.9,-2.5,10.06,35.34,1.9503,394.2622],
    [19359,1537397909,53.4946,-109.9743,900.8,315.9,183.0,4.1,-2.5,9.24,35.52,1.9485,393.2884],
    [19360,1537397910,53.4939,-109.9743,900.9,316.5,183.0,4.2,-2.5,9.61,35.21,1.9483,394.486],
    [19361,1537397911,53.4932,-109.9743,900.8,316.8,183.1,4.2,-2.5,9.79,35.5,1.9476,392.4902],
    [19362,1537397912,53.4925,-109.9743,900.7,317.7,183.2,4.3,-2.5,9.86,35.69,1.9471,392.5626],
    [19363,1537397913,53.4917,-109.9743,900.5,317.5,183.1,4.1,-2.6,9.58,35.57,1.9481,394.0439],
    [19364,1537397914,53.491,-109.9743,900.2,318.2,182.9,3.9,-2.6,9.65,35.55,1.9487,392.5524],
    [19365,1537397915,53.4903,-109.9743,899.8,317.8,182.9,4.0,-2.5,10.03,35.31,1.9498,393.4975],
    [19366,1537397916,53.4896,-109.9743,899.6,318.6,182.7,3.8,-2.5,9.81,35.49,1.9498,393.6106],
    [19367,1537397917,53.4889,-109.9743,899.6,319.6,182.7,3.7,-2.4,9.47,35.96,1.949,393.3121],
    [19368,1537397918,53.4882,-109.9743,899.8,319.8,182.9,4.0,-2.5,9.66,35.59,1.9469,393.0847],
    [19369,1537397919,53.4874,-109.9743,900.1,320.1,182.8,3.9,-2.7,9.85,35.64,1.9483,393.0847],
    [19370,1537397920,53.4867,-109.9743,900.3,320.3,182.8,3.9,-2.5,9.27,35.39,1.9499,394.0898],
    [19371,1537397921,53.486,-109.9743,900.5,320.5,183.1,4.2,-2.6,9.17,35.65,1.9476,392.7323],
    [19372,1537397922,53.4853,-109.9743,900.6,320.6,182.9,4.0,-2.7,9.79,36.38,1.9484,393.3699],
    [19373,1537397923,53.4846,-109.9743,900.7,317.7,183.0,4.0,-2.8,9.79,36.11,1.9478,393.7642],
    [19374,1537397924,53.4838,-109.9743,900.9,316.9,183.0,3.9,-2.6,9.62,35.74,1.9469,394.708],
    [19375,1537397925,53.4831,-109.9743,900.9,317.0,183.0,4.0,-2.6,9.73,35.85,1.9475,394.2825],
    [19376,1537397926,53.4824,-109.9743,901.0,315.9,183.1,4.1,-2.4,10.37,35.15,1.947,393.3999],
    [19377,1537397927,53.4817,-109.9743,900.7,315.7,182.9,3.9,-2.2,10.25,35.51,1.947,392.5702],
    [19378,1537397928,53.481,-109.9743,900.4,316.6,182.7,3.7,-2.4,10.29,35.26,1.9479,394.046],
    [19379,1537397929,53.4802,-109.9743,900.0,317.9,182.7,3.8,-2.5,9.66,35.5,1.9498,393.5967],
    [19380,1537397930,53.4795,-109.9743,899.6,317.6,182.7,3.6,-2.4,10.42,35.22,1.9506,393.378],
    [19381,1537397931,53.4788,-109.9743,899.5,317.2,182.6,3.5,-2.2,10.1,34.89,1.9526,394.604],
    [19382,1537397932,53.4781,-109.9743,899.8,316.5,182.6,3.5,-2.3,9.66,35.34,1.9513,394.4111],
    [19383,1537397933,53.4774,-109.9743,900.3,317.2,182.8,3.6,-2.1,9.77,35.25,1.9516,393.2918],
    [19384,1537397934,53.4766,-109.9743,900.5,318.0,182.5,3.3,-2.0,9.68,36.12,1.9512,392.9792],
    [19385,1537397935,53.4759,-109.9743,900.8,317.8,182.6,3.5,-1.8,9.87,35.18,1.9523,393.0166],
    [19386,1537397936,53.4752,-109.9743,900.9,317.1,182.7,3.4,-1.9,9.74,35.48,1.9545,393.2684],
    [19387,1537397937,53.4745,-109.9743,900.9,316.3,182.8,3.5,-1.9,9.53,35.52,1.955,394.5495],
    [19388,1537397938,53.4737,-109.9743,900.7,312.0,182.7,3.3,-1.9,9.44,35.7,1.9545,394.3115],
    [19389,1537397939,53.473,-109.9743,900.2,306.5,182.8,3.7,-1.8,10.06,35.48,1.9542,393.9491],
    [19390,1537397940,53.4723,-109.9743,900.1,304.6,183.3,4.1,-2.1,9.76,36.08,1.9542,393.6472],
    [19391,1537397941,53.4716,-109.9743,900.2,305.2,182.7,3.2,-2.3,9.45,35.96,1.9547,392.1664],
    [19392,1537397942,53.4709,-109.9743,900.3,306.5,182.4,2.9,-2.0,9.95,35.33,1.957,393.4023],
    [19393,1537397943,53.4701,-109.9743,900.2,310.9,182.4,3.0,-1.5,9.34,35.86,1.9546,394.3191],
    [19394,1537397944,53.4694,-109.9743,899.8,317.1,182.6,3.2,-1.4,9.83,36.38,1.9516,391.7873],
    [19395,1537397945,53.4687,-109.9743,899.7,320.7,182.6,3.1,-1.6,10.15,35.67,1.9508,392.3298],
    [19396,1537397946,53.468,-109.9744,900.1,328.1,182.7,3.2,-1.5,9.86,35.84,1.9498,392.5751],
    [19397,1537397947,53.4673,-109.9744,900.5,328.5,182.7,3.0,-1.6,9.83,35.88,1.9589,394.5602],
    [19398,1537397948,53.4665,-109.9744,901.0,322.7,182.7,3.1,-1.5,9.74,35.82,1.9621,393.0973],
    [19399,1537397949,53.4658,-109.9744,901.0,322.0,182.9,3.2,-1.3,9.73,35.79,1.9576,393.4052],
    [19400,1537397950,53.4651,-109.9744,900.9,322.0,182.9,3.1,-1.4,9.69,36.13,1.9542,393.5773],
    [19401,1537397951,53.4644,-109.9744,900.5,323.5,182.6,2.9,-1.6,9.05,35.82,1.9565,393.966],
    [19402,1537397952,53.4636,-109.9744,900.2,326.3,182.7,3.1,-1.8,9.54,35.92,1.9582,393.0915],
    [19403,1537397953,53.4629,-109.9744,900.0,328.0,182.6,3.0,-1.7,9.92,35.56,1.9572,394.6293],
    [19404,1537397954,53.4622,-109.9744,899.8,327.8,182.9,3.3,-1.7,9.7,36.09,1.9557,392.9499],
    [19405,1537397955,53.4615,-109.9744,899.8,327.8,183.1,3.4,-2.0,9.68,36.32,1.9588,393.3776],
    [19406,1537397956,53.4608,-109.9745,899.7,327.7,182.7,2.8,-2.0,9.39,36.02,1.9588,394.2386],
    [19407,1537397957,53.46,-109.9745,899.9,327.9,182.9,3.3,-2.1,10.18,35.86,1.9567,393.0725],
    [19408,1537397958,53.4593,-109.9745,900.1,328.1,183.0,3.4,-3.0,10.05,35.71,1.955,393.4127],
    [19409,1537397959,53.4586,-109.9745,900.2,328.2,183.0,3.5,-2.8,10.36,35.56,1.9524,394.0416],
    [19410,1537397960,53.4579,-109.9745,900.2,328.2,182.8,3.2,-3.2,10.56,35.4,1.9534,392.6458],
    [19411,1537397961,53.4571,-109.9745,900.0,328.0,182.8,3.4,-2.9,10.3,35.03,1.9507,394.2666],
    [19412,1537397962,53.4564,-109.9745,899.7,327.7,183.1,3.7,-3.0,9.47,35.92,1.9514,392.4993],
    [19413,1537397963,53.4557,-109.9745,899.5,327.5,183.2,3.8,-3.0,9.79,35.71,1.9521,392.4993],
    [19414,1537397964,53.455,-109.9745,899.6,327.6,183.1,3.7,-3.0,9.7,36.1,1.9487,393.6326],
    [19415,1537397965,53.4542,-109.9745,899.7,327.7,183.1,3.9,-3.0,10.03,35.12,1.9486,393.6071],
    [19416,1537397966,53.4535,-109.9745,899.8,327.8,183.2,4.0,-3.0,10.08,35.67,1.9504,393.569],
    [19417,1537397967,53.4528,-109.9745,900.0,328.0,182.7,3.5,-2.9,9.5,35.4,1.9517,393.4426],
    [19418,1537397968,53.4521,-109.9745,900.1,328.1,182.9,3.8,-2.9,9.88,35.49,1.9493,393.2955],
    [19419,1537397969,53.4513,-109.9745,900.0,328.0,182.6,3.6,-3.0,9.79,36.48,1.9479,392.2549],
    [19420,1537397970,53.4506,-109.9745,900.2,328.2,182.1,3.1,-2.8,9.81,36.59,1.9475,393.8134],
    [19421,1537397971,53.4499,-109.9745,900.5,328.5,181.8,3.0,-2.7,9.69,36.33,1.9472,393.8134],
    [19422,1537397972,53.4491,-109.9745,900.7,328.7,181.9,3.2,-3.0,9.91,35.38,1.9482,393.0286],
    [19423,1537397973,53.4484,-109.9745,900.9,328.9,182.3,3.5,-3.2,10.14,35.61,1.951,392.8828],
    [19424,1537397974,53.4477,-109.9745,901.0,329.0,182.6,3.7,-2.8,9.38,35.75,1.9505,392.8461],
    [19425,1537397975,53.447,-109.9745,900.5,328.5,182.9,3.8,-2.5,9.57,35.83,1.948,392.8461],
    [19426,1537397976,53.4462,-109.9745,900.6,328.6,182.9,3.9,-2.3,9.69,35.95,1.9478,393.504],
    [19427,1537397977,53.4455,-109.9745,901.5,329.5,183.4,4.6,-2.1,9.76,35.74,1.9477,393.4822],
    [19428,1537397978,53.4448,-109.9745,901.7,322.5,183.4,4.6,-1.5,10.0,35.75,1.9512,394.2384],
    [19429,1537397979,53.444,-109.9745,901.6,320.9,183.2,4.3,-1.3,9.79,36.54,1.9525,393.2571],
    [19430,1537397980,53.4433,-109.9745,901.5,319.6,182.7,3.7,-0.7,9.79,36.16,1.9525,391.877],
    [19431,1537397981,53.4426,-109.9745,901.3,318.4,182.7,3.8,-1.0,9.51,36.05,1.9511,393.1171],
    [19432,1537397982,53.4419,-109.9745,901.5,317.5,182.4,3.2,-1.6,9.88,36.34,1.9506,393.1171],
    [19433,1537397983,53.4411,-109.9745,901.2,317.2,182.3,3.3,-1.1,10.03,35.34,1.951,393.0121],
    [19434,1537397984,53.4405,-109.9745,900.4,318.4,182.7,4.2,-1.3,9.38,35.79,1.9492,392.2714],
    [19435,1537397985,53.4397,-109.9745,899.5,320.5,183.4,5.0,-1.7,9.65,36.24,1.9496,392.2714],
    [19436,1537397986,53.4389,-109.9745,898.8,320.8,183.1,4.8,-2.2,9.59,35.56,1.9509,393.1867],
    [19437,1537397987,53.4382,-109.9745,898.7,320.6,182.7,4.6,-2.1,9.63,35.77,1.948,390.848],
    [19438,1537397988,53.4375,-109.9745,899.4,321.4,182.0,4.1,-2.1,9.34,35.56,1.9507,394.4186],
    [19439,1537397989,53.4368,-109.9745,900.4,322.1,182.1,4.4,-1.8,9.61,35.62,1.9514,393.5673],
    [19440,1537397990,53.436,-109.9744,900.7,321.7,182.2,4.4,-1.5,9.78,36.02,1.9509,393.57],
    [19441,1537397991,53.4353,-109.9744,900.4,321.4,182.6,4.5,-1.6,9.7,35.53,1.9501,392.5069],
    [19442,1537397992,53.4346,-109.9744,900.3,321.3,182.5,4.0,-1.9,10.12,34.95,1.9511,393.2151],
    [19443,1537397993,53.4339,-109.9744,901.0,322.0,182.2,3.5,-2.2,10.27,35.1,1.9511,392.2627],
    [19444,1537397994,53.4331,-109.9744,901.5,320.8,182.8,4.3,-2.1,10.67,34.94,1.9501,392.2412],
    [19445,1537397995,53.4324,-109.9744,901.0,313.9,183.2,4.4,-1.8,9.66,35.9,1.9479,393.9648],
    [19446,1537397996,53.4317,-109.9744,900.7,309.6,182.9,4.1,-1.1,9.93,36.25,1.9484,395.3186],
    [19447,1537397997,53.431,-109.9744,901.0,306.9,182.8,3.9,-1.3,9.72,35.59,1.9484,394.184],
    [19448,1537397998,53.4302,-109.9744,901.1,301.9,183.5,4.7,-0.7,9.38,35.57,1.9476,393.5564],
    [19449,1537397999,53.4295,-109.9744,900.9,298.9,183.5,4.7,-0.8,10.01,35.91,1.9485,393.5855],
    [19450,1537398000,53.4288,-109.9744,900.3,293.3,184.0,5.3,-1.1,9.94,35.15,1.9486,392.5944],
    [19451,1537398001,53.4281,-109.9744,900.0,291.4,183.5,4.8,-1.0,9.99,36.21,1.9472,394.1717],
    [19452,1537398002,53.4273,-109.9744,900.2,292.1,183.3,4.9,-0.9,9.91,35.23,1.9467,394.5371],
    [19453,1537398003,53.4266,-109.9744,900.4,291.8,183.4,5.1,-1.6,10.13,35.18,1.9485,393.6564],
    [19454,1537398004,53.4259,-109.9744,900.7,291.7,183.0,4.7,-1.6,9.65,35.93,1.9498,393.5695],
    [19455,1537398005,53.4252,-109.9744,900.8,290.2,183.0,4.8,-1.5,10.17,35.25,1.9503,393.9013],
    [19456,1537398006,53.4245,-109.9744,900.6,288.6,183.1,4.8,-1.3,9.73,35.29,1.95,395.1026],
    [19457,1537398007,53.4237,-109.9744,900.5,285.5,183.1,4.9,-1.3,9.91,35.52,1.9505,393.0052],
    [19458,1537398008,53.423,-109.9743,900.9,283.9,183.0,4.8,-1.7,9.97,35.32,1.95,394.1193],
    [19459,1537398009,53.4223,-109.9743,901.1,283.1,182.8,4.5,-1.7,9.86,35.06,1.9495,393.2672],
    [19460,1537398010,53.4216,-109.9743,901.0,282.9,182.4,4.0,-1.8,9.41,35.3,1.9508,393.2211],
    [19461,1537398011,53.4209,-109.9743,900.7,285.2,182.2,3.6,-1.7,9.31,35.09,1.9507,394.2025],
    [19462,1537398012,53.4201,-109.9743,900.5,291.0,182.1,3.5,-1.6,9.86,35.15,1.9511,393.7023],
    [19463,1537398013,53.4194,-109.9743,900.5,295.8,181.8,2.9,-2.0,10.05,35.08,1.9494,393.7023],
    [19464,1537398014,53.4187,-109.9743,900.7,298.0,182.0,3.2,-2.2,9.94,35.69,1.9484,393.2044],
    [19465,1537398015,53.418,-109.9743,900.8,299.8,182.7,3.9,-2.3,10.09,34.77,1.9487,393.7083],
    [19466,1537398016,53.4172,-109.9743,900.9,299.4,183.0,4.0,-1.7,9.37,34.99,2.0215,393.0418],
    [19467,1537398017,53.4165,-109.9743,901.1,291.7,183.6,4.9,-0.3,10.15,35.49,2.0222,394.0203],
    [19468,1537398018,53.4158,-109.9743,900.7,286.5,184.2,5.4,-0.3,9.36,35.26,1.9712,394.7083],
    [19469,1537398019,53.4151,-109.9743,900.4,284.3,183.6,5.0,0.3,10.34,35.76,1.96,392.3552],
    [19470,1537398020,53.4143,-109.9743,900.4,283.4,183.7,5.2,0.2,9.16,35.66,1.9572,394.7368],
    [19471,1537398021,53.4136,-109.9743,900.7,282.6,183.4,5.1,0.2,9.95,35.18,1.9548,393.9062],
    [19472,1537398022,53.4129,-109.9743,900.9,282.9,183.3,5.0,0.1,9.53,35.52,1.9555,393.6993],
    [19473,1537398023,53.4122,-109.9743,901.0,284.0,183.0,4.8,0.4,9.8,35.76,1.954,392.7972],
    [19474,1537398024,53.4114,-109.9743,901.1,284.1,183.1,4.8,0.3,9.81,36.26,1.9524,392.4251],
    [19475,1537398025,53.4107,-109.9743,900.9,284.9,182.7,4.4,-0.2,10.15,35.57,1.9526,392.2155],
    [19476,1537398026,53.41,-109.9743,900.5,284.5,182.8,4.6,-0.2,10.42,35.7,1.9531,394.2038],
    [19477,1537398027,53.4093,-109.9743,900.4,285.3,182.8,4.6,-0.3,9.99,35.92,1.9528,394.1679],
    [19478,1537398028,53.4086,-109.9742,900.3,286.3,182.6,4.4,-0.4,9.97,35.98,1.9534,393.8458],
    [19479,1537398029,53.4078,-109.9742,900.2,286.2,182.6,4.3,-0.5,9.98,36.22,1.953,393.8489],
    [19480,1537398030,53.4071,-109.9742,900.2,286.5,182.5,4.0,-0.6,9.97,36.32,1.9542,393.058],
    [19481,1537398031,53.4064,-109.9742,900.0,287.0,182.6,4.0,-0.7,10.16,35.96,1.9528,391.5225],
    [19482,1537398032,53.4057,-109.9742,899.9,286.9,182.8,4.1,-0.8,9.94,36.33,1.9525,394.3184],
    [19483,1537398033,53.405,-109.9742,899.8,286.8,183.0,4.2,-0.7,9.75,36.2,1.953,392.9257],
    [19484,1537398034,53.4043,-109.9742,899.6,286.9,183.1,4.3,-0.7,9.76,36.15,1.9545,394.4834],
    [19485,1537398035,53.4035,-109.9742,899.9,287.1,183.3,4.5,-0.6,9.99,35.89,1.9549,394.4248],
    [19486,1537398036,53.4028,-109.9742,900.7,287.7,183.4,4.7,-0.7,9.66,36.17,1.955,394.0593],
    [19487,1537398037,53.4021,-109.9742,901.5,288.6,182.9,4.2,-0.6,10.71,36.0,1.9562,393.8702],
    [19488,1537398038,53.4014,-109.9742,902.3,288.3,183.0,4.4,-1.3,9.96,36.49,1.9555,394.6215],
    [19489,1537398039,53.4007,-109.9742,902.1,288.1,182.7,3.9,-1.6,10.46,36.37,1.9556,392.698],
    [19490,1537398040,53.4,-109.9742,901.4,286.4,182.3,3.7,-0.6,10.13,36.72,1.9565,393.6125],
    [19491,1537398041,53.3992,-109.9742,900.5,285.5,182.9,4.4,-0.7,9.64,36.94,1.957,393.7737],
    [19492,1537398042,53.3985,-109.9742,899.9,284.8,183.0,4.5,-0.6,9.91,37.46,1.9559,392.8257],
    [19493,1537398043,53.3978,-109.9742,899.8,283.8,183.0,4.6,-1.2,10.04,37.08,1.9575,393.2763],
    [19494,1537398044,53.3971,-109.9742,900.0,284.0,183.0,4.6,-1.3,9.89,37.29,1.9575,393.0413],
    [19495,1537398045,53.3964,-109.9742,900.2,283.2,182.9,4.5,-1.3,9.76,37.31,1.957,392.3526],
    [19496,1537398046,53.3957,-109.9741,900.2,283.1,182.9,4.5,-1.4,10.22,36.88,1.9565,392.459],
    [19497,1537398047,53.395,-109.9741,900.1,282.1,182.9,4.5,-1.4,9.87,37.33,1.9576,392.487],
    [19498,1537398048,53.3942,-109.9741,900.0,282.0,182.7,4.2,-1.3,9.89,37.32,1.9565,391.8511],
    [19499,1537398049,53.3935,-109.9741,899.8,281.7,182.4,3.9,-1.3,9.92,37.8,1.9554,394.2591],
    [19500,1537398050,53.3928,-109.9741,899.7,281.7,182.4,3.8,-1.5,9.7,37.36,1.9554,394.8709],
    [19501,1537398051,53.3921,-109.9741,899.7,280.6,182.3,3.8,-1.4,9.85,37.57,1.9554,392.8098],
    [19502,1537398052,53.3914,-109.9741,899.6,280.6,182.5,3.9,-1.5,9.7,37.43,1.9554,392.9667],
    [19503,1537398053,53.3907,-109.9741,899.4,280.4,182.5,3.8,-1.4,10.16,37.21,1.9559,393.5054],
    [19504,1537398054,53.39,-109.9741,899.3,280.4,182.8,3.9,-1.1,9.64,37.47,1.9562,393.5401],
    [19505,1537398055,53.3893,-109.9741,900.1,281.1,182.1,2.8,-1.6,10.24,37.41,1.9552,392.9983],
    [19506,1537398056,53.3886,-109.9741,901.1,281.0,182.6,3.3,-1.8,9.98,37.51,1.9536,393.1812],
    [19507,1537398057,53.3878,-109.9741,901.8,281.8,183.0,3.5,-2.1,9.53,37.86,1.9553,393.8011],
    [19508,1537398058,53.3871,-109.9741,902.4,281.4,182.7,3.1,-1.9,9.71,38.06,1.9632,394.4434],
    [19509,1537398059,53.3864,-109.9741,902.9,280.9,183.1,3.4,-2.1,9.85,38.05,1.9843,394.0711],
    [19510,1537398060,53.3857,-109.9741,902.5,280.3,183.3,3.0,-1.6,10.26,38.06,1.9656,392.3062],
    [19511,1537398061,53.385,-109.9742,900.7,277.7,183.5,2.3,-1.0,10.63,37.98,1.9582,393.8178],
    [19512,1537398062,53.3843,-109.9742,898.5,275.5,185.9,3.1,-1.0,10.02,38.22,1.9546,394.0552],
    [19513,1537398063,53.3836,-109.9743,897.0,274.0,188.3,3.2,-1.4,9.74,38.11,1.9533,393.5524],
    [19514,1537398064,53.3829,-109.9745,896.1,273.1,191.4,3.3,-1.3,9.78,38.25,1.9527,394.0899],
    [19515,1537398065,53.3822,-109.9747,895.8,272.8,194.8,3.5,-1.6,9.97,37.79,1.9525,393.2369],
    [19516,1537398066,53.3815,-109.975,896.3,272.3,198.2,3.3,-1.8,9.96,38.65,1.9506,393.6988],
    [19517,1537398067,53.3808,-109.9753,897.5,273.5,201.6,3.4,-1.6,9.93,38.01,1.9494,394.2532],
    [19518,1537398068,53.3801,-109.9757,898.7,274.7,205.0,3.9,-1.7,9.34,37.68,1.9451,393.573],
    [19519,1537398069,53.3795,-109.9762,899.9,275.9,208.3,4.1,-1.8,9.64,38.12,1.9457,393.6363],
    [19520,1537398070,53.3789,-109.9767,900.8,275.8,211.3,4.0,-1.7,10.17,37.12,1.9632,392.5316],
    [19521,1537398071,53.3783,-109.9773,902.2,277.2,213.8,3.3,-1.7,9.81,38.06,1.9682,393.6412],
    [19522,1537398072,53.3777,-109.9779,902.4,276.4,216.9,4.2,-1.6,9.83,37.39,1.9548,393.7088],
    [19523,1537398073,53.3771,-109.9786,901.9,275.9,220.6,4.8,-1.9,9.83,37.29,1.9672,391.7801],
    [19524,1537398074,53.3766,-109.9793,902.8,275.8,223.1,3.7,-0.8,9.33,37.41,1.9958,391.7801],
    [19525,1537398075,53.3761,-109.9801,904.1,277.1,225.6,3.1,-1.5,10.05,37.07,1.9615,393.5562],
    [19526,1537398076,53.3756,-109.9809,903.6,275.6,228.8,3.1,-2.2,9.83,38.05,1.9517,394.6248],
    [19527,1537398077,53.3751,-109.9817,903.1,275.1,232.3,3.7,-1.8,10.08,37.73,1.9501,392.5002],
    [19528,1537398078,53.3747,-109.9826,902.9,274.9,235.2,3.2,-2.0,10.06,37.56,1.9484,393.4263],
    [19529,1537398079,53.3743,-109.9835,902.4,274.4,237.9,3.7,-2.0,9.94,38.47,1.9476,393.9084],
    [19530,1537398080,53.3739,-109.9845,901.2,274.2,241.1,4.4,-1.5,10.13,38.3,1.948,394.0599],
    [19531,1537398081,53.3736,-109.9855,900.6,273.6,244.3,4.5,-1.6,9.89,38.11,1.948,394.9273],
    [19532,1537398082,53.3733,-109.9865,900.5,274.2,247.8,4.8,-2.2,10.09,37.65,1.9575,392.2576],
    [19533,1537398083,53.373,-109.9875,901.2,275.2,250.1,3.8,-1.9,10.03,37.38,1.9612,392.2576],
    [19534,1537398084,53.3728,-109.9886,902.8,276.8,251.7,3.1,-1.4,9.87,37.52,1.9617,392.2901],
    [19535,1537398085,53.3726,-109.9896,903.8,277.8,252.9,2.5,-1.3,9.89,37.43,1.9663,392.2901],
    [19536,1537398086,53.3723,-109.9907,903.8,277.8,254.9,4.3,-2.2,10.44,37.6,1.9704,393.0403],
    [19537,1537398087,53.3722,-109.9918,903.5,277.5,255.3,4.3,-1.9,10.26,37.44,1.9634,392.2032],
    [19538,1537398088,53.372,-109.9929,903.8,278.8,255.4,4.0,-1.9,10.04,37.57,1.9655,392.8803],
    [19539,1537398089,53.3718,-109.994,903.4,279.4,254.5,3.6,-1.3,9.84,37.7,1.9485,394.4185],
    [19540,1537398090,53.3716,-109.995,903.0,279.9,253.8,3.5,-1.4,10.41,37.5,1.9454,392.4481],
    [19541,1537398091,53.3713,-109.9961,902.9,279.9,253.6,3.3,-2.0,10.29,37.07,1.95,393.6134],
    [19542,1537398092,53.3711,-109.9972,902.8,279.9,252.9,4.5,-1.2,10.01,37.42,1.9549,393.3406],
    [19543,1537398093,53.3709,-109.9982,902.1,279.1,252.3,4.5,-0.9,9.56,37.56,1.9545,392.636],
    [19544,1537398094,53.3707,-109.9993,901.3,276.6,252.3,4.1,-1.8,9.75,37.01,1.9637,394.2613],
    [19545,1537398095,53.3704,-110.0004,901.1,271.6,252.5,4.5,-2.1,10.27,37.21,1.9579,394.0492],
    [19546,1537398096,53.3702,-110.0014,901.1,269.6,252.2,4.4,-1.5,9.81,37.29,1.9498,394.3981],
    [19547,1537398097,53.37,-110.0025,900.9,268.9,252.2,4.6,-1.1,9.77,37.29,1.9453,394.3981],
    [19548,1537398098,53.3698,-110.0035,900.8,268.8,252.7,4.8,-1.4,10.45,36.84,1.9439,393.3302],
    [19549,1537398099,53.3695,-110.0046,900.7,268.6,252.8,4.8,-1.2,9.7,37.32,1.9432,393.4444],
    [19550,1537398100,53.3693,-110.0057,900.6,267.9,252.8,4.6,-1.3,9.96,37.05,1.9447,393.5],
    [19551,1537398101,53.3691,-110.0068,900.7,265.7,252.8,4.7,-1.3,10.72,36.82,1.9428,392.641],
    [19552,1537398102,53.3689,-110.0078,901.0,266.0,253.0,4.4,-1.7,9.52,36.95,1.9442,391.8058],
    [19553,1537398103,53.3686,-110.0089,900.9,265.9,252.7,4.3,-1.4,9.87,36.88,1.9441,393.5799],
    [19554,1537398104,53.3684,-110.0099,900.6,265.6,252.8,4.3,-1.5,10.17,37.04,1.9443,393.1673],
    [19555,1537398105,53.3682,-110.011,900.3,264.2,252.9,4.0,-1.8,10.0,37.42,1.9451,393.5805],
    [19556,1537398106,53.368,-110.0121,899.8,263.8,252.9,3.9,-1.8,10.52,36.41,1.9469,393.6391],
    [19557,1537398107,53.3678,-110.0131,899.5,263.5,252.9,4.0,-1.7,10.02,36.61,1.9481,393.5464],
    [19558,1537398108,53.3675,-110.0142,899.8,264.6,252.6,3.7,-1.3,9.36,37.18,1.9506,394.397],
    [19559,1537398109,53.3673,-110.0152,900.1,266.1,252.5,3.8,-0.7,9.73,36.98,1.9531,394.0208],
    [19560,1537398110,53.3671,-110.0163,900.5,266.5,252.5,4.0,-0.1,10.06,37.59,1.9576,394.0203],
    [19561,1537398111,53.3669,-110.0174,900.6,266.6,253.9,4.1,-0.6,9.5,37.03,1.9512,394.4869],
    [19562,1537398112,53.3667,-110.0184,901.0,267.0,255.2,3.8,-0.6,10.28,36.63,1.9491,392.5141],
    [19563,1537398113,53.3665,-110.0195,901.2,267.2,257.4,3.8,-1.2,10.14,37.61,1.9526,394.644],
    [19564,1537398114,53.3664,-110.0206,901.7,267.7,258.7,3.5,-0.7,9.88,36.89,1.9526,394.644],
    [19565,1537398115,53.3662,-110.0217,902.1,267.1,260.1,3.2,-0.6,10.03,37.6,1.9522,394.377],
    [19566,1537398116,53.3661,-110.0228,902.2,267.2,261.0,2.6,-0.2,10.05,37.39,1.9524,394.377],
    [19567,1537398117,53.366,-110.0239,902.0,267.1,262.7,2.9,-0.7,10.16,37.12,1.95,393.7616],
    [19568,1537398118,53.3659,-110.025,901.7,267.8,264.0,2.8,-1.0,10.11,37.86,1.9492,392.6883],
    [19569,1537398119,53.3659,-110.0261,901.9,268.0,265.6,3.7,-1.8,9.97,38.44,1.9481,394.3185],
    [19570,1537398120,53.3658,-110.0273,901.9,266.9,266.6,4.3,-2.0,9.9,37.81,1.9471,393.4028],
    [19571,1537398121,53.3657,-110.0284,902.4,267.4,267.4,3.9,-2.2,9.45,38.07,1.9476,393.8089],
    [19572,1537398122,53.3657,-110.0295,903.0,267.0,267.4,4.7,-1.6,9.9,37.86,1.9495,394.2062],
    [19573,1537398123,53.3656,-110.0307,902.9,266.9,267.3,4.9,-1.5,10.15,37.6,1.9501,394.9981],
    [19574,1537398124,53.3656,-110.0318,902.5,265.5,268.0,4.5,-1.6,9.72,37.64,1.9534,394.4609],
    [19575,1537398125,53.3656,-110.0329,902.3,264.3,267.9,4.3,-0.9,9.79,37.91,1.9544,393.83],
    [19576,1537398126,53.3655,-110.0341,901.8,262.8,268.7,4.4,-1.1,9.63,37.44,1.9551,393.3561],
    [19577,1537398127,53.3655,-110.0352,901.5,262.5,269.1,5.0,-0.7,9.57,37.47,1.9583,393.0899],
    [19578,1537398128,53.3655,-110.0363,901.5,261.5,269.7,5.0,-0.6,10.13,37.29,1.9894,393.0899],
    [19579,1537398129,53.3655,-110.0374,901.9,261.9,270.1,5.0,-0.4,9.97,37.76,1.9709,392.1051],
    [19580,1537398130,53.3655,-110.0386,902.0,262.0,270.7,4.9,-0.6,10.53,36.65,1.9454,393.0594],
    [19581,1537398131,53.3655,-110.0397,902.2,262.2,271.2,4.8,-0.7,9.96,36.88,1.9406,393.0144],
    [19582,1537398132,53.3655,-110.0408,902.4,261.7,271.6,4.7,-0.8,9.56,36.37,1.9411,392.2479],
    [19583,1537398133,53.3655,-110.042,902.3,261.3,271.9,4.8,-1.0,9.67,36.47,1.9417,390.832],
    [19584,1537398134,53.3655,-110.043,901.9,259.9,271.9,4.8,-0.8,9.66,35.72,1.9402,393.2429],
    [19585,1537398135,53.3656,-110.0442,901.5,258.6,272.0,5.3,-0.8,10.34,35.16,1.9425,390.5178],
    [19586,1537398136,53.3656,-110.0453,901.1,258.2,272.4,5.0,-1.3,9.72,35.57,1.9509,394.4741],
    [19587,1537398137,53.3656,-110.0465,901.0,257.0,273.2,4.3,-2.3,9.86,35.47,1.9537,394.5491],
    [19588,1537398138,53.3656,-110.0476,901.4,257.4,273.0,4.6,-2.1,10.14,35.14,1.9539,394.5491],
    [19589,1537398139,53.3656,-110.0487,902.1,257.4,273.0,4.2,-2.4,10.16,35.05,1.9535,394.1278],
    [19590,1537398140,53.3656,-110.0499,901.8,256.8,273.5,4.0,-3.2,9.82,35.74,1.9597,393.1106],
    [19591,1537398141,53.3657,-110.051,901.2,256.3,272.3,3.9,-2.1,9.67,35.94,1.9626,394.6824],
    [19592,1537398142,53.3657,-110.0521,901.0,255.0,271.9,4.2,-2.3,10.71,35.73,1.9579,394.1055],
    [19593,1537398143,53.3657,-110.0533,900.9,254.9,271.4,4.7,-2.3,9.98,36.77,1.9499,390.6994],
    [19594,1537398144,53.3657,-110.0544,901.0,253.3,271.0,4.4,-2.0,9.75,37.15,1.9492,394.4258],
    [19595,1537398145,53.3657,-110.0555,901.1,252.4,270.5,4.3,-1.4,9.79,36.75,1.9546,394.4258],
    [19596,1537398146,53.3657,-110.0567,901.4,251.4,269.8,4.4,-0.7,9.93,36.37,1.9555,393.7894],
    [19597,1537398147,53.3656,-110.0578,901.5,250.6,270.1,4.2,-1.2,9.83,37.14,1.9554,393.4175],
    [19598,1537398148,53.3656,-110.0589,901.6,249.5,270.1,3.7,-1.1,10.2,35.91,1.957,391.8843],
    [19599,1537398149,53.3656,-110.0601,901.2,247.2,270.4,3.5,-1.4,9.92,36.26,1.9574,391.8843],
    [19600,1537398150,53.3656,-110.0612,900.6,245.6,270.6,3.8,-1.5,9.97,36.17,1.9572,392.4],
    [19601,1537398151,53.3656,-110.0623,900.3,244.6,270.7,3.8,-1.6,10.03,36.41,1.9551,392.6496],
    [19602,1537398152,53.3656,-110.0634,900.2,244.5,270.9,4.1,-1.6,9.6,36.37,1.9575,393.6412],
    [19603,1537398153,53.3656,-110.0646,900.5,243.8,271.1,4.0,-1.8,9.91,36.61,1.9565,394.394],
    [19604,1537398154,53.3656,-110.0657,900.7,243.7,271.0,4.2,-1.6,9.55,36.55,1.9466,393.2758],
    [19605,1537398155,53.3656,-110.0669,901.1,244.1,271.3,4.3,-1.8,9.59,36.29,1.9434,393.7278],
    [19606,1537398156,53.3656,-110.068,901.6,244.6,271.4,4.4,-1.9,9.95,36.57,1.9464,393.4108],
    [19607,1537398157,53.3656,-110.0691,902.0,245.0,271.5,4.4,-1.7,9.59,36.42,1.9476,392.1408],
    [19608,1537398158,53.3656,-110.0703,902.2,246.2,271.1,4.6,-1.4,9.74,36.09,1.948,393.7009],
    [19609,1537398159,53.3656,-110.0714,902.1,247.1,271.3,4.5,-1.7,9.65,36.14,1.9503,393.6463],
    [19610,1537398160,53.3656,-110.0725,901.6,247.6,270.9,4.4,-1.1,9.94,35.9,1.9494,392.7555],
    [19611,1537398161,53.3656,-110.0736,901.1,247.1,270.4,4.8,-0.4,9.58,36.05,1.9479,392.3947],
    [19612,1537398162,53.3656,-110.0748,901.0,246.8,270.5,5.0,-0.8,10.0,35.55,1.9471,393.5699],
    [19613,1537398163,53.3656,-110.0759,901.1,246.1,271.1,5.2,-1.4,9.88,35.97,1.9459,392.352],
    [19614,1537398164,53.3656,-110.0771,901.5,246.5,271.2,5.2,-1.4,9.88,36.62,1.9466,392.352],
    [19615,1537398165,53.3656,-110.0782,901.8,247.8,271.5,5.1,-1.6,10.16,35.91,1.9429,394.4512],
    [19616,1537398166,53.3656,-110.0793,901.5,248.0,271.4,5.1,-1.4,10.28,35.35,1.9406,394.1921],
    [19617,1537398167,53.3656,-110.0804,901.2,248.2,271.2,5.1,-1.1,10.06,35.97,1.9407,394.1117],
    [19618,1537398168,53.3656,-110.0815,901.2,248.2,271.2,5.0,-1.1,10.71,35.15,1.941,393.8246],
    [19619,1537398169,53.3656,-110.0827,901.7,248.7,271.3,4.9,-1.1,10.31,35.42,1.9433,393.3521],
    [19620,1537398170,53.3656,-110.0838,901.9,248.9,271.0,4.5,-0.7,9.54,35.56,1.9427,394.5932],
    [19621,1537398171,53.3656,-110.0849,901.8,248.8,271.0,4.3,-0.8,9.95,35.18,1.9408,393.0801],
    [19622,1537398172,53.3657,-110.086,902.0,250.0,270.8,4.5,-0.6,9.74,35.78,1.9423,393.5122],
    [19623,1537398173,53.3657,-110.0872,901.8,249.8,271.0,4.5,-0.7,10.54,34.66,1.9443,392.8986],
    [19624,1537398174,53.3657,-110.0883,901.4,249.4,271.7,4.5,-1.6,9.87,35.34,1.9477,394.4146],
    [19625,1537398175,53.3657,-110.0894,900.9,249.1,271.7,4.5,-1.5,9.21,35.51,1.946,394.3951],
    [19626,1537398176,53.3657,-110.0905,900.2,249.3,271.8,5.1,-1.7,9.72,35.47,1.9443,393.7238],
    [19627,1537398177,53.3657,-110.0916,900.0,249.0,271.4,4.8,-1.3,9.74,35.4,1.9419,392.9322],
    [19628,1537398178,53.3657,-110.0928,900.3,249.3,270.7,4.8,-0.7,9.85,35.52,1.9403,393.033],
    [19629,1537398179,53.3657,-110.0939,901.0,251.0,270.6,5.6,-0.9,9.7,35.3,1.9418,393.033],
    [19630,1537398180,53.3657,-110.095,901.4,251.4,270.4,5.7,-0.8,10.15,35.33,1.9414,393.5734],
    [19631,1537398181,53.3657,-110.0962,901.4,251.4,270.6,5.4,-1.2,9.98,35.39,1.9425,393.6001],
    [19632,1537398182,53.3657,-110.0973,901.8,251.8,270.8,5.5,-1.4,9.89,35.3,1.9426,393.6054],
    [19633,1537398183,53.3657,-110.0984,902.3,252.5,270.8,5.4,-1.5,10.04,35.33,1.9423,393.6157],
    [19634,1537398184,53.3657,-110.0995,902.7,253.7,271.3,4.8,-2.4,10.3,35.15,1.9437,393.734],
    [19635,1537398185,53.3657,-110.1006,902.5,253.5,270.8,4.4,-1.9,10.0,35.56,1.9444,391.8397],
    [19636,1537398186,53.3657,-110.1017,901.9,252.9,270.0,4.6,-1.2,10.35,34.65,1.9437,392.609],
    [19637,1537398187,53.3657,-110.1029,901.1,252.1,270.9,4.8,-2.6,9.95,36.0,1.9425,394.2629],
    [19638,1537398188,53.3656,-110.1039,900.6,251.6,270.5,4.9,-2.1,9.83,35.56,1.9429,392.5126],
    [19639,1537398189,53.3656,-110.1051,900.5,252.5,270.1,6.2,-1.8,9.91,35.41,1.9428,394.2132],
    [19640,1537398190,53.3656,-110.1062,900.9,252.9,270.3,5.6,-1.9,10.46,35.14,1.9432,393.913],
    [19641,1537398191,53.3656,-110.1073,901.8,253.8,270.1,5.7,-1.5,9.99,35.27,1.9436,392.8548],
    [19642,1537398192,53.3656,-110.1085,902.3,253.6,270.5,5.8,-2.0,9.96,35.16,1.9441,393.84],
    [19643,1537398193,53.3656,-110.1096,901.8,252.8,270.3,5.2,-1.5,9.61,35.56,1.9431,393.2701],
    [19644,1537398194,53.3656,-110.1107,901.5,252.5,269.9,4.6,-0.9,10.0,35.38,1.9443,391.7797],
    [19645,1537398195,53.3656,-110.1118,901.6,252.6,269.5,4.5,-0.4,10.19,35.36,1.9435,393.5925],
    [19646,1537398196,53.3655,-110.1129,901.9,251.9,269.5,4.8,-0.4,9.47,35.54,1.942,393.1248],
    [19647,1537398197,53.3655,-110.1141,901.9,251.9,269.8,4.6,-0.6,9.75,36.23,1.9432,394.6159],
    [19648,1537398198,53.3655,-110.1152,901.4,252.4,269.9,5.0,-0.7,9.91,35.55,1.9415,392.2442],
    [19649,1537398199,53.3655,-110.1163,900.8,251.8,270.3,5.2,-1.1,10.72,35.2,1.9403,392.3186],
    [19650,1537398200,53.3655,-110.1174,900.5,250.4,270.6,5.4,-1.3,9.89,35.75,1.9403,393.6973],
    [19651,1537398201,53.3655,-110.1185,900.6,251.6,270.6,5.5,-1.1,10.75,35.02,1.94,392.3216],
    [19652,1537398202,53.3655,-110.1196,901.3,252.3,270.1,5.7,-0.6,10.31,35.27,1.9409,392.9146],
    [19653,1537398203,53.3655,-110.1208,901.7,253.7,270.4,5.7,-0.7,9.97,36.15,1.9418,393.1618],
    [19654,1537398204,53.3655,-110.1219,901.7,252.7,269.9,5.6,-0.3,10.03,35.46,1.9426,391.5236],
    [19655,1537398205,53.3655,-110.123,901.6,252.6,270.4,6.1,-0.9,10.37,35.24,1.9421,393.3461],
    [19656,1537398206,53.3655,-110.1241,901.4,252.4,270.6,6.3,-1.0,10.19,35.03,1.9425,392.9917],
    [19657,1537398207,53.3655,-110.1252,901.7,251.7,270.6,6.1,-0.9,9.73,35.1,1.9418,393.2787],
    [19658,1537398208,53.3655,-110.1263,902.2,252.2,270.6,5.7,-0.9,9.82,35.32,1.9428,393.5397],
    [19659,1537398209,53.3655,-110.1275,902.3,251.3,270.8,5.5,-1.1,9.92,34.96,1.9425,392.3834],
    [19660,1537398210,53.3655,-110.1286,902.5,250.8,270.8,5.7,-1.2,9.93,36.23,1.9427,393.4941],
    [19661,1537398211,53.3655,-110.1297,902.1,250.1,270.8,5.6,-1.3,10.14,35.2,1.9418,395.1193],
    [19662,1537398212,53.3655,-110.1308,901.7,249.7,270.9,5.4,-1.4,9.38,35.46,1.942,392.4005],
    [19663,1537398213,53.3655,-110.1319,901.3,248.4,270.7,5.7,-1.2,10.08,35.18,1.942,392.8785],
    [19664,1537398214,53.3655,-110.133,901.0,246.0,270.9,5.5,-1.7,9.7,35.48,1.9424,394.6911],
    [19665,1537398215,53.3655,-110.1341,901.1,245.8,270.4,5.3,-1.2,10.15,35.43,1.9415,393.2201],
    [19666,1537398216,53.3655,-110.1353,901.1,245.1,270.2,5.1,-1.0,9.74,35.54,1.9412,394.0893],
    [19667,1537398217,53.3655,-110.1364,900.9,243.9,270.0,4.9,-0.8,9.45,35.4,1.9426,393.208],
    [19668,1537398218,53.3655,-110.1375,900.9,243.9,270.3,4.8,-1.2,10.25,34.77,1.943,393.2966],
    [19669,1537398219,53.3655,-110.1386,900.9,243.9,270.3,4.9,-1.3,10.03,35.33,1.9425,393.2966],
    [19670,1537398220,53.3655,-110.1397,901.1,244.1,270.1,5.1,-0.9,9.78,35.67,1.9416,393.7629],
    [19671,1537398221,53.3654,-110.1408,901.5,245.5,269.8,5.7,-0.6,10.31,35.16,1.9426,393.3242],
    [19672,1537398222,53.3654,-110.1419,902.0,246.0,270.0,5.8,-0.7,9.87,35.56,1.9442,393.3694],
    [19673,1537398223,53.3654,-110.143,902.6,246.6,269.8,5.5,-0.3,9.79,36.03,1.9425,393.4249],
    [19674,1537398224,53.3654,-110.1441,902.7,245.7,269.8,5.7,-0.1,9.73,36.42,1.942,393.7091],
    [19675,1537398225,53.3654,-110.1452,901.8,244.8,270.6,5.7,-1.1,9.3,35.77,1.9423,392.14],
    [19676,1537398226,53.3654,-110.1463,901.1,244.1,271.1,5.2,-1.6,9.71,35.76,1.942,391.9397],
    [19677,1537398227,53.3654,-110.1475,900.9,243.9,271.0,5.2,-1.4,9.65,35.67,1.9421,392.9219],
    [19678,1537398228,53.3654,-110.1485,901.4,244.4,270.5,5.9,-0.8,10.18,35.79,1.9425,394.4745],
    [19679,1537398229,53.3654,-110.1497,901.7,244.7,270.0,5.6,-0.3,9.57,36.32,1.9432,393.6711],
    [19680,1537398230,53.3654,-110.1508,901.4,243.4,270.5,6.0,-1.0,9.9,36.16,1.9427,393.0832],
    [19681,1537398231,53.3654,-110.1519,900.9,242.9,270.5,6.3,-0.8,10.1,35.74,1.9424,393.8867],
    [19682,1537398232,53.3654,-110.153,901.1,242.1,270.6,5.9,-1.0,9.34,35.8,1.9425,393.3869],
    [19683,1537398233,53.3654,-110.1541,901.3,242.3,270.9,5.8,-1.1,9.54,35.7,1.9412,393.3007],
    [19684,1537398234,53.3654,-110.1552,901.4,242.4,271.0,6.1,-1.4,9.41,35.67,1.9436,393.4694],
    [19685,1537398235,53.3654,-110.1563,901.4,242.4,270.9,5.7,-1.2,9.99,36.12,1.9448,392.5068],
    [19686,1537398236,53.3654,-110.1574,901.3,241.3,270.6,5.6,-1.0,9.29,35.6,1.9457,394.2391],
    [19687,1537398237,53.3654,-110.1585,901.2,240.5,270.3,5.6,-0.6,10.34,35.22,1.9442,392.9237],
    [19688,1537398238,53.3654,-110.1596,901.1,240.1,269.9,5.4,-0.4,9.49,35.95,1.9441,390.4924],
    [19689,1537398239,53.3654,-110.1607,900.8,238.8,270.1,5.5,-0.8,9.89,35.76,1.943,392.9797],
    [19690,1537398240,53.3654,-110.1618,900.5,238.5,270.6,5.7,-1.3,10.0,35.61,1.9409,394.1736],
    [19691,1537398241,53.3654,-110.1629,900.6,237.6,270.8,5.9,-1.5,9.93,36.37,1.941,393.9091],
    [19692,1537398242,53.3654,-110.164,901.0,238.0,270.6,5.8,-1.1,9.51,35.67,1.9426,393.6791],
    [19693,1537398243,53.3654,-110.1651,901.3,238.3,270.7,5.9,-1.2,10.72,35.05,1.942,391.724],
    [19694,1537398244,53.3654,-110.1662,901.2,237.2,271.0,5.8,-1.6,9.97,35.86,1.9418,393.307],
    [19695,1537398245,53.3654,-110.1673,901.1,237.1,271.2,5.5,-1.7,9.98,35.95,1.9427,390.4085],
    [19696,1537398246,53.3654,-110.1684,900.8,237.8,271.2,5.7,-1.6,9.96,35.57,1.9428,392.9718],
    [19697,1537398247,53.3654,-110.1695,900.7,237.7,271.2,6.0,-1.6,10.01,35.37,1.9428,393.7416],
    [19698,1537398248,53.3654,-110.1706,900.9,237.9,271.0,6.0,-1.5,9.98,36.13,1.9422,393.3159],
    [19699,1537398249,53.3654,-110.1717,901.7,238.4,270.7,5.5,-1.0,10.53,34.91,1.9468,393.2506],
    [19700,1537398250,53.3654,-110.1728,902.4,238.4,270.4,5.8,-0.7,10.01,35.78,1.9441,393.8772],
    [19701,1537398251,53.3654,-110.1738,902.5,238.5,270.3,6.0,-0.4,10.51,35.29,1.9441,393.2705],
    [19702,1537398252,53.3654,-110.1749,902.2,238.2,270.2,5.7,-0.3,10.62,35.12,1.946,391.9892],
    [19703,1537398253,53.3654,-110.176,901.8,236.8,270.3,5.8,-0.4,10.03,35.62,1.9419,392.8555],
    [19704,1537398254,53.3654,-110.1771,901.4,236.4,271.0,5.7,-1.0,10.7,35.33,1.9418,393.7771],
    [19705,1537398255,53.3654,-110.1782,900.9,235.9,271.4,5.3,-1.4,9.37,35.49,1.9421,393.9826],
    [19706,1537398256,53.3654,-110.1793,900.6,235.6,271.3,5.2,-1.2,10.02,35.51,1.9431,393.9826],
    [19707,1537398257,53.3654,-110.1803,900.5,234.5,270.9,5.0,-0.8,9.69,35.53,1.9422,393.634],
    [19708,1537398258,53.3654,-110.1815,900.3,234.3,271.4,5.0,-1.5,9.56,35.76,1.9424,393.3863],
    [19709,1537398259,53.3654,-110.1826,900.5,234.5,271.3,4.9,-1.4,10.11,35.49,1.9423,393.2216],
    [19710,1537398260,53.3654,-110.1837,900.6,235.6,271.3,5.0,-1.4,10.02,35.56,1.9413,393.117],
    [19711,1537398261,53.3654,-110.1848,900.7,234.7,271.3,4.9,-1.4,10.0,35.69,1.9428,394.4622],
    [19712,1537398262,53.3654,-110.1858,900.5,233.8,271.4,5.2,-1.5,9.71,35.83,1.9425,394.2228],
    [19713,1537398263,53.3654,-110.1869,900.5,233.5,271.3,5.1,-1.3,9.83,35.78,1.9406,392.5431],
    [19714,1537398264,53.3654,-110.188,900.6,234.6,271.3,5.4,-1.4,10.3,35.57,1.9421,391.1463],
    [19715,1537398265,53.3654,-110.1891,900.6,236.7,271.5,5.1,-1.6,10.08,35.6,1.9407,390.2649],
    [19716,1537398266,53.3654,-110.1902,900.5,238.2,271.2,5.3,-1.3,9.73,35.57,1.9399,393.0093],
    [19717,1537398267,53.3654,-110.1913,900.6,238.6,271.1,5.4,-1.2,9.7,35.99,1.9409,393.7125],
    [19718,1537398268,53.3654,-110.1924,900.8,238.8,271.3,5.1,-1.3,9.61,35.6,1.9413,390.9605],
    [19719,1537398269,53.3654,-110.1935,901.0,238.0,271.2,4.7,-1.2,10.02,35.87,1.9418,394.0385],
    [19720,1537398270,53.3654,-110.1946,901.5,238.5,271.0,4.9,-0.7,9.88,35.27,1.9429,393.841],
    [19721,1537398271,53.3655,-110.1957,901.9,238.9,271.2,5.1,-0.9,9.71,35.58,1.9405,391.3081],
    [19722,1537398272,53.3655,-110.1967,902.1,239.1,271.3,5.2,-1.1,9.25,35.42,1.9405,393.1188],
    [19723,1537398273,53.3655,-110.1978,901.9,238.9,271.4,5.5,-1.2,9.81,35.48,1.9433,393.6014],
    [19724,1537398274,53.3655,-110.1989,901.3,238.3,271.7,5.3,-1.5,10.44,34.76,1.9421,392.1776],
    [19725,1537398275,53.3655,-110.2,900.5,236.5,271.4,5.2,-1.1,10.06,35.71,1.9404,394.8461],
    [19726,1537398276,53.3655,-110.2011,900.2,236.2,271.2,5.2,-0.8,9.96,35.27,1.9404,393.7087],
    [19727,1537398277,53.3655,-110.2022,900.5,236.5,271.0,4.8,-0.6,10.26,35.48,1.9401,392.4315],
    [19728,1537398278,53.3655,-110.2033,900.8,237.8,271.2,4.6,-0.7,9.99,35.73,1.9414,392.5314],
    [19729,1537398279,53.3655,-110.2043,900.7,238.7,271.2,4.2,-0.4,9.65,36.02,1.9432,391.6798],
    [19730,1537398280,53.3655,-110.2055,900.1,239.1,271.6,4.3,-0.8,10.16,35.36,1.9428,393.5203],
    [19731,1537398281,53.3655,-110.2065,899.9,238.9,271.8,4.4,-1.0,10.39,34.94,1.9423,392.0591],
    [19732,1537398282,53.3655,-110.2076,900.2,239.2,271.7,4.2,-0.8,9.9,35.38,1.9415,391.1856],
    [19733,1537398283,53.3656,-110.2087,900.6,239.6,271.7,3.9,-0.7,9.93,35.8,1.9404,391.4459],
    [19734,1537398284,53.3656,-110.2098,900.8,238.7,271.3,3.7,-0.1,9.94,36.2,1.9412,393.1848],
    [19735,1537398285,53.3656,-110.2109,900.9,239.9,271.0,3.4,0.2,10.1,35.38,1.942,393.1133],
    [19736,1537398286,53.3656,-110.212,900.7,240.7,271.1,3.0,0.0,10.41,34.75,1.9425,392.4227],
    [19737,1537398287,53.3656,-110.2131,900.1,240.1,271.4,3.1,-0.3,10.09,35.52,1.9456,393.4653],
    [19738,1537398288,53.3656,-110.2141,900.0,240.0,271.1,3.2,-0.1,9.43,35.34,1.9477,393.2437],
    [19739,1537398289,53.3656,-110.2153,900.2,239.5,271.3,3.3,-0.4,9.82,35.84,1.9479,393.4225],
    [19740,1537398290,53.3657,-110.2163,900.7,239.7,271.4,3.0,-0.4,10.51,35.38,1.9471,392.4397],
    [19741,1537398291,53.3657,-110.2174,901.2,240.2,271.4,3.4,-0.5,9.58,35.77,1.9554,393.4733],
    [19742,1537398292,53.3657,-110.2186,901.1,240.1,272.3,4.3,-1.6,9.84,36.31,1.9574,393.5931],
    [19743,1537398293,53.3657,-110.2197,900.4,239.4,272.3,4.0,-1.6,9.98,35.83,1.951,393.8525],
    [19744,1537398294,53.3657,-110.2208,900.4,239.4,272.2,4.2,-1.6,10.73,35.61,1.9462,393.5036],
    [19745,1537398295,53.3657,-110.2218,900.8,240.8,272.1,3.4,-1.4,9.83,36.11,1.9464,393.7988],
    [19746,1537398296,53.3657,-110.223,900.9,240.9,271.7,2.9,-1.1,9.76,36.16,1.9463,393.7819],
    [19747,1537398297,53.3657,-110.2241,900.6,240.9,271.7,2.8,-1.1,10.46,36.37,1.9461,393.5185],
    [19748,1537398298,53.3658,-110.2252,900.7,240.1,271.7,3.3,-1.2,9.81,36.41,1.9516,393.9623],
    [19749,1537398299,53.3658,-110.2263,901.0,239.3,271.7,3.7,-1.2,9.95,36.72,1.9627,393.0338],
    [19750,1537398300,53.3658,-110.2274,901.2,239.4,271.2,3.2,-0.6,9.96,36.7,1.9634,394.0764],
    [19751,1537398301,53.3658,-110.2285,901.6,239.7,271.3,3.1,-0.6,9.89,36.54,1.9626,393.752],
    [19752,1537398302,53.3658,-110.2297,901.7,239.8,271.5,2.8,-0.7,9.9,36.95,1.9595,392.5972],
    [19753,1537398303,53.3658,-110.2308,901.1,238.4,271.1,2.9,-0.1,9.75,36.82,1.9511,392.5473],
    [19754,1537398304,53.3658,-110.2319,900.6,237.1,271.2,2.9,-0.2,9.81,37.12,1.9566,392.8415],
    [19755,1537398305,53.3658,-110.233,901.0,237.0,271.1,2.5,0.1,10.79,36.3,1.9566,392.4822],
    [19756,1537398306,53.3658,-110.2341,901.4,236.3,271.4,2.7,-0.3,10.05,36.55,1.9577,392.8984],
    [19757,1537398307,53.3659,-110.2353,901.0,233.3,272.1,3.3,-0.9,9.88,37.22,1.9558,393.1708],
    [19758,1537398308,53.3659,-110.2364,901.0,232.0,271.6,3.1,-0.3,9.94,37.5,1.9489,393.1708],
    [19759,1537398309,53.3659,-110.2375,901.3,230.3,271.6,2.4,-0.2,10.24,36.77,1.9468,392.5132],
    [19760,1537398310,53.3659,-110.2386,901.4,230.4,271.7,2.4,-0.5,9.89,37.03,1.9476,393.9072],
    [19761,1537398311,53.3659,-110.2398,900.6,230.7,272.3,3.0,-1.0,9.54,36.83,1.9483,393.4744],
    [19762,1537398312,53.3659,-110.2409,900.7,231.8,271.5,3.8,0.0,10.03,37.61,1.9414,393.908],
    [19763,1537398313,53.366,-110.242,901.7,232.7,271.6,3.2,-0.2,9.89,36.98,1.9416,394.1562],
    [19764,1537398314,53.366,-110.2431,901.9,231.9,271.7,3.6,-0.3,9.97,37.28,1.9423,391.9893],
    [19765,1537398315,53.366,-110.2443,902.0,233.0,272.1,3.6,-1.1,9.98,37.16,1.9435,392.2625],
    [19766,1537398316,53.366,-110.2454,901.7,232.7,272.1,3.0,-1.0,9.71,37.26,1.945,391.0743],
    [19767,1537398317,53.366,-110.2466,901.7,232.4,271.5,3.6,-0.9,10.37,36.05,1.9453,391.5169],
    [19768,1537398318,53.366,-110.2477,901.8,232.0,271.2,4.4,-0.8,10.0,36.46,1.9404,393.2348],
    [19769,1537398319,53.366,-110.2489,901.7,232.0,270.7,4.6,-0.6,10.77,36.29,1.939,393.8069],
    [19770,1537398320,53.3661,-110.25,901.4,232.4,270.7,4.7,-0.8,10.15,36.83,1.9388,393.8069],
    [19771,1537398321,53.3661,-110.2511,901.4,232.1,270.5,4.7,-0.4,10.3,36.34,1.9388,392.6391],
    [19772,1537398322,53.3661,-110.2522,902.0,231.9,270.3,5.0,-0.2,9.77,36.55,1.9383,392.8358],
    [19773,1537398323,53.3661,-110.2534,902.4,231.5,270.5,5.4,-0.4,9.81,35.53,1.9381,392.7309],
    [19774,1537398324,53.3661,-110.2545,902.4,230.5,270.3,5.7,0.0,9.98,36.23,1.9392,393.276],
    [19775,1537398325,53.3661,-110.2557,902.4,229.3,270.5,5.8,-0.2,10.08,36.09,1.939,393.6843],
    [19776,1537398326,53.3661,-110.2568,902.2,228.1,270.8,5.7,-0.6,10.78,35.28,1.9406,393.1602],
    [19777,1537398327,53.3661,-110.2579,902.2,227.9,271.5,5.6,-1.5,10.35,35.35,1.9398,393.2655],
    [19778,1537398328,53.3661,-110.2591,902.2,227.9,271.1,5.4,-0.9,9.69,35.28,1.9389,393.2655],
    [19779,1537398329,53.3661,-110.2602,902.0,228.0,270.8,5.4,-0.6,10.21,34.67,1.9382,392.653],
    [19780,1537398330,53.3661,-110.2613,901.8,227.9,270.4,5.2,-0.1,9.53,35.04,1.9383,391.0478],
    [19781,1537398331,53.3661,-110.2624,901.6,226.4,270.7,5.3,-0.6,9.84,35.1,1.9399,392.9608],
    [19782,1537398332,53.3661,-110.2636,901.1,226.1,270.8,5.3,-0.6,9.9,35.49,1.94,393.0101],
    [19783,1537398333,53.3661,-110.2647,900.8,224.8,270.7,5.2,-0.5,9.99,34.69,1.9402,392.7238],
    [19784,1537398334,53.3661,-110.2658,900.5,223.5,270.5,4.9,-0.1,10.1,34.98,1.9397,392.9246],
    [19785,1537398335,53.3661,-110.267,900.4,222.4,270.2,5.0,0.2,10.76,34.82,1.9398,393.4654],
    [19786,1537398336,53.3661,-110.2681,900.4,221.4,270.2,5.6,0.3,10.1,35.27,1.9398,392.8996],
    [19787,1537398337,53.3661,-110.2692,900.4,220.4,270.2,5.8,0.2,9.47,34.79,1.9401,393.7137],
    [19788,1537398338,53.3661,-110.2703,900.6,219.6,270.6,5.6,-0.2,10.5,34.23,1.9408,393.1389],
    [19789,1537398339,53.3661,-110.2714,900.8,218.5,270.4,5.6,0.1,9.92,34.95,1.9411,393.6783],
    [19790,1537398340,53.3661,-110.2725,901.0,217.1,270.6,6.1,0.0,9.69,34.94,1.9407,393.3285],
    [19791,1537398341,53.3661,-110.2737,901.1,215.1,270.6,5.3,0.2,10.11,34.45,1.9404,393.1591],
    [19792,1537398342,53.3662,-110.2746,901.1,213.1,270.4,5.4,0.4,9.68,34.8,1.9396,393.4324],
    [19793,1537398343,53.3662,-110.2758,900.9,210.9,271.2,5.1,-0.4,10.42,34.69,1.9391,393.0523],
    [19794,1537398344,53.3662,-110.277,900.7,209.7,270.8,4.7,0.1,10.18,34.67,1.9395,393.5586],
    [19795,1537398345,53.3662,-110.2781,900.4,208.1,270.9,5.4,-0.2,10.41,34.75,1.9397,392.9463],
    [19796,1537398346,53.3662,-110.2792,900.2,206.2,271.4,5.6,-0.8,9.75,34.88,1.9406,394.0449],
    [19797,1537398347,53.3662,-110.2803,900.7,205.7,271.1,5.5,-0.4,10.18,34.93,1.9397,393.4598],
    [19798,1537398348,53.3662,-110.2814,901.0,204.7,271.1,5.6,-0.5,10.85,34.41,1.9387,392.8206],
    [19799,1537398349,53.3662,-110.2823,900.9,203.9,270.8,5.8,-0.4,10.61,34.2,1.9401,393.422],
    [19800,1537398350,53.3662,-110.2836,901.1,203.1,270.4,5.2,-0.3,9.99,34.76,1.939,392.276],
    [19801,1537398351,53.3662,-110.2847,901.4,202.3,270.7,5.4,-0.6,9.66,34.71,1.9397,393.0159],
    [19802,1537398352,53.3662,-110.2858,901.0,202.0,270.2,6.0,-0.1,9.56,34.9,1.9393,393.8306],
    [19803,1537398353,53.3662,-110.2869,900.2,201.2,270.6,5.8,-0.6,10.03,34.93,1.9394,392.1743],
    [19804,1537398354,53.3662,-110.288,899.9,201.9,270.7,5.2,-0.7,10.08,34.48,1.9401,393.9963],
    [19805,1537398355,53.3662,-110.2891,900.4,202.4,271.0,4.7,-1.1,9.57,34.9,1.9391,392.9782],
    [19806,1537398356,53.3662,-110.2902,901.0,203.0,271.0,4.9,-1.2,10.39,34.46,1.9401,393.1043],
    [19807,1537398357,53.3662,-110.2913,900.6,202.6,270.8,4.9,-0.9,10.49,34.65,1.94,393.2646],
    [19808,1537398358,53.3662,-110.2924,900.7,203.7,270.6,4.7,-0.9,10.01,35.04,1.9396,392.0181],
    [19809,1537398359,53.3662,-110.2935,900.8,203.8,270.8,5.2,-1.2,9.61,35.14,1.9395,391.9037],
    [19810,1537398360,53.3662,-110.2946,900.4,203.4,270.5,5.1,-1.0,9.29,35.0,1.9398,393.261],
    [19811,1537398361,53.3662,-110.2957,899.9,203.9,270.4,4.7,-1.0,9.81,35.15,1.9398,394.1478],
    [19812,1537398362,53.3662,-110.2968,900.1,205.1,269.9,5.0,-0.4,10.12,35.21,1.9397,392.1918],
    [19813,1537398363,53.3662,-110.2979,900.6,205.6,269.7,5.2,-0.1,10.79,35.02,1.9395,393.4993],
    [19814,1537398364,53.3662,-110.299,900.7,205.7,269.7,5.0,0.1,10.23,35.03,1.9396,392.9964],
    [19815,1537398365,53.3662,-110.3001,900.6,205.7,269.8,5.4,0.1,10.15,35.36,1.9395,392.9997],
    [19816,1537398366,53.3662,-110.3011,900.7,204.7,270.0,5.2,0.0,10.34,35.84,1.9388,393.3616],
    [19817,1537398367,53.3662,-110.3023,900.7,205.7,270.3,5.2,0.0,9.94,35.48,1.9391,393.3164],
    [19818,1537398368,53.3662,-110.3034,900.7,206.7,270.3,5.3,0.2,9.6,35.34,1.9397,393.3164],
    [19819,1537398369,53.3662,-110.3044,900.8,206.8,270.4,4.4,0.2,9.8,35.14,1.9413,393.2734],
    [19820,1537398370,53.3662,-110.3055,901.2,207.2,270.2,4.7,0.6,10.06,35.38,1.9408,392.9814],
    [19821,1537398371,53.3663,-110.3066,901.3,207.3,270.3,4.2,0.4,10.03,35.61,1.94,393.4736],
    [19822,1537398372,53.3663,-110.3077,900.5,206.5,270.6,4.5,0.1,9.95,35.45,1.9403,393.8622],
    [19823,1537398373,53.3663,-110.3088,899.7,206.7,270.6,4.3,-0.1,10.5,35.43,1.9391,393.7442],
    [19824,1537398374,53.3663,-110.3099,899.1,206.1,271.0,4.1,-0.5,9.85,35.5,1.9397,392.8572],
    [19825,1537398375,53.3663,-110.311,899.0,206.0,270.7,4.2,-0.1,10.52,35.14,1.94,393.7993],
    [19826,1537398376,53.3663,-110.3121,899.2,205.2,270.6,4.3,0.0,10.0,35.68,1.9396,392.8474],
    [19827,1537398377,53.3663,-110.3132,899.7,205.7,270.5,4.2,0.1,10.33,34.64,1.9392,392.9108],
    [19828,1537398378,53.3663,-110.3143,900.0,207.0,270.6,4.3,-0.1,9.9,35.92,1.939,392.9108],
    [19829,1537398379,53.3663,-110.3154,900.1,207.1,270.4,4.5,0.2,10.01,35.18,1.9393,393.6727],
    [19830,1537398380,53.3663,-110.3165,900.2,208.2,270.5,5.3,0.0,10.25,34.78,1.9392,391.8945],
    [19831,1537398381,53.3663,-110.3176,900.5,209.2,270.4,5.1,0.4,9.98,35.06,1.94,394.439],
    [19832,1537398382,53.3663,-110.3187,901.3,210.3,269.7,4.4,1.1,10.77,35.08,1.9402,392.2986],
    [19833,1537398383,53.3663,-110.3198,901.5,212.6,270.5,4.3,0.2,10.41,34.96,1.9398,392.5379],
    [19834,1537398384,53.3663,-110.3208,901.2,213.1,270.7,4.2,0.2,9.98,35.52,1.9394,392.3871],
    [19835,1537398385,53.3664,-110.3219,901.4,216.4,270.5,4.3,0.4,9.66,35.38,1.9405,392.3871],
    [19836,1537398386,53.3664,-110.323,901.7,217.7,270.9,4.4,0.0,10.46,35.74,1.9405,391.6557],
    [19837,1537398387,53.3664,-110.3241,901.8,219.7,271.2,4.2,-0.4,10.25,35.07,1.9408,393.6069],
    [19838,1537398388,53.3664,-110.3252,901.1,220.8,271.8,4.3,-1.2,10.05,36.11,1.9406,392.3046],
    [19839,1537398389,53.3664,-110.3263,900.5,221.2,271.6,4.2,-1.0,9.52,35.71,1.9402,394.3847],
    [19840,1537398390,53.3664,-110.3274,900.5,224.2,270.9,4.4,-0.3,9.82,35.79,1.9394,393.0669],
    [19841,1537398391,53.3664,-110.3284,900.7,227.6,269.8,4.2,0.8,10.05,36.04,1.939,393.1831],
    [19842,1537398392,53.3664,-110.3296,900.6,230.6,269.8,4.3,0.7,9.81,35.78,1.9399,393.3471],
    [19843,1537398393,53.3664,-110.3307,900.4,232.7,270.2,4.3,0.0,9.98,35.6,1.9408,392.3132],
    [19844,1537398394,53.3664,-110.3318,900.1,232.8,270.4,4.6,-0.1,10.04,36.36,1.9407,392.4875],
    [19845,1537398395,53.3664,-110.3329,900.5,235.1,269.6,4.8,0.7,10.7,35.14,1.9411,392.4515],
    [19846,1537398396,53.3664,-110.334,900.9,238.1,270.1,4.8,0.2,10.38,36.24,1.9399,393.7955],
    [19847,1537398397,53.3664,-110.3351,901.1,241.8,270.2,4.9,0.1,10.28,35.6,1.9391,393.9853],
    [19848,1537398398,53.3664,-110.3362,901.2,241.5,270.3,5.0,0.0,10.0,35.71,1.9384,392.8849],
    [19849,1537398399,53.3664,-110.3373,901.3,241.4,270.4,4.7,-0.1,10.41,35.32,1.9398,393.3521],
    [19850,1537398400,53.3664,-110.3384,901.1,241.8,270.6,4.5,-0.2,9.68,35.87,1.9394,392.4041],
    [19851,1537398401,53.3665,-110.3395,900.6,241.5,270.7,4.2,-0.3,10.01,35.7,1.9391,392.354],
    [19852,1537398402,53.3665,-110.3406,900.1,241.9,270.9,4.2,-0.6,9.87,35.7,1.941,391.3051],
    [19853,1537398403,53.3665,-110.3417,899.6,241.6,271.1,4.6,-1.0,9.71,35.78,1.9406,393.844],
    [19854,1537398404,53.3665,-110.3428,900.0,241.9,270.7,4.6,-0.7,10.24,35.36,1.9407,393.2791],
    [19855,1537398405,53.3665,-110.3439,900.6,243.6,270.8,4.3,-0.9,10.17,35.8,1.9409,394.0539],
    [19856,1537398406,53.3665,-110.345,900.7,244.7,271.0,3.8,-1.2,10.6,35.18,1.9419,394.0539],
    [19857,1537398407,53.3665,-110.3461,900.6,246.3,270.7,3.9,-1.0,10.04,35.64,1.9393,392.8626],
    [19858,1537398408,53.3665,-110.3472,900.6,246.7,270.5,3.8,-0.9,10.15,34.97,1.9398,392.6104],
    [19859,1537398409,53.3665,-110.3483,900.7,245.7,270.3,3.6,-0.7,10.04,35.65,1.9395,393.1283],
    [19860,1537398410,53.3665,-110.3494,900.6,245.7,269.8,3.6,-0.1,9.78,35.76,1.9391,393.637],
    [19861,1537398411,53.3665,-110.3505,900.5,244.5,269.6,3.9,0.0,9.97,35.45,1.9393,392.3124],
    [19862,1537398412,53.3665,-110.3515,900.9,243.9,269.7,4.2,-0.2,9.8,35.55,1.9395,393.7483],
    [19863,1537398413,53.3664,-110.3527,901.3,243.3,269.8,3.8,-0.2,9.94,35.22,1.9409,392.1936],
    [19864,1537398414,53.3664,-110.3538,901.2,242.9,269.8,3.3,0.1,10.46,35.04,1.9399,392.1936],
    [19865,1537398415,53.3664,-110.3549,901.0,242.8,269.6,4.1,0.4,9.69,35.35,1.9419,393.121],
    [19866,1537398416,53.3664,-110.356,900.4,242.3,270.5,4.0,-0.7,10.61,35.38,1.9413,393.121],
    [19867,1537398417,53.3664,-110.3571,899.7,241.7,270.0,3.7,0.1,9.86,35.58,1.9405,393.5884],
    [19868,1537398418,53.3664,-110.3582,899.6,242.3,269.2,3.2,0.8,9.96,35.24,1.9396,391.7694],
    [19869,1537398419,53.3664,-110.3593,899.9,241.8,269.3,4.0,0.6,9.97,35.37,1.9396,392.0151],
    [19870,1537398420,53.3664,-110.3604,899.8,242.5,269.7,4.2,0.4,9.86,35.96,1.9406,393.9977],
    [19871,1537398421,53.3664,-110.3615,899.7,242.4,269.9,4.5,0.2,10.57,35.25,1.9409,392.8255],
    [19872,1537398422,53.3664,-110.3626,899.6,242.4,269.9,4.3,0.4,9.38,35.47,1.9413,392.8255],
    [19873,1537398423,53.3664,-110.3637,899.8,242.6,270.0,4.3,0.3,10.07,35.29,1.9397,394.7693],
    [19874,1537398424,53.3664,-110.3647,900.4,243.1,270.1,4.7,0.2,10.1,36.19,1.9401,393.6189],
    [19875,1537398425,53.3664,-110.3658,901.2,243.2,270.1,4.6,0.4,10.29,35.47,1.941,393.0111],
    [19876,1537398426,53.3665,-110.3669,901.7,244.7,270.2,4.1,0.2,10.01,36.0,1.9425,393.4334],
    [19877,1537398427,53.3665,-110.368,901.0,244.0,270.3,3.3,0.3,9.99,35.7,1.9417,393.5126],
    [19878,1537398428,53.3665,-110.3691,900.0,243.0,270.3,3.7,0.3,10.0,36.14,1.9412,393.6707],
    [19879,1537398429,53.3665,-110.3702,899.9,241.9,270.1,3.9,0.3,10.02,35.97,1.942,393.6707],
    [19880,1537398430,53.3665,-110.3713,900.3,241.4,269.9,3.8,0.4,9.93,35.94,1.9397,389.3238],
    [19881,1537398431,53.3665,-110.3724,900.2,240.1,270.1,3.7,0.1,10.09,36.27,1.9394,389.3238],
    [19882,1537398432,53.3665,-110.3735,900.0,239.2,270.3,3.8,-0.2,10.37,35.79,1.9416,392.6943],
    [19883,1537398433,53.3665,-110.3746,900.3,238.3,270.6,4.1,-0.7,9.92,36.37,1.9399,392.6943],
    [19884,1537398434,53.3665,-110.3757,900.9,237.9,270.6,3.5,-0.6,10.77,35.36,1.9395,393.4541],
    [19885,1537398435,53.3665,-110.3768,900.7,237.7,270.8,3.5,-0.8,9.87,35.58,1.9402,392.4528],
    [19886,1537398436,53.3665,-110.3779,900.3,236.3,271.1,3.6,-1.3,9.49,35.88,1.9409,392.4528],
    [19887,1537398437,53.3665,-110.379,900.7,236.7,270.8,3.2,-1.1,10.0,35.65,1.9414,393.6299],
    [19888,1537398438,53.3665,-110.3801,901.1,238.1,270.5,3.5,-1.0,9.98,35.93,1.9419,394.9413],
    [19889,1537398439,53.3665,-110.3812,900.8,237.8,270.1,3.6,-0.9,10.08,35.77,1.9405,394.3339],
    [19890,1537398440,53.3665,-110.3823,900.6,237.6,269.6,3.6,-0.5,9.88,36.17,1.9396,393.5442],
    [19891,1537398441,53.3665,-110.3834,900.9,236.9,269.4,3.6,-0.6,10.12,35.64,1.9399,393.253],
    [19892,1537398442,53.3664,-110.3845,900.5,236.5,270.1,3.6,-1.4,10.06,35.85,1.9396,393.774],
    [19893,1537398443,53.3664,-110.3856,900.2,236.2,270.1,3.3,-1.4,10.07,36.37,1.9393,393.7105],
    [19894,1537398444,53.3664,-110.3867,900.3,236.6,270.0,3.3,-1.1,10.45,35.79,1.9425,393.4727],
    [19895,1537398445,53.3664,-110.3878,900.3,237.3,270.0,4.2,-1.0,9.92,36.63,1.9403,393.2332],
    [19896,1537398446,53.3664,-110.3888,900.5,239.7,269.8,3.5,-0.7,9.92,36.89,1.9392,393.064],
    [19897,1537398447,53.3664,-110.39,900.7,241.2,269.7,3.2,-1.2,10.32,35.52,1.9417,393.5192],
    [19898,1537398448,53.3664,-110.391,901.1,242.1,271.3,2.9,-3.0,9.45,36.12,1.9408,392.9272],
    [19899,1537398449,53.3664,-110.3922,901.5,242.5,270.4,3.0,-1.8,10.23,35.77,1.9397,393.2542],
    [19900,1537398450,53.3664,-110.3933,901.2,242.2,270.2,2.7,-1.5,9.57,36.07,1.9401,392.8864],
    [19901,1537398451,53.3663,-110.3944,900.7,241.7,268.5,2.2,0.8,10.4,35.49,1.9405,393.9695],
    [19902,1537398452,53.3663,-110.3955,901.0,241.0,267.8,3.7,1.4,9.8,36.37,1.9401,393.9695],
    [19903,1537398453,53.3663,-110.3966,901.1,240.1,268.9,4.1,0.5,9.98,36.2,1.9396,391.7603],
    [19904,1537398454,53.3663,-110.3977,901.1,239.1,269.3,3.0,0.4,9.95,36.72,1.9386,393.3693],
    [19905,1537398455,53.3663,-110.3988,901.5,239.5,269.4,2.5,0.5,10.07,35.74,1.9404,393.2197],
    [19906,1537398456,53.3663,-110.3999,901.9,240.0,270.1,3.7,0.0,10.0,36.73,1.9398,393.5753],
    [19907,1537398457,53.3663,-110.401,902.0,239.0,270.2,4.3,0.3,10.0,36.46,1.9408,393.3167],
    [19908,1537398458,53.3663,-110.4021,901.9,238.9,269.8,4.9,0.6,9.4,36.23,1.9389,393.694],
    [19909,1537398459,53.3663,-110.4033,901.7,237.7,270.9,4.5,-1.0,10.15,36.74,1.9392,394.1087],
    [19910,1537398460,53.3663,-110.4043,901.1,237.1,270.7,3.7,-0.7,10.16,35.72,1.9394,393.8855],
    [19911,1537398461,53.3663,-110.4055,900.5,236.5,270.0,3.7,0.2,10.08,35.69,1.9397,393.0102],
    [19912,1537398462,53.3663,-110.4066,900.8,237.8,270.0,3.4,0.4,10.07,36.77,1.94,393.5886],
    [19913,1537398463,53.3663,-110.4077,901.2,238.3,270.4,3.9,0.0,9.76,36.23,1.9399,394.6428],
    [19914,1537398464,53.3663,-110.4088,901.6,237.6,270.8,4.6,-0.3,10.17,35.97,1.9407,392.8346],
    [19915,1537398465,53.3663,-110.4099,901.9,236.6,270.8,5.2,-0.2,9.53,36.41,1.9399,393.0246],
    [19916,1537398466,53.3664,-110.411,902.0,236.0,270.8,4.8,-0.3,10.11,35.87,1.9415,392.7629],
    [19917,1537398467,53.3664,-110.4122,901.7,235.7,271.0,4.4,-0.8,10.46,35.43,1.9418,393.3903],
    [19918,1537398468,53.3664,-110.4132,901.5,236.5,270.7,4.2,-0.8,10.42,35.64,1.9406,393.2533],
    [19919,1537398469,53.3664,-110.4144,901.6,236.6,270.5,4.9,-0.9,10.04,35.78,1.9404,392.196],
    [19920,1537398470,53.3664,-110.4155,901.6,237.6,270.1,4.8,-0.6,9.99,36.82,1.9408,391.9989],
    [19921,1537398471,53.3664,-110.4166,901.6,238.6,270.0,4.5,-0.6,10.02,36.15,1.9407,391.8071],
    [19922,1537398472,53.3663,-110.4177,901.4,238.4,270.3,4.1,-1.0,10.18,35.64,1.9415,393.805],
    [19923,1537398473,53.3663,-110.4188,901.5,238.5,269.7,4.3,-0.4,10.25,35.64,1.9403,393.805],
    [19924,1537398474,53.3663,-110.42,901.5,239.5,270.0,4.8,-1.0,9.8,36.07,1.9403,393.0597],
    [19925,1537398475,53.3663,-110.4211,901.4,240.3,270.0,4.2,-1.1,10.12,36.36,1.9395,393.5243],
    [19926,1537398476,53.3663,-110.4222,901.2,241.2,270.2,4.6,-1.5,10.07,35.9,1.9395,392.4141],
    [19927,1537398477,53.3663,-110.4233,900.9,241.9,270.2,4.5,-1.4,9.9,36.15,1.9405,392.7841],
    [19928,1537398478,53.3663,-110.4244,900.7,242.7,269.7,4.5,-1.0,9.74,36.04,1.9407,389.6862],
    [19929,1537398479,53.3663,-110.4255,900.5,242.5,269.9,4.4,-1.3,9.95,36.0,1.9415,389.6862],
    [19930,1537398480,53.3663,-110.4266,900.7,242.4,269.7,4.2,-1.3,9.57,35.97,1.9413,393.4886],
    [19931,1537398481,53.3662,-110.4277,900.7,241.7,269.6,4.3,-1.3,10.0,36.46,1.9399,392.9327],
    [19932,1537398482,53.3662,-110.4288,900.4,241.4,269.9,4.6,-1.9,9.79,35.96,1.9404,392.9327],
    [19933,1537398483,53.3662,-110.43,900.8,243.1,269.8,4.5,-1.8,9.96,35.95,1.9404,392.4704],
    [19934,1537398484,53.3662,-110.431,901.3,244.3,269.9,4.6,-2.1,9.91,35.84,1.9408,394.2873],
    [19935,1537398485,53.3662,-110.4321,901.6,244.6,269.6,4.5,-1.8,10.34,35.26,1.9408,392.5891],
    [19936,1537398486,53.3662,-110.4333,901.8,244.8,269.4,4.0,-1.6,9.64,36.26,1.9416,393.4935],
    [19937,1537398487,53.3661,-110.4344,901.3,246.0,269.8,4.0,-2.3,10.19,35.4,1.9417,391.9978],
    [19938,1537398488,53.3661,-110.4355,900.7,248.7,270.5,4.0,-3.2,10.23,35.5,1.9426,393.5129],
    [19939,1537398489,53.3661,-110.4366,900.6,250.6,270.7,3.6,-3.4,10.06,36.55,1.9414,392.8506],
    [19940,1537398490,53.3661,-110.4377,901.2,251.8,270.1,3.5,-2.8,9.48,35.86,1.9407,393.241],
    [19941,1537398491,53.366,-110.4389,901.4,249.6,270.1,3.7,-2.9,10.18,35.83,1.9399,393.8699],
    [19942,1537398492,53.366,-110.44,901.0,248.4,270.0,4.0,-2.9,10.16,35.43,1.9407,393.9529],
    [19943,1537398493,53.366,-110.4411,900.6,248.9,270.0,3.9,-2.9,9.79,35.76,1.9402,392.735],
    [19944,1537398494,53.366,-110.4422,900.2,249.6,269.7,3.6,-2.8,10.77,35.52,1.9403,393.3954],
    [19945,1537398495,53.3659,-110.4433,900.2,250.6,269.7,3.5,-2.9,9.85,36.28,1.9382,393.3954],
    [19946,1537398496,53.3659,-110.4444,900.6,252.4,269.3,3.5,-2.5,10.76,35.38,1.9402,393.0416],
    [19947,1537398497,53.3659,-110.4455,900.9,255.2,269.3,3.3,-2.7,10.07,36.33,1.9399,393.3623],
    [19948,1537398498,53.3658,-110.4467,900.9,257.7,269.2,3.3,-2.5,9.36,35.74,1.9386,393.1692],
    [19949,1537398499,53.3658,-110.4478,900.7,257.7,269.2,3.3,-2.4,10.08,35.94,1.9404,393.0594],
    [19950,1537398500,53.3658,-110.4489,900.5,255.4,269.2,3.3,-2.4,9.98,35.54,1.9398,392.5009],
    [19951,1537398501,53.3657,-110.45,900.3,252.1,269.4,3.3,-2.6,10.31,35.07,1.94,394.7805],
    [19952,1537398502,53.3657,-110.4512,900.1,249.2,269.4,4.0,-2.5,9.9,35.39,1.9397,392.4519],
    [19953,1537398503,53.3657,-110.4523,900.3,248.2,269.7,3.9,-2.7,9.73,35.19,1.9396,394.2912],
    [19954,1537398504,53.3657,-110.4534,900.5,250.0,269.6,4.0,-2.5,10.34,35.15,1.9405,393.5352],
    [19955,1537398505,53.3656,-110.4545,900.7,252.7,269.1,3.5,-1.8,10.07,35.46,1.9406,392.9142],
    [19956,1537398506,53.3656,-110.4556,900.7,256.0,269.3,3.1,-2.0,9.9,35.44,1.9419,393.9539],
    [19957,1537398507,53.3656,-110.4568,900.9,260.5,268.8,3.3,-1.4,10.11,36.22,1.9418,392.4126],
    [19958,1537398508,53.3655,-110.4579,901.0,267.0,269.1,3.2,-1.6,10.1,35.59,1.9415,393.2862],
    [19959,1537398509,53.3655,-110.459,901.4,273.8,269.2,3.5,-1.5,10.21,35.44,1.941,392.5522],
    [19960,1537398510,53.3655,-110.4601,901.4,279.0,269.6,3.1,-1.8,9.65,35.77,1.9407,392.1269],
    [19961,1537398511,53.3655,-110.4613,901.1,280.1,269.7,3.7,-1.7,10.24,35.54,1.939,392.6735],
    [19962,1537398512,53.3655,-110.4624,900.8,279.8,269.6,3.3,-1.5,9.9,35.76,1.9417,393.3251],
    [19963,1537398513,53.3654,-110.4635,900.6,278.6,269.6,3.2,-1.3,10.22,36.0,1.9397,393.3989],
    [19964,1537398514,53.3654,-110.4646,900.5,279.5,270.0,3.1,-1.7,10.4,35.11,1.9389,392.6001],
    [19965,1537398515,53.3654,-110.4658,900.3,279.0,270.2,3.3,-1.7,9.93,35.69,1.9407,392.6955],
    [19966,1537398516,53.3654,-110.4669,900.2,278.2,269.9,3.6,-1.1,9.5,35.76,1.9391,392.7433],
    [19967,1537398517,53.3654,-110.468,900.5,278.5,269.8,3.8,-1.0,10.47,35.18,1.939,391.7735],
    [19968,1537398518,53.3654,-110.4691,900.9,278.9,269.6,3.5,-0.8,9.92,35.75,1.9404,391.7735],
    [19969,1537398519,53.3654,-110.4703,901.3,280.3,269.4,3.8,-0.6,9.99,36.52,1.9395,392.8466],
    [19970,1537398520,53.3654,-110.4714,901.8,278.7,269.9,3.8,-1.1,10.29,35.52,1.9405,391.9061],
    [19971,1537398521,53.3653,-110.4725,901.7,277.7,270.1,3.8,-1.2,10.26,35.92,1.9405,392.1639],
    [19972,1537398522,53.3653,-110.4736,901.4,277.4,270.0,4.0,-0.9,10.37,36.09,1.9401,393.4242],
    [19973,1537398523,53.3653,-110.4748,901.3,278.2,270.1,4.7,-0.9,10.44,35.54,1.9404,393.2286],
    [19974,1537398524,53.3653,-110.4759,901.4,280.1,270.4,3.9,-1.1,10.07,36.37,1.9419,392.6408],
    [19975,1537398525,53.3653,-110.477,901.4,281.4,270.9,4.5,-1.7,9.86,35.81,1.942,392.8203],
    [19976,1537398526,53.3653,-110.4781,901.6,283.6,271.0,4.5,-1.7,10.13,35.58,1.9408,393.1919],
    [19977,1537398527,53.3653,-110.4792,901.7,286.6,270.9,4.3,-1.6,10.28,35.66,1.9407,394.0899],
    [19978,1537398528,53.3653,-110.4803,901.9,289.9,271.4,3.7,-2.2,10.01,35.9,1.94,393.3],
    [19979,1537398529,53.3653,-110.4815,902.0,292.1,271.5,3.1,-2.2,9.49,35.7,1.9402,392.8846],
    [19980,1537398530,53.3653,-110.4826,902.0,293.0,271.1,3.2,-1.8,10.26,35.36,1.9418,393.47],
    [19981,1537398531,53.3653,-110.4837,901.8,293.8,270.9,3.2,-1.9,10.04,35.98,1.9413,393.206],
    [19982,1537398532,53.3653,-110.4849,901.6,293.6,271.0,3.5,-2.0,10.06,36.19,1.941,393.2473],
    [19983,1537398533,53.3653,-110.486,901.5,293.8,270.7,3.9,-1.6,9.57,35.96,1.9401,392.6173],
    [19984,1537398534,53.3653,-110.4871,900.8,292.8,271.0,3.7,-1.9,9.46,35.9,1.938,392.9402],
    [19985,1537398535,53.3653,-110.4882,900.4,291.4,270.8,3.6,-1.5,10.41,35.73,1.9378,393.6327],
    [19986,1537398536,53.3653,-110.4893,900.4,290.4,271.2,3.6,-1.9,9.93,35.86,1.9384,392.6439],
    [19987,1537398537,53.3653,-110.4904,901.4,292.4,271.3,3.2,-2.1,10.13,35.94,1.9398,392.3965],
    [19988,1537398538,53.3653,-110.4916,902.2,292.1,271.4,3.9,-2.1,10.32,35.27,1.9392,393.2479],
    [19989,1537398539,53.3653,-110.4927,902.2,291.4,271.1,3.9,-1.7,10.02,35.62,1.9403,392.0405],
    [19990,1537398540,53.3653,-110.4938,902.2,289.6,270.7,4.6,-1.1,10.59,34.98,1.9399,392.6617],
    [19991,1537398541,53.3653,-110.4949,902.0,286.8,270.5,3.8,-0.8,10.85,34.93,1.9389,393.0336],
    [19992,1537398542,53.3653,-110.4961,901.6,283.8,270.0,4.0,-0.3,10.71,34.93,1.9404,393.0447],
    [19993,1537398543,53.3653,-110.4972,901.1,280.1,270.7,4.8,-1.1,10.37,35.28,1.9397,393.0447],
    [19994,1537398544,53.3653,-110.4984,901.3,279.3,270.8,4.7,-1.3,10.05,35.78,1.9394,393.5021],
    [19995,1537398545,53.3653,-110.4995,901.5,278.7,271.0,4.7,-1.4,10.23,35.3,1.9395,392.7352],
    [19996,1537398546,53.3653,-110.5006,901.8,279.1,271.1,5.2,-1.6,10.1,35.07,1.9399,391.4937],
    [19997,1537398547,53.3653,-110.5017,902.0,278.8,271.2,4.8,-1.7,10.32,35.35,1.9388,393.4937],
    [19998,1537398548,53.3653,-110.5029,901.9,278.0,271.4,4.8,-2.0,10.39,34.89,1.9397,392.5575],
    [19999,1537398549,53.3653,-110.504,901.7,276.9,271.2,4.3,-1.8,10.6,34.91,1.941,392.3167],
    [20000,1537398550,53.3653,-110.5051,901.7,277.7,270.6,4.2,-1.1,9.98,35.44,1.9414,393.5833],
    [20001,1537398551,53.3652,-110.5062,902.2,278.2,270.5,4.2,-1.1,9.83,35.23,1.9401,394.8356],
    [20002,1537398552,53.3652,-110.5073,902.2,279.2,270.6,4.3,-1.2,10.09,36.11,1.9401,393.3332],
    [20003,1537398553,53.3652,-110.5085,901.7,278.8,270.3,4.1,-1.0,9.73,35.39,1.9395,393.4954],
    [20004,1537398554,53.3652,-110.5096,901.4,277.4,271.2,3.9,-1.8,9.39,35.47,1.9405,392.3389],
    [20005,1537398555,53.3652,-110.5107,901.3,277.2,270.8,4.6,-1.2,9.66,35.43,1.9417,391.9606],
    [20006,1537398556,53.3652,-110.5119,901.3,276.1,271.2,3.6,-1.5,10.53,34.91,1.9408,391.5272],
    [20007,1537398557,53.3652,-110.513,900.7,273.7,270.7,3.3,-0.8,10.08,35.8,1.9395,392.3219],
    [20008,1537398558,53.3652,-110.5141,900.0,271.0,270.8,3.4,-0.9,9.88,35.69,1.9401,393.0672],
    [20009,1537398559,53.3652,-110.5153,899.5,268.4,271.0,3.8,-0.9,9.74,35.72,1.9384,392.1177],
    [20010,1537398560,53.3652,-110.5164,899.5,268.8,271.0,4.2,-0.9,10.43,35.03,1.9385,392.8813],
    [20011,1537398561,53.3653,-110.5175,900.1,270.3,271.3,3.7,-1.1,9.86,35.39,1.9405,393.7357],
    [20012,1537398562,53.3653,-110.5186,900.1,271.1,271.5,4.1,-1.3,10.16,35.88,1.9406,392.4544],
    [20013,1537398563,53.3653,-110.5198,899.8,272.7,271.0,4.3,-0.6,10.01,35.11,1.9391,391.944],
    [20014,1537398564,53.3653,-110.5209,899.8,273.6,270.7,4.4,-0.4,10.02,35.19,1.9384,394.1321],
    [20015,1537398565,53.3653,-110.522,900.6,273.2,270.5,4.3,-0.4,10.14,35.17,1.941,392.918],
    [20016,1537398566,53.3653,-110.5231,901.2,274.2,271.3,4.0,-1.4,10.06,35.16,1.9418,392.2898],
    [20017,1537398567,53.3653,-110.5243,901.4,274.4,271.2,4.0,-1.2,9.9,34.9,1.9415,392.9901],
    [20018,1537398568,53.3653,-110.5254,901.7,274.7,271.2,3.9,-1.0,9.81,35.18,1.941,393.5334],
    [20019,1537398569,53.3653,-110.5265,902.0,272.6,270.8,4.4,-0.4,10.0,35.59,1.9423,392.9228],
    [20020,1537398570,53.3653,-110.5276,901.9,268.1,271.1,4.2,-0.8,10.31,34.69,1.9395,392.9228],
    [20021,1537398571,53.3653,-110.5287,901.0,265.0,271.6,4.3,-1.3,10.07,34.98,1.9415,393.0108],
    [20022,1537398572,53.3653,-110.5299,900.5,263.8,271.7,4.6,-1.3,9.65,35.0,1.9415,392.7134],
    [20023,1537398573,53.3653,-110.531,900.5,265.5,271.8,4.8,-1.6,10.71,34.71,1.9426,392.6965],
    [20024,1537398574,53.3653,-110.5321,900.7,266.7,272.0,4.6,-1.9,10.36,34.93,1.9414,393.8904],
    [20025,1537398575,53.3653,-110.5332,900.9,271.3,271.6,4.5,-1.5,10.07,35.0,1.9408,393.8904],
    [20026,1537398576,53.3653,-110.5344,901.2,275.8,271.4,4.5,-1.4,10.11,35.18,1.9412,393.0153],
    [20027,1537398577,53.3654,-110.5355,900.8,279.8,271.0,4.0,-1.0,10.19,35.32,1.9409,393.8564],
    [20028,1537398578,53.3654,-110.5365,900.3,279.3,270.9,4.2,-1.1,10.04,35.65,1.9402,393.4152],
    [20029,1537398579,53.3654,-110.5377,899.9,279.9,271.1,4.2,-1.3,10.26,34.9,1.9407,391.9643],
    [20030,1537398580,53.3654,-110.5388,899.8,280.8,270.9,3.9,-1.1,10.03,34.93,1.9409,393.1364],
    [20031,1537398581,53.3654,-110.5399,899.7,281.7,271.2,3.7,-1.4,9.85,34.89,1.9404,393.4731],
    [20032,1537398582,53.3654,-110.541,899.6,281.6,271.2,3.5,-1.3,10.12,35.23,1.9406,393.4731],
    [20033,1537398583,53.3654,-110.5421,899.7,281.7,270.7,3.8,-0.7,10.37,34.86,1.9414,393.5034],
    [20034,1537398584,53.3654,-110.5432,899.7,280.7,270.8,3.5,-1.0,9.86,34.84,1.9395,394.0182],
    [20035,1537398585,53.3654,-110.5443,899.9,279.2,270.8,3.7,-0.7,9.79,35.0,1.9408,393.0853],
    [20036,1537398586,53.3654,-110.5454,900.0,278.0,270.6,3.5,-0.3,9.64,35.03,1.9405,392.6904],
    [20037,1537398587,53.3654,-110.5465,900.0,277.0,270.6,3.3,-0.2,10.12,34.96,1.9406,393.6499],
    [20038,1537398588,53.3654,-110.5476,900.2,275.2,271.0,3.4,-0.5,9.75,35.05,1.9398,393.2885],
    [20039,1537398589,53.3654,-110.5487,900.5,273.5,271.8,3.2,-1.2,10.12,34.96,1.9404,393.2885],
    [20040,1537398590,53.3654,-110.5498,901.0,272.6,271.7,3.4,-1.2,10.34,34.73,1.941,393.7676],
    [20041,1537398591,53.3654,-110.5509,901.4,272.4,272.0,3.0,-1.6,10.14,35.56,1.9405,393.4797],
    [20042,1537398592,53.3654,-110.552,901.6,272.6,271.8,3.1,-1.3,10.02,35.55,1.9394,392.5411],
    [20043,1537398593,53.3654,-110.5531,901.6,273.6,271.3,3.1,-0.7,10.24,35.19,1.9393,393.0176],
    [20044,1537398594,53.3654,-110.5542,901.7,276.4,271.2,3.4,-0.7,9.68,35.04,1.9403,392.9378],
    [20045,1537398595,53.3655,-110.5554,901.9,278.9,270.9,3.9,-0.5,10.52,35.23,1.941,392.9069],
    [20046,1537398596,53.3655,-110.5565,902.1,282.1,271.1,3.7,-0.8,10.44,34.49,1.9409,392.6313],
    [20047,1537398597,53.3655,-110.5575,902.6,282.6,271.1,4.0,-0.9,10.3,35.09,1.9418,392.8288],
    [20048,1537398598,53.3655,-110.5587,902.2,282.2,272.1,3.3,-2.3,9.7,35.3,1.9421,393.4509],
    [20049,1537398599,53.3655,-110.5598,901.4,281.4,272.6,2.8,-3.0,9.57,35.39,1.9415,393.6489],
    [20050,1537398600,53.3655,-110.5609,900.5,281.5,273.4,3.4,-4.2,9.92,35.3,1.9421,392.3564],
    [20051,1537398601,53.3655,-110.562,900.3,281.3,273.0,3.1,-3.8,10.04,35.23,1.9426,393.0421],
    [20052,1537398602,53.3655,-110.5631,900.5,282.6,272.9,3.4,-3.9,9.69,35.52,1.9429,391.4533],
    [20053,1537398603,53.3655,-110.5642,900.5,284.6,272.6,4.0,-3.4,9.64,35.63,1.9428,392.8226],
    [20054,1537398604,53.3655,-110.5654,900.8,285.8,271.3,4.1,-2.1,9.76,35.3,1.9415,393.0812],
    [20055,1537398605,53.3655,-110.5665,900.7,286.8,271.7,3.9,-2.9,10.73,35.27,1.9415,393.1862],
    [20056,1537398606,53.3655,-110.5676,900.2,284.2,271.7,3.8,-3.0,10.21,35.96,1.944,392.0577],
    [20057,1537398607,53.3655,-110.5687,900.0,282.0,271.9,3.8,-3.4,9.39,35.3,1.9444,392.3563],
    [20058,1537398608,53.3655,-110.5699,900.3,279.1,271.5,3.9,-2.9,10.01,35.33,1.9449,392.4527],
    [20059,1537398609,53.3655,-110.571,900.8,275.1,271.6,3.9,-2.9,10.09,35.39,1.9459,391.7397],
    [20060,1537398610,53.3654,-110.5721,900.8,272.8,271.9,3.8,-3.2,9.63,35.64,1.9447,391.6396],
    [20061,1537398611,53.3654,-110.5732,900.4,270.4,271.9,3.7,-3.1,9.64,35.33,1.9464,393.385],
    [20062,1537398612,53.3654,-110.5743,900.5,268.5,271.9,4.0,-3.3,10.26,35.14,1.9443,392.7539],
    [20063,1537398613,53.3654,-110.5755,900.8,267.8,272.1,3.9,-3.4,9.88,35.31,1.9444,393.0661],
    [20064,1537398614,53.3654,-110.5766,900.8,265.8,271.9,3.7,-3.2,9.79,35.16,1.9455,392.8649],
    [20065,1537398615,53.3654,-110.5777,900.9,264.9,271.4,3.7,-2.8,9.76,35.03,1.9436,392.9195],
    [20066,1537398616,53.3654,-110.5788,901.0,264.0,271.4,3.6,-2.9,9.94,34.94,1.9438,392.6406],
    [20067,1537398617,53.3654,-110.5799,900.9,262.9,271.1,3.5,-2.4,10.07,35.29,1.9448,393.6115],
    [20068,1537398618,53.3654,-110.5811,900.6,260.9,271.1,3.2,-2.3,10.07,35.87,1.9441,392.3123],
    [20069,1537398619,53.3654,-110.5822,900.0,260.0,270.8,3.6,-1.8,9.77,35.77,1.9437,392.434],
    [20070,1537398620,53.3654,-110.5833,900.2,260.6,271.0,3.5,-1.8,10.33,34.66,1.9449,392.8246],
    [20071,1537398621,53.3654,-110.5844,900.7,262.6,271.2,3.3,-1.7,10.71,34.83,1.9444,393.1328],
    [20072,1537398622,53.3654,-110.5855,900.8,264.8,271.3,3.0,-1.7,10.09,35.12,1.9449,392.501],
    [20073,1537398623,53.3654,-110.5867,901.0,265.0,271.3,4.0,-1.6,9.95,35.54,1.9464,393.7459],
    [20074,1537398624,53.3654,-110.5878,901.2,264.2,271.4,3.3,-1.7,9.46,35.09,1.9484,393.1069],
    [20075,1537398625,53.3654,-110.5889,902.0,264.0,271.7,2.7,-2.2,10.45,34.99,1.9477,393.7194],
    [20076,1537398626,53.3654,-110.59,902.5,264.2,271.7,2.7,-2.3,9.97,35.1,1.9487,393.7194],
    [20077,1537398627,53.3654,-110.5911,902.4,263.4,271.5,3.6,-2.0,10.62,34.71,1.9489,395.1906],
    [20078,1537398628,53.3654,-110.5923,901.8,261.8,271.5,3.2,-2.0,10.23,35.41,1.9483,395.1906],
    [20079,1537398629,53.3654,-110.5934,901.4,260.4,271.5,3.3,-1.9,10.25,35.62,1.9481,392.4787],
    [20080,1537398630,53.3654,-110.5945,900.9,258.9,271.3,3.8,-1.5,10.19,35.68,1.9477,392.7732],
    [20081,1537398631,53.3654,-110.5956,900.7,258.8,271.9,4.0,-2.1,9.89,35.25,1.947,393.6993],
    [20082,1537398632,53.3654,-110.5968,900.9,260.6,272.8,3.6,-2.9,10.45,35.13,1.9466,391.599],
    [20083,1537398633,53.3654,-110.5979,901.5,265.5,272.9,3.4,-2.8,10.02,35.56,1.947,392.4217],
    [20084,1537398634,53.3654,-110.599,901.7,271.1,272.7,3.6,-2.8,10.17,35.35,1.9474,394.2878],
    [20085,1537398635,53.3654,-110.6002,901.7,275.3,272.9,3.3,-3.1,10.05,36.05,1.9468,394.6137],
    [20086,1537398636,53.3654,-110.6012,901.5,278.5,272.3,3.6,-2.5,10.69,35.23,1.9469,393.462],
    [20087,1537398637,53.3654,-110.6024,901.3,281.6,272.4,3.9,-2.7,9.91,35.73,1.9459,393.6615],
    [20088,1537398638,53.3654,-110.6036,901.3,283.3,271.8,3.7,-2.2,10.26,35.62,1.9465,393.6615],
    [20089,1537398639,53.3654,-110.6047,901.6,283.6,271.0,2.9,-1.3,9.91,35.87,1.9473,392.6032],
    [20090,1537398640,53.3654,-110.6057,901.1,281.8,270.6,3.4,-1.0,10.11,35.49,1.9453,392.2118],
    [20091,1537398641,53.3654,-110.6068,900.4,279.4,271.4,3.6,-2.0,9.47,35.77,1.944,392.7573],
    [20092,1537398642,53.3654,-110.608,900.2,279.2,271.7,3.7,-2.2,10.04,36.03,1.9448,392.7573],
    [20093,1537398643,53.3654,-110.6092,900.5,280.5,272.0,3.4,-2.5,10.13,36.22,1.9459,393.4888],
    [20094,1537398644,53.3655,-110.6104,900.9,282.9,271.8,3.5,-2.1,10.11,36.52,1.9449,393.1009],
    [20095,1537398645,53.3655,-110.6115,900.8,283.8,271.8,3.4,-2.0,9.89,35.7,1.945,394.7478],
    [20096,1537398646,53.3655,-110.6127,900.5,285.2,271.7,3.3,-1.8,10.56,35.14,1.9463,393.2887],
    [20097,1537398647,53.3655,-110.6138,900.3,286.3,271.5,3.3,-1.5,10.04,35.65,1.9453,390.7168],
    [20098,1537398648,53.3655,-110.6149,899.8,287.9,271.4,2.8,-1.5,9.9,35.76,1.9454,392.783],
    [20099,1537398649,53.3655,-110.6161,899.6,288.5,271.4,3.0,-1.6,10.9,35.2,1.9446,393.4152],
    [20100,1537398650,53.3655,-110.6172,899.8,290.8,271.8,3.0,-2.2,10.1,35.57,1.9465,392.6417],
    [20101,1537398651,53.3655,-110.6183,900.2,291.2,271.6,2.6,-1.7,10.08,35.34,1.9459,393.0033],
    [20102,1537398652,53.3655,-110.6195,900.0,291.0,270.7,2.7,-0.7,10.11,36.02,1.9465,393.2745],
    [20103,1537398653,53.3655,-110.6206,899.4,290.4,271.5,3.3,-1.3,10.14,35.33,1.9469,392.5779],
    [20104,1537398654,53.3655,-110.6217,899.5,290.5,271.3,3.3,-0.6,10.03,35.68,1.9473,392.4772],
    [20105,1537398655,53.3655,-110.6229,899.8,290.8,272.5,2.8,-1.7,10.82,35.21,1.947,391.9316],
    [20106,1537398656,53.3655,-110.624,900.0,291.0,272.3,2.8,-1.6,10.29,35.68,1.9461,393.2481],
    [20107,1537398657,53.3655,-110.6251,900.0,291.0,271.9,3.3,-1.2,10.3,35.33,1.9471,392.4963],
    [20108,1537398658,53.3655,-110.6262,900.0,290.0,270.8,2.9,0.0,10.12,35.8,1.9478,392.4208],
    [20109,1537398659,53.3656,-110.6274,900.3,290.3,271.0,2.8,-0.6,9.79,35.8,1.9476,391.0686],
    [20110,1537398660,53.3656,-110.6285,900.8,290.8,271.4,3.1,-1.0,10.47,35.48,1.9464,392.7183],
    [20111,1537398661,53.3656,-110.6296,901.4,291.4,271.8,3.5,-1.4,10.73,35.59,1.9452,392.868],
    [20112,1537398662,53.3656,-110.6307,901.2,291.2,271.6,3.5,-1.0,9.94,36.06,1.938,393.7925],
    [20113,1537398663,53.3656,-110.6319,900.8,290.8,271.6,4.0,-1.1,9.47,35.78,1.9371,393.5141],
    [20114,1537398664,53.3656,-110.633,900.8,290.8,271.7,4.1,-1.2,10.05,35.86,1.94,393.9337],
    [20115,1537398665,53.3656,-110.6341,901.1,291.1,272.0,3.9,-1.7,9.8,35.49,1.9426,393.1293],
    [20116,1537398666,53.3656,-110.6352,901.4,291.3,272.0,3.5,-1.7,10.81,35.15,1.941,393.1293],
    [20117,1537398667,53.3656,-110.6363,900.9,291.9,271.9,3.6,-1.6,10.13,35.19,1.9408,393.4555],
    [20118,1537398668,53.3656,-110.6374,900.5,292.0,272.3,3.8,-2.0,10.54,34.8,1.944,393.2354],
    [20119,1537398669,53.3656,-110.6386,900.8,292.8,272.4,3.9,-2.2,10.15,35.28,1.9402,393.9913],
    [20120,1537398670,53.3657,-110.6397,901.5,294.5,271.9,3.8,-1.7,10.14,35.93,1.9406,392.6353],
    [20121,1537398671,53.3657,-110.6408,901.5,294.5,271.6,3.8,-1.5,10.15,35.81,1.9411,392.6353],
    [20122,1537398672,53.3657,-110.6419,901.1,294.1,271.5,3.4,-1.3,9.94,35.13,1.9406,392.6168],
    [20123,1537398673,53.3657,-110.643,900.8,292.8,271.4,3.2,-1.2,10.36,34.68,1.9408,390.4568],
    [20124,1537398674,53.3657,-110.6442,900.7,293.5,271.2,3.0,-0.9,10.03,35.81,1.9406,392.8438],
    [20125,1537398675,53.3657,-110.6453,900.9,293.9,270.8,3.1,-0.2,10.11,35.33,1.9412,393.2043],
    [20126,1537398676,53.3657,-110.6464,900.6,294.3,270.9,3.4,-0.4,10.07,35.27,1.9431,392.6537],
    [20127,1537398677,53.3657,-110.6475,900.6,294.6,271.4,2.6,-0.8,10.13,35.13,1.9415,393.4045],
    [20128,1537398678,53.3657,-110.6486,900.9,294.9,272.1,2.7,-1.6,9.68,35.06,1.9429,393.4045],
    [20129,1537398679,53.3657,-110.6498,901.0,296.0,272.4,3.1,-1.5,10.0,35.39,1.9416,393.1595],
    [20130,1537398680,53.3657,-110.6509,900.9,294.9,271.8,3.7,-0.7,10.22,35.36,1.9424,392.173],
    [20131,1537398681,53.3658,-110.652,900.8,293.8,271.7,3.7,-0.5,9.58,35.51,1.9416,391.4987],
    [20132,1537398682,53.3658,-110.6531,901.1,294.1,271.7,4.2,-0.8,9.72,35.8,1.9408,391.4987],
    [20133,1537398683,53.3658,-110.6542,902.2,294.3,271.5,3.7,-0.6,10.79,35.05,1.9403,392.5152],
    [20134,1537398684,53.3658,-110.6554,903.0,293.0,271.5,4.7,-0.5,10.07,35.95,1.9376,392.2158],
    [20135,1537398685,53.3658,-110.6565,902.6,292.3,270.8,4.0,0.4,10.12,36.1,1.9367,392.9474],
    [20136,1537398686,53.3658,-110.6576,902.0,291.3,271.2,4.0,-0.1,10.51,35.58,1.9373,393.3276],
    [20137,1537398687,53.3658,-110.6587,901.1,291.1,271.5,4.2,-0.3,10.38,35.5,1.9384,390.217],
    [20138,1537398688,53.3659,-110.6599,900.4,291.4,272.1,4.4,-1.3,10.16,35.59,1.9373,392.6602],
    [20139,1537398689,53.3659,-110.661,900.3,292.3,272.0,4.8,-0.9,10.4,35.7,1.9372,394.5491],
    [20140,1537398690,53.3659,-110.6621,900.4,292.4,272.1,4.3,-1.3,9.9,35.42,1.9382,393.3301],
    [20141,1537398691,53.3659,-110.6632,901.2,293.3,272.7,3.8,-2.0,10.09,35.75,1.9391,394.4471],
    [20142,1537398692,53.3659,-110.6643,902.0,295.0,271.8,4.6,-1.1,9.98,35.15,1.9387,393.4352],
    [20143,1537398693,53.3659,-110.6655,901.7,295.7,271.3,3.8,-0.7,10.12,35.48,1.9392,392.9643],
    [20144,1537398694,53.3659,-110.6666,901.9,295.9,271.1,3.8,-0.8,10.11,34.96,1.9388,393.0862],
    [20145,1537398695,53.3659,-110.6678,901.5,295.5,271.8,4.1,-1.6,10.2,34.8,1.9372,391.628],
    [20146,1537398696,53.366,-110.6689,901.7,295.6,271.2,4.3,-0.8,10.26,35.39,1.9375,393.3727],
    [20147,1537398697,53.366,-110.67,902.3,297.0,271.2,4.0,-0.8,10.3,34.52,1.9382,393.988],
    [20148,1537398698,53.366,-110.6711,901.3,296.3,270.7,3.1,-0.3,10.13,35.03,1.9391,393.5097],
    [20149,1537398699,53.366,-110.6723,899.5,294.5,270.6,3.7,-0.4,10.01,35.1,1.938,393.1998],
    [20150,1537398700,53.366,-110.6734,898.6,292.6,270.5,3.6,-0.5,10.03,34.96,1.939,394.1433],
    [20151,1537398701,53.366,-110.6745,898.3,292.3,270.7,4.1,-0.8,9.74,35.01,1.9394,393.8214],
    [20152,1537398702,53.366,-110.6757,898.2,291.2,270.9,5.1,-1.2,9.95,34.73,1.9373,393.3764],
    [20153,1537398703,53.366,-110.6768,899.0,291.0,271.0,4.1,-1.1,10.57,34.08,1.9368,393.2139],
    [20154,1537398704,53.366,-110.6779,899.7,291.7,270.6,4.3,-0.7,10.2,35.11,1.9375,393.6158],
    [20155,1537398705,53.366,-110.6791,899.6,291.6,270.7,4.8,-1.1,9.77,34.74,1.936,393.4864],
    [20156,1537398706,53.366,-110.6802,898.9,290.1,271.6,4.8,-2.2,10.52,34.41,1.938,392.7682],
    [20157,1537398707,53.366,-110.6813,898.8,286.4,271.2,4.3,-1.8,9.99,34.77,1.9376,393.0363],
    [20158,1537398708,53.366,-110.6824,899.2,281.2,271.4,4.7,-2.2,10.02,34.65,1.938,393.0363],
    [20159,1537398709,53.366,-110.6836,899.4,272.7,271.1,4.5,-2.1,10.09,34.59,1.9394,393.1974],
    [20160,1537398710,53.366,-110.6847,899.5,262.8,270.8,4.2,-1.8,10.2,34.84,1.9415,392.8294],
    [20161,1537398711,53.366,-110.6858,899.4,253.3,270.8,4.3,-2.0,10.01,34.52,1.9395,393.7794],
    [20162,1537398712,53.366,-110.6869,899.7,246.4,271.0,4.0,-2.4,10.17,34.94,1.9396,392.9338],
    [20163,1537398713,53.3659,-110.688,900.3,240.9,270.7,4.0,-2.0,9.63,34.4,1.9407,392.4526],
    [20164,1537398714,53.3659,-110.6891,901.3,238.6,269.6,3.9,-0.6,9.87,34.25,1.939,393.4522],
    [20165,1537398715,53.3659,-110.6903,901.6,236.8,269.4,3.3,-0.4,10.17,34.8,1.9387,393.3854],
    [20166,1537398716,53.3659,-110.6914,901.5,236.2,269.3,3.4,-0.3,10.17,34.93,1.9389,391.8518],
    [20167,1537398717,53.3659,-110.6925,901.5,235.4,269.8,3.1,-0.7,10.1,34.78,1.9397,390.0726],
    [20168,1537398718,53.3659,-110.6936,901.2,234.9,270.5,3.0,-1.2,9.92,34.91,1.9408,393.1049],
    [20169,1537398719,53.3659,-110.6947,900.5,234.5,271.0,3.7,-1.2,10.24,34.48,1.9412,393.0174],
    [20170,1537398720,53.3659,-110.6958,900.1,235.5,271.4,4.5,-1.7,10.88,34.33,1.9396,393.1575],
    [20171,1537398721,53.3659,-110.697,899.9,237.9,272.2,4.3,-2.5,10.38,34.91,1.9394,393.4357],
    [20172,1537398722,53.3659,-110.6981,900.1,241.2,270.7,4.6,-0.7,10.14,35.03,1.9401,391.4604],
    [20173,1537398723,53.3659,-110.6992,900.1,244.7,270.9,4.5,-1.1,9.74,34.89,1.9403,391.8975],
    [20174,1537398724,53.3659,-110.7003,899.9,248.9,270.5,4.1,-0.5,10.36,34.57,1.9402,393.1673],
    [20175,1537398725,53.3659,-110.7014,900.2,252.5,270.5,4.5,-0.1,10.75,34.67,1.9398,391.6572],
    [20176,1537398726,53.3659,-110.7026,900.3,255.9,271.0,3.6,-0.2,9.64,34.89,1.9389,392.5397],
    [20177,1537398727,53.3659,-110.7037,900.0,259.0,271.4,3.9,-0.2,10.22,35.04,1.9387,392.7958],
    [20178,1537398728,53.3659,-110.7048,899.9,261.8,272.1,3.7,-1.0,9.74,35.24,1.9397,393.9363],
    [20179,1537398729,53.366,-110.7059,900.5,263.5,272.2,3.6,-1.2,10.01,35.25,1.9394,391.1765],
    [20180,1537398730,53.366,-110.707,901.4,264.4,271.9,3.3,-1.0,10.2,34.93,1.9381,392.9748],
    [20181,1537398731,53.366,-110.7081,901.6,263.6,271.3,2.6,-0.5,10.06,35.15,1.9383,392.7871],
    [20182,1537398732,53.366,-110.7092,900.9,263.6,271.5,2.9,-0.8,11.01,34.59,1.9386,392.3491],
    [20183,1537398733,53.366,-110.7103,900.4,264.1,270.9,2.7,-0.2,10.42,34.86,1.9378,393.2085],
    [20184,1537398734,53.366,-110.7115,900.5,265.5,270.3,2.4,0.3,9.59,35.23,1.9386,393.2233],
    [20185,1537398735,53.366,-110.7125,900.0,266.7,270.7,2.4,-0.3,10.09,35.5,1.9381,391.4424],
    [20186,1537398736,53.366,-110.7137,898.8,267.8,270.5,2.9,0.1,10.14,35.34,1.9378,394.5451],
    [20187,1537398737,53.366,-110.7148,898.1,269.2,270.8,3.2,-0.2,10.19,35.7,1.9367,393.0069],
    [20188,1537398738,53.366,-110.716,898.1,271.1,270.5,2.8,0.3,10.09,35.51,1.9388,392.9415],
    [20189,1537398739,53.3661,-110.7171,898.4,273.5,271.2,3.0,-0.5,10.18,35.57,1.9393,393.2761],
    [20190,1537398740,53.3661,-110.7182,898.6,274.8,271.5,2.9,-0.6,10.47,35.22,1.9384,392.7704],
    [20191,1537398741,53.3661,-110.7193,899.3,276.3,271.0,2.9,0.1,9.74,35.12,1.9382,393.0219],
    [20192,1537398742,53.3661,-110.7204,900.2,278.2,270.8,3.3,0.3,9.79,35.05,1.9391,392.5054],
    [20193,1537398743,53.3661,-110.7215,900.9,278.1,270.6,3.5,0.3,9.68,35.31,1.939,391.467],
    [20194,1537398744,53.3661,-110.7226,901.2,278.2,271.3,3.6,-0.5,10.02,35.49,1.9385,393.0801],
    [20195,1537398745,53.3661,-110.7238,900.7,276.7,272.0,3.6,-1.5,9.94,35.32,1.9391,394.3229],
    [20196,1537398746,53.3661,-110.7249,900.6,276.6,271.9,3.3,-1.3,10.18,35.96,1.9395,391.7128],
    [20197,1537398747,53.3661,-110.726,900.7,276.7,271.8,2.3,-1.4,10.11,35.83,1.9384,392.4364],
    [20198,1537398748,53.3662,-110.7271,901.2,278.2,271.5,3.0,-1.1,10.2,36.03,1.9394,393.2324],
    [20199,1537398749,53.3662,-110.7282,901.3,279.3,271.1,2.8,-0.9,9.83,35.7,1.9382,393.0704],
    [20200,1537398750,53.3662,-110.7293,901.0,281.0,270.8,3.3,-0.6,10.08,35.48,1.9389,393.0704],
    [20201,1537398751,53.3662,-110.7305,900.8,280.8,269.6,3.4,0.8,10.28,35.17,1.9386,391.3212],
    [20202,1537398752,53.3662,-110.7316,900.6,279.6,270.2,3.5,0.1,9.99,35.64,1.9376,393.5834],
    [20203,1537398753,53.3662,-110.7327,900.4,279.4,270.7,3.5,-0.5,10.92,35.01,1.9384,393.1045],
    [20204,1537398754,53.3662,-110.7338,900.0,279.0,271.1,3.0,-0.8,9.98,35.47,1.9385,392.0958],
    [20205,1537398755,53.3662,-110.7349,900.0,279.0,270.7,3.3,-0.3,9.78,35.28,1.9419,392.8097],
    [20206,1537398756,53.3662,-110.7361,900.1,279.1,270.9,3.1,-0.4,10.1,35.45,1.9426,393.9857],
    [20207,1537398757,53.3662,-110.7372,900.5,280.5,270.7,2.8,0.0,10.14,36.12,1.9428,391.9308],
    [20208,1537398758,53.3662,-110.7382,900.7,281.8,270.6,2.9,0.2,10.11,35.78,1.9426,391.6855],
    [20209,1537398759,53.3662,-110.7394,900.2,281.2,270.9,2.8,-0.1,9.65,35.75,1.9417,393.0904],
    [20210,1537398760,53.3662,-110.7405,900.0,281.0,270.9,2.5,0.0,9.46,35.79,1.9405,393.9542],
    [20211,1537398761,53.3662,-110.7416,899.8,280.8,271.1,2.5,-0.2,10.2,36.34,1.9411,392.71],
    [20212,1537398762,53.3663,-110.7428,899.8,281.8,270.7,1.6,0.2,10.11,36.73,1.9409,393.879],
    [20213,1537398763,53.3663,-110.7439,899.7,282.0,270.8,1.4,-0.1,10.18,36.42,1.9416,392.2995],
    [20214,1537398764,53.3663,-110.745,899.5,282.5,270.8,1.7,-0.1,9.65,35.9,1.9423,392.2995],
    [20215,1537398765,53.3663,-110.7461,898.9,282.0,270.6,2.5,0.1,10.18,35.83,1.9381,393.3073],
    [20216,1537398766,53.3663,-110.7472,898.8,281.8,270.6,2.6,-0.1,10.01,36.08,1.9386,392.6162],
    [20217,1537398767,53.3663,-110.7484,899.4,281.3,270.7,2.2,-0.1,9.56,35.89,1.9399,391.8793],
    [20218,1537398768,53.3663,-110.7495,899.6,281.7,271.2,2.6,-0.6,10.14,35.85,1.94,392.9719],
    [20219,1537398769,53.3663,-110.7506,899.9,281.8,270.8,2.3,-0.3,9.98,35.99,1.9409,392.2737],
    [20220,1537398770,53.3663,-110.7517,900.2,282.2,270.9,2.4,-0.5,10.17,36.27,1.9393,392.4634],
    [20221,1537398771,53.3663,-110.7529,900.6,282.6,270.7,2.4,-0.3,10.29,36.58,1.9408,392.8287],
    [20222,1537398772,53.3663,-110.754,901.1,283.1,270.2,2.3,0.0,10.62,35.35,1.9409,392.3685],
    [20223,1537398773,53.3663,-110.7551,902.0,285.1,270.4,2.3,-0.2,10.15,36.81,1.9416,392.1611],
    [20224,1537398774,53.3663,-110.7562,902.3,285.3,269.8,2.1,0.4,9.72,35.88,1.9423,391.9782],
    [20225,1537398775,53.3663,-110.7574,902.0,286.0,270.1,2.9,-0.3,9.99,36.64,1.9406,392.9013],
    [20226,1537398776,53.3663,-110.7585,901.9,286.9,270.8,2.9,-1.2,10.11,36.68,1.9409,390.18],
    [20227,1537398777,53.3663,-110.7597,901.8,286.8,271.1,3.8,-1.6,9.89,36.39,1.941,392.8246],
    [20228,1537398778,53.3663,-110.7607,901.9,287.9,271.0,3.5,-1.7,10.0,36.28,1.9422,393.1587],
    [20229,1537398779,53.3663,-110.7619,901.7,287.7,270.7,3.7,-1.5,9.75,36.16,1.9449,393.7024],
    [20230,1537398780,53.3663,-110.7631,901.3,287.3,270.3,3.5,-1.2,9.98,36.71,1.946,393.3784],
    [20231,1537398781,53.3663,-110.7642,901.3,287.3,269.4,3.2,-0.4,10.55,36.14,1.9524,391.9018],
    [20232,1537398782,53.3663,-110.7653,901.6,286.6,269.6,3.9,-0.8,9.99,36.5,1.953,392.4831],
    [20233,1537398783,53.3663,-110.7665,901.5,286.5,270.2,4.8,-1.8,9.96,36.28,1.9568,392.4346],
    [20234,1537398784,53.3663,-110.7676,901.2,286.2,270.3,3.2,-1.6,9.91,36.2,1.9584,392.081],
    [20235,1537398785,53.3663,-110.7687,900.7,285.7,270.2,2.3,-1.6,10.09,37.05,1.9587,392.2504],
    [20236,1537398786,53.3662,-110.7699,900.4,285.4,270.6,2.0,-2.2,10.11,36.85,1.9463,393.9666],
    [20237,1537398787,53.3662,-110.771,900.4,286.3,269.1,3.2,-0.5,10.13,36.11,1.9426,393.344],
    [20238,1537398788,53.3662,-110.7721,900.4,291.4,269.0,2.8,-0.8,10.93,35.8,1.9414,392.7515],
    [20239,1537398789,53.3662,-110.7733,900.7,298.0,269.8,2.5,-1.9,9.66,36.57,1.9421,393.7058],
    [20240,1537398790,53.3662,-110.7744,900.9,303.5,269.8,2.1,-1.8,9.98,36.09,1.9443,392.7928],
    [20241,1537398791,53.3662,-110.7755,901.0,311.0,269.9,2.1,-1.8,10.72,35.4,1.9423,391.4098],
    [20242,1537398792,53.3661,-110.7767,901.3,317.9,269.8,1.8,-1.7,10.18,35.92,1.9435,391.684],
    [20243,1537398793,53.3661,-110.7779,901.5,322.5,270.1,2.5,-2.0,10.15,36.55,1.9466,393.6875],
    [20244,1537398794,53.3661,-110.779,901.7,323.7,269.4,3.4,-1.0,9.94,35.97,1.9545,391.3802],
    [20245,1537398795,53.3661,-110.7802,902.1,327.0,269.7,2.9,-1.3,10.51,35.37,1.955,392.7965],
    [20246,1537398796,53.3661,-110.7813,902.6,327.0,269.2,2.6,-0.5,10.17,36.72,1.9516,391.8009],
    [20247,1537398797,53.3661,-110.7825,903.0,325.6,269.9,3.0,-1.6,10.05,36.07,1.9514,391.8009],
    [20248,1537398798,53.366,-110.7836,902.3,323.2,270.4,2.4,-2.0,10.18,36.64,1.9476,391.7944],
    [20249,1537398799,53.366,-110.7848,901.6,321.8,271.3,2.7,-3.5,10.38,36.11,1.9466,393.0284],
    [20250,1537398800,53.366,-110.7859,901.6,321.4,272.4,2.1,-4.6,10.16,36.91,1.9484,392.5883],
    [20251,1537398801,53.366,-110.7871,901.5,321.6,271.5,1.0,-3.7,10.55,36.22,1.9495,392.379],
    [20252,1537398802,53.366,-110.7883,900.1,323.1,271.0,1.2,-3.1,10.14,36.7,1.9476,392.8119],
    [20253,1537398803,53.366,-110.7894,898.8,325.0,270.1,2.1,-2.4,10.03,36.47,1.9489,392.116],
    [20254,1537398804,53.366,-110.7906,898.5,326.5,270.5,2.8,-3.0,10.16,36.82,1.9495,393.4121],
    [20255,1537398805,53.3659,-110.7917,898.9,326.9,270.5,2.8,-3.2,10.09,36.29,1.9503,392.371],
    [20256,1537398806,53.3659,-110.7928,899.5,326.5,270.6,3.1,-3.3,10.08,36.31,1.9497,393.538],
    [20257,1537398807,53.3659,-110.7941,900.2,327.2,270.3,3.3,-3.1,10.07,36.16,1.949,392.6818],
    [20258,1537398808,53.3659,-110.7952,901.4,328.4,269.5,3.0,-1.8,9.95,36.19,1.9424,392.7775],
    [20259,1537398809,53.3658,-110.7964,902.8,329.8,268.9,3.6,-1.3,9.61,36.04,1.9423,393.0422],
    [20260,1537398810,53.3658,-110.7976,903.3,330.3,269.9,3.7,-2.3,9.42,35.95,1.9397,392.7804],
    [20261,1537398811,53.3658,-110.7987,903.0,330.0,269.7,3.1,-1.8,10.15,36.16,1.9386,393.6835],
    [20262,1537398812,53.3658,-110.7999,902.5,328.5,270.0,3.3,-1.9,10.1,36.03,1.9368,394.034],
    [20263,1537398813,53.3658,-110.801,902.1,328.1,270.0,3.1,-1.8,10.41,35.48,1.9377,392.999],
    [20264,1537398814,53.3657,-110.8022,902.2,328.2,270.0,2.7,-1.6,10.57,35.42,1.9371,393.5075],
    [20265,1537398815,53.3657,-110.8033,902.2,328.2,270.0,2.7,-1.6,10.16,35.9,1.9375,393.2986],
    [20266,1537398816,53.3657,-110.8046,902.0,328.0,270.3,2.7,-1.8,10.27,35.46,1.9385,393.3801],
    [20267,1537398817,53.3657,-110.8057,901.3,327.3,270.2,2.9,-1.6,9.87,35.26,1.9392,393.8573],
    [20268,1537398818,53.3657,-110.8068,900.4,326.4,270.2,3.5,-1.5,10.03,34.99,1.9409,394.0409],
    [20269,1537398819,53.3657,-110.8081,900.0,325.7,269.8,3.1,-0.9,10.1,35.31,1.9455,393.0656],
    [20270,1537398820,53.3657,-110.8092,900.6,326.2,269.8,3.1,-0.9,10.32,35.38,1.9478,393.2697],
    [20271,1537398821,53.3657,-110.8104,901.0,327.0,270.1,2.7,-1.1,9.95,35.4,1.9486,393.0814],
    [20272,1537398822,53.3657,-110.8115,901.2,327.2,269.9,2.9,-0.8,10.19,35.93,1.9497,392.3429],
    [20273,1537398823,53.3656,-110.8127,901.0,327.0,270.3,3.0,-1.3,10.73,34.88,1.9405,391.3664],
    [20274,1537398824,53.3656,-110.8139,900.6,326.6,270.5,2.6,-1.4,10.34,35.13,1.9421,393.18],
    [20275,1537398825,53.3656,-110.815,900.7,326.7,270.4,2.6,-1.3,10.35,35.05,1.9428,393.4655],
    [20276,1537398826,53.3656,-110.8162,900.6,326.6,270.5,2.9,-1.3,10.74,34.96,1.9378,393.8583],
    [20277,1537398827,53.3656,-110.8174,900.5,326.5,270.3,2.9,-1.2,10.19,35.42,1.9386,393.781],
    [20278,1537398828,53.3656,-110.8185,900.6,326.6,270.2,3.0,-1.1,9.98,35.77,1.9376,393.4965],
    [20279,1537398829,53.3656,-110.8197,900.8,326.8,270.0,3.3,-0.8,10.72,35.08,1.9414,393.2581],
    [20280,1537398830,53.3656,-110.8208,901.1,327.1,269.8,3.0,-0.6,10.49,34.73,1.94,393.9864],
    [20281,1537398831,53.3656,-110.822,901.0,327.0,269.9,3.2,-0.7,9.45,35.07,1.9399,393.0342],
    [20282,1537398832,53.3656,-110.8232,901.1,327.1,269.7,3.2,-0.4,9.77,35.31,1.9415,394.4075],
    [20283,1537398833,53.3656,-110.8243,901.2,327.2,270.0,3.0,-0.7,10.05,34.97,1.9413,392.5091],
    [20284,1537398834,53.3656,-110.8255,901.2,327.2,270.0,2.9,-0.6,10.13,35.53,1.9507,392.3367],
    [20285,1537398835,53.3656,-110.8266,901.6,327.6,269.9,3.6,-0.7,10.19,35.11,1.9527,393.9121],
    [20286,1537398836,53.3656,-110.8278,901.8,327.8,270.0,2.2,-0.8,10.5,34.81,1.9566,393.6417],
    [20287,1537398837,53.3656,-110.8289,901.6,327.2,269.9,3.9,-0.7,10.16,35.28,1.9461,393.5366],
    [20288,1537398838,53.3655,-110.8301,901.4,325.4,270.4,3.5,-1.2,10.61,34.69,1.9547,390.8361],
    [20289,1537398839,53.3655,-110.8312,902.4,326.4,270.3,3.7,-0.9,10.34,34.43,1.9543,393.6194],
    [20290,1537398840,53.3655,-110.8324,902.8,326.8,270.6,4.0,-1.2,10.18,35.13,1.9448,393.5526],
    [20291,1537398841,53.3655,-110.8335,902.0,326.0,271.2,3.5,-1.7,10.19,35.15,1.9409,393.9376],
    [20292,1537398842,53.3655,-110.8347,901.1,326.1,271.3,3.6,-1.9,9.84,35.03,1.9392,392.1437],
    [20293,1537398843,53.3655,-110.8358,901.2,326.2,271.3,3.2,-2.0,9.87,34.96,1.938,394.1006],
    [20294,1537398844,53.3655,-110.837,901.5,325.5,270.9,3.0,-1.6,10.21,35.45,1.939,392.7806],
    [20295,1537398845,53.3655,-110.8382,901.5,325.5,269.7,3.2,-0.3,10.39,34.42,1.9389,393.1734],
    [20296,1537398846,53.3655,-110.8393,900.8,324.8,270.2,3.3,-1.1,10.21,35.06,1.9367,392.7656],
    [20297,1537398847,53.3655,-110.8405,900.0,324.0,270.0,3.4,-1.0,10.26,35.52,1.9367,392.979],
    [20298,1537398848,53.3655,-110.8416,900.0,323.0,269.9,3.6,-0.9,10.29,34.77,1.9384,393.8067],
    [20299,1537398849,53.3655,-110.8428,900.3,321.3,269.8,3.5,-0.9,10.25,35.13,1.9368,393.9179],
    [20300,1537398850,53.3655,-110.844,900.5,318.1,269.7,3.4,-0.6,9.72,34.83,1.9377,392.009],
    [20301,1537398851,53.3655,-110.8451,900.5,314.8,269.6,3.8,-0.5,10.6,35.12,1.938,393.1929],
    [20302,1537398852,53.3655,-110.8463,900.5,308.5,269.9,3.9,-0.7,10.14,34.58,1.9379,394.0665],
    [20303,1537398853,53.3655,-110.8474,900.5,303.1,270.2,3.9,-1.0,10.35,34.53,1.9381,394.1115],
    [20304,1537398854,53.3654,-110.8486,900.6,299.0,270.4,3.9,-1.2,9.6,34.5,1.9381,394.1433],
    [20305,1537398855,53.3654,-110.8497,900.7,294.7,270.3,3.6,-1.0,10.66,34.31,1.9383,392.2123],
    [20306,1537398856,53.3654,-110.8509,900.9,293.2,270.1,3.7,-0.9,10.37,34.48,1.9387,394.1841],
    [20307,1537398857,53.3654,-110.852,901.3,292.3,270.2,3.6,-1.0,10.81,34.24,1.9388,392.8455],
    [20308,1537398858,53.3654,-110.8532,901.4,291.3,269.9,3.8,-0.6,10.38,34.75,1.9386,394.0611],
    [20309,1537398859,53.3654,-110.8543,901.4,291.4,269.8,4.2,-0.6,10.48,34.07,1.9382,393.1432],
    [20310,1537398860,53.3654,-110.8555,901.1,291.1,269.9,3.6,0.2,10.11,34.85,1.938,393.9089],
    [20311,1537398861,53.3654,-110.8566,900.2,289.9,271.6,4.2,0.6,10.25,34.91,1.9385,393.5081],
    [20312,1537398862,53.3655,-110.8577,899.7,287.8,276.8,4.0,-0.3,10.15,34.82,1.9389,393.6741],
    [20313,1537398863,53.3656,-110.8589,900.7,287.0,283.9,3.5,-1.5,10.34,34.42,1.9394,392.6451],
    [20314,1537398864,53.3658,-110.86,904.2,289.5,290.6,3.3,-0.7,9.74,35.01,1.9388,391.588],
    [20315,1537398865,53.3661,-110.861,908.3,293.3,296.5,3.3,-1.7,9.64,34.74,1.9374,392.7688],
    [20316,1537398866,53.3664,-110.862,910.0,295.3,303.0,2.7,-2.2,9.7,34.92,1.9378,393.7919],
    [20317,1537398867,53.3668,-110.8629,910.6,296.2,309.0,3.0,-1.4,9.94,35.0,1.938,392.816],
    [20318,1537398868,53.3673,-110.8637,909.6,297.0,316.7,2.5,-2.9,10.22,35.07,1.9378,394.184],
    [20319,1537398869,53.3678,-110.8644,907.2,297.2,322.9,2.5,-2.3,10.09,35.16,1.9381,391.4232],
    [20320,1537398870,53.3684,-110.8651,902.5,295.3,328.6,2.3,-2.7,10.28,35.57,1.9383,394.9458],
    [20321,1537398871,53.369,-110.8656,896.8,290.0,334.9,2.1,-3.1,9.77,35.26,1.9389,394.7397],
    [20322,1537398872,53.3696,-110.866,890.7,284.7,340.0,1.8,-2.6,9.8,35.32,1.9379,393.5173],
    [20323,1537398873,53.3703,-110.8664,885.4,279.4,345.0,1.5,-3.0,10.27,35.72,1.9377,393.4113],
    [20324,1537398874,53.371,-110.8666,881.9,275.9,349.3,0.8,-2.8,10.18,35.54,1.9387,392.6765],
    [20325,1537398875,53.3717,-110.8668,882.5,276.5,351.1,0.4,-2.7,9.73,35.23,1.9384,392.6765],
    [20326,1537398876,53.3724,-110.867,886.7,280.7,350.7,0.1,-2.9,10.23,35.67,1.9384,393.4774],
    [20327,1537398877,53.3731,-110.8672,893.7,287.7,348.3,1.0,-2.7,10.17,35.51,1.9393,393.4774],
    [20328,1537398878,53.3737,-110.8675,900.6,294.6,346.9,0.7,-3.0,10.33,35.19,1.9415,393.3231],
    [20329,1537398879,53.3744,-110.8677,905.8,299.1,345.5,0.4,-2.7,10.07,35.5,1.9433,394.1111],
    [20330,1537398880,53.3751,-110.8681,908.9,300.0,342.7,1.5,-2.6,10.22,35.48,1.9458,393.7951],
    [20331,1537398881,53.3757,-110.8684,910.1,298.9,340.3,1.4,-2.4,10.33,35.11,1.9455,393.5837],
    [20332,1537398882,53.3764,-110.8688,910.4,297.4,338.0,1.3,-2.5,9.5,35.51,1.9443,392.5818],
    [20333,1537398883,53.377,-110.8692,910.2,296.5,335.9,1.8,-1.7,9.5,35.46,1.9431,393.1566],
    [20334,1537398884,53.3776,-110.8697,910.0,296.0,335.0,2.3,-2.1,10.29,35.93,1.9433,392.4442],
    [20335,1537398885,53.3782,-110.8702,910.3,295.6,336.1,1.1,-2.4,9.71,35.46,1.944,393.2931],
    [20336,1537398886,53.3788,-110.8706,910.5,295.1,336.1,1.7,-2.5,10.25,35.45,1.9479,391.988],
    [20337,1537398887,53.3795,-110.8711,910.7,296.7,335.5,2.7,-2.5,9.7,35.67,1.9434,393.2355],
    [20338,1537398888,53.3801,-110.8715,911.4,298.3,335.8,2.7,-2.1,10.11,35.56,1.9402,393.581],
    [20339,1537398889,53.3807,-110.872,912.0,299.0,336.2,3.3,-2.1,10.81,35.43,1.9383,394.1758],
    [20340,1537398890,53.3813,-110.8724,911.7,298.7,337.7,2.7,-2.3,10.42,35.62,1.9386,393.3314],
    [20341,1537398891,53.382,-110.8728,910.0,295.0,339.3,2.3,-2.0,10.46,35.06,1.9436,393.4052],
    [20342,1537398892,53.3826,-110.8731,908.2,292.2,340.5,2.7,-1.9,10.39,35.61,1.9491,393.4052],
    [20343,1537398893,53.3833,-110.8735,906.9,291.0,341.9,2.3,-1.9,10.11,35.96,1.957,392.796],
    [20344,1537398894,53.3839,-110.8738,905.9,289.9,343.0,1.8,-2.6,10.01,35.39,1.9444,392.9762],
    [20345,1537398895,53.3846,-110.8741,905.1,289.1,343.7,1.3,-2.6,9.95,35.0,1.9414,392.8827],
    [20346,1537398896,53.3853,-110.8744,904.2,288.2,344.3,1.2,-2.1,10.14,35.36,1.9375,391.8017],
    [20347,1537398897,53.3859,-110.8747,902.7,285.6,344.8,1.5,-1.7,9.83,35.67,1.9377,392.6484],
    [20348,1537398898,53.3866,-110.875,901.5,284.5,345.7,2.0,-1.8,10.21,35.82,1.9366,392.5323],
    [20349,1537398899,53.3873,-110.8752,900.1,282.1,347.6,1.7,-1.2,10.82,35.07,1.9359,393.0076],
    [20350,1537398900,53.3879,-110.8754,898.7,280.7,350.1,1.8,-1.8,10.05,35.22,1.9374,393.8983],
    [20351,1537398901,53.3886,-110.8756,897.6,280.6,353.2,1.5,-1.9,9.65,35.13,1.9377,392.9875],
    [20352,1537398902,53.3893,-110.8757,897.3,280.8,356.3,1.3,-1.7,10.59,35.02,1.9363,392.6695],
    [20353,1537398903,53.39,-110.8757,897.3,281.1,359.1,0.7,-1.7,10.17,35.18,1.9372,393.6526],
    [20354,1537398904,53.3907,-110.8757,898.0,281.0,361.4,0.7,-1.7,10.07,35.58,1.9356,393.6526],
    [20355,1537398905,53.3914,-110.8756,898.9,280.9,2.7,1.2,-1.5,10.48,34.51,1.9363,391.7719],
    [20356,1537398906,53.3921,-110.8755,900.0,282.0,3.4,1.6,-1.6,9.93,34.84,1.9364,393.0011],
    [20357,1537398907,53.3927,-110.8755,900.7,281.7,4.4,1.2,-1.7,9.62,35.05,1.9365,392.6557],
    [20358,1537398908,53.3935,-110.8753,901.4,282.4,4.0,1.8,-1.0,9.66,35.04,1.935,393.4244],
    [20359,1537398909,53.3941,-110.8752,901.5,282.5,3.9,1.4,-1.0,10.05,35.23,1.9346,393.0911],
    [20360,1537398910,53.3948,-110.8751,901.3,282.3,2.9,1.9,-0.9,10.27,35.04,1.9372,392.4838],
    [20361,1537398911,53.3955,-110.8751,901.1,282.1,361.6,2.3,-1.0,9.72,35.13,1.9364,392.0869],
    [20362,1537398912,53.3962,-110.875,900.8,280.8,360.9,2.0,-1.1,10.19,34.79,1.9361,392.2281],
    [20363,1537398913,53.3969,-110.875,900.4,279.3,360.2,2.2,-0.6,10.03,35.2,1.9344,394.0739],
    [20364,1537398914,53.3976,-110.8749,900.2,278.2,359.7,2.1,-1.1,10.22,34.78,1.9361,393.3955],
    [20365,1537398915,53.3982,-110.8749,900.0,276.9,359.4,1.9,-1.1,10.57,34.87,1.9361,393.0712],
    [20366,1537398916,53.3989,-110.8749,900.0,277.0,358.6,2.2,-0.9,10.66,34.45,1.9357,394.423],
    [20367,1537398917,53.3996,-110.8749,900.0,277.0,358.0,2.2,-1.0,10.09,34.95,1.9377,393.5098],
    [20368,1537398918,53.4003,-110.8749,899.8,277.8,357.4,2.2,-0.9,10.49,34.64,1.9373,393.5098],
    [20369,1537398919,53.401,-110.8749,899.6,279.2,356.8,2.5,-0.9,10.35,35.25,1.9375,390.6579],
    [20370,1537398920,53.4017,-110.875,899.5,284.2,356.2,2.8,-1.4,10.95,34.49,1.9355,392.6278],
    [20371,1537398921,53.4024,-110.875,899.6,287.4,356.1,2.7,-1.7,10.0,34.8,1.9358,392.3533],
    [20372,1537398922,53.4031,-110.8751,899.9,289.9,355.9,2.6,-1.4,9.98,34.75,1.9354,393.156],
    [20373,1537398923,53.4038,-110.8751,900.4,290.4,355.6,2.6,-1.7,10.05,35.4,1.9356,393.9229],
    [20374,1537398924,53.4044,-110.8752,900.6,290.6,355.3,2.8,-1.8,9.87,34.5,1.936,392.7896],
    [20375,1537398925,53.4051,-110.8752,900.5,290.5,355.3,2.7,-1.5,9.88,34.62,1.9364,392.9803],
    [20376,1537398926,53.4058,-110.8753,900.6,290.6,355.3,2.7,-1.5,9.88,35.13,1.9357,392.7663],
    [20377,1537398927,53.4065,-110.8753,900.5,289.5,355.3,2.7,-1.7,10.67,34.15,1.9353,393.4898],
    [20378,1537398928,53.4072,-110.8754,900.6,289.6,355.7,2.4,-1.7,10.2,34.75,1.9369,393.5063],
    [20379,1537398929,53.4078,-110.8754,900.7,288.7,356.1,2.0,-1.8,10.2,34.86,1.9386,393.0115],
    [20380,1537398930,53.4085,-110.8755,900.7,287.7,356.3,1.9,-1.5,10.02,34.79,1.9382,393.4202],
    [20381,1537398931,53.4092,-110.8755,900.5,286.6,356.0,2.2,-1.3,10.69,34.27,1.9377,390.9043],
    [20382,1537398932,53.4099,-110.8756,900.1,285.2,355.9,2.2,-1.0,10.04,34.87,1.9381,392.6673],
    [20383,1537398933,53.4106,-110.8756,899.6,283.7,356.0,2.1,-1.3,9.97,35.32,1.937,392.6673],
    [20384,1537398934,53.4113,-110.8757,899.3,281.6,355.8,2.5,-1.2,10.28,34.95,1.9354,393.0512],
    [20385,1537398935,53.412,-110.8757,899.1,279.1,355.8,2.6,-1.1,10.31,34.75,1.9362,393.0512],
    [20386,1537398936,53.4127,-110.8758,898.9,277.2,355.8,2.6,-1.3,10.07,34.67,1.9362,392.2748],
    [20387,1537398937,53.4134,-110.8758,899.0,276.0,355.8,2.7,-1.5,9.86,35.01,1.9373,393.4213],
    [20388,1537398938,53.4141,-110.8759,899.3,275.2,356.0,2.5,-1.4,10.07,34.81,1.9358,393.1255],
    [20389,1537398939,53.4147,-110.8759,899.5,274.8,356.0,2.5,-1.7,9.93,35.09,1.9363,392.5049],
    [20390,1537398940,53.4154,-110.8759,899.8,274.8,356.1,2.3,-1.8,10.7,33.95,1.9386,392.1211],
    [20391,1537398941,53.4161,-110.876,900.1,274.4,356.5,1.9,-1.5,10.17,34.66,1.9382,392.9928],
    [20392,1537398942,53.4168,-110.876,900.2,272.6,356.4,2.2,-1.6,9.7,34.93,1.9417,394.2712],
    [20393,1537398943,53.4175,-110.8761,899.9,270.4,356.0,2.7,-1.5,10.12,35.22,1.9408,394.2712],
    [20394,1537398944,53.4181,-110.8761,899.5,267.5,356.0,2.6,-1.3,10.14,35.36,1.9398,391.708],
    [20395,1537398945,53.4188,-110.8761,899.0,266.0,356.1,2.6,-1.5,10.12,35.49,1.9396,392.9683],
    [20396,1537398946,53.4195,-110.8762,898.8,264.8,356.4,2.1,-1.4,9.82,34.75,1.9408,393.8619],
    [20397,1537398947,53.4202,-110.8762,898.9,263.3,357.1,1.4,-1.5,10.0,34.85,1.9397,392.2433],
    [20398,1537398948,53.4209,-110.8763,899.3,261.6,356.9,1.6,-1.4,10.57,34.55,1.9395,392.2433],
    [20399,1537398949,53.4216,-110.8763,899.6,261.9,356.8,1.6,-1.5,10.16,34.88,1.9397,393.517],
    [20400,1537398950,53.4222,-110.8763,899.4,263.4,356.8,1.5,-1.4,10.13,35.52,1.9439,394.022],
    [20401,1537398951,53.4229,-110.8764,898.9,261.9,356.9,1.1,-2.3,10.27,34.63,1.9449,394.022],
    [20402,1537398952,53.4236,-110.8764,899.3,260.6,356.6,1.3,-2.3,10.47,34.59,1.9493,391.9377],
    [20403,1537398953,53.4243,-110.8765,899.9,259.2,357.1,0.6,-1.6,10.04,34.92,1.9508,393.6453],
    [20404,1537398954,53.425,-110.8765,900.3,258.2,356.8,1.0,-1.2,10.48,34.69,1.9506,393.2685],
    [20405,1537398955,53.4256,-110.8766,900.5,256.7,356.4,1.3,-1.2,9.94,35.01,1.9506,392.7109],
    [20406,1537398956,53.4263,-110.8766,900.3,257.4,356.6,1.0,-0.9,10.31,35.02,1.9499,392.9358],
    [20407,1537398957,53.427,-110.8767,899.8,258.5,356.4,1.2,-0.8,9.52,34.93,1.9501,393.4759],
    [20408,1537398958,53.4277,-110.8768,899.5,257.4,356.5,0.9,-1.1,9.84,34.96,1.955,392.3437],
    [20409,1537398959,53.4284,-110.8768,899.5,257.5,356.8,0.5,-1.5,10.37,34.73,1.9594,392.5757],
    [20410,1537398960,53.429,-110.8769,899.6,258.8,356.9,0.2,-1.3,10.67,34.28,1.9552,393.1733],
    [20411,1537398961,53.4297,-110.8769,900.1,261.4,356.8,0.4,-0.8,9.66,35.12,1.9513,393.1733],
    [20412,1537398962,53.4304,-110.877,900.9,264.9,356.2,0.9,-1.0,10.81,34.69,1.9509,393.5938],
    [20413,1537398963,53.4311,-110.8771,901.0,267.7,356.4,0.7,-1.7,10.17,35.83,1.9711,393.251],
    [20414,1537398964,53.4318,-110.8771,900.5,270.2,356.1,0.9,-1.1,10.95,34.61,1.9831,392.1494],
    [20415,1537398965,53.4324,-110.8772,900.5,272.6,356.1,0.9,-1.1,10.2,35.13,1.9721,392.1494],
    [20416,1537398966,53.4331,-110.8772,900.8,273.8,356.3,0.8,-1.9,10.08,35.34,1.9528,391.5405],
    [20417,1537398967,53.4338,-110.8773,900.2,273.2,355.9,1.3,-1.1,9.9,35.53,1.9498,392.8091],
    [20418,1537398968,53.4345,-110.8774,899.3,273.4,355.7,1.6,-1.3,9.65,35.42,1.9484,393.2205],
    [20419,1537398969,53.4352,-110.8774,899.4,274.1,356.1,1.2,-1.3,9.91,35.45,1.9552,391.6058],
    [20420,1537398970,53.4359,-110.8775,899.5,276.2,355.8,1.5,-0.3,9.44,35.37,1.9598,391.5361],
    [20421,1537398971,53.4365,-110.8776,899.0,276.3,355.9,1.3,-1.0,10.03,35.38,1.9622,392.2378],
    [20422,1537398972,53.4372,-110.8776,898.4,276.4,355.9,1.6,-1.5,10.17,35.93,1.9701,393.6413],
    [20423,1537398973,53.4379,-110.8777,898.2,276.2,356.2,1.2,-1.8,10.69,35.36,1.9726,394.1635],
    [20424,1537398974,53.4386,-110.8777,898.6,276.6,356.7,0.6,-1.1,10.39,35.29,1.9697,391.9886],
    [20425,1537398975,53.4393,-110.8778,899.2,277.2,356.5,0.8,-1.3,9.98,35.32,1.9693,391.6464],
    [20426,1537398976,53.44,-110.8779,899.5,277.5,356.6,0.8,-1.6,9.85,35.04,1.9697,393.5604],
    [20427,1537398977,53.4407,-110.8779,899.4,277.4,356.5,1.0,-2.0,10.31,35.12,1.9625,393.5604],
    [20428,1537398978,53.4414,-110.878,899.5,275.5,355.9,1.6,-1.4,9.55,35.48,1.9607,392.898],
    [20429,1537398979,53.442,-110.878,899.7,274.7,356.1,1.3,-1.5,9.68,35.2,1.9573,392.4042],
    [20430,1537398980,53.4427,-110.8781,899.8,275.9,356.2,1.4,-1.6,10.13,36.08,1.9548,392.1993],
    [20431,1537398981,53.4434,-110.8781,899.4,274.5,355.4,2.4,-1.5,10.41,34.63,1.948,393.4597],
    [20432,1537398982,53.4441,-110.8782,899.1,272.8,355.7,1.9,-1.5,10.39,35.23,1.9496,394.1525],
    [20433,1537398983,53.4448,-110.8783,899.1,271.0,355.9,1.8,-1.6,10.38,34.59,1.9537,393.2057],
    [20434,1537398984,53.4455,-110.8783,899.4,271.4,355.8,2.0,-1.1,9.67,34.99,1.9547,391.9509],
    [20435,1537398985,53.4462,-110.8784,899.6,272.6,355.8,2.0,-1.0,10.49,34.4,1.9555,392.5894],
    [20436,1537398986,53.4468,-110.8784,899.8,272.8,356.0,2.0,-1.2,10.49,34.45,1.9572,392.7169],
    [20437,1537398987,53.4475,-110.8785,900.1,272.2,356.3,1.7,-1.1,10.0,35.0,1.9569,393.0599],
    [20438,1537398988,53.4482,-110.8785,900.3,271.1,357.1,0.8,-1.7,10.13,35.25,1.9568,391.1261],
    [20439,1537398989,53.4489,-110.8786,900.5,269.3,357.2,0.7,-1.2,10.33,35.05,1.9583,392.5265],
    [20440,1537398990,53.4496,-110.8786,900.3,267.3,356.7,1.3,-1.7,9.65,34.79,1.954,393.5858],
    [20441,1537398991,53.4503,-110.8787,899.6,265.0,356.3,1.6,-1.9,9.87,35.04,1.9546,392.7847],
    [20442,1537398992,53.451,-110.8787,899.3,261.6,356.2,1.6,-2.1,10.75,34.8,1.9536,392.7847],
    [20443,1537398993,53.4516,-110.8788,899.7,260.6,356.3,1.4,-1.8,9.92,35.01,1.9528,392.3125],
    [20444,1537398994,53.4523,-110.8788,900.4,261.5,356.4,1.4,-3.1,10.09,35.8,1.959,392.9352],
    [20445,1537398995,53.453,-110.8789,901.1,262.1,356.5,1.2,-2.3,10.11,34.98,1.9569,392.9352],
    [20446,1537398996,53.4537,-110.8789,901.1,264.1,356.6,1.1,-2.2,10.0,35.35,1.9552,392.9069],
    [20447,1537398997,53.4544,-110.879,900.7,265.4,356.5,1.3,-2.3,10.04,35.08,1.9529,391.6581],
    [20448,1537398998,53.4551,-110.8791,900.0,267.0,356.0,2.1,-3.1,9.67,35.06,1.9462,393.5585],
    [20449,1537398999,53.4557,-110.8791,899.6,269.0,355.6,2.6,-2.5,10.24,34.42,1.9453,392.7525],
    [20450,1537399000,53.4564,-110.8792,899.3,270.9,355.3,2.9,-2.3,10.04,35.66,1.9487,393.0011],
    [20451,1537399001,53.4571,-110.8792,898.9,270.9,355.6,2.4,-1.7,10.07,34.71,1.9553,393.4576],
    [20452,1537399002,53.4578,-110.8793,899.2,269.5,355.8,2.2,-1.4,10.03,34.94,1.9552,392.2609],
    [20453,1537399003,53.4585,-110.8793,899.7,268.2,355.9,2.2,-1.5,10.24,34.53,1.9569,392.5426],
    [20454,1537399004,53.4592,-110.8794,899.7,266.4,356.4,1.7,-1.9,10.13,34.97,1.9597,393.2545],
    [20455,1537399005,53.4598,-110.8794,899.8,263.7,356.9,1.1,-1.5,10.66,34.53,1.9589,391.9861],
    [20456,1537399006,53.4605,-110.8795,899.8,262.8,356.5,1.6,-1.4,10.06,35.04,1.9572,392.3117],
    [20457,1537399007,53.4612,-110.8795,900.0,262.0,356.3,1.8,-1.4,10.14,35.4,1.9571,393.5966],
    [20458,1537399008,53.4619,-110.8796,900.0,262.9,356.0,2.0,-1.6,10.64,34.69,1.9538,392.0102],
    [20459,1537399009,53.4626,-110.8796,899.5,265.1,356.2,1.7,-1.8,10.06,35.1,1.9487,393.6776],
    [20460,1537399010,53.4633,-110.8797,899.0,267.3,356.0,2.2,-1.7,9.58,34.78,1.9464,393.7197],
    [20461,1537399011,53.464,-110.8797,899.1,272.4,356.2,1.8,-1.8,9.79,34.85,1.9478,393.0663],
    [20462,1537399012,53.4646,-110.8798,899.1,274.4,356.9,1.0,-1.4,9.6,34.87,1.9493,393.0775],
    [20463,1537399013,53.4653,-110.8798,898.9,274.9,356.5,1.6,-0.7,10.58,34.17,1.9421,393.4919],
    [20464,1537399014,53.466,-110.8799,898.8,274.2,355.9,2.3,-0.5,10.53,34.28,1.9414,393.1813],
    [20465,1537399015,53.4667,-110.8799,898.9,270.3,355.3,3.0,-0.7,10.58,34.64,1.9408,391.2282],
    [20466,1537399016,53.4674,-110.88,899.1,267.8,355.3,3.0,-0.9,10.02,35.44,1.9393,390.0872],
    [20467,1537399017,53.4681,-110.88,899.2,266.1,355.5,2.9,-0.9,9.74,34.71,1.9414,392.6809],
    [20468,1537399018,53.4688,-110.88,899.2,266.1,355.4,3.2,-0.7,10.73,34.37,1.9439,393.1976],
    [20469,1537399019,53.4695,-110.8801,899.2,265.3,355.4,3.2,-0.7,10.06,35.09,1.9469,393.5994],
    [20470,1537399020,53.4701,-110.8801,899.3,262.5,356.0,2.9,-0.9,9.44,34.67,1.9502,394.0317],
    [20471,1537399021,53.4708,-110.8802,899.4,260.0,355.8,3.2,-1.0,10.64,34.33,1.9513,393.0025],
    [20472,1537399022,53.4715,-110.8802,899.6,255.1,356.3,2.9,-0.8,9.89,34.93,1.9497,392.4617],
    [20473,1537399023,53.4722,-110.8802,899.4,253.1,355.6,3.7,0.2,10.17,34.5,1.9524,392.5237],
    [20474,1537399024,53.4729,-110.8803,899.1,251.1,356.2,2.8,0.0,9.98,34.67,1.9526,394.0423],
    [20475,1537399025,53.4736,-110.8803,898.9,250.9,356.4,2.6,-0.3,10.11,35.37,1.9529,392.9968],
    [20476,1537399026,53.4743,-110.8803,899.3,253.0,356.6,2.3,-0.4,10.1,34.34,1.9523,393.342],
    [20477,1537399027,53.475,-110.8804,899.7,254.7,357.1,1.8,-0.9,10.16,34.68,1.9558,393.9119],
    [20478,1537399028,53.4757,-110.8804,899.5,255.8,357.0,1.9,-0.9,10.25,34.61,1.9583,393.3857],
    [20479,1537399029,53.4764,-110.8804,899.5,256.5,356.7,2.1,-0.3,10.1,35.23,1.9567,392.7013],
    [20480,1537399030,53.4771,-110.8805,899.6,258.6,356.4,2.4,-0.6,10.2,35.19,1.9567,392.1429],
    [20481,1537399031,53.4777,-110.8805,899.7,259.4,356.4,2.4,-0.5,10.01,34.93,1.9625,392.9553],
    [20482,1537399032,53.4784,-110.8806,899.5,259.6,356.0,2.8,-0.7,9.81,34.8,1.9663,393.4806],
    [20483,1537399033,53.4791,-110.8806,899.2,258.2,356.2,2.4,-0.5,10.14,34.26,1.965,392.8707],
    [20484,1537399034,53.4798,-110.8806,899.0,257.0,356.2,2.3,-0.2,10.05,34.61,1.9623,392.257],
    [20485,1537399035,53.4805,-110.8807,898.9,255.9,356.5,1.9,-0.2,10.09,35.49,1.9652,392.257],
    [20486,1537399036,53.4812,-110.8807,898.7,255.7,356.0,2.2,0.4,10.11,34.56,1.9656,392.8053],
    [20487,1537399037,53.4819,-110.8808,898.6,256.3,356.5,1.4,0.0,10.18,35.11,1.9615,391.4548],
    [20488,1537399038,53.4826,-110.8808,898.6,257.5,355.9,2.0,0.2,9.72,34.53,1.966,394.0358],
    [20489,1537399039,53.4833,-110.8809,898.6,258.7,354.9,3.0,-0.4,9.54,34.52,1.9638,393.3434],
    [20490,1537399040,53.484,-110.881,898.5,258.4,354.9,2.9,-0.4,9.98,34.69,1.9615,392.5339],
    [20491,1537399041,53.4847,-110.881,898.3,257.3,354.9,3.1,-0.5,10.14,34.78,1.9554,392.3249],
    [20492,1537399042,53.4854,-110.8811,898.5,258.6,354.9,3.4,-1.8,10.64,34.01,1.9518,391.8596],
    [20493,1537399043,53.4861,-110.8811,899.4,260.3,354.8,3.9,-2.7,9.48,34.55,1.9506,392.9923],
    [20494,1537399044,53.4868,-110.8812,900.1,264.1,354.4,4.5,-1.2,10.7,34.29,1.9504,392.3412],
    [20495,1537399045,53.4875,-110.8812,900.4,266.8,354.3,4.5,-0.8,9.97,34.54,1.9512,392.6158],
    [20496,1537399046,53.4882,-110.8813,900.1,271.4,355.1,3.5,0.2,9.92,34.56,1.9502,393.5905],
    [20497,1537399047,53.4889,-110.8813,899.4,274.8,355.3,3.6,-0.6,10.18,34.13,1.9449,392.8632],
    [20498,1537399048,53.4896,-110.8814,899.5,276.5,355.7,3.3,-0.3,9.76,34.39,1.943,392.8501],
    [20499,1537399049,53.4903,-110.8814,899.6,277.1,355.8,3.7,-0.1,10.4,33.8,1.9447,393.0632],
    [20500,1537399050,53.491,-110.8814,899.1,275.2,355.8,3.6,-0.7,9.88,34.35,1.9398,392.5605],
    [20501,1537399051,53.4917,-110.8815,898.3,274.3,356.2,3.2,-0.8,9.62,34.0,1.9405,392.7217],
    [20502,1537399052,53.4924,-110.8815,897.6,273.6,355.8,3.4,-0.4,10.49,33.55,1.9415,394.355],
    [20503,1537399053,53.4931,-110.8815,897.5,273.1,355.8,3.2,-0.5,10.08,35.03,1.9413,393.9572],
    [20504,1537399054,53.4938,-110.8816,897.6,272.6,355.3,3.8,-1.3,10.61,33.91,1.9408,393.3229],
    [20505,1537399055,53.4945,-110.8816,897.6,271.8,355.1,3.9,-0.6,9.86,34.11,1.9414,392.8654],
    [20506,1537399056,53.4952,-110.8817,897.5,272.6,355.9,2.5,-0.1,9.92,34.0,1.9416,393.4615],
    [20507,1537399057,53.4959,-110.8817,897.5,273.5,355.9,2.7,-0.1,10.08,34.43,1.9409,393.432],
    [20508,1537399058,53.4966,-110.8817,898.7,274.5,354.7,4.1,-0.2,9.89,34.0,1.94,393.728],
    [20509,1537399059,53.4973,-110.8818,899.8,275.4,354.7,4.1,0.1,10.1,34.65,1.9409,393.8472],
    [20510,1537399060,53.498,-110.8818,899.7,274.6,354.6,4.4,-0.1,10.54,33.31,1.9406,393.0292],
    [20511,1537399061,53.4987,-110.8819,899.0,273.0,354.5,4.6,0.6,10.08,33.88,1.9417,392.7743],
    [20512,1537399062,53.4994,-110.8819,899.8,273.2,354.8,4.1,-0.3,10.2,34.04,1.9399,394.1673],
    [20513,1537399063,53.5,-110.882,901.3,275.0,357.1,1.4,0.6,9.88,34.03,1.9407,394.9499],
    [20514,1537399064,53.5008,-110.882,902.1,275.7,357.2,2.2,0.5,9.73,33.87,1.9403,393.5369],
    [20515,1537399065,53.5015,-110.882,902.6,277.1,355.8,3.9,1.2,10.71,33.48,1.9392,393.6623],
    [20516,1537399066,53.5022,-110.882,902.0,276.1,356.4,3.0,1.2,10.7,33.78,1.9401,393.4543],
    [20517,1537399067,53.5029,-110.8821,901.0,273.5,355.9,3.2,1.2,10.37,34.04,1.995,391.7451],
    [20518,1537399068,53.5036,-110.8821,900.7,271.1,356.4,2.2,0.4,10.28,34.78,2.0892,391.3752],
    [20519,1537399069,53.5043,-110.8822,901.6,268.3,356.7,2.2,0.4,10.17,33.62,2.2288,391.2827],
    [20520,1537399070,53.505,-110.8822,902.3,266.6,355.9,3.6,1.8,9.77,34.01,2.2227,393.4191],
    [20521,1537399071,53.5057,-110.8822,901.6,264.7,355.3,4.4,1.4,10.79,33.42,2.0828,393.338],
    [20522,1537399072,53.5064,-110.8822,899.4,263.7,355.4,4.4,-0.6,9.74,34.06,2.0941,393.338],
    [20523,1537399073,53.5071,-110.8823,897.9,263.6,355.8,3.6,-1.6,10.88,33.77,2.0086,393.947],
    [20524,1537399074,53.5079,-110.8823,897.8,264.8,355.7,3.6,-1.7,10.29,34.17,2.0318,393.453],
    [20525,1537399075,53.5086,-110.8824,898.5,266.5,355.8,3.1,-1.5,9.7,34.15,1.9859,392.8957],
    [20526,1537399076,53.5093,-110.8824,898.7,267.7,355.9,2.9,-2.1,10.34,34.18,1.9527,392.892],
    [20527,1537399077,53.51,-110.8824,898.8,267.8,356.5,2.1,-3.3,10.05,34.39,1.9436,392.6935],
    [20528,1537399078,53.5107,-110.8825,899.1,266.8,356.7,1.6,-2.7,10.84,33.72,1.9411,393.7744],
    [20529,1537399079,53.5114,-110.8825,899.0,264.8,356.1,1.9,-2.0,10.14,34.11,1.939,393.4691],
    [20530,1537399080,53.5121,-110.8826,899.0,263.9,355.8,1.6,-0.4,9.53,34.05,1.9378,392.802],
    [20531,1537399081,53.5128,-110.8827,898.9,263.5,356.0,1.4,-0.8,10.2,34.51,1.9392,393.5437],
    [20532,1537399082,53.5136,-110.8827,898.2,263.9,355.5,2.0,-1.1,10.2,34.29,1.939,392.9154],
    [20533,1537399083,53.5143,-110.8828,897.6,264.6,355.8,1.8,-0.7,9.85,33.92,1.9379,393.1533],
    [20534,1537399084,53.515,-110.8829,896.9,263.9,355.4,2.7,-1.9,10.02,33.71,1.9389,393.5577],
    [20535,1537399085,53.5157,-110.8829,896.7,263.7,354.8,3.4,-0.9,10.26,33.99,1.9387,393.4031],
    [20536,1537399086,53.5164,-110.883,897.7,264.7,354.5,3.5,-0.9,10.28,34.29,1.9374,392.9462],
    [20537,1537399087,53.5171,-110.883,897.9,263.9,355.0,3.1,0.1,10.25,33.89,1.9374,393.2975],
    [20538,1537399088,53.5178,-110.8831,897.0,264.7,355.4,2.6,-0.3,10.67,33.8,1.9382,392.557],
    [20539,1537399089,53.5185,-110.8831,896.8,266.1,355.6,2.7,-1.1,10.2,34.52,1.9391,392.9536],
    [20540,1537399090,53.5192,-110.8832,897.7,269.5,354.6,3.5,0.1,10.11,33.61,1.9376,392.687],
    [20541,1537399091,53.5199,-110.8833,898.4,271.1,354.7,3.0,-0.5,10.17,33.67,1.9372,392.6672],
    [20542,1537399092,53.5206,-110.8833,898.6,272.8,354.2,3.5,-0.7,10.21,34.4,1.9367,390.2847],
    [20543,1537399093,53.5213,-110.8834,899.0,272.9,354.6,3.0,-0.3,10.15,33.42,1.939,393.4213],
    [20544,1537399094,53.522,-110.8835,899.1,273.2,354.6,3.2,-0.6,10.33,33.4,1.9382,393.8896],
    [20545,1537399095,53.5227,-110.8835,899.3,273.4,355.1,2.8,-0.4,10.35,33.33,1.938,391.6742],
    [20546,1537399096,53.5234,-110.8836,899.7,275.7,355.1,2.8,-0.7,10.17,33.55,1.9371,392.9335],
    [20547,1537399097,53.5241,-110.8836,900.0,277.1,355.9,1.9,-1.2,10.41,33.28,1.9373,393.0623],
    [20548,1537399098,53.5248,-110.8837,900.6,278.6,356.0,1.9,-1.2,10.95,33.39,1.9384,393.3328],
    [20549,1537399099,53.5255,-110.8838,901.3,279.3,355.9,1.8,-1.1,10.29,33.74,1.9366,392.4502],
    [20550,1537399100,53.5262,-110.8838,902.0,279.0,356.4,1.2,-1.7,10.61,33.66,1.9372,391.7855],
    [20551,1537399101,53.5269,-110.8839,901.7,277.0,356.1,1.9,-2.4,10.36,34.31,1.9387,394.4931],
    [20552,1537399102,53.5276,-110.8839,900.5,273.8,355.6,2.4,-2.3,10.45,33.27,1.9361,393.0099],
    [20553,1537399103,53.5283,-110.884,900.0,271.1,355.4,2.7,-2.7,10.29,33.44,1.9363,393.347],
    [20554,1537399104,53.5291,-110.884,899.9,269.9,355.0,3.1,-2.4,10.27,33.96,1.9379,393.2709],
    [20555,1537399105,53.5298,-110.8841,899.8,269.8,355.5,2.5,-2.5,10.27,33.69,1.9382,392.265],
    [20556,1537399106,53.5305,-110.8842,899.1,269.1,355.4,2.6,-2.2,10.83,33.2,1.9361,393.4298],
    [20557,1537399107,53.5312,-110.8842,898.6,269.6,355.4,2.4,-2.0,10.2,33.65,1.9362,393.2702],
    [20558,1537399108,53.5319,-110.8843,898.7,270.7,355.3,2.5,-2.1,10.96,32.98,1.9361,393.6174],
    [20559,1537399109,53.5326,-110.8843,898.9,271.7,355.4,2.3,-2.2,10.7,32.4,1.9357,392.0715],
    [20560,1537399110,53.5333,-110.8844,898.9,272.4,355.5,2.2,-2.5,9.87,33.47,1.9361,393.719],
    [20561,1537399111,53.534,-110.8845,898.9,272.8,355.1,2.7,-2.4,10.2,33.08,1.9372,393.823],
    [20562,1537399112,53.5347,-110.8845,899.3,274.3,355.3,2.3,-2.3,10.04,33.55,1.9378,393.8685],
    [20563,1537399113,53.5354,-110.8846,899.8,275.8,355.3,2.4,-2.1,10.22,33.57,1.937,393.27],
    [20564,1537399114,53.5361,-110.8847,900.2,275.5,355.1,2.6,-2.2,10.1,33.16,1.9368,393.4011],
    [20565,1537399115,53.5368,-110.8847,900.1,273.4,355.2,2.8,-2.3,10.96,32.53,1.9378,393.2964],
    [20566,1537399116,53.5375,-110.8848,899.4,270.9,355.3,2.6,-2.5,10.3,32.73,1.937,393.7466],
    [20567,1537399117,53.5382,-110.8848,898.4,268.1,355.7,2.3,-2.1,10.66,32.55,1.9363,393.6673],
    [20568,1537399118,53.5389,-110.8849,898.1,268.1,355.4,2.6,-2.2,9.57,32.95,1.9376,392.477],
    [20569,1537399119,53.5396,-110.8849,898.2,269.2,355.3,2.8,-2.0,10.1,32.98,1.9364,393.0913],
    [20570,1537399120,53.5403,-110.885,898.3,271.0,355.1,2.9,-2.0,10.26,33.59,1.9355,392.4499],
    [20571,1537399121,53.541,-110.8851,898.1,271.3,355.2,2.7,-2.0,10.53,32.57,1.9357,393.1285],
    [20572,1537399122,53.5416,-110.8851,897.9,269.6,355.3,2.6,-1.9,10.05,32.71,1.9361,393.3277],
    [20573,1537399123,53.5423,-110.8852,897.7,268.6,355.4,2.7,-2.5,10.58,32.4,1.9372,391.7067],
    [20574,1537399124,53.543,-110.8852,897.5,269.5,355.2,3.1,-2.7,10.05,32.61,1.9379,394.1286],
    [20575,1537399125,53.5437,-110.8853,897.6,270.6,354.8,3.7,-2.3,10.28,32.76,1.9383,393.5273],
    [20576,1537399126,53.5444,-110.8853,898.5,270.6,354.4,4.2,-2.9,10.68,32.17,1.937,392.8229],
    [20577,1537399127,53.5451,-110.8854,899.2,269.2,355.0,3.6,-2.9,10.92,31.91,1.9378,392.707],
    [20578,1537399128,53.5458,-110.8854,899.4,268.4,355.1,3.4,-3.2,10.37,32.39,1.9371,392.665],
    [20579,1537399129,53.5465,-110.8855,899.5,268.5,355.2,3.1,-3.1,10.17,32.56,1.9373,391.6293],
    [20580,1537399130,53.5472,-110.8856,900.1,269.1,355.6,2.4,-2.1,10.2,32.82,1.936,391.7538],
    [20581,1537399131,53.5479,-110.8856,900.7,269.7,355.1,3.2,-2.1,10.21,32.55,1.9393,393.5919],
    [20582,1537399132,53.5486,-110.8857,900.4,270.1,354.8,3.5,-1.5,10.9,32.42,1.9358,393.5889],
    [20583,1537399133,53.5492,-110.8857,899.0,270.0,355.6,2.6,-1.4,10.06,32.96,1.9362,393.2325],
    [20584,1537399134,53.5499,-110.8858,898.5,270.7,355.2,3.3,-1.7,10.25,33.25,1.9364,394.6662],
    [20585,1537399135,53.5506,-110.8858,898.6,270.5,355.6,3.0,-1.7,10.3,33.38,1.9365,392.9106],
    [20586,1537399136,53.5513,-110.8859,898.3,268.3,355.6,3.3,-1.9,10.31,33.04,1.9361,392.7258],
    [20587,1537399137,53.552,-110.8859,897.9,263.9,355.4,3.6,-2.6,10.24,32.98,1.9374,390.6106],
    [20588,1537399138,53.5527,-110.8859,897.7,262.0,355.1,3.8,-2.1,10.67,32.93,1.9375,394.0788],
    [20589,1537399139,53.5534,-110.886,898.2,263.2,355.0,3.7,-1.5,10.83,32.29,1.9363,392.5228],
    [20590,1537399140,53.5541,-110.886,899.1,266.3,355.3,3.6,-1.8,9.98,32.88,1.9377,391.6613],
    [20591,1537399141,53.5548,-110.8861,899.6,269.1,355.0,4.0,-1.1,9.7,32.73,1.9366,392.1195],
    [20592,1537399142,53.5554,-110.8861,899.7,269.7,355.9,3.1,-2.0,10.67,32.73,1.9374,392.6907],
    [20593,1537399143,53.5561,-110.8862,899.7,269.7,356.3,3.0,-1.7,10.56,32.39,1.9379,393.554],
    [20594,1537399144,53.5568,-110.8862,900.2,270.2,355.0,4.7,-1.8,9.99,33.4,1.9373,392.1827],
    [20595,1537399145,53.5575,-110.8862,900.5,270.5,354.9,4.2,-1.8,10.26,33.5,1.9366,392.1827],
    [20596,1537399146,53.5582,-110.8863,899.8,269.8,355.1,3.5,-0.9,10.32,33.15,1.9372,393.255],
    [20597,1537399147,53.5589,-110.8863,899.3,268.3,355.1,3.1,-2.1,10.03,33.27,1.9375,393.0094],
    [20598,1537399148,53.5596,-110.8864,900.1,268.1,355.4,2.4,-2.0,10.06,33.22,1.9368,393.0094],
    [20599,1537399149,53.5603,-110.8864,901.5,269.5,355.9,1.7,-3.0,10.1,34.05,1.9368,392.6253],
    [20600,1537399150,53.561,-110.8865,902.1,270.1,355.4,2.5,-2.5,10.22,33.2,1.9375,394.0909],
    [20601,1537399151,53.5617,-110.8866,901.5,270.1,355.1,2.6,-2.8,10.27,33.28,1.9384,393.7018],
    [20602,1537399152,53.5623,-110.8866,901.0,270.0,354.9,2.5,-3.1,9.82,33.26,1.9373,392.7225],
    [20603,1537399153,53.563,-110.8867,899.9,268.9,355.3,1.8,-3.1,10.26,33.17,1.9372,392.7661],
    [20604,1537399154,53.5637,-110.8868,899.2,268.5,355.7,1.4,-2.2,10.02,33.4,1.9381,390.9763],
    [20605,1537399155,53.5644,-110.8868,899.0,269.0,355.4,1.8,-1.9,10.22,33.0,1.9371,394.5281],
    [20606,1537399156,53.5651,-110.8869,898.6,268.6,355.1,2.3,-1.7,10.25,34.04,1.937,393.968],
    [20607,1537399157,53.5658,-110.887,897.8,266.8,354.7,2.9,-2.9,9.86,33.16,1.9375,392.6324],
    [20608,1537399158,53.5665,-110.887,897.8,266.8,354.1,3.6,-1.5,9.9,33.19,1.9379,392.43],
    [20609,1537399159,53.5672,-110.8871,898.3,267.3,354.0,3.7,-1.7,10.23,33.55,1.9376,392.9861],
    [20610,1537399160,53.5679,-110.8872,898.3,269.3,353.9,3.9,-1.8,9.98,33.17,1.9367,392.2822],
    [20611,1537399161,53.5686,-110.8872,898.0,271.9,353.8,4.0,-1.8,10.49,32.55,1.9362,392.2822],
    [20612,1537399162,53.5693,-110.8873,897.9,276.9,354.0,3.9,-1.8,10.02,33.0,1.9355,393.3024],
    [20613,1537399163,53.57,-110.8874,898.2,279.1,354.6,3.3,-1.6,9.84,32.75,1.9352,393.3024],
    [20614,1537399164,53.5706,-110.8874,898.8,281.7,354.9,3.5,-1.3,9.97,32.96,1.9364,391.4842],
    [20615,1537399165,53.5713,-110.8875,899.3,283.7,354.4,4.1,-1.2,10.32,33.59,1.9367,391.4544],
    [20616,1537399166,53.572,-110.8875,899.3,286.9,355.1,3.5,-0.5,10.33,32.48,1.938,392.7921],
    [20617,1537399167,53.5727,-110.8876,899.1,286.1,354.6,4.1,-0.7,10.11,33.52,1.9372,392.1776],
    [20618,1537399168,53.5734,-110.8876,898.7,283.5,355.5,3.0,-0.1,9.64,32.9,1.9372,392.3214],
    [20619,1537399169,53.5741,-110.8877,898.4,282.4,355.2,3.2,-0.3,10.44,32.6,1.937,394.0772],
    [20620,1537399170,53.5748,-110.8877,898.3,282.9,354.8,3.7,-1.0,10.32,33.44,1.9372,393.1991],
    [20621,1537399171,53.5755,-110.8878,898.0,284.1,354.3,4.0,-0.4,10.11,33.34,1.9366,394.2388],
    [20622,1537399172,53.5762,-110.8878,898.0,285.0,354.7,3.5,-0.6,10.2,33.47,1.9353,392.7347],
    [20623,1537399173,53.5768,-110.8879,898.2,286.2,354.9,3.2,-0.5,10.05,32.78,1.936,394.0087],
    [20624,1537399174,53.5775,-110.8879,898.4,286.4,355.3,2.7,-0.7,10.21,33.14,1.9367,393.9426],
    [20625,1537399175,53.5782,-110.888,898.2,286.2,355.5,2.6,-0.6,10.25,32.86,1.938,392.8664],
    [20626,1537399176,53.5789,-110.888,898.2,285.9,355.0,3.2,-0.7,10.45,32.27,1.9385,394.0557],
    [20627,1537399177,53.5796,-110.8881,898.8,285.8,354.8,3.3,0.1,10.06,32.77,1.9396,392.942],
    [20628,1537399178,53.5803,-110.8882,899.2,285.4,354.4,3.8,0.2,9.93,32.74,1.9382,393.506],
    [20629,1537399179,53.5809,-110.8882,899.5,285.9,354.1,3.8,1.5,9.67,32.82,1.9372,391.7262],
    [20630,1537399180,53.5816,-110.8883,899.0,286.0,354.8,3.3,0.6,10.15,32.65,1.9378,392.0098],
    [20631,1537399181,53.5823,-110.8883,898.5,286.6,354.7,3.5,0.7,10.04,33.05,1.9388,393.6961],
    [20632,1537399182,53.583,-110.8884,898.3,287.3,355.0,3.4,0.5,9.45,32.96,1.9386,393.0236],
    [20633,1537399183,53.5837,-110.8884,897.9,287.9,354.7,3.9,0.6,10.04,33.16,1.9384,392.5127],
    [20634,1537399184,53.5844,-110.8885,898.1,288.1,354.9,3.6,-0.6,10.48,32.46,1.9375,392.6787],
    [20635,1537399185,53.5851,-110.8885,898.2,288.9,356.0,2.6,-1.0,9.85,33.2,1.9376,393.0707],
    [20636,1537399186,53.5858,-110.8886,897.6,288.6,355.9,2.8,-1.1,10.37,32.9,1.9373,392.525],
    [20637,1537399187,53.5865,-110.8886,897.2,289.2,355.7,2.9,-1.2,10.46,32.55,1.9383,391.8868],
    [20638,1537399188,53.5872,-110.8887,897.2,290.2,355.0,3.6,-1.5,10.09,33.24,1.9388,391.2334],
    [20639,1537399189,53.5878,-110.8887,897.1,291.1,354.6,3.6,-1.8,9.57,33.3,1.9384,393.2936],
    [20640,1537399190,53.5885,-110.8888,896.7,288.7,354.7,3.2,-0.9,10.45,32.59,1.9383,390.6736],
    [20641,1537399191,53.5892,-110.8888,896.9,288.9,354.5,3.2,-1.2,10.75,32.88,1.9378,390.6736],
    [20642,1537399192,53.5899,-110.8889,897.8,289.3,355.5,2.0,-1.3,10.22,33.23,1.9385,391.8465],
    [20643,1537399193,53.5906,-110.889,899.0,288.8,355.7,1.8,-1.0,9.98,33.23,1.9381,393.5076],
    [20644,1537399194,53.5913,-110.889,899.8,290.0,355.8,1.6,-0.6,10.22,33.88,1.9378,393.0484],
    [20645,1537399195,53.592,-110.8891,899.7,288.7,356.0,1.4,-1.4,10.92,32.8,1.9392,393.9699],
    [20646,1537399196,53.5926,-110.8891,899.6,288.5,355.7,1.6,-2.4,9.82,33.16,1.9399,389.8451],
    [20647,1537399197,53.5933,-110.8892,899.9,290.0,356.0,1.1,-2.1,10.37,33.29,1.9383,393.0078],
    [20648,1537399198,53.594,-110.8893,900.1,289.8,355.7,1.4,-1.9,10.04,33.58,1.9394,392.1641],
    [20649,1537399199,53.5947,-110.8893,899.9,289.6,354.4,2.8,-0.3,10.0,33.26,1.9395,392.4674],
    [20650,1537399200,53.5954,-110.8894,899.0,289.0,354.4,2.8,-1.7,10.23,33.06,1.9374,392.9463],
    [20651,1537399201,53.5961,-110.8895,898.4,288.4,354.4,2.6,-2.6,10.31,33.63,1.9385,392.9043],
    [20652,1537399202,53.5968,-110.8896,898.8,289.5,355.1,1.5,-1.2,10.53,33.09,1.9385,392.7603],
    [20653,1537399203,53.5975,-110.8896,899.3,291.4,355.5,1.1,-2.1,11.03,32.54,1.9394,391.5202],
    [20654,1537399204,53.5981,-110.8897,899.7,293.7,355.6,0.8,-2.0,10.08,32.95,1.9391,393.5167],
    [20655,1537399205,53.5988,-110.8898,899.1,293.1,353.6,2.8,-1.9,10.14,33.24,1.9384,392.5242],
    [20656,1537399206,53.5995,-110.8899,898.3,292.3,353.0,3.2,-2.8,9.93,33.29,1.9373,393.2663],
    [20657,1537399207,53.6002,-110.89,897.5,291.5,352.9,3.1,-3.2,10.02,33.28,1.9377,391.034],
    [20658,1537399208,53.6009,-110.8901,897.0,287.2,352.9,3.2,-2.5,10.19,33.26,1.9371,392.4636],
    [20659,1537399209,53.6016,-110.8902,896.5,285.4,352.7,3.5,-2.7,10.32,33.08,1.9374,392.6259],
    [20660,1537399210,53.6023,-110.8903,896.8,285.8,353.5,2.5,-2.4,10.35,32.3,1.9365,393.0801],
    [20661,1537399211,53.603,-110.8904,898.3,288.3,354.6,1.2,-0.5,10.76,32.54,1.9389,392.5914],
    [20662,1537399212,53.6037,-110.8905,899.6,288.6,355.5,0.8,0.1,10.17,33.06,1.9397,392.5914],
    [20663,1537399213,53.6044,-110.8906,900.0,289.0,354.7,2.0,-0.4,9.69,32.92,1.938,392.1548],
    [20664,1537399214,53.605,-110.8906,899.0,288.2,355.1,1.6,-1.6,10.41,32.53,1.9382,392.7923],
    [20665,1537399215,53.6057,-110.8907,898.5,286.5,354.8,1.7,-1.5,10.17,32.84,1.9412,392.7923],
    [20666,1537399216,53.6064,-110.8908,898.6,284.3,354.7,1.7,-1.3,10.12,32.55,1.9403,393.2786],
    [20667,1537399217,53.6071,-110.8909,898.8,283.5,354.4,1.9,-1.0,9.83,32.6,1.9391,393.3112],
    [20668,1537399218,53.6078,-110.891,898.1,280.0,354.2,2.0,-1.1,9.99,32.87,1.9383,394.1427],
    [20669,1537399219,53.6085,-110.8911,897.3,277.6,354.3,2.0,-1.0,9.6,32.86,1.9409,392.4079],
    [20670,1537399220,53.6092,-110.8912,896.8,274.2,353.8,2.7,-1.8,10.15,33.44,1.9407,392.3074],
    [20671,1537399221,53.6099,-110.8912,896.8,271.4,353.9,2.6,-1.6,10.53,32.28,1.9385,392.7658],
    [20672,1537399222,53.6106,-110.8913,896.7,270.6,354.4,2.2,-2.6,10.4,32.26,1.937,393.0122],
    [20673,1537399223,53.6113,-110.8914,897.2,273.2,354.3,2.5,-2.3,10.23,33.62,1.9366,393.5506],
    [20674,1537399224,53.6119,-110.8915,898.2,276.2,354.2,2.6,-1.8,10.56,32.75,1.9385,393.4679],
    [20675,1537399225,53.6126,-110.8916,898.0,275.4,354.7,2.0,-1.9,9.92,33.24,1.9381,393.5107],
    [20676,1537399226,53.6133,-110.8917,897.5,273.3,354.4,2.7,-2.2,9.94,32.85,1.9388,393.2606],
    [20677,1537399227,53.614,-110.8917,897.7,270.6,353.6,3.8,-1.7,10.64,32.23,1.9372,393.0855],
    [20678,1537399228,53.6147,-110.8918,897.8,269.4,353.5,4.1,-1.8,10.26,32.47,1.9379,393.0855],
    [20679,1537399229,53.6154,-110.8919,897.5,269.5,353.4,4.5,-1.9,10.25,32.97,1.9379,392.4147],
    [20680,1537399230,53.6161,-110.8919,898.0,270.7,353.7,4.4,-2.6,10.19,32.69,1.9378,393.0276],
    [20681,1537399231,53.6168,-110.892,898.7,271.1,353.9,4.2,-1.0,10.97,32.18,1.938,393.0341],
    [20682,1537399232,53.6175,-110.8921,898.8,269.8,353.7,4.2,-1.7,10.08,32.71,1.9393,390.3575],
    [20683,1537399233,53.6181,-110.8921,897.9,269.0,353.7,4.4,-2.2,10.08,32.42,1.9385,394.2343],
    [20684,1537399234,53.6188,-110.8922,897.7,269.7,353.5,4.6,-0.9,9.49,32.35,1.9379,393.9744],
    [20685,1537399235,53.6195,-110.8923,898.0,273.0,353.9,4.2,0.0,10.48,31.71,1.9376,393.9077],
    [20686,1537399236,53.6202,-110.8923,898.3,273.6,354.1,4.1,0.1,10.49,31.58,1.9387,392.2045],
    [20687,1537399237,53.6209,-110.8924,898.7,272.2,354.2,3.7,0.1,9.94,32.32,1.9386,392.2659],
    [20688,1537399238,53.6216,-110.8924,898.0,269.8,355.0,2.9,-0.3,10.16,32.53,1.9383,393.5428],
    [20689,1537399239,53.6223,-110.8925,897.1,268.1,354.6,3.3,-0.7,10.29,31.88,1.9379,393.5548],
    [20690,1537399240,53.6229,-110.8925,896.4,268.3,355.6,2.2,-0.2,9.76,32.14,1.9372,392.6248],
    [20691,1537399241,53.6236,-110.8926,896.2,271.2,355.4,2.7,-0.2,10.54,32.51,1.9392,394.5714],
    [20692,1537399242,53.6243,-110.8927,896.3,273.8,355.4,2.6,0.4,10.2,33.08,1.9373,393.3612],
    [20693,1537399243,53.625,-110.8927,896.5,275.8,355.5,2.5,0.0,10.32,32.42,1.9373,393.3612],
    [20694,1537399244,53.6257,-110.8928,896.6,277.9,355.0,3.1,0.3,10.97,31.95,1.9378,392.0696],
    [20695,1537399245,53.6264,-110.8928,896.8,280.9,354.2,3.9,0.2,10.22,32.23,1.9379,393.5764],
    [20696,1537399246,53.6271,-110.8929,896.5,281.5,354.2,3.6,-0.1,10.43,31.98,1.9373,393.5764],
    [20697,1537399247,53.6278,-110.8929,895.8,281.8,354.4,3.2,-0.3,10.24,32.46,1.9385,392.8881],
    [20698,1537399248,53.6285,-110.893,895.4,282.4,354.5,2.9,0.5,9.5,32.42,1.9385,392.5696],
    [20699,1537399249,53.6291,-110.8931,895.7,282.9,354.2,3.1,0.7,9.68,32.46,1.9375,392.4625],
    [20700,1537399250,53.6298,-110.8931,896.0,285.1,354.3,2.8,0.4,10.25,32.23,1.9359,393.2005],
    [20701,1537399251,53.6305,-110.8932,897.1,287.2,354.4,2.7,0.2,10.08,32.46,1.9378,392.2404],
    [20702,1537399252,53.6312,-110.8933,898.1,288.4,354.8,2.1,0.6,9.94,32.54,1.9389,393.836],
    [20703,1537399253,53.6319,-110.8934,898.9,289.7,355.0,1.9,0.8,10.17,32.43,1.9388,393.836],
    [20704,1537399254,53.6326,-110.8934,899.8,289.8,354.8,2.2,-0.1,9.75,32.61,1.9391,392.3124],
    [20705,1537399255,53.6333,-110.8935,900.5,289.4,354.4,2.6,-0.9,9.66,32.64,1.9395,393.1574],
    [20706,1537399256,53.634,-110.8936,900.2,288.1,355.1,1.7,-1.5,9.97,32.57,1.9392,393.1821],
    [20707,1537399257,53.6346,-110.8937,899.7,287.7,355.1,1.6,-1.8,9.42,32.7,1.9388,392.4793],
    [20708,1537399258,53.6353,-110.8937,898.9,285.9,355.6,0.8,-1.6,9.99,32.4,1.9409,392.2367],
    [20709,1537399259,53.636,-110.8938,898.2,285.2,354.8,1.8,-1.6,10.9,32.27,1.9391,391.7942],
    [20710,1537399260,53.6367,-110.8939,898.2,285.2,353.9,2.6,-0.9,10.51,32.25,1.9387,392.3515],
    [20711,1537399261,53.6374,-110.894,898.2,285.2,353.6,3.0,-0.5,10.71,32.17,1.9394,392.9343],
    [20712,1537399262,53.6381,-110.8941,897.4,283.3,352.6,4.4,-2.0,10.19,33.37,1.9404,392.4437],
    [20713,1537399263,53.6388,-110.8942,896.4,281.4,353.3,3.6,-1.9,10.16,32.51,1.9402,392.6415],
    [20714,1537399264,53.6395,-110.8943,897.1,281.1,353.6,3.3,-2.1,10.17,32.7,1.9403,391.5772],
    [20715,1537399265,53.6402,-110.8943,898.4,281.4,354.2,2.7,-1.8,10.65,31.49,1.9409,393.1622],
    [20716,1537399266,53.6409,-110.8944,899.2,282.2,354.2,3.1,-2.4,9.56,32.14,1.9384,392.9754],
    [20717,1537399267,53.6416,-110.8945,899.9,283.0,353.7,4.0,-2.7,10.06,32.57,1.9392,393.6114],
    [20718,1537399268,53.6423,-110.8946,901.1,282.0,353.6,3.9,-3.1,10.09,32.19,1.9402,392.7398],
    [20719,1537399269,53.6429,-110.8946,901.7,281.7,355.9,1.0,-1.6,10.08,31.98,1.9398,390.3765],
    [20720,1537399270,53.6436,-110.8947,901.7,282.7,356.1,0.9,-0.4,9.8,32.1,1.9387,393.3026],
    [20721,1537399271,53.6443,-110.8948,901.5,282.5,355.6,1.5,-2.4,11.07,31.77,1.9421,393.0551],
    [20722,1537399272,53.645,-110.8948,901.8,281.7,355.0,2.1,-1.6,9.68,31.85,1.941,391.7904],
    [20723,1537399273,53.6457,-110.8949,901.3,279.2,354.2,2.7,-1.1,9.89,32.03,1.9408,391.7904],
    [20724,1537399274,53.6464,-110.895,900.1,274.7,353.9,3.0,-1.9,10.56,31.73,1.9395,392.2756],
    [20725,1537399275,53.6471,-110.8951,898.7,269.7,353.5,3.6,-2.6,10.76,31.71,1.9372,392.5108],
    [20726,1537399276,53.6478,-110.8952,898.1,263.0,353.3,3.8,-2.8,10.0,31.97,1.9368,393.9281],
    [20727,1537399277,53.6485,-110.8952,898.1,260.4,353.5,3.5,-2.6,10.0,31.78,1.9371,392.5907],
    [20728,1537399278,53.6492,-110.8953,898.4,259.4,353.5,3.7,-2.4,10.47,30.96,1.9375,393.0772],
    [20729,1537399279,53.6499,-110.8954,899.0,259.9,353.5,4.0,-2.1,10.04,31.63,1.9385,393.5464],
    [20730,1537399280,53.6505,-110.8955,899.2,261.2,353.6,4.1,-2.3,10.37,30.77,1.9391,391.6073],
    [20731,1537399281,53.6513,-110.8956,899.2,263.2,353.5,4.5,-2.5,10.29,31.0,1.939,392.8714],
    [20732,1537399282,53.6519,-110.8956,899.1,264.4,353.7,4.2,-2.4,10.13,31.46,1.9381,394.4568],
    [20733,1537399283,53.6526,-110.8957,899.1,263.7,353.8,4.3,-2.0,9.97,31.36,1.938,392.9306],
    [20734,1537399284,53.6533,-110.8958,899.2,262.4,353.8,4.4,-1.8,10.09,31.1,1.9387,393.7963],
    [20735,1537399285,53.654,-110.8958,899.1,261.5,353.9,4.7,-1.8,10.21,31.61,1.9378,392.5034],
    [20736,1537399286,53.6547,-110.8959,899.0,261.7,353.8,4.9,-2.1,10.42,30.64,1.9386,393.1374],
    [20737,1537399287,53.6554,-110.8959,898.8,260.5,354.1,4.7,-1.6,9.74,30.87,1.9382,393.146],
    [20738,1537399288,53.6561,-110.896,898.5,259.6,354.3,4.6,-1.8,10.62,30.28,1.9381,391.3932],
    [20739,1537399289,53.6568,-110.896,898.4,259.5,354.4,4.4,-1.5,10.21,31.39,1.9374,392.9982],
    [20740,1537399290,53.6575,-110.8961,898.7,258.7,354.4,4.6,-2.2,10.84,30.16,1.9373,393.8845],
    [20741,1537399291,53.6582,-110.8961,899.4,260.8,355.1,3.9,-1.2,10.25,30.03,1.9386,392.7565],
    [20742,1537399292,53.6589,-110.8962,899.9,262.9,354.8,4.5,-0.6,10.06,31.03,1.9383,392.3388],
    [20743,1537399293,53.6596,-110.8962,899.8,261.8,354.6,4.6,-0.2,9.85,30.29,1.9374,393.9222],
    [20744,1537399294,53.6602,-110.8962,899.5,257.2,354.6,4.4,-0.2,9.96,30.77,1.9363,392.9709],
    [20745,1537399295,53.6609,-110.8963,899.1,251.1,353.8,5.2,-0.6,9.95,30.64,1.9394,393.5115],
    [20746,1537399296,53.6616,-110.8963,899.0,249.0,354.0,4.6,0.1,10.56,30.64,1.9381,393.5115],
    [20747,1537399297,53.6623,-110.8964,899.7,250.0,354.5,3.9,0.5,10.15,31.03,1.9373,392.1952],
    [20748,1537399298,53.663,-110.8964,899.6,251.6,354.7,3.5,0.8,10.82,30.51,1.938,394.3066],
    [20749,1537399299,53.6637,-110.8965,898.8,250.7,354.8,3.5,0.3,10.18,30.71,1.9376,394.4168],
    [20750,1537399300,53.6644,-110.8966,898.2,248.7,354.3,3.8,0.1,10.64,30.58,1.9382,393.2077],
    [20751,1537399301,53.6651,-110.8966,898.2,246.1,354.0,3.9,0.0,9.84,30.57,1.9392,393.8719],
    [20752,1537399302,53.6658,-110.8967,897.8,245.6,354.1,3.6,-0.2,10.29,30.47,1.9385,392.043],
    [20753,1537399303,53.6665,-110.8967,897.2,245.9,354.8,3.1,-0.4,10.11,30.87,1.939,393.1452],
    [20754,1537399304,53.6672,-110.8968,897.9,247.5,354.2,3.9,-0.3,10.11,31.44,1.9406,393.7082],
    [20755,1537399305,53.6679,-110.8969,898.9,251.6,355.7,2.5,0.0,10.28,30.71,1.9408,393.9517],
    [20756,1537399306,53.6686,-110.8969,899.3,255.6,355.5,2.9,-0.3,9.92,31.34,1.9387,392.673],
    [20757,1537399307,53.6693,-110.897,899.3,258.9,356.1,2.2,0.0,9.88,31.16,1.9368,392.984],
    [20758,1537399308,53.67,-110.897,899.4,260.3,355.3,3.2,0.9,9.73,30.84,1.9394,393.3704],
    [20759,1537399309,53.6707,-110.897,898.8,260.8,355.5,3.2,0.8,9.86,30.92,1.9378,393.3409],
    [20760,1537399310,53.6714,-110.8971,897.6,258.6,356.0,3.1,0.2,10.19,31.25,1.9384,392.7027],
    [20761,1537399311,53.672,-110.8971,897.1,257.1,356.6,2.5,-0.1,10.04,30.73,1.9386,393.5985],
    [20762,1537399312,53.6728,-110.8972,897.7,256.0,356.9,2.1,-0.5,10.37,30.58,1.9377,393.8534],
    [20763,1537399313,53.6735,-110.8972,898.6,254.1,357.3,1.5,-0.3,10.33,30.83,1.939,393.8534],
    [20764,1537399314,53.6742,-110.8972,898.6,250.2,357.4,1.3,0.1,9.87,30.5,1.9377,394.303],
    [20765,1537399315,53.6749,-110.8973,897.8,245.8,356.3,2.3,0.1,9.66,30.58,1.9377,392.4807],
    [20766,1537399316,53.6756,-110.8973,897.7,243.7,355.0,3.0,0.1,10.13,30.25,1.9381,393.208],
    [20767,1537399317,53.6763,-110.8974,898.7,243.8,354.5,3.0,0.8,10.19,31.16,1.9385,392.3949],
    [20768,1537399318,53.677,-110.8974,899.3,243.3,354.0,3.6,-0.1,10.21,30.25,1.939,393.1303],
    [20769,1537399319,53.6776,-110.8975,898.7,241.9,353.2,4.5,0.5,10.42,30.11,1.9389,392.2851],
    [20770,1537399320,53.6783,-110.8976,898.3,239.6,353.5,4.3,-0.9,10.46,29.99,1.9388,391.9311],
    [20771,1537399321,53.679,-110.8976,898.9,238.2,354.6,3.7,-1.6,10.3,30.33,1.9385,393.617],
    [20772,1537399322,53.6797,-110.8977,899.2,233.8,355.1,3.5,-0.8,10.12,30.71,1.938,394.261],
    [20773,1537399323,53.6804,-110.8977,899.2,232.2,355.1,3.6,0.1,9.85,30.67,1.9384,392.0966],
    [20774,1537399324,53.6811,-110.8978,899.4,230.4,354.8,3.9,1.2,10.23,30.82,1.9393,393.7084],
    [20775,1537399325,53.6818,-110.8978,898.9,228.2,354.6,4.1,1.2,9.93,30.63,1.9377,392.4758],
    [20776,1537399326,53.6825,-110.8979,898.2,225.1,354.4,4.0,1.2,9.8,31.27,1.9398,393.9653],
    [20777,1537399327,53.6832,-110.8979,897.9,224.9,354.3,4.0,0.8,10.56,30.29,1.937,392.9712],
    [20778,1537399328,53.6839,-110.898,898.3,226.6,354.3,3.8,0.7,9.74,30.65,1.9388,393.2425],
    [20779,1537399329,53.6846,-110.898,898.8,228.8,354.2,3.9,0.7,10.13,30.84,1.9384,393.2425],
    [20780,1537399330,53.6853,-110.8981,898.9,230.8,354.7,3.4,-1.3,10.12,30.75,1.9393,393.5663],
    [20781,1537399331,53.686,-110.8982,899.2,235.4,354.1,4.4,-1.2,10.18,31.42,1.9381,393.376],
    [20782,1537399332,53.6867,-110.8982,899.7,245.4,354.0,4.4,-1.3,10.58,30.81,1.9374,393.6074],
    [20783,1537399333,53.6874,-110.8983,899.7,250.3,354.8,3.6,-1.2,10.61,29.94,1.9372,393.744],
    [20784,1537399334,53.6881,-110.8983,898.9,252.7,354.6,4.1,-1.2,10.45,30.34,1.9371,394.2822],
    [20785,1537399335,53.6888,-110.8984,898.5,251.2,354.6,4.0,-0.9,10.06,30.63,1.9384,392.1919],
    [20786,1537399336,53.6895,-110.8984,898.6,247.5,354.8,3.8,-0.6,9.83,30.56,1.9373,394.7616],
    [20787,1537399337,53.6902,-110.8985,898.9,247.8,354.7,3.9,-0.8,10.44,30.09,1.9386,394.7616],
    [20788,1537399338,53.6909,-110.8985,899.2,249.9,354.6,4.1,-1.3,10.16,30.1,1.939,392.9784],
    [20789,1537399339,53.6916,-110.8986,900.1,252.7,354.4,4.4,-0.4,10.36,30.57,1.9381,393.211],
    [20790,1537399340,53.6923,-110.8986,900.1,253.1,354.4,4.3,-0.5,10.12,30.38,1.9392,393.8437],
    [20791,1537399341,53.693,-110.8987,899.4,251.4,354.9,3.8,-0.3,9.72,30.3,1.9385,393.7365],
    [20792,1537399342,53.6937,-110.8987,899.6,251.6,355.2,3.3,-0.8,9.98,30.17,1.9375,391.9626],
    [20793,1537399343,53.6944,-110.8988,900.2,253.2,355.9,2.5,-1.2,10.0,30.23,1.9386,394.141],
    [20794,1537399344,53.6951,-110.8988,900.2,251.5,355.6,2.7,-1.9,10.24,29.96,1.9383,393.6592],
    [20795,1537399345,53.6958,-110.8989,900.0,251.0,355.2,2.8,-2.6,10.21,30.01,1.9375,393.792],
    [20796,1537399346,53.6965,-110.899,900.2,251.1,354.5,3.5,-2.3,10.34,29.61,1.9382,393.6866],
    [20797,1537399347,53.6972,-110.899,900.4,253.5,354.0,3.9,-2.3,9.69,29.82,1.9389,393.4482],
    [20798,1537399348,53.6979,-110.8991,900.5,254.5,354.1,3.6,-2.2,10.03,29.65,1.9377,391.53],
    [20799,1537399349,53.6986,-110.8992,900.0,255.0,354.7,2.9,-2.3,10.13,30.19,1.9388,393.2789],
    [20800,1537399350,53.6993,-110.8992,899.5,254.5,354.8,2.8,-1.9,9.78,29.64,1.9374,393.1014],
    [20801,1537399351,53.7,-110.8993,899.4,254.4,354.6,3.1,-1.8,9.89,29.66,1.9379,392.7262],
    [20802,1537399352,53.7007,-110.8994,899.2,253.6,354.8,2.9,-2.0,10.06,29.49,1.9377,392.4988],
    [20803,1537399353,53.7014,-110.8994,899.1,253.1,354.9,2.9,-2.1,10.57,29.23,1.9368,393.6403],
    [20804,1537399354,53.7021,-110.8995,898.9,252.9,354.6,3.4,-1.6,10.13,29.72,1.938,391.1897],
    [20805,1537399355,53.7028,-110.8996,898.5,254.5,354.2,3.8,-2.0,10.07,29.35,1.9379,393.0099],
    [20806,1537399356,53.7035,-110.8996,898.0,256.3,354.6,3.2,-1.7,9.99,30.03,1.9379,394.1891],
    [20807,1537399357,53.7042,-110.8997,897.3,256.3,354.0,4.0,-1.2,10.1,29.64,1.9385,393.6511],
    [20808,1537399358,53.7049,-110.8998,897.1,256.1,354.0,3.9,-1.3,10.33,29.43,1.9378,393.6435],
    [20809,1537399359,53.7056,-110.8998,897.3,255.9,354.3,3.5,-0.7,10.16,29.98,1.9394,393.8177],
    [20810,1537399360,53.7063,-110.8999,897.7,256.7,354.5,3.2,-1.2,9.91,29.25,1.9384,394.1055],
    [20811,1537399361,53.707,-110.8999,897.6,256.6,355.2,2.5,-0.4,10.15,29.72,1.9381,393.6267],
    [20812,1537399362,53.7077,-110.9,897.2,252.6,355.0,2.9,-0.4,10.29,30.03,1.938,394.0853],
    [20813,1537399363,53.7084,-110.9001,896.9,248.2,354.9,3.0,-0.1,9.94,29.33,1.9376,393.7568],
    [20814,1537399364,53.7091,-110.9001,896.6,245.5,355.0,2.9,0.1,9.73,29.36,1.9372,393.7568],
    [20815,1537399365,53.7098,-110.9002,896.5,244.5,355.0,2.9,0.1,10.17,28.84,1.9374,392.5505],
    [20816,1537399366,53.7105,-110.9002,896.6,244.6,354.6,3.4,-0.5,10.14,29.84,1.9394,393.8887],
    [20817,1537399367,53.7112,-110.9003,896.4,244.4,354.6,3.5,-0.5,10.58,29.14,1.9393,392.7158],
    [20818,1537399368,53.7119,-110.9004,896.4,245.1,354.8,3.1,-0.4,9.92,29.6,1.938,393.2103],
    [20819,1537399369,53.7125,-110.9004,896.5,248.2,354.8,3.2,-0.2,9.65,29.26,1.938,394.2024],
    [20820,1537399370,53.7132,-110.9005,896.8,251.1,354.8,3.3,0.4,10.36,29.47,1.9382,393.5599],
    [20821,1537399371,53.7139,-110.9005,897.3,254.5,354.7,3.5,0.6,9.99,29.11,1.9382,393.846],
    [20822,1537399372,53.7146,-110.9006,897.4,257.3,354.6,3.6,0.5,10.24,29.18,1.9392,393.6703],
    [20823,1537399373,53.7153,-110.9006,897.4,262.5,354.4,3.7,0.7,9.96,29.38,1.9384,393.4172],
    [20824,1537399374,53.716,-110.9007,897.7,265.4,353.9,4.5,-0.1,9.62,29.34,1.938,393.4881],
    [20825,1537399375,53.7167,-110.9007,898.5,267.5,354.3,4.2,-0.4,9.82,29.5,1.939,394.2927],
    [20826,1537399376,53.7174,-110.9008,899.6,269.6,354.8,3.7,0.0,10.14,29.55,1.9385,394.1816],
    [20827,1537399377,53.718,-110.9008,900.5,271.5,355.8,2.6,-0.1,10.14,29.59,1.9382,394.1029],
    [20828,1537399378,53.7187,-110.9009,901.0,272.9,356.2,2.2,-1.2,10.3,29.8,1.9401,393.8236],
    [20829,1537399379,53.7194,-110.9009,901.3,274.2,356.7,1.6,-0.6,10.18,29.62,1.9414,393.473],
    [20830,1537399380,53.7201,-110.901,900.4,274.2,355.8,2.6,-0.8,10.21,29.79,1.9446,393.222],
    [20831,1537399381,53.7208,-110.901,899.1,274.1,355.2,3.2,-1.1,9.63,29.91,1.9464,393.0774],
    [20832,1537399382,53.7215,-110.9011,898.4,275.8,356.2,1.6,-1.0,9.88,30.11,1.9451,394.0299],
    [20833,1537399383,53.7222,-110.9011,898.0,276.0,356.9,0.6,-1.7,10.06,30.23,1.9428,394.6432],
    [20834,1537399384,53.7229,-110.9012,898.6,278.6,356.3,1.4,-1.6,10.32,30.4,1.9446,394.0527],
    [20835,1537399385,53.7236,-110.9012,899.3,279.3,355.7,1.8,-2.0,9.78,30.62,1.9447,392.7765],
    [20836,1537399386,53.7243,-110.9013,899.7,279.7,356.1,1.0,-1.1,9.95,30.73,1.942,394.1147],
    [20837,1537399387,53.725,-110.9014,899.4,279.4,355.6,1.3,-1.8,9.95,30.88,1.9414,394.3437],
    [20838,1537399388,53.7256,-110.9015,899.3,279.4,355.3,1.3,-1.3,10.11,31.86,1.9424,393.7802],
    [20839,1537399389,53.7263,-110.9015,899.6,279.7,354.8,1.7,-0.8,10.31,31.1,1.9422,394.9979],
    [20840,1537399390,53.727,-110.9016,899.9,278.8,354.5,2.0,-1.5,10.17,31.17,1.9412,392.6032],
    [20841,1537399391,53.7278,-110.9017,899.6,279.6,354.9,1.5,-1.3,9.86,31.51,1.9418,393.6307],
    [20842,1537399392,53.7284,-110.9018,899.2,281.2,355.1,1.4,-2.3,10.2,32.07,1.9426,393.3867],
    [20843,1537399393,53.7291,-110.9019,899.5,281.5,355.0,1.7,-2.3,9.93,31.83,1.9433,394.7542],
    [20844,1537399394,53.7298,-110.902,900.2,282.2,354.6,2.2,-2.9,10.72,31.57,1.942,393.2485],
    [20845,1537399395,53.7305,-110.902,900.5,282.5,353.6,3.3,-1.3,9.93,31.96,1.9424,393.2485],
    [20846,1537399396,53.7312,-110.9021,899.8,281.8,353.0,3.9,-1.1,10.43,32.09,1.9418,393.1903],
    [20847,1537399397,53.7319,-110.9022,899.5,280.8,353.3,3.4,0.0,10.11,32.21,1.9415,392.873],
    [20848,1537399398,53.7326,-110.9023,898.5,278.6,353.7,3.1,-0.5,10.63,31.96,1.9434,391.9053],
    [20849,1537399399,53.7334,-110.9024,897.0,275.4,354.1,3.0,-1.3,10.17,32.12,1.9419,390.5565],
    [20850,1537399400,53.7341,-110.9025,896.8,273.7,355.6,1.5,-0.5,10.68,31.74,1.9417,393.6407],
    [20851,1537399401,53.7348,-110.9025,897.8,273.8,356.2,1.2,-0.9,10.57,31.63,1.9429,392.1999],
    [20852,1537399402,53.7355,-110.9026,898.9,273.9,355.4,2.4,-1.6,10.82,31.62,1.9423,394.148],
    [20853,1537399403,53.7362,-110.9026,898.5,273.5,355.6,2.1,-2.1,10.09,32.36,1.9415,393.1177],
    [20854,1537399404,53.7369,-110.9027,897.9,272.9,355.6,2.0,-2.4,10.01,33.11,1.9405,393.5006],
    [20855,1537399405,53.7376,-110.9028,897.7,272.7,355.2,2.2,-0.5,9.85,32.39,1.9417,392.2349],
    [20856,1537399406,53.7383,-110.9028,896.3,271.3,354.0,3.7,-1.1,10.19,33.13,1.9427,394.0549],
    [20857,1537399407,53.739,-110.9029,894.9,269.6,354.2,3.0,-0.4,10.25,32.37,1.9408,392.9606],
    [20858,1537399408,53.7397,-110.903,894.6,268.6,355.2,1.8,-1.1,10.94,31.91,1.942,392.9646],
    [20859,1537399409,53.7404,-110.9031,895.2,269.2,354.9,2.5,-0.6,10.31,32.4,1.9414,394.0546],
    [20860,1537399410,53.7411,-110.9031,894.9,268.9,354.5,2.9,-1.5,9.67,32.39,1.9386,392.4807],
    [20861,1537399411,53.7418,-110.9032,894.5,268.5,355.1,2.3,-1.8,9.73,32.09,1.9416,393.2556],
    [20862,1537399412,53.7425,-110.9033,895.6,269.6,355.6,1.5,-1.3,10.3,32.04,1.9426,393.2556],
    [20863,1537399413,53.7432,-110.9033,897.5,272.3,355.7,1.4,-1.6,10.75,32.03,1.9432,392.1461],
    [20864,1537399414,53.7439,-110.9034,899.5,274.2,355.0,2.3,-1.6,10.49,32.11,1.9438,392.9611],
    [20865,1537399415,53.7446,-110.9035,900.0,274.7,354.7,2.5,-0.7,10.19,32.94,1.9434,393.1738],
    [20866,1537399416,53.7453,-110.9036,899.0,274.0,355.0,2.3,-1.4,10.2,33.1,1.9423,394.1414],
    [20867,1537399417,53.746,-110.9036,897.9,274.6,355.9,1.5,-1.1,9.67,32.53,1.9432,394.1941],
    [20868,1537399418,53.7468,-110.9037,897.4,275.9,356.4,1.2,-0.8,10.64,32.04,1.9437,393.3968],
    [20869,1537399419,53.7475,-110.9037,896.9,275.4,356.3,1.6,-0.1,10.17,32.46,1.9435,394.4894],
    [20870,1537399420,53.7482,-110.9038,896.9,275.3,355.7,2.2,-0.2,10.25,32.63,1.9433,393.3662],
    [20871,1537399421,53.7489,-110.9038,896.7,274.3,356.0,1.8,-0.3,10.22,32.34,1.9427,393.041],
    [20872,1537399422,53.7496,-110.9039,896.6,271.9,355.2,2.6,0.0,10.26,32.76,1.9426,393.8117],
    [20873,1537399423,53.7503,-110.904,896.4,270.9,355.1,2.3,0.3,10.18,32.71,1.9417,394.1998],
    [20874,1537399424,53.7509,-110.904,896.0,269.7,355.1,2.4,-0.6,10.45,32.68,1.9416,392.5383],
    [20875,1537399425,53.7517,-110.9041,896.4,270.2,354.7,3.0,-0.4,10.91,32.28,1.9421,393.5493],
    [20876,1537399426,53.7524,-110.9042,897.1,273.4,354.7,2.9,-0.1,10.1,33.02,1.9426,393.1263],
    [20877,1537399427,53.7531,-110.9042,897.4,276.2,355.4,2.1,0.2,10.94,32.18,1.9434,394.1727],
    [20878,1537399428,53.7538,-110.9043,897.7,279.5,354.8,3.0,-0.4,9.74,32.4,1.9429,393.1331],
    [20879,1537399429,53.7545,-110.9044,897.7,282.7,354.6,3.0,0.6,10.77,32.31,1.942,393.7434],
    [20880,1537399430,53.7551,-110.9044,897.4,284.3,355.0,2.4,0.5,9.87,32.44,1.9414,392.6347],
    [20881,1537399431,53.7558,-110.9045,897.3,285.2,355.0,2.6,0.9,10.16,33.05,1.9413,392.3822],
    [20882,1537399432,53.7565,-110.9045,897.3,285.3,354.9,2.4,0.9,10.16,33.49,1.9407,392.945],
    [20883,1537399433,53.7572,-110.9046,897.5,285.2,355.4,2.0,0.5,9.79,32.65,1.9419,393.96],
    [20884,1537399434,53.7579,-110.9047,897.6,284.6,355.0,2.3,0.7,9.84,33.24,1.941,393.96],
    [20885,1537399435,53.7586,-110.9047,897.7,284.7,355.3,2.0,0.4,9.91,32.78,1.9427,392.6001],
    [20886,1537399436,53.7593,-110.9048,897.6,284.6,355.5,1.9,-0.3,10.18,32.37,1.9431,392.0852],
    [20887,1537399437,53.76,-110.9049,898.0,285.0,355.2,2.4,0.0,10.13,32.78,1.9424,392.0852],
    [20888,1537399438,53.7607,-110.9049,898.6,283.4,354.6,3.0,0.3,9.93,33.1,1.9435,394.49],
    [20889,1537399439,53.7614,-110.905,898.6,281.2,354.6,3.0,-0.2,10.12,32.43,1.943,392.6157],
    [20890,1537399440,53.7621,-110.9051,898.3,273.9,354.8,2.6,0.2,10.17,33.07,1.9416,392.258],
    [20891,1537399441,53.7627,-110.9051,898.0,270.9,355.5,1.8,-0.4,10.81,32.15,1.9418,393.9172],
    [20892,1537399442,53.7634,-110.9052,897.8,266.7,354.8,2.7,0.0,10.0,32.74,1.9418,393.6402],
    [20893,1537399443,53.7641,-110.9053,897.6,265.1,354.8,2.5,-0.2,10.14,32.5,1.9416,391.9458],
    [20894,1537399444,53.7648,-110.9053,897.4,261.4,354.8,2.5,-0.5,9.77,32.69,1.942,392.6084],
    [20895,1537399445,53.7655,-110.9054,897.6,261.6,354.7,2.6,-0.2,10.11,33.55,1.9408,394.3182],
    [20896,1537399446,53.7662,-110.9055,897.4,263.4,354.5,3.0,0.7,10.1,32.83,1.9411,394.3182],
    [20897,1537399447,53.7669,-110.9055,897.0,265.6,354.6,3.0,0.6,10.11,33.33,1.9407,394.0573],
    [20898,1537399448,53.7676,-110.9056,896.8,268.1,355.1,2.7,0.7,10.75,32.63,1.9408,393.7999],
    [20899,1537399449,53.7683,-110.9056,897.0,270.9,355.1,3.1,0.5,10.23,32.76,1.9399,394.1573],
    [20900,1537399450,53.769,-110.9057,896.8,275.8,355.1,3.0,0.5,10.03,32.8,1.9419,394.1573],
    [20901,1537399451,53.7697,-110.9057,896.7,278.3,355.4,2.7,0.6,10.13,32.59,1.9417,393.0477],
    [20902,1537399452,53.7704,-110.9058,896.9,282.9,355.4,2.6,0.9,10.09,33.27,1.942,392.5118],
    [20903,1537399453,53.7711,-110.9059,897.0,283.8,355.1,3.0,0.6,10.24,32.38,1.9416,393.7241],
    [20904,1537399454,53.7718,-110.9059,896.9,283.9,354.9,3.3,0.5,10.34,32.59,1.9407,392.0687],
    [20905,1537399455,53.7724,-110.906,896.9,282.8,355.0,3.2,0.6,9.84,32.81,1.9405,394.1926],
    [20906,1537399456,53.7731,-110.906,897.1,279.6,354.9,3.3,0.7,9.65,32.8,1.9411,394.2582],
    [20907,1537399457,53.7738,-110.9061,897.0,278.0,355.0,3.0,0.6,9.99,32.69,1.9403,393.4138],
    [20908,1537399458,53.7745,-110.9061,896.9,275.9,355.1,3.0,0.5,10.57,32.05,1.9404,393.1947],
    [20909,1537399459,53.7752,-110.9062,897.2,275.2,355.1,3.1,0.5,9.56,32.85,1.9404,392.897],
    [20910,1537399460,53.7759,-110.9062,897.4,275.4,355.3,2.9,0.7,9.94,32.72,1.9418,392.9151],
    [20911,1537399461,53.7766,-110.9063,897.3,276.4,355.2,3.0,0.9,9.57,32.49,1.9424,392.9284],
    [20912,1537399462,53.7773,-110.9063,896.9,276.9,355.2,3.1,0.8,10.09,33.13,1.9399,392.6361],
    [20913,1537399463,53.778,-110.9064,896.6,276.6,355.0,3.1,0.8,9.69,32.81,1.94,391.8585],
    [20914,1537399464,53.7787,-110.9064,896.5,275.6,355.0,3.1,0.9,10.14,32.91,1.9394,392.7953],
    [20915,1537399465,53.7794,-110.9065,896.4,274.4,355.0,3.1,0.7,9.64,32.23,1.9397,392.5337],
    [20916,1537399466,53.7801,-110.9065,896.3,274.0,355.0,3.2,0.6,10.1,32.29,1.9403,393.2921],
    [20917,1537399467,53.7808,-110.9066,896.4,275.2,355.1,3.1,0.6,10.41,31.72,1.9402,393.2339],
    [20918,1537399468,53.7814,-110.9067,896.7,279.0,355.2,3.0,0.4,9.94,32.2,1.9398,394.0105],
    [20919,1537399469,53.7821,-110.9067,896.9,281.9,355.1,3.1,0.8,10.22,32.1,1.9403,394.8166],
    [20920,1537399470,53.7828,-110.9068,897.2,289.3,355.1,3.1,0.7,9.85,32.26,1.9419,393.635],
    [20921,1537399471,53.7835,-110.9068,897.1,293.6,355.2,3.1,0.9,9.57,32.17,1.9425,392.814],
    [20922,1537399472,53.7842,-110.9069,897.2,297.9,355.4,2.7,0.5,9.56,32.06,1.9413,392.3276],
    [20923,1537399473,53.7849,-110.9069,897.3,298.3,355.5,2.6,0.4,9.86,32.22,1.9412,393.4274],
    [20924,1537399474,53.7856,-110.907,897.5,297.1,355.4,2.6,0.5,9.61,31.98,1.9418,393.4245],
    [20925,1537399475,53.7863,-110.907,897.3,294.3,355.3,2.7,0.6,10.61,31.15,1.9407,393.837],
    [20926,1537399476,53.787,-110.9071,897.1,287.1,355.2,2.9,0.7,10.54,31.23,1.943,392.55],
    [20927,1537399477,53.7877,-110.9071,897.1,282.4,355.0,3.0,0.7,10.06,31.57,1.9425,393.2621],
    [20928,1537399478,53.7884,-110.9072,897.3,279.2,354.9,3.1,0.6,10.15,31.48,1.9419,393.194],
    [20929,1537399479,53.7891,-110.9072,897.4,279.3,355.1,2.9,0.0,10.11,32.2,1.9441,394.1139],
    [20930,1537399480,53.7898,-110.9073,897.6,275.3,355.3,2.6,0.3,9.89,31.55,1.9431,394.1139],
    [20931,1537399481,53.7905,-110.9074,897.5,271.6,355.4,2.6,0.4,9.78,31.8,1.9418,393.9232],
    [20932,1537399482,53.7912,-110.9074,897.3,267.4,355.4,2.5,0.3,10.68,31.17,1.9429,394.6923],
    [20933,1537399483,53.7919,-110.9075,896.8,265.8,355.5,2.4,0.2,9.9,31.38,1.9439,393.1655],
    [20934,1537399484,53.7926,-110.9075,896.3,266.9,355.3,2.5,0.3,10.35,31.35,1.943,394.7449],
    [20935,1537399485,53.7933,-110.9076,896.3,270.0,355.3,2.1,0.5,9.58,31.67,1.9431,394.374],
    [20936,1537399486,53.794,-110.9076,896.6,276.1,355.7,1.6,0.8,10.07,32.19,1.9434,393.773],
    [20937,1537399487,53.7947,-110.9077,896.6,278.6,355.1,2.2,1.3,10.18,31.15,1.9434,392.4995],
    [20938,1537399488,53.7954,-110.9078,896.3,280.3,355.0,2.1,0.9,10.04,31.56,1.9435,394.4556],
    [20939,1537399489,53.7961,-110.9079,896.2,280.2,354.8,2.1,1.3,9.51,31.44,1.9432,393.6049],
    [20940,1537399490,53.7968,-110.9079,896.5,280.5,355.2,1.5,1.5,10.03,31.72,1.9425,393.6049],
    [20941,1537399491,53.7974,-110.908,896.5,279.1,355.5,1.1,2.1,9.93,31.88,1.9456,392.0748],
    [20942,1537399492,53.7982,-110.9081,896.7,276.6,355.4,1.4,2.2,9.98,32.1,1.9525,392.5987],
    [20943,1537399493,53.7989,-110.9081,897.8,275.9,355.2,1.6,1.6,10.08,32.46,2.0204,392.5987],
    [20944,1537399494,53.7996,-110.9082,898.3,273.3,355.2,1.8,1.3,10.22,31.88,1.9814,394.1506],
    [20945,1537399495,53.8003,-110.9083,897.3,270.8,354.9,2.0,1.4,9.73,32.4,1.9589,394.5393],
    [20946,1537399496,53.801,-110.9084,895.9,268.7,356.3,0.5,0.8,9.9,32.14,1.9491,392.5724],
    [20947,1537399497,53.8017,-110.9084,896.0,266.4,355.8,1.4,1.0,9.92,32.54,1.9449,392.5724],
    [20948,1537399498,53.8024,-110.9085,896.7,263.7,355.3,2.0,1.3,9.34,31.96,1.944,393.666],
    [20949,1537399499,53.8031,-110.9086,896.3,256.5,355.2,2.1,0.5,10.36,31.9,1.9435,395.2485],
    [20950,1537399500,53.8038,-110.9086,895.2,254.2,354.7,2.6,0.6,10.27,31.79,1.9447,394.4803],
    [20951,1537399501,53.8045,-110.9087,895.2,254.2,354.4,2.9,1.0,9.81,32.27,1.9457,394.7938],
    [20952,1537399502,53.8052,-110.9088,895.8,254.9,354.3,2.9,0.9,9.78,32.24,1.9567,393.6216],
    [20953,1537399503,53.8059,-110.9088,896.4,252.7,354.6,2.7,0.8,9.78,32.3,1.9792,393.9288],
    [20954,1537399504,53.8066,-110.9089,896.7,251.8,354.4,3.1,0.8,9.77,32.27,1.9925,395.1266],
    [20955,1537399505,53.8073,-110.909,896.9,246.2,355.2,2.2,1.6,9.29,32.42,1.9887,395.1266],
    [20956,1537399506,53.808,-110.909,896.8,243.5,356.3,1.3,1.0,9.64,32.51,1.9732,394.3587],
    [20957,1537399507,53.8087,-110.9091,897.1,240.4,356.1,1.7,0.6,10.19,33.01,1.9709,394.7169],
    [20958,1537399508,53.8094,-110.9091,897.3,237.9,356.1,1.7,1.3,10.25,33.05,1.9707,392.9185],
    [20959,1537399509,53.8102,-110.9092,896.5,234.7,355.3,2.6,1.0,9.98,32.94,1.9495,392.0422],
    [20960,1537399510,53.8109,-110.9093,895.8,232.1,355.3,2.2,1.2,9.89,32.57,1.9453,392.9682],
    [20961,1537399511,53.8116,-110.9093,896.3,232.3,354.9,2.9,0.5,10.48,32.02,1.9439,394.7934],
    [20962,1537399512,53.8123,-110.9094,897.3,234.3,355.1,2.4,-0.2,10.23,31.94,1.9445,392.7511],
    [20963,1537399513,53.813,-110.9095,897.2,235.2,355.9,1.8,1.3,9.88,32.56,1.9444,392.1465],
    [20964,1537399514,53.8137,-110.9095,896.8,235.8,355.2,2.3,1.7,9.53,32.4,1.9425,393.3571],
    [20965,1537399515,53.8144,-110.9096,895.9,234.9,355.8,1.5,1.7,9.41,32.41,1.9434,393.3571],
    [20966,1537399516,53.8151,-110.9096,895.2,234.9,355.3,1.9,0.9,9.98,32.65,1.9424,393.6956],
    [20967,1537399517,53.8159,-110.9097,895.3,236.3,355.0,2.1,0.6,10.01,32.57,1.9432,392.9581],
    [20968,1537399518,53.8166,-110.9098,895.7,237.8,354.7,2.3,0.6,9.95,32.23,1.9443,393.9318],
    [20969,1537399519,53.8173,-110.9099,895.7,240.1,354.3,2.7,1.4,9.77,32.45,1.9426,392.4173],
    [20970,1537399520,53.818,-110.9099,895.7,241.7,354.6,2.4,1.8,10.41,31.84,1.943,392.4173],
    [20971,1537399521,53.8187,-110.91,895.7,244.7,354.9,2.1,1.6,10.29,32.13,1.9443,394.6422],
    [20972,1537399522,53.8194,-110.9101,895.8,247.5,355.2,2.0,0.5,10.28,32.9,1.9445,392.8],
    [20973,1537399523,53.8201,-110.9102,896.3,251.2,355.2,1.9,0.7,9.97,32.33,1.9441,393.0615],
    [20974,1537399524,53.8209,-110.9102,896.5,255.2,355.4,1.8,0.8,9.85,32.36,1.9487,393.4576],
    [20975,1537399525,53.8216,-110.9103,895.9,256.0,355.4,2.0,1.0,10.19,32.15,1.9641,393.8696],
    [20976,1537399526,53.8223,-110.9104,895.5,257.6,355.2,2.4,1.2,10.0,32.3,1.9611,393.467],
    [20977,1537399527,53.823,-110.9104,895.2,258.2,354.9,2.8,1.0,9.53,32.49,1.9466,393.4493],
    [20978,1537399528,53.8237,-110.9105,895.2,258.2,354.8,2.8,1.3,10.34,31.67,1.9536,393.2717],
    [20979,1537399529,53.8244,-110.9106,895.9,259.8,355.2,2.0,2.0,9.88,32.27,1.9531,393.2717],
    [20980,1537399530,53.8251,-110.9106,896.3,261.5,355.2,1.8,2.4,10.14,32.46,1.9532,393.7867],
    [20981,1537399531,53.8258,-110.9107,896.5,263.4,355.7,1.1,1.8,10.06,32.77,1.9539,394.2975],
    [20982,1537399532,53.8265,-110.9108,896.7,265.2,355.4,1.7,0.8,10.02,32.43,1.9491,392.4978],
    [20983,1537399533,53.8273,-110.9108,897.7,269.0,354.6,2.3,1.9,10.68,32.11,1.9481,394.3586],
    [20984,1537399534,53.828,-110.9109,898.6,271.6,355.2,1.5,1.1,10.37,32.36,1.9469,394.3758],
    [20985,1537399535,53.8287,-110.911,898.5,273.5,353.7,3.4,1.6,9.44,32.46,1.9478,392.1713],
    [20986,1537399536,53.8294,-110.9111,897.3,274.0,354.3,3.0,0.0,10.54,32.57,1.9492,392.1713],
    [20987,1537399537,53.8301,-110.9111,895.8,275.4,354.7,2.8,0.5,10.03,32.46,1.9459,393.5759],
    [20988,1537399538,53.8308,-110.9112,894.6,277.0,355.1,2.7,0.6,10.15,32.38,1.9437,394.2761],
    [20989,1537399539,53.8315,-110.9113,894.2,279.6,355.6,2.5,-0.1,10.36,32.21,1.9446,392.6639],
    [20990,1537399540,53.8322,-110.9113,894.5,282.8,355.6,2.6,0.1,10.86,31.97,1.9435,392.597],
    [20991,1537399541,53.8329,-110.9114,894.8,285.8,355.9,2.2,0.1,10.18,33.05,1.9441,393.6783],
    [20992,1537399542,53.8336,-110.9114,894.9,287.9,355.9,2.2,0.3,10.15,33.26,1.9452,394.2149],
    [20993,1537399543,53.8343,-110.9115,895.1,289.8,355.7,2.4,0.5,10.0,32.63,1.9445,392.505],
    [20994,1537399544,53.835,-110.9115,895.2,291.2,355.4,2.8,1.0,9.85,32.57,1.9443,392.9335],
    [20995,1537399545,53.8357,-110.9116,895.2,292.2,354.5,3.6,1.5,9.89,32.79,1.9438,392.9335],
    [20996,1537399546,53.8364,-110.9116,895.2,294.7,354.8,3.3,1.4,9.79,33.13,1.9454,393.6415],
    [20997,1537399547,53.8371,-110.9117,895.1,296.2,355.1,3.0,1.8,10.04,33.24,1.944,394.266],
    [20998,1537399548,53.8378,-110.9117,894.9,297.0,355.3,2.8,1.2,10.08,32.39,1.9429,394.266],
    [20999,1537399549,53.8385,-110.9118,895.2,296.5,355.4,2.8,1.9,9.75,33.14,1.9448,392.1115],
    [21000,1537399550,53.8392,-110.9118,896.1,293.5,355.0,3.2,1.7,10.3,32.69,1.945,392.2952],
    [21001,1537399551,53.8399,-110.9119,896.8,291.5,355.2,2.8,2.0,9.44,32.88,1.9441,393.4631],
    [21002,1537399552,53.8406,-110.912,897.0,289.7,355.0,3.0,2.1,10.21,33.04,1.9427,392.805],
    [21003,1537399553,53.8413,-110.912,896.9,287.9,355.0,2.9,1.8,10.04,33.04,1.9436,392.7105],
    [21004,1537399554,53.842,-110.9121,897.2,288.2,355.3,2.4,1.8,10.01,32.94,1.9443,393.3104],
    [21005,1537399555,53.8427,-110.9121,897.9,288.9,355.8,1.9,2.5,10.07,33.23,1.945,393.3455],
    [21006,1537399556,53.8434,-110.9122,897.7,288.7,355.1,2.7,2.2,9.84,33.11,1.9432,393.3455],
    [21007,1537399557,53.8441,-110.9122,897.5,288.6,355.6,2.1,1.7,9.92,33.08,1.9443,395.6933],
    [21008,1537399558,53.8448,-110.9123,897.6,289.6,355.7,2.1,1.8,10.57,32.41,1.945,394.2406],
    [21009,1537399559,53.8455,-110.9123,897.8,289.8,355.6,2.2,1.4,9.61,33.4,1.9449,394.2666],
    [21010,1537399560,53.8462,-110.9124,897.7,289.7,355.4,2.6,1.4,9.44,33.14,1.9434,394.941],
    [21011,1537399561,53.8469,-110.9125,896.6,288.9,355.2,3.0,0.5,9.91,33.94,1.9446,393.2742],
    [21012,1537399562,53.8477,-110.9125,896.4,290.2,355.5,2.7,0.0,9.76,33.11,1.9453,394.186],
    [21013,1537399563,53.8484,-110.9126,896.6,294.3,355.3,3.1,-0.4,10.05,33.58,1.9435,393.6798],
    [21014,1537399564,53.849,-110.9126,896.3,296.6,355.6,2.7,-0.7,9.52,33.25,1.9443,392.0753],
    [21015,1537399565,53.8498,-110.9127,895.4,299.7,355.8,2.4,-1.5,10.26,32.76,1.9453,393.5648],
    [21016,1537399566,53.8505,-110.9127,895.2,301.2,355.8,2.4,-0.3,10.23,33.13,1.9454,394.3537],
    [21017,1537399567,53.8512,-110.9128,895.6,302.6,355.1,3.2,-0.1,10.2,33.76,1.944,395.0488],
    [21018,1537399568,53.8519,-110.9128,896.3,303.3,355.2,3.0,-1.2,10.04,33.12,1.9432,392.8607],
    [21019,1537399569,53.8526,-110.9129,897.6,304.6,355.4,3.0,-0.3,9.82,33.89,1.943,393.3569],
    [21020,1537399570,53.8533,-110.9129,898.4,305.4,355.5,2.7,-1.4,9.88,33.95,1.9431,393.2185],
    [21021,1537399571,53.854,-110.913,898.7,306.4,356.2,1.8,-1.2,10.32,33.04,1.943,393.2185],
    [21022,1537399572,53.8547,-110.9131,899.1,306.1,355.8,2.2,-0.7,9.87,33.29,1.9432,394.0926],
    [21023,1537399573,53.8554,-110.9131,899.5,310.4,355.4,2.5,0.1,10.08,33.07,1.9437,393.7118],
    [21024,1537399574,53.8561,-110.9132,899.3,318.4,355.1,2.9,-0.1,10.05,33.7,1.9437,394.5518],
    [21025,1537399575,53.8568,-110.9132,898.9,323.5,354.9,2.9,-0.3,10.28,32.83,1.9439,392.5458],
    [21026,1537399576,53.8576,-110.9133,898.6,331.9,355.4,2.3,-0.1,10.09,33.67,1.9437,392.5458],
    [21027,1537399577,53.8583,-110.9133,898.1,337.5,355.2,2.5,0.3,9.58,33.35,1.9443,392.2489],
    [21028,1537399578,53.859,-110.9134,897.0,348.2,355.3,2.3,0.8,9.58,33.13,1.9441,392.9636],
    [21029,1537399579,53.8597,-110.9135,896.2,356.2,355.0,2.6,1.0,10.83,32.76,1.9441,394.3344],
    [21030,1537399580,53.8604,-110.9135,896.0,366.7,355.4,2.1,1.1,10.4,32.53,1.9442,393.3594],
    [21031,1537399581,53.8611,-110.9136,895.9,369.9,355.2,2.5,1.0,10.06,32.88,1.9435,393.9752],
    [21032,1537399582,53.8618,-110.9137,895.5,369.6,354.7,3.2,1.7,10.03,33.42,1.9424,394.016],
    [21033,1537399583,53.8626,-110.9137,895.1,366.5,354.6,3.3,1.3,9.43,32.47,1.944,393.6094],
    [21034,1537399584,53.8633,-110.9138,894.8,364.7,354.9,3.1,0.6,9.89,32.55,1.9436,393.3025],
    [21035,1537399585,53.864,-110.9138,895.1,364.1,354.9,3.2,0.7,10.03,32.46,1.9429,393.6815],
    [21036,1537399586,53.8647,-110.9139,895.8,363.8,354.8,3.4,1.1,10.49,31.65,1.9436,394.0782],
    [21037,1537399587,53.8654,-110.914,896.6,360.3,354.4,3.8,1.8,10.24,31.98,1.9434,394.0782],
    [21038,1537399588,53.8661,-110.914,896.9,357.0,354.6,3.6,1.3,9.87,32.06,1.9438,393.954],
    [21039,1537399589,53.8668,-110.9141,896.4,351.3,355.2,3.1,0.9,9.7,32.02,1.942,394.9378],
    [21040,1537399590,53.8675,-110.9141,895.9,351.9,355.2,3.2,0.7,10.38,31.82,1.9427,393.7659],
    [21041,1537399591,53.8682,-110.9142,895.8,353.0,355.3,3.2,0.9,9.55,32.14,1.943,393.7659],
    [21042,1537399592,53.8689,-110.9142,896.3,350.8,355.0,3.6,1.6,10.6,31.44,1.9425,394.6199],
    [21043,1537399593,53.8697,-110.9143,896.4,344.4,355.0,3.6,1.4,9.63,32.03,1.9435,393.7716],
    [21044,1537399594,53.8704,-110.9143,896.0,330.9,355.1,3.5,1.7,10.36,31.29,1.9441,393.5789],
    [21045,1537399595,53.8711,-110.9144,895.8,323.8,355.1,3.7,0.9,9.71,32.03,1.9453,394.6637],
    [21046,1537399596,53.8718,-110.9144,896.2,315.4,355.4,3.4,1.1,10.06,32.4,1.9436,394.2825],
    [21047,1537399597,53.8725,-110.9145,896.3,310.6,355.4,3.6,0.1,10.05,31.87,1.9435,394.0753],
    [21048,1537399598,53.8732,-110.9145,896.3,309.2,355.9,3.0,0.2,9.91,31.48,1.9438,395.1138],
    [21049,1537399599,53.8739,-110.9145,896.2,308.2,355.8,2.7,1.7,10.52,31.67,1.9429,394.3698],
    [21050,1537399600,53.8746,-110.9146,897.0,309.0,355.7,2.6,2.1,10.13,31.68,1.9437,393.2627],
    [21051,1537399601,53.8753,-110.9146,897.2,309.2,355.7,2.6,1.5,9.86,31.45,1.9439,393.8258],
    [21052,1537399602,53.8761,-110.9147,896.7,309.6,356.3,1.9,1.7,9.98,32.5,1.945,393.3572],
    [21053,1537399603,53.8768,-110.9147,896.8,314.6,356.1,2.3,2.1,10.12,32.11,1.9444,394.3321],
    [21054,1537399604,53.8775,-110.9148,897.4,320.4,355.2,3.5,1.3,10.08,32.28,1.9445,393.593],
    [21055,1537399605,53.8781,-110.9148,897.5,329.1,355.2,3.1,1.3,9.66,31.76,1.9472,393.0438],
    [21056,1537399606,53.8789,-110.9149,896.6,330.1,355.9,2.3,2.0,10.09,31.84,1.9464,394.3415],
    [21057,1537399607,53.8796,-110.9149,896.2,325.9,355.8,2.5,2.4,9.87,32.08,1.9465,394.7056],
    [21058,1537399608,53.8803,-110.915,896.4,318.1,356.6,1.9,1.3,10.01,32.62,1.9462,392.6867],
    [21059,1537399609,53.881,-110.915,896.6,312.6,356.2,2.7,0.9,10.62,31.73,1.944,394.9569],
    [21060,1537399610,53.8818,-110.915,896.6,308.9,355.9,3.0,1.1,9.94,32.31,1.9448,394.2899],
    [21061,1537399611,53.8825,-110.9151,896.6,308.7,356.0,2.9,2.0,10.03,32.19,1.9422,393.3697],
    [21062,1537399612,53.8832,-110.9151,896.4,309.6,356.0,2.7,1.3,10.2,31.83,1.9459,394.089],
    [21063,1537399613,53.8839,-110.9152,896.7,313.4,356.3,2.4,1.7,9.35,32.26,1.9432,393.4459],
    [21064,1537399614,53.8846,-110.9152,897.0,317.1,356.1,2.5,1.8,9.89,32.3,1.9443,393.4459],
    [21065,1537399615,53.8854,-110.9152,896.7,321.7,355.8,2.8,2.2,10.26,31.99,1.944,394.277],
    [21066,1537399616,53.8861,-110.9153,896.3,322.0,355.4,3.2,1.9,10.25,31.85,1.9443,392.7886],
    [21067,1537399617,53.8868,-110.9153,896.6,320.9,355.4,3.0,2.4,10.02,32.44,1.9435,391.7353],
    [21068,1537399618,53.8875,-110.9154,896.8,314.5,355.6,2.7,1.9,9.77,32.47,1.9433,391.7353],
    [21069,1537399619,53.8882,-110.9154,896.7,308.9,355.8,2.2,1.2,9.75,32.53,1.9436,393.5265],
    [21070,1537399620,53.889,-110.9155,896.5,303.1,356.7,0.9,1.7,10.11,32.85,1.9437,394.189],
    [21071,1537399621,53.8897,-110.9156,896.4,302.5,356.3,1.2,2.1,9.95,32.46,1.9441,392.5203],
    [21072,1537399622,53.8904,-110.9156,896.2,300.2,355.4,2.2,1.5,9.94,32.51,1.945,393.1458],
    [21073,1537399623,53.8912,-110.9157,895.9,298.9,355.0,2.4,1.6,10.01,32.44,1.9449,393.1458],
    [21074,1537399624,53.8919,-110.9158,895.8,298.8,354.9,2.7,1.9,9.96,32.57,1.9446,393.9637],
    [21075,1537399625,53.8926,-110.9158,896.8,299.6,354.0,3.8,1.7,10.2,33.17,1.9442,392.5664],
    [21076,1537399626,53.8933,-110.9159,897.7,299.8,354.7,2.9,1.2,10.11,33.13,1.9425,393.1574],
    [21077,1537399627,53.894,-110.916,897.5,298.5,354.2,3.7,1.5,10.84,32.33,1.9424,393.684],
    [21078,1537399628,53.8948,-110.916,896.4,295.6,354.2,3.8,1.9,10.89,32.02,1.9438,393.4865],
    [21079,1537399629,53.8955,-110.9161,896.4,294.7,354.8,3.1,1.2,9.97,32.47,1.9427,393.7988],
    [21080,1537399630,53.8962,-110.9161,897.2,293.2,356.1,1.5,1.5,9.9,32.53,1.9435,393.4845],
    [21081,1537399631,53.8969,-110.9162,897.7,292.7,356.6,0.9,2.2,10.93,32.06,1.9432,392.7546],
    [21082,1537399632,53.8977,-110.9163,897.9,291.0,355.8,1.7,2.6,10.11,32.26,1.9444,392.7546],
    [21083,1537399633,53.8984,-110.9163,897.8,288.9,355.1,2.5,3.0,10.12,32.94,1.9444,393.3866],
    [21084,1537399634,53.8991,-110.9164,896.8,285.6,354.7,3.1,2.2,10.11,32.36,1.9415,393.5901],
    [21085,1537399635,53.8999,-110.9165,895.9,282.4,354.4,3.8,2.1,10.7,32.43,1.943,392.6629],
    [21086,1537399636,53.9006,-110.9165,895.6,279.3,354.6,3.7,2.2,10.2,33.11,1.9428,393.1524],
    [21087,1537399637,53.9013,-110.9166,895.4,277.1,354.6,3.7,2.4,10.29,31.77,1.9419,394.1561],
    [21088,1537399638,53.902,-110.9166,895.2,274.2,355.1,3.1,1.0,10.1,32.24,1.9435,393.6958],
    [21089,1537399639,53.9028,-110.9167,895.0,273.0,355.2,2.9,1.1,10.09,32.31,1.9441,394.4282],
    [21090,1537399640,53.9035,-110.9167,895.4,272.5,354.8,3.2,0.4,10.06,31.88,1.9417,392.6081],
    [21091,1537399641,53.9042,-110.9168,896.8,272.8,354.9,3.1,-0.3,10.43,31.27,1.9424,392.5906],
    [21092,1537399642,53.905,-110.9169,897.5,273.3,355.2,2.6,1.1,10.43,31.68,1.9425,393.4416],
    [21093,1537399643,53.9057,-110.9169,897.4,271.6,355.6,1.9,-0.3,10.2,32.05,1.9437,393.2081],
    [21094,1537399644,53.9064,-110.917,897.0,269.7,355.9,1.6,-0.3,10.04,32.1,1.9436,393.9704],
    [21095,1537399645,53.9071,-110.9171,897.2,269.2,355.3,2.6,-0.3,10.44,31.17,1.9433,393.9704],
    [21096,1537399646,53.9079,-110.9171,897.8,269.8,355.3,2.4,0.4,10.27,31.58,1.9431,393.9263],
    [21097,1537399647,53.9086,-110.9172,898.0,269.0,355.8,1.8,1.0,10.52,31.68,1.9435,393.9516],
    [21098,1537399648,53.9093,-110.9173,896.9,266.4,355.7,2.2,0.6,9.83,31.87,1.9431,393.3725],
    [21099,1537399649,53.9101,-110.9173,895.6,263.7,355.3,2.6,1.1,10.1,31.71,1.9427,393.2316],
    [21100,1537399650,53.9108,-110.9174,895.0,262.0,355.1,2.7,0.8,10.13,32.03,1.9422,392.7255],
    [21101,1537399651,53.9115,-110.9174,894.6,261.3,355.2,2.5,0.5,10.7,31.36,1.9424,393.3984],
    [21102,1537399652,53.9122,-110.9175,894.2,259.1,355.5,2.2,0.7,10.12,32.8,1.944,393.3984],
    [21103,1537399653,53.913,-110.9176,894.2,258.3,355.5,2.4,1.2,10.14,32.11,1.9447,391.3306],
    [21104,1537399654,53.9137,-110.9176,894.6,255.6,355.4,2.6,2.1,10.03,31.86,1.9431,393.5243],
    [21105,1537399655,53.9144,-110.9177,894.6,253.6,355.9,2.1,1.5,9.84,31.83,1.9421,393.7462],
    [21106,1537399656,53.9151,-110.9177,894.7,251.7,356.1,2.1,1.5,10.11,31.98,1.9421,393.6002],
    [21107,1537399657,53.9159,-110.9178,895.7,251.0,356.2,2.2,0.9,9.81,31.82,1.9417,393.1137],
    [21108,1537399658,53.9166,-110.9178,895.9,250.6,356.6,1.6,1.3,10.27,32.19,1.9434,391.7234],
    [21109,1537399659,53.9173,-110.9179,895.3,248.3,356.4,1.8,0.8,10.28,31.88,1.943,393.3249],
    [21110,1537399660,53.918,-110.9179,895.4,247.4,355.2,2.9,0.8,10.28,31.54,1.9433,391.9284],
    [21111,1537399661,53.9187,-110.918,896.4,246.4,354.8,2.9,0.6,10.19,31.86,1.9438,392.3561],
    [21112,1537399662,53.9195,-110.9181,896.9,245.9,355.0,2.8,-0.6,10.18,32.55,1.9448,393.2166],
    [21113,1537399663,53.9202,-110.9181,896.9,244.9,355.2,2.5,-0.3,9.53,31.77,1.9441,394.06],
    [21114,1537399664,53.9209,-110.9182,896.9,243.1,355.2,2.4,0.1,10.22,32.58,1.9435,393.8637],
    [21115,1537399665,53.9216,-110.9183,896.6,242.3,355.0,2.6,0.8,10.44,31.73,1.944,391.8147],
    [21116,1537399666,53.9223,-110.9183,896.2,240.0,354.8,2.9,-0.6,10.42,31.83,1.9427,393.9374],
    [21117,1537399667,53.9231,-110.9184,896.4,238.4,354.8,3.1,-1.3,10.29,31.96,1.9452,395.0651],
    [21118,1537399668,53.9238,-110.9185,897.2,238.2,354.5,3.5,-0.6,10.09,32.53,1.9437,392.8136],
    [21119,1537399669,53.9245,-110.9185,897.3,236.3,354.7,3.2,-0.2,10.11,32.1,1.9456,393.7653],
    [21120,1537399670,53.9252,-110.9186,896.3,234.6,355.1,2.9,0.4,10.6,32.03,1.9444,393.7653],
    [21121,1537399671,53.9259,-110.9186,895.5,232.8,354.9,3.5,-0.1,10.6,31.44,1.9433,392.207],
    [21122,1537399672,53.9266,-110.9187,895.8,232.8,354.5,4.1,-0.3,10.06,32.32,1.9439,392.2297],
    [21123,1537399673,53.9274,-110.9187,896.8,233.8,354.8,3.7,0.2,9.43,32.18,1.944,391.5184],
    [21124,1537399674,53.9281,-110.9188,896.5,233.5,354.8,4.1,0.5,10.01,32.26,1.9431,393.7141],
    [21125,1537399675,53.9288,-110.9188,896.4,233.4,354.6,4.4,-0.9,10.77,31.95,1.9453,393.0727],
    [21126,1537399676,53.9295,-110.9189,897.0,234.0,356.2,3.1,-0.3,10.19,32.66,1.9453,392.4147],
    [21127,1537399677,53.9302,-110.9189,897.3,233.3,355.7,4.5,-0.8,10.78,31.94,1.9431,393.3328],
    [21128,1537399678,53.931,-110.9189,896.9,232.9,356.1,4.4,-0.7,10.65,32.04,1.9438,393.6802],
    [21129,1537399679,53.9317,-110.9189,897.1,232.9,356.7,3.9,0.2,10.0,32.41,1.9445,393.365],
    [21130,1537399680,53.9324,-110.919,898.2,233.8,357.7,2.8,-0.1,9.89,32.98,1.944,393.4039],
    [21131,1537399681,53.9331,-110.919,898.7,234.7,357.3,3.3,-0.6,10.1,32.8,1.9429,394.1868],
    [21132,1537399682,53.9338,-110.919,898.8,234.8,356.0,4.2,0.7,9.84,32.44,1.9442,394.1868],
    [21133,1537399683,53.9346,-110.919,897.7,233.7,356.0,3.5,0.8,9.57,32.57,1.9459,393.5519],
    [21134,1537399684,53.9353,-110.919,896.4,233.1,354.6,4.8,1.3,9.61,32.53,1.9436,393.8923],
    [21135,1537399685,53.936,-110.9191,895.5,232.5,354.5,4.7,-0.4,10.28,32.19,1.945,394.0994],
    [21136,1537399686,53.9367,-110.9191,894.1,232.0,354.7,4.3,-0.9,10.34,32.39,1.9433,394.22],
    [21137,1537399687,53.9374,-110.9192,892.9,231.0,355.6,3.4,-0.5,10.24,32.67,1.943,393.192],
    [21138,1537399688,53.9382,-110.9192,892.8,232.3,355.1,3.8,-0.4,10.31,32.31,1.9431,393.361],
    [21139,1537399689,53.9389,-110.9193,893.5,233.8,355.5,3.0,0.5,10.02,33.19,1.9441,392.304],
    [21140,1537399690,53.9396,-110.9193,893.5,234.5,355.4,3.0,1.0,9.9,32.38,1.9449,393.6191],
    [21141,1537399691,53.9403,-110.9194,893.5,234.5,355.5,2.9,0.8,9.94,32.34,1.9447,393.5265],
    [21142,1537399692,53.9411,-110.9194,894.0,234.1,355.4,3.3,0.8,9.71,32.39,1.9442,388.4965],
    [21143,1537399693,53.9418,-110.9195,894.6,232.9,355.2,3.5,0.3,10.38,32.37,1.9439,393.3014],
    [21144,1537399694,53.9425,-110.9195,895.2,232.9,355.9,2.7,0.8,9.92,32.22,1.9443,393.8826],
    [21145,1537399695,53.9432,-110.9196,895.3,231.2,356.5,2.2,1.2,10.27,33.06,1.9432,393.8826],
    [21146,1537399696,53.9439,-110.9196,895.0,230.0,356.4,2.5,1.0,10.29,32.29,1.943,393.9148],
    [21147,1537399697,53.9447,-110.9196,894.4,228.4,356.9,1.6,0.4,10.19,32.17,1.9412,392.5814],
    [21148,1537399698,53.9454,-110.9197,893.9,226.9,356.7,1.5,0.3,10.28,33.19,1.9423,393.9342],
    [21149,1537399699,53.9461,-110.9197,894.3,226.9,356.5,1.4,0.6,10.2,32.33,1.9429,393.4541],
    [21150,1537399700,53.9468,-110.9198,895.2,226.5,356.3,1.4,0.8,10.27,32.48,1.9435,392.5193],
    [21151,1537399701,53.9475,-110.9198,895.3,225.4,356.0,1.5,0.8,10.25,32.48,1.943,394.2229],
    [21152,1537399702,53.9482,-110.9199,895.1,225.1,356.0,1.3,1.0,10.31,32.51,1.9421,393.1585],
    [21153,1537399703,53.9489,-110.92,894.9,224.9,355.7,1.4,1.1,10.39,31.43,1.9418,391.9861],
    [21154,1537399704,53.9497,-110.92,894.9,224.9,355.5,1.5,1.5,10.03,31.54,1.9425,393.4119],
    [21155,1537399705,53.9504,-110.9201,895.1,226.1,355.3,1.7,0.7,10.4,31.85,1.9424,392.9458],
    [21156,1537399706,53.9511,-110.9202,895.2,226.2,355.3,1.5,0.8,10.45,31.07,1.9422,392.9512],
    [21157,1537399707,53.9518,-110.9203,895.2,225.3,355.3,1.4,1.2,9.6,31.2,1.943,393.6765],
    [21158,1537399708,53.9525,-110.9203,895.0,224.0,355.2,1.5,1.1,10.06,31.24,1.9425,393.0184],
    [21159,1537399709,53.9532,-110.9204,895.1,223.1,355.3,1.5,1.1,9.67,31.04,1.9429,394.1411],
    [21160,1537399710,53.9539,-110.9205,895.7,223.4,355.2,1.6,1.3,10.21,31.37,1.9429,393.3528],
    [21161,1537399711,53.9546,-110.9206,895.4,222.4,355.5,1.4,1.2,10.01,30.98,1.9419,393.3528],
    [21162,1537399712,53.9553,-110.9206,894.9,221.9,356.6,0.4,1.6,10.93,30.61,1.9428,393.9528],
    [21163,1537399713,53.956,-110.9207,895.6,222.6,356.4,0.9,1.2,10.21,31.05,1.9439,394.3423],
    [21164,1537399714,53.9567,-110.9208,896.1,223.1,355.8,1.2,1.5,9.77,30.73,1.943,393.8349],
    [21165,1537399715,53.9575,-110.9208,895.8,223.8,355.3,1.4,1.9,10.04,30.73,1.9418,392.9995],
    [21166,1537399716,53.9582,-110.9209,894.7,222.7,354.8,1.7,0.7,10.08,31.1,1.9417,393.2905],
    [21167,1537399717,53.9589,-110.921,893.7,222.7,354.5,2.0,0.8,9.81,30.91,1.9442,394.0406],
    [21168,1537399718,53.9596,-110.9211,893.9,222.9,354.6,1.8,1.1,10.43,31.03,1.944,391.3394],
    [21169,1537399719,53.9603,-110.9212,894.5,222.5,354.4,2.3,0.6,10.28,31.43,1.9427,392.5701],
    [21170,1537399720,53.961,-110.9212,894.7,222.7,354.3,2.4,1.2,10.19,31.0,1.943,392.9206],
    [21171,1537399721,53.9617,-110.9213,895.0,222.0,355.4,1.2,1.7,10.62,30.97,1.9446,392.1226],
    [21172,1537399722,53.9624,-110.9214,895.8,222.8,354.9,2.1,1.4,10.24,31.1,1.9447,393.6954],
    [21173,1537399723,53.9631,-110.9215,896.6,223.3,355.2,1.8,1.1,9.95,31.61,1.9422,393.0749],
    [21174,1537399724,53.9638,-110.9215,896.8,222.7,354.8,2.4,1.6,10.34,31.3,1.9445,393.66],
    [21175,1537399725,53.9646,-110.9216,896.5,222.5,353.9,3.3,2.0,9.91,32.11,1.9435,393.4364],
    [21176,1537399726,53.9653,-110.9217,895.6,221.8,354.3,2.9,1.5,10.47,31.33,1.9445,394.0894],
    [21177,1537399727,53.966,-110.9218,894.8,221.8,354.7,2.4,1.6,9.82,31.73,1.944,390.7437],
    [21178,1537399728,53.9667,-110.9218,894.0,221.0,355.2,2.3,1.7,10.29,32.84,1.9444,393.3321],
    [21179,1537399729,53.9674,-110.9219,893.5,220.6,354.9,2.7,1.8,10.49,31.78,1.9433,393.7823],
    [21180,1537399730,53.9681,-110.922,893.3,220.3,355.6,2.1,1.3,9.82,32.08,1.9454,392.4363],
    [21181,1537399731,53.9688,-110.922,893.9,221.9,355.6,2.1,1.6,10.28,32.37,1.9437,392.4532],
    [21182,1537399732,53.9696,-110.9221,894.6,222.6,355.4,2.5,2.0,10.01,32.09,1.944,392.6488],
    [21183,1537399733,53.9702,-110.9221,894.8,222.8,355.1,2.6,1.5,10.8,31.54,1.945,394.7137],
    [21184,1537399734,53.971,-110.9222,894.6,222.6,356.0,1.8,1.7,10.64,31.75,1.9425,392.7844],
    [21185,1537399735,53.9717,-110.9223,894.5,222.3,355.3,2.7,1.6,10.55,32.13,1.9442,392.731],
    [21186,1537399736,53.9724,-110.9223,894.8,222.5,355.2,2.7,1.5,10.34,32.24,1.9439,392.7266],
    [21187,1537399737,53.9731,-110.9224,895.0,222.7,354.9,3.0,1.3,10.35,32.57,1.9431,392.2383],
    [21188,1537399738,53.9738,-110.9224,895.1,222.1,355.0,2.7,1.6,10.63,32.2,1.9452,393.9669],
    [21189,1537399739,53.9745,-110.9225,895.2,222.2,355.3,2.5,1.8,10.44,32.17,1.945,393.3584],
    [21190,1537399740,53.9753,-110.9226,895.0,222.0,355.2,2.7,2.0,10.93,32.05,1.9439,392.9792],
    [21191,1537399741,53.976,-110.9226,894.8,221.8,355.2,2.8,1.6,10.45,32.75,1.9444,394.0774],
    [21192,1537399742,53.9767,-110.9227,895.0,223.0,355.1,2.9,1.4,10.09,32.7,1.944,393.6104],
    [21193,1537399743,53.9774,-110.9227,895.4,223.7,355.3,2.5,2.1,10.87,32.17,1.9437,392.7835],
    [21194,1537399744,53.9781,-110.9228,895.6,224.6,355.5,2.5,1.9,10.02,32.39,1.9435,393.9244],
    [21195,1537399745,53.9788,-110.9228,895.4,225.4,355.3,2.9,1.9,11.03,32.02,1.9433,392.3196],
    [21196,1537399746,53.9795,-110.9229,895.2,225.2,355.4,2.9,2.1,10.63,32.56,1.9437,393.7397],
    [21197,1537399747,53.9802,-110.9229,895.2,226.2,355.2,3.1,2.1,10.27,32.74,1.944,393.9508],
    [21198,1537399748,53.9809,-110.923,895.3,225.6,355.5,2.8,2.6,10.22,32.43,1.9439,392.0594],
    [21199,1537399749,53.9816,-110.923,895.6,225.6,355.7,2.5,2.1,10.13,32.23,1.9436,393.2718],
    [21200,1537399750,53.9824,-110.9231,895.8,225.8,356.2,1.9,1.5,10.23,32.11,1.9429,392.5627],
    [21201,1537399751,53.9831,-110.9231,895.6,224.6,355.9,2.2,1.5,9.93,32.38,1.9443,394.2007],
    [21202,1537399752,53.9837,-110.9232,895.8,224.8,355.7,2.1,1.3,9.88,31.91,1.9441,394.2007],
    [21203,1537399753,53.9845,-110.9232,896.5,224.5,356.3,1.3,2.0,10.35,32.26,1.9441,392.7936],
    [21204,1537399754,53.9852,-110.9233,897.2,225.2,356.1,1.5,0.6,10.18,32.47,1.9446,394.0743],
    [21205,1537399755,53.9859,-110.9234,897.2,224.1,357.1,0.3,1.2,10.26,32.12,1.9446,392.2117],
    [21206,1537399756,53.9866,-110.9234,897.2,224.2,356.9,0.5,1.6,10.0,32.35,1.9453,393.0479],
    [21207,1537399757,53.9873,-110.9235,897.2,224.3,356.5,0.8,2.4,10.87,31.95,1.9455,394.1194],
    [21208,1537399758,53.988,-110.9235,896.5,223.5,356.3,1.0,2.5,10.14,32.17,1.9453,393.2572],
    [21209,1537399759,53.9887,-110.9236,895.5,222.6,355.2,2.0,2.4,10.27,32.77,1.9441,393.1195],
    [21210,1537399760,53.9894,-110.9237,895.3,222.3,354.6,2.6,1.9,10.17,32.31,1.9443,393.3439],
    [21211,1537399761,53.9902,-110.9237,895.3,222.2,354.7,2.4,1.2,10.23,32.69,1.9447,393.8674],
    [21212,1537399762,53.9909,-110.9238,895.2,223.9,355.3,1.6,1.0,10.53,31.99,1.9445,392.1147],
    [21213,1537399763,53.9916,-110.9239,895.5,224.4,355.0,2.4,0.9,9.71,32.6,1.9438,392.0621],
    [21214,1537399764,53.9923,-110.9239,895.6,225.8,354.6,2.9,1.2,10.06,32.27,1.9433,392.924],
    [21215,1537399765,53.993,-110.924,895.5,227.2,354.8,2.9,0.9,10.23,32.48,1.9425,394.2933],
    [21216,1537399766,53.9937,-110.9241,895.2,228.1,354.7,3.0,1.0,10.53,31.76,1.9434,392.6551],
    [21217,1537399767,53.9945,-110.9241,895.0,229.5,355.1,2.6,1.3,9.61,32.08,1.9423,392.6551],
    [21218,1537399768,53.9952,-110.9242,894.9,229.7,355.1,2.9,1.9,10.15,32.16,1.9422,392.9395],
    [21219,1537399769,53.9959,-110.9243,894.2,230.4,355.1,2.8,1.7,10.27,32.1,1.9426,392.9344],
    [21220,1537399770,53.9966,-110.9243,893.8,231.1,355.4,2.8,0.9,10.5,31.3,1.9424,394.0329],
    [21221,1537399771,53.9973,-110.9244,894.8,233.2,355.3,2.8,1.5,10.86,31.37,1.9435,392.6269],
    [21222,1537399772,53.998,-110.9244,896.0,235.4,356.2,1.8,2.0,9.57,31.97,1.9435,393.8084],
    [21223,1537399773,53.9988,-110.9245,896.6,235.5,356.1,2.0,2.9,10.18,32.11,1.9428,392.8969],
    [21224,1537399774,53.9995,-110.9245,896.0,236.7,355.4,2.7,2.6,10.33,31.92,1.9422,393.4839],
    [21225,1537399775,54.0002,-110.9246,895.2,236.6,355.5,2.5,2.1,10.97,31.31,1.942,393.0534],
    [21226,1537399776,54.0009,-110.9246,895.0,238.1,355.4,2.7,1.6,10.12,31.65,1.943,392.8165],
    [21227,1537399777,54.0016,-110.9247,895.4,240.4,355.1,2.9,2.1,10.7,30.98,1.9434,393.1798],
    [21228,1537399778,54.0023,-110.9248,896.5,244.0,354.6,3.6,1.8,10.74,31.71,1.9435,393.3293],
    [21229,1537399779,54.003,-110.9248,897.0,247.9,354.3,4.2,1.8,10.24,32.43,1.9436,392.9172],
    [21230,1537399780,54.0037,-110.9249,896.5,253.3,354.1,4.7,2.1,10.91,31.26,1.9425,393.2454],
    [21231,1537399781,54.0045,-110.9249,895.7,254.2,354.7,4.4,1.8,10.34,31.54,1.9425,393.9802],
    [21232,1537399782,54.0052,-110.9249,895.7,254.7,355.2,4.0,2.0,10.23,31.79,1.9425,393.1675],
    [21233,1537399783,54.0059,-110.925,896.0,254.7,356.2,3.3,3.3,10.33,31.83,1.9449,393.1675],
    [21234,1537399784,54.0066,-110.925,895.2,253.8,355.5,4.6,2.5,9.85,31.58,1.9428,394.1857],
    [21235,1537399785,54.0073,-110.925,894.4,254.5,355.9,4.3,2.2,10.48,31.44,1.943,393.3433],
    [21236,1537399786,54.0081,-110.925,894.0,255.6,356.7,3.9,2.5,9.83,31.59,1.9429,392.8507],
    [21237,1537399787,54.0088,-110.9251,894.6,257.9,356.7,3.4,2.3,10.01,31.42,1.9429,392.1892],
    [21238,1537399788,54.0095,-110.9251,894.3,260.4,359.0,0.7,2.0,10.75,31.4,1.9431,391.2486],
    [21239,1537399789,54.0102,-110.9251,893.6,260.8,357.3,2.7,2.2,9.81,31.58,1.9437,393.591],
    [21240,1537399790,54.011,-110.9251,893.1,262.3,356.1,2.9,2.8,10.38,31.86,1.9434,393.9202],
    [21241,1537399791,54.0117,-110.9251,892.6,263.4,356.1,2.1,2.6,10.82,31.14,1.9428,393.9756],
    [21242,1537399792,54.0124,-110.9252,892.2,264.3,354.6,3.0,1.9,10.3,31.72,1.9434,394.4117],
    [21243,1537399793,54.0131,-110.9253,892.4,265.5,354.0,2.8,1.7,10.54,31.25,1.943,392.8],
    [21244,1537399794,54.0138,-110.9254,893.5,267.5,353.8,2.8,1.9,10.14,31.74,1.9422,392.8],
    [21245,1537399795,54.0146,-110.9254,894.4,269.4,354.3,2.6,1.8,9.95,31.96,1.9444,392.6811],
    [21246,1537399796,54.0153,-110.9255,894.6,270.6,354.9,2.9,2.5,10.41,32.31,1.9435,393.9372],
    [21247,1537399797,54.016,-110.9256,894.2,270.0,356.0,3.5,2.3,10.62,31.35,1.944,393.562],
    [21248,1537399798,54.0168,-110.9256,894.1,271.6,358.2,3.3,1.8,10.45,32.4,1.944,393.2772],
    [21249,1537399799,54.0175,-110.9255,893.9,275.3,361.6,2.7,2.3,10.75,31.38,1.9442,393.2727],
    [21250,1537399800,54.0182,-110.9254,894.1,280.5,4.9,2.6,2.1,10.24,32.35,1.9436,395.1005],
    [21251,1537399801,54.0189,-110.9252,894.4,280.2,8.1,2.7,1.9,10.26,31.98,1.9436,393.9686],
    [21252,1537399802,54.0196,-110.925,895.3,276.6,11.2,2.8,0.6,10.21,31.81,1.9439,393.378],
    [21253,1537399803,54.0203,-110.9247,896.4,274.4,14.2,3.1,0.6,10.52,31.57,1.9443,394.206],
    [21254,1537399804,54.021,-110.9243,897.2,275.3,16.9,3.5,0.4,10.78,31.38,1.944,393.8613],
    [21255,1537399805,54.0217,-110.9239,897.6,276.6,20.0,3.5,0.6,10.3,32.04,1.9451,394.0833],
    [21256,1537399806,54.0224,-110.9234,897.9,278.2,23.1,2.9,-1.1,10.18,32.1,1.9447,389.9664],
    [21257,1537399807,54.023,-110.9228,898.6,281.6,26.5,3.0,-0.6,10.28,32.52,1.9451,392.3623],
    [21258,1537399808,54.0237,-110.9222,899.6,286.6,29.4,3.1,-0.8,10.28,32.75,1.9443,392.5313],
    [21259,1537399809,54.0243,-110.9215,899.3,288.1,32.5,2.3,-0.7,10.27,32.1,1.945,393.2388],
    [21260,1537399810,54.0249,-110.9208,898.2,290.1,35.9,2.8,1.1,10.52,31.72,1.9455,394.1969],
    [21261,1537399811,54.0255,-110.92,897.4,293.0,39.1,3.2,1.0,10.27,32.88,1.9453,393.3209],
    [21262,1537399812,54.026,-110.9191,896.8,298.2,41.7,3.5,0.7,10.51,31.83,1.9453,392.7702],
    [21263,1537399813,54.0265,-110.9182,895.9,303.1,45.8,2.0,0.6,9.93,32.7,1.9456,392.7702],
    [21264,1537399814,54.027,-110.9173,895.7,312.0,49.3,2.4,1.1,10.9,31.8,1.9457,393.237],
    [21265,1537399815,54.0275,-110.9163,895.8,322.5,52.1,2.8,0.8,10.86,31.85,1.9448,393.3405],
    [21266,1537399816,54.0279,-110.9153,895.7,328.7,54.7,3.1,0.4,10.33,32.44,1.9451,392.3206],
    [21267,1537399817,54.0283,-110.9143,896.1,337.5,58.1,3.0,1.0,9.74,32.47,1.9447,393.4454],
    [21268,1537399818,54.0287,-110.9132,896.7,347.3,61.8,3.0,1.7,10.13,32.78,1.9448,393.063],
    [21269,1537399819,54.029,-110.9121,897.4,358.4,64.4,2.9,1.5,10.84,32.39,1.9453,393.063],
    [21270,1537399820,54.0293,-110.9109,898.1,359.1,68.1,2.4,2.2,10.28,33.16,1.9441,392.8837],
    [21271,1537399821,54.0296,-110.9097,898.2,359.2,71.6,2.1,2.9,10.23,32.84,1.9451,392.8148],
    [21272,1537399822,54.0298,-110.9085,898.4,359.4,74.5,1.1,1.8,10.3,33.4,1.9442,394.0289],
    [21273,1537399823,54.03,-110.9073,899.3,360.3,76.8,1.7,0.9,10.21,32.61,1.9437,394.0289],
    [21274,1537399824,54.0302,-110.9061,899.8,360.8,79.5,2.4,1.0,10.44,32.52,1.9449,394.2209],
    [21275,1537399825,54.0303,-110.9049,899.7,358.7,82.3,2.0,0.8,10.84,32.62,1.9435,394.2209],
    [21276,1537399826,54.0304,-110.9036,899.6,348.2,86.7,1.7,2.0,9.75,32.82,1.9438,393.023],
    [21277,1537399827,54.0304,-110.9023,899.9,339.6,89.4,2.9,1.7,9.9,32.65,1.9437,394.3517],
    [21278,1537399828,54.0304,-110.901,899.6,328.2,92.4,3.3,2.6,10.48,33.35,1.9448,391.7195],
    [21279,1537399829,54.0304,-110.8998,898.9,318.5,94.6,3.0,2.8,10.37,32.4,1.946,391.7197],
    [21280,1537399830,54.0303,-110.8985,898.6,308.2,96.8,2.9,3.0,10.35,33.08,1.9431,391.9929],
    [21281,1537399831,54.0303,-110.8972,898.6,300.0,98.3,2.3,2.8,10.25,33.03,1.9444,392.0947],
    [21282,1537399832,54.0302,-110.896,899.0,292.7,99.1,2.6,2.2,9.5,32.8,1.9435,391.2147],
    [21283,1537399833,54.0301,-110.8947,899.7,287.7,99.7,2.9,1.9,10.11,32.66,1.9446,392.1972],
    [21284,1537399834,54.03,-110.8935,899.4,283.8,100.3,4.0,2.0,10.34,33.03,1.9445,392.1875],
    [21285,1537399835,54.0299,-110.8922,898.5,278.4,100.4,3.6,1.7,10.44,32.4,1.9431,393.8221],
    [21286,1537399836,54.0297,-110.8909,897.4,275.3,100.7,3.6,1.9,10.19,32.46,1.9429,393.5423],
    [21287,1537399837,54.0296,-110.8897,896.9,273.9,101.5,3.7,2.6,10.04,32.79,1.9431,393.5962],
    [21288,1537399838,54.0295,-110.8884,896.9,272.9,101.7,3.9,2.7,9.91,33.12,1.9442,394.0289],
    [21289,1537399839,54.0294,-110.8871,896.5,270.4,101.9,3.3,3.0,10.19,32.75,1.9452,393.3435],
    [21290,1537399840,54.0293,-110.8859,896.0,269.0,101.6,3.6,2.7,10.24,32.62,1.9441,393.9764],
    [21291,1537399841,54.0291,-110.8846,895.7,266.0,101.3,3.7,2.4,10.12,32.7,1.9442,392.6823],
    [21292,1537399842,54.029,-110.8834,895.8,263.8,101.0,3.6,2.3,10.14,32.69,1.9447,393.6759],
    [21293,1537399843,54.0289,-110.8821,896.0,261.3,100.6,3.6,2.0,10.43,32.68,1.9439,392.7536],
    [21294,1537399844,54.0288,-110.8809,896.2,258.9,100.9,3.6,2.4,10.05,32.89,1.9455,393.2556],
    [21295,1537399845,54.0287,-110.8797,896.8,256.8,100.7,2.2,2.4,10.46,32.62,1.9438,392.7983],
    [21296,1537399846,54.0286,-110.8783,897.6,255.2,100.6,2.3,2.1,10.15,32.64,1.9433,393.1292],
    [21297,1537399847,54.0284,-110.8771,897.4,255.1,100.7,2.4,2.2,9.85,32.43,1.9443,392.9495],
    [21298,1537399848,54.0283,-110.8758,897.1,254.4,100.6,3.1,2.5,10.35,32.84,1.9469,392.6877],
    [21299,1537399849,54.0282,-110.8745,897.1,255.5,100.4,3.1,2.6,9.99,32.63,1.9442,393.7235],
    [21300,1537399850,54.0281,-110.8733,896.5,255.4,98.7,3.0,1.4,10.81,32.07,1.9444,391.4692],
    [21301,1537399851,54.028,-110.872,895.5,253.5,97.8,2.7,1.4,10.71,32.2,1.9447,391.7668],
    [21302,1537399852,54.0279,-110.8707,894.9,252.9,96.8,2.7,1.4,9.91,32.49,1.9453,393.3872],
    [21303,1537399853,54.0279,-110.8694,895.3,253.3,96.1,2.8,1.8,10.46,32.52,1.9458,393.1876],
    [21304,1537399854,54.0278,-110.8682,895.6,252.6,96.0,3.3,2.3,10.5,33.34,1.9456,393.5726],
    [21305,1537399855,54.0278,-110.8669,895.0,250.7,96.0,2.9,2.9,10.14,32.48,1.9447,393.5726],
    [21306,1537399856,54.0277,-110.8656,894.6,249.3,95.6,3.5,3.0,10.83,32.18,1.9447,393.5433],
    [21307,1537399857,54.0277,-110.8643,894.9,247.5,94.8,3.2,2.4,10.93,32.12,1.9443,391.8227],
    [21308,1537399858,54.0276,-110.8631,894.9,244.8,94.8,3.6,2.6,10.19,33.19,1.9435,393.4877],
    [21309,1537399859,54.0276,-110.8618,894.4,241.3,94.5,3.6,2.5,9.68,32.65,1.9444,393.4877],
    [21310,1537399860,54.0276,-110.8605,893.9,236.9,94.5,3.7,2.8,10.04,32.91,1.9441,393.0055],
    [21311,1537399861,54.0275,-110.8592,893.9,232.9,93.5,3.5,2.3,10.3,32.73,1.9447,391.5482],
    [21312,1537399862,54.0275,-110.858,894.0,227.0,92.8,3.1,2.4,10.16,32.55,1.9448,392.1712],
    [21313,1537399863,54.0275,-110.8567,894.2,222.9,92.3,2.9,2.4,10.01,33.02,1.9447,393.5728],
    [21314,1537399864,54.0275,-110.8554,895.2,218.1,91.6,3.1,2.1,10.25,33.43,1.9445,393.6645],
    [21315,1537399865,54.0275,-110.8541,896.2,214.5,91.3,3.0,2.1,10.45,32.47,1.9445,393.0446],
    [21316,1537399866,54.0275,-110.8529,896.4,211.1,90.8,3.0,1.9,10.13,32.72,1.9443,393.0179],
    [21317,1537399867,54.0275,-110.8516,896.1,206.9,90.9,2.5,2.1,9.75,32.73,1.945,394.0594],
    [21318,1537399868,54.0275,-110.8503,896.1,203.1,90.5,2.3,1.8,10.53,32.63,1.9453,393.0897],
    [21319,1537399869,54.0275,-110.8491,896.1,196.7,91.2,3.1,2.7,11.0,32.36,1.9454,392.9138],
    [21320,1537399870,54.0275,-110.8478,896.0,190.3,91.3,3.7,2.7,10.18,32.66,1.9446,391.7321],
    [21321,1537399871,54.0276,-110.8465,896.2,182.8,91.3,3.4,2.4,10.41,33.16,1.9451,393.1193],
    [21322,1537399872,54.0276,-110.8452,895.8,177.3,90.6,2.9,1.8,10.25,33.37,1.9425,393.0328],
    [21323,1537399873,54.0276,-110.844,895.1,173.6,90.7,3.2,2.0,10.01,32.67,1.9433,393.0576],
    [21324,1537399874,54.0276,-110.8427,895.1,169.6,90.2,2.8,1.2,10.41,33.06,1.9421,393.7478],
    [21325,1537399875,54.0276,-110.8414,894.4,166.3,89.7,3.2,0.7,10.73,32.18,1.9431,392.2775],
    [21326,1537399876,54.0276,-110.8402,893.3,163.3,90.1,3.2,1.2,10.33,33.43,1.9428,393.6809],
    [21327,1537399877,54.0276,-110.8389,893.0,163.7,90.1,3.5,0.8,10.5,32.53,1.9432,393.2985],
    [21328,1537399878,54.0276,-110.8376,893.6,164.5,90.7,3.8,1.2,10.52,31.8,1.9432,393.1993],
    [21329,1537399879,54.0276,-110.8364,894.1,164.1,90.8,3.5,0.9,10.39,32.06,1.9436,393.4769],
    [21330,1537399880,54.0276,-110.8351,894.3,166.6,90.8,4.2,0.8,10.33,33.01,1.943,392.5965],
    [21331,1537399881,54.0276,-110.8338,894.3,172.1,90.8,3.5,1.1,9.94,32.6,1.9438,392.1299],
    [21332,1537399882,54.0276,-110.8326,893.9,175.0,91.2,2.8,1.7,10.18,32.88,1.9428,393.2696],
    [21333,1537399883,54.0276,-110.8313,893.6,173.2,91.1,3.1,1.6,10.36,32.11,1.9419,393.634],
    [21334,1537399884,54.0276,-110.8301,893.4,169.4,90.5,3.4,1.0,10.41,32.01,1.9442,393.7908],
    [21335,1537399885,54.0276,-110.8288,893.7,164.1,90.3,3.9,0.8,10.56,31.99,1.9415,394.1946],
    [21336,1537399886,54.0276,-110.8276,894.1,158.9,89.9,4.0,0.4,10.82,31.59,1.942,393.1554],
    [21337,1537399887,54.0276,-110.8263,894.8,152.4,89.8,4.2,0.1,10.36,32.58,1.9422,391.2943],
    [21338,1537399888,54.0276,-110.8251,895.8,150.4,90.0,4.5,0.5,10.0,31.67,1.9427,393.9197],
    [21339,1537399889,54.0276,-110.8238,896.0,151.5,90.5,4.0,0.8,10.73,31.05,1.943,393.2342],
    [21340,1537399890,54.0276,-110.8225,895.3,153.0,90.0,4.3,0.0,9.8,31.44,1.9424,392.5037],
    [21341,1537399891,54.0276,-110.8213,895.1,151.1,89.9,3.9,-0.1,10.53,30.93,1.9419,394.5177],
    [21342,1537399892,54.0276,-110.82,895.0,146.7,90.2,3.4,0.1,10.34,31.2,1.9433,394.5285],
    [21343,1537399893,54.0276,-110.8187,895.0,142.9,90.2,3.7,0.0,10.45,32.05,1.9421,393.9014],
    [21344,1537399894,54.0276,-110.8175,895.1,143.1,90.2,4.2,-0.3,10.33,32.16,1.9419,392.2458],
    [21345,1537399895,54.0276,-110.8163,895.3,145.3,90.4,3.8,0.1,10.54,31.47,1.9425,393.4548],
    [21346,1537399896,54.0276,-110.815,895.5,143.5,91.3,4.1,1.2,10.97,31.3,1.9435,392.714],
    [21347,1537399897,54.0276,-110.8137,895.4,135.8,90.3,3.9,-0.1,10.92,30.72,1.9433,392.5908],
    [21348,1537399898,54.0276,-110.8125,895.3,124.2,89.9,3.3,-0.2,10.49,31.19,1.9425,393.6733],
    [21349,1537399899,54.0276,-110.8112,895.6,117.2,89.9,3.1,-0.3,9.89,31.19,1.9435,394.4422],
    [21350,1537399900,54.0276,-110.8099,896.1,114.8,90.2,2.6,0.3,10.21,31.46,1.9429,391.9387],
    [21351,1537399901,54.0276,-110.8087,896.8,117.8,90.7,1.5,0.4,10.34,31.64,1.9436,391.6169],
    [21352,1537399902,54.0276,-110.8074,897.3,122.0,90.7,1.1,0.4,10.08,31.44,1.9434,394.3468],
    [21353,1537399903,54.0276,-110.8062,897.3,125.3,91.5,1.1,1.0,10.49,30.85,1.9434,392.9106],
    [21354,1537399904,54.0276,-110.8049,897.0,127.8,91.3,1.2,0.5,10.3,32.05,1.9441,393.9071],
    [21355,1537399905,54.0276,-110.8037,896.5,129.2,91.9,0.9,1.1,11.14,31.16,1.9447,394.1092],
    [21356,1537399906,54.0275,-110.8024,896.5,131.5,92.1,1.7,1.6,10.16,31.46,1.9425,391.6294],
    [21357,1537399907,54.0275,-110.8011,896.7,136.0,92.2,1.9,2.0,10.6,30.85,1.944,391.7735],
    [21358,1537399908,54.0275,-110.7999,896.1,142.7,91.9,2.5,1.9,10.31,31.52,1.9438,393.1495],
    [21359,1537399909,54.0275,-110.7986,895.4,145.9,91.4,2.6,1.6,10.31,32.38,1.9441,392.7041],
    [21360,1537399910,54.0275,-110.7974,894.6,146.7,90.8,2.6,1.1,10.3,32.32,1.9439,394.6082],
    [21361,1537399911,54.0275,-110.7961,894.5,146.5,90.2,2.6,0.9,10.02,31.65,1.9424,393.8833],
    [21362,1537399912,54.0275,-110.7949,894.8,147.8,90.1,2.6,1.0,10.35,32.39,1.9437,393.1468],
    [21363,1537399913,54.0275,-110.7936,894.8,147.6,90.2,2.8,1.1,10.18,31.69,1.9441,392.9939],
    [21364,1537399914,54.0275,-110.7923,894.6,147.3,90.0,3.0,0.9,10.34,32.32,1.9418,393.24],
    [21365,1537399915,54.0276,-110.7911,894.4,148.4,90.1,3.4,1.0,10.32,32.01,1.9411,392.8774],
    [21366,1537399916,54.0276,-110.7898,894.3,150.1,90.1,3.5,0.8,9.78,31.58,1.9412,391.5776],
    [21367,1537399917,54.0276,-110.7886,894.8,152.6,90.2,3.7,0.9,9.94,31.5,1.9422,393.6703],
    [21368,1537399918,54.0276,-110.7874,895.0,152.8,90.4,3.8,1.1,10.85,30.74,1.943,391.6917],
    [21369,1537399919,54.0276,-110.7861,895.0,154.4,90.3,3.7,1.0,10.0,31.17,1.9425,393.621],
    [21370,1537399920,54.0276,-110.7849,895.1,156.0,90.9,3.9,1.6,10.08,31.61,1.9432,394.4112],
    [21371,1537399921,54.0276,-110.7836,895.3,156.6,90.7,4.2,1.3,10.29,31.37,1.9422,394.8565],
    [21372,1537399922,54.0276,-110.7824,895.5,157.5,90.5,4.4,1.1,10.8,30.87,1.9429,394.8565],
    [21373,1537399923,54.0276,-110.7811,895.6,156.9,89.9,3.8,0.7,10.46,31.6,1.9432,394.3289],
    [21374,1537399924,54.0276,-110.7799,895.4,156.4,89.7,3.7,0.5,10.16,31.43,1.9441,393.5596],
    [21375,1537399925,54.0276,-110.7786,895.3,156.6,89.6,3.0,0.0,10.14,31.39,1.9435,393.3059],
    [21376,1537399926,54.0276,-110.7774,896.0,158.0,89.5,4.1,-0.1,10.04,31.61,1.9428,393.318],
    [21377,1537399927,54.0276,-110.7761,896.1,158.0,89.7,3.6,0.0,10.3,31.7,1.9437,394.3193],
    [21378,1537399928,54.0276,-110.7749,895.5,155.8,89.4,4.6,-0.4,10.51,31.11,1.9436,393.9775],
    [21379,1537399929,54.0276,-110.7736,895.8,155.0,89.5,2.4,-0.5,10.19,31.49,1.9419,391.8165],
    [21380,1537399930,54.0276,-110.7723,895.4,154.7,90.0,2.1,-0.3,10.7,30.93,1.9424,391.1691],
    [21381,1537399931,54.0276,-110.7711,894.7,154.7,90.4,2.2,-0.3,10.78,31.43,1.944,393.57],
    [21382,1537399932,54.0276,-110.7699,894.6,154.9,90.7,1.9,-0.3,10.48,31.23,1.9436,393.4047],
    [21383,1537399933,54.0276,-110.7686,894.7,155.8,91.6,2.4,0.6,11.02,31.01,1.9436,392.7273],
    [21384,1537399934,54.0276,-110.7674,895.0,157.2,91.6,3.0,0.4,10.04,31.15,1.9434,393.7745],
    [21385,1537399935,54.0276,-110.7662,895.2,158.6,91.5,3.2,0.4,10.49,30.96,1.9422,393.62],
    [21386,1537399936,54.0276,-110.7649,895.3,159.6,91.5,3.6,0.4,10.33,31.06,1.9431,393.5806],
    [21387,1537399937,54.0275,-110.7636,895.0,159.7,91.0,3.7,0.1,10.82,31.14,1.9419,394.2086],
    [21388,1537399938,54.0275,-110.7624,894.7,159.4,90.6,3.7,-0.3,10.12,31.46,1.9434,392.9337],
    [21389,1537399939,54.0275,-110.7611,894.3,159.0,90.2,3.3,-0.5,10.3,31.46,1.9435,394.3483],
    [21390,1537399940,54.0275,-110.7599,894.1,159.6,90.2,3.7,-0.3,10.49,31.49,1.9425,393.6719],
    [21391,1537399941,54.0275,-110.7587,894.3,161.7,89.6,3.3,-0.8,10.66,31.03,1.9425,394.2719],
    [21392,1537399942,54.0275,-110.7574,894.3,165.4,89.6,3.4,-0.6,10.18,31.36,1.9419,393.7867],
    [21393,1537399943,54.0275,-110.7562,894.0,168.6,89.3,3.4,-1.0,9.85,31.21,1.9427,392.9971],
    [21394,1537399944,54.0275,-110.7549,894.0,174.3,89.5,3.6,-0.6,10.4,31.1,1.9424,392.2227],
    [21395,1537399945,54.0275,-110.7537,894.3,177.6,89.9,3.9,-0.1,10.37,31.2,1.9427,393.9304],
    [21396,1537399946,54.0275,-110.7525,894.6,179.0,90.7,3.0,0.8,9.75,31.3,1.9448,392.2127],
    [21397,1537399947,54.0275,-110.7512,895.4,180.5,91.7,2.6,1.9,11.05,30.98,1.9444,392.2127],
    [21398,1537399948,54.0275,-110.75,895.9,184.2,92.1,2.7,2.3,10.09,31.22,1.9425,392.4534],
    [21399,1537399949,54.0275,-110.7487,895.8,189.9,91.7,2.8,2.1,9.93,30.97,1.9422,393.6793],
    [21400,1537399950,54.0275,-110.7475,895.5,193.7,91.8,2.7,2.5,10.75,30.99,1.943,393.6348],
    [21401,1537399951,54.0275,-110.7462,895.2,192.0,91.4,2.7,2.3,9.55,31.23,1.9437,393.6094],
    [21402,1537399952,54.0275,-110.745,894.9,195.5,91.4,2.5,2.5,10.19,31.57,1.9421,393.2786],
    [21403,1537399953,54.0275,-110.7437,894.8,197.5,90.9,2.6,2.1,10.29,31.52,1.942,394.8538],
    [21404,1537399954,54.0275,-110.7425,894.5,199.9,90.7,2.5,2.0,10.36,31.39,1.9417,393.1975],
    [21405,1537399955,54.0275,-110.7413,894.2,201.6,90.5,2.2,2.1,10.25,31.2,1.943,393.633],
    [21406,1537399956,54.0275,-110.74,894.1,205.0,90.4,1.9,1.9,10.39,31.86,1.9429,394.3821],
    [21407,1537399957,54.0276,-110.7388,893.9,209.0,89.8,1.8,1.2,10.45,30.78,1.943,392.4863],
    [21408,1537399958,54.0276,-110.7375,894.0,209.2,90.1,2.3,1.6,9.77,31.04,1.9434,393.5458],
    [21409,1537399959,54.0276,-110.7363,894.6,209.7,90.0,1.7,1.3,10.2,31.3,1.9435,394.0986],
    [21410,1537399960,54.0276,-110.735,894.7,209.9,89.3,2.5,0.4,10.54,30.57,1.9439,391.7061],
    [21411,1537399961,54.0276,-110.7338,893.9,211.3,89.6,2.1,0.6,10.79,31.16,1.9437,391.7061],
    [21412,1537399962,54.0276,-110.7325,893.7,212.9,89.8,2.4,0.8,9.97,31.12,1.944,393.0461],
    [21413,1537399963,54.0276,-110.7313,894.0,216.4,90.1,2.9,1.0,10.43,31.29,1.9431,393.2922],
    [21414,1537399964,54.0276,-110.7301,894.2,217.7,90.2,3.3,0.9,10.21,32.13,1.9446,393.4076],
    [21415,1537399965,54.0276,-110.7288,894.2,219.6,90.1,3.2,0.9,10.33,32.06,1.9436,392.9623],
    [21416,1537399966,54.0276,-110.7276,893.8,220.1,90.2,3.1,1.0,10.16,31.74,1.9422,393.1691],
    [21417,1537399967,54.0276,-110.7263,893.5,222.9,90.1,3.9,1.1,10.42,31.27,1.9424,392.7437],
    [21418,1537399968,54.0277,-110.7251,893.5,224.9,89.9,3.8,1.0,10.43,31.23,1.9417,392.7525],
    [21419,1537399969,54.0277,-110.7239,894.5,226.8,90.3,3.4,1.5,9.89,31.7,1.9434,395.1404],
    [21420,1537399970,54.0277,-110.7226,894.9,228.0,90.3,3.5,1.6,9.63,31.53,1.9421,393.7672],
    [21421,1537399971,54.0277,-110.7214,894.6,227.0,90.8,4.0,2.2,10.32,31.75,1.9412,394.6675],
    [21422,1537399972,54.0277,-110.7202,894.2,225.2,90.5,4.8,2.0,10.29,31.52,1.9417,394.4209],
    [21423,1537399973,54.0277,-110.7189,894.1,225.9,89.7,4.6,1.1,10.06,31.78,2.0481,393.0199],
    [21424,1537399974,54.0277,-110.7177,894.9,228.2,89.2,3.3,0.9,10.13,31.59,2.186,392.7624],
    [21425,1537399975,54.0277,-110.7164,896.3,230.6,89.2,3.0,0.9,10.26,31.53,2.2021,391.9347],
    [21426,1537399976,54.0278,-110.7152,896.8,231.9,88.7,2.8,0.4,10.28,31.36,2.0262,392.7696],
    [21427,1537399977,54.0278,-110.714,896.2,230.2,89.0,2.9,0.6,10.12,31.52,1.9778,395.3792],
    [21428,1537399978,54.0278,-110.7127,894.9,228.9,89.4,4.0,1.2,10.46,31.25,1.9526,392.2458],
    [21429,1537399979,54.0278,-110.7115,894.0,228.0,90.3,4.4,1.9,9.59,31.54,1.9494,392.3487],
    [21430,1537399980,54.0278,-110.7102,894.0,226.9,89.6,3.8,1.1,10.17,31.87,1.9465,393.1988],
    [21431,1537399981,54.0278,-110.709,894.3,226.3,90.1,4.0,1.8,11.05,31.22,1.9434,392.9654],
    [21432,1537399982,54.0279,-110.7077,894.1,224.1,89.9,3.9,1.6,9.95,31.29,1.943,393.8658],
    [21433,1537399983,54.0279,-110.7065,894.0,223.0,89.9,3.9,1.6,9.9,31.89,1.9429,393.1826],
    [21434,1537399984,54.0279,-110.7053,894.0,224.0,89.6,3.9,1.2,10.09,32.1,1.9422,392.6317],
    [21435,1537399985,54.0279,-110.704,893.8,225.7,89.4,3.6,1.1,10.68,31.05,1.942,393.6495],
    [21436,1537399986,54.0279,-110.7028,893.7,227.7,89.4,4.2,1.0,10.29,31.68,1.9421,393.2828],
    [21437,1537399987,54.0279,-110.7015,894.3,229.3,89.1,4.1,0.6,9.65,31.44,1.9473,392.9146],
    [21438,1537399988,54.028,-110.7003,895.7,231.7,89.5,2.5,1.1,9.71,31.36,1.9541,393.29],
    [21439,1537399989,54.028,-110.699,896.6,232.6,89.9,2.5,1.4,10.29,31.56,1.9555,392.7603],
    [21440,1537399990,54.028,-110.6978,896.8,231.8,90.8,2.6,2.4,10.3,32.2,1.9583,392.7603],
    [21441,1537399991,54.028,-110.6965,896.9,232.0,90.4,3.1,1.9,10.05,31.56,1.9608,393.2809],
    [21442,1537399992,54.028,-110.6952,896.7,230.7,89.9,3.0,1.5,10.61,30.87,1.9626,391.7189],
    [21443,1537399993,54.028,-110.694,896.1,230.1,90.3,2.7,2.1,9.95,31.5,1.9613,393.6015],
    [21444,1537399994,54.028,-110.6927,896.0,230.0,89.8,2.4,1.3,10.31,31.68,1.9522,392.4822],
    [21445,1537399995,54.0281,-110.6915,896.2,229.2,89.6,2.8,1.4,10.08,31.61,1.9555,392.8376],
    [21446,1537399996,54.0281,-110.6903,895.1,226.1,90.3,3.2,1.9,10.58,31.36,1.9544,393.3319],
    [21447,1537399997,54.0281,-110.689,893.9,225.7,89.4,3.4,0.9,10.11,32.35,1.9556,391.0762],
    [21448,1537399998,54.0281,-110.6878,893.9,226.6,89.6,3.0,1.1,10.15,31.37,1.9492,392.3202],
    [21449,1537399999,54.0281,-110.6865,893.5,226.1,90.6,2.8,2.2,10.13,31.39,1.9488,392.3202],
    [21450,1537400000,54.0281,-110.6853,893.4,227.1,90.7,3.1,2.2,10.59,31.34,1.9464,393.3617],
    [21451,1537400001,54.0281,-110.684,894.5,228.2,90.4,2.8,2.1,9.82,31.4,1.947,393.9805],
    [21452,1537400002,54.0281,-110.6828,896.0,230.0,90.2,3.1,2.0,10.25,32.3,1.9497,393.9805],
    [21453,1537400003,54.0282,-110.6815,896.5,230.6,89.8,3.6,1.4,10.23,31.26,1.9466,393.531],
    [21454,1537400004,54.0282,-110.6803,896.4,230.4,89.3,4.0,1.0,9.74,31.74,1.9475,393.0702],
    [21455,1537400005,54.0282,-110.679,895.5,229.5,89.4,4.1,1.2,10.16,31.84,1.9485,392.8839],
    [21456,1537400006,54.0282,-110.6778,894.4,228.3,89.6,3.3,1.5,9.63,31.49,1.947,392.3179],
    [21457,1537400007,54.0282,-110.6765,895.0,229.7,90.2,2.6,2.1,10.25,32.0,1.9467,393.6814],
    [21458,1537400008,54.0283,-110.6754,897.2,232.2,89.3,3.5,1.0,10.46,31.92,1.9466,393.9044],
    [21459,1537400009,54.0283,-110.674,899.1,234.8,89.3,2.5,1.0,9.81,31.56,1.9474,394.9099],
    [21460,1537400010,54.0283,-110.6728,899.4,235.4,89.9,1.9,1.6,10.48,31.26,1.9466,393.8623],
    [21461,1537400011,54.0283,-110.6715,899.0,235.5,90.1,1.7,1.8,10.34,31.69,1.946,392.504],
    [21462,1537400012,54.0283,-110.6703,899.2,236.3,90.3,2.2,1.7,10.06,31.8,1.9459,392.114],
    [21463,1537400013,54.0283,-110.669,899.5,236.5,89.5,2.2,1.0,10.33,32.58,1.9452,392.8826],
    [21464,1537400014,54.0283,-110.6678,898.6,235.6,91.2,2.5,3.0,10.3,32.13,1.9451,393.6942],
    [21465,1537400015,54.0284,-110.6665,897.0,234.3,91.1,2.5,2.8,9.92,31.79,1.9415,393.5611],
    [21466,1537400016,54.0284,-110.6653,895.9,233.9,91.3,2.0,3.3,10.36,31.58,1.9417,392.8287],
    [21467,1537400017,54.0284,-110.664,895.2,233.2,90.9,1.9,2.8,10.24,31.47,1.9429,393.2374],
    [21468,1537400018,54.0284,-110.6628,894.4,232.4,90.3,1.9,2.3,10.45,31.37,1.9413,393.6134],
    [21469,1537400019,54.0284,-110.6615,893.8,231.1,89.6,1.7,1.8,10.14,31.53,1.9409,393.3577],
    [21470,1537400020,54.0284,-110.6603,893.8,231.2,89.1,1.7,1.4,10.31,31.7,1.9413,392.4664],
    [21471,1537400021,54.0285,-110.659,894.0,231.3,89.0,2.1,1.3,9.87,31.59,1.9411,393.2616],
    [21472,1537400022,54.0285,-110.6578,894.1,231.1,89.4,1.8,1.6,10.47,31.11,1.9427,393.1964],
    [21473,1537400023,54.0285,-110.6565,894.4,231.4,89.5,2.3,1.6,10.33,31.9,1.9437,393.6403],
    [21474,1537400024,54.0285,-110.6553,894.4,231.4,89.6,2.9,1.5,10.06,31.21,1.9446,392.8011],
    [21475,1537400025,54.0285,-110.654,894.4,231.4,89.8,2.9,1.9,10.57,31.17,1.9453,393.4979],
    [21476,1537400026,54.0286,-110.6528,894.0,232.0,90.4,2.8,2.5,10.13,31.61,1.9434,393.1816],
    [21477,1537400027,54.0286,-110.6515,893.4,231.4,90.0,3.7,2.0,10.17,31.3,1.9425,393.9261],
    [21478,1537400028,54.0286,-110.6503,892.7,231.7,89.3,3.5,1.4,10.37,31.13,1.9424,392.1364],
    [21479,1537400029,54.0286,-110.649,892.6,231.6,89.1,2.8,1.3,10.33,32.17,1.9432,393.9094],
    [21480,1537400030,54.0286,-110.6478,893.1,232.1,89.2,3.1,1.3,10.17,31.52,1.9431,393.7326],
    [21481,1537400031,54.0287,-110.6465,893.2,232.2,89.3,3.3,1.3,10.71,31.15,1.9426,393.3381],
    [21482,1537400032,54.0287,-110.6453,893.1,232.1,89.2,3.2,1.0,10.27,31.32,1.9423,392.5009],
    [21483,1537400033,54.0287,-110.6441,893.0,231.0,89.2,3.2,0.8,10.68,30.98,1.943,393.5627],
    [21484,1537400034,54.0287,-110.6428,892.6,230.6,89.7,3.5,1.3,11.01,30.69,1.9425,393.7209],
    [21485,1537400035,54.0287,-110.6416,892.4,230.4,89.9,3.5,1.3,10.1,31.04,1.9423,394.0462],
    [21486,1537400036,54.0287,-110.6403,892.9,231.9,89.6,3.8,0.9,10.26,31.22,1.9424,393.4396],
    [21487,1537400037,54.0288,-110.6391,893.8,232.8,89.8,3.9,1.0,10.29,31.13,1.9415,392.8186],
    [21488,1537400038,54.0288,-110.6378,894.2,232.2,89.9,4.1,1.2,10.33,31.12,1.9435,394.0349],
    [21489,1537400039,54.0288,-110.6366,894.0,230.3,90.3,3.6,1.7,10.37,31.06,1.9424,393.1645],
    [21490,1537400040,54.0288,-110.6354,893.8,229.8,90.2,2.9,1.5,10.24,30.98,1.9424,391.7067],
    [21491,1537400041,54.0288,-110.6341,894.3,230.3,89.9,3.4,1.1,10.39,31.64,1.942,393.9195],
    [21492,1537400042,54.0288,-110.6329,894.0,231.0,89.4,3.4,0.7,10.26,31.65,1.9416,392.7789],
    [21493,1537400043,54.0288,-110.6316,893.6,231.6,89.5,3.5,0.7,10.32,31.21,1.9413,393.9216],
    [21494,1537400044,54.0288,-110.6304,893.6,232.6,89.5,3.3,0.8,10.27,30.96,1.9418,393.5023],
    [21495,1537400045,54.0289,-110.6292,893.7,232.7,89.6,3.6,0.8,10.16,30.97,1.9415,393.518],
    [21496,1537400046,54.0289,-110.6279,893.6,232.6,89.6,3.9,0.7,10.37,30.65,1.9419,393.518],
    [21497,1537400047,54.0289,-110.6267,893.5,231.5,89.7,4.0,0.7,10.75,30.49,1.943,393.4899],
    [21498,1537400048,54.0289,-110.6255,893.3,230.3,89.8,3.7,0.8,10.94,30.5,1.9425,393.6215],
    [21499,1537400049,54.0289,-110.6242,893.3,229.3,89.9,3.6,1.0,10.38,30.75,1.9416,392.9405],
    [21500,1537400050,54.0289,-110.623,893.6,227.5,89.9,3.8,0.9,10.72,30.8,1.9418,394.1372],
    [21501,1537400051,54.0289,-110.6218,894.2,227.2,90.0,3.9,1.1,10.4,30.35,1.9418,394.1098],
    [21502,1537400052,54.0289,-110.6205,894.8,226.5,90.1,3.9,1.1,10.34,30.92,1.9427,392.6721],
    [21503,1537400053,54.0289,-110.6193,895.0,224.8,89.9,4.1,1.0,9.76,30.79,1.9426,393.9244],
    [21504,1537400054,54.0289,-110.6181,894.7,222.9,90.3,4.0,1.4,10.21,30.46,1.9419,392.4485],
    [21505,1537400055,54.029,-110.6168,894.4,220.3,90.0,3.7,1.3,10.62,30.49,1.9416,392.4485],
    [21506,1537400056,54.029,-110.6156,894.5,218.4,89.7,3.5,0.9,10.33,31.51,1.941,393.708],
    [21507,1537400057,54.029,-110.6143,894.7,216.6,89.4,4.0,0.6,10.66,30.25,1.9413,391.2261],
    [21508,1537400058,54.029,-110.6131,894.8,215.0,89.6,3.7,0.9,9.84,30.6,1.9493,393.433],
    [21509,1537400059,54.029,-110.6119,895.3,215.2,90.0,3.7,1.4,10.13,30.96,1.9661,391.4843],
    [21510,1537400060,54.029,-110.6106,896.6,217.3,90.1,3.5,1.6,10.28,30.99,1.9636,391.4843],
    [21511,1537400061,54.029,-110.6094,897.5,218.2,90.3,3.5,1.7,9.92,30.94,1.961,393.3321],
    [21512,1537400062,54.029,-110.6082,897.6,218.5,89.8,3.7,1.1,9.7,31.07,1.9585,392.4645],
    [21513,1537400063,54.029,-110.6069,896.8,220.0,89.6,3.3,0.7,9.66,30.84,1.9594,392.4451],
    [21514,1537400064,54.0291,-110.6056,895.9,223.5,89.7,3.7,0.9,9.91,30.96,1.9631,393.3665],
    [21515,1537400065,54.0291,-110.6044,895.6,231.3,90.2,4.0,1.2,9.82,31.21,1.967,393.3665],
    [21516,1537400066,54.0291,-110.6032,895.2,238.8,90.1,3.3,0.9,10.44,30.91,1.9655,391.0883],
    [21517,1537400067,54.0291,-110.6019,894.9,253.3,90.2,3.5,1.0,10.94,30.57,1.9628,392.5216],
    [21518,1537400068,54.0291,-110.6007,895.1,267.5,90.4,2.8,1.3,10.27,30.94,1.9576,392.5216],
    [21519,1537400069,54.0291,-110.5994,895.9,281.6,90.8,2.8,1.8,10.27,31.71,1.954,393.7945],
    [21520,1537400070,54.0291,-110.5982,896.7,284.9,91.2,2.2,2.3,10.63,30.88,1.9522,393.8383],
    [21521,1537400071,54.0291,-110.5969,896.9,287.2,91.3,2.6,2.3,10.05,31.1,1.9556,391.7675],
    [21522,1537400072,54.0291,-110.5957,896.5,288.4,91.3,2.4,2.4,9.94,31.09,1.9591,392.7848],
    [21523,1537400073,54.0291,-110.5944,896.9,293.3,91.2,2.9,2.4,10.39,31.2,1.9572,393.1932],
    [21524,1537400074,54.0291,-110.5931,897.1,298.8,90.8,3.0,1.8,10.03,30.87,1.9554,393.2697],
    [21525,1537400075,54.0291,-110.5919,896.3,302.3,89.7,2.7,0.7,10.39,30.71,1.9556,392.6564],
    [21526,1537400076,54.0291,-110.5906,895.2,301.2,89.3,2.9,0.6,10.04,31.15,1.9551,393.9643],
    [21527,1537400077,54.0292,-110.5894,894.6,300.6,90.1,3.3,1.9,10.21,31.11,1.9594,391.7553],
    [21528,1537400078,54.0292,-110.5881,894.4,300.4,90.8,3.5,2.2,10.02,31.46,1.9622,392.1458],
    [21529,1537400079,54.0292,-110.5869,894.3,300.3,90.7,3.2,1.8,10.36,30.95,1.9557,392.3252],
    [21530,1537400080,54.0292,-110.5856,894.6,300.6,91.8,2.3,2.7,10.43,31.05,1.9546,390.9581],
    [21531,1537400081,54.0292,-110.5843,895.4,301.4,91.3,2.4,1.8,10.27,31.97,1.9539,394.0101],
    [21532,1537400082,54.0292,-110.5831,896.0,302.0,92.5,2.3,3.3,10.52,30.74,1.9521,393.4944],
    [21533,1537400083,54.0292,-110.5818,896.9,302.9,92.4,3.6,3.0,10.42,30.82,1.9519,393.6251],
    [21534,1537400084,54.0292,-110.5805,896.5,302.5,91.3,2.6,1.9,9.74,31.1,1.9517,393.7438],
    [21535,1537400085,54.0292,-110.5793,895.1,301.1,90.8,2.8,1.7,10.93,30.73,1.9534,393.327],
    [21536,1537400086,54.0292,-110.578,894.4,287.8,89.5,2.9,0.6,11.16,30.74,1.9531,393.7456],
    [21537,1537400087,54.0292,-110.5767,894.3,272.9,89.5,2.8,1.0,10.45,30.9,1.947,393.5944],
    [21538,1537400088,54.0292,-110.5755,894.0,259.7,89.4,2.8,0.8,10.33,31.73,1.9456,393.975],
    [21539,1537400089,54.0292,-110.5742,893.5,255.9,89.9,2.4,1.4,10.2,31.29,1.9481,393.0415],
    [21540,1537400090,54.0293,-110.573,893.7,254.7,90.1,2.5,1.4,10.44,30.64,1.947,391.1644],
    [21541,1537400091,54.0293,-110.5717,894.3,251.8,89.7,2.2,0.9,10.06,31.59,1.9461,391.7699],
    [21542,1537400092,54.0293,-110.5705,895.4,243.8,89.6,1.9,1.0,10.69,30.14,1.9517,394.1229],
    [21543,1537400093,54.0293,-110.5692,896.1,240.5,90.4,2.9,1.9,10.45,30.31,1.9539,393.9914],
    [21544,1537400094,54.0293,-110.5679,896.1,240.9,90.1,3.0,1.3,10.15,31.4,1.9524,394.2949],
    [21545,1537400095,54.0293,-110.5666,896.1,239.8,90.2,3.1,1.4,10.35,31.58,1.9582,394.1873],
    [21546,1537400096,54.0293,-110.5654,896.7,237.4,91.2,3.4,2.5,10.26,31.17,1.9619,394.5684],
    [21547,1537400097,54.0293,-110.5641,897.2,233.5,91.3,3.3,2.4,10.36,31.53,1.9622,394.1186],
    [21548,1537400098,54.0293,-110.5629,897.2,235.3,91.3,3.2,2.3,10.45,31.1,1.9585,392.1871],
    [21549,1537400099,54.0293,-110.5616,896.4,242.4,90.2,3.9,0.7,9.7,30.73,1.9524,394.7819],
    [21550,1537400100,54.0293,-110.5603,895.4,243.4,90.3,4.5,1.1,9.9,30.88,1.9534,394.6454],
    [21551,1537400101,54.0294,-110.559,894.9,241.8,90.5,4.2,1.5,10.98,30.44,1.9579,393.6401],
    [21552,1537400102,54.0294,-110.5577,894.6,239.2,91.0,4.5,2.2,10.24,30.92,1.9536,393.1322],
    [21553,1537400103,54.0294,-110.5565,893.8,239.5,90.5,4.2,1.5,10.44,30.52,1.9516,393.1322],
    [21554,1537400104,54.0294,-110.5552,893.2,238.9,90.4,3.7,1.6,10.44,30.84,1.9445,393.2113],
    [21555,1537400105,54.0294,-110.5539,893.4,239.3,90.3,3.6,1.5,10.45,31.19,1.9439,393.3431],
    [21556,1537400106,54.0294,-110.5527,893.7,239.7,90.1,3.8,1.2,10.39,30.79,1.9431,394.067],
    [21557,1537400107,54.0294,-110.5514,893.9,239.9,90.3,4.2,1.6,10.22,30.83,1.9443,393.2186],
    [21558,1537400108,54.0294,-110.5501,894.2,240.3,90.2,4.2,1.5,10.88,30.25,1.9442,392.7271],
    [21559,1537400109,54.0294,-110.5489,894.1,240.8,90.2,4.5,1.5,10.21,30.99,1.9434,394.0127],
    [21560,1537400110,54.0294,-110.5476,894.1,240.0,90.0,3.5,1.4,10.43,30.69,1.9454,393.2466],
    [21561,1537400111,54.0295,-110.5463,894.7,241.7,90.4,4.1,1.9,10.43,30.61,1.9471,392.1818],
    [21562,1537400112,54.0295,-110.5451,894.8,241.8,90.2,4.1,1.7,10.53,30.29,1.9471,390.3165],
    [21563,1537400113,54.0295,-110.5438,894.4,241.4,90.3,4.3,1.8,9.86,30.63,1.9472,392.9653],
    [21564,1537400114,54.0295,-110.5425,895.0,242.0,90.2,4.1,1.6,10.61,30.21,1.9502,393.1689],
    [21565,1537400115,54.0295,-110.5413,895.7,243.7,90.6,4.2,2.5,10.18,30.62,1.9491,393.488],
    [21566,1537400116,54.0295,-110.54,895.7,243.7,91.4,4.3,3.1,10.98,30.34,1.9488,393.3663],
    [21567,1537400117,54.0295,-110.5388,895.2,243.2,90.7,4.1,2.3,10.73,30.58,1.9515,393.3716],
    [21568,1537400118,54.0295,-110.5375,895.5,242.5,90.6,3.5,2.5,10.19,30.74,1.9553,392.9358],
    [21569,1537400119,54.0296,-110.5362,895.6,241.6,91.1,3.8,2.9,9.99,30.86,1.954,392.8116],
    [21570,1537400120,54.0296,-110.535,895.9,240.9,90.9,3.4,2.6,10.63,30.11,1.9498,392.4874],
    [21571,1537400121,54.0296,-110.5337,896.9,240.9,90.2,3.0,1.8,10.69,29.99,1.9474,393.2843],
    [21572,1537400122,54.0296,-110.5324,897.1,241.1,90.4,3.2,2.0,10.31,30.74,1.948,393.0377],
    [21573,1537400123,54.0296,-110.5313,896.9,241.9,90.0,2.4,1.4,10.24,31.05,1.9514,393.2933],
    [21574,1537400124,54.0296,-110.5299,896.9,242.9,91.0,2.5,2.5,10.8,30.68,1.9517,392.2316],
    [21575,1537400125,54.0296,-110.5287,897.2,243.2,90.9,3.6,2.1,10.12,30.98,1.9529,392.5708],
    [21576,1537400126,54.0296,-110.5274,897.7,244.0,90.8,2.2,2.5,10.03,30.69,1.955,393.6252],
    [21577,1537400127,54.0296,-110.5261,896.9,242.9,90.4,2.6,2.0,9.82,30.87,1.9517,393.1842],
    [21578,1537400128,54.0297,-110.5249,895.6,239.9,89.4,3.5,1.3,9.68,30.89,1.9506,393.6153],
    [21579,1537400129,54.0297,-110.5236,895.2,238.2,90.7,3.5,3.0,10.02,31.24,1.9523,393.9808],
    [21580,1537400130,54.0297,-110.5223,894.9,236.8,90.4,2.9,2.0,10.3,30.98,1.9497,392.4642],
    [21581,1537400131,54.0297,-110.5211,894.3,237.2,89.4,2.0,0.8,9.75,30.74,1.9473,393.6317],
    [21582,1537400132,54.0297,-110.5198,893.7,238.9,89.9,2.7,1.3,10.5,30.72,1.947,394.1035],
    [21583,1537400133,54.0297,-110.5185,893.6,239.6,89.6,3.5,1.0,9.7,30.75,1.947,391.5174],
    [21584,1537400134,54.0297,-110.5173,893.6,239.6,89.5,3.1,0.8,10.61,30.7,1.9471,393.9233],
    [21585,1537400135,54.0298,-110.516,893.8,238.8,89.9,2.9,0.9,10.16,30.87,1.9465,390.8656],
    [21586,1537400136,54.0298,-110.5147,895.0,239.0,89.8,3.4,0.6,10.21,30.98,1.9468,393.7574],
    [21587,1537400137,54.0298,-110.5135,896.2,239.2,89.8,3.7,0.6,10.29,30.74,1.9446,393.7751],
    [21588,1537400138,54.0298,-110.5122,896.9,239.2,90.4,4.1,1.1,10.44,31.41,1.9463,392.9491],
    [21589,1537400139,54.0298,-110.511,896.6,238.6,89.8,3.5,0.1,10.33,30.52,1.9457,392.4026],
    [21590,1537400140,54.0298,-110.5097,896.5,238.4,89.7,2.9,-0.2,10.38,31.49,1.9459,392.2316],
    [21591,1537400141,54.0298,-110.5084,897.2,239.1,89.5,2.9,-0.4,10.22,30.87,1.9442,394.1775],
    [21592,1537400142,54.0298,-110.5072,897.6,239.6,89.9,3.2,0.1,10.38,31.1,1.9437,393.8263],
    [21593,1537400143,54.0298,-110.5059,897.3,239.3,90.0,3.3,0.2,10.33,30.74,1.9438,393.3684],
    [21594,1537400144,54.0298,-110.5046,897.0,238.0,90.7,3.7,0.9,10.09,30.69,1.9467,393.3997],
    [21595,1537400145,54.0298,-110.5034,896.8,238.8,90.4,4.0,0.5,10.38,31.31,1.9471,393.469],
    [21596,1537400146,54.0298,-110.5021,896.4,238.4,90.5,4.0,1.0,10.6,30.35,1.9468,392.365],
    [21597,1537400147,54.0298,-110.5008,895.7,239.3,91.0,3.7,2.0,9.82,30.54,1.9466,392.365],
    [21598,1537400148,54.0298,-110.4996,895.8,239.9,90.2,2.9,1.7,10.52,31.0,1.9514,393.4586],
    [21599,1537400149,54.0298,-110.4983,897.3,242.2,90.1,2.1,2.0,9.98,30.72,1.9507,392.247],
    [21600,1537400150,54.0298,-110.497,898.2,244.3,89.8,1.6,2.1,11.1,30.65,1.9499,392.5981],
    [21601,1537400151,54.0299,-110.4957,898.9,246.0,90.9,3.2,3.0,10.38,31.2,1.9493,390.808],
    [21602,1537400152,54.0299,-110.4945,898.9,247.9,89.9,2.6,1.2,10.42,31.93,1.9484,392.8035],
    [21603,1537400153,54.0299,-110.4932,898.2,250.0,90.2,1.5,1.4,10.35,31.61,1.953,391.8711],
    [21604,1537400154,54.0299,-110.4919,898.7,253.3,90.4,1.0,1.5,10.29,32.2,1.9529,392.2613],
    [21605,1537400155,54.0299,-110.4906,899.9,255.0,90.7,2.1,2.1,10.37,31.59,1.952,392.1241],
    [21606,1537400156,54.0299,-110.4894,900.2,256.2,91.0,2.4,2.3,10.25,31.64,1.9532,392.1241],
    [21607,1537400157,54.0299,-110.4881,899.4,254.2,91.4,2.4,2.4,10.21,31.82,1.9546,393.5242],
    [21608,1537400158,54.0299,-110.4868,898.5,251.4,91.5,2.2,2.3,10.34,31.65,1.9535,392.9775],
    [21609,1537400159,54.0299,-110.4855,897.7,249.7,91.7,2.5,2.7,10.83,31.8,1.9521,390.8764],
    [21610,1537400160,54.0299,-110.4842,897.5,250.0,92.4,2.9,3.8,10.86,31.68,1.9509,393.4164],
    [21611,1537400161,54.0299,-110.483,897.2,250.5,92.1,2.7,4.0,9.83,31.92,1.953,393.2658],
    [21612,1537400162,54.0299,-110.4817,897.1,252.1,91.5,2.9,3.5,10.37,32.69,1.9517,392.3462],
    [21613,1537400163,54.03,-110.4804,896.4,253.4,90.8,3.3,3.1,10.55,31.89,1.9513,393.4878],
    [21614,1537400164,54.03,-110.4791,895.2,253.3,91.0,3.5,3.6,11.08,31.42,1.9553,392.8256],
    [21615,1537400165,54.03,-110.4778,894.9,251.9,90.6,2.7,3.4,10.39,31.88,1.9582,393.2158],
    [21616,1537400166,54.03,-110.4765,895.2,251.2,91.3,2.7,4.4,10.47,31.97,1.9566,392.8637],
    [21617,1537400167,54.03,-110.4752,894.9,250.9,91.4,2.9,4.4,10.13,31.9,1.9541,392.7693],
    [21618,1537400168,54.0301,-110.4739,893.6,250.6,91.7,3.2,4.8,10.21,32.19,1.953,393.3362],
    [21619,1537400169,54.0301,-110.4726,892.1,248.1,91.0,3.0,3.9,10.19,32.18,1.9542,393.0449],
    [21620,1537400170,54.0301,-110.4713,891.4,247.4,90.1,3.4,3.1,10.1,32.0,1.9516,393.0449],
    [21621,1537400171,54.0301,-110.47,891.5,247.2,89.5,3.3,2.4,10.32,32.27,1.952,392.4146],
    [21622,1537400172,54.0302,-110.4688,892.1,247.8,88.7,4.3,1.4,10.41,31.74,1.9514,392.0622],
    [21623,1537400173,54.0302,-110.4675,893.0,249.0,90.1,3.9,3.1,10.21,32.08,1.9516,393.0928],
    [21624,1537400174,54.0302,-110.4662,893.1,249.1,91.1,3.4,3.9,10.34,32.61,1.952,393.0928],
    [21625,1537400175,54.0302,-110.4649,893.2,249.2,91.0,3.5,3.4,10.38,31.91,1.9568,392.3061],
    [21626,1537400176,54.0303,-110.4636,894.2,250.2,90.9,4.0,3.0,10.11,31.65,1.9589,393.2892],
    [21627,1537400177,54.0303,-110.4623,895.1,251.1,91.0,3.7,3.3,9.92,31.89,1.9588,392.4168],
    [21628,1537400178,54.0303,-110.4611,895.0,250.0,91.2,3.4,3.5,9.87,31.8,1.9589,391.9217],
    [21629,1537400179,54.0303,-110.4598,895.7,250.0,90.9,2.9,3.4,10.37,31.44,1.9558,391.9217],
    [21630,1537400180,54.0303,-110.4585,896.3,250.3,90.3,2.3,2.8,10.16,31.58,1.9549,392.3217],
    [21631,1537400181,54.0304,-110.4573,896.0,250.0,90.0,2.4,2.4,11.09,31.2,1.9572,393.741],
    [21632,1537400182,54.0304,-110.456,895.4,248.4,89.6,3.0,1.9,10.75,31.68,1.9563,392.9727],
    [21633,1537400183,54.0304,-110.4547,895.3,248.3,90.1,2.8,2.6,9.83,31.82,1.9568,396.501],
    [21634,1537400184,54.0304,-110.4534,895.7,247.7,90.9,2.3,3.5,10.44,32.24,1.9512,393.2816],
    [21635,1537400185,54.0304,-110.4521,896.8,248.8,90.9,2.0,3.5,10.31,31.88,1.9488,391.3914],
    [21636,1537400186,54.0305,-110.4508,897.5,249.8,90.9,2.0,3.4,10.13,32.39,1.947,392.9979],
    [21637,1537400187,54.0305,-110.4496,897.6,252.6,90.1,2.1,2.2,10.75,31.91,1.9479,393.0354],
    [21638,1537400188,54.0305,-110.4483,896.9,250.9,89.8,2.1,1.8,10.33,32.12,1.947,393.6266],
    [21639,1537400189,54.0305,-110.447,896.2,247.2,89.5,2.2,1.4,10.73,32.03,1.9465,392.4341],
    [21640,1537400190,54.0305,-110.4457,895.7,245.7,89.7,2.4,1.7,10.52,32.3,1.9469,393.3279],
    [21641,1537400191,54.0306,-110.4445,895.0,245.0,90.5,2.4,2.8,10.31,32.14,1.946,394.4009],
    [21642,1537400192,54.0306,-110.4432,894.5,245.3,90.2,2.9,2.3,10.14,32.76,1.9448,393.2438],
    [21643,1537400193,54.0306,-110.4419,894.2,245.2,89.4,2.5,1.5,11.0,31.72,1.9441,392.7361],
    [21644,1537400194,54.0306,-110.4406,894.2,245.2,89.6,2.7,1.7,10.52,32.71,1.9444,392.9261],
    [21645,1537400195,54.0306,-110.4394,894.4,245.4,89.7,2.9,1.9,10.21,32.1,1.9434,392.3374],
    [21646,1537400196,54.0307,-110.4381,894.3,245.3,90.0,3.0,2.2,10.8,31.62,1.9438,392.3374],
    [21647,1537400197,54.0307,-110.4368,894.1,244.1,89.8,3.3,1.7,10.28,32.58,1.9447,393.1676],
    [21648,1537400198,54.0307,-110.4356,893.8,243.8,89.8,3.3,1.6,10.45,31.78,1.9452,393.0685],
    [21649,1537400199,54.0307,-110.4343,893.8,242.8,89.7,3.1,1.4,10.72,31.59,1.9432,393.0538],
    [21650,1537400200,54.0307,-110.433,894.0,243.0,89.8,2.7,1.5,9.61,31.65,1.9441,391.2706],
    [21651,1537400201,54.0307,-110.4318,894.7,243.7,90.1,2.7,1.8,9.71,31.72,1.9434,392.5775],
    [21652,1537400202,54.0307,-110.4305,895.6,243.6,90.0,3.3,1.3,10.96,31.37,1.9446,393.55],
    [21653,1537400203,54.0308,-110.4292,897.0,244.0,89.6,3.6,0.9,9.93,31.6,1.9457,394.2875],
    [21654,1537400204,54.0308,-110.4279,896.9,243.0,90.7,3.4,2.3,9.8,31.59,1.9457,392.9249],
    [21655,1537400205,54.0308,-110.4268,896.1,241.4,90.1,3.8,1.6,10.3,31.39,1.946,392.9912],
    [21656,1537400206,54.0308,-110.4255,895.5,242.5,90.4,3.6,2.3,10.56,31.36,1.9482,393.0321],
    [21657,1537400207,54.0308,-110.4243,895.7,244.1,90.6,3.7,2.5,11.17,31.54,1.9481,393.3714],
    [21658,1537400208,54.0308,-110.4229,896.1,245.1,89.5,3.3,1.1,10.28,31.99,1.9461,393.6429],
    [21659,1537400209,54.0308,-110.4216,895.7,243.6,90.1,3.2,1.8,10.32,32.14,1.9492,392.203],
    [21660,1537400210,54.0309,-110.4204,895.0,242.9,90.1,3.7,1.7,9.96,32.38,1.9463,394.0299],
    [21661,1537400211,54.0309,-110.4191,894.8,243.8,89.9,4.1,1.4,10.67,31.88,1.9466,392.7103],
    [21662,1537400212,54.0309,-110.4178,894.5,244.5,90.5,4.2,2.1,10.3,32.03,1.9443,392.9296],
    [21663,1537400213,54.0309,-110.4166,894.1,246.0,90.5,3.6,2.0,10.21,32.21,1.9451,393.1316],
    [21664,1537400214,54.0309,-110.4153,894.2,246.5,90.4,3.7,1.9,9.81,32.07,1.9453,392.8817],
    [21665,1537400215,54.0309,-110.414,894.9,248.8,90.8,3.4,2.6,10.37,32.24,1.947,393.8347],
    [21666,1537400216,54.0309,-110.4127,895.6,249.6,90.9,3.4,2.7,10.5,32.56,1.9465,393.5338],
    [21667,1537400217,54.0309,-110.4115,895.3,249.3,90.4,3.7,2.2,10.14,32.56,1.9463,392.5806],
    [21668,1537400218,54.031,-110.4102,895.2,249.2,90.6,4.0,2.8,11.03,31.5,1.9474,391.4212],
    [21669,1537400219,54.031,-110.4089,895.3,250.3,90.6,3.1,2.6,10.33,32.99,1.9468,394.1085],
    [21670,1537400220,54.031,-110.4077,895.7,250.7,89.5,3.4,1.5,10.83,31.43,1.9464,393.7699],
    [21671,1537400221,54.031,-110.4064,896.2,251.2,89.9,2.0,2.3,9.75,31.97,1.9459,392.0107],
    [21672,1537400222,54.031,-110.4052,896.6,251.6,89.8,2.1,1.9,10.82,31.22,1.9455,393.6332],
    [21673,1537400223,54.0311,-110.4038,896.9,251.9,88.7,2.3,0.4,10.57,32.35,1.9459,392.0244],
    [21674,1537400224,54.0311,-110.4025,896.6,252.6,89.1,3.1,1.0,10.63,31.76,1.9443,392.8586],
    [21675,1537400225,54.0311,-110.4013,896.4,253.4,90.0,3.3,2.1,10.53,31.7,1.9451,392.3346],
    [21676,1537400226,54.0311,-110.4,896.6,253.6,90.6,3.8,2.8,9.67,31.91,1.9447,392.6955],
    [21677,1537400227,54.0311,-110.3988,896.5,253.5,90.5,3.7,2.4,10.63,31.95,1.946,393.9144],
    [21678,1537400228,54.0312,-110.3974,895.8,253.5,90.1,3.1,2.0,10.7,31.32,1.9447,393.9144],
    [21679,1537400229,54.0312,-110.3961,894.7,254.7,90.5,3.7,2.6,10.48,32.0,1.9448,394.251],
    [21680,1537400230,54.0312,-110.3948,894.5,257.4,90.0,3.6,2.0,10.71,31.62,1.946,393.4906],
    [21681,1537400231,54.0312,-110.3936,895.1,261.1,89.9,3.2,1.9,10.09,31.8,1.9459,393.243],
    [21682,1537400232,54.0312,-110.3923,895.5,262.5,89.9,3.0,1.9,9.95,31.69,1.9446,393.5264],
    [21683,1537400233,54.0312,-110.391,895.4,263.4,90.3,2.7,2.2,11.19,31.28,1.9457,394.2685],
    [21684,1537400234,54.0313,-110.3897,895.0,262.0,90.2,3.2,1.9,10.37,31.56,1.9448,393.1383],
    [21685,1537400235,54.0313,-110.3884,895.3,260.0,90.1,3.7,1.5,10.26,31.77,1.9437,394.0569],
    [21686,1537400236,54.0313,-110.3871,896.1,257.1,90.1,4.2,1.5,10.95,31.5,1.9465,391.5707],
    [21687,1537400237,54.0313,-110.3858,896.7,253.0,90.1,4.9,1.4,10.38,31.63,1.9439,394.1397],
    [21688,1537400238,54.0313,-110.3845,896.8,250.8,89.5,4.9,0.5,9.9,31.63,1.9451,392.0671],
    [21689,1537400239,54.0313,-110.3832,896.7,248.7,88.6,4.3,-0.8,10.27,31.22,1.9453,392.1767],
    [21690,1537400240,54.0313,-110.3819,896.4,247.1,88.9,3.7,-0.5,11.21,30.86,1.9445,393.361],
    [21691,1537400241,54.0313,-110.3806,895.5,244.8,88.4,3.1,-1.6,10.31,31.18,1.9436,393.1751],
    [21692,1537400242,54.0313,-110.3793,895.5,244.2,88.5,3.0,-1.6,10.07,31.31,1.9441,393.3685],
    [21693,1537400243,54.0313,-110.378,895.8,243.8,89.1,3.2,-1.2,10.08,31.29,1.9438,393.4896],
    [21694,1537400244,54.0313,-110.3767,895.7,243.7,89.1,3.4,-1.5,10.41,31.36,1.9429,392.7583],
    [21695,1537400245,54.0313,-110.3754,895.7,240.7,89.6,3.3,-1.3,10.31,31.79,1.9432,393.8223],
    [21696,1537400246,54.0313,-110.3741,896.0,240.0,89.6,3.1,-1.4,10.28,31.28,1.9415,392.8432],
    [21697,1537400247,54.0313,-110.3729,895.6,240.6,89.7,3.2,-1.6,9.77,30.77,1.9441,392.8432],
    [21698,1537400248,54.0313,-110.3716,895.2,243.9,90.6,2.9,-0.7,10.67,30.54,1.9433,393.385],
    [21699,1537400249,54.0313,-110.3703,895.3,247.4,90.7,2.7,-0.8,10.4,30.48,1.9419,393.2911],
    [21700,1537400250,54.0313,-110.369,896.2,249.2,91.0,2.9,-0.4,10.25,30.57,1.9414,393.0124],
    [21701,1537400251,54.0313,-110.3677,896.7,250.7,90.8,3.7,-0.6,10.3,30.31,1.9421,393.3802],
    [21702,1537400252,54.0312,-110.3664,896.4,250.4,90.2,3.6,-1.1,10.32,30.59,1.9429,392.1821],
    [21703,1537400253,54.0312,-110.3651,895.5,250.5,90.0,3.7,-1.2,10.31,30.75,1.9431,393.9146],
    [21704,1537400254,54.0312,-110.3638,895.1,250.1,89.8,3.9,-1.5,10.92,30.11,1.9445,393.887],
    [21705,1537400255,54.0312,-110.3625,895.2,247.9,90.0,3.8,-1.1,10.66,29.99,1.943,392.6654],
    [21706,1537400256,54.0312,-110.3613,895.3,243.3,90.1,4.0,-1.2,9.84,30.25,1.943,394.549],
    [21707,1537400257,54.0312,-110.36,895.2,241.5,90.0,4.0,-1.3,10.19,30.13,1.9424,392.4808],
    [21708,1537400258,54.0312,-110.3587,895.1,241.1,90.1,3.8,-1.0,9.79,30.25,1.9424,393.2059],
    [21709,1537400259,54.0312,-110.3574,895.5,241.5,90.4,2.9,-0.7,10.73,29.92,1.942,393.6833],
    [21710,1537400260,54.0312,-110.3562,895.6,240.6,90.2,2.9,-0.9,9.99,30.1,1.9421,393.7989],
    [21711,1537400261,54.0311,-110.3549,896.3,237.4,90.1,3.3,-1.0,10.21,30.86,1.9423,393.8304],
    [21712,1537400262,54.0311,-110.3536,897.5,234.5,90.2,2.7,-0.9,10.8,29.95,1.9421,392.9544],
    [21713,1537400263,54.0311,-110.3523,898.2,236.2,90.4,2.9,-0.4,9.96,30.11,1.9428,394.2067],
    [21714,1537400264,54.0311,-110.351,897.6,238.7,90.8,3.2,0.2,10.24,29.99,1.9443,394.2067],
    [21715,1537400265,54.0311,-110.3497,897.6,238.2,90.2,3.3,-0.7,10.41,29.81,1.9426,392.3182],
    [21716,1537400266,54.0311,-110.3485,897.9,239.7,89.4,3.3,-1.7,10.53,29.83,1.942,393.4833],
    [21717,1537400267,54.0311,-110.3472,897.7,240.9,89.7,2.9,-1.1,10.43,29.86,1.9415,391.9842],
    [21718,1537400268,54.0311,-110.3459,896.9,241.9,89.7,2.9,-1.4,10.43,29.97,1.9438,394.1026],
    [21719,1537400269,54.0311,-110.3446,896.6,242.6,89.1,3.5,-2.0,11.01,29.16,1.9438,394.4368],
    [21720,1537400270,54.0311,-110.3434,895.8,241.1,89.8,3.8,-1.1,10.39,29.96,1.9429,393.8565],
    [21721,1537400271,54.0311,-110.3421,895.1,241.1,89.6,2.7,-1.5,11.0,29.39,1.9424,393.8565],
    [21722,1537400272,54.0311,-110.3408,895.0,241.0,90.4,3.0,-0.4,10.52,29.73,1.9454,394.0448],
    [21723,1537400273,54.031,-110.3395,895.0,242.0,90.3,3.1,-0.7,10.2,29.87,1.9448,392.3463],
    [21724,1537400274,54.031,-110.3382,896.0,244.0,88.7,3.9,-2.3,10.23,29.81,1.9444,393.029],
    [21725,1537400275,54.031,-110.3369,896.7,245.7,87.9,3.4,-3.3,10.46,29.91,1.9416,393.0482],
    [21726,1537400276,54.031,-110.3357,896.7,245.7,87.8,2.7,-3.4,10.23,30.06,1.9429,392.3453],
    [21727,1537400277,54.031,-110.3344,896.1,244.1,87.5,2.4,-4.7,10.6,29.83,1.9467,393.2816],
    [21728,1537400278,54.031,-110.3331,895.7,242.0,88.6,2.1,-3.0,10.43,30.75,1.9481,392.9017],
    [21729,1537400279,54.031,-110.3318,895.1,238.8,91.9,1.4,0.9,10.55,29.61,1.9468,394.1139],
    [21730,1537400280,54.031,-110.3305,895.0,235.0,92.4,2.2,0.9,10.44,30.25,1.9464,394.1365],
    [21731,1537400281,54.031,-110.3292,896.4,234.3,92.2,2.1,0.9,10.53,29.8,1.9474,392.8964],
    [21732,1537400282,54.0309,-110.3279,897.1,233.0,93.1,2.0,2.2,10.52,29.91,1.9469,393.025],
    [21733,1537400283,54.0309,-110.3266,897.2,232.2,92.3,1.2,1.7,10.04,30.22,1.95,392.9878],
    [21734,1537400284,54.0309,-110.3254,898.0,231.9,91.7,0.8,1.3,10.36,30.41,1.9516,392.8045],
    [21735,1537400285,54.0309,-110.3241,899.0,233.0,90.9,0.1,1.0,10.47,30.65,1.9508,391.8354],
    [21736,1537400286,54.0309,-110.3228,899.0,234.0,92.0,0.6,2.6,10.59,29.86,1.9501,392.6771],
    [21737,1537400287,54.0309,-110.3215,898.3,236.0,90.7,0.8,1.1,10.06,30.47,1.9505,392.2351],
    [21738,1537400288,54.0309,-110.3202,897.3,236.3,91.0,1.2,1.8,10.18,31.15,1.9487,394.497],
    [21739,1537400289,54.0309,-110.319,896.3,235.3,90.6,1.7,1.6,10.05,31.44,1.948,391.8484],
    [21740,1537400290,54.0309,-110.3177,895.5,235.5,90.8,1.1,2.4,10.12,30.83,1.9504,392.8127],
    [21741,1537400291,54.0309,-110.3164,895.1,236.8,90.9,0.4,2.7,11.02,30.31,1.9503,393.5712],
    [21742,1537400292,54.0309,-110.3151,894.9,237.9,91.1,0.2,3.2,10.4,31.61,1.9487,391.9147],
    [21743,1537400293,54.031,-110.3138,895.1,238.1,90.6,0.0,2.6,10.52,31.18,1.9502,392.8849],
    [21744,1537400294,54.031,-110.3125,895.3,238.4,90.3,0.6,2.4,10.49,30.86,1.9502,393.8571],
    [21745,1537400295,54.031,-110.3112,895.7,239.4,89.6,0.4,1.4,10.34,30.91,1.9507,391.8416],
    [21746,1537400296,54.031,-110.31,896.4,241.1,89.6,0.8,1.5,10.52,30.59,1.9506,392.7344],
    [21747,1537400297,54.031,-110.3087,897.0,242.0,89.3,1.6,0.8,10.34,31.61,1.9508,392.1627],
    [21748,1537400298,54.031,-110.3074,897.0,242.9,90.0,2.3,1.7,10.18,30.69,1.9499,392.3825],
    [21749,1537400299,54.0311,-110.3061,895.5,241.2,90.5,2.7,2.0,10.09,30.81,1.9473,392.9255],
    [21750,1537400300,54.0311,-110.3049,894.5,240.5,90.1,2.2,1.4,10.4,31.14,1.9497,393.5235],
    [21751,1537400301,54.0311,-110.3036,894.6,240.6,90.1,1.6,1.3,10.33,31.11,1.9518,393.585],
    [21752,1537400302,54.0311,-110.3023,895.3,241.3,89.7,0.9,0.9,10.48,30.92,1.952,391.1559],
    [21753,1537400303,54.0311,-110.301,895.2,239.4,90.0,0.9,1.4,10.84,30.96,1.9523,393.7496],
    [21754,1537400304,54.0311,-110.2998,895.1,236.1,90.7,0.8,2.5,10.59,30.9,1.952,393.4076],
    [21755,1537400305,54.0311,-110.2985,896.0,236.0,90.2,1.8,1.9,10.51,31.53,1.9513,393.3772],
    [21756,1537400306,54.0311,-110.2972,896.8,237.8,90.4,1.3,2.4,10.73,31.28,1.9503,393.3772],
    [21757,1537400307,54.0312,-110.2959,896.6,237.6,90.2,1.8,2.0,9.95,31.64,1.9505,392.6371],
    [21758,1537400308,54.0312,-110.2947,895.8,235.8,89.5,2.5,1.3,10.34,31.53,1.9505,392.9573],
    [21759,1537400309,54.0312,-110.2934,895.7,234.4,89.5,1.9,1.4,10.25,31.6,1.95,393.885],
    [21760,1537400310,54.0312,-110.2921,896.1,233.1,89.4,0.7,1.0,9.92,31.67,1.9502,392.4136],
    [21761,1537400311,54.0312,-110.2909,897.1,233.1,88.5,2.2,0.1,9.89,31.61,1.9516,392.6031],
    [21762,1537400312,54.0313,-110.2896,897.2,233.2,89.1,1.9,0.9,10.37,31.73,1.9492,392.6864],
    [21763,1537400313,54.0313,-110.2883,896.0,232.0,89.9,2.8,1.9,11.09,31.39,1.9488,392.1987],
    [21764,1537400314,54.0313,-110.2871,894.1,230.1,89.8,3.2,1.7,10.5,31.82,1.9479,392.8959],
    [21765,1537400315,54.0313,-110.2858,891.8,228.8,88.4,2.9,-0.2,11.03,31.51,1.948,393.6224],
    [21766,1537400316,54.0313,-110.2845,890.6,227.6,88.3,3.1,-0.4,10.54,32.31,1.9464,391.5916],
    [21767,1537400317,54.0313,-110.2833,890.1,226.1,89.0,2.9,0.7,10.71,31.57,1.9467,392.4422],
    [21768,1537400318,54.0314,-110.282,890.5,225.5,89.4,2.6,0.7,10.77,30.95,1.9479,393.178],
    [21769,1537400319,54.0314,-110.2807,891.6,223.6,89.5,2.6,0.3,11.23,30.91,1.9476,392.9094],
    [21770,1537400320,54.0314,-110.2795,892.0,222.0,90.0,2.8,0.7,10.68,31.37,1.9484,393.1038],
    [21771,1537400321,54.0314,-110.2782,892.4,220.4,90.7,2.4,1.5,10.28,31.32,1.9486,393.1878],
    [21772,1537400322,54.0314,-110.277,893.7,220.7,90.5,2.4,1.1,10.94,31.2,1.9486,393.1878],
    [21773,1537400323,54.0314,-110.2757,894.8,220.9,90.0,1.9,0.7,10.85,31.27,1.9486,394.3543],
    [21774,1537400324,54.0314,-110.2745,894.5,219.4,89.7,2.4,0.5,10.57,31.63,1.9494,393.6246],
    [21775,1537400325,54.0314,-110.2732,894.5,218.4,89.6,2.3,0.9,10.64,30.86,1.9508,394.1819],
    [21776,1537400326,54.0314,-110.272,895.9,218.8,90.1,2.8,1.6,10.56,31.87,1.9506,393.4561],
    [21777,1537400327,54.0314,-110.2708,897.3,221.4,89.2,1.6,0.6,10.45,31.47,1.9523,392.5486],
    [21778,1537400328,54.0315,-110.2695,897.7,223.7,89.7,2.3,1.3,10.07,31.46,1.9513,393.0756],
    [21779,1537400329,54.0315,-110.2683,897.5,226.4,89.5,2.6,1.2,10.17,31.28,1.9525,393.685],
    [21780,1537400330,54.0315,-110.267,896.9,225.8,89.7,3.2,1.3,11.17,31.2,1.9493,391.2205],
    [21781,1537400331,54.0315,-110.2659,896.0,224.9,88.9,3.7,0.3,10.62,31.32,1.9485,391.9776],
    [21782,1537400332,54.0315,-110.2646,895.4,224.3,88.7,3.5,0.4,10.55,31.41,1.9467,394.1536],
    [21783,1537400333,54.0315,-110.2633,895.5,226.5,88.9,3.5,0.5,9.94,31.75,1.9486,394.1536],
    [21784,1537400334,54.0316,-110.2621,895.6,228.6,88.5,3.3,-0.1,10.6,31.47,1.9478,392.9186],
    [21785,1537400335,54.0316,-110.2608,895.9,227.8,88.6,3.7,0.1,10.74,31.38,1.9494,393.2821],
    [21786,1537400336,54.0316,-110.2596,896.4,225.1,89.3,3.7,0.8,10.77,30.92,1.9506,392.4164],
    [21787,1537400337,54.0316,-110.2583,896.2,221.4,89.6,3.3,1.0,10.38,31.56,1.9496,392.4164],
    [21788,1537400338,54.0316,-110.2571,895.7,220.4,90.0,3.1,1.1,10.19,31.71,1.9511,392.9308],
    [21789,1537400339,54.0316,-110.2558,895.4,220.4,90.1,3.8,0.9,10.41,31.41,1.9499,392.6046],
    [21790,1537400340,54.0316,-110.2546,894.8,220.8,89.7,4.5,0.2,10.32,32.15,1.9506,393.2006],
    [21791,1537400341,54.0316,-110.2533,893.7,219.4,90.4,4.5,1.3,10.33,31.86,1.9513,394.2006],
    [21792,1537400342,54.0316,-110.2521,893.2,219.3,90.6,4.1,1.5,10.36,32.05,1.9507,393.8381],
    [21793,1537400343,54.0317,-110.2508,893.6,219.3,89.8,3.8,1.2,10.41,32.34,1.9505,392.1448],
    [21794,1537400344,54.0317,-110.2496,894.0,217.5,90.7,3.9,2.7,10.16,32.03,1.9497,393.7352],
    [21795,1537400345,54.0317,-110.2483,893.8,216.8,90.3,4.0,2.3,10.33,32.36,1.9483,393.7352],
    [21796,1537400346,54.0317,-110.2471,894.1,215.3,89.7,3.9,2.0,10.63,31.65,1.9486,391.7428],
    [21797,1537400347,54.0317,-110.2459,895.1,215.5,89.1,3.4,1.4,10.64,31.35,1.9478,393.4932],
    [21798,1537400348,54.0318,-110.2446,895.8,216.8,89.0,3.1,1.3,10.3,31.84,1.9481,393.4932],
    [21799,1537400349,54.0318,-110.2434,895.8,218.3,89.3,2.6,1.4,10.19,31.95,1.9466,395.47],
    [21800,1537400350,54.0318,-110.2421,895.6,220.7,89.3,2.3,1.1,10.28,32.08,1.9477,392.8826],
    [21801,1537400351,54.0318,-110.241,895.7,222.3,89.4,2.6,1.2,10.34,32.32,1.9482,392.8937],
    [21802,1537400352,54.0318,-110.2396,895.7,222.6,89.4,2.7,1.0,10.35,31.69,1.9489,392.3057],
    [21803,1537400353,54.0318,-110.2384,895.4,223.6,89.3,2.7,0.8,9.99,31.82,1.9478,392.3057],
    [21804,1537400354,54.0319,-110.2372,895.4,224.8,89.3,2.8,0.7,10.34,32.54,1.9479,392.251],
    [21805,1537400355,54.0319,-110.2359,895.4,225.5,89.4,2.8,0.7,10.11,31.53,1.9482,393.2789],
    [21806,1537400356,54.0319,-110.2347,895.8,226.1,89.1,3.1,0.2,10.34,32.11,1.9476,394.0667],
    [21807,1537400357,54.0319,-110.2335,896.3,228.4,89.3,3.5,0.5,10.04,31.92,1.9485,393.5081],
    [21808,1537400358,54.0319,-110.2322,896.4,228.6,90.4,3.9,1.7,10.76,31.54,1.9476,392.5178],
    [21809,1537400359,54.0319,-110.231,896.2,226.6,89.7,4.0,0.8,10.18,31.77,1.9478,393.113],
    [21810,1537400360,54.0319,-110.2298,896.1,225.5,89.4,4.3,0.6,10.25,31.7,1.9477,392.3119],
    [21811,1537400361,54.0319,-110.2285,896.0,222.9,89.5,4.5,0.6,10.23,31.72,1.9495,392.3119],
    [21812,1537400362,54.032,-110.2273,895.8,221.7,89.7,4.7,0.9,10.18,31.73,1.9475,393.7114],
    [21813,1537400363,54.032,-110.226,895.5,222.5,89.4,4.7,0.7,10.83,31.58,1.9478,392.8234],
    [21814,1537400364,54.032,-110.2248,895.5,224.5,89.5,4.8,0.8,10.47,31.77,1.948,394.1387],
    [21815,1537400365,54.032,-110.2235,895.6,226.6,89.2,3.5,0.6,10.16,31.64,1.9484,394.3941],
    [21816,1537400366,54.032,-110.2223,896.0,227.0,90.0,2.8,2.0,10.0,31.91,1.9519,391.5514],
    [21817,1537400367,54.032,-110.221,895.6,225.6,90.7,3.0,2.9,10.14,31.81,1.9499,393.419],
    [21818,1537400368,54.0321,-110.2198,895.6,224.6,89.0,2.8,1.1,10.4,32.06,1.9483,393.5099],
    [21819,1537400369,54.0321,-110.2185,896.0,222.9,88.5,2.7,1.0,9.8,31.95,1.9476,393.4739],
    [21820,1537400370,54.0321,-110.2173,896.1,222.1,88.7,2.9,1.4,10.04,31.9,1.9477,393.9618],
    [21821,1537400371,54.0321,-110.216,895.9,220.5,87.7,2.1,0.1,10.56,32.29,1.9457,393.9176],
    [21822,1537400372,54.0322,-110.2147,895.6,217.7,87.3,1.9,-0.4,10.25,32.71,1.945,393.8604],
    [21823,1537400373,54.0322,-110.2135,896.1,216.1,87.2,2.5,-0.7,10.53,32.29,1.9445,393.5634],
    [21824,1537400374,54.0322,-110.2122,896.7,216.3,87.4,2.5,-0.9,11.0,31.45,1.9438,393.2909],
    [21825,1537400375,54.0322,-110.211,896.8,217.5,87.7,2.6,-1.2,10.12,32.06,1.9444,393.3387],
    [21826,1537400376,54.0323,-110.2097,896.7,218.4,88.2,2.8,-1.0,10.17,31.47,1.9445,393.9168],
    [21827,1537400377,54.0323,-110.2084,896.9,218.6,88.8,2.3,-0.9,10.31,31.78,1.9441,393.4108],
    [21828,1537400378,54.0323,-110.2072,897.3,219.4,88.4,2.2,-1.8,10.31,31.09,1.9444,393.3412],
    [21829,1537400379,54.0323,-110.2059,897.6,219.3,89.1,2.1,-1.2,10.16,31.23,1.9452,393.1716],
    [21830,1537400380,54.0323,-110.2047,897.5,221.1,90.0,1.7,-0.5,10.27,31.54,1.9445,393.2294],
    [21831,1537400381,54.0323,-110.2034,897.0,220.6,89.5,1.3,-1.2,10.38,30.88,1.9448,394.3092],
    [21832,1537400382,54.0323,-110.2021,896.8,221.1,89.5,1.4,-1.2,10.15,31.01,1.9446,391.656],
    [21833,1537400383,54.0323,-110.2009,896.7,222.4,89.3,1.7,-1.4,10.3,30.72,1.9453,391.656],
    [21834,1537400384,54.0323,-110.1997,896.5,226.2,89.1,2.1,-1.6,10.3,30.8,1.9456,392.9979],
    [21835,1537400385,54.0323,-110.1984,895.7,227.6,88.7,2.6,-2.0,10.83,30.66,1.947,393.8261],
    [21836,1537400386,54.0323,-110.1971,894.6,227.6,88.7,2.4,-1.7,10.02,31.47,1.9447,393.7896],
    [21837,1537400387,54.0323,-110.1958,893.8,226.8,88.9,3.0,-1.3,9.62,30.68,1.9453,393.7896],
    [21838,1537400388,54.0323,-110.1945,893.7,226.8,89.4,3.2,-0.4,10.31,31.47,1.9448,393.5267],
    [21839,1537400389,54.0323,-110.1933,894.8,223.4,89.8,2.4,0.1,10.04,30.63,1.9441,393.4407],
    [21840,1537400390,54.0323,-110.192,895.9,222.9,89.4,2.1,-0.6,10.35,30.63,1.9417,393.9236],
    [21841,1537400391,54.0323,-110.1908,896.8,222.7,89.2,2.2,-0.5,10.26,30.52,1.9426,391.4531],
    [21842,1537400392,54.0323,-110.1895,896.6,223.6,89.2,2.9,-0.7,10.01,30.01,1.9439,392.9567],
    [21843,1537400393,54.0323,-110.1883,895.3,222.9,88.2,3.3,-1.6,10.81,30.08,1.9437,393.4231],
    [21844,1537400394,54.0323,-110.187,894.0,220.4,88.6,3.2,-1.0,10.05,30.46,1.9446,393.6258],
    [21845,1537400395,54.0323,-110.1858,893.8,217.5,88.5,2.7,-1.2,10.77,29.92,1.944,393.1043],
    [21846,1537400396,54.0323,-110.1845,894.3,215.6,88.7,2.7,-0.8,10.43,30.43,1.9429,393.1043],
    [21847,1537400397,54.0323,-110.1832,895.2,214.2,88.9,2.8,-0.6,9.82,29.99,1.9456,394.2115],
    [21848,1537400398,54.0323,-110.182,895.8,213.9,88.7,3.0,-0.9,11.05,29.74,1.9439,394.8555],
    [21849,1537400399,54.0323,-110.1807,895.5,212.5,88.7,2.1,-0.9,10.59,29.68,1.9445,392.7872],
    [21850,1537400400,54.0323,-110.1794,895.1,212.0,89.4,2.4,0.2,10.49,29.53,1.9453,393.4376],
    [21851,1537400401,54.0324,-110.1782,894.9,210.9,90.0,2.8,1.2,10.11,30.51,1.9455,394.31],
    [21852,1537400402,54.0324,-110.1769,894.9,210.9,90.0,3.0,1.4,9.75,29.87,1.9472,392.9128],
    [21853,1537400403,54.0324,-110.1757,895.1,209.6,89.4,3.2,1.1,10.69,29.81,1.9473,393.2635],
    [21854,1537400404,54.0324,-110.1744,895.0,208.3,89.1,3.0,1.1,10.62,29.24,1.9471,394.333],
    [21855,1537400405,54.0324,-110.1732,895.1,208.2,88.6,2.5,0.8,10.2,30.14,1.9464,394.333],
    [21856,1537400406,54.0324,-110.1719,895.3,207.6,88.4,3.0,0.7,10.13,30.08,1.9477,393.7269],
    [21857,1537400407,54.0325,-110.1707,896.0,209.0,88.3,3.5,0.7,10.25,30.14,1.9485,393.7269],
    [21858,1537400408,54.0325,-110.1694,896.2,209.3,88.6,3.2,1.1,9.92,30.42,1.9466,394.4066],
    [21859,1537400409,54.0325,-110.1682,896.4,208.6,88.7,3.4,1.4,9.95,30.81,1.9473,394.4066],
    [21860,1537400410,54.0326,-110.1669,896.3,207.2,88.5,3.3,1.1,10.73,30.36,1.9472,394.0692],
    [21861,1537400411,54.0326,-110.1657,895.6,204.6,87.8,3.2,0.5,9.9,30.48,1.9469,394.0245],
    [21862,1537400412,54.0326,-110.1644,895.2,204.2,87.7,3.1,0.4,11.09,30.26,1.9476,394.2646],
    [21863,1537400413,54.0327,-110.1632,895.5,204.2,87.7,3.2,0.4,10.55,30.46,1.9466,394.7107],
    [21864,1537400414,54.0327,-110.1619,895.8,204.5,87.8,3.2,0.5,9.93,30.72,1.9476,394.2065],
    [21865,1537400415,54.0327,-110.1607,895.8,204.7,88.0,2.8,0.5,10.59,31.14,1.9473,394.6841],
    [21866,1537400416,54.0327,-110.1594,895.6,205.3,87.8,2.5,0.2,10.23,31.0,1.9465,393.9741],
    [21867,1537400417,54.0328,-110.1582,895.5,205.5,88.1,2.5,0.2,10.0,31.03,1.9488,394.0889],
    [21868,1537400418,54.0328,-110.1569,895.4,205.4,87.8,2.4,-0.2,10.35,31.26,1.9485,394.0889],
    [21869,1537400419,54.0328,-110.1557,895.5,207.2,88.3,3.0,0.2,10.77,30.66,1.9479,393.7854],
    [21870,1537400420,54.0328,-110.1544,895.5,207.2,88.7,3.3,0.6,9.8,31.41,1.948,391.6726],
    [21871,1537400421,54.0329,-110.1532,895.1,204.4,89.1,3.3,0.9,10.11,31.38,1.9485,394.2989],
    [21872,1537400422,54.0329,-110.1519,895.0,202.0,89.1,3.2,0.9,10.6,30.9,1.9484,394.585],
    [21873,1537400423,54.0329,-110.1507,895.4,204.1,89.0,3.3,1.0,10.8,30.62,1.9484,393.8031],
    [21874,1537400424,54.0329,-110.1494,895.3,205.7,89.1,3.6,1.2,10.43,31.81,1.9493,393.1782],
    [21875,1537400425,54.0329,-110.1482,895.3,207.4,89.0,3.3,1.3,10.39,32.09,1.9486,393.2266],
    [21876,1537400426,54.033,-110.1469,895.4,208.4,88.7,3.6,1.0,11.06,30.8,1.9493,394.5818],
    [21877,1537400427,54.033,-110.1457,895.2,210.2,88.3,3.7,0.9,10.16,32.34,1.9491,392.807],
    [21878,1537400428,54.033,-110.1444,894.9,212.8,88.3,3.5,1.2,10.18,31.75,1.9492,394.1137],
    [21879,1537400429,54.0331,-110.1432,895.0,214.9,87.9,3.6,0.8,10.35,31.9,1.9483,393.0422],
    [21880,1537400430,54.0331,-110.1419,895.2,216.2,88.0,3.0,0.9,10.28,31.78,1.9471,394.244],
    [21881,1537400431,54.0331,-110.1407,895.8,216.8,87.8,2.3,0.7,10.27,32.47,1.9467,393.6289],
    [21882,1537400432,54.0332,-110.1394,896.2,217.3,88.6,1.8,1.6,10.33,32.23,1.9442,393.1858],
    [21883,1537400433,54.0332,-110.1382,896.3,216.3,88.4,2.6,1.1,10.12,32.26,1.9443,393.9616],
    [21884,1537400434,54.0332,-110.137,896.5,215.5,87.6,3.0,0.3,10.23,31.78,1.9433,393.9616],
    [21885,1537400435,54.0333,-110.1357,896.5,212.6,87.8,2.3,0.5,10.3,31.67,1.9447,392.5353],
    [21886,1537400436,54.0333,-110.1345,896.2,212.2,87.9,2.1,0.6,10.39,31.61,1.9432,393.7689],
    [21887,1537400437,54.0333,-110.1332,896.3,217.0,87.8,1.9,0.4,10.95,30.98,1.944,392.3701],
    [21888,1537400438,54.0333,-110.132,896.8,219.8,87.0,2.8,-0.8,10.32,31.29,1.945,392.1669],
    [21889,1537400439,54.0334,-110.1307,896.8,221.5,86.2,3.2,-1.7,10.18,31.29,1.9456,393.3953],
    [21890,1537400440,54.0334,-110.1295,895.9,220.9,86.5,2.2,-1.6,10.5,31.12,1.9441,392.563],
    [21891,1537400441,54.0334,-110.1282,895.3,220.3,86.9,1.9,-1.2,10.55,30.89,1.944,392.779],
    [21892,1537400442,54.0335,-110.127,895.6,220.6,87.9,2.2,-0.7,10.09,30.92,1.9473,393.1401],
    [21893,1537400443,54.0335,-110.1257,896.4,222.2,88.1,2.3,-0.8,10.89,30.67,1.9462,392.4448],
    [21894,1537400444,54.0335,-110.1245,896.2,222.2,88.8,2.7,-0.5,10.94,30.25,1.9447,393.2441],
    [21895,1537400445,54.0335,-110.1233,895.7,221.7,88.8,2.9,-0.5,10.21,30.66,1.9436,393.2441],
    [21896,1537400446,54.0335,-110.122,895.7,221.7,89.3,3.8,0.2,10.32,31.56,1.9442,394.3913],
    [21897,1537400447,54.0335,-110.1207,895.5,219.5,88.5,3.9,-0.7,10.27,30.7,1.9442,393.8269],
    [21898,1537400448,54.0335,-110.1195,894.8,216.8,88.6,3.2,-0.4,10.77,29.78,1.9425,393.2594],
    [21899,1537400449,54.0336,-110.1182,894.3,213.8,88.6,3.1,-0.4,10.27,30.24,1.9429,393.6487],
    [21900,1537400450,54.0336,-110.117,893.7,212.7,88.2,3.1,-0.9,9.71,30.36,1.9433,393.5919],
    [21901,1537400451,54.0336,-110.1157,893.3,211.5,88.3,2.9,-0.7,10.35,30.52,1.9464,393.8287],
    [21902,1537400452,54.0336,-110.1145,893.6,210.0,88.5,3.1,-0.2,10.88,29.93,1.9466,393.8287],
    [21903,1537400453,54.0336,-110.1132,894.4,207.3,88.3,3.2,-0.4,10.28,30.22,1.9455,394.1198],
    [21904,1537400454,54.0336,-110.112,894.8,206.8,88.2,3.6,-0.2,9.92,30.27,1.9443,393.6448],
    [21905,1537400455,54.0337,-110.1107,895.2,207.2,88.0,3.9,-0.5,10.26,30.23,1.944,394.1051],
    [21906,1537400456,54.0337,-110.1095,895.4,207.4,87.8,3.1,-0.7,10.15,30.25,1.9438,394.418],
    [21907,1537400457,54.0337,-110.1083,895.6,207.6,88.5,3.5,0.4,10.3,30.4,1.9444,392.6013],
    [21908,1537400458,54.0337,-110.107,895.8,207.8,88.4,3.8,0.3,10.18,30.42,1.9448,393.9124],
    [21909,1537400459,54.0337,-110.1058,896.0,209.0,88.3,4.0,0.4,10.23,30.19,1.9445,394.3848],
    [21910,1537400460,54.0338,-110.1045,895.8,210.8,88.5,4.1,0.6,10.57,30.05,1.9428,393.1756],
    [21911,1537400461,54.0338,-110.1033,895.7,214.4,88.3,3.6,0.6,10.19,30.15,1.9448,395.151],
    [21912,1537400462,54.0338,-110.102,895.8,216.8,88.4,3.3,0.9,10.68,29.38,1.9431,393.6602],
    [21913,1537400463,54.0338,-110.1008,895.8,216.8,87.8,3.4,0.2,10.13,29.72,1.9425,393.6626],
    [21914,1537400464,54.0339,-110.0995,895.8,214.8,87.7,3.7,0.3,10.56,29.84,1.942,393.5734],
    [21915,1537400465,54.0339,-110.0983,895.6,212.6,87.5,3.9,0.1,10.76,29.82,1.9439,393.6293],
    [21916,1537400466,54.0339,-110.0971,895.6,212.3,87.8,3.8,0.4,9.71,29.62,1.9435,393.0268],
    [21917,1537400467,54.034,-110.0959,895.6,213.3,88.1,3.3,0.7,10.09,29.33,1.9418,393.5423],
    [21918,1537400468,54.034,-110.0946,895.7,214.7,87.7,2.4,0.0,10.11,29.53,1.9439,392.649],
    [21919,1537400469,54.034,-110.0934,896.1,215.7,87.5,2.6,-0.1,10.14,29.45,1.9462,394.0549],
    [21920,1537400470,54.0341,-110.0921,896.7,217.3,88.3,2.2,0.8,10.68,29.25,1.9472,392.1653],
    [21921,1537400471,54.0341,-110.0908,897.0,219.7,87.8,3.1,-0.2,10.89,28.71,1.9468,394.5729],
    [21922,1537400472,54.0341,-110.0896,896.6,221.2,87.2,3.9,-0.5,10.9,29.22,1.9441,389.7484],
    [21923,1537400473,54.0341,-110.0884,896.4,222.1,87.4,3.6,0.2,10.06,29.66,1.9455,393.9422],
    [21924,1537400474,54.0342,-110.0871,896.0,222.1,87.2,3.9,0.1,10.87,29.17,1.9433,393.0748],
    [21925,1537400475,54.0342,-110.0859,895.7,220.9,87.0,4.2,0.0,10.12,29.9,1.9399,393.9991],
    [21926,1537400476,54.0342,-110.0846,895.5,219.8,87.5,3.8,0.6,10.26,29.7,1.9436,393.2234],
    [21927,1537400477,54.0343,-110.0834,895.4,219.4,87.9,4.2,0.8,10.37,29.91,1.9427,394.7018],
    [21928,1537400478,54.0343,-110.0821,895.2,219.6,87.0,4.6,-0.3,10.46,29.34,1.9432,389.1581],
    [21929,1537400479,54.0344,-110.0809,895.2,220.6,87.4,4.3,0.2,9.86,29.56,1.9435,394.5081],
    [21930,1537400480,54.0344,-110.0796,894.9,221.2,88.1,4.1,0.9,9.77,29.56,1.9432,394.8666],
    [21931,1537400481,54.0344,-110.0784,894.5,222.6,87.6,3.8,0.2,10.34,30.26,1.9445,393.2251],
    [21932,1537400482,54.0344,-110.0772,894.8,224.8,87.7,3.7,0.4,10.23,29.74,1.9421,393.6939],
    [21933,1537400483,54.0345,-110.0759,895.3,226.0,87.7,3.7,0.3,9.95,29.7,1.9427,394.0303],
    [21934,1537400484,54.0345,-110.0747,895.5,222.5,87.7,3.5,0.3,10.46,29.5,1.9442,392.4239],
    [21935,1537400485,54.0345,-110.0734,895.5,218.5,87.7,3.6,0.3,10.85,29.08,1.9445,393.3447],
    [21936,1537400486,54.0346,-110.0721,895.5,216.5,87.6,3.7,0.3,10.74,28.96,1.9424,393.6479],
    [21937,1537400487,54.0346,-110.0709,895.7,216.0,87.6,3.8,0.3,10.29,29.93,1.9419,393.6479],
    [21938,1537400488,54.0346,-110.0697,895.7,217.7,87.6,4.1,0.3,10.33,29.23,1.9431,393.9331],
    [21939,1537400489,54.0347,-110.0684,895.6,220.6,87.5,4.2,0.3,10.54,28.61,1.9424,393.0983],
    [21940,1537400490,54.0347,-110.0672,895.5,219.5,87.5,4.2,0.2,10.37,28.93,1.9412,393.9982],
    [21941,1537400491,54.0347,-110.0659,895.4,219.4,87.6,4.3,0.3,10.03,29.15,1.9412,393.1388],
    [21942,1537400492,54.0348,-110.0647,895.2,221.2,87.7,4.3,0.3,10.2,29.14,1.9409,393.3954],
    [21943,1537400493,54.0348,-110.0635,895.2,223.2,87.7,4.1,0.1,10.19,28.93,1.941,394.5756],
    [21944,1537400494,54.0348,-110.0622,895.4,223.5,87.7,4.3,0.1,10.34,28.51,1.9417,394.5756],
    [21945,1537400495,54.0349,-110.0609,895.6,223.7,87.7,4.4,0.2,10.28,29.32,1.9427,394.3749],
    [21946,1537400496,54.0349,-110.0597,895.6,225.3,87.7,4.5,0.4,10.65,28.2,1.9435,392.1116],
    [21947,1537400497,54.0349,-110.0584,895.4,226.2,87.6,4.5,0.3,9.72,28.59,1.9434,394.5344],
    [21948,1537400498,54.0349,-110.0573,895.4,226.9,87.7,4.3,0.4,10.78,28.62,1.9443,394.2353],
    [21949,1537400499,54.035,-110.056,895.5,227.5,87.7,4.1,0.2,10.62,28.89,1.9436,393.8609],
    [21950,1537400500,54.035,-110.0547,895.7,227.7,87.3,4.3,-0.2,10.21,28.64,1.9427,393.7583],
    [21951,1537400501,54.035,-110.0535,895.7,227.7,87.2,4.4,-0.3,10.11,28.73,1.9431,394.1949],
    [21952,1537400502,54.0351,-110.0522,895.6,226.7,87.3,4.4,-0.2,10.11,29.15,1.9431,393.5494],
    [21953,1537400503,54.0351,-110.051,895.6,224.6,87.6,4.6,0.2,10.05,28.5,1.9441,392.1479],
    [21954,1537400504,54.0351,-110.0497,895.5,223.8,87.6,4.8,0.1,10.56,28.7,1.9444,392.9455],
    [21955,1537400505,54.0352,-110.0485,895.5,223.7,87.6,4.7,0.2,10.26,28.6,1.9455,393.8205],
    [21956,1537400506,54.0352,-110.0472,895.3,223.3,88.0,4.5,0.6,10.41,28.52,1.945,392.9112],
    [21957,1537400507,54.0352,-110.046,895.2,222.3,88.1,4.4,0.6,9.85,28.84,1.9429,393.2409],
    [21958,1537400508,54.0352,-110.0447,895.1,223.1,88.0,4.6,0.5,9.65,28.83,1.9422,394.2819],
    [21959,1537400509,54.0353,-110.0435,894.9,223.8,87.9,4.7,0.5,10.39,29.01,1.9429,394.1694],
    [21960,1537400510,54.0353,-110.0422,894.7,224.6,87.7,4.7,0.4,10.26,29.09,1.9415,393.5682],
    [21961,1537400511,54.0353,-110.041,894.7,226.8,87.6,4.5,0.3,10.18,29.03,1.944,394.3221],
    [21962,1537400512,54.0354,-110.0397,894.8,226.8,87.7,4.6,0.5,11.13,28.59,1.9438,394.4877],
    [21963,1537400513,54.0354,-110.0385,894.7,226.4,87.6,4.7,0.4,10.44,28.78,1.9439,392.7607],
    [21964,1537400514,54.0354,-110.0372,894.6,224.6,87.5,4.9,0.3,10.32,28.79,1.9442,393.0404],
    [21965,1537400515,54.0355,-110.036,894.6,223.6,87.5,5.1,0.4,10.38,29.14,1.9446,393.6637],
    [21966,1537400516,54.0355,-110.0348,894.8,223.8,87.6,5.1,0.4,10.22,28.99,1.9438,393.6637],
    [21967,1537400517,54.0355,-110.0335,894.9,224.9,87.6,5.1,0.3,10.37,28.59,1.9439,393.1588],
    [21968,1537400518,54.0356,-110.0323,895.0,225.0,87.6,5.2,0.2,10.77,28.03,1.9442,394.3354],
    [21969,1537400519,54.0356,-110.031,895.1,224.8,87.5,5.1,0.2,10.84,28.41,1.9429,393.7445],
    [21970,1537400520,54.0356,-110.0298,895.2,223.9,87.8,4.9,0.5,9.98,28.83,1.9433,393.7445],
    [21971,1537400521,54.0357,-110.0285,895.2,224.1,87.5,4.8,0.0,10.32,28.52,1.9442,393.2669],
    [21972,1537400522,54.0357,-110.0273,895.3,225.8,87.7,4.9,0.3,10.16,28.9,1.9466,393.3885],
    [21973,1537400523,54.0357,-110.026,895.7,227.7,88.0,4.5,0.7,10.56,29.26,1.9455,395.1405],
    [21974,1537400524,54.0358,-110.0248,895.5,229.3,88.0,4.8,0.6,11.01,28.51,1.9459,395.1405],
    [21975,1537400525,54.0358,-110.0235,895.1,229.1,87.8,5.0,0.3,10.35,29.07,1.9446,393.8903],
    [21976,1537400526,54.0358,-110.0222,895.2,229.2,87.7,4.8,0.5,10.21,30.15,1.945,394.4369],
    [21977,1537400527,54.0358,-110.021,895.4,229.4,87.6,4.9,0.3,10.03,29.79,1.9439,392.7406],
    [21978,1537400528,54.0359,-110.0197,895.3,229.3,86.9,4.9,-0.5,10.24,29.17,1.9468,393.5551],
    [21979,1537400529,54.0359,-110.0185,895.3,229.3,86.7,4.7,-0.7,10.36,28.99,1.9441,394.6597],
    [21980,1537400530,54.0359,-110.0172,895.3,229.3,87.1,4.9,-0.4,10.44,28.95,1.9445,394.0662],
    [21981,1537400531,54.036,-110.016,895.3,229.3,87.2,5.8,-0.4,9.72,29.31,1.9443,394.0662],
    [21982,1537400532,54.036,-110.0147,895.8,229.8,87.5,6.0,-0.4,10.33,29.33,1.9438,391.3476],
    [21983,1537400533,54.036,-110.0135,896.3,230.3,87.5,5.4,-0.3,9.65,29.53,1.9448,393.3439],
    [21984,1537400534,54.0361,-110.0122,897.1,231.1,88.6,5.3,1.0,10.48,28.95,1.9468,393.3439],
    [21985,1537400535,54.0361,-110.0109,897.5,231.5,88.1,4.9,0.0,9.96,29.34,1.946,392.6613],
    [21986,1537400536,54.0361,-110.0097,897.3,231.3,87.5,5.3,-0.7,10.24,29.62,1.9454,392.5981],
    [21987,1537400537,54.0361,-110.0084,897.1,230.1,87.6,6.5,-0.4,10.11,29.82,1.948,393.9398],
    [21988,1537400538,54.0362,-110.0071,896.9,230.9,88.2,6.2,0.4,10.24,29.93,1.9479,394.7034],
    [21989,1537400539,54.0362,-110.0059,896.7,230.6,89.6,5.6,2.0,9.67,30.07,1.9467,395.3617],
    [21990,1537400540,54.0362,-110.0046,896.1,226.8,89.4,4.9,1.5,10.3,29.65,1.9456,393.7851],
    [21991,1537400541,54.0362,-110.0033,896.2,227.3,89.6,3.4,1.8,9.56,30.12,1.9449,393.7851],
    [21992,1537400542,54.0362,-110.0021,896.7,229.3,89.5,3.0,1.6,10.22,30.61,1.947,394.3722],
    [21993,1537400543,54.0363,-110.0008,896.6,231.1,89.3,3.0,1.6,10.67,29.6,1.9478,392.5245],
    [21994,1537400544,54.0363,-109.9995,896.9,232.3,89.2,2.7,1.7,9.85,30.1,1.9471,394.2119],
    [21995,1537400545,54.0363,-109.9982,898.1,238.0,88.8,2.8,1.4,9.53,30.25,1.9483,393.7097],
    [21996,1537400546,54.0363,-109.997,899.2,242.2,88.6,3.0,1.3,10.18,30.7,1.9462,393.9961],
    [21997,1537400547,54.0364,-109.9957,899.7,244.1,88.4,3.4,1.3,10.6,29.72,1.9472,393.9961],
    [21998,1537400548,54.0364,-109.9944,899.3,245.1,88.4,3.5,1.6,10.23,30.28,1.9458,394.7621],
    [21999,1537400549,54.0364,-109.9932,899.1,244.3,88.1,2.8,1.5,9.69,30.17,1.9465,393.9971],
    [22000,1537400550,54.0365,-109.9919,898.7,245.8,88.1,3.2,1.7,10.52,29.62,1.9464,394.9184],
    [22001,1537400551,54.0365,-109.9906,897.8,246.0,87.5,3.1,1.0,9.83,30.31,1.9455,394.8334],
    [22002,1537400552,54.0366,-109.9893,897.0,246.0,87.4,3.1,1.0,10.69,29.65,1.9457,394.4235],
    [22003,1537400553,54.0366,-109.9881,896.6,246.7,87.7,3.0,1.3,10.34,30.07,1.9453,393.3541],
    [22004,1537400554,54.0366,-109.9868,896.3,248.2,87.9,3.0,1.5,10.7,29.73,1.9461,390.7636],
    [22005,1537400555,54.0367,-109.9855,895.9,248.9,88.0,3.0,1.8,10.26,31.03,1.9458,394.9558],
    [22006,1537400556,54.0367,-109.9842,894.7,249.9,87.9,2.8,1.7,10.31,31.05,1.9464,393.984],
    [22007,1537400557,54.0368,-109.9829,893.6,250.6,87.6,3.1,1.4,10.97,29.9,1.9455,393.8472],
    [22008,1537400558,54.0368,-109.9817,893.2,252.7,87.8,3.4,1.5,10.23,30.07,1.9444,393.8472],
    [22009,1537400559,54.0368,-109.9804,893.8,252.9,87.7,3.2,1.2,10.81,29.29,1.9447,395.0362],
    [22010,1537400560,54.0369,-109.9791,895.1,254.2,87.9,3.4,1.1,9.98,30.12,1.9442,393.7823],
    [22011,1537400561,54.0369,-109.9779,896.3,255.3,87.6,3.5,0.7,9.8,30.13,1.9456,393.8103],
    [22012,1537400562,54.037,-109.9766,897.1,257.1,88.1,3.4,1.0,10.63,29.85,1.9452,393.8417],
    [22013,1537400563,54.037,-109.9753,897.2,257.2,87.4,3.3,-0.1,10.22,30.45,1.9459,393.8929],
    [22014,1537400564,54.037,-109.9741,898.5,262.1,87.8,3.4,0.1,9.94,29.93,1.9457,392.7991],
    [22015,1537400565,54.037,-109.9728,900.6,265.6,88.5,4.2,0.6,10.3,29.99,1.9464,394.1471],
    [22016,1537400566,54.0371,-109.9716,901.9,267.9,88.1,4.3,0.0,10.36,30.64,1.9453,395.7071],
    [22017,1537400567,54.0371,-109.9703,903.2,269.2,88.0,4.2,-0.2,10.23,30.11,1.9461,394.9689],
    [22018,1537400568,54.0371,-109.969,904.1,269.1,88.2,3.7,-0.1,10.48,29.21,1.9461,394.38],
    [22019,1537400569,54.0371,-109.9678,904.3,268.3,88.5,4.0,0.5,10.37,30.06,1.9455,393.3891],
    [22020,1537400570,54.0372,-109.9666,904.2,267.2,88.6,3.9,0.8,10.21,29.8,1.9448,392.9561],
    [22021,1537400571,54.0372,-109.9653,904.9,265.8,87.5,3.7,-0.1,10.15,29.51,1.9467,392.9561],
    [22022,1537400572,54.0372,-109.964,906.3,266.3,87.9,3.0,0.2,10.24,29.58,1.9459,394.2645],
    [22023,1537400573,54.0372,-109.9628,907.9,267.9,87.8,3.1,-0.1,10.19,29.64,1.944,394.1432],
    [22024,1537400574,54.0373,-109.9616,910.6,269.6,88.9,3.4,0.1,10.1,29.32,1.9454,394.0635],
    [22025,1537400575,54.0373,-109.9603,915.3,274.3,89.1,3.4,-0.9,10.33,29.75,1.9456,394.7579],
    [22026,1537400576,54.0373,-109.9591,919.9,279.9,92.2,3.3,0.6,10.2,29.66,1.9456,394.7579],
    [22027,1537400577,54.0372,-109.9579,926.7,286.7,95.0,2.8,0.0,10.31,29.81,1.9459,393.9725],
    [22028,1537400578,54.0371,-109.9567,935.7,295.7,98.6,2.7,0.7,10.38,29.56,1.9462,393.9725],
    [22029,1537400579,54.037,-109.9555,944.5,304.5,102.0,2.9,0.6,10.63,29.13,1.9439,394.3188],
    [22030,1537400580,54.0369,-109.9544,952.7,313.5,104.8,3.1,0.4,10.3,30.07,1.9448,393.5445],
    [22031,1537400581,54.0367,-109.9533,959.5,323.3,108.7,3.3,1.1,10.22,29.77,1.9449,393.5985],
    [22032,1537400582,54.0365,-109.9522,965.5,329.8,111.5,3.0,0.1,10.23,29.96,1.9446,392.8087],
    [22033,1537400583,54.0362,-109.9511,971.9,334.9,115.2,2.6,-0.3,10.23,29.76,1.9429,392.8087],
    [22034,1537400584,54.0359,-109.9501,978.7,338.8,118.7,1.8,-0.9,10.43,30.32,1.942,393.236],
    [22035,1537400585,54.0356,-109.9492,985.3,345.8,123.0,2.3,-0.6,10.32,29.62,1.943,392.965],
    [22036,1537400586,54.0352,-109.9483,990.9,356.9,127.0,2.9,-0.8,10.2,30.5,1.9419,392.9982],
    [22037,1537400587,54.0348,-109.9474,995.8,366.2,130.1,2.9,-0.8,10.14,29.78,1.9424,392.9762],
    [22038,1537400588,54.0344,-109.9466,1000.1,373.9,133.1,3.2,-0.7,9.98,29.63,1.944,393.7178],
    [22039,1537400589,54.034,-109.9458,1004.5,379.5,135.0,2.8,-1.1,10.11,30.3,1.9424,393.9775],
    [22040,1537400590,54.0335,-109.9451,1009.1,383.8,137.0,2.9,-1.3,9.76,30.37,1.9402,394.1836],
    [22041,1537400591,54.0331,-109.9443,1013.3,386.4,138.8,3.0,-1.7,9.98,29.92,1.9427,392.6692],
    [22042,1537400592,54.0326,-109.9436,1016.8,387.8,140.6,3.0,-1.8,9.82,30.19,1.9425,392.9456],
    [22043,1537400593,54.0321,-109.943,1020.4,387.4,143.1,3.2,-1.6,9.67,30.2,1.9435,394.7987],
    [22044,1537400594,54.0316,-109.9423,1025.0,390.2,145.5,3.2,-1.5,9.74,30.84,1.9449,393.5735],
    [22045,1537400595,54.0311,-109.9417,1029.9,393.8,147.8,3.5,-1.5,10.5,29.68,1.9467,393.4013],
    [22046,1537400596,54.0306,-109.9411,1034.6,397.6,150.4,4.3,-2.0,9.68,30.23,1.9484,393.7062],
    [22047,1537400597,54.0301,-109.9406,1039.2,400.0,152.3,4.0,-2.1,9.74,31.05,1.949,393.7594],
    [22048,1537400598,54.0295,-109.9401,1043.4,403.7,154.4,4.1,-2.0,9.55,30.72,1.9486,394.3578],
    [22049,1537400599,54.029,-109.9396,1046.9,408.8,156.3,4.2,-1.8,10.09,30.52,1.9458,394.3312],
    [22050,1537400600,54.0284,-109.9391,1049.8,415.0,157.8,3.8,-0.9,10.48,30.71,1.946,394.0734],
    [22051,1537400601,54.0278,-109.9387,1052.7,419.7,159.8,4.1,-0.5,9.5,31.48,1.9463,394.0734],
    [22052,1537400602,54.0273,-109.9383,1056.0,422.0,161.2,4.3,-0.5,9.21,31.66,1.9468,393.2174],
    [22053,1537400603,54.0267,-109.9379,1059.5,423.1,162.1,3.9,-0.4,9.48,31.6,1.9457,394.7269],
    [22054,1537400604,54.0261,-109.9376,1063.8,425.6,163.0,3.7,0.2,9.43,32.13,1.9471,393.9038],
    [22055,1537400605,54.0255,-109.9372,1068.7,429.7,163.6,3.4,0.9,9.21,31.75,1.9468,393.9416],
    [22056,1537400606,54.0249,-109.9369,1074.4,435.4,163.8,3.3,0.3,9.92,31.45,1.9467,393.9416],
    [22057,1537400607,54.0244,-109.9365,1081.6,442.0,163.7,3.0,-0.1,10.07,31.6,1.949,392.8732],
    [22058,1537400608,54.0238,-109.9362,1089.2,449.2,163.2,2.4,-0.1,9.36,32.8,1.9484,392.5676],
    [22059,1537400609,54.0232,-109.9359,1097.6,457.6,163.5,2.7,-0.1,9.41,32.08,1.948,394.6468],
    [22060,1537400610,54.0226,-109.9355,1105.9,465.9,163.8,3.1,0.1,8.7,32.63,1.9482,394.5005],
    [22061,1537400611,54.0221,-109.9352,1113.2,473.2,164.9,4.4,0.7,9.28,33.03,1.9472,394.1173],
    [22062,1537400612,54.0215,-109.9349,1119.8,479.8,165.3,4.6,0.8,9.2,33.84,1.9463,393.5394],
    [22063,1537400613,54.0209,-109.9346,1125.8,485.8,165.6,4.6,0.6,9.14,33.13,1.9483,394.4794],
    [22064,1537400614,54.0204,-109.9342,1131.5,491.5,165.5,4.4,0.3,8.94,33.41,1.9459,394.132],
    [22065,1537400615,54.0198,-109.9339,1137.2,497.2,165.7,4.5,0.2,8.86,33.61,1.9458,393.5895],
    [22066,1537400616,54.0193,-109.9336,1143.0,503.3,166.0,4.4,0.3,8.88,33.53,1.9466,393.5895],
    [22067,1537400617,54.0187,-109.9333,1148.7,509.7,165.7,3.8,0.3,9.1,32.96,1.9476,395.1502],
    [22068,1537400618,54.0181,-109.933,1153.0,515.1,165.7,2.7,0.2,8.6,33.61,1.9468,394.7111],
    [22069,1537400619,54.0175,-109.9327,1156.6,519.4,166.9,2.6,0.4,8.71,33.57,1.9461,395.0003],
    [22070,1537400620,54.017,-109.9325,1159.7,523.7,170.7,4.4,0.6,8.97,33.55,1.9476,391.8796],
    [22071,1537400621,54.0164,-109.9323,1163.3,527.9,173.3,4.3,1.0,8.53,33.56,1.9466,393.5077],
    [22072,1537400622,54.0158,-109.9321,1167.1,539.1,176.1,4.7,1.1,8.77,33.72,1.9464,393.651],
    [22073,1537400623,54.0152,-109.932,1171.3,543.3,178.6,4.4,1.3,9.35,33.4,1.9478,394.2562],
    [22074,1537400624,54.0147,-109.9319,1176.1,543.3,180.9,3.8,1.5,9.08,33.09,1.9482,393.3576],
    [22075,1537400625,54.0141,-109.9319,1181.0,547.6,183.5,4.1,1.3,8.22,34.26,1.9481,393.2254],
    [22076,1537400626,54.0135,-109.9319,1185.6,550.6,186.2,4.4,1.7,7.94,34.03,1.9481,394.0859],
    [22077,1537400627,54.0129,-109.932,1190.7,552.7,188.3,4.0,1.5,8.8,34.04,1.9474,394.3656],
    [22078,1537400628,54.0124,-109.9321,1196.0,558.7,190.4,4.4,1.5,7.79,34.31,1.9479,392.9765],
    [22079,1537400629,54.0118,-109.9322,1200.6,563.6,192.1,4.3,1.7,8.04,34.8,1.9468,394.7239],
    [22080,1537400630,54.0113,-109.9324,1205.3,568.0,193.1,3.9,1.9,8.27,34.48,1.9473,394.5842],
    [22081,1537400631,54.0107,-109.9326,1210.0,571.3,194.1,3.7,1.5,8.38,34.19,1.9489,394.5586],
    [22082,1537400632,54.0102,-109.9328,1214.9,575.7,194.6,3.4,1.4,8.09,35.37,1.9489,395.1833],
    [22083,1537400633,54.0096,-109.9329,1219.7,578.7,194.6,3.2,1.9,7.93,35.2,1.9481,395.4525],
    [22084,1537400634,54.0091,-109.9331,1225.2,581.1,194.1,2.5,1.7,7.86,35.44,1.9485,393.2539],
    [22085,1537400635,54.0085,-109.9333,1230.5,584.7,193.9,2.4,1.4,7.84,35.63,1.9462,390.9914],
    [22086,1537400636,54.008,-109.9335,1235.1,588.8,194.0,2.8,1.4,8.44,35.49,1.9481,389.1118],
    [22087,1537400637,54.0075,-109.9337,1238.7,588.1,194.2,3.2,1.3,7.92,35.92,1.9469,393.8156],
    [22088,1537400638,54.0069,-109.9339,1242.8,588.3,193.6,3.1,1.6,7.91,36.19,1.9472,391.9413],
    [22089,1537400639,54.0064,-109.9341,1248.0,592.1,193.8,3.9,0.9,8.02,35.51,1.9474,394.1486],
    [22090,1537400640,54.0058,-109.9343,1252.7,596.0,194.5,5.0,0.5,7.57,36.25,1.9451,396.1452],
    [22091,1537400641,54.0053,-109.9344,1256.5,600.0,193.1,4.2,1.5,8.27,35.78,1.9456,394.2941],
    [22092,1537400642,54.0047,-109.9346,1260.4,604.6,192.0,3.9,1.4,7.6,36.51,1.9453,390.5118],
    [22093,1537400643,54.0042,-109.9347,1264.6,609.7,191.6,4.2,1.0,7.84,36.65,1.9455,393.8212],
    [22094,1537400644,54.0036,-109.9348,1269.5,614.4,191.0,4.2,1.2,7.79,36.56,1.9467,393.9855],
    [22095,1537400645,54.0031,-109.935,1274.1,619.6,190.4,4.1,1.3,7.89,36.57,1.9454,393.9855],
    [22096,1537400646,54.0025,-109.9351,1278.5,624.5,189.9,4.0,1.1,7.52,37.09,1.9465,393.2422],
    [22097,1537400647,54.002,-109.9352,1283.0,629.2,189.0,3.3,1.0,7.31,36.88,1.9444,393.1314],
    [22098,1537400648,54.0014,-109.9353,1287.2,634.3,188.0,2.7,1.1,6.87,36.86,1.945,392.2887],
    [22099,1537400649,54.0009,-109.9354,1291.2,639.2,187.8,2.6,1.0,7.58,36.68,1.9452,393.1405],
    [22100,1537400650,54.0003,-109.9354,1295.5,644.3,187.8,2.7,0.8,7.49,36.78,1.9452,392.6368],
    [22101,1537400651,53.9998,-109.9355,1299.9,650.1,187.9,2.9,0.7,7.91,36.42,1.9445,393.7876],
    [22102,1537400652,53.9992,-109.9356,1304.6,655.6,187.4,2.7,0.9,7.47,36.75,1.9457,394.8439],
    [22103,1537400653,53.9986,-109.9357,1309.3,660.4,186.8,2.6,0.9,7.49,36.47,1.9463,393.7391],
    [22104,1537400654,53.9981,-109.9358,1313.5,664.7,186.7,2.9,0.9,6.69,36.82,1.9458,393.5734],
    [22105,1537400655,53.9975,-109.9358,1317.9,669.3,186.7,3.2,0.8,6.85,37.16,1.9469,394.9042],
    [22106,1537400656,53.997,-109.9359,1323.6,675.0,186.3,3.1,0.3,7.12,36.9,1.9469,392.4062],
    [22107,1537400657,53.9964,-109.936,1329.1,681.9,186.0,2.8,0.4,6.98,36.84,1.9472,392.3796],
    [22108,1537400658,53.9959,-109.936,1333.6,686.8,186.3,3.3,0.2,7.26,36.87,1.9456,392.3796],
    [22109,1537400659,53.9953,-109.9361,1337.9,691.9,186.7,3.6,0.3,7.23,36.82,1.9451,394.1965],
    [22110,1537400660,53.9948,-109.9361,1342.7,696.7,186.4,3.5,0.6,6.89,37.17,1.9464,393.2816],
    [22111,1537400661,53.9942,-109.9362,1347.4,701.3,186.7,4.0,0.3,7.66,36.86,1.9472,392.3809],
    [22112,1537400662,53.9937,-109.9362,1352.0,706.0,186.0,3.3,0.1,6.91,37.26,1.9474,394.172],
    [22113,1537400663,53.9931,-109.9363,1356.8,708.1,185.8,3.4,0.0,6.11,37.25,1.9473,394.0046],
    [22114,1537400664,53.9925,-109.9363,1360.9,709.8,186.4,4.0,0.2,6.71,37.3,1.9477,393.9146],
    [22115,1537400665,53.992,-109.9364,1365.5,714.5,185.8,3.6,0.7,6.9,38.21,1.9459,393.3174],
    [22116,1537400666,53.9914,-109.9364,1370.5,720.4,186.0,3.9,0.8,6.6,37.49,1.9441,395.6352],
    [22117,1537400667,53.9909,-109.9364,1375.1,726.4,185.5,3.5,0.9,6.74,37.71,1.9455,394.2565],
    [22118,1537400668,53.9903,-109.9365,1379.8,731.7,185.3,3.5,0.8,6.96,37.48,1.9458,393.9817],
    [22119,1537400669,53.9897,-109.9365,1384.2,736.3,185.2,3.5,0.7,6.67,38.39,1.9449,394.2831],
    [22120,1537400670,53.9892,-109.9365,1388.4,739.1,185.0,3.4,0.5,7.38,37.66,1.9454,393.875],
    [22121,1537400671,53.9886,-109.9366,1392.9,741.9,185.1,3.4,0.5,6.68,37.77,1.9451,393.9118],
    [22122,1537400672,53.9881,-109.9366,1397.5,745.5,184.8,3.1,0.3,6.36,38.17,1.9448,393.4819],
    [22123,1537400673,53.9875,-109.9366,1402.1,749.2,184.7,3.0,0.7,5.96,38.36,1.9454,390.9871],
    [22124,1537400674,53.987,-109.9367,1406.8,752.8,184.8,3.1,0.7,6.22,38.06,1.9464,394.8321],
    [22125,1537400675,53.9864,-109.9367,1411.7,757.7,185.0,3.2,0.6,6.07,38.84,1.9457,393.4926],
    [22126,1537400676,53.9859,-109.9367,1416.6,761.6,185.1,3.2,0.9,6.27,37.95,1.9444,394.7909],
    [22127,1537400677,53.9853,-109.9368,1421.7,766.7,185.0,3.0,1.0,6.22,38.19,1.9436,393.7622],
    [22128,1537400678,53.9847,-109.9368,1427.5,772.5,184.7,2.6,1.0,6.26,38.53,1.945,394.6067],
    [22129,1537400679,53.9842,-109.9369,1434.4,779.4,184.7,2.3,1.3,6.06,38.28,1.9452,393.7525],
    [22130,1537400680,53.9836,-109.9369,1443.4,788.4,185.2,2.4,1.5,5.92,38.42,1.945,393.6817],
    [22131,1537400681,53.9831,-109.937,1452.9,797.9,186.3,3.0,1.5,6.26,37.89,1.9447,394.5755],
    [22132,1537400682,53.9826,-109.937,1461.9,806.8,186.3,2.9,1.3,6.03,38.22,1.9463,392.9482],
    [22133,1537400683,53.982,-109.9371,1469.7,815.7,185.9,2.6,1.1,5.76,38.37,1.9454,394.2177],
    [22134,1537400684,53.9815,-109.9371,1476.2,823.2,185.9,2.5,0.9,6.55,38.38,1.9464,393.6546],
    [22135,1537400685,53.981,-109.9372,1481.5,828.5,185.6,2.1,0.6,5.51,38.52,1.9466,393.6546],
    [22136,1537400686,53.9804,-109.9372,1486.1,833.2,185.6,2.1,0.5,5.69,39.18,1.9465,393.9096],
    [22137,1537400687,53.98,-109.9373,1489.8,835.8,185.9,2.1,0.3,6.41,38.72,1.9462,393.5804],
    [22138,1537400688,53.9794,-109.9374,1493.9,839.3,185.8,1.9,0.2,5.73,38.82,1.9465,393.1447],
    [22139,1537400689,53.9789,-109.9374,1497.8,842.7,186.4,2.3,0.4,5.65,39.79,1.9465,392.9168],
    [22140,1537400690,53.9783,-109.9375,1502.6,847.6,186.8,2.5,0.7,5.79,38.8,1.9462,391.742],
    [22141,1537400691,53.9778,-109.9376,1508.3,852.3,187.0,2.5,0.8,6.16,39.3,1.9456,392.274],
    [22142,1537400692,53.9773,-109.9376,1514.1,857.4,187.4,2.8,0.7,5.52,39.66,1.9452,392.1584],
    [22143,1537400693,53.9767,-109.9377,1519.8,862.5,187.4,2.6,0.6,5.44,39.73,1.9463,392.6824],
    [22144,1537400694,53.9762,-109.9378,1525.6,866.6,187.0,2.1,0.6,5.32,40.01,1.9474,394.5055],
    [22145,1537400695,53.9757,-109.9379,1531.9,872.2,186.8,1.8,0.7,5.46,40.14,1.9487,393.9432],
    [22146,1537400696,53.9751,-109.938,1538.8,878.6,186.9,1.7,0.4,4.79,40.15,1.9472,395.263],
    [22147,1537400697,53.9746,-109.9381,1545.6,883.6,187.3,1.7,0.4,4.63,40.77,1.9462,395.263],
    [22148,1537400698,53.9741,-109.9381,1552.3,889.4,187.5,1.6,0.5,5.21,40.65,1.945,393.6247],
    [22149,1537400699,53.9736,-109.9382,1559.1,894.8,188.1,1.8,0.6,5.19,41.13,1.9455,393.3739],
    [22150,1537400700,53.9731,-109.9383,1565.6,899.6,188.7,1.8,0.5,5.2,40.89,1.9454,393.0526],
    [22151,1537400701,53.9725,-109.9385,1572.0,905.7,189.1,1.7,0.7,5.05,41.23,1.9444,393.5008],
    [22152,1537400702,53.972,-109.9386,1578.0,910.3,190.2,2.3,0.9,4.87,41.71,1.9445,394.5762],
    [22153,1537400703,53.9715,-109.9387,1583.8,914.8,190.7,2.1,0.9,5.88,41.15,1.9444,394.6397],
    [22154,1537400704,53.971,-109.9388,1589.2,919.9,191.3,2.4,1.0,4.92,41.65,1.9451,393.8401],
    [22155,1537400705,53.9705,-109.939,1593.8,923.8,192.7,3.1,0.2,4.85,41.99,1.9435,393.5144],
    [22156,1537400706,53.97,-109.9391,1598.4,928.4,192.2,2.4,-0.1,4.9,42.62,1.9445,392.3598],
    [22157,1537400707,53.9695,-109.9393,1603.4,932.4,191.2,1.7,0.6,5.02,42.12,1.9455,393.8483],
    [22158,1537400708,53.969,-109.9394,1608.9,937.9,191.2,1.9,1.1,4.12,42.01,1.9452,391.6353],
    [22159,1537400709,53.9684,-109.9396,1615.0,944.0,190.7,1.6,0.9,4.67,42.36,1.9462,394.0253],
    [22160,1537400710,53.9679,-109.9397,1620.4,949.4,190.2,1.4,0.6,4.48,42.28,1.9467,394.147],
    [22161,1537400711,53.9674,-109.9398,1624.5,952.5,190.0,1.3,0.5,4.54,42.88,1.946,392.9765],
    [22162,1537400712,53.9669,-109.94,1627.8,955.8,189.0,0.3,0.7,4.49,42.88,1.9476,393.1003],
    [22163,1537400713,53.9664,-109.9401,1630.9,958.9,188.8,0.2,0.7,4.97,42.23,1.9456,393.2219],
    [22164,1537400714,53.9659,-109.9402,1633.5,961.5,189.4,1.0,0.8,4.44,42.92,1.9454,392.1968],
    [22165,1537400715,53.9653,-109.9404,1635.6,963.6,190.0,1.6,1.3,4.42,42.79,1.9466,392.5612],
    [22166,1537400716,53.9648,-109.9405,1637.6,965.6,189.8,1.5,1.6,4.66,43.28,1.947,393.8285],
    [22167,1537400717,53.9643,-109.9407,1639.8,967.8,190.6,2.3,1.3,3.99,43.99,1.9449,394.2643],
    [22168,1537400718,53.9637,-109.9408,1642.0,970.0,190.9,2.5,1.0,4.07,43.9,1.9455,391.7485],
    [22169,1537400719,53.9632,-109.941,1644.1,972.1,190.6,2.1,0.7,4.68,44.2,1.9453,391.7485],
    [22170,1537400720,53.9626,-109.9411,1646.1,974.1,190.4,2.1,1.2,4.2,45.01,1.9467,394.0331],
    [22171,1537400721,53.9621,-109.9412,1648.5,976.5,191.2,2.8,1.6,4.17,44.22,1.9459,393.7666],
    [22172,1537400722,53.9615,-109.9414,1651.4,979.4,190.7,2.1,1.3,4.13,44.39,1.946,394.5028],
    [22173,1537400723,53.9609,-109.9416,1654.7,982.7,190.7,2.0,0.6,4.01,44.76,1.9457,393.3368],
    [22174,1537400724,53.9604,-109.9417,1657.9,985.8,192.0,2.8,0.3,4.12,45.11,1.9462,392.0251],
    [22175,1537400725,53.9598,-109.9419,1661.4,990.4,191.3,1.9,0.6,3.94,45.14,1.9458,393.3081],
    [22176,1537400726,53.9593,-109.942,1665.4,994.4,190.5,1.5,1.0,3.89,45.19,1.9477,394.2202],
    [22177,1537400727,53.9587,-109.9422,1669.8,998.8,191.0,2.1,1.5,3.73,45.48,1.948,395.0795],
    [22178,1537400728,53.9581,-109.9423,1675.5,1004.5,190.7,2.0,2.2,3.46,45.69,1.9478,393.7624],
    [22179,1537400729,53.9576,-109.9425,1681.6,1010.6,190.8,2.0,2.0,3.81,46.05,1.947,394.1348],
    [22180,1537400730,53.957,-109.9427,1687.9,1016.9,190.7,1.7,2.1,3.87,46.8,1.9458,392.0999],
    [22181,1537400731,53.9565,-109.9428,1694.5,1023.5,190.7,1.3,2.2,3.88,46.26,1.9464,392.0999],
    [22182,1537400732,53.9559,-109.943,1701.1,1030.1,191.0,1.6,2.4,3.46,46.91,1.9467,392.2],
    [22183,1537400733,53.9554,-109.9431,1707.6,1037.6,191.0,1.5,2.5,4.4,46.47,1.946,392.6064],
    [22184,1537400734,53.9549,-109.9433,1714.3,1044.3,190.6,0.9,2.4,3.57,47.53,1.9457,392.6064],
    [22185,1537400735,53.9543,-109.9435,1721.0,1051.0,191.1,1.1,2.5,3.72,47.08,1.9468,393.0932],
    [22186,1537400736,53.9538,-109.9436,1727.4,1058.4,191.4,1.1,2.3,3.31,47.78,1.9471,392.8432],
    [22187,1537400737,53.9532,-109.9438,1733.6,1065.3,191.6,1.1,2.3,3.72,47.71,1.9463,392.1027],
    [22188,1537400738,53.9527,-109.944,1740.1,1072.4,191.3,0.7,2.2,3.21,47.65,1.9452,392.3156],
    [22189,1537400739,53.9522,-109.9442,1746.5,1079.5,191.1,0.5,2.0,3.32,48.14,1.9454,390.1521],
    [22190,1537400740,53.9516,-109.9444,1753.1,1087.0,191.7,1.0,1.3,3.34,48.04,1.9449,393.1845],
    [22191,1537400741,53.9511,-109.9445,1759.1,1094.0,192.8,1.5,1.2,3.94,47.67,1.9449,392.1998],
    [22192,1537400742,53.9505,-109.9447,1764.3,1100.3,193.5,1.8,1.2,3.52,48.29,1.9449,392.2375],
    [22193,1537400743,53.95,-109.9449,1769.3,1105.8,193.7,2.1,0.6,3.54,47.89,1.9448,393.2447],
    [22194,1537400744,53.9495,-109.9451,1774.6,1112.6,193.8,2.4,0.8,3.25,48.27,1.9455,392.2854],
    [22195,1537400745,53.9489,-109.9453,1780.3,1119.4,193.1,2.0,0.8,3.64,47.71,1.9453,393.3135],
    [22196,1537400746,53.9484,-109.9455,1786.3,1126.4,192.9,1.7,0.6,3.53,47.74,1.9454,393.3135],
    [22197,1537400747,53.9478,-109.9457,1792.1,1133.1,192.7,1.5,0.7,2.94,49.0,1.9467,392.8975],
    [22198,1537400748,53.9473,-109.9459,1798.4,1140.3,192.3,1.5,1.5,3.21,48.2,1.9462,393.0084],
    [22199,1537400749,53.9468,-109.946,1805.0,1148.3,193.0,2.6,1.2,2.8,48.78,1.9471,392.96],
    [22200,1537400750,53.9462,-109.9462,1811.6,1156.6,192.2,1.8,1.2,2.83,48.94,1.9468,393.8413],
    [22201,1537400751,53.9457,-109.9464,1818.7,1164.6,191.2,1.5,1.2,2.72,49.5,1.946,393.2064],
    [22202,1537400752,53.9451,-109.9465,1826.0,1174.2,191.0,1.8,1.1,2.96,49.4,1.9458,393.0182],
    [22203,1537400753,53.9446,-109.9467,1833.1,1183.0,190.2,1.4,1.1,2.61,49.94,1.945,392.7369],
    [22204,1537400754,53.9441,-109.9468,1839.8,1191.6,190.5,2.2,0.9,1.94,49.3,1.944,393.587],
    [22205,1537400755,53.9435,-109.947,1845.6,1200.0,191.1,2.9,0.4,2.51,49.54,1.9441,393.4781],
    [22206,1537400756,53.943,-109.9471,1851.7,1207.7,189.8,2.1,0.6,2.57,50.04,1.944,393.4781],
    [22207,1537400757,53.9425,-109.9472,1857.7,1215.3,189.1,1.8,0.9,2.24,49.35,1.9445,393.3643],
    [22208,1537400758,53.9419,-109.9473,1863.7,1223.3,188.1,1.4,1.3,2.34,49.52,1.9441,393.7804],
    [22209,1537400759,53.9414,-109.9474,1870.0,1230.0,188.0,1.6,1.3,2.24,49.77,1.9463,393.8699],
    [22210,1537400760,53.9409,-109.9475,1876.2,1237.5,188.1,1.8,0.9,2.75,49.66,1.9448,393.8699],
    [22211,1537400761,53.9403,-109.9476,1882.3,1244.3,187.1,1.2,1.0,2.77,49.72,1.9454,393.6815],
    [22212,1537400762,53.9398,-109.9477,1889.3,1253.0,186.6,1.0,0.9,2.89,49.24,1.9466,393.0725],
    [22213,1537400763,53.9393,-109.9478,1897.3,1262.4,186.3,0.8,0.7,1.97,49.94,1.9483,393.2889],
    [22214,1537400764,53.9387,-109.9479,1906.0,1272.0,186.0,0.6,0.4,2.08,50.35,1.9487,393.9029],
    [22215,1537400765,53.9382,-109.948,1914.1,1282.8,184.8,-0.4,0.6,2.46,50.2,1.9477,393.598],
    [22216,1537400766,53.9377,-109.9481,1921.9,1289.8,184.0,-1.0,0.7,2.03,50.97,1.9479,394.1104],
    [22217,1537400767,53.9372,-109.9482,1928.8,1296.8,184.2,-0.6,0.8,1.78,50.7,1.9474,394.1115],
    [22218,1537400768,53.9367,-109.9482,1935.1,1302.1,184.3,-0.6,0.4,2.5,50.45,1.947,392.5069],
    [22219,1537400769,53.9361,-109.9483,1940.8,1307.8,184.5,-0.3,0.1,1.91,50.96,1.948,393.7572],
    [22220,1537400770,53.9356,-109.9484,1946.3,1312.4,185.2,0.2,0.4,1.76,51.36,1.9487,394.2901],
    [22221,1537400771,53.9351,-109.9485,1952.7,1318.7,185.6,0.2,0.4,1.44,51.22,1.9481,394.0782],
    [22222,1537400772,53.9346,-109.9485,1959.6,1325.3,185.5,-0.2,0.6,1.29,51.21,1.9466,393.9368],
    [22223,1537400773,53.9341,-109.9486,1967.6,1332.6,185.0,-0.8,0.5,1.8,51.39,1.9463,393.2799],
    [22224,1537400774,53.9336,-109.9487,1975.7,1339.6,184.9,-0.9,0.5,1.87,51.28,1.9481,390.8934],
    [22225,1537400775,53.9331,-109.9488,1983.5,1347.5,184.6,-1.1,0.7,1.38,52.12,1.9483,392.8122],
    [22226,1537400776,53.9326,-109.9489,1991.0,1354.0,184.5,-1.1,0.6,1.16,52.38,1.9501,393.7872],
    [22227,1537400777,53.9321,-109.949,1998.2,1360.2,183.9,-1.5,0.4,1.25,52.26,1.9483,393.6023],
    [22228,1537400778,53.9316,-109.949,2005.7,1366.7,183.9,-1.3,0.2,1.32,52.41,1.9489,392.4748],
    [22229,1537400779,53.9311,-109.9491,2013.2,1374.2,184.6,-0.7,0.0,1.96,52.36,1.9479,392.4848],
    [22230,1537400780,53.9307,-109.9492,2020.2,1380.2,184.6,-0.6,-0.3,1.44,52.41,1.9482,390.4322],
    [22231,1537400781,53.9302,-109.9493,2027.0,1387.0,184.7,-0.5,-0.7,0.83,53.31,1.9483,394.3748],
    [22232,1537400782,53.9297,-109.9493,2033.5,1393.5,184.8,-0.5,-0.7,0.89,53.48,1.9473,393.6839],
    [22233,1537400783,53.9292,-109.9494,2038.9,1399.9,185.0,-0.2,-0.9,1.02,54.14,1.9485,392.5746],
    [22234,1537400784,53.9287,-109.9495,2042.8,1403.8,185.4,0.2,-1.4,1.17,54.58,1.9479,394.6362],
    [22235,1537400785,53.9282,-109.9496,2046.8,1407.8,184.8,-0.3,-1.3,1.69,53.77,1.9472,393.9203],
    [22236,1537400786,53.9277,-109.9496,2050.1,1412.1,185.0,0.2,-1.1,0.64,54.27,1.9468,393.1616],
    [22237,1537400787,53.9272,-109.9497,2053.2,1415.2,185.3,0.3,-1.0,1.14,54.98,1.949,393.6269],
    [22238,1537400788,53.9267,-109.9498,2056.2,1418.2,184.9,0.1,-0.9,0.54,54.87,1.9466,393.6269],
    [22239,1537400789,53.9262,-109.9499,2059.4,1420.4,185.9,1.0,-1.0,0.84,54.85,1.9467,393.5075],
    [22240,1537400790,53.9257,-109.9499,2063.6,1424.6,185.1,0.2,-0.9,0.54,55.18,1.947,393.0205],
    [22241,1537400791,53.9252,-109.95,2067.5,1428.5,184.6,-0.3,-0.6,0.39,56.16,1.9472,393.6282],
    [22242,1537400792,53.9246,-109.9501,2071.5,1432.5,185.1,0.0,-1.1,-0.19,55.85,1.9475,394.109],
    [22243,1537400793,53.9241,-109.9502,2075.3,1436.3,186.1,1.0,-1.0,0.51,55.82,1.9472,394.2265],
    [22244,1537400794,53.9236,-109.9502,2079.7,1440.7,186.5,1.1,-1.1,-0.35,56.01,1.9471,394.2265],
    [22245,1537400795,53.9231,-109.9503,2084.5,1445.5,186.6,0.9,-0.8,0.36,56.22,1.9481,392.8189],
    [22246,1537400796,53.9226,-109.9504,2089.1,1450.1,186.8,0.9,-0.6,0.39,56.19,1.947,394.6025],
    [22247,1537400797,53.922,-109.9505,2094.2,1455.2,187.1,1.1,-0.9,0.37,56.48,1.9467,393.4585],
    [22248,1537400798,53.9215,-109.9506,2099.2,1460.5,186.8,0.9,-1.1,-0.62,56.81,1.9471,394.5848],
    [22249,1537400799,53.921,-109.9507,2103.8,1465.8,186.2,0.8,-1.6,0.31,56.6,1.9472,392.1583],
    [22250,1537400800,53.9204,-109.9508,2106.4,1468.4,186.4,1.2,-1.6,-0.06,57.5,1.9529,393.2687],
    [22251,1537400801,53.9199,-109.9508,2107.1,1469.1,185.8,1.0,-1.3,0.82,57.38,1.954,392.1399],
    [22252,1537400802,53.9194,-109.9509,2106.1,1468.1,185.9,1.4,-1.3,-0.16,57.6,1.9556,392.5585],
    [22253,1537400803,53.9188,-109.951,2104.2,1466.2,186.5,2.0,-1.5,0.1,57.28,1.9543,392.5585],
    [22254,1537400804,53.9182,-109.9511,2102.4,1464.8,186.4,1.7,-1.5,0.04,57.8,1.952,394.106],
    [22255,1537400805,53.9177,-109.9511,2100.7,1463.7,186.4,1.6,-1.5,-0.83,57.96,1.9527,394.2416],
    [22256,1537400806,53.9171,-109.9512,2098.8,1469.8,186.1,1.2,-1.0,-0.69,58.16,1.9555,394.5383],
    [22257,1537400807,53.9165,-109.9513,2096.8,1459.8,186.9,2.0,-0.9,-0.04,57.39,1.9568,393.9945],
    [22258,1537400808,53.9159,-109.9514,2094.7,1457.7,188.0,2.6,-1.0,-0.5,58.53,1.9562,391.8921],
    [22259,1537400809,53.9153,-109.9515,2092.8,1456.1,188.7,2.8,-1.3,-0.16,58.07,1.9559,392.7493],
    [22260,1537400810,53.9147,-109.9516,2091.2,1462.2,189.4,3.1,-1.4,-1.01,58.12,1.9562,393.5185],
    [22261,1537400811,53.9141,-109.9518,2089.5,1460.5,189.5,2.8,-1.3,0.13,57.67,1.9521,392.7257],
    [22262,1537400812,53.9135,-109.9519,2087.8,1458.8,189.6,2.9,-1.2,0.35,57.84,1.952,393.1195],
    [22263,1537400813,53.9129,-109.952,2086.2,1457.2,189.8,2.8,-0.9,-0.52,58.68,1.9522,393.1057],
    [22264,1537400814,53.9122,-109.9522,2084.9,1455.9,189.3,2.3,-0.7,-0.53,58.61,1.9479,393.0168],
    [22265,1537400815,53.9116,-109.9523,2084.2,1450.3,189.7,2.6,-0.6,-1.03,58.42,1.948,394.4371],
    [22266,1537400816,53.911,-109.9524,2084.0,1448.6,189.5,2.3,-0.6,-0.53,59.23,1.9514,394.4371],
    [22267,1537400817,53.9104,-109.9526,2084.2,1449.2,189.3,2.0,-0.4,-0.42,59.21,1.9502,392.3482],
    [22268,1537400818,53.9097,-109.9527,2084.3,1449.3,189.7,2.4,-0.1,-0.65,58.69,1.9502,391.9973],
    [22269,1537400819,53.9091,-109.9529,2084.4,1449.4,189.8,2.5,-0.4,-0.51,59.2,1.9518,393.3018],
    [22270,1537400820,53.9085,-109.953,2084.6,1449.6,189.8,2.3,-0.4,-0.68,58.72,1.9492,393.9634],
    [22271,1537400821,53.9078,-109.9532,2085.1,1451.2,189.6,2.2,-0.1,-0.35,58.72,1.9473,392.7141],
    [22272,1537400822,53.9072,-109.9533,2085.7,1450.7,190.4,2.8,-0.2,-0.55,59.0,1.9463,393.9746],
    [22273,1537400823,53.9066,-109.9535,2086.6,1451.5,190.5,2.6,-0.4,-0.98,59.14,1.9453,393.7448],
    [22274,1537400824,53.9059,-109.9536,2087.7,1453.7,190.9,2.7,-0.5,0.08,58.57,1.9469,392.0141],
    [22275,1537400825,53.9053,-109.9538,2089.0,1455.0,191.2,2.6,-0.1,-0.84,59.4,1.9475,392.1986],
    [22276,1537400826,53.9047,-109.954,2090.6,1458.7,191.3,2.4,0.0,0.01,58.44,1.947,393.4933],
    [22277,1537400827,53.904,-109.9542,2092.4,1462.3,191.6,2.5,0.1,-0.44,58.93,1.9455,391.7532],
    [22278,1537400828,53.9034,-109.9543,2093.9,1465.0,191.9,2.8,0.1,-0.82,58.85,1.947,391.7532],
    [22279,1537400829,53.9027,-109.9545,2094.9,1463.5,191.6,2.5,0.1,-0.64,58.85,1.9465,393.7904],
    [22280,1537400830,53.9021,-109.9547,2095.0,1462.0,191.3,2.5,0.5,-1.4,58.67,1.9457,393.7904],
    [22281,1537400831,53.9015,-109.9549,2094.0,1459.8,191.5,2.8,0.2,-0.07,58.14,1.9445,392.606],
    [22282,1537400832,53.9008,-109.9551,2091.5,1454.3,191.4,2.9,-0.1,-1.22,58.88,1.9449,394.071],
    [22283,1537400833,53.9002,-109.9552,2088.6,1450.3,191.3,3.1,-0.1,-0.13,58.54,1.9452,393.0367],
    [22284,1537400834,53.8995,-109.9554,2086.0,1447.0,191.0,3.1,-0.4,-0.9,58.74,1.9459,393.1185],
    [22285,1537400835,53.8989,-109.9556,2083.5,1445.5,190.8,3.0,-0.5,-0.39,58.46,1.9457,394.4536],
    [22286,1537400836,53.8982,-109.9557,2080.7,1443.0,190.5,3.0,-0.3,-0.69,58.51,1.9452,394.2068],
    [22287,1537400837,53.8976,-109.9559,2077.9,1440.6,190.4,3.3,-0.2,-0.97,59.0,1.9443,393.4908],
    [22288,1537400838,53.8969,-109.956,2075.1,1437.2,189.9,2.9,-0.7,-0.62,58.89,1.9466,393.0898],
    [22289,1537400839,53.8962,-109.9562,2072.5,1433.5,189.8,3.1,-1.0,-0.75,58.23,1.9523,393.888],
    [22290,1537400840,53.8955,-109.9563,2069.9,1430.9,190.2,3.6,-1.3,-1.35,58.43,1.9499,394.6548],
    [22291,1537400841,53.8948,-109.9565,2066.7,1427.7,190.1,3.3,-1.5,-0.91,58.45,1.9465,392.7432],
    [22292,1537400842,53.8941,-109.9566,2063.1,1423.2,189.7,3.0,-0.9,-0.45,58.16,1.9433,393.7184],
    [22293,1537400843,53.8935,-109.9568,2059.8,1418.5,189.9,3.5,-0.6,-1.0,58.59,1.9424,394.25],
    [22294,1537400844,53.8928,-109.9569,2057.4,1414.1,189.8,3.4,-0.5,-0.52,58.1,1.9437,392.9569],
    [22295,1537400845,53.8921,-109.9571,2055.4,1411.4,189.7,3.4,-0.6,-0.76,57.97,1.9426,392.2075],
    [22296,1537400846,53.8914,-109.9572,2053.1,1407.1,189.7,3.4,-0.7,-0.55,57.62,1.9446,393.8951],
    [22297,1537400847,53.8907,-109.9574,2050.7,1404.0,189.3,3.0,-0.8,-0.45,57.17,1.9433,393.4235],
    [22298,1537400848,53.89,-109.9575,2048.1,1401.0,189.3,3.1,-0.8,-0.4,57.22,1.9434,391.4563],
    [22299,1537400849,53.8892,-109.9577,2045.3,1397.3,189.6,3.6,-0.9,-1.27,56.95,1.9461,393.2166],
    [22300,1537400850,53.8885,-109.9578,2042.6,1394.6,189.5,3.6,-0.5,-1.37,56.72,1.9543,390.8144],
    [22301,1537400851,53.8878,-109.958,2039.7,1390.7,189.7,3.8,-0.4,-0.91,56.98,1.956,393.5537],
    [22302,1537400852,53.8871,-109.9581,2037.0,1388.4,189.4,3.2,-0.7,-0.66,57.3,1.9557,392.2673],
    [22303,1537400853,53.8864,-109.9583,2034.2,1383.5,189.0,2.8,-0.4,-1.11,56.68,1.9542,393.1976],
    [22304,1537400854,53.8857,-109.9584,2030.6,1379.8,189.9,4.1,-0.6,-0.05,56.49,1.9549,393.3248],
    [22305,1537400855,53.8849,-109.9586,2026.5,1374.5,189.8,3.9,-1.1,-0.63,57.21,1.9578,393.3163],
    [22306,1537400856,53.8842,-109.9587,2022.7,1369.7,189.8,4.1,-1.4,-0.63,57.08,1.9554,392.8452],
    [22307,1537400857,53.8834,-109.9589,2019.6,1366.3,189.8,3.9,-1.0,-0.75,57.74,1.9547,392.7707],
    [22308,1537400858,53.8827,-109.959,2016.4,1362.1,189.3,3.2,-1.0,-0.6,57.62,1.9561,392.9709],
    [22309,1537400859,53.882,-109.9592,2013.2,1358.2,189.9,3.6,-1.5,-0.71,57.76,1.9557,392.2],
    [22310,1537400860,53.8812,-109.9594,2010.2,1355.2,190.0,4.1,-1.1,-0.14,57.33,1.9579,392.8082],
    [22311,1537400861,53.8805,-109.9595,2008.2,1353.2,191.0,5.3,-1.6,-0.96,57.81,1.9571,393.3514],
    [22312,1537400862,53.8797,-109.9597,2006.5,1352.2,190.5,4.6,-1.7,-0.76,58.02,1.9563,393.7368],
    [22313,1537400863,53.879,-109.9598,2003.5,1350.5,190.2,4.4,-1.3,-0.57,57.96,1.9568,393.4601],
    [22314,1537400864,53.8782,-109.96,1999.8,1347.8,189.5,3.8,-1.0,-0.49,57.67,1.958,393.3871],
    [22315,1537400865,53.8775,-109.9601,1996.3,1344.5,189.5,3.8,-1.1,-0.98,57.82,1.958,393.2351],
    [22316,1537400866,53.8767,-109.9603,1993.4,1341.4,189.6,4.1,-1.0,-0.64,57.93,1.9588,393.8033],
    [22317,1537400867,53.876,-109.9604,1990.8,1338.8,189.8,4.3,-0.8,-0.75,58.83,1.957,394.3702],
    [22318,1537400868,53.8752,-109.9606,1988.1,1336.0,189.9,4.2,-1.0,-0.72,58.25,1.9552,392.2401],
    [22319,1537400869,53.8745,-109.9608,1985.6,1332.6,189.6,3.8,-1.1,-0.58,58.82,1.9537,392.8556],
    [22320,1537400870,53.8737,-109.9609,1983.1,1329.4,189.4,3.4,-1.1,-1.06,58.09,1.9525,393.5723],
    [22321,1537400871,53.873,-109.9611,1980.5,1326.5,189.0,2.9,-0.8,-0.55,58.52,1.9519,393.7905],
    [22322,1537400872,53.8722,-109.9612,1977.6,1322.6,189.1,3.0,-1.1,-0.87,57.66,1.9496,392.6416],
    [22323,1537400873,53.8715,-109.9614,1974.8,1318.1,189.0,2.9,-1.5,-0.22,57.7,1.9511,391.9286],
    [22324,1537400874,53.8706,-109.9615,1971.8,1313.9,189.0,2.9,-1.5,-0.33,56.94,1.9523,393.7672],
    [22325,1537400875,53.8699,-109.9617,1969.1,1309.4,189.1,2.9,-1.2,-0.41,56.79,1.9545,393.3337],
    [22326,1537400876,53.8691,-109.9619,1966.2,1304.5,189.3,3.1,-1.3,-0.56,56.84,1.9532,394.5008],
    [22327,1537400877,53.8683,-109.962,1963.5,1301.2,189.8,3.7,-1.3,-0.61,57.43,1.9541,394.0893],
    [22328,1537400878,53.8676,-109.9622,1960.8,1295.7,189.4,3.3,-1.2,-0.63,57.32,1.954,393.1331],
    [22329,1537400879,53.8668,-109.9624,1957.8,1291.5,189.5,3.5,-1.2,-0.97,57.41,1.9517,393.0209],
    [22330,1537400880,53.866,-109.9625,1954.6,1286.3,189.4,3.4,-0.9,0.21,57.03,1.9505,393.3882],
    [22331,1537400881,53.8653,-109.9627,1951.5,1281.6,189.4,3.4,-0.9,-0.16,57.69,1.9511,393.1412],
    [22332,1537400882,53.8645,-109.9629,1948.4,1278.4,189.6,3.4,-1.0,-0.6,57.8,1.9522,393.8143],
    [22333,1537400883,53.8637,-109.963,1945.8,1276.8,189.5,3.3,-0.5,0.7,57.42,1.9525,390.7257],
    [22334,1537400884,53.8629,-109.9632,1943.4,1275.1,189.7,3.6,-0.4,-0.16,58.16,1.953,393.3936],
    [22335,1537400885,53.8622,-109.9634,1940.8,1272.8,189.6,3.4,-0.3,-0.59,57.63,1.9533,393.3039],
    [22336,1537400886,53.8614,-109.9635,1937.5,1268.5,189.7,3.5,-0.1,-0.17,57.39,1.9561,392.8554],
    [22337,1537400887,53.8606,-109.9637,1934.4,1264.3,189.6,3.5,0.2,-0.17,57.79,1.9536,391.8626],
    [22338,1537400888,53.8598,-109.9639,1931.3,1260.4,189.7,3.4,0.0,0.03,58.12,1.9521,393.4416],
    [22339,1537400889,53.859,-109.964,1928.2,1255.4,189.8,3.6,0.0,-0.26,57.84,1.9524,392.0085],
    [22340,1537400890,53.8583,-109.9642,1925.2,1251.2,190.1,3.8,-0.3,0.35,57.13,1.9511,394.5215],
    [22341,1537400891,53.8575,-109.9644,1922.3,1247.3,189.8,3.3,-0.3,-0.38,57.73,1.9533,393.2439],
    [22342,1537400892,53.8567,-109.9646,1919.6,1243.5,189.5,2.9,0.3,0.07,57.48,1.956,393.2439],
    [22343,1537400893,53.8559,-109.9647,1917.1,1241.1,189.7,3.1,0.4,-0.21,57.2,1.9568,393.7202],
    [22344,1537400894,53.8551,-109.9649,1914.6,1238.6,190.2,3.5,0.2,0.38,57.27,1.9548,393.7202],
    [22345,1537400895,53.8544,-109.9651,1911.1,1234.1,190.1,3.5,0.5,-0.03,57.09,1.9555,392.4157],
    [22346,1537400896,53.8536,-109.9653,1907.8,1229.8,190.6,4.2,0.4,-0.39,57.14,1.9546,392.9407],
    [22347,1537400897,53.8528,-109.9655,1904.3,1226.3,190.8,4.4,0.1,0.38,56.52,1.9536,393.3783],
    [22348,1537400898,53.852,-109.9657,1901.0,1223.0,190.9,4.5,-0.3,-0.18,57.12,1.9535,393.1234],
    [22349,1537400899,53.8513,-109.9658,1898.7,1220.0,191.5,5.3,-0.8,0.07,57.1,1.9529,393.9419],
    [22350,1537400900,53.8505,-109.966,1896.4,1217.4,191.1,4.7,-0.5,0.19,57.15,1.9531,394.2261],
    [22351,1537400901,53.8497,-109.9662,1894.3,1215.3,190.9,4.5,-0.6,-0.14,57.5,1.9531,392.9718],
    [22352,1537400902,53.8489,-109.9664,1892.1,1212.8,190.9,4.3,-0.4,0.3,57.04,1.9557,391.751],
    [22353,1537400903,53.8481,-109.9666,1889.8,1209.7,190.6,4.1,0.1,0.6,57.2,1.9566,394.4533],
    [22354,1537400904,53.8474,-109.9668,1887.4,1207.4,190.4,3.7,0.2,0.82,56.7,1.9548,393.1038],
    [22355,1537400905,53.8466,-109.967,1885.0,1206.0,190.5,4.2,0.2,0.1,57.19,1.9536,393.0676],
    [22356,1537400906,53.8458,-109.9671,1882.5,1204.2,190.9,4.8,0.1,0.27,56.81,1.9539,393.0676],
    [22357,1537400907,53.845,-109.9673,1879.7,1201.7,190.6,4.4,0.0,1.23,56.75,1.9528,392.3634],
    [22358,1537400908,53.8442,-109.9675,1877.0,1200.0,190.3,4.2,0.5,0.33,57.02,1.9524,392.3634],
    [22359,1537400909,53.8435,-109.9677,1874.6,1198.4,190.2,4.1,0.7,0.26,57.0,1.9521,392.6569],
    [22360,1537400910,53.8427,-109.9678,1872.0,1196.0,190.3,4.3,0.9,0.18,57.41,1.9512,391.8483],
    [22361,1537400911,53.8419,-109.968,1869.6,1194.6,190.5,4.3,0.3,0.16,56.47,1.9507,392.416],
    [22362,1537400912,53.8412,-109.9682,1866.7,1191.7,190.1,3.6,-0.1,-0.25,56.46,1.9528,393.2658],
    [22363,1537400913,53.8404,-109.9684,1863.7,1189.7,190.1,3.6,-0.2,0.77,56.26,1.9528,392.77],
    [22364,1537400914,53.8396,-109.9686,1860.8,1186.8,190.2,3.8,0.4,-0.24,56.2,1.9527,392.8515],
    [22365,1537400915,53.8388,-109.9687,1859.0,1186.0,190.3,4.0,1.0,0.2,56.19,1.9533,391.9512],
    [22366,1537400916,53.838,-109.9689,1857.5,1184.5,190.2,3.6,0.2,0.54,56.09,1.9535,393.563],
    [22367,1537400917,53.8373,-109.9691,1855.1,1182.6,190.2,3.8,0.0,0.66,55.91,1.9543,391.0928],
    [22368,1537400918,53.8365,-109.9693,1852.5,1180.5,190.6,4.5,-0.1,0.49,55.9,1.9515,391.5345],
    [22369,1537400919,53.8357,-109.9695,1849.5,1178.5,190.3,4.1,0.0,0.59,56.31,1.9514,392.7458],
    [22370,1537400920,53.8349,-109.9696,1847.2,1176.9,190.5,4.5,-0.2,0.53,56.15,1.9517,393.4348],
    [22371,1537400921,53.8342,-109.9698,1845.3,1175.3,190.4,4.4,-0.7,0.88,55.86,1.9522,393.5068],
    [22372,1537400922,53.8334,-109.97,1843.1,1174.1,190.4,4.4,-0.5,0.82,55.81,1.9517,393.5178],
    [22373,1537400923,53.8326,-109.9702,1840.3,1173.4,190.5,4.7,0.0,0.89,55.54,1.9508,393.3157],
    [22374,1537400924,53.8318,-109.9703,1837.2,1171.5,190.1,4.0,0.1,1.64,55.38,1.9534,392.9196],
    [22375,1537400925,53.8311,-109.9705,1834.3,1169.6,189.8,3.8,-0.1,0.56,55.64,1.9525,393.2984],
    [22376,1537400926,53.8303,-109.9707,1831.7,1166.7,189.8,3.8,-0.4,0.06,55.48,1.95,393.5442],
    [22377,1537400927,53.8295,-109.9708,1829.6,1163.6,189.7,3.6,-0.2,1.31,55.24,1.9516,393.891],
    [22378,1537400928,53.8287,-109.971,1827.6,1159.9,189.3,3.2,-0.3,0.81,55.37,1.951,392.1425],
    [22379,1537400929,53.828,-109.9712,1825.5,1156.5,189.6,3.6,-0.3,0.86,55.2,1.9524,392.6115],
    [22380,1537400930,53.8272,-109.9713,1823.2,1154.2,189.8,4.1,-0.2,1.46,54.28,1.9522,391.4858],
    [22381,1537400931,53.8264,-109.9715,1820.9,1151.5,190.4,4.9,-0.4,0.94,54.63,1.952,391.5988],
    [22382,1537400932,53.8257,-109.9717,1818.5,1149.5,190.0,4.3,-0.7,0.66,55.02,1.9508,391.684],
    [22383,1537400933,53.8249,-109.9718,1815.9,1146.9,190.3,4.9,-0.4,0.47,54.73,1.951,393.0569],
    [22384,1537400934,53.8241,-109.972,1813.6,1143.9,190.6,5.2,-0.4,0.9,54.54,1.9513,394.3508],
    [22385,1537400935,53.8233,-109.9722,1811.6,1141.6,190.4,5.0,-0.2,0.48,54.7,1.9517,392.6235],
    [22386,1537400936,53.8225,-109.9723,1809.3,1139.2,190.1,4.3,-0.4,1.02,55.33,1.9504,392.596],
    [22387,1537400937,53.8218,-109.9725,1806.1,1135.2,189.6,3.8,-0.3,0.49,54.56,1.9496,393.6785],
    [22388,1537400938,53.821,-109.9727,1802.8,1130.7,189.9,4.3,-0.4,0.9,54.47,1.9493,391.7069],
    [22389,1537400939,53.8202,-109.9728,1800.2,1125.9,189.8,4.2,-0.6,0.97,54.65,1.9506,393.3865],
    [22390,1537400940,53.8194,-109.973,1797.7,1119.4,189.9,4.5,-0.2,1.06,54.69,1.9525,394.04],
    [22391,1537400941,53.8186,-109.9731,1795.2,1114.2,190.3,5.3,0.0,1.06,54.24,1.9528,393.6664],
    [22392,1537400942,53.8179,-109.9733,1793.0,1112.3,190.4,5.6,-0.5,0.78,53.87,1.9512,394.407],
    [22393,1537400943,53.8171,-109.9734,1790.6,1110.0,190.0,5.3,-0.2,1.76,53.13,1.9513,393.7244],
    [22394,1537400944,53.8163,-109.9736,1787.8,1110.2,189.8,5.6,-0.2,1.24,53.9,1.9523,393.4507],
    [22395,1537400945,53.8155,-109.9737,1785.0,1109.0,189.1,5.8,-0.3,0.52,53.66,1.9534,393.7451],
    [22396,1537400946,53.8147,-109.9738,1782.8,1105.8,188.5,6.5,-0.3,1.63,53.58,1.9536,393.2174],
    [22397,1537400947,53.8139,-109.9739,1780.5,1100.8,187.2,6.3,-0.7,0.99,53.65,1.954,392.4287],
    [22398,1537400948,53.8132,-109.974,1777.6,1094.4,185.8,6.2,-1.1,1.59,53.2,1.9542,393.4589],
    [22399,1537400949,53.8124,-109.974,1774.1,1089.5,184.5,6.1,-1.0,1.14,53.89,1.9526,393.0494],
    [22400,1537400950,53.8116,-109.974,1771.0,1090.5,182.9,5.8,-0.8,1.32,54.45,1.955,392.403],
    [22401,1537400951,53.8108,-109.974,1769.0,1091.9,181.9,5.7,-0.6,1.52,53.53,1.9552,392.6142],
    [22402,1537400952,53.81,-109.9739,1766.9,1093.0,181.2,5.5,-0.7,1.41,54.6,1.9538,393.4204],
    [22403,1537400953,53.8092,-109.9739,1764.8,1091.1,180.6,5.1,-0.8,0.73,53.89,1.954,393.5688],
    [22404,1537400954,53.8084,-109.9738,1762.5,1090.5,180.8,5.4,-0.9,1.51,53.7,1.9546,393.5688],
    [22405,1537400955,53.8076,-109.9737,1760.2,1089.2,181.0,5.7,-0.2,1.57,53.95,1.9592,392.9382],
    [22406,1537400956,53.8068,-109.9737,1757.7,1086.7,180.9,5.5,0.2,1.56,53.67,1.9639,391.536],
    [22407,1537400957,53.806,-109.9736,1755.8,1084.8,181.2,5.8,0.4,1.46,53.8,1.9624,394.4436],
    [22408,1537400958,53.8052,-109.9735,1753.4,1083.5,181.4,6.0,-0.1,1.78,53.95,1.9608,394.4436],
    [22409,1537400959,53.8044,-109.9735,1750.9,1080.9,181.2,5.6,-0.6,1.36,54.47,1.9616,391.6839],
    [22410,1537400960,53.8037,-109.9734,1748.4,1076.1,180.9,5.2,-0.6,1.95,54.32,1.9583,392.7498],
    [22411,1537400961,53.8029,-109.9734,1745.7,1069.3,181.4,5.8,-0.4,1.01,54.65,1.957,391.8573],
    [22412,1537400962,53.8021,-109.9733,1742.9,1069.3,181.4,5.5,-0.4,1.9,54.55,1.9556,393.8633],
    [22413,1537400963,53.8013,-109.9733,1740.5,1073.8,180.8,4.8,-0.6,1.49,54.9,1.9547,393.3749],
    [22414,1537400964,53.8005,-109.9732,1738.7,1075.0,180.8,5.0,-0.9,1.74,54.54,1.9555,393.3749],
    [22415,1537400965,53.7997,-109.9732,1736.1,1076.1,181.2,5.5,-0.9,1.59,54.96,1.954,394.0556],
    [22416,1537400966,53.7989,-109.9731,1732.9,1074.6,180.8,4.8,-0.8,2.05,54.06,1.9532,392.1014],
    [22417,1537400967,53.7981,-109.973,1730.0,1074.8,180.7,4.5,-1.2,2.16,54.32,1.9536,393.3147],
    [22418,1537400968,53.7973,-109.973,1727.6,1083.4,180.8,4.6,-1.4,1.09,54.44,1.9519,393.3147],
    [22419,1537400969,53.7966,-109.9729,1725.1,1085.1,181.2,5.0,-1.1,1.47,54.11,1.953,393.3903],
    [22420,1537400970,53.7958,-109.9729,1722.2,1082.2,181.1,4.8,-0.7,2.01,53.89,1.9516,393.3048],
    [22421,1537400971,53.795,-109.9729,1719.2,1079.2,181.3,5.0,-0.5,1.7,53.84,1.9505,393.048],
    [22422,1537400972,53.7942,-109.9728,1717.0,1077.0,181.5,5.4,-0.2,1.76,53.38,1.9556,392.9298],
    [22423,1537400973,53.7934,-109.9728,1715.1,1075.1,181.8,5.9,-0.3,1.78,53.59,1.9573,392.6468],
    [22424,1537400974,53.7926,-109.9727,1713.1,1073.1,181.4,5.4,-0.5,1.44,53.44,1.9561,393.4454],
    [22425,1537400975,53.7918,-109.9727,1710.5,1070.5,181.9,6.1,-0.8,1.33,53.34,1.9533,393.5766],
    [22426,1537400976,53.7911,-109.9726,1707.3,1067.3,181.7,6.0,-0.7,1.92,52.8,1.9564,393.5766],
    [22427,1537400977,53.7903,-109.9726,1704.5,1064.5,181.8,6.4,-0.9,2.42,52.77,1.957,391.0843],
    [22428,1537400978,53.7895,-109.9725,1702.1,1062.1,181.3,5.6,-1.2,1.88,53.6,1.9549,391.9245],
    [22429,1537400979,53.7887,-109.9724,1699.7,1059.7,181.1,5.4,-1.4,1.65,52.84,1.9541,394.4223],
    [22430,1537400980,53.7879,-109.9724,1697.2,1057.2,181.1,5.5,-1.3,2.55,52.31,1.9528,394.4223],
    [22431,1537400981,53.7872,-109.9723,1694.1,1050.2,181.2,5.5,-1.8,1.43,52.74,1.9541,393.0645],
    [22432,1537400982,53.7864,-109.9723,1690.9,1037.6,181.1,5.5,-1.8,1.87,52.5,1.9581,393.1327],
    [22433,1537400983,53.7856,-109.9722,1688.1,1036.1,181.2,5.6,-1.5,1.76,52.5,1.9591,393.1327],
    [22434,1537400984,53.7848,-109.9722,1686.0,1034.0,180.7,4.9,-1.6,2.79,51.83,1.9569,393.2477],
    [22435,1537400985,53.7841,-109.9721,1683.7,1028.8,180.5,4.4,-1.7,1.75,52.78,1.9497,393.1334],
    [22436,1537400986,53.7833,-109.972,1681.0,1023.4,180.5,4.4,-1.3,1.89,52.09,1.9496,392.4405],
    [22437,1537400987,53.7825,-109.972,1678.4,1017.7,180.6,4.4,-1.0,2.53,51.25,1.9496,393.7496],
    [22438,1537400988,53.7817,-109.9719,1676.0,1013.6,180.7,4.4,-1.3,2.24,51.73,1.9478,393.7218],
    [22439,1537400989,53.781,-109.9719,1673.8,1008.2,180.8,4.3,-1.6,2.04,51.38,1.947,392.0063],
    [22440,1537400990,53.7802,-109.9718,1671.7,1009.4,180.8,4.3,-1.4,1.95,51.05,1.9475,392.8646],
    [22441,1537400991,53.7794,-109.9718,1669.2,1012.2,181.0,4.5,-1.1,2.22,50.46,1.9492,392.9955],
    [22442,1537400992,53.7786,-109.9718,1666.4,1007.4,181.1,4.5,-1.1,2.26,50.61,1.9511,393.3121],
    [22443,1537400993,53.7778,-109.9717,1663.8,1007.0,181.2,4.5,-1.2,2.47,49.54,1.9501,393.1361],
    [22444,1537400994,53.7771,-109.9717,1661.5,1000.5,180.9,4.1,-0.7,2.24,49.68,1.9513,392.8959],
    [22445,1537400995,53.7763,-109.9716,1659.3,998.3,180.9,4.0,-0.7,2.29,49.66,1.9521,393.0216],
    [22446,1537400996,53.7755,-109.9716,1657.0,1000.0,180.7,3.7,-0.7,2.44,50.26,1.9556,393.3689],
    [22447,1537400997,53.7747,-109.9715,1654.6,997.6,181.2,4.3,-0.6,2.39,49.49,1.955,392.8512],
    [22448,1537400998,53.774,-109.9715,1651.9,988.6,181.5,4.7,-0.3,2.07,49.62,1.9538,392.9451],
    [22449,1537400999,53.7732,-109.9715,1649.3,986.3,181.3,4.4,-0.4,2.2,50.09,1.9545,392.9707],
    [22450,1537401000,53.7724,-109.9714,1646.8,982.8,181.7,5.1,-0.2,3.02,49.31,1.9529,392.951],
    [22451,1537401001,53.7716,-109.9714,1644.1,980.2,181.6,5.1,-0.3,2.61,49.57,1.9519,393.7821],
    [22452,1537401002,53.7709,-109.9714,1641.0,976.0,181.7,5.3,-0.8,2.38,49.96,1.9513,392.757],
    [22453,1537401003,53.7701,-109.9713,1638.0,973.0,180.9,4.6,-0.9,2.19,49.6,1.9536,391.9762],
    [22454,1537401004,53.7693,-109.9713,1635.5,969.5,180.9,4.6,-1.4,2.54,49.17,1.9509,391.9762],
    [22455,1537401005,53.7685,-109.9712,1633.4,967.4,180.7,4.4,-1.3,2.2,49.38,1.9523,394.1696],
    [22456,1537401006,53.7678,-109.9712,1631.2,966.2,180.8,4.6,-1.1,2.97,48.99,1.9509,394.1931],
    [22457,1537401007,53.767,-109.9711,1628.8,963.8,181.1,5.1,-1.2,2.4,48.95,1.9503,393.7716],
    [22458,1537401008,53.7662,-109.9711,1626.2,960.2,181.2,5.1,-1.4,2.05,48.58,1.9485,393.7716],
    [22459,1537401009,53.7654,-109.971,1623.5,957.5,181.1,5.0,-1.4,2.33,48.75,1.9494,393.6944],
    [22460,1537401010,53.7647,-109.971,1621.0,955.0,181.2,5.1,-1.4,2.63,48.26,1.9455,393.7695],
    [22461,1537401011,53.7639,-109.9709,1618.3,952.3,181.0,4.9,-1.5,2.11,47.55,1.9453,393.1836],
    [22462,1537401012,53.7631,-109.9709,1615.5,949.5,181.3,5.3,-1.5,2.62,47.05,1.9468,394.7563],
    [22463,1537401013,53.7623,-109.9708,1612.5,946.8,181.3,5.3,-1.6,2.96,46.59,1.947,394.6296],
    [22464,1537401014,53.7615,-109.9708,1610.0,944.3,181.5,5.6,-1.6,3.06,46.49,1.9476,393.8944],
    [22465,1537401015,53.7608,-109.9707,1608.0,942.3,181.5,5.8,-1.1,2.4,46.41,1.9504,393.1676],
    [22466,1537401016,53.76,-109.9706,1606.0,940.0,181.5,5.9,-0.9,2.83,45.92,1.9527,393.1334],
    [22467,1537401017,53.7592,-109.9706,1603.6,937.6,181.8,6.4,-0.5,2.83,45.66,1.957,393.8356],
    [22468,1537401018,53.7584,-109.9705,1601.0,935.0,181.8,6.6,-0.5,3.22,45.44,1.9587,393.3744],
    [22469,1537401019,53.7576,-109.9705,1598.5,931.4,181.6,6.4,-0.6,2.84,46.71,1.9571,394.0891],
    [22470,1537401020,53.7568,-109.9704,1596.1,929.1,181.3,6.2,-0.4,2.81,46.41,1.9581,392.1251],
    [22471,1537401021,53.7561,-109.9703,1593.8,926.8,181.3,6.4,-0.2,2.54,46.41,1.9637,392.7948],
    [22472,1537401022,53.7553,-109.9703,1591.4,924.7,181.6,6.8,-0.1,2.77,46.87,1.9658,394.9444],
    [22473,1537401023,53.7545,-109.9702,1589.1,923.2,181.1,6.2,0.2,3.36,47.21,1.9634,393.1854],
    [22474,1537401024,53.7537,-109.9701,1586.5,921.6,181.1,6.3,0.2,3.01,47.3,1.9669,394.4016],
    [22475,1537401025,53.753,-109.9701,1584.0,920.0,181.3,6.7,0.4,2.94,47.99,1.9665,395.1282],
    [22476,1537401026,53.7522,-109.97,1581.6,919.6,181.4,6.8,0.3,2.44,48.13,1.9668,392.5859],
    [22477,1537401027,53.7514,-109.9699,1579.2,918.0,181.2,6.4,0.3,2.98,48.97,1.9678,392.2648],
    [22478,1537401028,53.7506,-109.9699,1576.4,916.8,181.0,6.1,0.4,3.06,48.76,1.9664,394.0363],
    [22479,1537401029,53.7499,-109.9698,1573.6,915.5,181.1,6.5,0.3,3.83,48.77,1.9634,392.5368],
    [22480,1537401030,53.7491,-109.9697,1570.6,914.3,181.1,6.5,0.5,3.24,49.53,1.9643,393.4245],
    [22481,1537401031,53.7483,-109.9696,1568.0,914.1,181.2,6.7,0.3,3.14,49.53,1.964,392.5938],
    [22482,1537401032,53.7475,-109.9696,1565.4,911.5,181.3,6.7,0.4,3.06,49.45,1.9664,392.1931],
    [22483,1537401033,53.7467,-109.9695,1562.9,910.0,181.1,6.5,0.7,3.52,49.6,1.9651,392.9554],
    [22484,1537401034,53.746,-109.9694,1560.5,908.5,181.1,6.7,0.6,3.1,50.24,1.9657,393.0319],
    [22485,1537401035,53.7452,-109.9693,1558.2,906.3,181.1,6.7,0.6,2.78,49.48,1.9639,393.0319],
    [22486,1537401036,53.7444,-109.9693,1555.7,904.7,181.1,6.6,0.6,3.28,49.54,1.9645,393.286],
    [22487,1537401037,53.7436,-109.9692,1553.2,902.2,181.0,6.3,0.6,3.64,49.44,1.9659,392.4828],
    [22488,1537401038,53.7428,-109.9691,1550.9,900.2,180.9,6.2,0.6,3.0,49.74,1.9634,392.5649],
    [22489,1537401039,53.7421,-109.969,1548.6,898.6,181.1,6.5,0.6,3.36,49.52,1.9624,392.7429],
    [22490,1537401040,53.7413,-109.969,1546.2,896.2,181.2,6.7,0.6,3.24,49.92,1.9635,393.7873],
    [22491,1537401041,53.7405,-109.9689,1543.7,893.7,181.2,6.5,0.4,3.78,49.53,1.9639,392.2734],
    [22492,1537401042,53.7397,-109.9688,1541.4,891.4,181.0,6.3,0.1,2.87,49.48,1.9627,393.5076],
    [22493,1537401043,53.739,-109.9688,1539.1,889.1,181.0,6.3,0.3,3.23,50.03,1.9625,392.6219],
    [22494,1537401044,53.7382,-109.9687,1536.4,886.4,181.0,6.3,0.5,4.06,48.82,1.9629,392.7977],
    [22495,1537401045,53.7374,-109.9686,1533.8,883.9,180.8,6.0,0.5,3.32,49.6,1.9606,393.7875],
    [22496,1537401046,53.7366,-109.9685,1531.3,880.0,180.9,6.2,0.6,3.65,48.84,1.9596,392.6273],
    [22497,1537401047,53.7358,-109.9685,1529.4,877.3,180.9,6.1,0.6,3.92,49.01,1.9607,392.58],
    [22498,1537401048,53.735,-109.9684,1528.1,875.0,181.1,6.3,0.3,3.46,49.49,1.9584,394.2046],
    [22499,1537401049,53.7343,-109.9683,1527.2,874.3,180.9,5.9,0.4,3.47,49.18,1.9578,392.8075],
    [22500,1537401050,53.7335,-109.9683,1526.3,875.7,180.8,5.7,0.6,3.15,48.67,1.9593,393.4577],
    [22501,1537401051,53.7327,-109.9682,1526.0,880.2,180.8,5.7,0.7,2.96,48.37,1.9603,393.0776],
    [22502,1537401052,53.732,-109.9681,1525.7,882.4,180.9,5.8,0.9,3.55,48.87,1.9608,393.2427],
    [22503,1537401053,53.7312,-109.9681,1525.7,886.7,180.7,5.6,1.0,2.94,48.29,1.9616,393.6414],
    [22504,1537401054,53.7304,-109.968,1526.2,890.2,181.1,6.0,0.5,3.61,48.64,1.9576,393.5841],
    [22505,1537401055,53.7297,-109.9679,1526.3,887.3,181.2,6.1,0.3,3.62,48.27,1.9578,393.5926],
    [22506,1537401056,53.7289,-109.9679,1525.7,885.4,181.0,5.9,0.6,3.44,48.8,1.9579,393.4355],
    [22507,1537401057,53.7281,-109.9678,1525.4,883.2,181.4,6.2,0.9,3.52,48.15,1.9595,393.221],
    [22508,1537401058,53.7274,-109.9677,1525.3,872.7,181.3,5.9,0.8,3.57,47.84,1.9599,393.2584],
    [22509,1537401059,53.7266,-109.9677,1525.6,869.2,181.2,5.7,0.8,3.55,47.52,1.9604,393.1537],
    [22510,1537401060,53.7259,-109.9676,1526.0,869.6,181.1,5.4,1.0,3.96,47.65,1.9594,391.3801],
    [22511,1537401061,53.7251,-109.9676,1526.3,868.9,180.9,5.1,1.0,3.6,47.96,1.9583,393.4774],
    [22512,1537401062,53.7244,-109.9675,1526.5,868.7,181.0,5.2,1.2,3.48,48.06,1.959,393.0417],
    [22513,1537401063,53.7236,-109.9674,1526.4,868.7,180.9,5.0,1.4,3.68,48.18,1.9588,392.6469],
    [22514,1537401064,53.7229,-109.9674,1526.1,868.4,181.0,5.3,1.2,3.32,47.88,1.9582,393.0663],
    [22515,1537401065,53.7221,-109.9673,1525.9,875.2,181.1,5.4,0.7,3.53,47.83,1.9577,392.4843],
    [22516,1537401066,53.7214,-109.9673,1525.8,881.1,181.0,5.3,1.0,3.94,47.39,1.9583,392.4687],
    [22517,1537401067,53.7206,-109.9672,1525.7,873.9,181.1,5.3,1.5,4.34,48.2,1.9592,393.3345],
    [22518,1537401068,53.7199,-109.9672,1525.6,879.1,181.2,5.5,1.4,3.68,48.35,1.9585,391.8283],
    [22519,1537401069,53.7192,-109.9671,1525.7,896.3,181.3,5.5,1.3,3.79,48.62,1.9579,391.8283],
    [22520,1537401070,53.7184,-109.967,1525.6,904.6,181.1,5.3,1.2,3.77,48.58,1.9592,393.2525],
    [22521,1537401071,53.7177,-109.967,1525.7,914.5,181.5,5.8,1.4,3.92,48.2,1.9599,394.2341],
    [22522,1537401072,53.7169,-109.9669,1526.0,919.0,181.5,5.9,1.6,3.19,48.27,1.9606,394.3074],
    [22523,1537401073,53.7162,-109.9669,1525.8,919.9,181.8,6.2,1.8,3.89,48.16,1.9582,393.5195],
    [22524,1537401074,53.7155,-109.9668,1525.6,919.6,181.5,6.0,1.5,3.2,48.46,1.9586,392.2888],
    [22525,1537401075,53.7147,-109.9668,1525.1,919.3,181.7,6.3,1.2,3.89,48.07,1.9581,393.3709],
    [22526,1537401076,53.714,-109.9667,1524.9,920.1,181.6,6.4,1.7,3.79,48.54,1.9581,393.6778],
    [22527,1537401077,53.7133,-109.9666,1525.0,921.7,181.6,6.4,1.9,3.13,48.65,1.9587,393.7956],
    [22528,1537401078,53.7126,-109.9666,1525.5,922.5,181.3,6.2,1.8,3.87,48.9,1.9586,393.0569],
    [22529,1537401079,53.7118,-109.9665,1526.0,924.1,181.0,5.8,1.7,3.69,49.75,1.9597,393.0135],
    [22530,1537401080,53.7111,-109.9664,1526.1,924.1,180.8,5.7,1.8,4.22,48.85,1.9585,393.0135],
    [22531,1537401081,53.7104,-109.9664,1526.1,925.1,180.8,5.5,1.7,3.13,49.14,1.9625,392.4697],
    [22532,1537401082,53.7097,-109.9663,1526.4,925.4,180.7,5.4,1.8,3.8,49.3,1.9594,392.4109],
    [22533,1537401083,53.7089,-109.9662,1526.3,926.3,181.0,5.6,1.8,3.66,49.92,1.9578,391.3665],
    [22534,1537401084,53.7082,-109.9662,1526.0,927.0,181.2,5.9,1.9,3.51,49.57,1.9577,391.7627],
    [22535,1537401085,53.7075,-109.9661,1525.5,927.5,181.7,6.4,1.4,4.01,49.23,1.957,391.2991],
    [22536,1537401086,53.7068,-109.9661,1525.0,927.2,181.5,6.0,0.7,3.74,49.85,1.9587,392.8659],
    [22537,1537401087,53.7061,-109.966,1524.8,928.9,180.9,5.3,1.0,3.51,50.17,1.9586,391.2477],
    [22538,1537401088,53.7053,-109.9659,1524.8,928.9,181.2,5.6,0.7,3.65,49.76,1.9586,391.7993],
    [22539,1537401089,53.7046,-109.9659,1524.6,926.6,181.2,5.7,1.3,3.47,49.74,1.9562,393.0082],
    [22540,1537401090,53.7039,-109.9658,1524.5,926.6,181.8,6.3,1.4,3.79,49.92,1.9576,392.858],
    [22541,1537401091,53.7032,-109.9658,1524.5,925.3,181.4,5.7,1.5,3.8,49.97,1.9564,392.3072],
    [22542,1537401092,53.7025,-109.9657,1524.9,924.0,181.3,5.5,1.3,3.64,49.9,1.9569,392.6067],
    [22543,1537401093,53.7017,-109.9657,1525.3,924.2,181.2,5.4,1.3,3.99,50.32,1.9573,391.9351],
    [22544,1537401094,53.701,-109.9656,1525.5,923.2,181.2,5.1,1.1,3.92,49.99,1.9575,392.9744],
    [22545,1537401095,53.7003,-109.9656,1525.6,922.6,180.9,4.8,1.0,3.52,50.05,1.9568,392.9744],
    [22546,1537401096,53.6996,-109.9655,1525.5,922.5,181.2,5.1,1.3,3.7,49.74,1.9563,392.3942],
    [22547,1537401097,53.6989,-109.9654,1525.5,921.1,181.1,4.9,1.4,4.19,49.24,1.9567,392.5368],
    [22548,1537401098,53.6982,-109.9654,1525.9,919.9,181.1,4.9,1.6,3.86,50.37,1.9567,392.3701],
    [22549,1537401099,53.6975,-109.9653,1525.5,917.5,181.6,5.6,1.6,3.42,49.94,1.9563,391.2966],
    [22550,1537401100,53.6968,-109.9653,1525.3,916.2,181.6,5.7,1.5,3.57,49.88,1.9565,393.1084],
    [22551,1537401101,53.6961,-109.9652,1525.6,916.5,181.7,5.7,1.5,4.14,49.49,1.9564,393.799],
    [22552,1537401102,53.6953,-109.9652,1526.0,917.0,181.6,5.8,1.9,3.78,49.7,1.9555,392.785],
    [22553,1537401103,53.6946,-109.9651,1525.6,916.6,182.2,6.5,2.1,3.85,49.51,1.956,392.8926],
    [22554,1537401104,53.6939,-109.9651,1525.0,915.2,181.3,5.6,2.4,3.52,49.59,1.9571,392.3086],
    [22555,1537401105,53.6932,-109.965,1525.1,913.2,180.6,5.1,2.5,3.36,49.99,1.957,392.3086],
    [22556,1537401106,53.6925,-109.965,1524.9,912.6,180.8,5.6,2.3,3.91,49.31,1.9582,392.8423],
    [22557,1537401107,53.6918,-109.9649,1524.6,910.5,180.5,5.0,1.9,3.88,49.92,1.9592,393.5151],
    [22558,1537401108,53.6911,-109.9648,1524.2,909.1,179.9,3.9,1.7,3.8,50.05,1.9608,392.6665],
    [22559,1537401109,53.6904,-109.9648,1524.4,908.4,181.4,4.8,1.8,3.59,49.53,1.9589,393.7628],
    [22560,1537401110,53.6897,-109.9647,1525.3,908.3,181.9,4.6,1.7,3.63,49.64,1.9584,393.0336],
    [22561,1537401111,53.689,-109.9647,1525.9,908.9,182.6,4.6,1.4,3.35,49.67,1.9584,393.0733],
    [22562,1537401112,53.6883,-109.9647,1525.9,907.9,182.8,4.2,0.9,3.69,50.08,1.9579,392.0965],
    [22563,1537401113,53.6876,-109.9647,1526.0,908.0,182.7,3.8,0.9,3.61,50.77,1.9598,393.0274],
    [22564,1537401114,53.6869,-109.9647,1526.3,908.2,182.9,3.7,0.8,3.83,50.22,1.9576,393.0274],
    [22565,1537401115,53.6862,-109.9647,1526.3,911.3,183.2,3.8,0.2,3.81,50.28,1.9582,394.4118],
    [22566,1537401116,53.6855,-109.9647,1526.2,911.2,183.3,3.6,0.0,3.79,50.28,1.959,392.8534],
    [22567,1537401117,53.6848,-109.9647,1526.1,909.1,183.5,3.8,-0.1,3.9,50.79,1.9595,391.9822],
    [22568,1537401118,53.6841,-109.9648,1525.9,909.0,184.1,4.5,-0.1,3.35,50.58,1.9595,393.4585],
    [22569,1537401119,53.6834,-109.9648,1525.4,909.4,184.0,4.1,0.8,3.57,50.75,1.9564,392.8212],
    [22570,1537401120,53.6826,-109.9648,1524.7,909.8,184.2,4.7,1.5,3.71,51.03,1.9558,391.6161],
    [22571,1537401121,53.6819,-109.9648,1524.3,910.3,184.2,4.4,0.9,3.28,50.85,1.9558,392.3744],
    [22572,1537401122,53.6812,-109.9648,1524.2,910.2,184.0,4.4,0.4,3.35,50.9,1.9569,392.0193],
    [22573,1537401123,53.6805,-109.9649,1523.8,910.8,184.7,5.2,0.2,3.43,50.82,1.9573,393.0918],
    [22574,1537401124,53.6799,-109.9649,1523.5,911.3,185.0,5.5,0.0,3.97,51.45,1.9575,392.137],
    [22575,1537401125,53.6791,-109.9649,1523.8,912.6,184.6,5.0,0.2,3.96,50.57,1.9552,391.6882],
    [22576,1537401126,53.6784,-109.9649,1524.3,913.6,184.2,4.8,0.3,4.45,50.56,1.9553,392.461],
    [22577,1537401127,53.6777,-109.9649,1524.4,914.5,184.1,5.0,0.3,3.59,51.07,1.9556,392.6714],
    [22578,1537401128,53.677,-109.9649,1524.3,915.3,184.2,5.2,0.2,3.78,50.49,1.955,391.6107],
    [22579,1537401129,53.6763,-109.9649,1524.1,915.4,184.3,5.3,-0.3,3.82,50.89,1.9545,392.8436],
    [22580,1537401130,53.6756,-109.965,1524.7,916.6,184.0,5.0,0.1,4.18,50.75,1.9552,393.0165],
    [22581,1537401131,53.6749,-109.965,1524.9,917.8,184.1,5.2,0.1,3.49,51.07,1.9565,392.5571],
    [22582,1537401132,53.6742,-109.965,1525.4,919.5,183.8,4.9,0.1,3.43,50.75,1.9554,392.4709],
    [22583,1537401133,53.6735,-109.965,1525.7,918.8,184.1,5.4,-0.2,3.68,50.51,1.9541,392.831],
    [22584,1537401134,53.6728,-109.965,1525.4,917.4,184.0,5.3,0.0,3.56,50.28,1.9538,392.8921],
    [22585,1537401135,53.6721,-109.965,1524.6,916.5,184.1,5.5,0.3,3.67,50.23,1.954,392.8921],
    [22586,1537401136,53.6714,-109.965,1524.5,922.5,184.3,5.8,0.1,3.34,49.98,1.9536,394.7143],
    [22587,1537401137,53.6707,-109.965,1524.9,924.6,184.0,5.6,0.0,3.87,49.67,1.9543,391.5643],
    [22588,1537401138,53.67,-109.965,1525.0,925.9,183.9,5.4,0.0,3.72,49.87,1.9537,393.1748],
    [22589,1537401139,53.6693,-109.965,1524.6,926.9,183.7,5.3,0.0,3.58,50.03,1.9539,393.1572],
    [22590,1537401140,53.6686,-109.965,1524.2,926.1,183.7,5.3,-0.1,3.93,49.71,1.9541,392.7765],
    [22591,1537401141,53.6679,-109.965,1524.0,926.0,183.8,5.5,-0.1,3.7,49.88,1.9521,393.3821],
    [22592,1537401142,53.6672,-109.965,1523.9,924.9,183.8,5.3,-0.2,4.07,49.64,1.9529,393.0925],
    [22593,1537401143,53.6665,-109.965,1523.8,924.7,184.0,5.7,-0.4,4.18,49.49,1.9521,390.7565],
    [22594,1537401144,53.6658,-109.965,1523.7,925.6,184.0,5.6,-0.5,4.21,49.22,1.9528,390.4121],
    [22595,1537401145,53.6651,-109.965,1523.8,926.7,183.9,5.5,-0.3,4.35,48.93,1.9535,393.3075],
    [22596,1537401146,53.6644,-109.9649,1524.1,928.6,183.9,5.6,-0.3,3.76,50.14,1.9531,393.5383],
    [22597,1537401147,53.6637,-109.9649,1524.3,929.6,183.9,5.6,-0.6,3.84,49.89,1.9539,394.1461],
    [22598,1537401148,53.663,-109.9649,1524.5,930.5,183.8,5.5,-0.8,3.84,49.82,1.9535,392.7886],
    [22599,1537401149,53.6623,-109.9649,1524.9,931.0,183.6,5.3,-0.9,4.22,49.42,1.954,392.2167],
    [22600,1537401150,53.6616,-109.9649,1525.4,933.2,183.8,5.6,-1.0,3.43,49.77,1.955,392.2167],
    [22601,1537401151,53.6609,-109.9649,1525.3,933.9,184.1,5.8,-1.2,3.55,49.58,1.9533,393.4436],
    [22602,1537401152,53.6603,-109.9649,1525.2,935.3,184.1,5.8,-1.2,3.56,49.38,1.9541,390.3776],
    [22603,1537401153,53.6595,-109.9649,1525.5,935.8,184.5,6.2,-1.3,3.54,49.4,1.954,392.8543],
    [22604,1537401154,53.6588,-109.9649,1525.6,938.6,184.3,6.0,-1.2,3.81,49.82,1.9533,392.5725],
    [22605,1537401155,53.6581,-109.9649,1525.4,938.4,184.2,6.0,-1.2,3.04,49.18,1.9519,393.0964],
    [22606,1537401156,53.6574,-109.9649,1525.4,937.5,184.0,5.9,-1.4,4.28,48.7,1.9515,393.2175],
    [22607,1537401157,53.6567,-109.9649,1525.4,937.4,184.0,5.9,-1.6,3.75,49.0,1.9506,392.1888],
    [22608,1537401158,53.656,-109.9649,1525.3,938.2,184.0,5.9,-1.6,4.5,48.37,1.9505,391.9755],
    [22609,1537401159,53.6554,-109.9649,1525.1,938.4,184.0,5.9,-1.5,4.05,48.76,1.9518,391.7786],
    [22610,1537401160,53.6546,-109.9649,1525.0,939.0,183.9,5.8,-1.6,3.81,48.79,1.9517,392.0242],
    [22611,1537401161,53.654,-109.9648,1525.1,939.3,184.1,5.9,-1.6,3.62,48.62,1.9521,394.2319],
    [22612,1537401162,53.6532,-109.9648,1525.1,940.2,183.9,5.7,-1.7,3.22,48.57,1.9519,392.1148],
    [22613,1537401163,53.6525,-109.9648,1525.2,940.3,183.9,5.7,-1.7,4.09,48.03,1.9526,393.8458],
    [22614,1537401164,53.6518,-109.9648,1525.2,941.2,183.8,5.6,-1.5,3.17,48.48,1.9523,391.5612],
    [22615,1537401165,53.6511,-109.9648,1525.2,941.2,183.9,5.6,-1.5,3.18,48.39,1.9539,391.154],
    [22616,1537401166,53.6505,-109.9648,1525.3,942.3,183.9,5.5,-1.3,4.44,47.89,1.9543,393.9798],
    [22617,1537401167,53.6497,-109.9648,1525.5,942.5,184.2,5.7,-1.4,3.93,48.47,1.953,392.4655],
    [22618,1537401168,53.649,-109.9648,1525.5,942.5,184.0,5.6,-1.5,3.81,48.29,1.9539,392.5419],
    [22619,1537401169,53.6483,-109.9648,1525.4,942.7,184.2,5.7,-1.6,3.65,48.35,1.9535,393.0741],
    [22620,1537401170,53.6476,-109.9648,1525.4,942.8,184.0,5.5,-1.4,4.43,47.89,1.954,393.0702],
    [22621,1537401171,53.6469,-109.9648,1525.7,942.7,184.1,5.7,-1.5,3.75,48.44,1.9515,393.3596],
    [22622,1537401172,53.6462,-109.9648,1525.9,943.2,184.2,5.8,-1.7,4.47,47.72,1.9521,394.1525],
    [22623,1537401173,53.6455,-109.9648,1525.9,944.9,184.3,5.8,-1.8,4.64,47.81,1.9496,393.4657],
    [22624,1537401174,53.6448,-109.9648,1526.0,947.3,184.4,5.9,-1.9,4.35,47.99,1.9492,393.0744],
    [22625,1537401175,53.6441,-109.9648,1525.9,956.1,184.7,6.1,-1.9,3.27,47.96,1.9478,392.2817],
    [22626,1537401176,53.6434,-109.9648,1525.6,961.3,184.6,6.0,-1.8,3.63,47.75,1.9471,392.2095],
    [22627,1537401177,53.6427,-109.9648,1525.6,965.7,184.1,5.4,-1.5,3.53,47.77,1.9476,392.0715],
    [22628,1537401178,53.642,-109.9648,1525.7,965.7,184.2,5.9,-1.4,3.77,47.17,1.9447,392.4075],
    [22629,1537401179,53.6413,-109.9648,1525.8,969.8,184.3,6.0,-1.5,3.57,47.17,1.9453,393.4114],
    [22630,1537401180,53.6406,-109.9648,1525.8,969.8,184.4,6.3,-1.4,3.67,46.49,1.948,392.1078],
    [22631,1537401181,53.6399,-109.9648,1525.5,969.5,184.9,6.9,-1.2,3.77,46.74,1.9503,393.2582],
    [22632,1537401182,53.6392,-109.9648,1525.5,969.5,184.4,6.2,-1.0,3.68,45.57,1.9503,391.6037],
    [22633,1537401183,53.6385,-109.9648,1526.0,970.0,183.8,5.5,-0.8,3.75,45.64,1.9511,392.9276],
    [22634,1537401184,53.6378,-109.9648,1526.3,970.3,184.1,5.9,-0.6,3.78,45.8,1.956,391.9871],
    [22635,1537401185,53.6371,-109.9648,1526.0,970.0,184.2,6.0,-0.5,3.66,46.09,1.9567,393.0627],
    [22636,1537401186,53.6364,-109.9648,1525.9,964.2,184.1,6.0,-0.4,3.92,46.68,1.9586,393.0627],
    [22637,1537401187,53.6357,-109.9648,1526.0,960.7,184.5,6.4,-0.7,3.26,46.84,1.9566,389.6019],
    [22638,1537401188,53.6349,-109.9648,1526.2,956.7,184.3,6.1,-0.7,4.05,46.37,1.9568,390.7492],
    [22639,1537401189,53.6342,-109.9647,1526.3,952.9,184.1,5.8,-0.7,4.29,47.0,1.9566,393.6175],
    [22640,1537401190,53.6335,-109.9647,1526.3,947.9,183.8,5.5,-0.6,3.89,47.85,1.9576,393.3564],
    [22641,1537401191,53.6328,-109.9647,1526.1,946.1,184.0,5.7,-0.6,3.78,48.12,1.9563,393.2775],
    [22642,1537401192,53.6321,-109.9647,1526.1,945.1,184.1,5.7,-0.5,4.28,47.11,1.9577,393.4434],
    [22643,1537401193,53.6314,-109.9647,1526.2,945.2,184.1,5.6,-0.6,3.74,48.12,1.9571,393.5005],
    [22644,1537401194,53.6307,-109.9647,1526.2,945.2,184.2,5.3,-0.8,4.54,47.55,1.9578,394.6123],
    [22645,1537401195,53.63,-109.9648,1526.2,945.2,184.5,4.7,-0.8,3.62,47.7,1.9584,394.1139],
    [22646,1537401196,53.6293,-109.9648,1526.0,945.0,185.5,4.7,-1.0,4.26,48.03,1.9588,392.952],
    [22647,1537401197,53.6286,-109.9648,1525.6,944.9,187.2,4.7,-0.4,3.65,49.04,1.9597,393.676],
    [22648,1537401198,53.6279,-109.9649,1525.7,945.7,188.5,4.3,0.1,4.07,48.24,1.9592,393.0773],
    [22649,1537401199,53.6272,-109.9651,1526.1,947.1,190.0,3.9,-0.5,3.1,48.67,1.9598,392.5157],
    [22650,1537401200,53.6265,-109.9652,1526.0,948.1,191.4,4.1,-0.5,4.45,48.58,1.9601,393.7845],
    [22651,1537401201,53.6258,-109.9654,1525.4,949.1,193.8,5.2,-1.2,3.79,49.29,1.9597,392.2721],
    [22652,1537401202,53.6251,-109.9656,1525.9,949.9,194.2,4.1,-1.1,4.57,48.82,1.9576,394.0808],
    [22653,1537401203,53.6244,-109.9659,1526.5,948.7,194.7,4.2,-0.7,4.0,49.34,1.9594,393.6992],
    [22654,1537401204,53.6237,-109.9661,1526.4,947.4,195.2,4.4,-0.2,3.97,49.37,1.9607,391.7852],
    [22655,1537401205,53.623,-109.9664,1526.7,946.7,195.1,3.9,-0.1,3.88,49.41,1.9621,391.7757],
    [22656,1537401206,53.6223,-109.9666,1527.8,947.8,194.8,3.4,0.1,3.44,49.61,1.9626,392.559],
    [22657,1537401207,53.6217,-109.9669,1529.2,949.2,194.9,3.3,0.4,3.82,50.01,1.9615,392.677],
    [22658,1537401208,53.621,-109.9671,1529.6,950.6,195.1,3.4,0.5,3.69,50.26,1.9625,393.9913],
    [22659,1537401209,53.6203,-109.9674,1529.2,950.2,195.1,3.4,0.4,3.92,50.02,1.9614,392.6277],
    [22660,1537401210,53.6196,-109.9677,1528.4,950.4,194.6,2.9,0.2,4.33,50.52,1.9623,392.9401],
    [22661,1537401211,53.6189,-109.9679,1527.7,950.6,194.6,3.1,-0.5,4.62,50.35,1.9617,393.4405],
    [22662,1537401212,53.6182,-109.9682,1527.0,952.0,194.6,3.1,-0.7,4.12,51.09,1.961,392.8875],
    [22663,1537401213,53.6175,-109.9684,1526.6,953.4,194.3,2.8,-1.0,3.97,51.63,1.9627,393.8089],
    [22664,1537401214,53.6168,-109.9687,1525.9,955.0,193.9,2.4,-0.9,4.16,51.32,1.9615,393.8312],
    [22665,1537401215,53.6161,-109.9689,1525.2,955.2,193.8,2.5,-0.8,4.01,51.56,1.9606,397.2976],
    [22666,1537401216,53.6154,-109.9692,1524.9,957.9,193.9,2.9,-0.6,3.95,51.39,1.9589,392.4218],
    [22667,1537401217,53.6147,-109.9694,1524.7,958.7,194.7,4.2,-1.1,3.76,50.78,1.9604,393.3372],
    [22668,1537401218,53.614,-109.9696,1524.3,960.2,194.8,4.4,-1.5,3.67,51.34,1.9595,392.47],
    [22669,1537401219,53.6133,-109.9699,1524.3,961.6,194.9,4.8,-1.7,3.72,51.29,1.9589,392.7431],
    [22670,1537401220,53.6126,-109.9701,1524.7,965.1,194.8,5.0,-1.6,3.37,51.67,1.9606,392.8278],
    [22671,1537401221,53.6119,-109.9703,1525.2,967.2,194.5,5.0,-1.4,3.67,51.22,1.9592,393.4975],
    [22672,1537401222,53.6113,-109.9705,1525.7,969.7,194.2,5.0,-1.2,4.2,50.56,1.9609,393.4249],
    [22673,1537401223,53.6106,-109.9708,1525.9,971.5,194.0,5.0,-1.3,3.84,51.08,1.9605,390.2818],
    [22674,1537401224,53.6099,-109.971,1525.6,973.5,193.9,5.2,-1.2,3.85,51.51,1.9611,392.6362],
    [22675,1537401225,53.6092,-109.9712,1525.6,976.3,193.5,4.8,-0.9,3.81,50.97,1.9607,392.5475],
    [22676,1537401226,53.6085,-109.9714,1525.8,977.8,192.9,4.2,-0.8,3.82,50.69,1.9594,391.9671],
    [22677,1537401227,53.6078,-109.9716,1525.8,979.8,192.8,4.2,-0.9,3.74,50.68,1.9595,393.2029],
    [22678,1537401228,53.6071,-109.9718,1525.6,980.6,193.0,4.4,-0.8,3.23,50.63,1.9603,391.5302],
    [22679,1537401229,53.6064,-109.972,1525.8,981.8,193.1,4.5,-0.6,3.81,51.25,1.961,390.1558],
    [22680,1537401230,53.6057,-109.9722,1526.4,983.3,192.9,4.1,-0.4,4.2,50.15,1.9597,392.0941],
    [22681,1537401231,53.605,-109.9724,1527.1,985.9,193.0,4.3,-0.6,4.27,50.05,1.9602,392.3478],
    [22682,1537401232,53.6043,-109.9726,1527.4,986.3,193.1,4.4,-0.6,4.22,49.95,1.9608,392.3478],
    [22683,1537401233,53.6036,-109.9728,1527.3,988.4,193.2,4.5,-0.6,3.56,50.83,1.9609,392.2973],
    [22684,1537401234,53.6029,-109.973,1527.0,988.0,193.2,4.4,-0.7,4.43,50.35,1.961,393.0978],
    [22685,1537401235,53.6022,-109.9732,1526.6,988.9,193.3,4.6,-0.6,3.77,50.6,1.9613,390.5198],
    [22686,1537401236,53.6015,-109.9734,1526.3,989.2,193.6,5.0,-0.6,3.44,50.62,1.9607,392.2577],
    [22687,1537401237,53.6008,-109.9736,1526.0,989.9,193.6,5.0,-0.4,3.11,50.81,1.9604,392.831],
    [22688,1537401238,53.6001,-109.9738,1526.0,991.0,193.8,5.3,-0.6,3.84,51.01,1.962,392.9489],
    [22689,1537401239,53.5994,-109.974,1526.1,991.4,193.5,5.1,-0.6,3.34,50.87,1.9622,393.36],
    [22690,1537401240,53.5987,-109.9742,1526.6,992.5,193.5,5.2,-0.7,4.21,51.17,1.9612,391.6743],
    [22691,1537401241,53.598,-109.9744,1527.0,1007.6,193.3,5.0,-0.7,3.55,51.05,1.9596,392.5374],
    [22692,1537401242,53.5973,-109.9746,1527.1,1019.8,193.3,5.1,-0.5,4.56,50.55,1.9595,392.5374],
    [22693,1537401243,53.5967,-109.9748,1527.2,1030.6,193.5,5.5,-0.4,3.55,51.05,1.9601,393.146],
    [22694,1537401244,53.596,-109.975,1527.2,1031.2,193.6,5.9,-0.6,3.9,51.01,1.9606,392.1973],
    [22695,1537401245,53.5953,-109.9752,1527.1,1031.1,192.9,5.4,-0.6,3.67,51.05,1.9592,392.2097],
    [22696,1537401246,53.5946,-109.9754,1526.9,1024.9,192.5,5.5,-0.8,4.18,50.44,1.9607,392.5898],
    [22697,1537401247,53.5939,-109.9755,1526.6,1023.6,192.4,5.8,-0.8,3.95,50.73,1.9594,392.4648],
    [22698,1537401248,53.5932,-109.9757,1526.3,1030.3,191.9,5.8,-0.7,4.56,50.52,1.9589,392.6338],
    [22699,1537401249,53.5925,-109.9759,1526.0,1030.0,191.8,6.0,-0.5,4.31,50.6,1.9586,392.6534],
    [22700,1537401250,53.5918,-109.976,1525.7,1029.7,191.9,6.3,-0.6,3.79,51.12,1.9557,393.9857],
    [22701,1537401251,53.5911,-109.9762,1525.8,1029.8,191.8,6.5,-0.7,3.37,51.05,1.9559,393.0675],
    [22702,1537401252,53.5904,-109.9763,1526.1,1026.1,191.6,6.2,-0.4,4.27,50.04,1.9584,391.2466],
    [22703,1537401253,53.5897,-109.9765,1526.3,1017.3,191.0,5.5,-0.2,4.75,50.21,1.9602,392.2057],
    [22704,1537401254,53.589,-109.9766,1526.5,1005.3,191.0,5.5,-0.2,3.58,51.08,1.9606,393.9035],
    [22705,1537401255,53.5883,-109.9767,1526.7,992.8,190.9,5.4,-0.1,3.49,50.42,1.9613,393.8112],
    [22706,1537401256,53.5876,-109.9769,1526.7,990.3,191.0,5.5,-0.1,3.41,50.66,1.962,393.845],
    [22707,1537401257,53.5869,-109.977,1526.5,985.2,191.1,5.6,0.0,3.77,51.31,1.9603,391.9428],
    [22708,1537401258,53.5862,-109.9772,1526.5,982.5,191.1,5.4,0.1,3.45,50.63,1.9616,391.6947],
    [22709,1537401259,53.5855,-109.9773,1526.5,978.5,191.0,5.2,-0.1,3.79,50.65,1.9627,393.4048],
    [22710,1537401260,53.5848,-109.9775,1526.5,975.6,191.0,5.2,-0.2,3.15,50.64,1.9625,393.2385],
    [22711,1537401261,53.5841,-109.9776,1526.4,966.1,191.4,5.6,-0.3,4.2,50.5,1.9624,392.5593],
    [22712,1537401262,53.5834,-109.9778,1526.1,961.7,191.5,5.7,-0.3,3.67,50.62,1.9605,392.0858],
    [22713,1537401263,53.5827,-109.9779,1525.7,957.4,191.5,5.6,-0.1,3.95,50.83,1.9596,392.2674],
    [22714,1537401264,53.582,-109.9781,1525.8,953.8,191.6,5.7,0.0,3.83,50.47,1.963,391.6132],
    [22715,1537401265,53.5813,-109.9782,1526.0,947.9,191.6,5.8,0.1,3.54,50.66,1.9638,393.5568],
    [22716,1537401266,53.5807,-109.9784,1526.3,941.6,191.3,5.5,0.1,3.79,50.72,1.9616,392.6729],
    [22717,1537401267,53.58,-109.9785,1526.5,931.2,191.2,5.2,0.0,3.97,51.06,1.9617,392.6729],
    [22718,1537401268,53.5793,-109.9787,1526.7,927.0,191.0,5.0,0.2,4.31,50.8,1.9634,393.2395],
    [22719,1537401269,53.5786,-109.9788,1526.7,922.7,191.3,5.2,-0.1,3.79,50.97,1.9627,391.3156],
    [22720,1537401270,53.5779,-109.979,1526.7,917.7,191.0,4.9,-0.1,3.47,51.32,1.9627,393.3294],
    [22721,1537401271,53.5772,-109.9791,1526.7,914.7,191.5,5.4,-0.2,4.73,50.68,1.9587,392.0778],
    [22722,1537401272,53.5765,-109.9793,1526.5,912.7,191.5,5.4,-0.1,4.01,50.83,1.9597,392.9224],
    [22723,1537401273,53.5758,-109.9794,1526.4,910.2,191.4,5.3,0.1,3.87,50.95,1.955,392.6979],
    [22724,1537401274,53.5751,-109.9796,1526.3,909.1,191.4,5.4,0.0,3.23,51.07,1.9572,391.6796],
    [22725,1537401275,53.5745,-109.9797,1526.2,907.3,191.6,5.7,-0.4,3.66,50.86,1.9576,390.9721],
    [22726,1537401276,53.5738,-109.9799,1526.2,904.2,191.7,5.8,-0.5,4.16,50.26,1.9558,392.0768],
    [22727,1537401277,53.5731,-109.98,1526.5,901.8,191.7,5.9,-0.2,4.12,49.99,1.9564,393.5575],
    [22728,1537401278,53.5724,-109.9802,1526.6,898.0,191.7,5.9,0.1,4.71,49.31,1.959,392.1046],
    [22729,1537401279,53.5717,-109.9803,1526.5,896.2,191.7,6.2,0.3,3.99,49.49,1.961,392.466],
    [22730,1537401280,53.571,-109.9805,1526.5,893.4,191.7,6.1,0.5,3.82,49.28,1.956,393.3582],
    [22731,1537401281,53.5703,-109.9806,1526.6,892.7,191.4,5.8,0.5,3.41,49.02,1.9557,393.0089],
    [22732,1537401282,53.5696,-109.9808,1526.7,889.0,191.7,6.3,0.5,3.54,49.02,1.9572,393.5221],
    [22733,1537401283,53.5689,-109.9809,1526.5,886.8,191.8,6.3,0.2,3.98,48.55,1.9583,393.0994],
    [22734,1537401284,53.5682,-109.9811,1526.5,885.6,191.6,6.1,0.1,3.95,49.1,1.9591,393.8018],
    [22735,1537401285,53.5676,-109.9812,1526.5,884.4,191.6,6.2,0.0,3.82,48.48,1.9572,393.3917],
    [22736,1537401286,53.5669,-109.9814,1526.4,883.5,191.7,6.4,-0.2,3.27,48.52,1.9587,392.1686],
    [22737,1537401287,53.5662,-109.9815,1526.3,882.3,191.3,6.0,0.0,3.31,48.52,1.9591,392.0247],
    [22738,1537401288,53.5655,-109.9816,1525.9,880.9,191.0,5.7,0.0,4.22,47.69,1.9557,394.0436],
    [22739,1537401289,53.5648,-109.9818,1525.5,880.5,191.0,5.7,-0.2,4.55,47.79,1.9578,394.0436],
    [22740,1537401290,53.5641,-109.9819,1525.6,882.2,190.7,5.1,-0.5,3.22,47.85,1.9584,394.236],
    [22741,1537401291,53.5634,-109.9821,1526.1,885.4,190.5,4.7,-0.8,3.81,47.48,1.9589,393.7199],
    [22742,1537401292,53.5627,-109.9822,1526.8,893.8,190.8,5.1,-0.7,3.93,47.7,1.9592,392.0373],
    [22743,1537401293,53.562,-109.9824,1527.0,900.0,191.3,5.5,-0.6,3.39,47.68,1.9597,392.8331],
    [22744,1537401294,53.5614,-109.9825,1526.7,910.3,191.3,5.5,-0.3,4.18,47.67,1.9626,392.8755],
    [22745,1537401295,53.5607,-109.9826,1526.6,916.2,191.5,5.7,-0.3,4.1,47.68,1.9636,392.7251],
    [22746,1537401296,53.56,-109.9828,1526.8,931.7,191.4,5.6,-0.1,3.31,48.31,1.9644,392.5902],
    [22747,1537401297,53.5593,-109.9829,1527.0,935.1,191.5,5.8,0.1,3.87,48.29,1.9586,394.1093],
    [22748,1537401298,53.5586,-109.9831,1526.9,935.9,191.4,5.6,0.1,4.21,48.28,1.9535,391.8649],
    [22749,1537401299,53.5579,-109.9832,1526.5,934.5,191.1,5.2,0.1,3.85,48.31,1.9512,392.7481],
    [22750,1537401300,53.5572,-109.9834,1526.3,934.5,191.3,5.5,0.1,3.6,48.49,1.9503,393.0149],
    [22751,1537401301,53.5565,-109.9835,1526.0,932.0,191.3,5.4,-0.1,3.38,48.12,1.9514,393.226],
    [22752,1537401302,53.5558,-109.9837,1525.8,933.4,191.4,5.4,-0.4,3.91,48.61,1.9521,392.4048],
    [22753,1537401303,53.5551,-109.9838,1526.0,936.7,191.6,5.4,-0.7,3.79,47.7,1.953,392.2381],
    [22754,1537401304,53.5545,-109.984,1526.5,940.5,191.4,5.3,-0.5,3.67,47.9,1.9531,393.2233],
    [22755,1537401305,53.5538,-109.9842,1526.4,942.1,191.7,5.6,-0.5,3.86,47.82,1.9536,393.2416],
    [22756,1537401306,53.5531,-109.9843,1526.0,940.5,191.2,5.1,-0.2,3.5,48.06,1.9541,393.4539],
    [22757,1537401307,53.5524,-109.9845,1525.8,938.8,191.4,5.5,-0.4,3.85,47.75,1.9543,392.0754],
    [22758,1537401308,53.5517,-109.9846,1526.1,938.0,191.5,5.6,-0.3,3.62,47.84,1.9557,393.232],
    [22759,1537401309,53.551,-109.9848,1526.7,937.2,191.1,5.0,-0.4,3.87,48.38,1.9551,393.3178],
    [22760,1537401310,53.5503,-109.9849,1526.9,936.6,191.0,4.8,-0.5,3.65,48.03,1.9527,391.5719],
    [22761,1537401311,53.5496,-109.9851,1526.6,933.9,191.0,4.8,-0.2,3.18,47.8,1.9531,393.2186],
    [22762,1537401312,53.5489,-109.9852,1526.4,932.5,191.2,5.1,-0.2,3.96,47.54,1.9522,392.0448],
    [22763,1537401313,53.5483,-109.9854,1526.4,930.3,191.2,4.9,-0.1,3.56,47.76,1.9501,392.5142],
    [22764,1537401314,53.5475,-109.9855,1526.6,932.7,191.1,4.8,0.0,4.32,47.54,1.9537,394.0692],
    [22765,1537401315,53.5469,-109.9857,1526.9,930.5,190.9,4.3,-0.3,3.87,48.68,1.9556,391.8808],
    [22766,1537401316,53.5462,-109.9858,1527.1,929.1,190.9,4.2,-0.5,3.81,48.12,1.9563,392.7339],
    [22767,1537401317,53.5455,-109.986,1526.8,926.1,191.2,4.4,-0.6,3.95,47.83,1.9585,393.1294],
    [22768,1537401318,53.5448,-109.9862,1526.4,923.6,191.3,4.6,-0.2,3.79,48.8,1.9469,393.1249],
    [22769,1537401319,53.5441,-109.9863,1526.7,922.0,191.7,5.0,-0.2,3.78,48.15,1.9456,387.7002],
    [22770,1537401320,53.5434,-109.9865,1527.0,920.7,192.0,5.3,-0.4,3.96,47.88,1.9459,394.0091],
    [22771,1537401321,53.5427,-109.9867,1526.8,917.7,191.9,5.0,-0.5,4.08,47.7,1.9438,393.2352],
    [22772,1537401322,53.542,-109.9868,1526.5,917.5,191.8,5.1,-0.3,3.53,47.99,1.9439,391.8616],
    [22773,1537401323,53.5413,-109.987,1526.7,916.7,191.3,4.6,-0.2,3.8,47.72,1.9465,392.975],
    [22774,1537401324,53.5406,-109.9871,1527.1,916.0,191.3,4.8,-0.3,3.98,47.32,1.9465,393.5934],
    [22775,1537401325,53.5399,-109.9873,1527.3,916.1,191.5,4.9,-0.3,3.59,47.38,1.9462,392.5137],
    [22776,1537401326,53.5392,-109.9875,1527.1,915.0,191.3,4.7,-0.5,3.8,47.27,1.9479,393.1528],
    [22777,1537401327,53.5385,-109.9876,1526.8,914.8,191.5,5.0,-0.5,3.73,47.16,1.9504,391.8186],
    [22778,1537401328,53.5378,-109.9878,1526.5,914.5,191.5,4.9,-0.4,4.13,46.79,1.9483,393.9909],
    [22779,1537401329,53.5372,-109.988,1526.4,915.4,191.3,4.5,-0.4,4.59,46.9,1.9481,391.5423],
    [22780,1537401330,53.5365,-109.9881,1526.5,915.5,191.1,4.3,-0.1,3.97,46.8,1.9511,393.9195],
    [22781,1537401331,53.5358,-109.9883,1526.3,915.2,191.4,4.8,0.0,4.42,46.94,1.9484,393.228],
    [22782,1537401332,53.5351,-109.9884,1526.3,916.4,191.4,4.8,-0.2,4.16,46.68,1.9468,392.7212],
    [22783,1537401333,53.5344,-109.9886,1526.3,917.5,191.4,4.7,-0.3,4.45,46.88,1.9494,392.7212],
    [22784,1537401334,53.5337,-109.9888,1526.3,917.3,191.2,4.3,-0.3,4.05,47.13,1.9515,392.7461],
    [22785,1537401335,53.533,-109.9889,1526.4,917.4,191.0,4.1,-0.5,3.92,47.51,1.9535,393.2393],
    [22786,1537401336,53.5323,-109.9891,1526.6,918.2,191.1,4.1,-0.4,3.45,47.59,1.9555,392.9468],
    [22787,1537401337,53.5316,-109.9893,1526.8,920.8,191.1,4.1,-0.1,3.72,47.34,1.9565,393.6488],
    [22788,1537401338,53.5309,-109.9894,1526.7,920.6,191.1,4.1,-0.2,3.82,47.42,1.9548,392.9488],
    [22789,1537401339,53.5302,-109.9896,1526.3,921.3,191.3,4.2,-0.2,4.56,46.88,1.9528,390.6967],
    [22790,1537401340,53.5295,-109.9898,1525.9,921.9,191.4,4.4,-0.4,3.89,47.07,1.9529,393.7339],
    [22791,1537401341,53.5288,-109.9899,1525.9,922.3,191.7,4.7,-0.5,3.19,47.53,1.9556,392.816],
    [22792,1537401342,53.5281,-109.9901,1526.4,923.3,191.9,5.0,-0.5,3.72,47.52,1.9605,392.8654],
    [22793,1537401343,53.5275,-109.9903,1526.9,924.8,191.8,4.8,0.0,3.24,47.75,1.9547,392.8654],
    [22794,1537401344,53.5267,-109.9904,1527.0,926.1,191.4,4.4,0.3,4.05,47.38,1.9491,394.3255],
    [22795,1537401345,53.5261,-109.9906,1526.8,927.1,191.5,4.7,0.3,4.0,47.74,1.949,393.0691],
    [22796,1537401346,53.5254,-109.9908,1526.5,927.9,191.6,4.8,0.4,4.4,47.57,1.9522,394.418],
    [22797,1537401347,53.5247,-109.9909,1526.7,929.7,191.4,4.5,0.5,4.02,48.2,1.9522,394.418],
    [22798,1537401348,53.524,-109.9911,1527.2,931.9,191.3,4.4,0.0,3.83,49.08,1.956,393.7248],
    [22799,1537401349,53.5233,-109.9913,1527.5,933.4,191.2,4.0,-0.4,3.41,48.28,1.9583,392.5385],
    [22800,1537401350,53.5226,-109.9914,1527.4,934.7,191.0,3.9,-0.6,3.71,48.64,1.9573,393.4919],
    [22801,1537401351,53.5219,-109.9916,1527.1,936.4,191.0,3.8,-0.7,3.99,48.4,1.9572,394.0],
    [22802,1537401352,53.5212,-109.9918,1526.8,937.8,191.1,4.1,-0.7,4.37,48.52,1.9588,391.8594],
    [22803,1537401353,53.5205,-109.9919,1526.3,939.1,191.8,4.9,-0.6,3.52,49.28,1.9585,392.6243],
    [22804,1537401354,53.5198,-109.9921,1526.3,940.3,191.8,4.8,-0.5,3.83,49.23,1.96,393.6108],
    [22805,1537401355,53.5191,-109.9923,1526.4,941.2,191.7,4.5,-0.4,3.54,49.07,1.9614,393.3795],
    [22806,1537401356,53.5184,-109.9924,1526.7,941.4,191.6,4.4,-0.1,3.58,49.18,1.9623,393.8696],
    [22807,1537401357,53.5177,-109.9926,1526.5,940.0,191.9,4.9,-0.4,3.89,49.37,1.9626,394.15],
    [22808,1537401358,53.517,-109.9928,1526.0,940.0,191.6,4.3,-0.5,4.04,50.05,1.9619,393.3972],
    [22809,1537401359,53.5164,-109.993,1525.6,940.6,191.2,4.1,-0.5,4.05,50.02,1.9611,392.9693],
    [22810,1537401360,53.5157,-109.9931,1525.4,942.3,191.4,4.2,-0.6,3.84,49.7,1.9626,391.6941],
    [22811,1537401361,53.515,-109.9933,1525.4,943.5,191.1,3.7,-0.5,3.87,49.72,1.9627,391.2237],
    [22812,1537401362,53.5143,-109.9935,1525.2,945.2,190.6,3.2,-0.2,3.8,49.75,1.9614,391.6732],
    [22813,1537401363,53.5136,-109.9936,1525.1,946.4,190.5,3.0,0.1,4.01,49.61,1.9618,391.6732],
    [22814,1537401364,53.5129,-109.9938,1525.1,947.1,190.6,3.0,0.0,3.93,49.87,1.9612,392.6699],
    [22815,1537401365,53.5122,-109.994,1525.2,948.2,190.8,3.1,0.0,3.85,50.2,1.9601,393.5198],
    [22816,1537401366,53.5115,-109.9942,1525.4,948.4,191.5,3.7,0.0,3.81,50.14,1.96,393.5744],
    [22817,1537401367,53.5108,-109.9943,1525.8,948.8,191.9,3.8,-0.1,3.55,50.3,1.9618,391.4648],
    [22818,1537401368,53.5101,-109.9945,1526.1,949.0,192.0,3.7,-0.6,4.15,50.39,1.9613,393.4483],
    [22819,1537401369,53.5094,-109.9947,1526.3,949.3,191.9,3.6,-0.4,4.66,50.0,1.9638,393.4483],
    [22820,1537401370,53.5087,-109.9949,1526.5,949.5,191.7,3.6,-0.1,4.24,50.41,1.9664,394.9485],
    [22821,1537401371,53.5081,-109.9951,1527.1,949.8,191.6,3.7,-0.1,3.83,50.66,1.9656,394.4368],
    [22822,1537401372,53.5073,-109.9953,1527.6,950.6,191.7,4.0,-0.2,4.62,50.19,1.9647,393.7481],
    [22823,1537401373,53.5066,-109.9955,1527.6,949.5,191.7,3.8,-0.4,3.78,50.93,1.9612,393.7481],
    [22824,1537401374,53.506,-109.9956,1526.9,948.8,190.9,2.7,-0.6,3.94,51.35,1.9608,393.6666],
    [22825,1537401375,53.5053,-109.9958,1526.5,948.2,190.4,2.5,-0.7,4.24,50.62,1.9608,392.953],
    [22826,1537401376,53.5046,-109.996,1526.6,947.2,190.7,2.9,-0.6,3.79,50.78,1.9618,393.1493],
    [22827,1537401377,53.5039,-109.9962,1526.2,944.9,191.2,3.4,-0.8,3.7,50.85,1.9595,393.2439],
    [22828,1537401378,53.5032,-109.9963,1525.0,943.5,191.5,3.5,-1.0,3.36,50.68,1.9587,392.8652],
    [22829,1537401379,53.5025,-109.9965,1522.6,940.3,191.5,3.5,-0.9,3.73,50.52,1.9579,392.2672],
    [22830,1537401380,53.5018,-109.9967,1519.4,935.4,192.2,4.3,-0.8,3.54,50.37,1.9589,392.532],
    [22831,1537401381,53.5011,-109.9969,1515.9,930.0,192.1,4.3,-0.2,4.07,50.79,1.9598,393.8303],
    [22832,1537401382,53.5004,-109.9971,1512.4,925.2,192.2,4.4,-0.1,3.73,50.4,1.9588,392.9165],
    [22833,1537401383,53.4997,-109.9973,1509.3,919.6,192.1,4.4,-0.2,4.02,50.92,1.9574,394.1986],
    [22834,1537401384,53.499,-109.9975,1505.7,915.9,192.4,4.8,-0.4,3.76,49.96,1.958,394.1986],
    [22835,1537401385,53.4983,-109.9976,1502.9,912.1,191.8,3.9,-0.4,4.1,50.28,1.9568,393.7181],
    [22836,1537401386,53.4976,-109.9978,1500.9,909.6,191.5,3.5,-0.5,3.99,49.6,1.9546,394.4746],
    [22837,1537401387,53.4969,-109.998,1498.6,908.5,191.5,3.2,-0.6,4.02,50.2,1.9543,393.7163],
    [22838,1537401388,53.4962,-109.9982,1496.1,907.1,190.3,1.6,0.0,3.97,50.26,1.9548,393.8361],
    [22839,1537401389,53.4955,-109.9984,1493.2,904.1,190.8,2.3,-0.4,3.81,49.59,1.9552,392.8263],
    [22840,1537401390,53.4948,-109.9986,1490.2,901.1,191.7,3.1,-0.8,3.35,49.5,1.9527,393.418],
    [22841,1537401391,53.494,-109.9988,1487.4,896.8,191.5,2.9,-0.6,3.56,49.49,1.953,393.3268],
    [22842,1537401392,53.4933,-109.999,1485.1,892.7,191.9,3.1,-0.6,3.97,49.68,1.9555,393.4354],
    [22843,1537401393,53.4926,-109.9992,1481.2,888.0,192.3,3.6,-1.5,4.28,48.94,1.9573,392.8084],
    [22844,1537401394,53.4919,-109.9994,1477.1,884.7,193.2,4.3,-2.2,4.45,49.34,1.9555,392.8084],
    [22845,1537401395,53.4911,-109.9996,1472.3,879.6,192.8,4.1,-1.6,4.44,48.68,1.9551,392.7504],
    [22846,1537401396,53.4904,-109.9998,1468.2,877.1,192.9,4.8,-1.7,3.94,49.02,1.9605,390.4943],
    [22847,1537401397,53.4897,-110.0,1464.7,875.0,192.1,4.7,-1.8,4.84,48.63,1.9593,393.6997],
    [22848,1537401398,53.4889,-110.0002,1460.5,872.4,191.4,4.9,-1.7,4.32,48.6,1.9621,393.7961],
    [22849,1537401399,53.4882,-110.0004,1456.0,869.0,190.4,5.0,-1.9,4.39,48.18,1.963,393.7961],
    [22850,1537401400,53.4875,-110.0005,1452.0,864.1,189.1,4.5,-1.9,4.25,48.54,1.9621,393.2414],
    [22851,1537401401,53.4867,-110.0006,1448.4,859.1,188.2,4.6,-1.7,4.11,48.3,1.9659,393.2414],
    [22852,1537401402,53.4859,-110.0007,1445.1,858.4,188.0,5.1,-1.3,4.19,48.08,1.9766,394.5713],
    [22853,1537401403,53.4852,-110.0008,1441.7,860.4,187.7,5.5,-1.4,4.27,48.49,1.979,392.7057],
    [22854,1537401404,53.4844,-110.0009,1438.5,863.2,187.4,5.7,-1.1,4.16,48.43,1.9778,393.3162],
    [22855,1537401405,53.4837,-110.001,1435.3,859.9,186.9,5.7,-1.6,4.42,47.81,1.9756,392.5442],
    [22856,1537401406,53.4829,-110.001,1432.2,856.9,186.4,5.5,-2.2,4.43,48.39,1.9725,388.9974],
    [22857,1537401407,53.4822,-110.0011,1429.1,853.8,186.0,5.6,-2.4,4.43,49.05,1.9707,391.82],
    [22858,1537401408,53.4814,-110.0011,1426.5,851.2,185.9,5.9,-2.1,4.66,48.23,1.97,393.0424],
    [22859,1537401409,53.4807,-110.0012,1423.9,848.6,185.7,5.9,-1.4,4.04,49.1,1.9651,392.295],
    [22860,1537401410,53.4799,-110.0012,1420.4,845.1,185.4,5.8,-1.2,4.15,48.9,1.9568,392.2893],
    [22861,1537401411,53.4792,-110.0012,1416.8,840.2,185.2,5.7,-1.2,4.75,48.05,1.9557,393.2828],
    [22862,1537401412,53.4784,-110.0012,1413.2,835.8,185.2,5.8,-1.5,4.37,48.55,1.9603,393.363],
    [22863,1537401413,53.4776,-110.0013,1409.4,832.0,185.6,6.3,-1.7,4.02,48.35,1.9589,392.4569],
    [22864,1537401414,53.4769,-110.0013,1405.9,827.6,185.4,6.1,-1.3,3.92,48.07,1.9449,391.0371],
    [22865,1537401415,53.4761,-110.0013,1402.8,822.6,185.3,6.1,-1.0,5.19,47.18,1.9411,391.8501],
    [22866,1537401416,53.4753,-110.0014,1399.5,818.4,184.9,5.6,-0.6,4.1,47.13,1.9419,391.7557],
    [22867,1537401417,53.4746,-110.0014,1395.8,812.7,184.9,5.8,-0.6,4.67,47.06,1.9422,392.0473],
    [22868,1537401418,53.4738,-110.0014,1392.2,806.9,185.1,6.1,-0.7,4.74,45.84,1.9447,393.7131],
    [22869,1537401419,53.4731,-110.0014,1388.8,803.2,185.4,6.4,-0.6,5.04,45.51,1.9447,392.7894],
    [22870,1537401420,53.4723,-110.0014,1385.7,800.2,185.3,6.1,-0.5,5.09,46.18,1.946,392.4936],
    [22871,1537401421,53.4715,-110.0015,1381.9,795.5,184.8,5.5,0.0,4.24,45.97,1.9486,393.4507],
    [22872,1537401422,53.4707,-110.0015,1378.4,792.6,185.5,6.4,-0.3,4.74,46.53,1.9493,392.6047],
    [22873,1537401423,53.47,-110.0015,1375.7,790.3,185.3,5.9,-1.0,4.85,45.94,1.9479,391.86],
    [22874,1537401424,53.4692,-110.0016,1372.8,788.4,185.3,5.7,-1.0,4.57,46.07,1.9472,393.0093],
    [22875,1537401425,53.4685,-110.0016,1370.0,786.7,185.1,5.7,-0.2,5.05,45.88,1.9466,391.8084],
    [22876,1537401426,53.4677,-110.0016,1367.1,786.0,185.8,6.4,0.5,4.91,46.27,1.9464,394.0102],
    [22877,1537401427,53.467,-110.0017,1364.1,783.7,185.3,5.7,0.6,4.71,46.23,1.9478,393.1227],
    [22878,1537401428,53.4661,-110.0017,1360.0,783.9,184.9,5.2,0.2,4.81,46.08,1.9469,393.9999],
    [22879,1537401429,53.4654,-110.0017,1356.3,780.1,184.8,4.9,-0.1,4.82,46.38,1.946,394.1617],
    [22880,1537401430,53.4646,-110.0018,1352.8,776.6,184.4,4.4,-0.4,5.1,46.44,1.9452,391.2364],
    [22881,1537401431,53.4638,-110.0018,1349.4,773.1,184.7,4.5,-0.4,5.08,46.14,1.9484,391.1014],
    [22882,1537401432,53.4631,-110.0018,1345.3,769.1,184.5,4.2,-0.1,5.08,46.13,1.9492,395.1377],
    [22883,1537401433,53.4624,-110.0019,1341.7,765.5,185.1,4.8,-0.2,5.07,45.87,1.9488,393.9647],
    [22884,1537401434,53.4616,-110.0019,1337.7,761.6,185.4,5.0,-0.6,4.92,45.93,1.9523,392.6751],
    [22885,1537401435,53.4607,-110.002,1333.9,756.9,185.6,5.2,-0.1,4.68,45.7,1.9508,394.1912],
    [22886,1537401436,53.46,-110.002,1330.3,753.4,185.6,5.1,0.1,5.25,46.06,1.9589,394.2032],
    [22887,1537401437,53.4592,-110.0021,1327.3,749.3,185.5,5.0,0.0,5.28,46.06,1.9503,393.8427],
    [22888,1537401438,53.4584,-110.0021,1324.1,746.0,185.6,5.3,0.1,5.28,45.3,1.9499,394.6145],
    [22889,1537401439,53.4577,-110.0022,1320.9,741.7,185.8,5.5,-0.1,6.16,44.87,1.9549,391.8566],
    [22890,1537401440,53.4569,-110.0022,1317.0,736.1,185.5,5.1,-0.6,5.74,44.46,1.9536,391.576],
    [22891,1537401441,53.4561,-110.0023,1313.4,731.3,185.5,5.0,-2.7,5.72,44.95,1.9513,394.1174],
    [22892,1537401442,53.4553,-110.0023,1309.7,724.8,185.3,4.8,-2.2,4.63,45.08,1.9487,394.1174],
    [22893,1537401443,53.4545,-110.0023,1305.6,719.7,185.6,5.4,-0.9,5.11,44.98,1.9484,393.4642],
    [22894,1537401444,53.4538,-110.0024,1301.7,715.6,185.6,5.5,-0.8,5.61,44.7,1.949,392.598],
    [22895,1537401445,53.453,-110.0024,1298.1,710.1,185.7,5.6,-0.9,5.35,44.91,1.9485,393.4968],
    [22896,1537401446,53.4522,-110.0025,1294.5,701.4,185.8,5.8,-1.1,5.51,45.1,1.9484,393.1193],
    [22897,1537401447,53.4514,-110.0025,1291.2,692.6,185.7,5.8,-1.1,6.27,44.53,1.9477,393.9591],
    [22898,1537401448,53.4507,-110.0026,1287.9,687.7,185.6,5.8,-1.0,5.09,44.64,1.9485,391.1627],
    [22899,1537401449,53.4499,-110.0026,1284.6,683.2,185.6,5.9,-1.1,5.57,45.14,1.948,393.1469],
    [22900,1537401450,53.4491,-110.0026,1281.2,678.7,185.6,5.9,-1.0,5.2,43.88,1.9488,393.658],
    [22901,1537401451,53.4483,-110.0027,1277.8,676.0,185.5,5.9,-1.0,5.03,43.65,1.948,393.7335],
    [22902,1537401452,53.4475,-110.0027,1274.4,673.1,185.4,5.8,-1.1,5.75,43.46,1.9472,394.5324],
    [22903,1537401453,53.4468,-110.0027,1271.2,669.4,185.4,5.9,-1.4,5.96,43.21,1.9468,390.8868],
    [22904,1537401454,53.446,-110.0028,1267.8,674.3,185.4,5.8,-1.6,6.4,42.67,1.9473,392.8587],
    [22905,1537401455,53.4452,-110.0028,1264.4,679.8,185.4,6.0,-1.2,5.8,43.46,1.9482,392.8587],
    [22906,1537401456,53.4444,-110.0028,1261.0,680.1,185.4,5.9,-1.3,5.65,43.01,1.9513,393.8913],
    [22907,1537401457,53.4436,-110.0029,1257.4,677.5,185.2,5.7,-1.5,5.99,43.86,1.9526,393.9368],
    [22908,1537401458,53.4429,-110.0029,1253.9,671.9,185.2,5.6,-1.5,6.17,42.59,1.9513,394.2274],
    [22909,1537401459,53.4421,-110.0029,1250.2,662.3,185.2,5.7,-1.4,6.54,42.82,1.9497,393.104],
    [22910,1537401460,53.4413,-110.003,1246.5,651.5,185.3,5.8,-1.3,5.84,43.31,1.956,393.5436],
    [22911,1537401461,53.4405,-110.003,1242.6,642.5,185.3,5.7,-1.7,6.1,43.57,1.974,392.783],
    [22912,1537401462,53.4397,-110.003,1239.0,634.8,185.0,5.4,-0.8,6.06,43.12,1.9694,392.685],
    [22913,1537401463,53.4389,-110.0031,1235.6,629.4,185.2,5.4,-1.2,6.18,43.14,1.9674,393.5748],
    [22914,1537401464,53.4382,-110.0031,1232.5,621.3,184.8,4.8,-1.6,6.33,43.87,1.967,394.8975],
    [22915,1537401465,53.4374,-110.0031,1228.8,609.7,185.4,5.5,-1.6,6.49,43.23,1.9666,394.0734],
    [22916,1537401466,53.4366,-110.0032,1225.2,602.9,185.0,4.8,-0.7,6.27,43.54,1.9622,392.1559],
    [22917,1537401467,53.4358,-110.0032,1221.5,599.3,185.2,5.0,-1.3,6.54,43.5,1.9619,392.6459],
    [22918,1537401468,53.435,-110.0033,1217.7,595.5,185.7,5.5,-2.4,6.29,44.57,1.9657,393.2095],
    [22919,1537401469,53.4342,-110.0033,1213.9,592.9,185.7,5.5,-3.0,6.28,43.79,1.9646,393.7954],
    [22920,1537401470,53.4335,-110.0034,1210.2,589.4,185.8,5.7,-2.7,5.74,43.72,1.9621,392.781],
    [22921,1537401471,53.4326,-110.0034,1206.5,586.5,186.0,6.2,-2.1,6.35,44.62,1.9591,392.9839],
    [22922,1537401472,53.4319,-110.0034,1203.3,584.7,186.0,6.4,-1.8,6.12,44.04,1.957,394.9266],
    [22923,1537401473,53.4311,-110.0035,1200.1,583.3,185.8,6.3,-1.5,5.77,44.1,1.9539,393.4734],
    [22924,1537401474,53.4303,-110.0035,1196.8,580.9,185.8,6.4,-1.5,6.66,43.56,1.9552,394.3318],
    [22925,1537401475,53.4295,-110.0036,1193.7,578.9,185.3,5.8,-1.2,6.37,43.85,1.9574,393.7068],
    [22926,1537401476,53.4287,-110.0036,1190.3,575.7,184.9,5.2,-0.8,6.53,43.79,1.9544,393.0288],
    [22927,1537401477,53.4279,-110.0036,1186.8,572.8,184.6,4.9,-0.8,6.36,44.3,1.9541,394.2623],
    [22928,1537401478,53.4271,-110.0036,1183.6,570.6,184.3,4.5,-0.5,6.14,43.75,1.9527,394.7639],
    [22929,1537401479,53.4264,-110.0037,1180.1,567.1,184.5,4.7,-0.6,6.52,43.81,1.9517,393.2527],
    [22930,1537401480,53.4256,-110.0037,1176.4,563.5,184.7,4.9,-0.8,7.06,43.01,1.9522,392.2204],
    [22931,1537401481,53.4248,-110.0037,1172.7,557.1,184.9,5.2,-0.9,6.68,44.0,1.953,393.3179],
    [22932,1537401482,53.424,-110.0038,1169.1,550.4,185.0,5.1,-1.0,6.85,43.32,1.9514,394.1149],
    [22933,1537401483,53.4232,-110.0038,1165.5,545.5,184.9,4.9,-1.0,6.55,43.66,1.9517,392.6416],
    [22934,1537401484,53.4224,-110.0039,1161.5,539.8,184.6,4.3,-1.4,6.73,43.44,1.9541,393.742],
    [22935,1537401485,53.4217,-110.0039,1157.9,535.6,184.5,4.3,-1.6,6.63,44.15,1.9533,394.1666],
    [22936,1537401486,53.4209,-110.0039,1154.5,530.4,184.7,4.4,-1.6,6.49,43.57,1.9517,391.0351],
    [22937,1537401487,53.4201,-110.004,1151.5,526.5,184.5,4.1,-1.6,6.69,43.41,1.9524,393.893],
    [22938,1537401488,53.4193,-110.004,1148.2,522.2,184.8,4.1,-1.7,7.37,42.94,1.9518,394.2741],
    [22939,1537401489,53.4185,-110.0041,1144.8,517.6,184.5,3.5,-1.6,7.77,43.07,1.9521,393.2146],
    [22940,1537401490,53.4177,-110.0041,1141.2,512.2,184.8,3.7,-1.7,7.52,43.0,1.955,393.5647],
    [22941,1537401491,53.417,-110.0042,1137.9,508.3,184.8,3.5,-1.8,7.03,42.9,1.9531,394.5865],
    [22942,1537401492,53.4162,-110.0042,1134.6,504.7,184.8,3.3,-1.6,6.79,43.06,1.9524,394.3888],
    [22943,1537401493,53.4154,-110.0043,1130.9,501.1,184.6,2.9,-1.5,7.11,43.29,1.9508,393.126],
    [22944,1537401494,53.4146,-110.0043,1127.7,496.8,184.8,3.1,-1.3,7.17,42.77,1.9527,392.6144],
    [22945,1537401495,53.4138,-110.0044,1124.3,492.7,184.9,3.3,-1.2,7.53,42.59,1.9528,391.8869],
    [22946,1537401496,53.413,-110.0045,1120.6,487.7,184.8,3.1,-1.3,7.44,42.02,1.9524,391.6691],
    [22947,1537401497,53.4122,-110.0045,1116.8,484.0,184.9,3.4,-1.2,7.42,42.25,1.9534,390.0098],
    [22948,1537401498,53.4114,-110.0046,1112.8,478.9,185.4,4.0,-1.2,6.93,42.94,1.9532,392.8163],
    [22949,1537401499,53.4107,-110.0047,1108.6,473.6,185.5,4.0,-1.3,7.29,43.41,1.9531,392.8163],
    [22950,1537401500,53.4099,-110.0047,1104.8,468.9,185.5,4.0,-1.2,7.25,42.45,1.9532,393.498],
    [22951,1537401501,53.4091,-110.0048,1101.5,464.5,185.3,4.0,-1.2,7.05,42.6,1.9547,394.3427],
    [22952,1537401502,53.4083,-110.0048,1098.0,460.0,185.4,4.1,-1.2,7.24,42.33,1.9525,393.5129],
    [22953,1537401503,53.4075,-110.0049,1094.7,456.1,185.2,4.0,-1.1,7.38,42.59,1.9522,392.0816],
    [22954,1537401504,53.4067,-110.005,1091.3,451.7,184.7,3.4,-1.3,7.58,42.77,1.9518,394.138],
    [22955,1537401505,53.4059,-110.005,1088.2,448.1,184.6,3.3,-1.3,8.19,41.35,1.9518,392.6788],
    [22956,1537401506,53.4052,-110.0051,1085.2,444.3,184.9,3.6,-1.4,7.02,42.41,1.9537,392.9056],
    [22957,1537401507,53.4044,-110.0051,1082.1,441.2,185.2,4.0,-1.2,7.55,41.68,1.9543,392.8817],
    [22958,1537401508,53.4036,-110.0052,1079.4,438.5,184.8,3.7,-0.9,8.1,41.15,1.9527,391.8408],
    [22959,1537401509,53.4028,-110.0052,1076.6,435.7,184.9,4.0,-0.7,7.67,42.16,1.9524,391.8408],
    [22960,1537401510,53.4021,-110.0053,1073.9,432.9,184.9,3.9,-0.7,7.64,41.52,1.9519,391.7236],
    [22961,1537401511,53.4013,-110.0053,1071.0,430.9,185.1,4.0,-1.0,7.72,41.79,1.9533,394.2486],
    [22962,1537401512,53.4005,-110.0054,1068.1,428.0,185.3,3.9,-1.3,7.69,42.27,1.9537,393.3893],
    [22963,1537401513,53.3997,-110.0055,1065.2,425.1,185.5,4.0,-1.4,7.98,41.25,1.9535,393.2232],
    [22964,1537401514,53.399,-110.0055,1062.2,422.1,185.1,3.2,-1.4,7.64,41.78,1.9533,393.3854],
    [22965,1537401515,53.3982,-110.0056,1058.5,416.6,185.1,3.3,-1.4,7.74,41.2,1.9532,392.0935],
    [22966,1537401516,53.3974,-110.0056,1055.1,413.1,185.3,3.6,-1.6,8.62,40.65,1.9541,392.896],
    [22967,1537401517,53.3966,-110.0057,1052.0,410.6,185.6,3.9,-1.7,7.89,40.88,1.9546,391.1781],
    [22968,1537401518,53.3958,-110.0058,1048.7,408.8,185.5,3.7,-1.8,7.97,41.03,1.9535,393.0397],
    [22969,1537401519,53.395,-110.0059,1045.8,405.7,185.5,3.8,-1.8,7.77,41.17,1.9529,393.0817],
    [22970,1537401520,53.3943,-110.0059,1043.3,403.3,185.5,3.8,-1.6,7.99,40.86,1.9522,394.097],
    [22971,1537401521,53.3935,-110.006,1040.7,400.7,185.6,4.0,-1.4,8.73,40.49,1.9521,392.0785],
    [22972,1537401522,53.3927,-110.006,1038.3,397.3,185.6,4.1,-1.5,7.78,41.0,1.9524,393.0934],
    [22973,1537401523,53.392,-110.0061,1036.1,395.2,185.6,4.2,-1.7,8.01,40.69,1.9521,392.1672],
    [22974,1537401524,53.3912,-110.0062,1034.2,393.2,185.2,3.9,-1.7,7.94,40.71,1.9534,393.261],
    [22975,1537401525,53.3904,-110.0062,1032.8,391.9,184.7,3.3,-1.9,8.06,41.11,1.9542,393.261],
    [22976,1537401526,53.3897,-110.0063,1031.5,390.6,184.8,3.5,-1.6,8.16,41.24,1.954,389.1926],
    [22977,1537401527,53.3889,-110.0063,1030.0,389.1,184.8,3.5,-1.4,8.39,40.5,1.9532,393.5607],
    [22978,1537401528,53.3881,-110.0064,1028.1,388.2,184.5,3.3,-1.5,7.57,40.53,1.9542,392.8442],
    [22979,1537401529,53.3873,-110.0064,1026.0,386.7,184.1,3.2,-1.6,8.87,40.11,1.9544,392.6361],
    [22980,1537401530,53.3866,-110.0065,1023.6,384.7,184.0,3.4,-1.5,8.02,40.67,1.9547,392.2956],
    [22981,1537401531,53.3858,-110.0065,1021.2,382.3,184.1,3.7,-1.3,8.8,40.04,1.9554,393.5359],
    [22982,1537401532,53.385,-110.0065,1018.7,379.8,183.8,3.4,-1.5,7.81,40.33,1.9563,392.5132],
    [22983,1537401533,53.3843,-110.0066,1017.4,379.5,183.7,3.2,-1.3,8.14,40.44,1.9576,393.462],
    [22984,1537401534,53.3835,-110.0066,1017.1,380.3,183.9,3.2,-1.0,7.84,40.5,1.9607,392.1635],
    [22985,1537401535,53.3827,-110.0066,1016.8,380.9,184.0,3.0,-0.9,8.15,40.17,1.9617,392.9563],
    [22986,1537401536,53.382,-110.0067,1016.5,381.5,184.2,2.9,-1.1,8.05,40.25,1.9617,393.4568],
    [22987,1537401537,53.3812,-110.0067,1016.4,382.5,184.4,2.7,-1.2,8.31,40.32,1.9609,393.3981],
    [22988,1537401538,53.3805,-110.0068,1016.5,383.5,184.9,3.0,-1.4,7.61,40.23,1.9608,393.4038],
    [22989,1537401539,53.3797,-110.0069,1015.8,382.9,185.4,3.7,-1.4,8.05,40.22,1.9603,393.4038],
    [22990,1537401540,53.379,-110.0069,1014.6,380.2,184.6,3.0,-1.2,8.17,40.18,1.9595,393.115],
    [22991,1537401541,53.3782,-110.007,1013.5,378.5,184.1,2.5,-1.1,8.93,39.82,1.9595,392.6082],
    [22992,1537401542,53.3775,-110.007,1012.1,377.1,184.3,2.9,-1.0,8.53,39.94,1.9596,392.9671],
    [22993,1537401543,53.3767,-110.0071,1010.3,375.3,184.3,2.8,-0.9,8.35,40.2,1.9625,393.5383],
    [22994,1537401544,53.376,-110.0071,1008.6,373.7,183.3,1.2,-0.3,8.43,39.9,1.9611,393.0669],
    [22995,1537401545,53.3753,-110.0072,1007.3,371.3,182.9,0.6,-0.1,8.29,40.2,1.9607,393.307],
    [22996,1537401546,53.3745,-110.0072,1006.2,370.2,183.3,1.0,0.0,8.65,40.17,1.9604,392.8008],
    [22997,1537401547,53.3738,-110.0073,1004.4,369.4,184.1,2.1,0.5,8.23,39.97,1.9623,392.3795],
    [22998,1537401548,53.373,-110.0074,1002.7,367.7,185.6,3.6,0.2,8.02,40.4,1.973,392.186],
    [22999,1537401549,53.3723,-110.0074,1002.0,367.0,185.6,3.5,0.3,9.15,40.0,1.9694,393.2821],
    [23000,1537401550,53.3715,-110.0075,1002.4,368.1,185.2,3.2,0.1,8.57,40.76,1.9654,392.9606],
    [23001,1537401551,53.3708,-110.0075,1002.3,367.3,184.4,2.8,0.1,8.22,40.45,1.9628,393.7505],
    [23002,1537401552,53.3701,-110.0076,1000.9,365.9,184.3,3.2,0.0,8.8,40.0,1.9597,394.4815],
    [23003,1537401553,53.3693,-110.0076,998.6,363.6,184.3,3.3,-0.4,8.19,40.41,1.9578,393.735],
    [23004,1537401554,53.3686,-110.0077,996.1,361.1,184.4,3.5,-0.6,8.5,40.74,1.9528,392.6431],
    [23005,1537401555,53.3679,-110.0077,994.1,359.1,184.2,3.5,-0.7,8.54,40.18,1.9515,392.3439],
    [23006,1537401556,53.3671,-110.0078,992.8,358.8,183.9,3.3,-0.7,8.42,40.07,1.9493,393.2761],
    [23007,1537401557,53.3664,-110.0078,991.7,357.7,183.8,3.4,-0.7,8.03,39.77,1.9491,394.148],
    [23008,1537401558,53.3656,-110.0078,990.6,356.6,183.6,3.7,-0.6,8.7,39.31,1.9511,393.3143],
    [23009,1537401559,53.3649,-110.0078,989.2,356.1,183.7,4.0,-0.6,8.28,39.3,1.9549,392.3617],
    [23010,1537401560,53.3642,-110.0078,987.6,355.6,183.2,3.7,-0.5,8.59,39.44,1.9521,391.2259],
    [23011,1537401561,53.3634,-110.0079,985.9,353.9,183.0,3.7,-0.7,8.54,39.41,1.9539,392.9768],
    [23012,1537401562,53.3627,-110.0079,984.1,352.1,182.7,3.7,-0.8,8.63,40.25,1.9594,392.9587],
    [23013,1537401563,53.362,-110.0079,982.2,349.2,182.2,3.5,-0.9,8.73,39.22,1.9636,392.0505],
    [23014,1537401564,53.3612,-110.0079,980.0,347.0,181.8,3.4,-0.8,8.65,39.72,1.9618,392.689],
    [23015,1537401565,53.3605,-110.0078,978.4,345.4,181.6,3.4,-0.9,8.6,39.46,1.9686,392.689],
    [23016,1537401566,53.3597,-110.0078,977.9,344.9,181.9,3.9,-0.8,9.01,39.08,1.9733,391.7401],
    [23017,1537401567,53.359,-110.0078,978.5,345.5,181.7,3.6,-1.0,8.1,39.52,1.9702,394.1549],
    [23018,1537401568,53.3583,-110.0078,979.1,346.1,181.2,3.3,-1.0,9.62,38.71,1.9703,393.6667],
    [23019,1537401569,53.3575,-110.0078,978.9,345.9,181.5,3.8,-1.0,8.45,39.87,1.9674,392.3668],
    [23020,1537401570,53.3568,-110.0077,977.8,344.8,181.2,3.4,-1.0,8.66,39.37,1.9614,393.4255],
    [23021,1537401571,53.3561,-110.0077,976.1,344.1,181.1,3.3,-1.0,8.81,39.45,1.9556,393.5089],
    [23022,1537401572,53.3554,-110.0077,974.6,342.6,181.2,3.7,-0.9,9.52,38.84,1.9525,392.7936],
    [23023,1537401573,53.3546,-110.0076,974.0,342.0,181.1,3.8,-1.1,8.69,39.71,1.9531,393.148],
    [23024,1537401574,53.3539,-110.0076,973.5,341.5,180.5,3.4,-1.4,8.4,39.66,1.9525,391.8934],
    [23025,1537401575,53.3532,-110.0076,972.5,339.1,180.8,4.0,-1.4,8.74,39.32,1.9505,393.2297],
    [23026,1537401576,53.3524,-110.0075,970.6,335.8,180.3,3.4,-1.3,9.19,38.45,1.9496,393.2297],
    [23027,1537401577,53.3517,-110.0075,967.1,333.0,180.3,3.5,-1.5,9.2,38.67,1.9506,394.4968],
    [23028,1537401578,53.351,-110.0074,963.0,329.9,179.8,2.8,-1.8,8.34,39.17,1.9487,393.4468],
    [23029,1537401579,53.3503,-110.0074,958.4,325.9,180.1,2.7,-1.9,8.5,38.93,1.9498,392.9375],
    [23030,1537401580,53.3495,-110.0073,954.8,321.8,179.5,1.8,-1.7,9.49,38.45,1.95,392.899],
    [23031,1537401581,53.3488,-110.0073,954.3,321.3,180.3,2.7,-1.4,8.62,39.05,1.9506,393.0486],
    [23032,1537401582,53.3481,-110.0073,954.8,321.0,180.5,3.0,-1.2,8.9,39.16,1.9573,391.5886],
    [23033,1537401583,53.3473,-110.0072,954.3,320.3,180.3,2.8,-1.3,8.5,38.85,1.9577,392.4737],
    [23034,1537401584,53.3466,-110.0072,952.9,318.8,180.0,2.4,-1.2,9.35,38.66,1.9559,393.908],
    [23035,1537401585,53.3459,-110.0072,951.4,318.7,179.9,2.8,-1.1,9.0,38.68,1.9552,393.3092],
    [23036,1537401586,53.3452,-110.0071,951.9,319.9,180.5,3.6,-0.9,9.05,39.53,1.9578,393.3176],
    [23037,1537401587,53.3445,-110.0071,953.3,321.3,181.1,4.3,-1.1,8.94,38.92,1.9626,392.5854],
    [23038,1537401588,53.3438,-110.007,954.5,321.5,180.9,4.0,-1.1,8.54,38.34,1.9685,393.5377],
    [23039,1537401589,53.343,-110.007,955.1,321.1,181.5,4.8,-1.0,8.74,38.84,1.9662,393.187],
    [23040,1537401590,53.3424,-110.007,955.6,320.6,181.2,4.4,-0.7,9.57,38.3,1.9591,392.8473],
    [23041,1537401591,53.3417,-110.0069,956.2,320.1,180.9,4.1,-0.7,9.27,38.47,1.9607,392.9708],
    [23042,1537401592,53.341,-110.0069,956.6,320.1,181.2,4.4,-0.9,8.99,38.31,1.9649,393.5354],
    [23043,1537401593,53.3403,-110.0068,957.4,319.2,181.1,4.3,-0.8,9.0,38.28,1.9579,392.6183],
    [23044,1537401594,53.3396,-110.0068,958.8,320.8,181.1,4.5,-1.0,9.12,38.81,1.9606,393.5228],
    [23045,1537401595,53.3389,-110.0067,959.5,320.5,181.3,4.7,-1.3,9.34,38.54,1.9567,393.6918],
    [23046,1537401596,53.3382,-110.0067,959.7,320.7,181.0,4.3,-1.1,8.82,38.05,1.9566,393.5093],
    [23047,1537401597,53.3376,-110.0066,958.8,319.9,179.2,2.7,-0.4,9.06,38.25,1.9442,394.7375],
    [23048,1537401598,53.3369,-110.0066,956.3,317.5,180.9,5.1,-0.5,9.2,38.92,1.9438,393.4798],
    [23049,1537401599,53.3362,-110.0065,954.9,316.9,180.9,4.6,-0.7,9.08,38.28,1.9459,393.3014],
    [23050,1537401600,53.3356,-110.0065,955.0,317.0,181.0,4.5,-0.5,9.73,37.47,1.9469,393.8315],
    [23051,1537401601,53.3349,-110.0064,954.3,316.2,181.9,5.2,-0.3,9.17,38.52,1.9469,392.7107],
    [23052,1537401602,53.3342,-110.0064,953.8,316.3,182.0,5.0,-0.4,9.12,38.41,1.9505,393.2005],
    [23053,1537401603,53.3336,-110.0064,951.3,313.3,181.6,4.2,-0.3,9.83,37.49,1.9633,392.1612],
    [23054,1537401604,53.3329,-110.0063,949.5,311.5,181.4,3.8,-0.1,9.58,37.85,1.9683,392.79],
    [23055,1537401605,53.3323,-110.0063,949.8,311.8,181.1,3.6,-0.5,9.22,38.45,1.9723,393.0895],
    [23056,1537401606,53.3317,-110.0063,949.2,311.2,179.9,2.6,-0.2,9.12,37.96,1.9628,393.1122],
    [23057,1537401607,53.3311,-110.0062,948.9,310.9,180.1,2.9,-0.1,9.93,37.58,1.9563,392.0635],
    [23058,1537401608,53.3305,-110.0062,948.2,310.2,181.1,3.5,-0.3,8.64,38.02,1.9551,393.3335],
    [23059,1537401609,53.3299,-110.0062,946.8,308.8,182.2,3.9,-0.5,8.97,38.05,1.9513,393.7677],
    [23060,1537401610,53.3293,-110.0061,944.6,306.8,182.8,3.9,0.0,9.66,38.12,1.9468,393.3853],
    [23061,1537401611,53.3287,-110.0061,942.4,305.4,183.7,4.2,0.0,9.04,38.76,1.9432,393.6995],
    [23062,1537401612,53.3281,-110.0061,941.0,303.9,184.2,4.1,0.0,9.89,37.95,1.9414,393.6995],
    [23063,1537401613,53.3275,-110.0062,939.5,302.4,185.3,4.5,0.1,9.77,38.17,1.9427,394.1323],
    [23064,1537401614,53.327,-110.0062,937.4,300.4,186.5,4.7,-0.1,9.32,38.08,1.9429,393.1111],
    [23065,1537401615,53.3264,-110.0062,934.8,296.7,187.0,4.3,-0.1,9.21,38.28,1.9425,391.3465],
    [23066,1537401616,53.3258,-110.0063,931.1,292.1,186.2,3.0,0.3,8.74,38.25,1.9397,393.988],
    [23067,1537401617,53.3253,-110.0063,926.0,285.9,185.5,2.3,0.5,9.0,38.43,1.9409,393.847],
    [23068,1537401618,53.3247,-110.0064,920.2,279.2,186.5,3.1,0.4,9.21,38.49,1.942,393.3334],
    [23069,1537401619,53.3242,-110.0065,914.5,272.4,187.4,3.6,0.1,8.98,38.4,1.9404,394.3026],
    [23070,1537401620,53.3236,-110.0065,909.1,266.8,187.7,3.5,0.0,9.83,37.89,1.9424,391.3263],
    [23071,1537401621,53.3231,-110.0066,906.2,263.2,188.4,3.6,0.0,9.07,38.59,1.9418,391.946],
    [23072,1537401622,53.3225,-110.0067,905.6,262.6,189.2,3.6,-0.1,9.22,39.06,1.9422,394.4456],
    [23073,1537401623,53.322,-110.0068,904.5,261.5,190.0,3.8,-0.3,9.55,38.19,1.9412,392.376],
    [23074,1537401624,53.3215,-110.0069,904.0,260.0,191.1,4.0,-0.3,8.48,38.09,1.9428,393.2228],
    [23075,1537401625,53.3209,-110.007,903.4,259.4,192.8,4.3,-0.3,9.27,38.5,1.9416,393.2228],
    [23076,1537401626,53.3205,-110.0071,902.0,258.0,195.0,4.6,-0.5,9.28,38.24,1.9442,392.9819],
    [23077,1537401627,53.3199,-110.0073,900.2,255.7,196.3,3.5,0.0,9.64,37.67,1.9414,392.9905],
    [23078,1537401628,53.3194,-110.0075,897.6,252.6,198.3,3.7,0.2,9.09,38.3,1.941,392.7514],
    [23079,1537401629,53.3189,-110.0078,894.5,249.6,202.2,4.5,-0.4,10.07,37.83,1.9431,393.3726],
    [23080,1537401630,53.3185,-110.008,890.9,244.9,205.2,4.2,-0.4,9.14,38.71,1.9432,393.5741],
    [23081,1537401631,53.318,-110.0084,886.9,240.9,206.7,3.3,0.0,9.31,38.88,1.9431,392.0007],
    [23082,1537401632,53.3176,-110.0087,882.1,236.0,209.2,3.7,0.0,9.33,39.25,1.9446,394.0728],
    [23083,1537401633,53.3171,-110.0091,876.8,231.8,212.1,3.9,-0.1,9.28,39.11,1.9489,393.9564],
    [23084,1537401634,53.3167,-110.0095,872.3,227.3,213.6,3.2,0.4,9.34,38.59,1.951,393.4614],
    [23085,1537401635,53.3163,-110.0099,867.6,223.3,215.6,3.3,0.7,9.28,38.64,1.9512,393.4868],
    [23086,1537401636,53.3159,-110.0104,862.7,218.8,217.6,3.3,1.0,9.71,38.18,1.9513,392.7172],
    [23087,1537401637,53.3155,-110.0109,856.8,212.8,219.0,2.9,1.7,9.51,38.6,1.9561,392.5996],
    [23088,1537401638,53.3151,-110.0114,850.7,206.7,221.7,3.1,1.4,9.79,38.62,1.9568,392.4549],
    [23089,1537401639,53.3148,-110.0119,845.3,202.3,224.6,3.1,1.3,10.12,39.09,1.9583,393.3272],
    [23090,1537401640,53.3144,-110.0125,840.6,198.7,227.1,3.5,1.2,9.31,39.53,1.9592,394.5493],
    [23091,1537401641,53.3141,-110.0131,835.8,193.8,229.6,3.9,0.8,9.41,39.98,1.9597,393.7332],
    [23092,1537401642,53.3138,-110.0137,831.0,189.0,232.2,4.0,0.2,8.96,39.79,1.9599,392.5009],
    [23093,1537401643,53.3135,-110.0143,825.2,183.2,234.5,4.2,-0.1,9.31,40.15,1.9572,392.9663],
    [23094,1537401644,53.3132,-110.0149,819.2,178.0,236.5,3.5,0.2,10.07,39.71,1.9541,393.0866],
    [23095,1537401645,53.3129,-110.0156,814.2,173.2,237.3,2.9,1.4,9.28,39.96,1.9569,393.3142],
    [23096,1537401646,53.3127,-110.0162,808.7,168.0,239.1,3.1,1.2,9.13,40.04,1.9559,393.0287],
    [23097,1537401647,53.3124,-110.0169,802.1,161.3,241.3,3.3,1.2,9.27,40.2,1.9549,392.6226],
    [23098,1537401648,53.3122,-110.0176,796.0,155.0,244.2,3.5,0.7,10.08,39.96,1.953,393.6148],
    [23099,1537401649,53.312,-110.0183,791.0,150.0,245.4,3.0,1.6,9.63,39.88,1.9449,391.745],
    [23100,1537401650,53.3118,-110.0191,786.6,145.6,246.8,3.1,1.8,9.38,40.64,1.9452,392.4386],
    [23101,1537401651,53.3116,-110.0198,783.0,142.0,249.6,3.3,0.7,9.52,40.31,1.9418,394.0928],
    [23102,1537401652,53.3115,-110.0206,779.6,137.6,249.5,3.2,1.3,9.53,39.73,1.9435,393.8191],
    [23103,1537401653,53.3113,-110.0213,776.7,134.7,251.3,3.6,0.3,8.99,39.81,1.9439,391.0547],
    [23104,1537401654,53.3112,-110.022,774.9,132.9,252.3,3.7,-0.4,9.1,39.52,1.9441,392.1779],
    [23105,1537401655,53.311,-110.0227,773.8,131.5,252.8,3.7,-0.7,9.61,39.64,1.9466,392.6497],
    [23106,1537401656,53.3109,-110.0235,772.3,129.4,252.3,3.4,0.0,9.53,39.41,1.9488,392.7366],
    [23107,1537401657,53.3107,-110.0242,770.9,127.8,252.4,3.3,0.1,9.85,39.17,1.9466,392.811],
    [23108,1537401658,53.3106,-110.0249,768.8,125.8,252.9,3.6,-0.3,10.39,38.99,1.9467,391.9814],
    [23109,1537401659,53.3104,-110.0255,766.2,124.2,253.6,3.9,-0.7,9.38,38.89,1.9462,393.9405],
    [23110,1537401660,53.3103,-110.0262,763.5,120.5,255.0,3.8,-1.4,9.69,38.97,1.9468,393.6325],
    [23111,1537401661,53.3102,-110.0268,761.3,118.3,255.0,3.7,-1.1,9.31,38.77,1.9502,393.8267],
    [23112,1537401662,53.3101,-110.0275,759.0,116.0,255.0,3.7,-0.7,10.28,38.48,1.9504,393.8267],
    [23113,1537401663,53.3099,-110.0282,756.7,113.7,256.0,3.6,-0.7,10.3,38.02,1.9512,392.4425],
    [23114,1537401664,53.3098,-110.0289,754.5,110.5,257.4,3.3,-0.6,9.57,39.04,1.9517,392.4424],
    [23115,1537401665,53.3097,-110.0295,752.8,108.8,259.2,3.4,-0.7,9.57,38.64,1.9503,391.512],
    [23116,1537401666,53.3097,-110.0302,750.8,106.8,261.8,3.3,-1.0,9.59,38.63,1.9511,393.3656],
    [23117,1537401667,53.3096,-110.0308,748.9,104.9,264.1,3.3,-1.2,10.45,38.41,1.9492,394.0522],
    [23118,1537401668,53.3096,-110.0315,747.3,104.0,265.3,3.3,-0.8,9.98,38.71,1.9439,393.1843],
    [23119,1537401669,53.3095,-110.0321,746.2,102.2,265.5,3.3,-0.7,10.01,38.64,1.9435,394.1961],
    [23120,1537401670,53.3095,-110.0328,744.7,100.7,266.6,3.3,-1.3,10.79,38.26,1.945,391.4763],
    [23121,1537401671,53.3094,-110.0334,742.5,98.1,266.8,3.4,-1.1,10.19,38.33,1.9455,392.87],
    [23122,1537401672,53.3094,-110.034,740.2,95.2,267.1,3.5,-1.0,9.64,38.46,1.9444,392.997],
    [23123,1537401673,53.3094,-110.0347,738.0,92.0,267.9,3.5,-1.1,10.15,38.97,1.9434,393.3213],
    [23124,1537401674,53.3094,-110.0353,736.4,89.4,267.9,3.5,-0.7,10.35,38.31,1.9411,392.0526],
    [23125,1537401675,53.3093,-110.036,734.4,88.4,268.3,3.5,-0.4,9.86,38.7,1.941,392.5434],
    [23126,1537401676,53.3093,-110.0366,732.3,86.3,268.2,3.8,0.0,10.57,38.16,1.9412,392.5434],
    [23127,1537401677,53.3093,-110.0373,729.6,84.0,268.3,4.0,0.0,10.16,39.04,1.942,392.9641],
    [23128,1537401678,53.3093,-110.0379,726.6,80.6,269.0,4.0,-0.1,9.89,38.83,1.9411,392.9641],
    [23129,1537401679,53.3093,-110.0385,723.4,76.5,268.7,4.1,0.2,10.2,38.6,1.944,391.1992],
    [23130,1537401680,53.3093,-110.0392,720.4,72.0,269.2,3.9,-0.1,10.56,37.7,1.9427,390.5974],
    [23131,1537401681,53.3093,-110.0398,717.6,68.6,269.7,3.8,-0.3,10.17,38.23,1.9429,393.4374],
    [23132,1537401682,53.3093,-110.0405,714.5,65.5,269.7,3.6,-0.2,10.01,38.25,1.945,392.985],
    [23133,1537401683,53.3093,-110.0411,711.1,61.1,269.7,3.3,0.2,10.33,37.97,1.9447,391.1599],
    [23134,1537401684,53.3093,-110.0418,709.4,58.3,268.9,3.4,0.7,10.69,37.71,1.9442,392.4864],
    [23135,1537401685,53.3093,-110.0424,708.5,57.3,269.8,3.3,-0.2,10.32,38.47,1.9442,391.2942],
    [23136,1537401686,53.3093,-110.043,707.2,55.2,270.4,3.0,-0.5,10.81,37.9,1.9483,391.9531],
    [23137,1537401687,53.3093,-110.0437,705.7,53.0,270.0,3.1,-0.4,10.4,38.91,1.9465,391.9531],
    [23138,1537401688,53.3093,-110.0443,704.4,51.5,270.2,3.2,-0.6,10.21,39.04,1.9445,392.8134],
    [23139,1537401689,53.3093,-110.0449,702.9,49.9,270.1,3.0,-0.4,11.08,38.86,1.9443,392.3752],
    [23140,1537401690,53.3093,-110.0455,701.1,48.1,269.6,3.0,0.0,10.09,38.88,1.9436,393.6104],
    [23141,1537401691,53.3093,-110.0461,699.6,46.7,269.7,3.2,0.0,10.15,39.08,1.9427,392.5084],
    [23142,1537401692,53.3093,-110.0468,698.2,45.0,270.4,3.3,-0.3,10.26,39.06,1.9436,391.9675],
    [23143,1537401693,53.3093,-110.0474,696.5,43.5,270.7,3.4,-0.3,10.36,39.13,1.9458,391.9675],
    [23144,1537401694,53.3093,-110.048,695.1,42.1,271.0,3.4,-0.4,10.38,39.74,1.9441,392.2248],
    [23145,1537401695,53.3093,-110.0486,693.9,41.0,270.9,3.3,-0.5,10.39,38.74,1.9448,392.8469],
    [23146,1537401696,53.3093,-110.0491,692.4,38.4,270.6,3.3,-0.5,10.55,39.46,1.9441,392.5839],
    [23147,1537401697,53.3093,-110.0497,691.1,37.1,270.3,3.3,-0.4,10.03,38.62,1.9443,392.0408],
    [23148,1537401698,53.3093,-110.0503,690.1,36.1,270.3,3.3,-0.4,10.85,38.52,1.9445,392.934],
    [23149,1537401699,53.3093,-110.0509,688.9,35.9,270.3,3.3,-0.5,10.0,38.72,1.9433,391.9214],
    [23150,1537401700,53.3093,-110.0515,687.8,34.8,270.1,3.2,-0.4,10.47,38.81,1.9439,393.1282],
    [23151,1537401701,53.3093,-110.0521,686.8,33.8,270.2,3.0,-0.4,9.85,38.66,1.9433,393.9281],
    [23152,1537401702,53.3093,-110.0527,685.3,32.3,270.4,2.9,-0.4,10.51,38.43,1.9442,392.164],
    [23153,1537401703,53.3093,-110.0532,683.9,30.9,270.7,2.8,-0.5,10.87,38.05,1.9448,393.4001],
    [23154,1537401704,53.3093,-110.0538,682.2,29.2,270.5,2.8,-0.3,11.02,38.14,1.9442,393.4431],
    [23155,1537401705,53.3093,-110.0544,680.6,27.6,270.1,2.9,-0.1,10.45,39.34,1.9443,393.6767],
    [23156,1537401706,53.3093,-110.0549,678.9,26.0,269.8,2.9,0.1,10.31,38.64,1.9454,392.3976],
    [23157,1537401707,53.3093,-110.0555,677.3,24.6,269.7,2.9,0.1,10.3,39.2,1.945,392.3283],
    [23158,1537401708,53.3093,-110.0561,675.7,22.7,270.0,2.9,0.1,10.93,38.2,1.945,392.3283],
    [23159,1537401709,53.3093,-110.0566,674.1,20.1,269.9,2.8,0.2,10.46,38.52,1.945,392.3283],
    [23160,1537401710,53.3093,-110.0572,672.5,17.5,269.8,2.7,0.2,10.58,38.72,1.945,392.3283],
    [23161,1537401711,53.3093,-110.0577,670.7,14.7,269.3,2.6,0.3,10.96,38.4,1.945,392.3283],
    [23162,1537401712,53.3092,-110.0583,669.0,12.7,269.1,2.3,0.1,10.74,39.21,1.945,392.3283],
    [23163,1537401713,53.3092,-110.0589,666.9,9.9,269.3,2.4,-0.1,11.16,38.26,1.945,392.3283],
    [23164,1537401714,53.3092,-110.0594,664.9,7.8,270.4,2.2,-0.6,10.73,38.95,1.945,392.3283],
    [23165,1537401715,53.3092,-110.06,662.7,6.6,271.2,1.7,-0.8,10.85,39.23,1.945,392.3283],
    [23166,1537401716,53.3092,-110.0606,661.0,4.0,271.4,1.2,-0.8,10.67,39.66,1.945,392.3283],
    [23167,1537401717,53.3092,-110.0611,660.1,3.1,270.7,0.5,-0.3,11.32,39.75,1.945,392.3283],
    [23168,1537401718,53.3092,-110.0616,660.3,3.3,270.6,0.3,-0.2,11.52,40.02,1.945,392.3283],
    [23169,1537401719,53.3092,-110.0621,660.8,2.8,270.7,0.6,-0.3,11.63,40.64,1.945,392.3283],
    [23170,1537401720,53.3092,-110.0627,660.9,2.9,270.3,0.4,-0.2,10.65,41.25,1.945,392.3283]
]}
